<?xml version='1.0' encoding='UTF-8'?><gpx version="1.1" creator="JPX - https://github.com/jenetics/jpx" xmlns="http://www.topografix.com/GPX/1/1"><trk><trkseg><trkpt lat="43.7191999" lon="10.8829359"><ele>28.0</ele><time>2026-04-06T05:11:42.334Z</time></trkpt><trkpt lat="43.7192006" lon="10.8828441"><ele>28.0</ele><time>2026-04-06T05:11:47.715Z</time></trkpt><trkpt lat="43.7191883" lon="10.8827583"><ele>28.0</ele><time>2026-04-06T05:11:56.251Z</time></trkpt><trkpt lat="43.719195" lon="10.8826633"><ele>28.0</ele><time>2026-04-06T05:13:34.335Z</time></trkpt><trkpt lat="43.719265" lon="10.882595"><ele>28.0</ele><time>2026-04-06T05:13:37.334Z</time></trkpt><trkpt lat="43.719325" lon="10.8825567"><ele>28.0</ele><time>2026-04-06T05:13:39.339Z</time></trkpt><trkpt lat="43.7193967" lon="10.882525"><ele>28.0</ele><time>2026-04-06T05:13:41.335Z</time></trkpt><trkpt lat="43.7194767" lon="10.882515"><ele>26.799999999999997</ele><time>2026-04-06T05:13:43.335Z</time></trkpt><trkpt lat="43.7195633" lon="10.882505"><ele>25.599999999999998</ele><time>2026-04-06T05:13:45.337Z</time></trkpt><trkpt lat="43.7196533" lon="10.8824733"><ele>24.4</ele><time>2026-04-06T05:13:47.336Z</time></trkpt><trkpt lat="43.7197467" lon="10.88245"><ele>23.200000000000003</ele><time>2026-04-06T05:13:49.337Z</time></trkpt><trkpt lat="43.71984" lon="10.8824433"><ele>22.0</ele><time>2026-04-06T05:13:51.336Z</time></trkpt><trkpt lat="43.7199333" lon="10.8824433"><ele>22.0</ele><time>2026-04-06T05:13:53.336Z</time></trkpt><trkpt lat="43.7200133" lon="10.882445"><ele>22.0</ele><time>2026-04-06T05:13:55.337Z</time></trkpt><trkpt lat="43.7200767" lon="10.8824333"><ele>22.0</ele><time>2026-04-06T05:13:57.336Z</time></trkpt><trkpt lat="43.7201317" lon="10.8823583"><ele>22.0</ele><time>2026-04-06T05:14:00.336Z</time></trkpt><trkpt lat="43.7201033" lon="10.882235"><ele>22.0</ele><time>2026-04-06T05:14:03.338Z</time></trkpt><trkpt lat="43.720075" lon="10.88215"><ele>22.0</ele><time>2026-04-06T05:14:05.338Z</time></trkpt><trkpt lat="43.7200383" lon="10.8820517"><ele>22.0</ele><time>2026-04-06T05:14:07.346Z</time></trkpt><trkpt lat="43.72" lon="10.88195"><ele>22.0</ele><time>2026-04-06T05:14:09.335Z</time></trkpt><trkpt lat="43.71996" lon="10.8818467"><ele>22.0</ele><time>2026-04-06T05:14:11.337Z</time></trkpt><trkpt lat="43.71992" lon="10.881735"><ele>22.0</ele><time>2026-04-06T05:14:13.337Z</time></trkpt><trkpt lat="43.7198767" lon="10.8816233"><ele>22.0</ele><time>2026-04-06T05:14:15.338Z</time></trkpt><trkpt lat="43.71983" lon="10.8815117"><ele>22.0</ele><time>2026-04-06T05:14:17.335Z</time></trkpt><trkpt lat="43.7197717" lon="10.88139"><ele>21.6</ele><time>2026-04-06T05:14:19.337Z</time></trkpt><trkpt lat="43.7197183" lon="10.8812717"><ele>21.200000000000003</ele><time>2026-04-06T05:14:21.334Z</time></trkpt><trkpt lat="43.7196833" lon="10.8811517"><ele>20.8</ele><time>2026-04-06T05:14:23.334Z</time></trkpt><trkpt lat="43.7196417" lon="10.8810267"><ele>20.4</ele><time>2026-04-06T05:14:25.336Z</time></trkpt><trkpt lat="43.71959" lon="10.88089"><ele>20.0</ele><time>2026-04-06T05:14:27.335Z</time></trkpt><trkpt lat="43.7195367" lon="10.8807483"><ele>19.75</ele><time>2026-04-06T05:14:29.336Z</time></trkpt><trkpt lat="43.7194933" lon="10.880605"><ele>19.5</ele><time>2026-04-06T05:14:31.336Z</time></trkpt><trkpt lat="43.71945" lon="10.8804583"><ele>19.25</ele><time>2026-04-06T05:14:33.336Z</time></trkpt><trkpt lat="43.719395" lon="10.880315"><ele>19.0</ele><time>2026-04-06T05:14:35.335Z</time></trkpt><trkpt lat="43.719335" lon="10.8801667"><ele>19.799999999999997</ele><time>2026-04-06T05:14:37.334Z</time></trkpt><trkpt lat="43.7192833" lon="10.8800083"><ele>20.599999999999998</ele><time>2026-04-06T05:14:39.338Z</time></trkpt><trkpt lat="43.7192533" lon="10.87993"><ele>21.4</ele><time>2026-04-06T05:14:40.337Z</time></trkpt><trkpt lat="43.7192017" lon="10.8797733"><ele>22.2</ele><time>2026-04-06T05:14:42.335Z</time></trkpt><trkpt lat="43.71917" lon="10.8796867"><ele>23.0</ele><time>2026-04-06T05:14:43.336Z</time></trkpt><trkpt lat="43.7191417" lon="10.8796017"><ele>23.0</ele><time>2026-04-06T05:14:44.334Z</time></trkpt><trkpt lat="43.71911" lon="10.8795167"><ele>23.0</ele><time>2026-04-06T05:14:45.333Z</time></trkpt><trkpt lat="43.71908" lon="10.8794333"><ele>23.0</ele><time>2026-04-06T05:14:46.336Z</time></trkpt><trkpt lat="43.7190517" lon="10.8793517"><ele>23.0</ele><time>2026-04-06T05:14:47.338Z</time></trkpt><trkpt lat="43.71902" lon="10.8792717"><ele>23.0</ele><time>2026-04-06T05:14:48.334Z</time></trkpt><trkpt lat="43.7189867" lon="10.87919"><ele>23.0</ele><time>2026-04-06T05:14:49.335Z</time></trkpt><trkpt lat="43.7189217" lon="10.8790367"><ele>22.666666666666668</ele><time>2026-04-06T05:14:51.334Z</time></trkpt><trkpt lat="43.71884" lon="10.878905"><ele>22.333333333333336</ele><time>2026-04-06T05:14:53.334Z</time></trkpt><trkpt lat="43.7187967" lon="10.87884"><ele>22.0</ele><time>2026-04-06T05:14:54.334Z</time></trkpt><trkpt lat="43.71875" lon="10.878775"><ele>21.666666666666668</ele><time>2026-04-06T05:14:55.335Z</time></trkpt><trkpt lat="43.7187" lon="10.8787133"><ele>21.333333333333332</ele><time>2026-04-06T05:14:56.339Z</time></trkpt><trkpt lat="43.7186383" lon="10.8786617"><ele>21.0</ele><time>2026-04-06T05:14:57.339Z</time></trkpt><trkpt lat="43.718575" lon="10.8786267"><ele>21.0</ele><time>2026-04-06T05:14:58.334Z</time></trkpt><trkpt lat="43.7185067" lon="10.878605"><ele>21.0</ele><time>2026-04-06T05:14:59.333Z</time></trkpt><trkpt lat="43.71844" lon="10.8785933"><ele>21.0</ele><time>2026-04-06T05:15:00.336Z</time></trkpt><trkpt lat="43.7183717" lon="10.8785917"><ele>21.0</ele><time>2026-04-06T05:15:01.334Z</time></trkpt><trkpt lat="43.7183017" lon="10.8785917"><ele>21.0</ele><time>2026-04-06T05:15:02.337Z</time></trkpt><trkpt lat="43.718235" lon="10.8786"><ele>21.0</ele><time>2026-04-06T05:15:03.334Z</time></trkpt><trkpt lat="43.7181717" lon="10.878615"><ele>21.0</ele><time>2026-04-06T05:15:04.336Z</time></trkpt><trkpt lat="43.7181067" lon="10.87863"><ele>21.0</ele><time>2026-04-06T05:15:05.333Z</time></trkpt><trkpt lat="43.7180433" lon="10.878645"><ele>21.0</ele><time>2026-04-06T05:15:06.334Z</time></trkpt><trkpt lat="43.7179767" lon="10.8786567"><ele>21.0</ele><time>2026-04-06T05:15:07.336Z</time></trkpt><trkpt lat="43.7179117" lon="10.8786733"><ele>21.0</ele><time>2026-04-06T05:15:08.336Z</time></trkpt><trkpt lat="43.717845" lon="10.878685"><ele>21.0</ele><time>2026-04-06T05:15:09.334Z</time></trkpt><trkpt lat="43.71778" lon="10.8787017"><ele>21.0</ele><time>2026-04-06T05:15:10.332Z</time></trkpt><trkpt lat="43.7177133" lon="10.87872"><ele>21.0</ele><time>2026-04-06T05:15:11.334Z</time></trkpt><trkpt lat="43.717645" lon="10.87874"><ele>21.285714285714285</ele><time>2026-04-06T05:15:12.335Z</time></trkpt><trkpt lat="43.7175783" lon="10.8787583"><ele>21.57142857142857</ele><time>2026-04-06T05:15:13.337Z</time></trkpt><trkpt lat="43.7175083" lon="10.8787767"><ele>21.857142857142858</ele><time>2026-04-06T05:15:14.333Z</time></trkpt><trkpt lat="43.71744" lon="10.8787917"><ele>22.142857142857142</ele><time>2026-04-06T05:15:15.333Z</time></trkpt><trkpt lat="43.7173733" lon="10.8788033"><ele>22.428571428571427</ele><time>2026-04-06T05:15:16.334Z</time></trkpt><trkpt lat="43.7173067" lon="10.8788117"><ele>22.714285714285715</ele><time>2026-04-06T05:15:17.337Z</time></trkpt><trkpt lat="43.7172383" lon="10.8788083"><ele>23.0</ele><time>2026-04-06T05:15:18.333Z</time></trkpt><trkpt lat="43.717175" lon="10.8787867"><ele>23.0</ele><time>2026-04-06T05:15:19.332Z</time></trkpt><trkpt lat="43.717115" lon="10.87876"><ele>23.0</ele><time>2026-04-06T05:15:20.333Z</time></trkpt><trkpt lat="43.7170017" lon="10.8787267"><ele>23.0</ele><time>2026-04-06T05:15:22.337Z</time></trkpt><trkpt lat="43.71689" lon="10.8787483"><ele>23.0</ele><time>2026-04-06T05:15:24.336Z</time></trkpt><trkpt lat="43.7168283" lon="10.8787733"><ele>23.0</ele><time>2026-04-06T05:15:25.335Z</time></trkpt><trkpt lat="43.716765" lon="10.8787967"><ele>23.0</ele><time>2026-04-06T05:15:26.337Z</time></trkpt><trkpt lat="43.716705" lon="10.878825"><ele>23.28571428571429</ele><time>2026-04-06T05:15:27.334Z</time></trkpt><trkpt lat="43.7166433" lon="10.8788517"><ele>23.57142857142857</ele><time>2026-04-06T05:15:28.337Z</time></trkpt><trkpt lat="43.71658" lon="10.8788783"><ele>23.857142857142858</ele><time>2026-04-06T05:15:29.334Z</time></trkpt><trkpt lat="43.7165133" lon="10.878905"><ele>24.142857142857146</ele><time>2026-04-06T05:15:30.339Z</time></trkpt><trkpt lat="43.7164517" lon="10.8789333"><ele>24.42857142857143</ele><time>2026-04-06T05:15:31.335Z</time></trkpt><trkpt lat="43.7163917" lon="10.8789633"><ele>24.714285714285715</ele><time>2026-04-06T05:15:32.334Z</time></trkpt><trkpt lat="43.71629" lon="10.8790183"><ele>25.0</ele><time>2026-04-06T05:15:34.333Z</time></trkpt><trkpt lat="43.7161783" lon="10.8790717"><ele>25.000000000000004</ele><time>2026-04-06T05:15:36.335Z</time></trkpt><trkpt lat="43.7161167" lon="10.8790933"><ele>25.0</ele><time>2026-04-06T05:15:37.335Z</time></trkpt><trkpt lat="43.716055" lon="10.87912"><ele>25.0</ele><time>2026-04-06T05:15:38.335Z</time></trkpt><trkpt lat="43.715995" lon="10.8791517"><ele>25.0</ele><time>2026-04-06T05:15:39.334Z</time></trkpt><trkpt lat="43.7159317" lon="10.87919"><ele>25.0</ele><time>2026-04-06T05:15:40.336Z</time></trkpt><trkpt lat="43.7158717" lon="10.8792417"><ele>25.000000000000004</ele><time>2026-04-06T05:15:41.334Z</time></trkpt><trkpt lat="43.7158183" lon="10.8793117"><ele>25.0</ele><time>2026-04-06T05:15:42.333Z</time></trkpt><trkpt lat="43.7157683" lon="10.8793867"><ele>25.000000000000004</ele><time>2026-04-06T05:15:43.335Z</time></trkpt><trkpt lat="43.7157217" lon="10.8794633"><ele>25.0</ele><time>2026-04-06T05:15:44.334Z</time></trkpt><trkpt lat="43.715675" lon="10.87954"><ele>25.0</ele><time>2026-04-06T05:15:45.338Z</time></trkpt><trkpt lat="43.715625" lon="10.879615"><ele>25.0</ele><time>2026-04-06T05:15:46.348Z</time></trkpt><trkpt lat="43.715575" lon="10.8796933"><ele>25.0</ele><time>2026-04-06T05:15:47.334Z</time></trkpt><trkpt lat="43.7155233" lon="10.8797733"><ele>25.000000000000004</ele><time>2026-04-06T05:15:48.334Z</time></trkpt><trkpt lat="43.7154767" lon="10.8798517"><ele>25.0</ele><time>2026-04-06T05:15:49.334Z</time></trkpt><trkpt lat="43.7154333" lon="10.87993"><ele>25.000000000000004</ele><time>2026-04-06T05:15:50.338Z</time></trkpt><trkpt lat="43.71539" lon="10.88001"><ele>25.0</ele><time>2026-04-06T05:15:51.334Z</time></trkpt><trkpt lat="43.7153467" lon="10.8800867"><ele>25.0</ele><time>2026-04-06T05:15:52.335Z</time></trkpt><trkpt lat="43.7152983" lon="10.8801633"><ele>25.0</ele><time>2026-04-06T05:15:53.338Z</time></trkpt><trkpt lat="43.71525" lon="10.880235"><ele>25.0</ele><time>2026-04-06T05:15:54.335Z</time></trkpt><trkpt lat="43.7152" lon="10.8803"><ele>25.000000000000004</ele><time>2026-04-06T05:15:55.338Z</time></trkpt><trkpt lat="43.7151417" lon="10.880355"><ele>25.0</ele><time>2026-04-06T05:15:56.336Z</time></trkpt><trkpt lat="43.7150767" lon="10.8804017"><ele>24.714285714285715</ele><time>2026-04-06T05:15:57.334Z</time></trkpt><trkpt lat="43.7150133" lon="10.8804467"><ele>24.42857142857143</ele><time>2026-04-06T05:15:58.334Z</time></trkpt><trkpt lat="43.7149483" lon="10.8804883"><ele>24.142857142857146</ele><time>2026-04-06T05:15:59.335Z</time></trkpt><trkpt lat="43.714885" lon="10.8805333"><ele>23.857142857142858</ele><time>2026-04-06T05:16:00.333Z</time></trkpt><trkpt lat="43.7148233" lon="10.8805683"><ele>23.57142857142857</ele><time>2026-04-06T05:16:01.34Z</time></trkpt><trkpt lat="43.7147617" lon="10.8806017"><ele>23.28571428571429</ele><time>2026-04-06T05:16:02.335Z</time></trkpt><trkpt lat="43.7147" lon="10.8806333"><ele>23.0</ele><time>2026-04-06T05:16:03.334Z</time></trkpt><trkpt lat="43.71459" lon="10.88069"><ele>23.0</ele><time>2026-04-06T05:16:05.333Z</time></trkpt><trkpt lat="43.7144917" lon="10.8807433"><ele>23.0</ele><time>2026-04-06T05:16:07.335Z</time></trkpt><trkpt lat="43.7144117" lon="10.8808083"><ele>23.0</ele><time>2026-04-06T05:16:09.335Z</time></trkpt><trkpt lat="43.7143733" lon="10.8809217"><ele>23.0</ele><time>2026-04-06T05:16:11.334Z</time></trkpt><trkpt lat="43.7143983" lon="10.8810567"><ele>23.0</ele><time>2026-04-06T05:16:13.334Z</time></trkpt><trkpt lat="43.7144233" lon="10.8812083"><ele>23.0</ele><time>2026-04-06T05:16:15.332Z</time></trkpt><trkpt lat="43.71445" lon="10.881365"><ele>23.0</ele><time>2026-04-06T05:16:17.337Z</time></trkpt><trkpt lat="43.714465" lon="10.8815067"><ele>23.0</ele><time>2026-04-06T05:16:19.334Z</time></trkpt><trkpt lat="43.7144267" lon="10.8816283"><ele>23.0</ele><time>2026-04-06T05:16:21.34Z</time></trkpt><trkpt lat="43.7143433" lon="10.881725"><ele>23.0</ele><time>2026-04-06T05:16:23.336Z</time></trkpt><trkpt lat="43.714235" lon="10.8818133"><ele>23.0</ele><time>2026-04-06T05:16:25.337Z</time></trkpt><trkpt lat="43.71418" lon="10.8818617"><ele>23.0</ele><time>2026-04-06T05:16:26.336Z</time></trkpt><trkpt lat="43.7140767" lon="10.881945"><ele>23.0</ele><time>2026-04-06T05:16:28.338Z</time></trkpt><trkpt lat="43.7139833" lon="10.8820167"><ele>23.0</ele><time>2026-04-06T05:16:30.333Z</time></trkpt><trkpt lat="43.713895" lon="10.8820983"><ele>23.0</ele><time>2026-04-06T05:16:32.334Z</time></trkpt><trkpt lat="43.713835" lon="10.8822183"><ele>23.0</ele><time>2026-04-06T05:16:34.337Z</time></trkpt><trkpt lat="43.7138133" lon="10.8823733"><ele>23.0</ele><time>2026-04-06T05:16:36.335Z</time></trkpt><trkpt lat="43.7137967" lon="10.8825283"><ele>23.0</ele><time>2026-04-06T05:16:38.334Z</time></trkpt><trkpt lat="43.7137733" lon="10.88267"><ele>23.0</ele><time>2026-04-06T05:16:40.333Z</time></trkpt><trkpt lat="43.713765" lon="10.882785"><ele>23.0</ele><time>2026-04-06T05:16:42.334Z</time></trkpt><trkpt lat="43.7137617" lon="10.8828867"><ele>23.0</ele><time>2026-04-06T05:16:44.334Z</time></trkpt><trkpt lat="43.7137067" lon="10.88298"><ele>23.0</ele><time>2026-04-06T05:16:47.337Z</time></trkpt><trkpt lat="43.7136317" lon="10.8829983"><ele>23.0</ele><time>2026-04-06T05:16:49.335Z</time></trkpt><trkpt lat="43.7135383" lon="10.8829967"><ele>23.0</ele><time>2026-04-06T05:16:51.337Z</time></trkpt><trkpt lat="43.7134367" lon="10.8829883"><ele>23.0</ele><time>2026-04-06T05:16:53.337Z</time></trkpt><trkpt lat="43.7133183" lon="10.88299"><ele>23.2</ele><time>2026-04-06T05:16:55.339Z</time></trkpt><trkpt lat="43.7132533" lon="10.8829883"><ele>23.4</ele><time>2026-04-06T05:16:56.34Z</time></trkpt><trkpt lat="43.71319" lon="10.882985"><ele>23.599999999999998</ele><time>2026-04-06T05:16:57.337Z</time></trkpt><trkpt lat="43.7130683" lon="10.8829683"><ele>23.799999999999997</ele><time>2026-04-06T05:16:59.336Z</time></trkpt><trkpt lat="43.7129467" lon="10.88294"><ele>24.0</ele><time>2026-04-06T05:17:01.336Z</time></trkpt><trkpt lat="43.71284" lon="10.8828667"><ele>24.0</ele><time>2026-04-06T05:17:03.333Z</time></trkpt><trkpt lat="43.7127633" lon="10.8827417"><ele>24.0</ele><time>2026-04-06T05:17:05.332Z</time></trkpt><trkpt lat="43.7127067" lon="10.8825867"><ele>24.0</ele><time>2026-04-06T05:17:07.334Z</time></trkpt><trkpt lat="43.7126583" lon="10.882425"><ele>24.0</ele><time>2026-04-06T05:17:09.336Z</time></trkpt><trkpt lat="43.7126267" lon="10.8823467"><ele>24.0</ele><time>2026-04-06T05:17:10.335Z</time></trkpt><trkpt lat="43.7125933" lon="10.8822717"><ele>23.999999999999996</ele><time>2026-04-06T05:17:11.332Z</time></trkpt><trkpt lat="43.7125583" lon="10.882195"><ele>24.0</ele><time>2026-04-06T05:17:12.337Z</time></trkpt><trkpt lat="43.7125183" lon="10.8821217"><ele>24.0</ele><time>2026-04-06T05:17:13.334Z</time></trkpt><trkpt lat="43.712475" lon="10.8820517"><ele>24.0</ele><time>2026-04-06T05:17:14.336Z</time></trkpt><trkpt lat="43.7124317" lon="10.8819817"><ele>24.0</ele><time>2026-04-06T05:17:15.332Z</time></trkpt><trkpt lat="43.7123867" lon="10.88191"><ele>23.999999999999996</ele><time>2026-04-06T05:17:16.337Z</time></trkpt><trkpt lat="43.7123417" lon="10.8818383"><ele>24.0</ele><time>2026-04-06T05:17:17.334Z</time></trkpt><trkpt lat="43.7122967" lon="10.881765"><ele>23.999999999999996</ele><time>2026-04-06T05:17:18.335Z</time></trkpt><trkpt lat="43.7122517" lon="10.88169"><ele>24.0</ele><time>2026-04-06T05:17:19.336Z</time></trkpt><trkpt lat="43.7122033" lon="10.881615"><ele>24.0</ele><time>2026-04-06T05:17:20.336Z</time></trkpt><trkpt lat="43.7121533" lon="10.8815417"><ele>24.0</ele><time>2026-04-06T05:17:21.335Z</time></trkpt><trkpt lat="43.7121033" lon="10.88147"><ele>24.0</ele><time>2026-04-06T05:17:22.334Z</time></trkpt><trkpt lat="43.7120533" lon="10.8813967"><ele>23.999999999999996</ele><time>2026-04-06T05:17:23.339Z</time></trkpt><trkpt lat="43.712005" lon="10.8813233"><ele>24.0</ele><time>2026-04-06T05:17:24.334Z</time></trkpt><trkpt lat="43.7119583" lon="10.88125"><ele>24.0</ele><time>2026-04-06T05:17:25.336Z</time></trkpt><trkpt lat="43.711915" lon="10.8811767"><ele>24.0</ele><time>2026-04-06T05:17:26.34Z</time></trkpt><trkpt lat="43.7118733" lon="10.8811083"><ele>24.0</ele><time>2026-04-06T05:17:27.334Z</time></trkpt><trkpt lat="43.7117917" lon="10.8809833"><ele>24.0</ele><time>2026-04-06T05:17:29.334Z</time></trkpt><trkpt lat="43.711745" lon="10.88092"><ele>24.0</ele><time>2026-04-06T05:17:30.336Z</time></trkpt><trkpt lat="43.71167" lon="10.880795"><ele>24.0</ele><time>2026-04-06T05:17:32.334Z</time></trkpt><trkpt lat="43.71161" lon="10.880685"><ele>23.6</ele><time>2026-04-06T05:17:34.344Z</time></trkpt><trkpt lat="43.7115533" lon="10.8805867"><ele>23.2</ele><time>2026-04-06T05:17:36.333Z</time></trkpt><trkpt lat="43.7114867" lon="10.8805"><ele>22.8</ele><time>2026-04-06T05:17:38.336Z</time></trkpt><trkpt lat="43.7114167" lon="10.8804233"><ele>22.400000000000002</ele><time>2026-04-06T05:17:40.334Z</time></trkpt><trkpt lat="43.7113967" lon="10.8803067"><ele>22.0</ele><time>2026-04-06T05:17:42.333Z</time></trkpt><trkpt lat="43.7114167" lon="10.88016"><ele>22.25</ele><time>2026-04-06T05:17:44.34Z</time></trkpt><trkpt lat="43.71145" lon="10.8800117"><ele>22.5</ele><time>2026-04-06T05:17:46.337Z</time></trkpt><trkpt lat="43.7114867" lon="10.879865"><ele>22.75</ele><time>2026-04-06T05:17:48.339Z</time></trkpt><trkpt lat="43.7115183" lon="10.87971"><ele>23.0</ele><time>2026-04-06T05:17:50.337Z</time></trkpt><trkpt lat="43.7115533" lon="10.879545"><ele>23.0</ele><time>2026-04-06T05:17:52.338Z</time></trkpt><trkpt lat="43.7115783" lon="10.87946"><ele>23.0</ele><time>2026-04-06T05:17:53.339Z</time></trkpt><trkpt lat="43.711605" lon="10.879375"><ele>23.0</ele><time>2026-04-06T05:17:54.336Z</time></trkpt><trkpt lat="43.7116317" lon="10.879285"><ele>23.0</ele><time>2026-04-06T05:17:55.335Z</time></trkpt><trkpt lat="43.7116583" lon="10.879195"><ele>23.0</ele><time>2026-04-06T05:17:56.339Z</time></trkpt><trkpt lat="43.7116817" lon="10.879105"><ele>23.0</ele><time>2026-04-06T05:17:57.334Z</time></trkpt><trkpt lat="43.7117067" lon="10.8790167"><ele>23.0</ele><time>2026-04-06T05:17:58.334Z</time></trkpt><trkpt lat="43.7117317" lon="10.87893"><ele>23.0</ele><time>2026-04-06T05:17:59.335Z</time></trkpt><trkpt lat="43.711755" lon="10.87884"><ele>23.0</ele><time>2026-04-06T05:18:00.335Z</time></trkpt><trkpt lat="43.71178" lon="10.878755"><ele>23.0</ele><time>2026-04-06T05:18:01.336Z</time></trkpt><trkpt lat="43.711805" lon="10.8786717"><ele>23.0</ele><time>2026-04-06T05:18:02.334Z</time></trkpt><trkpt lat="43.7118317" lon="10.8785867"><ele>23.0</ele><time>2026-04-06T05:18:03.334Z</time></trkpt><trkpt lat="43.7118567" lon="10.8784967"><ele>23.0</ele><time>2026-04-06T05:18:04.335Z</time></trkpt><trkpt lat="43.7118783" lon="10.8784067"><ele>23.0</ele><time>2026-04-06T05:18:05.338Z</time></trkpt><trkpt lat="43.7118967" lon="10.8783183"><ele>23.142857142857142</ele><time>2026-04-06T05:18:06.335Z</time></trkpt><trkpt lat="43.711915" lon="10.8782283"><ele>23.285714285714285</ele><time>2026-04-06T05:18:07.333Z</time></trkpt><trkpt lat="43.7119317" lon="10.8781383"><ele>23.428571428571427</ele><time>2026-04-06T05:18:08.334Z</time></trkpt><trkpt lat="43.711945" lon="10.8780467"><ele>23.57142857142857</ele><time>2026-04-06T05:18:09.337Z</time></trkpt><trkpt lat="43.7119533" lon="10.8779567"><ele>23.714285714285715</ele><time>2026-04-06T05:18:10.333Z</time></trkpt><trkpt lat="43.7119617" lon="10.8778633"><ele>23.857142857142854</ele><time>2026-04-06T05:18:11.338Z</time></trkpt><trkpt lat="43.7119667" lon="10.87776"><ele>24.0</ele><time>2026-04-06T05:18:12.334Z</time></trkpt><trkpt lat="43.711965" lon="10.87765"><ele>24.0</ele><time>2026-04-06T05:18:13.336Z</time></trkpt><trkpt lat="43.7119533" lon="10.8775333"><ele>24.0</ele><time>2026-04-06T05:18:14.336Z</time></trkpt><trkpt lat="43.7119333" lon="10.8774217"><ele>24.0</ele><time>2026-04-06T05:18:15.338Z</time></trkpt><trkpt lat="43.7119067" lon="10.8773233"><ele>24.0</ele><time>2026-04-06T05:18:16.336Z</time></trkpt><trkpt lat="43.7118733" lon="10.877245"><ele>24.0</ele><time>2026-04-06T05:18:17.333Z</time></trkpt><trkpt lat="43.7118" lon="10.8771533"><ele>24.0</ele><time>2026-04-06T05:18:19.332Z</time></trkpt><trkpt lat="43.71171" lon="10.8771367"><ele>24.166666666666668</ele><time>2026-04-06T05:18:21.335Z</time></trkpt><trkpt lat="43.711625" lon="10.877175"><ele>24.333333333333336</ele><time>2026-04-06T05:18:23.337Z</time></trkpt><trkpt lat="43.7115183" lon="10.8772183"><ele>24.5</ele><time>2026-04-06T05:18:25.332Z</time></trkpt><trkpt lat="43.711455" lon="10.8772467"><ele>24.666666666666668</ele><time>2026-04-06T05:18:26.334Z</time></trkpt><trkpt lat="43.711385" lon="10.8772767"><ele>24.833333333333336</ele><time>2026-04-06T05:18:27.337Z</time></trkpt><trkpt lat="43.7113117" lon="10.8772917"><ele>25.0</ele><time>2026-04-06T05:18:28.334Z</time></trkpt><trkpt lat="43.711245" lon="10.877315"><ele>25.000000000000004</ele><time>2026-04-06T05:18:29.335Z</time></trkpt><trkpt lat="43.71118" lon="10.8773483"><ele>25.0</ele><time>2026-04-06T05:18:30.338Z</time></trkpt><trkpt lat="43.7111167" lon="10.87738"><ele>25.0</ele><time>2026-04-06T05:18:31.334Z</time></trkpt><trkpt lat="43.7110533" lon="10.8774133"><ele>25.0</ele><time>2026-04-06T05:18:32.34Z</time></trkpt><trkpt lat="43.71099" lon="10.8774467"><ele>25.0</ele><time>2026-04-06T05:18:33.335Z</time></trkpt><trkpt lat="43.7109267" lon="10.8774783"><ele>25.000000000000004</ele><time>2026-04-06T05:18:34.335Z</time></trkpt><trkpt lat="43.71083" lon="10.8775383"><ele>25.0</ele><time>2026-04-06T05:18:36.333Z</time></trkpt><trkpt lat="43.7107483" lon="10.8775967"><ele>24.8</ele><time>2026-04-06T05:18:38.336Z</time></trkpt><trkpt lat="43.7106967" lon="10.877705"><ele>24.6</ele><time>2026-04-06T05:18:40.333Z</time></trkpt><trkpt lat="43.710695" lon="10.87783"><ele>24.4</ele><time>2026-04-06T05:18:42.333Z</time></trkpt><trkpt lat="43.7107083" lon="10.8779733"><ele>24.2</ele><time>2026-04-06T05:18:44.333Z</time></trkpt><trkpt lat="43.7106933" lon="10.8781233"><ele>24.0</ele><time>2026-04-06T05:18:46.335Z</time></trkpt><trkpt lat="43.7106383" lon="10.8782517"><ele>24.0</ele><time>2026-04-06T05:18:48.333Z</time></trkpt><trkpt lat="43.7105367" lon="10.8783533"><ele>24.0</ele><time>2026-04-06T05:18:50.334Z</time></trkpt><trkpt lat="43.7104783" lon="10.878405"><ele>24.0</ele><time>2026-04-06T05:18:51.333Z</time></trkpt><trkpt lat="43.7104217" lon="10.8784567"><ele>24.0</ele><time>2026-04-06T05:18:52.337Z</time></trkpt><trkpt lat="43.7103667" lon="10.878515"><ele>24.0</ele><time>2026-04-06T05:18:53.332Z</time></trkpt><trkpt lat="43.71031" lon="10.8785717"><ele>24.0</ele><time>2026-04-06T05:18:54.332Z</time></trkpt><trkpt lat="43.7102517" lon="10.8786283"><ele>23.857142857142854</ele><time>2026-04-06T05:18:55.335Z</time></trkpt><trkpt lat="43.7101983" lon="10.8786933"><ele>23.714285714285715</ele><time>2026-04-06T05:18:56.334Z</time></trkpt><trkpt lat="43.71015" lon="10.8787633"><ele>23.57142857142857</ele><time>2026-04-06T05:18:57.336Z</time></trkpt><trkpt lat="43.7101083" lon="10.8788433"><ele>23.428571428571427</ele><time>2026-04-06T05:18:58.333Z</time></trkpt><trkpt lat="43.710075" lon="10.8789317"><ele>23.285714285714285</ele><time>2026-04-06T05:18:59.335Z</time></trkpt><trkpt lat="43.7100433" lon="10.8790183"><ele>23.142857142857142</ele><time>2026-04-06T05:19:00.334Z</time></trkpt><trkpt lat="43.7100133" lon="10.8791083"><ele>23.0</ele><time>2026-04-06T05:19:01.333Z</time></trkpt><trkpt lat="43.7099883" lon="10.8791983"><ele>22.666666666666668</ele><time>2026-04-06T05:19:02.335Z</time></trkpt><trkpt lat="43.7099633" lon="10.8792917"><ele>22.333333333333336</ele><time>2026-04-06T05:19:03.333Z</time></trkpt><trkpt lat="43.7099367" lon="10.87939"><ele>22.0</ele><time>2026-04-06T05:19:04.335Z</time></trkpt><trkpt lat="43.7099133" lon="10.8794883"><ele>21.666666666666668</ele><time>2026-04-06T05:19:05.334Z</time></trkpt><trkpt lat="43.7098883" lon="10.87959"><ele>21.333333333333332</ele><time>2026-04-06T05:19:06.333Z</time></trkpt><trkpt lat="43.7098617" lon="10.8796917"><ele>21.0</ele><time>2026-04-06T05:19:07.334Z</time></trkpt><trkpt lat="43.7098333" lon="10.8797933"><ele>21.0</ele><time>2026-04-06T05:19:08.334Z</time></trkpt><trkpt lat="43.7098067" lon="10.879895"><ele>21.0</ele><time>2026-04-06T05:19:09.334Z</time></trkpt><trkpt lat="43.7097817" lon="10.88"><ele>21.0</ele><time>2026-04-06T05:19:10.333Z</time></trkpt><trkpt lat="43.7097583" lon="10.8801033"><ele>21.0</ele><time>2026-04-06T05:19:11.334Z</time></trkpt><trkpt lat="43.70974" lon="10.8802083"><ele>21.0</ele><time>2026-04-06T05:19:12.334Z</time></trkpt><trkpt lat="43.709725" lon="10.8803183"><ele>21.0</ele><time>2026-04-06T05:19:13.334Z</time></trkpt><trkpt lat="43.7097133" lon="10.8804283"><ele>21.0</ele><time>2026-04-06T05:19:14.337Z</time></trkpt><trkpt lat="43.7097033" lon="10.8805383"><ele>21.0</ele><time>2026-04-06T05:19:15.333Z</time></trkpt><trkpt lat="43.7096933" lon="10.8806467"><ele>21.0</ele><time>2026-04-06T05:19:16.336Z</time></trkpt><trkpt lat="43.7096833" lon="10.880755"><ele>21.0</ele><time>2026-04-06T05:19:17.334Z</time></trkpt><trkpt lat="43.7096717" lon="10.8808633"><ele>21.0</ele><time>2026-04-06T05:19:18.333Z</time></trkpt><trkpt lat="43.7096617" lon="10.8809733"><ele>21.0</ele><time>2026-04-06T05:19:19.334Z</time></trkpt><trkpt lat="43.7096533" lon="10.881085"><ele>21.333333333333332</ele><time>2026-04-06T05:19:20.334Z</time></trkpt><trkpt lat="43.709645" lon="10.8811967"><ele>21.666666666666668</ele><time>2026-04-06T05:19:21.335Z</time></trkpt><trkpt lat="43.7096367" lon="10.8813067"><ele>22.0</ele><time>2026-04-06T05:19:22.332Z</time></trkpt><trkpt lat="43.70963" lon="10.88142"><ele>22.333333333333336</ele><time>2026-04-06T05:19:23.336Z</time></trkpt><trkpt lat="43.7096267" lon="10.881535"><ele>22.666666666666668</ele><time>2026-04-06T05:19:24.335Z</time></trkpt><trkpt lat="43.7096217" lon="10.8816483"><ele>23.0</ele><time>2026-04-06T05:19:25.333Z</time></trkpt><trkpt lat="43.7096167" lon="10.8817617"><ele>22.833333333333336</ele><time>2026-04-06T05:19:26.339Z</time></trkpt><trkpt lat="43.7096117" lon="10.8818667"><ele>22.666666666666668</ele><time>2026-04-06T05:19:27.335Z</time></trkpt><trkpt lat="43.709605" lon="10.881965"><ele>22.5</ele><time>2026-04-06T05:19:28.336Z</time></trkpt><trkpt lat="43.7095983" lon="10.882055"><ele>22.333333333333332</ele><time>2026-04-06T05:19:29.335Z</time></trkpt><trkpt lat="43.7095783" lon="10.8822167"><ele>22.166666666666664</ele><time>2026-04-06T05:19:31.333Z</time></trkpt><trkpt lat="43.709515" lon="10.8823317"><ele>22.0</ele><time>2026-04-06T05:19:33.333Z</time></trkpt><trkpt lat="43.7094167" lon="10.88235"><ele>22.142857142857142</ele><time>2026-04-06T05:19:35.334Z</time></trkpt><trkpt lat="43.7093483" lon="10.88234"><ele>22.285714285714285</ele><time>2026-04-06T05:19:36.333Z</time></trkpt><trkpt lat="43.7092733" lon="10.8823267"><ele>22.42857142857143</ele><time>2026-04-06T05:19:37.333Z</time></trkpt><trkpt lat="43.7092" lon="10.882315"><ele>22.57142857142857</ele><time>2026-04-06T05:19:38.335Z</time></trkpt><trkpt lat="43.709125" lon="10.8822967"><ele>22.71428571428571</ele><time>2026-04-06T05:19:39.334Z</time></trkpt><trkpt lat="43.7090483" lon="10.8822817"><ele>22.857142857142858</ele><time>2026-04-06T05:19:40.337Z</time></trkpt><trkpt lat="43.7089717" lon="10.8822667"><ele>23.0</ele><time>2026-04-06T05:19:41.335Z</time></trkpt><trkpt lat="43.7088933" lon="10.8822467"><ele>23.0</ele><time>2026-04-06T05:19:42.335Z</time></trkpt><trkpt lat="43.7088167" lon="10.882225"><ele>23.0</ele><time>2026-04-06T05:19:43.334Z</time></trkpt><trkpt lat="43.70874" lon="10.8822033"><ele>23.0</ele><time>2026-04-06T05:19:44.355Z</time></trkpt><trkpt lat="43.7086667" lon="10.88218"><ele>23.0</ele><time>2026-04-06T05:19:45.334Z</time></trkpt><trkpt lat="43.7085933" lon="10.88215"><ele>23.0</ele><time>2026-04-06T05:19:46.333Z</time></trkpt><trkpt lat="43.7085233" lon="10.8821233"><ele>23.0</ele><time>2026-04-06T05:19:47.333Z</time></trkpt><trkpt lat="43.7084533" lon="10.882095"><ele>23.333333333333336</ele><time>2026-04-06T05:19:48.334Z</time></trkpt><trkpt lat="43.7083833" lon="10.88207"><ele>23.666666666666668</ele><time>2026-04-06T05:19:49.335Z</time></trkpt><trkpt lat="43.7083183" lon="10.88204"><ele>24.0</ele><time>2026-04-06T05:19:50.336Z</time></trkpt><trkpt lat="43.7082567" lon="10.88201"><ele>24.333333333333336</ele><time>2026-04-06T05:19:51.334Z</time></trkpt><trkpt lat="43.7081433" lon="10.8819517"><ele>24.666666666666668</ele><time>2026-04-06T05:19:53.337Z</time></trkpt><trkpt lat="43.7080333" lon="10.8819333"><ele>25.0</ele><time>2026-04-06T05:19:55.333Z</time></trkpt><trkpt lat="43.707945" lon="10.8819983"><ele>25.0</ele><time>2026-04-06T05:19:57.336Z</time></trkpt><trkpt lat="43.7078917" lon="10.8821"><ele>25.0</ele><time>2026-04-06T05:19:59.335Z</time></trkpt><trkpt lat="43.707855" lon="10.8822233"><ele>25.0</ele><time>2026-04-06T05:20:01.337Z</time></trkpt><trkpt lat="43.7078367" lon="10.8823783"><ele>25.0</ele><time>2026-04-06T05:20:03.338Z</time></trkpt><trkpt lat="43.7078417" lon="10.88254"><ele>25.0</ele><time>2026-04-06T05:20:05.333Z</time></trkpt><trkpt lat="43.7078517" lon="10.8826267"><ele>24.666666666666668</ele><time>2026-04-06T05:20:06.333Z</time></trkpt><trkpt lat="43.7078617" lon="10.882715"><ele>24.333333333333336</ele><time>2026-04-06T05:20:07.332Z</time></trkpt><trkpt lat="43.7078717" lon="10.8828017"><ele>24.0</ele><time>2026-04-06T05:20:08.333Z</time></trkpt><trkpt lat="43.70788" lon="10.88289"><ele>23.666666666666668</ele><time>2026-04-06T05:20:09.332Z</time></trkpt><trkpt lat="43.7079017" lon="10.8830533"><ele>23.333333333333336</ele><time>2026-04-06T05:20:11.335Z</time></trkpt><trkpt lat="43.7079183" lon="10.8831917"><ele>23.0</ele><time>2026-04-06T05:20:13.333Z</time></trkpt><trkpt lat="43.7079167" lon="10.8833217"><ele>23.0</ele><time>2026-04-06T05:20:15.333Z</time></trkpt><trkpt lat="43.707885" lon="10.88342"><ele>23.0</ele><time>2026-04-06T05:20:17.333Z</time></trkpt><trkpt lat="43.70782" lon="10.88347"><ele>23.0</ele><time>2026-04-06T05:20:19.334Z</time></trkpt><trkpt lat="43.7077333" lon="10.8834933"><ele>23.0</ele><time>2026-04-06T05:20:21.335Z</time></trkpt><trkpt lat="43.7076467" lon="10.8835333"><ele>23.0</ele><time>2026-04-06T05:20:23.333Z</time></trkpt><trkpt lat="43.7075383" lon="10.8835717"><ele>23.0</ele><time>2026-04-06T05:20:25.333Z</time></trkpt><trkpt lat="43.7074283" lon="10.8836217"><ele>23.2</ele><time>2026-04-06T05:20:27.333Z</time></trkpt><trkpt lat="43.7073217" lon="10.8836733"><ele>23.4</ele><time>2026-04-06T05:20:29.334Z</time></trkpt><trkpt lat="43.7072233" lon="10.8837267"><ele>23.599999999999998</ele><time>2026-04-06T05:20:31.335Z</time></trkpt><trkpt lat="43.707105" lon="10.88376"><ele>23.799999999999997</ele><time>2026-04-06T05:20:33.334Z</time></trkpt><trkpt lat="43.7070433" lon="10.88378"><ele>24.0</ele><time>2026-04-06T05:20:34.334Z</time></trkpt><trkpt lat="43.7069783" lon="10.8837933"><ele>23.999999999999996</ele><time>2026-04-06T05:20:35.334Z</time></trkpt><trkpt lat="43.70691" lon="10.8838083"><ele>24.0</ele><time>2026-04-06T05:20:36.335Z</time></trkpt><trkpt lat="43.7068433" lon="10.88383"><ele>24.0</ele><time>2026-04-06T05:20:37.335Z</time></trkpt><trkpt lat="43.70678" lon="10.883855"><ele>24.0</ele><time>2026-04-06T05:20:38.334Z</time></trkpt><trkpt lat="43.706715" lon="10.883885"><ele>24.0</ele><time>2026-04-06T05:20:39.333Z</time></trkpt><trkpt lat="43.70665" lon="10.8839217"><ele>23.999999999999996</ele><time>2026-04-06T05:20:40.334Z</time></trkpt><trkpt lat="43.7065917" lon="10.883975"><ele>24.0</ele><time>2026-04-06T05:20:41.334Z</time></trkpt><trkpt lat="43.7065383" lon="10.8840383"><ele>23.999999999999996</ele><time>2026-04-06T05:20:42.334Z</time></trkpt><trkpt lat="43.7064917" lon="10.8841167"><ele>24.0</ele><time>2026-04-06T05:20:43.333Z</time></trkpt><trkpt lat="43.7064533" lon="10.8842033"><ele>24.0</ele><time>2026-04-06T05:20:44.338Z</time></trkpt><trkpt lat="43.70642" lon="10.8842933"><ele>24.0</ele><time>2026-04-06T05:20:45.333Z</time></trkpt><trkpt lat="43.7063883" lon="10.8843817"><ele>24.0</ele><time>2026-04-06T05:20:46.333Z</time></trkpt><trkpt lat="43.7063583" lon="10.8844783"><ele>23.999999999999996</ele><time>2026-04-06T05:20:47.333Z</time></trkpt><trkpt lat="43.7063333" lon="10.88458"><ele>24.0</ele><time>2026-04-06T05:20:48.334Z</time></trkpt><trkpt lat="43.7063117" lon="10.8846817"><ele>23.999999999999996</ele><time>2026-04-06T05:20:49.334Z</time></trkpt><trkpt lat="43.70629" lon="10.8847833"><ele>24.0</ele><time>2026-04-06T05:20:50.334Z</time></trkpt><trkpt lat="43.7062683" lon="10.884885"><ele>24.0</ele><time>2026-04-06T05:20:51.334Z</time></trkpt><trkpt lat="43.706245" lon="10.8849817"><ele>24.0</ele><time>2026-04-06T05:20:52.336Z</time></trkpt><trkpt lat="43.706225" lon="10.8850833"><ele>24.0</ele><time>2026-04-06T05:20:53.336Z</time></trkpt><trkpt lat="43.70621" lon="10.88518"><ele>23.999999999999996</ele><time>2026-04-06T05:20:54.332Z</time></trkpt><trkpt lat="43.7061933" lon="10.8852717"><ele>24.0</ele><time>2026-04-06T05:20:55.332Z</time></trkpt><trkpt lat="43.7061733" lon="10.8853617"><ele>23.999999999999996</ele><time>2026-04-06T05:20:56.335Z</time></trkpt><trkpt lat="43.7061467" lon="10.8854483"><ele>24.0</ele><time>2026-04-06T05:20:57.332Z</time></trkpt><trkpt lat="43.70611" lon="10.8855317"><ele>24.0</ele><time>2026-04-06T05:20:58.337Z</time></trkpt><trkpt lat="43.7060683" lon="10.8856167"><ele>24.0</ele><time>2026-04-06T05:20:59.335Z</time></trkpt><trkpt lat="43.7060183" lon="10.8856983"><ele>24.0</ele><time>2026-04-06T05:21:00.334Z</time></trkpt><trkpt lat="43.70597" lon="10.8857733"><ele>23.999999999999996</ele><time>2026-04-06T05:21:01.333Z</time></trkpt><trkpt lat="43.70592" lon="10.8858533"><ele>24.0</ele><time>2026-04-06T05:21:02.334Z</time></trkpt><trkpt lat="43.7058717" lon="10.8859333"><ele>24.57142857142857</ele><time>2026-04-06T05:21:03.334Z</time></trkpt><trkpt lat="43.705825" lon="10.8860133"><ele>25.142857142857142</ele><time>2026-04-06T05:21:04.337Z</time></trkpt><trkpt lat="43.7057783" lon="10.8860933"><ele>25.714285714285715</ele><time>2026-04-06T05:21:05.333Z</time></trkpt><trkpt lat="43.7057333" lon="10.8861717"><ele>26.285714285714285</ele><time>2026-04-06T05:21:06.333Z</time></trkpt><trkpt lat="43.7056917" lon="10.8862483"><ele>26.857142857142858</ele><time>2026-04-06T05:21:07.336Z</time></trkpt><trkpt lat="43.7056517" lon="10.8863267"><ele>27.428571428571427</ele><time>2026-04-06T05:21:08.342Z</time></trkpt><trkpt lat="43.70561" lon="10.88641"><ele>28.0</ele><time>2026-04-06T05:21:09.334Z</time></trkpt><trkpt lat="43.7055667" lon="10.88649"><ele>28.0</ele><time>2026-04-06T05:21:10.416Z</time></trkpt><trkpt lat="43.7055217" lon="10.8865633"><ele>28.0</ele><time>2026-04-06T05:21:11.338Z</time></trkpt><trkpt lat="43.7054767" lon="10.8866317"><ele>28.0</ele><time>2026-04-06T05:21:12.334Z</time></trkpt><trkpt lat="43.70543" lon="10.8867117"><ele>28.0</ele><time>2026-04-06T05:21:13.333Z</time></trkpt><trkpt lat="43.7053767" lon="10.8867917"><ele>28.0</ele><time>2026-04-06T05:21:14.335Z</time></trkpt><trkpt lat="43.7053233" lon="10.8868683"><ele>28.0</ele><time>2026-04-06T05:21:15.334Z</time></trkpt><trkpt lat="43.705265" lon="10.88694"><ele>28.0</ele><time>2026-04-06T05:21:16.333Z</time></trkpt><trkpt lat="43.7052083" lon="10.8870083"><ele>27.500000000000004</ele><time>2026-04-06T05:21:17.335Z</time></trkpt><trkpt lat="43.70515" lon="10.8870767"><ele>27.0</ele><time>2026-04-06T05:21:18.334Z</time></trkpt><trkpt lat="43.7050917" lon="10.8871417"><ele>26.5</ele><time>2026-04-06T05:21:19.334Z</time></trkpt><trkpt lat="43.70503" lon="10.8872083"><ele>26.0</ele><time>2026-04-06T05:21:20.334Z</time></trkpt><trkpt lat="43.7049683" lon="10.8872783"><ele>25.500000000000004</ele><time>2026-04-06T05:21:21.334Z</time></trkpt><trkpt lat="43.704905" lon="10.8873483"><ele>25.0</ele><time>2026-04-06T05:21:22.333Z</time></trkpt><trkpt lat="43.7048433" lon="10.887415"><ele>25.000000000000004</ele><time>2026-04-06T05:21:23.335Z</time></trkpt><trkpt lat="43.70478" lon="10.8874833"><ele>25.0</ele><time>2026-04-06T05:21:24.334Z</time></trkpt><trkpt lat="43.7047167" lon="10.88755"><ele>25.0</ele><time>2026-04-06T05:21:25.333Z</time></trkpt><trkpt lat="43.704655" lon="10.8876217"><ele>25.0</ele><time>2026-04-06T05:21:26.336Z</time></trkpt><trkpt lat="43.704595" lon="10.887695"><ele>25.000000000000004</ele><time>2026-04-06T05:21:27.335Z</time></trkpt><trkpt lat="43.7045383" lon="10.88777"><ele>25.0</ele><time>2026-04-06T05:21:28.336Z</time></trkpt><trkpt lat="43.7044817" lon="10.8878467"><ele>25.000000000000004</ele><time>2026-04-06T05:21:29.334Z</time></trkpt><trkpt lat="43.7044217" lon="10.8879183"><ele>25.0</ele><time>2026-04-06T05:21:30.334Z</time></trkpt><trkpt lat="43.7043583" lon="10.887985"><ele>25.0</ele><time>2026-04-06T05:21:31.333Z</time></trkpt><trkpt lat="43.7042933" lon="10.8880417"><ele>25.0</ele><time>2026-04-06T05:21:32.337Z</time></trkpt><trkpt lat="43.704225" lon="10.8880917"><ele>25.000000000000004</ele><time>2026-04-06T05:21:33.333Z</time></trkpt><trkpt lat="43.704155" lon="10.8881367"><ele>25.0</ele><time>2026-04-06T05:21:34.337Z</time></trkpt><trkpt lat="43.704085" lon="10.8881817"><ele>25.000000000000004</ele><time>2026-04-06T05:21:35.335Z</time></trkpt><trkpt lat="43.704015" lon="10.8882283"><ele>25.0</ele><time>2026-04-06T05:21:36.337Z</time></trkpt><trkpt lat="43.7039417" lon="10.88827"><ele>25.0</ele><time>2026-04-06T05:21:37.335Z</time></trkpt><trkpt lat="43.7038683" lon="10.88831"><ele>25.0</ele><time>2026-04-06T05:21:38.334Z</time></trkpt><trkpt lat="43.7037967" lon="10.8883567"><ele>25.000000000000004</ele><time>2026-04-06T05:21:39.333Z</time></trkpt><trkpt lat="43.7037317" lon="10.8884217"><ele>25.0</ele><time>2026-04-06T05:21:40.332Z</time></trkpt><trkpt lat="43.7036733" lon="10.8884967"><ele>24.833333333333336</ele><time>2026-04-06T05:21:41.334Z</time></trkpt><trkpt lat="43.7036183" lon="10.8885767"><ele>24.666666666666668</ele><time>2026-04-06T05:21:42.332Z</time></trkpt><trkpt lat="43.703565" lon="10.888655"><ele>24.5</ele><time>2026-04-06T05:21:43.336Z</time></trkpt><trkpt lat="43.7035083" lon="10.8887317"><ele>24.333333333333336</ele><time>2026-04-06T05:21:44.333Z</time></trkpt><trkpt lat="43.70345" lon="10.888805"><ele>24.166666666666668</ele><time>2026-04-06T05:21:45.335Z</time></trkpt><trkpt lat="43.7033917" lon="10.88887"><ele>24.0</ele><time>2026-04-06T05:21:46.333Z</time></trkpt><trkpt lat="43.7033283" lon="10.8889217"><ele>23.857142857142854</ele><time>2026-04-06T05:21:47.336Z</time></trkpt><trkpt lat="43.70326" lon="10.8889567"><ele>23.714285714285715</ele><time>2026-04-06T05:21:48.334Z</time></trkpt><trkpt lat="43.7031883" lon="10.888965"><ele>23.57142857142857</ele><time>2026-04-06T05:21:49.334Z</time></trkpt><trkpt lat="43.7031183" lon="10.8889517"><ele>23.428571428571427</ele><time>2026-04-06T05:21:50.333Z</time></trkpt><trkpt lat="43.7030517" lon="10.8889233"><ele>23.285714285714285</ele><time>2026-04-06T05:21:51.338Z</time></trkpt><trkpt lat="43.7029817" lon="10.8888883"><ele>23.142857142857142</ele><time>2026-04-06T05:21:52.335Z</time></trkpt><trkpt lat="43.7029067" lon="10.8888567"><ele>23.0</ele><time>2026-04-06T05:21:53.335Z</time></trkpt><trkpt lat="43.7028317" lon="10.8888267"><ele>23.0</ele><time>2026-04-06T05:21:54.334Z</time></trkpt><trkpt lat="43.702755" lon="10.8887967"><ele>23.0</ele><time>2026-04-06T05:21:55.334Z</time></trkpt><trkpt lat="43.70268" lon="10.8887683"><ele>23.0</ele><time>2026-04-06T05:21:56.334Z</time></trkpt><trkpt lat="43.702605" lon="10.8887383"><ele>23.0</ele><time>2026-04-06T05:21:57.333Z</time></trkpt><trkpt lat="43.7025267" lon="10.8887117"><ele>23.0</ele><time>2026-04-06T05:21:58.332Z</time></trkpt><trkpt lat="43.7024483" lon="10.88869"><ele>23.0</ele><time>2026-04-06T05:21:59.333Z</time></trkpt><trkpt lat="43.70237" lon="10.8886633"><ele>23.166666666666668</ele><time>2026-04-06T05:22:00.333Z</time></trkpt><trkpt lat="43.7022933" lon="10.8886283"><ele>23.333333333333336</ele><time>2026-04-06T05:22:01.334Z</time></trkpt><trkpt lat="43.7022233" lon="10.88858"><ele>23.5</ele><time>2026-04-06T05:22:02.338Z</time></trkpt><trkpt lat="43.7021583" lon="10.888525"><ele>23.666666666666668</ele><time>2026-04-06T05:22:03.334Z</time></trkpt><trkpt lat="43.7020867" lon="10.888475"><ele>23.833333333333332</ele><time>2026-04-06T05:22:04.333Z</time></trkpt><trkpt lat="43.7020083" lon="10.88844"><ele>24.0</ele><time>2026-04-06T05:22:05.338Z</time></trkpt><trkpt lat="43.701925" lon="10.8884217"><ele>24.166666666666668</ele><time>2026-04-06T05:22:06.333Z</time></trkpt><trkpt lat="43.7018417" lon="10.888415"><ele>24.333333333333336</ele><time>2026-04-06T05:22:07.334Z</time></trkpt><trkpt lat="43.7017583" lon="10.8884117"><ele>24.5</ele><time>2026-04-06T05:22:08.334Z</time></trkpt><trkpt lat="43.7016783" lon="10.8884133"><ele>24.666666666666668</ele><time>2026-04-06T05:22:09.339Z</time></trkpt><trkpt lat="43.701595" lon="10.88842"><ele>24.833333333333336</ele><time>2026-04-06T05:22:10.334Z</time></trkpt><trkpt lat="43.7015117" lon="10.8884283"><ele>25.0</ele><time>2026-04-06T05:22:11.334Z</time></trkpt><trkpt lat="43.7014317" lon="10.8884383"><ele>25.000000000000004</ele><time>2026-04-06T05:22:12.336Z</time></trkpt><trkpt lat="43.7013517" lon="10.8884417"><ele>25.0</ele><time>2026-04-06T05:22:13.344Z</time></trkpt><trkpt lat="43.70127" lon="10.8884433"><ele>25.0</ele><time>2026-04-06T05:22:14.335Z</time></trkpt><trkpt lat="43.701185" lon="10.8884467"><ele>25.0</ele><time>2026-04-06T05:22:15.333Z</time></trkpt><trkpt lat="43.7011033" lon="10.8884517"><ele>25.000000000000004</ele><time>2026-04-06T05:22:16.336Z</time></trkpt><trkpt lat="43.7010183" lon="10.8884617"><ele>25.0</ele><time>2026-04-06T05:22:17.332Z</time></trkpt><trkpt lat="43.700935" lon="10.8884733"><ele>25.000000000000004</ele><time>2026-04-06T05:22:18.335Z</time></trkpt><trkpt lat="43.70085" lon="10.8884867"><ele>25.0</ele><time>2026-04-06T05:22:19.334Z</time></trkpt><trkpt lat="43.7007667" lon="10.8885017"><ele>25.0</ele><time>2026-04-06T05:22:20.335Z</time></trkpt><trkpt lat="43.7006817" lon="10.88851"><ele>25.0</ele><time>2026-04-06T05:22:21.336Z</time></trkpt><trkpt lat="43.7005967" lon="10.8885183"><ele>25.000000000000004</ele><time>2026-04-06T05:22:22.336Z</time></trkpt><trkpt lat="43.7005167" lon="10.8885267"><ele>25.0</ele><time>2026-04-06T05:22:23.34Z</time></trkpt><trkpt lat="43.700445" lon="10.888535"><ele>25.000000000000004</ele><time>2026-04-06T05:22:24.334Z</time></trkpt><trkpt lat="43.7003817" lon="10.8885467"><ele>25.0</ele><time>2026-04-06T05:22:25.335Z</time></trkpt><trkpt lat="43.7002717" lon="10.88856"><ele>25.0</ele><time>2026-04-06T05:22:27.333Z</time></trkpt><trkpt lat="43.7001817" lon="10.8885517"><ele>25.0</ele><time>2026-04-06T05:22:29.333Z</time></trkpt><trkpt lat="43.700125" lon="10.8884917"><ele>25.000000000000004</ele><time>2026-04-06T05:22:31.334Z</time></trkpt><trkpt lat="43.7001033" lon="10.888385"><ele>25.0</ele><time>2026-04-06T05:22:33.335Z</time></trkpt><trkpt lat="43.7000917" lon="10.8882467"><ele>25.166666666666668</ele><time>2026-04-06T05:22:35.337Z</time></trkpt><trkpt lat="43.7000783" lon="10.8881217"><ele>25.333333333333336</ele><time>2026-04-06T05:22:37.333Z</time></trkpt><trkpt lat="43.7000617" lon="10.887975"><ele>25.5</ele><time>2026-04-06T05:22:39.335Z</time></trkpt><trkpt lat="43.7000517" lon="10.8878883"><ele>25.666666666666664</ele><time>2026-04-06T05:22:40.332Z</time></trkpt><trkpt lat="43.7000433" lon="10.8877983"><ele>25.833333333333332</ele><time>2026-04-06T05:22:41.333Z</time></trkpt><trkpt lat="43.7000383" lon="10.8877067"><ele>26.0</ele><time>2026-04-06T05:22:42.332Z</time></trkpt><trkpt lat="43.70003" lon="10.88762"><ele>26.142857142857142</ele><time>2026-04-06T05:22:43.333Z</time></trkpt><trkpt lat="43.7000217" lon="10.8875317"><ele>26.28571428571429</ele><time>2026-04-06T05:22:44.337Z</time></trkpt><trkpt lat="43.7000067" lon="10.8874417"><ele>26.42857142857143</ele><time>2026-04-06T05:22:45.337Z</time></trkpt><trkpt lat="43.6999933" lon="10.8873467"><ele>26.57142857142857</ele><time>2026-04-06T05:22:46.333Z</time></trkpt><trkpt lat="43.6999817" lon="10.8872483"><ele>26.714285714285715</ele><time>2026-04-06T05:22:47.333Z</time></trkpt><trkpt lat="43.6999683" lon="10.8871467"><ele>26.857142857142858</ele><time>2026-04-06T05:22:48.334Z</time></trkpt><trkpt lat="43.6999567" lon="10.88705"><ele>27.0</ele><time>2026-04-06T05:22:49.334Z</time></trkpt><trkpt lat="43.6999433" lon="10.8869567"><ele>27.0</ele><time>2026-04-06T05:22:50.337Z</time></trkpt><trkpt lat="43.6999217" lon="10.8868633"><ele>27.0</ele><time>2026-04-06T05:22:51.334Z</time></trkpt><trkpt lat="43.699895" lon="10.8867717"><ele>27.0</ele><time>2026-04-06T05:22:52.334Z</time></trkpt><trkpt lat="43.69986" lon="10.886685"><ele>27.0</ele><time>2026-04-06T05:22:53.334Z</time></trkpt><trkpt lat="43.6998167" lon="10.8866033"><ele>27.0</ele><time>2026-04-06T05:22:54.333Z</time></trkpt><trkpt lat="43.6997683" lon="10.8865267"><ele>27.0</ele><time>2026-04-06T05:22:55.334Z</time></trkpt><trkpt lat="43.6997133" lon="10.8864567"><ele>27.0</ele><time>2026-04-06T05:22:56.333Z</time></trkpt><trkpt lat="43.6996533" lon="10.886395"><ele>26.833333333333332</ele><time>2026-04-06T05:22:57.333Z</time></trkpt><trkpt lat="43.6995883" lon="10.88634"><ele>26.666666666666664</ele><time>2026-04-06T05:22:58.336Z</time></trkpt><trkpt lat="43.69952" lon="10.8862967"><ele>26.5</ele><time>2026-04-06T05:22:59.334Z</time></trkpt><trkpt lat="43.6994467" lon="10.8862617"><ele>26.333333333333332</ele><time>2026-04-06T05:23:00.334Z</time></trkpt><trkpt lat="43.69937" lon="10.8862383"><ele>26.166666666666664</ele><time>2026-04-06T05:23:01.335Z</time></trkpt><trkpt lat="43.699295" lon="10.88622"><ele>26.0</ele><time>2026-04-06T05:23:02.334Z</time></trkpt><trkpt lat="43.69922" lon="10.8862033"><ele>26.0</ele><time>2026-04-06T05:23:03.332Z</time></trkpt><trkpt lat="43.699145" lon="10.8861933"><ele>26.0</ele><time>2026-04-06T05:23:04.333Z</time></trkpt><trkpt lat="43.6990717" lon="10.8861917"><ele>26.0</ele><time>2026-04-06T05:23:05.335Z</time></trkpt><trkpt lat="43.6989967" lon="10.886195"><ele>26.0</ele><time>2026-04-06T05:23:06.336Z</time></trkpt><trkpt lat="43.698925" lon="10.8862"><ele>26.0</ele><time>2026-04-06T05:23:07.337Z</time></trkpt><trkpt lat="43.69885" lon="10.886205"><ele>26.0</ele><time>2026-04-06T05:23:08.332Z</time></trkpt><trkpt lat="43.69878" lon="10.8862133"><ele>26.0</ele><time>2026-04-06T05:23:09.333Z</time></trkpt><trkpt lat="43.6987133" lon="10.8862233"><ele>26.0</ele><time>2026-04-06T05:23:10.333Z</time></trkpt><trkpt lat="43.69865" lon="10.8862333"><ele>26.0</ele><time>2026-04-06T05:23:11.332Z</time></trkpt><trkpt lat="43.6985317" lon="10.8862417"><ele>26.0</ele><time>2026-04-06T05:23:13.333Z</time></trkpt><trkpt lat="43.6984183" lon="10.8862317"><ele>26.0</ele><time>2026-04-06T05:23:15.334Z</time></trkpt><trkpt lat="43.6983" lon="10.886215"><ele>26.0</ele><time>2026-04-06T05:23:17.335Z</time></trkpt><trkpt lat="43.698175" lon="10.8862033"><ele>26.0</ele><time>2026-04-06T05:23:19.334Z</time></trkpt><trkpt lat="43.6981067" lon="10.8862017"><ele>26.0</ele><time>2026-04-06T05:23:20.334Z</time></trkpt><trkpt lat="43.698035" lon="10.8862017"><ele>26.0</ele><time>2026-04-06T05:23:21.335Z</time></trkpt><trkpt lat="43.697965" lon="10.8862017"><ele>26.0</ele><time>2026-04-06T05:23:22.332Z</time></trkpt><trkpt lat="43.6978933" lon="10.8862033"><ele>26.0</ele><time>2026-04-06T05:23:23.334Z</time></trkpt><trkpt lat="43.6978233" lon="10.8862"><ele>26.0</ele><time>2026-04-06T05:23:24.334Z</time></trkpt><trkpt lat="43.6977533" lon="10.8861967"><ele>26.0</ele><time>2026-04-06T05:23:25.335Z</time></trkpt><trkpt lat="43.697685" lon="10.8861967"><ele>26.0</ele><time>2026-04-06T05:23:26.334Z</time></trkpt><trkpt lat="43.697615" lon="10.8862"><ele>26.0</ele><time>2026-04-06T05:23:27.337Z</time></trkpt><trkpt lat="43.69755" lon="10.886205"><ele>26.0</ele><time>2026-04-06T05:23:28.334Z</time></trkpt><trkpt lat="43.6974817" lon="10.8862117"><ele>26.0</ele><time>2026-04-06T05:23:29.333Z</time></trkpt><trkpt lat="43.697415" lon="10.8862167"><ele>26.0</ele><time>2026-04-06T05:23:30.333Z</time></trkpt><trkpt lat="43.69735" lon="10.8862183"><ele>26.0</ele><time>2026-04-06T05:23:31.333Z</time></trkpt><trkpt lat="43.697285" lon="10.8862217"><ele>26.0</ele><time>2026-04-06T05:23:32.333Z</time></trkpt><trkpt lat="43.6972167" lon="10.88621"><ele>26.0</ele><time>2026-04-06T05:23:33.333Z</time></trkpt><trkpt lat="43.69715" lon="10.8861867"><ele>26.0</ele><time>2026-04-06T05:23:34.332Z</time></trkpt><trkpt lat="43.697085" lon="10.886155"><ele>26.0</ele><time>2026-04-06T05:23:35.335Z</time></trkpt><trkpt lat="43.69702" lon="10.8861167"><ele>26.0</ele><time>2026-04-06T05:23:36.333Z</time></trkpt><trkpt lat="43.69696" lon="10.8860767"><ele>26.0</ele><time>2026-04-06T05:23:37.337Z</time></trkpt><trkpt lat="43.6969" lon="10.8860283"><ele>26.0</ele><time>2026-04-06T05:23:38.333Z</time></trkpt><trkpt lat="43.69684" lon="10.8859783"><ele>26.0</ele><time>2026-04-06T05:23:39.333Z</time></trkpt><trkpt lat="43.69678" lon="10.88593"><ele>26.285714285714285</ele><time>2026-04-06T05:23:40.333Z</time></trkpt><trkpt lat="43.6967183" lon="10.8858817"><ele>26.571428571428573</ele><time>2026-04-06T05:23:41.337Z</time></trkpt><trkpt lat="43.6966567" lon="10.8858367"><ele>26.857142857142858</ele><time>2026-04-06T05:23:42.335Z</time></trkpt><trkpt lat="43.6965983" lon="10.8857867"><ele>27.142857142857142</ele><time>2026-04-06T05:23:43.333Z</time></trkpt><trkpt lat="43.6965367" lon="10.8857333"><ele>27.42857142857143</ele><time>2026-04-06T05:23:44.332Z</time></trkpt><trkpt lat="43.6964717" lon="10.88569"><ele>27.714285714285715</ele><time>2026-04-06T05:23:45.333Z</time></trkpt><trkpt lat="43.6964067" lon="10.8856517"><ele>28.0</ele><time>2026-04-06T05:23:46.333Z</time></trkpt><trkpt lat="43.69634" lon="10.8856167"><ele>28.0</ele><time>2026-04-06T05:23:47.335Z</time></trkpt><trkpt lat="43.6962733" lon="10.885585"><ele>28.0</ele><time>2026-04-06T05:23:48.333Z</time></trkpt><trkpt lat="43.6962033" lon="10.8855533"><ele>28.0</ele><time>2026-04-06T05:23:49.333Z</time></trkpt><trkpt lat="43.6961333" lon="10.88552"><ele>28.0</ele><time>2026-04-06T05:23:50.335Z</time></trkpt><trkpt lat="43.696065" lon="10.8854833"><ele>28.0</ele><time>2026-04-06T05:23:51.337Z</time></trkpt><trkpt lat="43.6959967" lon="10.8854383"><ele>28.0</ele><time>2026-04-06T05:23:52.333Z</time></trkpt><trkpt lat="43.6959333" lon="10.885385"><ele>28.0</ele><time>2026-04-06T05:23:53.335Z</time></trkpt><trkpt lat="43.69587" lon="10.8853283"><ele>27.833333333333336</ele><time>2026-04-06T05:23:54.339Z</time></trkpt><trkpt lat="43.6958083" lon="10.8852667"><ele>27.666666666666668</ele><time>2026-04-06T05:23:55.332Z</time></trkpt><trkpt lat="43.6957483" lon="10.8852"><ele>27.5</ele><time>2026-04-06T05:23:56.338Z</time></trkpt><trkpt lat="43.6956867" lon="10.8851333"><ele>27.333333333333336</ele><time>2026-04-06T05:23:57.335Z</time></trkpt><trkpt lat="43.6956267" lon="10.885065"><ele>27.166666666666668</ele><time>2026-04-06T05:23:58.333Z</time></trkpt><trkpt lat="43.6955617" lon="10.8849983"><ele>27.0</ele><time>2026-04-06T05:23:59.336Z</time></trkpt><trkpt lat="43.6954967" lon="10.8849333"><ele>27.0</ele><time>2026-04-06T05:24:00.337Z</time></trkpt><trkpt lat="43.69543" lon="10.88487"><ele>27.0</ele><time>2026-04-06T05:24:01.333Z</time></trkpt><trkpt lat="43.69536" lon="10.8848117"><ele>27.0</ele><time>2026-04-06T05:24:02.342Z</time></trkpt><trkpt lat="43.6952867" lon="10.884755"><ele>27.0</ele><time>2026-04-06T05:24:03.335Z</time></trkpt><trkpt lat="43.6952117" lon="10.8847017"><ele>27.0</ele><time>2026-04-06T05:24:04.332Z</time></trkpt><trkpt lat="43.695135" lon="10.8846483"><ele>27.0</ele><time>2026-04-06T05:24:05.332Z</time></trkpt><trkpt lat="43.6950567" lon="10.8845933"><ele>27.0</ele><time>2026-04-06T05:24:06.333Z</time></trkpt><trkpt lat="43.69498" lon="10.88454"><ele>27.0</ele><time>2026-04-06T05:24:07.334Z</time></trkpt><trkpt lat="43.6949033" lon="10.8844917"><ele>27.0</ele><time>2026-04-06T05:24:08.334Z</time></trkpt><trkpt lat="43.6948283" lon="10.8844367"><ele>27.0</ele><time>2026-04-06T05:24:09.332Z</time></trkpt><trkpt lat="43.6947533" lon="10.8843767"><ele>27.0</ele><time>2026-04-06T05:24:10.334Z</time></trkpt><trkpt lat="43.6946783" lon="10.8843183"><ele>27.0</ele><time>2026-04-06T05:24:11.334Z</time></trkpt><trkpt lat="43.694605" lon="10.88426"><ele>27.0</ele><time>2026-04-06T05:24:12.332Z</time></trkpt><trkpt lat="43.6945333" lon="10.8842067"><ele>27.0</ele><time>2026-04-06T05:24:13.332Z</time></trkpt><trkpt lat="43.6944667" lon="10.8841533"><ele>27.0</ele><time>2026-04-06T05:24:14.334Z</time></trkpt><trkpt lat="43.6944" lon="10.8841017"><ele>27.0</ele><time>2026-04-06T05:24:15.332Z</time></trkpt><trkpt lat="43.6943333" lon="10.8840483"><ele>27.0</ele><time>2026-04-06T05:24:16.332Z</time></trkpt><trkpt lat="43.6942633" lon="10.8839967"><ele>27.0</ele><time>2026-04-06T05:24:17.333Z</time></trkpt><trkpt lat="43.6941933" lon="10.883945"><ele>26.833333333333332</ele><time>2026-04-06T05:24:18.334Z</time></trkpt><trkpt lat="43.6941233" lon="10.8838883"><ele>26.666666666666664</ele><time>2026-04-06T05:24:19.334Z</time></trkpt><trkpt lat="43.6940533" lon="10.8838333"><ele>26.5</ele><time>2026-04-06T05:24:20.333Z</time></trkpt><trkpt lat="43.69398" lon="10.8837783"><ele>26.333333333333332</ele><time>2026-04-06T05:24:21.333Z</time></trkpt><trkpt lat="43.6939067" lon="10.8837233"><ele>26.166666666666664</ele><time>2026-04-06T05:24:22.334Z</time></trkpt><trkpt lat="43.6938333" lon="10.88367"><ele>26.0</ele><time>2026-04-06T05:24:23.333Z</time></trkpt><trkpt lat="43.6937583" lon="10.883615"><ele>25.999999999999996</ele><time>2026-04-06T05:24:24.333Z</time></trkpt><trkpt lat="43.6936817" lon="10.88356"><ele>26.0</ele><time>2026-04-06T05:24:25.335Z</time></trkpt><trkpt lat="43.693605" lon="10.8835083"><ele>26.0</ele><time>2026-04-06T05:24:26.333Z</time></trkpt><trkpt lat="43.69353" lon="10.8834567"><ele>26.0</ele><time>2026-04-06T05:24:27.333Z</time></trkpt><trkpt lat="43.693455" lon="10.883405"><ele>25.999999999999996</ele><time>2026-04-06T05:24:28.333Z</time></trkpt><trkpt lat="43.6933783" lon="10.883355"><ele>26.0</ele><time>2026-04-06T05:24:29.334Z</time></trkpt><trkpt lat="43.6933033" lon="10.8833017"><ele>26.666666666666664</ele><time>2026-04-06T05:24:30.333Z</time></trkpt><trkpt lat="43.6932283" lon="10.8832483"><ele>27.333333333333332</ele><time>2026-04-06T05:24:31.337Z</time></trkpt><trkpt lat="43.6931567" lon="10.8831883"><ele>28.0</ele><time>2026-04-06T05:24:32.333Z</time></trkpt><trkpt lat="43.6930833" lon="10.883125"><ele>28.666666666666664</ele><time>2026-04-06T05:24:33.333Z</time></trkpt><trkpt lat="43.6930117" lon="10.8830617"><ele>29.333333333333332</ele><time>2026-04-06T05:24:34.333Z</time></trkpt><trkpt lat="43.69294" lon="10.883"><ele>30.0</ele><time>2026-04-06T05:24:35.335Z</time></trkpt><trkpt lat="43.6928667" lon="10.88294"><ele>30.0</ele><time>2026-04-06T05:24:36.333Z</time></trkpt><trkpt lat="43.6927917" lon="10.8828867"><ele>30.0</ele><time>2026-04-06T05:24:37.333Z</time></trkpt><trkpt lat="43.6927117" lon="10.8828383"><ele>30.0</ele><time>2026-04-06T05:24:38.335Z</time></trkpt><trkpt lat="43.6926333" lon="10.8827917"><ele>30.0</ele><time>2026-04-06T05:24:39.332Z</time></trkpt><trkpt lat="43.6925517" lon="10.8827517"><ele>30.0</ele><time>2026-04-06T05:24:40.335Z</time></trkpt><trkpt lat="43.6924717" lon="10.8827117"><ele>30.0</ele><time>2026-04-06T05:24:41.333Z</time></trkpt><trkpt lat="43.6923917" lon="10.8826667"><ele>30.0</ele><time>2026-04-06T05:24:42.334Z</time></trkpt><trkpt lat="43.6923133" lon="10.8826217"><ele>30.0</ele><time>2026-04-06T05:24:43.337Z</time></trkpt><trkpt lat="43.6922333" lon="10.8825783"><ele>30.0</ele><time>2026-04-06T05:24:44.334Z</time></trkpt><trkpt lat="43.692155" lon="10.882535"><ele>30.0</ele><time>2026-04-06T05:24:45.332Z</time></trkpt><trkpt lat="43.6920783" lon="10.8824917"><ele>30.0</ele><time>2026-04-06T05:24:46.335Z</time></trkpt><trkpt lat="43.692005" lon="10.88245"><ele>30.0</ele><time>2026-04-06T05:24:47.335Z</time></trkpt><trkpt lat="43.6919367" lon="10.8824133"><ele>30.333333333333332</ele><time>2026-04-06T05:24:48.332Z</time></trkpt><trkpt lat="43.6918733" lon="10.88238"><ele>30.666666666666664</ele><time>2026-04-06T05:24:49.332Z</time></trkpt><trkpt lat="43.6917617" lon="10.8823333"><ele>31.0</ele><time>2026-04-06T05:24:51.335Z</time></trkpt><trkpt lat="43.6916717" lon="10.8823083"><ele>31.333333333333332</ele><time>2026-04-06T05:24:53.332Z</time></trkpt><trkpt lat="43.6915833" lon="10.8822983"><ele>31.666666666666664</ele><time>2026-04-06T05:25:04.334Z</time></trkpt><trkpt lat="43.69152" lon="10.8823167"><ele>32.0</ele><time>2026-04-06T05:25:06.339Z</time></trkpt><trkpt lat="43.69144" lon="10.882335"><ele>32.0</ele><time>2026-04-06T05:25:08.337Z</time></trkpt><trkpt lat="43.691355" lon="10.882355"><ele>32.0</ele><time>2026-04-06T05:25:10.332Z</time></trkpt><trkpt lat="43.6912633" lon="10.8823933"><ele>32.0</ele><time>2026-04-06T05:25:12.332Z</time></trkpt><trkpt lat="43.69116" lon="10.882445"><ele>32.0</ele><time>2026-04-06T05:25:14.334Z</time></trkpt><trkpt lat="43.6910483" lon="10.8824567"><ele>32.0</ele><time>2026-04-06T05:25:16.338Z</time></trkpt><trkpt lat="43.6909367" lon="10.882445"><ele>32.4</ele><time>2026-04-06T05:25:18.338Z</time></trkpt><trkpt lat="43.6908283" lon="10.8824283"><ele>32.800000000000004</ele><time>2026-04-06T05:25:20.334Z</time></trkpt><trkpt lat="43.6907183" lon="10.8823983"><ele>33.2</ele><time>2026-04-06T05:25:22.334Z</time></trkpt><trkpt lat="43.690605" lon="10.8823417"><ele>33.6</ele><time>2026-04-06T05:25:24.335Z</time></trkpt><trkpt lat="43.6905467" lon="10.8823033"><ele>34.0</ele><time>2026-04-06T05:25:25.332Z</time></trkpt><trkpt lat="43.6904417" lon="10.882205"><ele>34.0</ele><time>2026-04-06T05:25:27.333Z</time></trkpt><trkpt lat="43.6903483" lon="10.8820967"><ele>34.0</ele><time>2026-04-06T05:25:29.333Z</time></trkpt><trkpt lat="43.6903" lon="10.8820383"><ele>34.0</ele><time>2026-04-06T05:25:30.332Z</time></trkpt><trkpt lat="43.6902517" lon="10.88198"><ele>34.0</ele><time>2026-04-06T05:25:31.337Z</time></trkpt><trkpt lat="43.6901967" lon="10.881925"><ele>34.0</ele><time>2026-04-06T05:25:32.335Z</time></trkpt><trkpt lat="43.6901367" lon="10.8818683"><ele>34.0</ele><time>2026-04-06T05:25:33.332Z</time></trkpt><trkpt lat="43.690075" lon="10.8818067"><ele>35.0</ele><time>2026-04-06T05:25:34.332Z</time></trkpt><trkpt lat="43.6900183" lon="10.8817367"><ele>36.0</ele><time>2026-04-06T05:25:35.333Z</time></trkpt><trkpt lat="43.6899683" lon="10.8816733"><ele>37.0</ele><time>2026-04-06T05:25:36.333Z</time></trkpt><trkpt lat="43.6898867" lon="10.8815833"><ele>38.0</ele><time>2026-04-06T05:25:38.332Z</time></trkpt><trkpt lat="43.6898183" lon="10.88157"><ele>39.0</ele><time>2026-04-06T05:25:40.333Z</time></trkpt><trkpt lat="43.6897183" lon="10.8815817"><ele>40.0</ele><time>2026-04-06T05:25:42.333Z</time></trkpt><trkpt lat="43.6896117" lon="10.8815633"><ele>40.0</ele><time>2026-04-06T05:25:44.334Z</time></trkpt><trkpt lat="43.689505" lon="10.8815483"><ele>40.0</ele><time>2026-04-06T05:25:46.332Z</time></trkpt><trkpt lat="43.6893867" lon="10.8815517"><ele>40.0</ele><time>2026-04-06T05:25:48.333Z</time></trkpt><trkpt lat="43.689265" lon="10.881565"><ele>40.0</ele><time>2026-04-06T05:25:50.332Z</time></trkpt><trkpt lat="43.6891533" lon="10.8815733"><ele>38.75</ele><time>2026-04-06T05:25:52.334Z</time></trkpt><trkpt lat="43.68904" lon="10.8815767"><ele>37.5</ele><time>2026-04-06T05:25:54.339Z</time></trkpt><trkpt lat="43.6889183" lon="10.8815733"><ele>36.25</ele><time>2026-04-06T05:25:56.336Z</time></trkpt><trkpt lat="43.6888017" lon="10.8815667"><ele>35.0</ele><time>2026-04-06T05:25:58.336Z</time></trkpt><trkpt lat="43.6886817" lon="10.8815833"><ele>35.25</ele><time>2026-04-06T05:26:00.332Z</time></trkpt><trkpt lat="43.6885633" lon="10.8815917"><ele>35.5</ele><time>2026-04-06T05:26:02.334Z</time></trkpt><trkpt lat="43.6884483" lon="10.8815967"><ele>35.75</ele><time>2026-04-06T05:26:04.333Z</time></trkpt><trkpt lat="43.68833" lon="10.8815967"><ele>36.0</ele><time>2026-04-06T05:26:06.34Z</time></trkpt><trkpt lat="43.6882283" lon="10.8815883"><ele>36.0</ele><time>2026-04-06T05:26:08.335Z</time></trkpt><trkpt lat="43.6881317" lon="10.8816033"><ele>36.0</ele><time>2026-04-06T05:26:10.344Z</time></trkpt><trkpt lat="43.6880567" lon="10.8816717"><ele>36.0</ele><time>2026-04-06T05:26:12.333Z</time></trkpt><trkpt lat="43.6880283" lon="10.8818"><ele>36.0</ele><time>2026-04-06T05:26:14.334Z</time></trkpt><trkpt lat="43.6880333" lon="10.8819417"><ele>36.0</ele><time>2026-04-06T05:26:16.334Z</time></trkpt><trkpt lat="43.6880367" lon="10.882065"><ele>35.6</ele><time>2026-04-06T05:26:18.337Z</time></trkpt><trkpt lat="43.6880367" lon="10.8822083"><ele>35.2</ele><time>2026-04-06T05:26:20.335Z</time></trkpt><trkpt lat="43.6880417" lon="10.882355"><ele>34.8</ele><time>2026-04-06T05:26:22.333Z</time></trkpt><trkpt lat="43.688035" lon="10.8824683"><ele>34.4</ele><time>2026-04-06T05:26:24.335Z</time></trkpt><trkpt lat="43.68801" lon="10.8825917"><ele>34.0</ele><time>2026-04-06T05:26:26.335Z</time></trkpt><trkpt lat="43.687965" lon="10.882705"><ele>34.4</ele><time>2026-04-06T05:26:28.333Z</time></trkpt><trkpt lat="43.687895" lon="10.882805"><ele>34.8</ele><time>2026-04-06T05:26:30.334Z</time></trkpt><trkpt lat="43.687815" lon="10.8828983"><ele>35.2</ele><time>2026-04-06T05:26:32.332Z</time></trkpt><trkpt lat="43.68774" lon="10.8829833"><ele>35.6</ele><time>2026-04-06T05:26:34.332Z</time></trkpt><trkpt lat="43.6876583" lon="10.883075"><ele>36.0</ele><time>2026-04-06T05:26:36.338Z</time></trkpt><trkpt lat="43.6875783" lon="10.8831583"><ele>36.0</ele><time>2026-04-06T05:26:38.333Z</time></trkpt><trkpt lat="43.6875033" lon="10.88324"><ele>36.0</ele><time>2026-04-06T05:26:40.333Z</time></trkpt><trkpt lat="43.6874283" lon="10.883315"><ele>36.0</ele><time>2026-04-06T05:26:42.336Z</time></trkpt><trkpt lat="43.6873517" lon="10.8833917"><ele>36.0</ele><time>2026-04-06T05:26:44.336Z</time></trkpt><trkpt lat="43.68727" lon="10.88348"><ele>36.0</ele><time>2026-04-06T05:26:46.334Z</time></trkpt><trkpt lat="43.6871967" lon="10.8835733"><ele>36.57142857142858</ele><time>2026-04-06T05:26:48.333Z</time></trkpt><trkpt lat="43.6871233" lon="10.8836533"><ele>37.142857142857146</ele><time>2026-04-06T05:26:50.336Z</time></trkpt><trkpt lat="43.687065" lon="10.8837133"><ele>37.714285714285715</ele><time>2026-04-06T05:26:52.333Z</time></trkpt><trkpt lat="43.6870117" lon="10.8837683"><ele>38.28571428571429</ele><time>2026-04-06T05:26:54.337Z</time></trkpt><trkpt lat="43.6869617" lon="10.8838217"><ele>38.85714285714286</ele><time>2026-04-06T05:26:57.333Z</time></trkpt><trkpt lat="43.6869033" lon="10.883855"><ele>39.42857142857143</ele><time>2026-04-06T05:27:01.333Z</time></trkpt><trkpt lat="43.6868617" lon="10.8839283"><ele>40.0</ele><time>2026-04-06T05:27:05.338Z</time></trkpt><trkpt lat="43.6869233" lon="10.8838717"><ele>40.8</ele><time>2026-04-06T05:27:15.333Z</time></trkpt><trkpt lat="43.6869833" lon="10.883805"><ele>41.6</ele><time>2026-04-06T05:27:17.331Z</time></trkpt><trkpt lat="43.68706" lon="10.88374"><ele>42.400000000000006</ele><time>2026-04-06T05:27:19.333Z</time></trkpt><trkpt lat="43.687135" lon="10.883665"><ele>43.2</ele><time>2026-04-06T05:27:21.332Z</time></trkpt><trkpt lat="43.6872133" lon="10.8835783"><ele>44.0</ele><time>2026-04-06T05:27:23.334Z</time></trkpt><trkpt lat="43.68729" lon="10.883485"><ele>42.400000000000006</ele><time>2026-04-06T05:27:25.333Z</time></trkpt><trkpt lat="43.687375" lon="10.8834"><ele>40.800000000000004</ele><time>2026-04-06T05:27:27.334Z</time></trkpt><trkpt lat="43.6874533" lon="10.8833067"><ele>39.2</ele><time>2026-04-06T05:27:29.334Z</time></trkpt><trkpt lat="43.6875367" lon="10.8832183"><ele>37.6</ele><time>2026-04-06T05:27:31.333Z</time></trkpt><trkpt lat="43.6876267" lon="10.8831267"><ele>36.0</ele><time>2026-04-06T05:27:33.334Z</time></trkpt><trkpt lat="43.6877133" lon="10.883035"><ele>36.4</ele><time>2026-04-06T05:27:35.337Z</time></trkpt><trkpt lat="43.687795" lon="10.882935"><ele>36.8</ele><time>2026-04-06T05:27:37.336Z</time></trkpt><trkpt lat="43.68787" lon="10.882845"><ele>37.199999999999996</ele><time>2026-04-06T05:27:39.338Z</time></trkpt><trkpt lat="43.68794" lon="10.8827733"><ele>37.6</ele><time>2026-04-06T05:27:41.335Z</time></trkpt><trkpt lat="43.688" lon="10.88268"><ele>38.0</ele><time>2026-04-06T05:27:43.332Z</time></trkpt><trkpt lat="43.6880433" lon="10.8825567"><ele>37.199999999999996</ele><time>2026-04-06T05:27:45.333Z</time></trkpt><trkpt lat="43.6880517" lon="10.88242"><ele>36.4</ele><time>2026-04-06T05:27:47.338Z</time></trkpt><trkpt lat="43.68805" lon="10.8822667"><ele>35.599999999999994</ele><time>2026-04-06T05:27:49.34Z</time></trkpt><trkpt lat="43.688045" lon="10.8821117"><ele>34.8</ele><time>2026-04-06T05:27:51.336Z</time></trkpt><trkpt lat="43.6880433" lon="10.8819633"><ele>34.0</ele><time>2026-04-06T05:27:53.335Z</time></trkpt><trkpt lat="43.6880467" lon="10.8818283"><ele>34.4</ele><time>2026-04-06T05:27:55.338Z</time></trkpt><trkpt lat="43.6880667" lon="10.8817083"><ele>34.8</ele><time>2026-04-06T05:27:57.334Z</time></trkpt><trkpt lat="43.68812" lon="10.8816083"><ele>35.2</ele><time>2026-04-06T05:27:59.332Z</time></trkpt><trkpt lat="43.6881983" lon="10.8815583"><ele>35.6</ele><time>2026-04-06T05:28:01.337Z</time></trkpt><trkpt lat="43.6883067" lon="10.8815617"><ele>36.0</ele><time>2026-04-06T05:28:03.337Z</time></trkpt><trkpt lat="43.6884217" lon="10.8815733"><ele>36.0</ele><time>2026-04-06T05:28:05.334Z</time></trkpt><trkpt lat="43.6885467" lon="10.88158"><ele>36.0</ele><time>2026-04-06T05:28:07.333Z</time></trkpt><trkpt lat="43.6886717" lon="10.88158"><ele>36.0</ele><time>2026-04-06T05:28:09.339Z</time></trkpt><trkpt lat="43.6887933" lon="10.88157"><ele>36.0</ele><time>2026-04-06T05:28:11.341Z</time></trkpt><trkpt lat="43.6889183" lon="10.8815617"><ele>35.85714285714286</ele><time>2026-04-06T05:28:13.335Z</time></trkpt><trkpt lat="43.6889833" lon="10.8815617"><ele>35.714285714285715</ele><time>2026-04-06T05:28:14.333Z</time></trkpt><trkpt lat="43.6890467" lon="10.8815633"><ele>35.57142857142857</ele><time>2026-04-06T05:28:15.334Z</time></trkpt><trkpt lat="43.68911" lon="10.8815667"><ele>35.42857142857143</ele><time>2026-04-06T05:28:16.335Z</time></trkpt><trkpt lat="43.6891733" lon="10.8815683"><ele>35.285714285714285</ele><time>2026-04-06T05:28:17.333Z</time></trkpt><trkpt lat="43.6892367" lon="10.8815683"><ele>35.142857142857146</ele><time>2026-04-06T05:28:18.333Z</time></trkpt><trkpt lat="43.6893533" lon="10.88157"><ele>35.0</ele><time>2026-04-06T05:28:20.337Z</time></trkpt><trkpt lat="43.6894683" lon="10.8815667"><ele>35.83333333333333</ele><time>2026-04-06T05:28:22.334Z</time></trkpt><trkpt lat="43.6895767" lon="10.8815617"><ele>36.666666666666664</ele><time>2026-04-06T05:28:24.334Z</time></trkpt><trkpt lat="43.689665" lon="10.8815633"><ele>37.5</ele><time>2026-04-06T05:28:26.334Z</time></trkpt><trkpt lat="43.6897367" lon="10.8815733"><ele>38.333333333333336</ele><time>2026-04-06T05:28:28.344Z</time></trkpt><trkpt lat="43.6898167" lon="10.8815883"><ele>39.16666666666667</ele><time>2026-04-06T05:28:31.333Z</time></trkpt><trkpt lat="43.6898817" lon="10.8816183"><ele>40.0</ele><time>2026-04-06T05:28:34.333Z</time></trkpt><trkpt lat="43.6899467" lon="10.8816767"><ele>40.0</ele><time>2026-04-06T05:28:36.337Z</time></trkpt><trkpt lat="43.6900133" lon="10.881755"><ele>40.0</ele><time>2026-04-06T05:28:38.334Z</time></trkpt><trkpt lat="43.6900883" lon="10.88184"><ele>40.0</ele><time>2026-04-06T05:28:40.338Z</time></trkpt><trkpt lat="43.6901667" lon="10.88192"><ele>40.0</ele><time>2026-04-06T05:28:42.332Z</time></trkpt><trkpt lat="43.6902433" lon="10.8820033"><ele>40.0</ele><time>2026-04-06T05:28:44.333Z</time></trkpt><trkpt lat="43.690325" lon="10.882095"><ele>39.0</ele><time>2026-04-06T05:28:46.332Z</time></trkpt><trkpt lat="43.6904133" lon="10.8822"><ele>38.0</ele><time>2026-04-06T05:28:48.336Z</time></trkpt><trkpt lat="43.690515" lon="10.882295"><ele>37.0</ele><time>2026-04-06T05:28:50.333Z</time></trkpt><trkpt lat="43.6905733" lon="10.882335"><ele>36.0</ele><time>2026-04-06T05:28:51.34Z</time></trkpt><trkpt lat="43.6906317" lon="10.8823683"><ele>35.0</ele><time>2026-04-06T05:28:52.332Z</time></trkpt><trkpt lat="43.6906967" lon="10.882395"><ele>34.0</ele><time>2026-04-06T05:28:53.332Z</time></trkpt><trkpt lat="43.6907617" lon="10.8824167"><ele>33.99999999999999</ele><time>2026-04-06T05:28:54.333Z</time></trkpt><trkpt lat="43.6908317" lon="10.8824317"><ele>34.0</ele><time>2026-04-06T05:28:55.332Z</time></trkpt><trkpt lat="43.6909067" lon="10.88244"><ele>34.0</ele><time>2026-04-06T05:28:56.334Z</time></trkpt><trkpt lat="43.6909817" lon="10.8824467"><ele>34.0</ele><time>2026-04-06T05:28:57.335Z</time></trkpt><trkpt lat="43.6910533" lon="10.882445"><ele>34.0</ele><time>2026-04-06T05:28:58.333Z</time></trkpt><trkpt lat="43.6911217" lon="10.8824317"><ele>33.99999999999999</ele><time>2026-04-06T05:28:59.335Z</time></trkpt><trkpt lat="43.6911867" lon="10.88241"><ele>34.0</ele><time>2026-04-06T05:29:00.335Z</time></trkpt><trkpt lat="43.6912483" lon="10.8823817"><ele>33.6</ele><time>2026-04-06T05:29:01.334Z</time></trkpt><trkpt lat="43.6913633" lon="10.88233"><ele>33.2</ele><time>2026-04-06T05:29:03.334Z</time></trkpt><trkpt lat="43.69146" lon="10.88233"><ele>32.800000000000004</ele><time>2026-04-06T05:29:05.334Z</time></trkpt><trkpt lat="43.6915283" lon="10.882395"><ele>32.4</ele><time>2026-04-06T05:29:07.332Z</time></trkpt><trkpt lat="43.6915433" lon="10.882525"><ele>32.0</ele><time>2026-04-06T05:29:09.333Z</time></trkpt><trkpt lat="43.69152" lon="10.8826817"><ele>31.833333333333332</ele><time>2026-04-06T05:29:11.333Z</time></trkpt><trkpt lat="43.6915033" lon="10.882855"><ele>31.666666666666664</ele><time>2026-04-06T05:29:13.333Z</time></trkpt><trkpt lat="43.6914933" lon="10.8829467"><ele>31.5</ele><time>2026-04-06T05:29:14.333Z</time></trkpt><trkpt lat="43.6914833" lon="10.883035"><ele>31.333333333333336</ele><time>2026-04-06T05:29:15.333Z</time></trkpt><trkpt lat="43.6914733" lon="10.8831233"><ele>31.166666666666668</ele><time>2026-04-06T05:29:16.333Z</time></trkpt><trkpt lat="43.6914633" lon="10.8832167"><ele>31.0</ele><time>2026-04-06T05:29:17.334Z</time></trkpt><trkpt lat="43.6914533" lon="10.8833133"><ele>31.0</ele><time>2026-04-06T05:29:18.335Z</time></trkpt><trkpt lat="43.6914417" lon="10.8834133"><ele>31.000000000000004</ele><time>2026-04-06T05:29:19.332Z</time></trkpt><trkpt lat="43.6914283" lon="10.88351"><ele>31.0</ele><time>2026-04-06T05:29:20.335Z</time></trkpt><trkpt lat="43.691415" lon="10.8836117"><ele>31.0</ele><time>2026-04-06T05:29:21.335Z</time></trkpt><trkpt lat="43.6914017" lon="10.8837133"><ele>31.000000000000004</ele><time>2026-04-06T05:29:22.333Z</time></trkpt><trkpt lat="43.69139" lon="10.883815"><ele>31.0</ele><time>2026-04-06T05:29:23.336Z</time></trkpt><trkpt lat="43.6913783" lon="10.8839167"><ele>31.0</ele><time>2026-04-06T05:29:24.341Z</time></trkpt><trkpt lat="43.6913667" lon="10.8840183"><ele>30.666666666666668</ele><time>2026-04-06T05:29:25.334Z</time></trkpt><trkpt lat="43.6913517" lon="10.88412"><ele>30.333333333333336</ele><time>2026-04-06T05:29:26.333Z</time></trkpt><trkpt lat="43.6913383" lon="10.88422"><ele>30.0</ele><time>2026-04-06T05:29:27.336Z</time></trkpt><trkpt lat="43.691325" lon="10.8843233"><ele>29.666666666666664</ele><time>2026-04-06T05:29:28.333Z</time></trkpt><trkpt lat="43.6913117" lon="10.8844283"><ele>29.333333333333332</ele><time>2026-04-06T05:29:29.333Z</time></trkpt><trkpt lat="43.6912983" lon="10.8845317"><ele>29.0</ele><time>2026-04-06T05:29:30.332Z</time></trkpt><trkpt lat="43.69128" lon="10.884635"><ele>28.999999999999996</ele><time>2026-04-06T05:29:31.332Z</time></trkpt><trkpt lat="43.6912583" lon="10.8847383"><ele>29.0</ele><time>2026-04-06T05:29:32.333Z</time></trkpt><trkpt lat="43.6912333" lon="10.88484"><ele>29.0</ele><time>2026-04-06T05:29:33.333Z</time></trkpt><trkpt lat="43.6912033" lon="10.8849383"><ele>29.0</ele><time>2026-04-06T05:29:34.332Z</time></trkpt><trkpt lat="43.6911683" lon="10.885035"><ele>28.999999999999996</ele><time>2026-04-06T05:29:35.333Z</time></trkpt><trkpt lat="43.6911317" lon="10.8851317"><ele>29.0</ele><time>2026-04-06T05:29:36.333Z</time></trkpt><trkpt lat="43.6910933" lon="10.8852167"><ele>29.499999999999996</ele><time>2026-04-06T05:29:37.333Z</time></trkpt><trkpt lat="43.6910483" lon="10.8853067"><ele>30.0</ele><time>2026-04-06T05:29:38.334Z</time></trkpt><trkpt lat="43.691005" lon="10.8853933"><ele>30.5</ele><time>2026-04-06T05:29:39.335Z</time></trkpt><trkpt lat="43.6909583" lon="10.8854767"><ele>31.0</ele><time>2026-04-06T05:29:40.331Z</time></trkpt><trkpt lat="43.69091" lon="10.8855583"><ele>31.499999999999996</ele><time>2026-04-06T05:29:41.332Z</time></trkpt><trkpt lat="43.6908633" lon="10.885645"><ele>32.0</ele><time>2026-04-06T05:29:42.333Z</time></trkpt><trkpt lat="43.6908217" lon="10.88574"><ele>31.999999999999996</ele><time>2026-04-06T05:29:43.332Z</time></trkpt><trkpt lat="43.6907833" lon="10.8858433"><ele>32.0</ele><time>2026-04-06T05:29:44.335Z</time></trkpt><trkpt lat="43.69075" lon="10.8859517"><ele>32.0</ele><time>2026-04-06T05:29:45.333Z</time></trkpt><trkpt lat="43.6907217" lon="10.8860617"><ele>32.0</ele><time>2026-04-06T05:29:46.338Z</time></trkpt><trkpt lat="43.6906967" lon="10.88617"><ele>31.999999999999996</ele><time>2026-04-06T05:29:47.333Z</time></trkpt><trkpt lat="43.6906717" lon="10.8862817"><ele>32.0</ele><time>2026-04-06T05:29:48.337Z</time></trkpt><trkpt lat="43.69065" lon="10.8863933"><ele>31.833333333333332</ele><time>2026-04-06T05:29:49.333Z</time></trkpt><trkpt lat="43.69063" lon="10.8865083"><ele>31.666666666666664</ele><time>2026-04-06T05:29:50.333Z</time></trkpt><trkpt lat="43.69061" lon="10.8866217"><ele>31.5</ele><time>2026-04-06T05:29:51.334Z</time></trkpt><trkpt lat="43.6905967" lon="10.886735"><ele>31.333333333333336</ele><time>2026-04-06T05:29:52.332Z</time></trkpt><trkpt lat="43.6905833" lon="10.88685"><ele>31.166666666666668</ele><time>2026-04-06T05:29:53.334Z</time></trkpt><trkpt lat="43.69057" lon="10.8869667"><ele>31.0</ele><time>2026-04-06T05:29:54.331Z</time></trkpt><trkpt lat="43.6905583" lon="10.887085"><ele>31.000000000000004</ele><time>2026-04-06T05:29:55.334Z</time></trkpt><trkpt lat="43.6905467" lon="10.8872017"><ele>31.0</ele><time>2026-04-06T05:29:56.334Z</time></trkpt><trkpt lat="43.6905367" lon="10.88732"><ele>31.0</ele><time>2026-04-06T05:29:57.334Z</time></trkpt><trkpt lat="43.69053" lon="10.88744"><ele>31.0</ele><time>2026-04-06T05:29:58.334Z</time></trkpt><trkpt lat="43.6905267" lon="10.88756"><ele>31.000000000000004</ele><time>2026-04-06T05:29:59.337Z</time></trkpt><trkpt lat="43.690525" lon="10.88768"><ele>31.0</ele><time>2026-04-06T05:30:00.334Z</time></trkpt><trkpt lat="43.6905233" lon="10.8878"><ele>31.000000000000004</ele><time>2026-04-06T05:30:01.333Z</time></trkpt><trkpt lat="43.6905233" lon="10.88792"><ele>31.0</ele><time>2026-04-06T05:30:02.335Z</time></trkpt><trkpt lat="43.6905217" lon="10.888035"><ele>31.0</ele><time>2026-04-06T05:30:03.339Z</time></trkpt><trkpt lat="43.6905233" lon="10.8881433"><ele>31.0</ele><time>2026-04-06T05:30:04.334Z</time></trkpt><trkpt lat="43.6905267" lon="10.888245"><ele>31.000000000000004</ele><time>2026-04-06T05:30:05.336Z</time></trkpt><trkpt lat="43.6905333" lon="10.8883417"><ele>31.0</ele><time>2026-04-06T05:30:06.344Z</time></trkpt><trkpt lat="43.6905433" lon="10.8884283"><ele>31.0</ele><time>2026-04-06T05:30:07.334Z</time></trkpt><trkpt lat="43.6905733" lon="10.8885867"><ele>31.0</ele><time>2026-04-06T05:30:09.336Z</time></trkpt><trkpt lat="43.690585" lon="10.8887317"><ele>31.0</ele><time>2026-04-06T05:30:11.334Z</time></trkpt><trkpt lat="43.6905483" lon="10.8888717"><ele>31.0</ele><time>2026-04-06T05:30:13.335Z</time></trkpt><trkpt lat="43.6904583" lon="10.888985"><ele>31.0</ele><time>2026-04-06T05:30:15.334Z</time></trkpt><trkpt lat="43.690395" lon="10.8890167"><ele>31.000000000000004</ele><time>2026-04-06T05:30:16.339Z</time></trkpt><trkpt lat="43.6903267" lon="10.889035"><ele>31.0</ele><time>2026-04-06T05:30:17.338Z</time></trkpt><trkpt lat="43.6902517" lon="10.8890517"><ele>31.0</ele><time>2026-04-06T05:30:18.34Z</time></trkpt><trkpt lat="43.6901783" lon="10.889065"><ele>31.000000000000004</ele><time>2026-04-06T05:30:19.336Z</time></trkpt><trkpt lat="43.690105" lon="10.8890817"><ele>31.0</ele><time>2026-04-06T05:30:20.334Z</time></trkpt><trkpt lat="43.6900317" lon="10.8891033"><ele>31.0</ele><time>2026-04-06T05:30:21.336Z</time></trkpt><trkpt lat="43.6899667" lon="10.8891283"><ele>31.166666666666668</ele><time>2026-04-06T05:30:22.334Z</time></trkpt><trkpt lat="43.6899033" lon="10.8891617"><ele>31.333333333333336</ele><time>2026-04-06T05:30:23.333Z</time></trkpt><trkpt lat="43.68984" lon="10.889205"><ele>31.5</ele><time>2026-04-06T05:30:24.337Z</time></trkpt><trkpt lat="43.689775" lon="10.8892583"><ele>31.666666666666664</ele><time>2026-04-06T05:30:25.332Z</time></trkpt><trkpt lat="43.6897083" lon="10.889325"><ele>31.833333333333332</ele><time>2026-04-06T05:30:26.336Z</time></trkpt><trkpt lat="43.6896433" lon="10.8893983"><ele>32.0</ele><time>2026-04-06T05:30:27.334Z</time></trkpt><trkpt lat="43.68958" lon="10.8894817"><ele>32.2</ele><time>2026-04-06T05:30:28.333Z</time></trkpt><trkpt lat="43.689515" lon="10.8895733"><ele>32.400000000000006</ele><time>2026-04-06T05:30:29.333Z</time></trkpt><trkpt lat="43.68945" lon="10.8896633"><ele>32.599999999999994</ele><time>2026-04-06T05:30:30.334Z</time></trkpt><trkpt lat="43.6893833" lon="10.8897567"><ele>32.8</ele><time>2026-04-06T05:30:31.335Z</time></trkpt><trkpt lat="43.6893167" lon="10.88985"><ele>33.0</ele><time>2026-04-06T05:30:32.335Z</time></trkpt><trkpt lat="43.68925" lon="10.8899433"><ele>33.0</ele><time>2026-04-06T05:30:33.334Z</time></trkpt><trkpt lat="43.689185" lon="10.8900367"><ele>33.0</ele><time>2026-04-06T05:30:34.333Z</time></trkpt><trkpt lat="43.6891183" lon="10.8901233"><ele>33.0</ele><time>2026-04-06T05:30:35.336Z</time></trkpt><trkpt lat="43.6890483" lon="10.8902067"><ele>33.0</ele><time>2026-04-06T05:30:36.338Z</time></trkpt><trkpt lat="43.6889733" lon="10.8902783"><ele>33.0</ele><time>2026-04-06T05:30:37.332Z</time></trkpt><trkpt lat="43.6888933" lon="10.8903383"><ele>34.333333333333336</ele><time>2026-04-06T05:30:38.339Z</time></trkpt><trkpt lat="43.6888133" lon="10.89039"><ele>35.666666666666664</ele><time>2026-04-06T05:30:39.337Z</time></trkpt><trkpt lat="43.68873" lon="10.8904383"><ele>37.0</ele><time>2026-04-06T05:30:40.345Z</time></trkpt><trkpt lat="43.6886483" lon="10.8904833"><ele>38.33333333333333</ele><time>2026-04-06T05:30:41.337Z</time></trkpt><trkpt lat="43.6885683" lon="10.89053"><ele>39.666666666666664</ele><time>2026-04-06T05:30:42.333Z</time></trkpt><trkpt lat="43.6884883" lon="10.8905767"><ele>41.0</ele><time>2026-04-06T05:30:43.337Z</time></trkpt><trkpt lat="43.6884083" lon="10.890625"><ele>41.0</ele><time>2026-04-06T05:30:44.333Z</time></trkpt><trkpt lat="43.68833" lon="10.8906717"><ele>41.0</ele><time>2026-04-06T05:30:45.333Z</time></trkpt><trkpt lat="43.6882517" lon="10.8907217"><ele>41.0</ele><time>2026-04-06T05:30:46.332Z</time></trkpt><trkpt lat="43.688175" lon="10.890775"><ele>41.0</ele><time>2026-04-06T05:30:47.335Z</time></trkpt><trkpt lat="43.6881017" lon="10.8908383"><ele>41.0</ele><time>2026-04-06T05:30:48.334Z</time></trkpt><trkpt lat="43.688035" lon="10.8909117"><ele>41.0</ele><time>2026-04-06T05:30:49.333Z</time></trkpt><trkpt lat="43.6879733" lon="10.8909933"><ele>42.166666666666664</ele><time>2026-04-06T05:30:50.336Z</time></trkpt><trkpt lat="43.6879167" lon="10.8910833"><ele>43.33333333333333</ele><time>2026-04-06T05:30:51.333Z</time></trkpt><trkpt lat="43.6878633" lon="10.8911783"><ele>44.5</ele><time>2026-04-06T05:30:52.333Z</time></trkpt><trkpt lat="43.687815" lon="10.8912783"><ele>45.666666666666664</ele><time>2026-04-06T05:30:53.337Z</time></trkpt><trkpt lat="43.6877733" lon="10.8913817"><ele>46.833333333333336</ele><time>2026-04-06T05:30:54.334Z</time></trkpt><trkpt lat="43.6877333" lon="10.8914867"><ele>48.0</ele><time>2026-04-06T05:30:55.333Z</time></trkpt><trkpt lat="43.6876967" lon="10.891595"><ele>48.0</ele><time>2026-04-06T05:30:56.337Z</time></trkpt><trkpt lat="43.6876617" lon="10.8916967"><ele>48.0</ele><time>2026-04-06T05:30:57.333Z</time></trkpt><trkpt lat="43.6876233" lon="10.8918"><ele>48.0</ele><time>2026-04-06T05:30:58.335Z</time></trkpt><trkpt lat="43.6875833" lon="10.8919"><ele>48.0</ele><time>2026-04-06T05:30:59.336Z</time></trkpt><trkpt lat="43.6875433" lon="10.8920017"><ele>48.0</ele><time>2026-04-06T05:31:00.337Z</time></trkpt><trkpt lat="43.6875033" lon="10.8921017"><ele>48.0</ele><time>2026-04-06T05:31:01.34Z</time></trkpt><trkpt lat="43.68746" lon="10.8921983"><ele>49.333333333333336</ele><time>2026-04-06T05:31:02.337Z</time></trkpt><trkpt lat="43.6874117" lon="10.8922883"><ele>50.66666666666667</ele><time>2026-04-06T05:31:03.336Z</time></trkpt><trkpt lat="43.6873617" lon="10.8923683"><ele>52.0</ele><time>2026-04-06T05:31:04.336Z</time></trkpt><trkpt lat="43.687305" lon="10.8924417"><ele>53.333333333333336</ele><time>2026-04-06T05:31:05.338Z</time></trkpt><trkpt lat="43.6872417" lon="10.8925067"><ele>54.66666666666667</ele><time>2026-04-06T05:31:06.336Z</time></trkpt><trkpt lat="43.68718" lon="10.8925667"><ele>56.0</ele><time>2026-04-06T05:31:07.337Z</time></trkpt><trkpt lat="43.68712" lon="10.8926217"><ele>56.714285714285715</ele><time>2026-04-06T05:31:08.334Z</time></trkpt><trkpt lat="43.6870633" lon="10.8926717"><ele>57.42857142857143</ele><time>2026-04-06T05:31:09.334Z</time></trkpt><trkpt lat="43.6870033" lon="10.8927217"><ele>58.14285714285714</ele><time>2026-04-06T05:31:10.338Z</time></trkpt><trkpt lat="43.6869417" lon="10.8927733"><ele>58.857142857142854</ele><time>2026-04-06T05:31:11.336Z</time></trkpt><trkpt lat="43.6868817" lon="10.8928217"><ele>59.57142857142857</ele><time>2026-04-06T05:31:12.334Z</time></trkpt><trkpt lat="43.68682" lon="10.8928767"><ele>60.28571428571428</ele><time>2026-04-06T05:31:13.333Z</time></trkpt><trkpt lat="43.6867633" lon="10.89293"><ele>60.99999999999999</ele><time>2026-04-06T05:31:14.337Z</time></trkpt><trkpt lat="43.686705" lon="10.8929833"><ele>61.33333333333333</ele><time>2026-04-06T05:31:15.333Z</time></trkpt><trkpt lat="43.6866433" lon="10.89303"><ele>61.666666666666664</ele><time>2026-04-06T05:31:16.334Z</time></trkpt><trkpt lat="43.6865867" lon="10.8930733"><ele>62.0</ele><time>2026-04-06T05:31:17.333Z</time></trkpt><trkpt lat="43.6865317" lon="10.8931183"><ele>62.33333333333333</ele><time>2026-04-06T05:31:18.333Z</time></trkpt><trkpt lat="43.68643" lon="10.8932"><ele>62.666666666666664</ele><time>2026-04-06T05:31:20.334Z</time></trkpt><trkpt lat="43.6863333" lon="10.89328"><ele>63.0</ele><time>2026-04-06T05:31:22.334Z</time></trkpt><trkpt lat="43.6862383" lon="10.8933567"><ele>63.2</ele><time>2026-04-06T05:31:24.335Z</time></trkpt><trkpt lat="43.6861383" lon="10.89344"><ele>63.4</ele><time>2026-04-06T05:31:26.335Z</time></trkpt><trkpt lat="43.6860267" lon="10.8935267"><ele>63.60000000000001</ele><time>2026-04-06T05:31:28.337Z</time></trkpt><trkpt lat="43.6859183" lon="10.8936183"><ele>63.800000000000004</ele><time>2026-04-06T05:31:30.339Z</time></trkpt><trkpt lat="43.6858617" lon="10.8936683"><ele>64.0</ele><time>2026-04-06T05:31:31.338Z</time></trkpt><trkpt lat="43.6858017" lon="10.89372"><ele>63.99999999999999</ele><time>2026-04-06T05:31:32.334Z</time></trkpt><trkpt lat="43.6857383" lon="10.89377"><ele>64.0</ele><time>2026-04-06T05:31:33.333Z</time></trkpt><trkpt lat="43.6856717" lon="10.893825"><ele>64.0</ele><time>2026-04-06T05:31:34.338Z</time></trkpt><trkpt lat="43.6855983" lon="10.8938733"><ele>64.0</ele><time>2026-04-06T05:31:35.337Z</time></trkpt><trkpt lat="43.68552" lon="10.8939183"><ele>63.99999999999999</ele><time>2026-04-06T05:31:36.333Z</time></trkpt><trkpt lat="43.6854383" lon="10.89396"><ele>64.0</ele><time>2026-04-06T05:31:37.336Z</time></trkpt><trkpt lat="43.6853533" lon="10.893995"><ele>64.0</ele><time>2026-04-06T05:31:38.333Z</time></trkpt><trkpt lat="43.685265" lon="10.8940267"><ele>64.0</ele><time>2026-04-06T05:31:39.333Z</time></trkpt><trkpt lat="43.68518" lon="10.8940567"><ele>64.0</ele><time>2026-04-06T05:31:40.335Z</time></trkpt><trkpt lat="43.6850917" lon="10.8940867"><ele>64.0</ele><time>2026-04-06T05:31:41.336Z</time></trkpt><trkpt lat="43.6850033" lon="10.8941133"><ele>64.0</ele><time>2026-04-06T05:31:42.338Z</time></trkpt><trkpt lat="43.6849133" lon="10.89414"><ele>64.0</ele><time>2026-04-06T05:31:43.335Z</time></trkpt><trkpt lat="43.6848233" lon="10.894165"><ele>64.0</ele><time>2026-04-06T05:31:44.338Z</time></trkpt><trkpt lat="43.6847333" lon="10.89419"><ele>64.0</ele><time>2026-04-06T05:31:45.336Z</time></trkpt><trkpt lat="43.6846433" lon="10.8942167"><ele>64.0</ele><time>2026-04-06T05:31:46.336Z</time></trkpt><trkpt lat="43.684555" lon="10.89424"><ele>64.0</ele><time>2026-04-06T05:31:47.335Z</time></trkpt><trkpt lat="43.6844683" lon="10.8942617"><ele>66.16666666666666</ele><time>2026-04-06T05:31:48.339Z</time></trkpt><trkpt lat="43.6843833" lon="10.8942833"><ele>68.33333333333333</ele><time>2026-04-06T05:31:49.334Z</time></trkpt><trkpt lat="43.6843017" lon="10.894305"><ele>70.5</ele><time>2026-04-06T05:31:50.339Z</time></trkpt><trkpt lat="43.684225" lon="10.8943283"><ele>72.66666666666667</ele><time>2026-04-06T05:31:51.333Z</time></trkpt><trkpt lat="43.6841483" lon="10.894355"><ele>74.83333333333334</ele><time>2026-04-06T05:31:52.335Z</time></trkpt><trkpt lat="43.6840717" lon="10.89438"><ele>77.0</ele><time>2026-04-06T05:31:53.339Z</time></trkpt><trkpt lat="43.683995" lon="10.8944"><ele>77.0</ele><time>2026-04-06T05:31:54.333Z</time></trkpt><trkpt lat="43.6839233" lon="10.8944183"><ele>77.0</ele><time>2026-04-06T05:31:55.339Z</time></trkpt><trkpt lat="43.6838567" lon="10.8944333"><ele>77.0</ele><time>2026-04-06T05:31:56.336Z</time></trkpt><trkpt lat="43.6837883" lon="10.894445"><ele>77.0</ele><time>2026-04-06T05:31:57.336Z</time></trkpt><trkpt lat="43.68372" lon="10.8944567"><ele>77.0</ele><time>2026-04-06T05:31:58.336Z</time></trkpt><trkpt lat="43.6836517" lon="10.8944667"><ele>77.0</ele><time>2026-04-06T05:31:59.334Z</time></trkpt><trkpt lat="43.683585" lon="10.8944767"><ele>77.0</ele><time>2026-04-06T05:32:00.336Z</time></trkpt><trkpt lat="43.6835183" lon="10.89448"><ele>78.0</ele><time>2026-04-06T05:32:01.334Z</time></trkpt><trkpt lat="43.6834533" lon="10.8944783"><ele>79.0</ele><time>2026-04-06T05:32:02.334Z</time></trkpt><trkpt lat="43.68339" lon="10.8944733"><ele>80.0</ele><time>2026-04-06T05:32:03.334Z</time></trkpt><trkpt lat="43.6833233" lon="10.894465"><ele>81.0</ele><time>2026-04-06T05:32:04.334Z</time></trkpt><trkpt lat="43.6832583" lon="10.894455"><ele>82.0</ele><time>2026-04-06T05:32:05.334Z</time></trkpt><trkpt lat="43.6831917" lon="10.89444"><ele>83.0</ele><time>2026-04-06T05:32:06.334Z</time></trkpt><trkpt lat="43.6831217" lon="10.8944233"><ele>84.0</ele><time>2026-04-06T05:32:07.336Z</time></trkpt><trkpt lat="43.68305" lon="10.8944"><ele>84.0</ele><time>2026-04-06T05:32:08.34Z</time></trkpt><trkpt lat="43.6829767" lon="10.894375"><ele>84.0</ele><time>2026-04-06T05:32:09.339Z</time></trkpt><trkpt lat="43.6829" lon="10.8943517"><ele>84.0</ele><time>2026-04-06T05:32:10.336Z</time></trkpt><trkpt lat="43.6828233" lon="10.8943267"><ele>84.0</ele><time>2026-04-06T05:32:11.333Z</time></trkpt><trkpt lat="43.68275" lon="10.8943017"><ele>84.0</ele><time>2026-04-06T05:32:12.337Z</time></trkpt><trkpt lat="43.6826767" lon="10.8942733"><ele>84.0</ele><time>2026-04-06T05:32:13.334Z</time></trkpt><trkpt lat="43.6826" lon="10.8942367"><ele>84.5</ele><time>2026-04-06T05:32:14.338Z</time></trkpt><trkpt lat="43.6825217" lon="10.8941933"><ele>85.0</ele><time>2026-04-06T05:32:15.334Z</time></trkpt><trkpt lat="43.6824417" lon="10.8941483"><ele>85.5</ele><time>2026-04-06T05:32:16.336Z</time></trkpt><trkpt lat="43.68236" lon="10.8941"><ele>86.0</ele><time>2026-04-06T05:32:17.334Z</time></trkpt><trkpt lat="43.682275" lon="10.8940533"><ele>86.5</ele><time>2026-04-06T05:32:18.334Z</time></trkpt><trkpt lat="43.6821883" lon="10.8940117"><ele>87.0</ele><time>2026-04-06T05:32:19.334Z</time></trkpt><trkpt lat="43.6821" lon="10.8939717"><ele>87.0</ele><time>2026-04-06T05:32:20.334Z</time></trkpt><trkpt lat="43.68201" lon="10.8939333"><ele>87.0</ele><time>2026-04-06T05:32:21.333Z</time></trkpt><trkpt lat="43.6819217" lon="10.893895"><ele>87.0</ele><time>2026-04-06T05:32:22.341Z</time></trkpt><trkpt lat="43.6818317" lon="10.893855"><ele>87.0</ele><time>2026-04-06T05:32:23.334Z</time></trkpt><trkpt lat="43.6817433" lon="10.8938183"><ele>87.0</ele><time>2026-04-06T05:32:24.333Z</time></trkpt><trkpt lat="43.6816517" lon="10.89378"><ele>88.8</ele><time>2026-04-06T05:32:25.333Z</time></trkpt><trkpt lat="43.6815583" lon="10.893745"><ele>90.6</ele><time>2026-04-06T05:32:26.333Z</time></trkpt><trkpt lat="43.6814633" lon="10.893715"><ele>92.39999999999999</ele><time>2026-04-06T05:32:27.335Z</time></trkpt><trkpt lat="43.6813683" lon="10.8936833"><ele>94.19999999999999</ele><time>2026-04-06T05:32:28.333Z</time></trkpt><trkpt lat="43.681275" lon="10.8936567"><ele>96.0</ele><time>2026-04-06T05:32:29.337Z</time></trkpt><trkpt lat="43.681185" lon="10.893635"><ele>97.33333333333333</ele><time>2026-04-06T05:32:30.336Z</time></trkpt><trkpt lat="43.681095" lon="10.89362"><ele>98.66666666666666</ele><time>2026-04-06T05:32:31.34Z</time></trkpt><trkpt lat="43.6810083" lon="10.893605"><ele>100.0</ele><time>2026-04-06T05:32:32.343Z</time></trkpt><trkpt lat="43.680925" lon="10.8935917"><ele>101.33333333333333</ele><time>2026-04-06T05:32:33.333Z</time></trkpt><trkpt lat="43.6808483" lon="10.89358"><ele>102.66666666666666</ele><time>2026-04-06T05:32:34.333Z</time></trkpt><trkpt lat="43.6807767" lon="10.89357"><ele>104.0</ele><time>2026-04-06T05:32:35.336Z</time></trkpt><trkpt lat="43.6807067" lon="10.8935617"><ele>103.99999999999999</ele><time>2026-04-06T05:32:36.338Z</time></trkpt><trkpt lat="43.6806383" lon="10.893555"><ele>104.0</ele><time>2026-04-06T05:32:37.34Z</time></trkpt><trkpt lat="43.68057" lon="10.89355"><ele>104.0</ele><time>2026-04-06T05:32:38.34Z</time></trkpt><trkpt lat="43.6805067" lon="10.8935467"><ele>104.0</ele><time>2026-04-06T05:32:39.333Z</time></trkpt><trkpt lat="43.68039" lon="10.893535"><ele>103.99999999999999</ele><time>2026-04-06T05:32:41.335Z</time></trkpt><trkpt lat="43.6802717" lon="10.893525"><ele>104.0</ele><time>2026-04-06T05:32:43.335Z</time></trkpt><trkpt lat="43.6801533" lon="10.8935233"><ele>105.5</ele><time>2026-04-06T05:32:45.335Z</time></trkpt><trkpt lat="43.6800333" lon="10.8935167"><ele>107.0</ele><time>2026-04-06T05:32:47.337Z</time></trkpt><trkpt lat="43.6799133" lon="10.8935183"><ele>108.5</ele><time>2026-04-06T05:32:49.339Z</time></trkpt><trkpt lat="43.67979" lon="10.8935417"><ele>110.0</ele><time>2026-04-06T05:32:51.333Z</time></trkpt><trkpt lat="43.6796733" lon="10.8935817"><ele>109.99999999999999</ele><time>2026-04-06T05:32:53.335Z</time></trkpt><trkpt lat="43.6795567" lon="10.8936417"><ele>110.0</ele><time>2026-04-06T05:32:55.335Z</time></trkpt><trkpt lat="43.6794933" lon="10.8936717"><ele>110.0</ele><time>2026-04-06T05:32:56.334Z</time></trkpt><trkpt lat="43.6794283" lon="10.8936917"><ele>110.0</ele><time>2026-04-06T05:32:57.337Z</time></trkpt><trkpt lat="43.679365" lon="10.8937017"><ele>109.99999999999999</ele><time>2026-04-06T05:32:58.337Z</time></trkpt><trkpt lat="43.6793" lon="10.8937033"><ele>110.0</ele><time>2026-04-06T05:32:59.341Z</time></trkpt><trkpt lat="43.67923" lon="10.8937"><ele>109.42857142857142</ele><time>2026-04-06T05:33:00.333Z</time></trkpt><trkpt lat="43.6791583" lon="10.8936867"><ele>108.85714285714286</ele><time>2026-04-06T05:33:01.337Z</time></trkpt><trkpt lat="43.679085" lon="10.893665"><ele>108.28571428571428</ele><time>2026-04-06T05:33:02.333Z</time></trkpt><trkpt lat="43.6790167" lon="10.8936317"><ele>107.71428571428571</ele><time>2026-04-06T05:33:03.337Z</time></trkpt><trkpt lat="43.6789533" lon="10.8935933"><ele>107.14285714285714</ele><time>2026-04-06T05:33:04.336Z</time></trkpt><trkpt lat="43.67889" lon="10.8935517"><ele>106.57142857142857</ele><time>2026-04-06T05:33:05.333Z</time></trkpt><trkpt lat="43.6788233" lon="10.89351"><ele>106.0</ele><time>2026-04-06T05:33:06.335Z</time></trkpt><trkpt lat="43.6787533" lon="10.8934717"><ele>106.00000000000001</ele><time>2026-04-06T05:33:07.338Z</time></trkpt><trkpt lat="43.6786817" lon="10.8934317"><ele>106.0</ele><time>2026-04-06T05:33:08.338Z</time></trkpt><trkpt lat="43.67861" lon="10.8933883"><ele>106.0</ele><time>2026-04-06T05:33:09.337Z</time></trkpt><trkpt lat="43.6785383" lon="10.89334"><ele>106.0</ele><time>2026-04-06T05:33:10.339Z</time></trkpt><trkpt lat="43.6784667" lon="10.8932883"><ele>106.00000000000001</ele><time>2026-04-06T05:33:11.334Z</time></trkpt><trkpt lat="43.678395" lon="10.893235"><ele>106.0</ele><time>2026-04-06T05:33:12.334Z</time></trkpt><trkpt lat="43.67832" lon="10.893185"><ele>107.00000000000001</ele><time>2026-04-06T05:33:13.335Z</time></trkpt><trkpt lat="43.6782433" lon="10.89314"><ele>108.0</ele><time>2026-04-06T05:33:14.342Z</time></trkpt><trkpt lat="43.6781633" lon="10.8930983"><ele>109.0</ele><time>2026-04-06T05:33:15.339Z</time></trkpt><trkpt lat="43.6780833" lon="10.89305"><ele>110.0</ele><time>2026-04-06T05:33:16.338Z</time></trkpt><trkpt lat="43.6780067" lon="10.8929967"><ele>111.00000000000001</ele><time>2026-04-06T05:33:17.335Z</time></trkpt><trkpt lat="43.677935" lon="10.89295"><ele>112.0</ele><time>2026-04-06T05:33:18.334Z</time></trkpt><trkpt lat="43.677865" lon="10.892905"><ele>112.0</ele><time>2026-04-06T05:33:19.341Z</time></trkpt><trkpt lat="43.6777967" lon="10.89286"><ele>112.0</ele><time>2026-04-06T05:33:20.339Z</time></trkpt><trkpt lat="43.6777317" lon="10.8928183"><ele>112.0</ele><time>2026-04-06T05:33:21.333Z</time></trkpt><trkpt lat="43.6776683" lon="10.8927783"><ele>112.0</ele><time>2026-04-06T05:33:22.334Z</time></trkpt><trkpt lat="43.6776033" lon="10.892735"><ele>112.0</ele><time>2026-04-06T05:33:23.335Z</time></trkpt><trkpt lat="43.6775367" lon="10.892695"><ele>112.0</ele><time>2026-04-06T05:33:24.338Z</time></trkpt><trkpt lat="43.6774667" lon="10.89266"><ele>112.0</ele><time>2026-04-06T05:33:25.337Z</time></trkpt><trkpt lat="43.6773967" lon="10.892625"><ele>110.83333333333334</ele><time>2026-04-06T05:33:26.338Z</time></trkpt><trkpt lat="43.6773233" lon="10.8925917"><ele>109.66666666666667</ele><time>2026-04-06T05:33:27.335Z</time></trkpt><trkpt lat="43.6772483" lon="10.89256"><ele>108.5</ele><time>2026-04-06T05:33:28.335Z</time></trkpt><trkpt lat="43.6771733" lon="10.89253"><ele>107.33333333333334</ele><time>2026-04-06T05:33:29.334Z</time></trkpt><trkpt lat="43.677095" lon="10.8925033"><ele>106.16666666666667</ele><time>2026-04-06T05:33:30.333Z</time></trkpt><trkpt lat="43.677015" lon="10.8924733"><ele>105.0</ele><time>2026-04-06T05:33:31.336Z</time></trkpt><trkpt lat="43.6769383" lon="10.89244"><ele>106.16666666666667</ele><time>2026-04-06T05:33:32.337Z</time></trkpt><trkpt lat="43.6768617" lon="10.892405"><ele>107.33333333333334</ele><time>2026-04-06T05:33:33.338Z</time></trkpt><trkpt lat="43.6767883" lon="10.8923667"><ele>108.5</ele><time>2026-04-06T05:33:34.34Z</time></trkpt><trkpt lat="43.6767167" lon="10.89233"><ele>109.66666666666667</ele><time>2026-04-06T05:33:35.335Z</time></trkpt><trkpt lat="43.6766417" lon="10.892295"><ele>110.83333333333334</ele><time>2026-04-06T05:33:36.336Z</time></trkpt><trkpt lat="43.6765633" lon="10.8922633"><ele>112.0</ele><time>2026-04-06T05:33:37.336Z</time></trkpt><trkpt lat="43.67648" lon="10.892235"><ele>112.0</ele><time>2026-04-06T05:33:38.339Z</time></trkpt><trkpt lat="43.676395" lon="10.8922167"><ele>111.99999999999999</ele><time>2026-04-06T05:33:39.337Z</time></trkpt><trkpt lat="43.67631" lon="10.8922"><ele>111.99999999999999</ele><time>2026-04-06T05:33:40.333Z</time></trkpt><trkpt lat="43.6762217" lon="10.892185"><ele>112.0</ele><time>2026-04-06T05:33:41.333Z</time></trkpt><trkpt lat="43.676125" lon="10.8921717"><ele>112.0</ele><time>2026-04-06T05:33:42.333Z</time></trkpt><trkpt lat="43.676025" lon="10.892155"><ele>111.39999999999999</ele><time>2026-04-06T05:33:43.333Z</time></trkpt><trkpt lat="43.6759233" lon="10.8921333"><ele>110.79999999999998</ele><time>2026-04-06T05:33:44.333Z</time></trkpt><trkpt lat="43.67582" lon="10.892105"><ele>110.2</ele><time>2026-04-06T05:33:45.335Z</time></trkpt><trkpt lat="43.6757217" lon="10.8920717"><ele>109.6</ele><time>2026-04-06T05:33:46.334Z</time></trkpt><trkpt lat="43.6756217" lon="10.8920267"><ele>109.0</ele><time>2026-04-06T05:33:47.335Z</time></trkpt><trkpt lat="43.6755233" lon="10.89197"><ele>109.0</ele><time>2026-04-06T05:33:48.333Z</time></trkpt><trkpt lat="43.6754267" lon="10.89191"><ele>109.0</ele><time>2026-04-06T05:33:49.335Z</time></trkpt><trkpt lat="43.6753317" lon="10.8918467"><ele>109.0</ele><time>2026-04-06T05:33:50.343Z</time></trkpt><trkpt lat="43.675235" lon="10.891785"><ele>109.0</ele><time>2026-04-06T05:33:51.333Z</time></trkpt><trkpt lat="43.6751367" lon="10.8917283"><ele>109.0</ele><time>2026-04-06T05:33:52.333Z</time></trkpt><trkpt lat="43.675035" lon="10.8916833"><ele>111.2</ele><time>2026-04-06T05:33:53.332Z</time></trkpt><trkpt lat="43.6749317" lon="10.89165"><ele>113.4</ele><time>2026-04-06T05:33:54.334Z</time></trkpt><trkpt lat="43.6748267" lon="10.8916217"><ele>115.6</ele><time>2026-04-06T05:33:55.334Z</time></trkpt><trkpt lat="43.67472" lon="10.8916"><ele>117.8</ele><time>2026-04-06T05:33:56.335Z</time></trkpt><trkpt lat="43.6746133" lon="10.8915783"><ele>120.0</ele><time>2026-04-06T05:33:57.335Z</time></trkpt><trkpt lat="43.6745083" lon="10.8915583"><ele>120.2</ele><time>2026-04-06T05:33:58.333Z</time></trkpt><trkpt lat="43.6744033" lon="10.8915317"><ele>120.4</ele><time>2026-04-06T05:33:59.333Z</time></trkpt><trkpt lat="43.674305" lon="10.8914883"><ele>120.6</ele><time>2026-04-06T05:34:00.335Z</time></trkpt><trkpt lat="43.6742117" lon="10.89143"><ele>120.8</ele><time>2026-04-06T05:34:01.333Z</time></trkpt><trkpt lat="43.674125" lon="10.8913617"><ele>121.0</ele><time>2026-04-06T05:34:02.338Z</time></trkpt><trkpt lat="43.6740417" lon="10.8912867"><ele>121.0</ele><time>2026-04-06T05:34:03.333Z</time></trkpt><trkpt lat="43.6739583" lon="10.8912067"><ele>121.0</ele><time>2026-04-06T05:34:04.332Z</time></trkpt><trkpt lat="43.673875" lon="10.891125"><ele>121.0</ele><time>2026-04-06T05:34:05.334Z</time></trkpt><trkpt lat="43.67379" lon="10.8910417"><ele>121.0</ele><time>2026-04-06T05:34:06.333Z</time></trkpt><trkpt lat="43.673705" lon="10.890955"><ele>121.0</ele><time>2026-04-06T05:34:07.333Z</time></trkpt><trkpt lat="43.6736167" lon="10.8908667"><ele>122.8</ele><time>2026-04-06T05:34:08.334Z</time></trkpt><trkpt lat="43.673525" lon="10.8907833"><ele>124.6</ele><time>2026-04-06T05:34:09.333Z</time></trkpt><trkpt lat="43.6734317" lon="10.8907067"><ele>126.4</ele><time>2026-04-06T05:34:10.334Z</time></trkpt><trkpt lat="43.673335" lon="10.8906417"><ele>128.2</ele><time>2026-04-06T05:34:11.343Z</time></trkpt><trkpt lat="43.6732383" lon="10.8905917"><ele>130.0</ele><time>2026-04-06T05:34:12.333Z</time></trkpt><trkpt lat="43.6731467" lon="10.8905483"><ele>130.0</ele><time>2026-04-06T05:34:13.335Z</time></trkpt><trkpt lat="43.673065" lon="10.8904983"><ele>130.0</ele><time>2026-04-06T05:34:14.334Z</time></trkpt><trkpt lat="43.6729967" lon="10.8904433"><ele>130.0</ele><time>2026-04-06T05:34:15.334Z</time></trkpt><trkpt lat="43.67294" lon="10.8903717"><ele>130.0</ele><time>2026-04-06T05:34:16.334Z</time></trkpt><trkpt lat="43.6728983" lon="10.8903017"><ele>130.0</ele><time>2026-04-06T05:34:17.334Z</time></trkpt><trkpt lat="43.6728317" lon="10.8901567"><ele>130.0</ele><time>2026-04-06T05:34:19.335Z</time></trkpt><trkpt lat="43.67278" lon="10.8900033"><ele>132.8</ele><time>2026-04-06T05:34:21.337Z</time></trkpt><trkpt lat="43.672735" lon="10.88985"><ele>135.6</ele><time>2026-04-06T05:34:23.336Z</time></trkpt><trkpt lat="43.6726883" lon="10.8897233"><ele>138.4</ele><time>2026-04-06T05:34:25.333Z</time></trkpt><trkpt lat="43.67265" lon="10.8895983"><ele>141.2</ele><time>2026-04-06T05:34:27.333Z</time></trkpt><trkpt lat="43.672615" lon="10.889475"><ele>144.0</ele><time>2026-04-06T05:34:29.334Z</time></trkpt><trkpt lat="43.6725933" lon="10.8893483"><ele>145.2</ele><time>2026-04-06T05:34:31.334Z</time></trkpt><trkpt lat="43.6725883" lon="10.88921"><ele>146.4</ele><time>2026-04-06T05:34:33.335Z</time></trkpt><trkpt lat="43.6726" lon="10.8890683"><ele>147.6</ele><time>2026-04-06T05:34:35.335Z</time></trkpt><trkpt lat="43.67265" lon="10.8889233"><ele>148.8</ele><time>2026-04-06T05:34:37.334Z</time></trkpt><trkpt lat="43.6727133" lon="10.8887917"><ele>150.0</ele><time>2026-04-06T05:34:39.34Z</time></trkpt><trkpt lat="43.67276" lon="10.8886467"><ele>147.75</ele><time>2026-04-06T05:34:41.338Z</time></trkpt><trkpt lat="43.672805" lon="10.8885"><ele>145.5</ele><time>2026-04-06T05:34:43.336Z</time></trkpt><trkpt lat="43.6728583" lon="10.8883417"><ele>143.25</ele><time>2026-04-06T05:34:45.334Z</time></trkpt><trkpt lat="43.6729067" lon="10.888185"><ele>141.0</ele><time>2026-04-06T05:34:47.334Z</time></trkpt><trkpt lat="43.67292" lon="10.88802"><ele>141.0</ele><time>2026-04-06T05:34:49.341Z</time></trkpt><trkpt lat="43.6729183" lon="10.88793"><ele>141.0</ele><time>2026-04-06T05:34:50.337Z</time></trkpt><trkpt lat="43.67291" lon="10.8878333"><ele>141.0</ele><time>2026-04-06T05:34:51.339Z</time></trkpt><trkpt lat="43.6728883" lon="10.8877367"><ele>141.0</ele><time>2026-04-06T05:34:52.336Z</time></trkpt><trkpt lat="43.67286" lon="10.8876367"><ele>141.0</ele><time>2026-04-06T05:34:53.339Z</time></trkpt><trkpt lat="43.6728233" lon="10.8875317"><ele>141.0</ele><time>2026-04-06T05:34:54.337Z</time></trkpt><trkpt lat="43.6727983" lon="10.8874233"><ele>140.66666666666666</ele><time>2026-04-06T05:34:55.335Z</time></trkpt><trkpt lat="43.6727767" lon="10.8873117"><ele>140.33333333333334</ele><time>2026-04-06T05:34:56.338Z</time></trkpt><trkpt lat="43.6727617" lon="10.8871917"><ele>140.0</ele><time>2026-04-06T05:34:57.337Z</time></trkpt><trkpt lat="43.6727567" lon="10.8870683"><ele>139.66666666666669</ele><time>2026-04-06T05:34:58.333Z</time></trkpt><trkpt lat="43.6727667" lon="10.8869483"><ele>139.33333333333334</ele><time>2026-04-06T05:34:59.333Z</time></trkpt><trkpt lat="43.6727817" lon="10.8868283"><ele>139.0</ele><time>2026-04-06T05:35:00.339Z</time></trkpt><trkpt lat="43.6728067" lon="10.886705"><ele>137.6</ele><time>2026-04-06T05:35:01.338Z</time></trkpt><trkpt lat="43.6728433" lon="10.8865783"><ele>136.2</ele><time>2026-04-06T05:35:02.338Z</time></trkpt><trkpt lat="43.6728883" lon="10.8864533"><ele>134.79999999999998</ele><time>2026-04-06T05:35:03.333Z</time></trkpt><trkpt lat="43.6729333" lon="10.886325"><ele>133.4</ele><time>2026-04-06T05:35:04.334Z</time></trkpt><trkpt lat="43.672975" lon="10.8861967"><ele>132.0</ele><time>2026-04-06T05:35:05.333Z</time></trkpt><trkpt lat="43.67301" lon="10.88607"><ele>132.0</ele><time>2026-04-06T05:35:06.332Z</time></trkpt><trkpt lat="43.6730383" lon="10.8859417"><ele>132.0</ele><time>2026-04-06T05:35:07.334Z</time></trkpt><trkpt lat="43.6730567" lon="10.8858017"><ele>132.0</ele><time>2026-04-06T05:35:08.338Z</time></trkpt><trkpt lat="43.6730717" lon="10.8856617"><ele>132.0</ele><time>2026-04-06T05:35:09.333Z</time></trkpt><trkpt lat="43.6730767" lon="10.8855233"><ele>132.0</ele><time>2026-04-06T05:35:10.333Z</time></trkpt><trkpt lat="43.6730817" lon="10.8853883"><ele>131.4</ele><time>2026-04-06T05:35:11.333Z</time></trkpt><trkpt lat="43.6730833" lon="10.8852517"><ele>130.79999999999998</ele><time>2026-04-06T05:35:12.337Z</time></trkpt><trkpt lat="43.6730867" lon="10.8851167"><ele>130.2</ele><time>2026-04-06T05:35:13.335Z</time></trkpt><trkpt lat="43.67309" lon="10.8849833"><ele>129.6</ele><time>2026-04-06T05:35:14.335Z</time></trkpt><trkpt lat="43.6730933" lon="10.884855"><ele>129.0</ele><time>2026-04-06T05:35:15.333Z</time></trkpt><trkpt lat="43.6730967" lon="10.88473"><ele>129.0</ele><time>2026-04-06T05:35:16.333Z</time></trkpt><trkpt lat="43.6730983" lon="10.884605"><ele>129.0</ele><time>2026-04-06T05:35:17.344Z</time></trkpt><trkpt lat="43.6731" lon="10.88448"><ele>129.0</ele><time>2026-04-06T05:35:18.332Z</time></trkpt><trkpt lat="43.6731" lon="10.8843583"><ele>129.0</ele><time>2026-04-06T05:35:19.334Z</time></trkpt><trkpt lat="43.6730983" lon="10.884235"><ele>129.0</ele><time>2026-04-06T05:35:20.336Z</time></trkpt><trkpt lat="43.6731017" lon="10.8841117"><ele>129.0</ele><time>2026-04-06T05:35:21.334Z</time></trkpt><trkpt lat="43.673115" lon="10.8839867"><ele>130.6</ele><time>2026-04-06T05:35:22.338Z</time></trkpt><trkpt lat="43.6731433" lon="10.8838633"><ele>132.2</ele><time>2026-04-06T05:35:23.334Z</time></trkpt><trkpt lat="43.6731883" lon="10.8837483"><ele>133.79999999999998</ele><time>2026-04-06T05:35:24.335Z</time></trkpt><trkpt lat="43.6732383" lon="10.88364"><ele>135.4</ele><time>2026-04-06T05:35:25.334Z</time></trkpt><trkpt lat="43.6732917" lon="10.8835367"><ele>137.0</ele><time>2026-04-06T05:35:26.334Z</time></trkpt><trkpt lat="43.6733433" lon="10.8834317"><ele>138.2</ele><time>2026-04-06T05:35:27.339Z</time></trkpt><trkpt lat="43.6733933" lon="10.8833267"><ele>139.39999999999998</ele><time>2026-04-06T05:35:28.338Z</time></trkpt><trkpt lat="43.6734417" lon="10.88322"><ele>140.60000000000002</ele><time>2026-04-06T05:35:29.339Z</time></trkpt><trkpt lat="43.6734917" lon="10.883115"><ele>141.8</ele><time>2026-04-06T05:35:30.333Z</time></trkpt><trkpt lat="43.6735417" lon="10.8830133"><ele>143.0</ele><time>2026-04-06T05:35:31.335Z</time></trkpt><trkpt lat="43.6735933" lon="10.8829133"><ele>142.83333333333331</ele><time>2026-04-06T05:35:32.336Z</time></trkpt><trkpt lat="43.6736433" lon="10.8828083"><ele>142.66666666666666</ele><time>2026-04-06T05:35:33.338Z</time></trkpt><trkpt lat="43.6736933" lon="10.8827083"><ele>142.5</ele><time>2026-04-06T05:35:34.337Z</time></trkpt><trkpt lat="43.67374" lon="10.8826067"><ele>142.33333333333334</ele><time>2026-04-06T05:35:35.332Z</time></trkpt><trkpt lat="43.67378" lon="10.8825017"><ele>142.16666666666669</ele><time>2026-04-06T05:35:36.333Z</time></trkpt><trkpt lat="43.6738117" lon="10.8823933"><ele>142.0</ele><time>2026-04-06T05:35:37.335Z</time></trkpt><trkpt lat="43.673835" lon="10.8822767"><ele>142.0</ele><time>2026-04-06T05:35:38.335Z</time></trkpt><trkpt lat="43.6738467" lon="10.8821583"><ele>142.0</ele><time>2026-04-06T05:35:39.333Z</time></trkpt><trkpt lat="43.673855" lon="10.8820317"><ele>142.0</ele><time>2026-04-06T05:35:40.334Z</time></trkpt><trkpt lat="43.67386" lon="10.8819033"><ele>142.0</ele><time>2026-04-06T05:35:41.334Z</time></trkpt><trkpt lat="43.6738617" lon="10.881775"><ele>142.0</ele><time>2026-04-06T05:35:42.333Z</time></trkpt><trkpt lat="43.6738633" lon="10.88165"><ele>142.0</ele><time>2026-04-06T05:35:43.335Z</time></trkpt><trkpt lat="43.6738667" lon="10.8815283"><ele>142.0</ele><time>2026-04-06T05:35:44.334Z</time></trkpt><trkpt lat="43.67387" lon="10.8814067"><ele>142.0</ele><time>2026-04-06T05:35:45.332Z</time></trkpt><trkpt lat="43.67387" lon="10.881285"><ele>142.0</ele><time>2026-04-06T05:35:46.336Z</time></trkpt><trkpt lat="43.673865" lon="10.8811633"><ele>142.0</ele><time>2026-04-06T05:35:47.333Z</time></trkpt><trkpt lat="43.6738567" lon="10.8810417"><ele>142.0</ele><time>2026-04-06T05:35:48.333Z</time></trkpt><trkpt lat="43.6738383" lon="10.8809267"><ele>141.83333333333334</ele><time>2026-04-06T05:35:49.333Z</time></trkpt><trkpt lat="43.6738133" lon="10.88082"><ele>141.66666666666669</ele><time>2026-04-06T05:35:50.333Z</time></trkpt><trkpt lat="43.6737883" lon="10.880725"><ele>141.5</ele><time>2026-04-06T05:35:51.342Z</time></trkpt><trkpt lat="43.6737467" lon="10.880575"><ele>141.33333333333334</ele><time>2026-04-06T05:35:53.334Z</time></trkpt><trkpt lat="43.6737183" lon="10.8804817"><ele>141.16666666666666</ele><time>2026-04-06T05:35:55.335Z</time></trkpt><trkpt lat="43.6736883" lon="10.880385"><ele>141.0</ele><time>2026-04-06T05:35:58.333Z</time></trkpt><trkpt lat="43.6736117" lon="10.8803283"><ele>142.8</ele><time>2026-04-06T05:36:01.332Z</time></trkpt><trkpt lat="43.6735283" lon="10.8803017"><ele>144.6</ele><time>2026-04-06T05:36:03.332Z</time></trkpt><trkpt lat="43.6734417" lon="10.8802417"><ele>146.4</ele><time>2026-04-06T05:36:05.334Z</time></trkpt><trkpt lat="43.6733533" lon="10.8801617"><ele>148.2</ele><time>2026-04-06T05:36:07.335Z</time></trkpt><trkpt lat="43.6732567" lon="10.8800583"><ele>150.0</ele><time>2026-04-06T05:36:09.338Z</time></trkpt><trkpt lat="43.6732033" lon="10.8799983"><ele>151.16666666666666</ele><time>2026-04-06T05:36:10.337Z</time></trkpt><trkpt lat="43.6731467" lon="10.8799383"><ele>152.33333333333334</ele><time>2026-04-06T05:36:11.333Z</time></trkpt><trkpt lat="43.6730833" lon="10.87988"><ele>153.5</ele><time>2026-04-06T05:36:12.335Z</time></trkpt><trkpt lat="43.6730133" lon="10.8798267"><ele>154.66666666666669</ele><time>2026-04-06T05:36:13.335Z</time></trkpt><trkpt lat="43.6729383" lon="10.879785"><ele>155.83333333333334</ele><time>2026-04-06T05:36:14.334Z</time></trkpt><trkpt lat="43.67286" lon="10.8797483"><ele>157.0</ele><time>2026-04-06T05:36:15.332Z</time></trkpt><trkpt lat="43.672775" lon="10.8797183"><ele>155.0</ele><time>2026-04-06T05:36:16.336Z</time></trkpt><trkpt lat="43.6726933" lon="10.8796817"><ele>153.0</ele><time>2026-04-06T05:36:17.334Z</time></trkpt><trkpt lat="43.67261" lon="10.879645"><ele>151.0</ele><time>2026-04-06T05:36:18.338Z</time></trkpt><trkpt lat="43.6725267" lon="10.87961"><ele>149.0</ele><time>2026-04-06T05:36:19.336Z</time></trkpt><trkpt lat="43.6724433" lon="10.8795767"><ele>147.0</ele><time>2026-04-06T05:36:20.337Z</time></trkpt><trkpt lat="43.6723633" lon="10.879545"><ele>145.0</ele><time>2026-04-06T05:36:21.332Z</time></trkpt><trkpt lat="43.672285" lon="10.879515"><ele>145.0</ele><time>2026-04-06T05:36:22.338Z</time></trkpt><trkpt lat="43.6722083" lon="10.8794867"><ele>145.0</ele><time>2026-04-06T05:36:23.337Z</time></trkpt><trkpt lat="43.6721333" lon="10.8794617"><ele>145.0</ele><time>2026-04-06T05:36:24.336Z</time></trkpt><trkpt lat="43.67206" lon="10.8794333"><ele>145.0</ele><time>2026-04-06T05:36:25.334Z</time></trkpt><trkpt lat="43.6719867" lon="10.8794033"><ele>145.0</ele><time>2026-04-06T05:36:26.34Z</time></trkpt><trkpt lat="43.6719133" lon="10.8793733"><ele>145.0</ele><time>2026-04-06T05:36:27.334Z</time></trkpt><trkpt lat="43.67184" lon="10.87935"><ele>143.83333333333334</ele><time>2026-04-06T05:36:28.335Z</time></trkpt><trkpt lat="43.671765" lon="10.8793283"><ele>142.66666666666669</ele><time>2026-04-06T05:36:29.333Z</time></trkpt><trkpt lat="43.67169" lon="10.8793133"><ele>141.5</ele><time>2026-04-06T05:36:30.333Z</time></trkpt><trkpt lat="43.6716133" lon="10.8792967"><ele>140.33333333333334</ele><time>2026-04-06T05:36:31.336Z</time></trkpt><trkpt lat="43.6715317" lon="10.8792833"><ele>139.16666666666666</ele><time>2026-04-06T05:36:32.339Z</time></trkpt><trkpt lat="43.6714483" lon="10.87928"><ele>138.0</ele><time>2026-04-06T05:36:33.335Z</time></trkpt><trkpt lat="43.671365" lon="10.8792983"><ele>138.0</ele><time>2026-04-06T05:36:34.332Z</time></trkpt><trkpt lat="43.6712883" lon="10.8793333"><ele>138.0</ele><time>2026-04-06T05:36:35.334Z</time></trkpt><trkpt lat="43.6712117" lon="10.8793717"><ele>138.0</ele><time>2026-04-06T05:36:36.341Z</time></trkpt><trkpt lat="43.6711333" lon="10.87941"><ele>138.0</ele><time>2026-04-06T05:36:37.333Z</time></trkpt><trkpt lat="43.6710583" lon="10.8794483"><ele>138.0</ele><time>2026-04-06T05:36:38.338Z</time></trkpt><trkpt lat="43.6709867" lon="10.8794883"><ele>138.0</ele><time>2026-04-06T05:36:39.335Z</time></trkpt><trkpt lat="43.6709167" lon="10.879535"><ele>137.66666666666666</ele><time>2026-04-06T05:36:40.333Z</time></trkpt><trkpt lat="43.6708533" lon="10.8795983"><ele>137.33333333333334</ele><time>2026-04-06T05:36:41.333Z</time></trkpt><trkpt lat="43.67079" lon="10.8796733"><ele>137.0</ele><time>2026-04-06T05:36:42.335Z</time></trkpt><trkpt lat="43.670725" lon="10.8797517"><ele>136.66666666666669</ele><time>2026-04-06T05:36:43.332Z</time></trkpt><trkpt lat="43.6706567" lon="10.8798233"><ele>136.33333333333334</ele><time>2026-04-06T05:36:44.335Z</time></trkpt><trkpt lat="43.6705833" lon="10.8798883"><ele>136.0</ele><time>2026-04-06T05:36:45.333Z</time></trkpt><trkpt lat="43.6705117" lon="10.8799517"><ele>136.0</ele><time>2026-04-06T05:36:46.335Z</time></trkpt><trkpt lat="43.6704417" lon="10.8800167"><ele>136.0</ele><time>2026-04-06T05:36:47.338Z</time></trkpt><trkpt lat="43.6703717" lon="10.8800817"><ele>136.0</ele><time>2026-04-06T05:36:48.333Z</time></trkpt><trkpt lat="43.6703" lon="10.8801417"><ele>136.0</ele><time>2026-04-06T05:36:49.335Z</time></trkpt><trkpt lat="43.670225" lon="10.88019"><ele>136.0</ele><time>2026-04-06T05:36:50.336Z</time></trkpt><trkpt lat="43.6701517" lon="10.8802283"><ele>136.0</ele><time>2026-04-06T05:36:51.337Z</time></trkpt><trkpt lat="43.670085" lon="10.8802567"><ele>134.8</ele><time>2026-04-06T05:36:52.336Z</time></trkpt><trkpt lat="43.6699767" lon="10.8803"><ele>133.6</ele><time>2026-04-06T05:36:54.333Z</time></trkpt><trkpt lat="43.6698783" lon="10.8802917"><ele>132.4</ele><time>2026-04-06T05:36:56.335Z</time></trkpt><trkpt lat="43.6698017" lon="10.8801883"><ele>131.2</ele><time>2026-04-06T05:36:58.336Z</time></trkpt><trkpt lat="43.66977" lon="10.8801083"><ele>130.0</ele><time>2026-04-06T05:36:59.333Z</time></trkpt><trkpt lat="43.6697367" lon="10.8800133"><ele>130.0</ele><time>2026-04-06T05:37:00.333Z</time></trkpt><trkpt lat="43.669695" lon="10.87991"><ele>130.0</ele><time>2026-04-06T05:37:01.334Z</time></trkpt><trkpt lat="43.6696467" lon="10.879805"><ele>130.0</ele><time>2026-04-06T05:37:02.332Z</time></trkpt><trkpt lat="43.6695917" lon="10.879705"><ele>130.0</ele><time>2026-04-06T05:37:03.333Z</time></trkpt><trkpt lat="43.6695283" lon="10.8796167"><ele>130.0</ele><time>2026-04-06T05:37:04.333Z</time></trkpt><trkpt lat="43.6694567" lon="10.8795483"><ele>130.0</ele><time>2026-04-06T05:37:05.335Z</time></trkpt><trkpt lat="43.66938" lon="10.8795"><ele>126.66666666666667</ele><time>2026-04-06T05:37:06.334Z</time></trkpt><trkpt lat="43.6693" lon="10.8794633"><ele>123.33333333333334</ele><time>2026-04-06T05:37:07.334Z</time></trkpt><trkpt lat="43.6692233" lon="10.8794467"><ele>120.0</ele><time>2026-04-06T05:37:08.339Z</time></trkpt><trkpt lat="43.6691417" lon="10.87945"><ele>116.66666666666666</ele><time>2026-04-06T05:37:09.333Z</time></trkpt><trkpt lat="43.66905" lon="10.8794633"><ele>113.33333333333333</ele><time>2026-04-06T05:37:10.339Z</time></trkpt><trkpt lat="43.6689567" lon="10.8794783"><ele>110.0</ele><time>2026-04-06T05:37:11.338Z</time></trkpt><trkpt lat="43.6688633" lon="10.8794883"><ele>109.99999999999999</ele><time>2026-04-06T05:37:12.334Z</time></trkpt><trkpt lat="43.6687733" lon="10.8795"><ele>110.0</ele><time>2026-04-06T05:37:13.334Z</time></trkpt><trkpt lat="43.6686883" lon="10.8795183"><ele>110.0</ele><time>2026-04-06T05:37:14.34Z</time></trkpt><trkpt lat="43.6686233" lon="10.8795167"><ele>110.0</ele><time>2026-04-06T05:37:15.34Z</time></trkpt><trkpt lat="43.6685567" lon="10.8795233"><ele>110.0</ele><time>2026-04-06T05:37:16.333Z</time></trkpt><trkpt lat="43.6684933" lon="10.879505"><ele>109.99999999999999</ele><time>2026-04-06T05:37:17.338Z</time></trkpt><trkpt lat="43.6684333" lon="10.8794683"><ele>110.0</ele><time>2026-04-06T05:37:18.338Z</time></trkpt><trkpt lat="43.6683783" lon="10.8793983"><ele>108.33333333333333</ele><time>2026-04-06T05:37:19.337Z</time></trkpt><trkpt lat="43.6683217" lon="10.879315"><ele>106.66666666666666</ele><time>2026-04-06T05:37:20.334Z</time></trkpt><trkpt lat="43.6682617" lon="10.87923"><ele>105.0</ele><time>2026-04-06T05:37:21.335Z</time></trkpt><trkpt lat="43.6681983" lon="10.87914"><ele>103.33333333333334</ele><time>2026-04-06T05:37:22.336Z</time></trkpt><trkpt lat="43.668135" lon="10.8790467"><ele>101.66666666666667</ele><time>2026-04-06T05:37:23.333Z</time></trkpt><trkpt lat="43.668075" lon="10.8789583"><ele>100.0</ele><time>2026-04-06T05:37:24.337Z</time></trkpt><trkpt lat="43.6680233" lon="10.8788817"><ele>100.00000000000001</ele><time>2026-04-06T05:37:25.337Z</time></trkpt><trkpt lat="43.6679683" lon="10.8788217"><ele>100.0</ele><time>2026-04-06T05:37:26.335Z</time></trkpt><trkpt lat="43.6679033" lon="10.87878"><ele>100.0</ele><time>2026-04-06T05:37:27.332Z</time></trkpt><trkpt lat="43.6678317" lon="10.8787667"><ele>100.0</ele><time>2026-04-06T05:37:28.334Z</time></trkpt><trkpt lat="43.667755" lon="10.87878"><ele>100.00000000000001</ele><time>2026-04-06T05:37:29.332Z</time></trkpt><trkpt lat="43.6676783" lon="10.8788133"><ele>100.0</ele><time>2026-04-06T05:37:30.339Z</time></trkpt><trkpt lat="43.6676017" lon="10.8788483"><ele>96.50000000000001</ele><time>2026-04-06T05:37:31.34Z</time></trkpt><trkpt lat="43.6675217" lon="10.8788733"><ele>93.0</ele><time>2026-04-06T05:37:32.333Z</time></trkpt><trkpt lat="43.6674417" lon="10.878885"><ele>89.5</ele><time>2026-04-06T05:37:33.335Z</time></trkpt><trkpt lat="43.6673633" lon="10.8788817"><ele>86.0</ele><time>2026-04-06T05:37:34.332Z</time></trkpt><trkpt lat="43.6672867" lon="10.8788633"><ele>82.5</ele><time>2026-04-06T05:37:35.333Z</time></trkpt><trkpt lat="43.6672083" lon="10.878825"><ele>79.0</ele><time>2026-04-06T05:37:36.333Z</time></trkpt><trkpt lat="43.6671333" lon="10.87878"><ele>79.0</ele><time>2026-04-06T05:37:37.333Z</time></trkpt><trkpt lat="43.6670567" lon="10.8787317"><ele>79.0</ele><time>2026-04-06T05:37:38.332Z</time></trkpt><trkpt lat="43.6669767" lon="10.8786833"><ele>79.0</ele><time>2026-04-06T05:37:39.333Z</time></trkpt><trkpt lat="43.6668983" lon="10.8786333"><ele>79.0</ele><time>2026-04-06T05:37:40.339Z</time></trkpt><trkpt lat="43.6668233" lon="10.8785783"><ele>79.0</ele><time>2026-04-06T05:37:41.332Z</time></trkpt><trkpt lat="43.6667533" lon="10.8785183"><ele>79.0</ele><time>2026-04-06T05:37:42.334Z</time></trkpt><trkpt lat="43.6666917" lon="10.8784433"><ele>77.16666666666666</ele><time>2026-04-06T05:37:43.334Z</time></trkpt><trkpt lat="43.666645" lon="10.8783567"><ele>75.33333333333333</ele><time>2026-04-06T05:37:44.338Z</time></trkpt><trkpt lat="43.6666133" lon="10.87826"><ele>73.5</ele><time>2026-04-06T05:37:45.341Z</time></trkpt><trkpt lat="43.66658" lon="10.8781617"><ele>71.66666666666667</ele><time>2026-04-06T05:37:46.333Z</time></trkpt><trkpt lat="43.666545" lon="10.87806"><ele>69.83333333333334</ele><time>2026-04-06T05:37:47.333Z</time></trkpt><trkpt lat="43.66651" lon="10.87796"><ele>68.0</ele><time>2026-04-06T05:37:48.334Z</time></trkpt><trkpt lat="43.6664767" lon="10.877855"><ele>68.0</ele><time>2026-04-06T05:37:49.333Z</time></trkpt><trkpt lat="43.6664483" lon="10.8777467"><ele>68.0</ele><time>2026-04-06T05:37:50.335Z</time></trkpt><trkpt lat="43.6664233" lon="10.8776333"><ele>68.0</ele><time>2026-04-06T05:37:51.338Z</time></trkpt><trkpt lat="43.6664" lon="10.8775167"><ele>68.0</ele><time>2026-04-06T05:37:52.337Z</time></trkpt><trkpt lat="43.6663767" lon="10.8773933"><ele>68.0</ele><time>2026-04-06T05:37:53.334Z</time></trkpt><trkpt lat="43.6663517" lon="10.8772683"><ele>68.0</ele><time>2026-04-06T05:37:54.333Z</time></trkpt><trkpt lat="43.6663267" lon="10.87714"><ele>68.16666666666667</ele><time>2026-04-06T05:37:55.335Z</time></trkpt><trkpt lat="43.6663017" lon="10.8770133"><ele>68.33333333333334</ele><time>2026-04-06T05:37:56.333Z</time></trkpt><trkpt lat="43.66628" lon="10.8768917"><ele>68.5</ele><time>2026-04-06T05:37:57.341Z</time></trkpt><trkpt lat="43.6662583" lon="10.876775"><ele>68.66666666666667</ele><time>2026-04-06T05:37:58.334Z</time></trkpt><trkpt lat="43.6662367" lon="10.8766617"><ele>68.83333333333333</ele><time>2026-04-06T05:37:59.332Z</time></trkpt><trkpt lat="43.666215" lon="10.8765517"><ele>69.0</ele><time>2026-04-06T05:38:00.333Z</time></trkpt><trkpt lat="43.6661933" lon="10.8764417"><ele>68.5</ele><time>2026-04-06T05:38:01.333Z</time></trkpt><trkpt lat="43.6661717" lon="10.8763317"><ele>68.0</ele><time>2026-04-06T05:38:02.333Z</time></trkpt><trkpt lat="43.6661517" lon="10.8762183"><ele>67.5</ele><time>2026-04-06T05:38:03.332Z</time></trkpt><trkpt lat="43.6661333" lon="10.8761033"><ele>67.0</ele><time>2026-04-06T05:38:04.332Z</time></trkpt><trkpt lat="43.666115" lon="10.8759883"><ele>66.5</ele><time>2026-04-06T05:38:05.334Z</time></trkpt><trkpt lat="43.666095" lon="10.8758733"><ele>66.0</ele><time>2026-04-06T05:38:06.333Z</time></trkpt><trkpt lat="43.666075" lon="10.8757567"><ele>65.33333333333333</ele><time>2026-04-06T05:38:07.333Z</time></trkpt><trkpt lat="43.6660517" lon="10.87564"><ele>64.66666666666667</ele><time>2026-04-06T05:38:08.336Z</time></trkpt><trkpt lat="43.666025" lon="10.8755283"><ele>64.0</ele><time>2026-04-06T05:38:09.333Z</time></trkpt><trkpt lat="43.6659933" lon="10.87542"><ele>63.333333333333336</ele><time>2026-04-06T05:38:10.335Z</time></trkpt><trkpt lat="43.6659617" lon="10.8753117"><ele>62.66666666666667</ele><time>2026-04-06T05:38:11.332Z</time></trkpt><trkpt lat="43.665925" lon="10.875205"><ele>62.0</ele><time>2026-04-06T05:38:12.347Z</time></trkpt><trkpt lat="43.66589" lon="10.8750983"><ele>62.00000000000001</ele><time>2026-04-06T05:38:13.333Z</time></trkpt><trkpt lat="43.6658517" lon="10.8749933"><ele>62.0</ele><time>2026-04-06T05:38:14.335Z</time></trkpt><trkpt lat="43.66581" lon="10.8748883"><ele>62.0</ele><time>2026-04-06T05:38:15.334Z</time></trkpt><trkpt lat="43.6657617" lon="10.874785"><ele>62.0</ele><time>2026-04-06T05:38:16.333Z</time></trkpt><trkpt lat="43.6657083" lon="10.8746833"><ele>62.00000000000001</ele><time>2026-04-06T05:38:17.331Z</time></trkpt><trkpt lat="43.6656567" lon="10.8745817"><ele>62.0</ele><time>2026-04-06T05:38:18.339Z</time></trkpt><trkpt lat="43.6656033" lon="10.8744817"><ele>62.00000000000001</ele><time>2026-04-06T05:38:19.334Z</time></trkpt><trkpt lat="43.6655517" lon="10.8743833"><ele>62.0</ele><time>2026-04-06T05:38:20.334Z</time></trkpt><trkpt lat="43.6655" lon="10.8742833"><ele>62.0</ele><time>2026-04-06T05:38:21.333Z</time></trkpt><trkpt lat="43.66545" lon="10.8741833"><ele>62.0</ele><time>2026-04-06T05:38:22.332Z</time></trkpt><trkpt lat="43.6654017" lon="10.874085"><ele>62.00000000000001</ele><time>2026-04-06T05:38:23.336Z</time></trkpt><trkpt lat="43.6653517" lon="10.8739867"><ele>62.0</ele><time>2026-04-06T05:38:24.335Z</time></trkpt><trkpt lat="43.6653017" lon="10.8738883"><ele>61.50000000000001</ele><time>2026-04-06T05:38:25.333Z</time></trkpt><trkpt lat="43.6652517" lon="10.873785"><ele>61.0</ele><time>2026-04-06T05:38:26.334Z</time></trkpt><trkpt lat="43.665205" lon="10.87368"><ele>60.5</ele><time>2026-04-06T05:38:27.333Z</time></trkpt><trkpt lat="43.665165" lon="10.8735683"><ele>60.0</ele><time>2026-04-06T05:38:28.332Z</time></trkpt><trkpt lat="43.66513" lon="10.873455"><ele>59.50000000000001</ele><time>2026-04-06T05:38:29.332Z</time></trkpt><trkpt lat="43.6650967" lon="10.87334"><ele>59.0</ele><time>2026-04-06T05:38:30.333Z</time></trkpt><trkpt lat="43.665065" lon="10.873225"><ele>59.00000000000001</ele><time>2026-04-06T05:38:31.334Z</time></trkpt><trkpt lat="43.665035" lon="10.8731117"><ele>59.0</ele><time>2026-04-06T05:38:32.332Z</time></trkpt><trkpt lat="43.6650083" lon="10.8729983"><ele>59.0</ele><time>2026-04-06T05:38:33.334Z</time></trkpt><trkpt lat="43.66498" lon="10.872885"><ele>59.0</ele><time>2026-04-06T05:38:34.331Z</time></trkpt><trkpt lat="43.6649517" lon="10.8727683"><ele>59.00000000000001</ele><time>2026-04-06T05:38:35.335Z</time></trkpt><trkpt lat="43.6649217" lon="10.8726483"><ele>59.0</ele><time>2026-04-06T05:38:36.334Z</time></trkpt><trkpt lat="43.6648917" lon="10.8725283"><ele>59.2</ele><time>2026-04-06T05:38:37.333Z</time></trkpt><trkpt lat="43.6648633" lon="10.8724017"><ele>59.400000000000006</ele><time>2026-04-06T05:38:38.333Z</time></trkpt><trkpt lat="43.6648367" lon="10.872275"><ele>59.6</ele><time>2026-04-06T05:38:39.336Z</time></trkpt><trkpt lat="43.6648133" lon="10.8721483"><ele>59.8</ele><time>2026-04-06T05:38:40.333Z</time></trkpt><trkpt lat="43.6647883" lon="10.87202"><ele>60.0</ele><time>2026-04-06T05:38:41.332Z</time></trkpt><trkpt lat="43.6647633" lon="10.871895"><ele>60.2</ele><time>2026-04-06T05:38:42.333Z</time></trkpt><trkpt lat="43.66474" lon="10.8717717"><ele>60.4</ele><time>2026-04-06T05:38:43.331Z</time></trkpt><trkpt lat="43.6647167" lon="10.8716483"><ele>60.599999999999994</ele><time>2026-04-06T05:38:44.332Z</time></trkpt><trkpt lat="43.6646883" lon="10.871525"><ele>60.8</ele><time>2026-04-06T05:38:45.333Z</time></trkpt><trkpt lat="43.66466" lon="10.8714033"><ele>61.0</ele><time>2026-04-06T05:38:46.338Z</time></trkpt><trkpt lat="43.66463" lon="10.871285"><ele>61.0</ele><time>2026-04-06T05:38:47.333Z</time></trkpt><trkpt lat="43.6646" lon="10.871165"><ele>60.99999999999999</ele><time>2026-04-06T05:38:48.335Z</time></trkpt><trkpt lat="43.66457" lon="10.871045"><ele>60.99999999999999</ele><time>2026-04-06T05:38:49.336Z</time></trkpt><trkpt lat="43.6645417" lon="10.870925"><ele>61.0</ele><time>2026-04-06T05:38:50.333Z</time></trkpt><trkpt lat="43.664515" lon="10.8708083"><ele>61.0</ele><time>2026-04-06T05:38:51.343Z</time></trkpt><trkpt lat="43.6644867" lon="10.870695"><ele>60.0</ele><time>2026-04-06T05:38:52.337Z</time></trkpt><trkpt lat="43.6644533" lon="10.87058"><ele>58.99999999999999</ele><time>2026-04-06T05:38:53.423Z</time></trkpt><trkpt lat="43.664415" lon="10.8704633"><ele>57.99999999999999</ele><time>2026-04-06T05:38:54.335Z</time></trkpt><trkpt lat="43.6643717" lon="10.8703483"><ele>57.0</ele><time>2026-04-06T05:38:55.333Z</time></trkpt><trkpt lat="43.6643267" lon="10.8702367"><ele>56.0</ele><time>2026-04-06T05:38:56.333Z</time></trkpt><trkpt lat="43.6642817" lon="10.8701267"><ele>56.8</ele><time>2026-04-06T05:38:57.333Z</time></trkpt><trkpt lat="43.6642333" lon="10.8700133"><ele>57.599999999999994</ele><time>2026-04-06T05:38:58.333Z</time></trkpt><trkpt lat="43.6641867" lon="10.8699"><ele>58.4</ele><time>2026-04-06T05:38:59.334Z</time></trkpt><trkpt lat="43.66414" lon="10.869785"><ele>59.2</ele><time>2026-04-06T05:39:00.336Z</time></trkpt><trkpt lat="43.6640917" lon="10.86967"><ele>60.0</ele><time>2026-04-06T05:39:01.334Z</time></trkpt><trkpt lat="43.6640433" lon="10.8695583"><ele>60.0</ele><time>2026-04-06T05:39:02.336Z</time></trkpt><trkpt lat="43.6639933" lon="10.86945"><ele>60.0</ele><time>2026-04-06T05:39:03.333Z</time></trkpt><trkpt lat="43.663945" lon="10.8693417"><ele>60.0</ele><time>2026-04-06T05:39:04.334Z</time></trkpt><trkpt lat="43.663895" lon="10.86924"><ele>60.0</ele><time>2026-04-06T05:39:05.334Z</time></trkpt><trkpt lat="43.663845" lon="10.8691333"><ele>60.0</ele><time>2026-04-06T05:39:06.332Z</time></trkpt><trkpt lat="43.6637983" lon="10.8690283"><ele>60.333333333333336</ele><time>2026-04-06T05:39:07.333Z</time></trkpt><trkpt lat="43.663755" lon="10.8689233"><ele>60.66666666666667</ele><time>2026-04-06T05:39:08.337Z</time></trkpt><trkpt lat="43.6637083" lon="10.86882"><ele>61.0</ele><time>2026-04-06T05:39:09.332Z</time></trkpt><trkpt lat="43.66366" lon="10.8687167"><ele>61.333333333333336</ele><time>2026-04-06T05:39:10.333Z</time></trkpt><trkpt lat="43.6636117" lon="10.868615"><ele>61.66666666666667</ele><time>2026-04-06T05:39:11.333Z</time></trkpt><trkpt lat="43.6635683" lon="10.8685117"><ele>62.0</ele><time>2026-04-06T05:39:12.335Z</time></trkpt><trkpt lat="43.663525" lon="10.8684067"><ele>62.00000000000001</ele><time>2026-04-06T05:39:13.337Z</time></trkpt><trkpt lat="43.6634867" lon="10.868305"><ele>62.0</ele><time>2026-04-06T05:39:14.335Z</time></trkpt><trkpt lat="43.663445" lon="10.86821"><ele>62.0</ele><time>2026-04-06T05:39:15.333Z</time></trkpt><trkpt lat="43.6634017" lon="10.8681183"><ele>62.0</ele><time>2026-04-06T05:39:16.333Z</time></trkpt><trkpt lat="43.66336" lon="10.8680267"><ele>62.00000000000001</ele><time>2026-04-06T05:39:17.333Z</time></trkpt><trkpt lat="43.66332" lon="10.867935"><ele>62.0</ele><time>2026-04-06T05:39:18.332Z</time></trkpt><trkpt lat="43.6632817" lon="10.867845"><ele>62.0</ele><time>2026-04-06T05:39:19.334Z</time></trkpt><trkpt lat="43.663245" lon="10.8677583"><ele>62.00000000000001</ele><time>2026-04-06T05:39:20.335Z</time></trkpt><trkpt lat="43.6632083" lon="10.8676783"><ele>62.0</ele><time>2026-04-06T05:39:21.334Z</time></trkpt><trkpt lat="43.663165" lon="10.8676017"><ele>62.0</ele><time>2026-04-06T05:39:22.335Z</time></trkpt><trkpt lat="43.66311" lon="10.867535"><ele>62.00000000000001</ele><time>2026-04-06T05:39:23.333Z</time></trkpt><trkpt lat="43.6630433" lon="10.8674817"><ele>62.0</ele><time>2026-04-06T05:39:24.333Z</time></trkpt><trkpt lat="43.662965" lon="10.8674467"><ele>62.0</ele><time>2026-04-06T05:39:25.333Z</time></trkpt><trkpt lat="43.66288" lon="10.867425"><ele>61.0</ele><time>2026-04-06T05:39:26.333Z</time></trkpt><trkpt lat="43.6627867" lon="10.867415"><ele>60.0</ele><time>2026-04-06T05:39:27.332Z</time></trkpt><trkpt lat="43.66269" lon="10.8674083"><ele>59.0</ele><time>2026-04-06T05:39:28.332Z</time></trkpt><trkpt lat="43.662595" lon="10.8673967"><ele>58.0</ele><time>2026-04-06T05:39:29.332Z</time></trkpt><trkpt lat="43.6625" lon="10.8673833"><ele>57.0</ele><time>2026-04-06T05:39:30.332Z</time></trkpt><trkpt lat="43.6624017" lon="10.8673733"><ele>57.0</ele><time>2026-04-06T05:39:31.333Z</time></trkpt><trkpt lat="43.6623067" lon="10.8673617"><ele>57.0</ele><time>2026-04-06T05:39:32.333Z</time></trkpt><trkpt lat="43.662215" lon="10.8673533"><ele>57.0</ele><time>2026-04-06T05:39:33.332Z</time></trkpt><trkpt lat="43.6621267" lon="10.867345"><ele>57.0</ele><time>2026-04-06T05:39:34.333Z</time></trkpt><trkpt lat="43.6620383" lon="10.8673333"><ele>57.0</ele><time>2026-04-06T05:39:35.334Z</time></trkpt><trkpt lat="43.661955" lon="10.8673183"><ele>57.0</ele><time>2026-04-06T05:39:36.333Z</time></trkpt><trkpt lat="43.6618817" lon="10.8673033"><ele>56.2</ele><time>2026-04-06T05:39:37.333Z</time></trkpt><trkpt lat="43.66182" lon="10.8672817"><ele>55.400000000000006</ele><time>2026-04-06T05:39:38.334Z</time></trkpt><trkpt lat="43.6617117" lon="10.867235"><ele>54.599999999999994</ele><time>2026-04-06T05:39:40.331Z</time></trkpt><trkpt lat="43.6615967" lon="10.8672467"><ele>53.8</ele><time>2026-04-06T05:39:42.333Z</time></trkpt><trkpt lat="43.66148" lon="10.86731"><ele>53.0</ele><time>2026-04-06T05:39:44.333Z</time></trkpt><trkpt lat="43.6614183" lon="10.867365"><ele>53.00000000000001</ele><time>2026-04-06T05:39:45.334Z</time></trkpt><trkpt lat="43.6613567" lon="10.8674283"><ele>53.0</ele><time>2026-04-06T05:39:46.333Z</time></trkpt><trkpt lat="43.6612933" lon="10.86749"><ele>53.0</ele><time>2026-04-06T05:39:47.333Z</time></trkpt><trkpt lat="43.6612267" lon="10.8675483"><ele>53.0</ele><time>2026-04-06T05:39:48.333Z</time></trkpt><trkpt lat="43.66116" lon="10.867605"><ele>53.00000000000001</ele><time>2026-04-06T05:39:49.333Z</time></trkpt><trkpt lat="43.6610933" lon="10.86766"><ele>53.0</ele><time>2026-04-06T05:39:50.334Z</time></trkpt><trkpt lat="43.661025" lon="10.8677167"><ele>53.66666666666667</ele><time>2026-04-06T05:39:51.334Z</time></trkpt><trkpt lat="43.6609583" lon="10.8677767"><ele>54.333333333333336</ele><time>2026-04-06T05:39:52.337Z</time></trkpt><trkpt lat="43.66089" lon="10.8678383"><ele>55.0</ele><time>2026-04-06T05:39:53.334Z</time></trkpt><trkpt lat="43.6608217" lon="10.8678917"><ele>55.66666666666667</ele><time>2026-04-06T05:39:54.334Z</time></trkpt><trkpt lat="43.6607533" lon="10.867945"><ele>56.333333333333336</ele><time>2026-04-06T05:39:55.336Z</time></trkpt><trkpt lat="43.660685" lon="10.8679983"><ele>57.0</ele><time>2026-04-06T05:39:56.335Z</time></trkpt><trkpt lat="43.6606183" lon="10.8680517"><ele>57.0</ele><time>2026-04-06T05:39:57.337Z</time></trkpt><trkpt lat="43.6605517" lon="10.8681117"><ele>57.0</ele><time>2026-04-06T05:39:58.332Z</time></trkpt><trkpt lat="43.6604883" lon="10.8681733"><ele>57.0</ele><time>2026-04-06T05:39:59.333Z</time></trkpt><trkpt lat="43.6604217" lon="10.86823"><ele>57.0</ele><time>2026-04-06T05:40:00.334Z</time></trkpt><trkpt lat="43.6603533" lon="10.868285"><ele>57.0</ele><time>2026-04-06T05:40:01.333Z</time></trkpt><trkpt lat="43.6602833" lon="10.8683433"><ele>57.0</ele><time>2026-04-06T05:40:02.335Z</time></trkpt><trkpt lat="43.6602133" lon="10.8684033"><ele>57.5</ele><time>2026-04-06T05:40:03.332Z</time></trkpt><trkpt lat="43.660145" lon="10.8684633"><ele>58.0</ele><time>2026-04-06T05:40:04.333Z</time></trkpt><trkpt lat="43.6600767" lon="10.8685267"><ele>58.5</ele><time>2026-04-06T05:40:05.332Z</time></trkpt><trkpt lat="43.6600067" lon="10.868585"><ele>59.0</ele><time>2026-04-06T05:40:06.333Z</time></trkpt><trkpt lat="43.6599367" lon="10.8686383"><ele>59.5</ele><time>2026-04-06T05:40:07.336Z</time></trkpt><trkpt lat="43.6598617" lon="10.868695"><ele>60.0</ele><time>2026-04-06T05:40:08.334Z</time></trkpt><trkpt lat="43.6597867" lon="10.86875"><ele>60.0</ele><time>2026-04-06T05:40:09.335Z</time></trkpt><trkpt lat="43.6597167" lon="10.868805"><ele>60.0</ele><time>2026-04-06T05:40:10.333Z</time></trkpt><trkpt lat="43.6596483" lon="10.86886"><ele>60.0</ele><time>2026-04-06T05:40:11.334Z</time></trkpt><trkpt lat="43.6595817" lon="10.8689083"><ele>60.0</ele><time>2026-04-06T05:40:12.333Z</time></trkpt><trkpt lat="43.6595167" lon="10.8689567"><ele>60.0</ele><time>2026-04-06T05:40:13.332Z</time></trkpt><trkpt lat="43.65945" lon="10.869005"><ele>60.0</ele><time>2026-04-06T05:40:14.333Z</time></trkpt><trkpt lat="43.6593783" lon="10.8690517"><ele>60.5</ele><time>2026-04-06T05:40:15.334Z</time></trkpt><trkpt lat="43.6593067" lon="10.8690967"><ele>61.0</ele><time>2026-04-06T05:40:16.335Z</time></trkpt><trkpt lat="43.6592317" lon="10.8691417"><ele>61.5</ele><time>2026-04-06T05:40:17.333Z</time></trkpt><trkpt lat="43.6591583" lon="10.8691833"><ele>62.0</ele><time>2026-04-06T05:40:18.333Z</time></trkpt><trkpt lat="43.6590833" lon="10.869225"><ele>62.5</ele><time>2026-04-06T05:40:19.335Z</time></trkpt><trkpt lat="43.65901" lon="10.8692683"><ele>63.0</ele><time>2026-04-06T05:40:20.334Z</time></trkpt><trkpt lat="43.658935" lon="10.869315"><ele>63.0</ele><time>2026-04-06T05:40:21.333Z</time></trkpt><trkpt lat="43.65886" lon="10.8693667"><ele>63.0</ele><time>2026-04-06T05:40:22.333Z</time></trkpt><trkpt lat="43.658785" lon="10.8694133"><ele>63.0</ele><time>2026-04-06T05:40:23.334Z</time></trkpt><trkpt lat="43.6587083" lon="10.8694633"><ele>63.0</ele><time>2026-04-06T05:40:24.334Z</time></trkpt><trkpt lat="43.65863" lon="10.8695067"><ele>63.0</ele><time>2026-04-06T05:40:25.341Z</time></trkpt><trkpt lat="43.6585533" lon="10.8695483"><ele>63.0</ele><time>2026-04-06T05:40:26.334Z</time></trkpt><trkpt lat="43.6584783" lon="10.8695867"><ele>61.599999999999994</ele><time>2026-04-06T05:40:27.339Z</time></trkpt><trkpt lat="43.6584067" lon="10.8696267"><ele>60.199999999999996</ele><time>2026-04-06T05:40:28.338Z</time></trkpt><trkpt lat="43.6583317" lon="10.8696633"><ele>58.8</ele><time>2026-04-06T05:40:29.333Z</time></trkpt><trkpt lat="43.6582533" lon="10.8697017"><ele>57.4</ele><time>2026-04-06T05:40:30.335Z</time></trkpt><trkpt lat="43.6581733" lon="10.8697467"><ele>56.0</ele><time>2026-04-06T05:40:31.333Z</time></trkpt><trkpt lat="43.6580233" lon="10.8698417"><ele>56.00000000000001</ele><time>2026-04-06T05:40:33.333Z</time></trkpt><trkpt lat="43.6579483" lon="10.869885"><ele>56.0</ele><time>2026-04-06T05:40:34.332Z</time></trkpt><trkpt lat="43.6578733" lon="10.86993"><ele>56.0</ele><time>2026-04-06T05:40:35.331Z</time></trkpt><trkpt lat="43.6578" lon="10.8699817"><ele>56.0</ele><time>2026-04-06T05:40:36.332Z</time></trkpt><trkpt lat="43.6577267" lon="10.8700433"><ele>56.00000000000001</ele><time>2026-04-06T05:40:37.333Z</time></trkpt><trkpt lat="43.6576567" lon="10.870105"><ele>56.0</ele><time>2026-04-06T05:40:38.334Z</time></trkpt><trkpt lat="43.6575883" lon="10.8701717"><ele>56.00000000000001</ele><time>2026-04-06T05:40:39.335Z</time></trkpt><trkpt lat="43.6575217" lon="10.8702333"><ele>56.0</ele><time>2026-04-06T05:40:40.332Z</time></trkpt><trkpt lat="43.6574567" lon="10.8702983"><ele>56.0</ele><time>2026-04-06T05:40:41.333Z</time></trkpt><trkpt lat="43.6573933" lon="10.870365"><ele>56.0</ele><time>2026-04-06T05:40:42.332Z</time></trkpt><trkpt lat="43.6573283" lon="10.87043"><ele>56.00000000000001</ele><time>2026-04-06T05:40:43.334Z</time></trkpt><trkpt lat="43.6572633" lon="10.870495"><ele>56.0</ele><time>2026-04-06T05:40:44.333Z</time></trkpt><trkpt lat="43.6571967" lon="10.870565"><ele>56.00000000000001</ele><time>2026-04-06T05:40:45.334Z</time></trkpt><trkpt lat="43.6571317" lon="10.870635"><ele>56.0</ele><time>2026-04-06T05:40:46.332Z</time></trkpt><trkpt lat="43.6570667" lon="10.870705"><ele>56.0</ele><time>2026-04-06T05:40:47.331Z</time></trkpt><trkpt lat="43.657" lon="10.8707767"><ele>56.0</ele><time>2026-04-06T05:40:48.333Z</time></trkpt><trkpt lat="43.6569383" lon="10.870845"><ele>56.00000000000001</ele><time>2026-04-06T05:40:49.333Z</time></trkpt><trkpt lat="43.6568733" lon="10.8709117"><ele>56.0</ele><time>2026-04-06T05:40:50.333Z</time></trkpt><trkpt lat="43.65681" lon="10.8709733"><ele>56.285714285714285</ele><time>2026-04-06T05:40:51.333Z</time></trkpt><trkpt lat="43.6567483" lon="10.8710283"><ele>56.57142857142857</ele><time>2026-04-06T05:40:52.332Z</time></trkpt><trkpt lat="43.6566867" lon="10.8710783"><ele>56.85714285714286</ele><time>2026-04-06T05:40:53.335Z</time></trkpt><trkpt lat="43.6566283" lon="10.871125"><ele>57.142857142857146</ele><time>2026-04-06T05:40:54.333Z</time></trkpt><trkpt lat="43.6565717" lon="10.87117"><ele>57.42857142857143</ele><time>2026-04-06T05:40:55.334Z</time></trkpt><trkpt lat="43.6565133" lon="10.8712133"><ele>57.71428571428572</ele><time>2026-04-06T05:40:56.334Z</time></trkpt><trkpt lat="43.656455" lon="10.8712567"><ele>58.00000000000001</ele><time>2026-04-06T05:40:57.333Z</time></trkpt><trkpt lat="43.6563967" lon="10.8712933"><ele>57.99999999999999</ele><time>2026-04-06T05:40:58.334Z</time></trkpt><trkpt lat="43.65628" lon="10.87133"><ele>58.0</ele><time>2026-04-06T05:41:00.332Z</time></trkpt><trkpt lat="43.6561617" lon="10.8712767"><ele>58.0</ele><time>2026-04-06T05:41:02.343Z</time></trkpt><trkpt lat="43.6561067" lon="10.871225"><ele>58.0</ele><time>2026-04-06T05:41:03.335Z</time></trkpt><trkpt lat="43.65605" lon="10.8711733"><ele>57.99999999999999</ele><time>2026-04-06T05:41:04.331Z</time></trkpt><trkpt lat="43.65599" lon="10.871125"><ele>58.0</ele><time>2026-04-06T05:41:05.341Z</time></trkpt><trkpt lat="43.6559317" lon="10.8710783"><ele>58.00000000000001</ele><time>2026-04-06T05:41:06.338Z</time></trkpt><trkpt lat="43.6558733" lon="10.8710283"><ele>58.0</ele><time>2026-04-06T05:41:07.334Z</time></trkpt><trkpt lat="43.6558167" lon="10.8709767"><ele>58.00000000000001</ele><time>2026-04-06T05:41:08.334Z</time></trkpt><trkpt lat="43.6557583" lon="10.8709267"><ele>58.00000000000001</ele><time>2026-04-06T05:41:09.332Z</time></trkpt><trkpt lat="43.6557" lon="10.8708783"><ele>58.0</ele><time>2026-04-06T05:41:10.337Z</time></trkpt><trkpt lat="43.6556417" lon="10.870835"><ele>58.00000000000001</ele><time>2026-04-06T05:41:11.336Z</time></trkpt><trkpt lat="43.6555833" lon="10.8707917"><ele>58.00000000000001</ele><time>2026-04-06T05:41:12.336Z</time></trkpt><trkpt lat="43.6555267" lon="10.87075"><ele>58.0</ele><time>2026-04-06T05:41:13.333Z</time></trkpt><trkpt lat="43.65542" lon="10.87067"><ele>58.0</ele><time>2026-04-06T05:41:15.337Z</time></trkpt><trkpt lat="43.6553233" lon="10.870595"><ele>58.0</ele><time>2026-04-06T05:41:17.336Z</time></trkpt><trkpt lat="43.6552317" lon="10.8705283"><ele>58.0</ele><time>2026-04-06T05:41:19.333Z</time></trkpt><trkpt lat="43.65515" lon="10.87043"><ele>58.0</ele><time>2026-04-06T05:41:21.337Z</time></trkpt><trkpt lat="43.6551183" lon="10.8702783"><ele>58.33333333333333</ele><time>2026-04-06T05:41:23.342Z</time></trkpt><trkpt lat="43.6551167" lon="10.87019"><ele>58.666666666666664</ele><time>2026-04-06T05:41:24.337Z</time></trkpt><trkpt lat="43.6551133" lon="10.8700967"><ele>59.0</ele><time>2026-04-06T05:41:25.332Z</time></trkpt><trkpt lat="43.6551117" lon="10.870005"><ele>59.33333333333333</ele><time>2026-04-06T05:41:26.336Z</time></trkpt><trkpt lat="43.6551117" lon="10.8699167"><ele>59.666666666666664</ele><time>2026-04-06T05:41:27.333Z</time></trkpt><trkpt lat="43.6551033" lon="10.869755"><ele>60.0</ele><time>2026-04-06T05:41:29.332Z</time></trkpt><trkpt lat="43.6550917" lon="10.8696"><ele>60.0</ele><time>2026-04-06T05:41:31.335Z</time></trkpt><trkpt lat="43.6550817" lon="10.86944"><ele>60.0</ele><time>2026-04-06T05:41:33.34Z</time></trkpt><trkpt lat="43.655075" lon="10.8692833"><ele>60.0</ele><time>2026-04-06T05:41:35.332Z</time></trkpt><trkpt lat="43.65507" lon="10.8691283"><ele>60.0</ele><time>2026-04-06T05:41:37.337Z</time></trkpt><trkpt lat="43.6550567" lon="10.868965"><ele>60.25</ele><time>2026-04-06T05:41:39.335Z</time></trkpt><trkpt lat="43.6550483" lon="10.8688067"><ele>60.5</ele><time>2026-04-06T05:41:41.333Z</time></trkpt><trkpt lat="43.6550383" lon="10.8686433"><ele>60.75</ele><time>2026-04-06T05:41:43.334Z</time></trkpt><trkpt lat="43.655025" lon="10.86848"><ele>61.0</ele><time>2026-04-06T05:41:45.332Z</time></trkpt><trkpt lat="43.6550033" lon="10.8683133"><ele>62.4</ele><time>2026-04-06T05:41:47.336Z</time></trkpt><trkpt lat="43.6549817" lon="10.86823"><ele>63.8</ele><time>2026-04-06T05:41:48.341Z</time></trkpt><trkpt lat="43.6549217" lon="10.868085"><ele>65.19999999999999</ele><time>2026-04-06T05:41:50.334Z</time></trkpt><trkpt lat="43.654835" lon="10.8679617"><ele>66.6</ele><time>2026-04-06T05:41:52.338Z</time></trkpt><trkpt lat="43.6547433" lon="10.8678583"><ele>68.0</ele><time>2026-04-06T05:41:54.334Z</time></trkpt><trkpt lat="43.6546783" lon="10.8677567"><ele>68.0</ele><time>2026-04-06T05:41:56.334Z</time></trkpt><trkpt lat="43.654675" lon="10.8676417"><ele>68.0</ele><time>2026-04-06T05:41:58.333Z</time></trkpt><trkpt lat="43.65474" lon="10.86759"><ele>68.0</ele><time>2026-04-06T05:42:00.335Z</time></trkpt><trkpt lat="43.6548133" lon="10.867615"><ele>68.0</ele><time>2026-04-06T05:42:02.335Z</time></trkpt><trkpt lat="43.6548983" lon="10.86764"><ele>68.0</ele><time>2026-04-06T05:42:04.335Z</time></trkpt><trkpt lat="43.654995" lon="10.8676467"><ele>68.0</ele><time>2026-04-06T05:42:06.334Z</time></trkpt><trkpt lat="43.6551083" lon="10.8676517"><ele>68.0</ele><time>2026-04-06T05:42:08.338Z</time></trkpt><trkpt lat="43.6552233" lon="10.867655"><ele>68.0</ele><time>2026-04-06T05:42:10.335Z</time></trkpt><trkpt lat="43.65534" lon="10.8676583"><ele>68.0</ele><time>2026-04-06T05:42:12.34Z</time></trkpt><trkpt lat="43.6554583" lon="10.86767"><ele>68.0</ele><time>2026-04-06T05:42:14.334Z</time></trkpt><trkpt lat="43.6555767" lon="10.8676733"><ele>68.5</ele><time>2026-04-06T05:42:16.333Z</time></trkpt><trkpt lat="43.6556983" lon="10.8676833"><ele>69.0</ele><time>2026-04-06T05:42:18.338Z</time></trkpt><trkpt lat="43.6558183" lon="10.867705"><ele>69.5</ele><time>2026-04-06T05:42:20.339Z</time></trkpt><trkpt lat="43.6559267" lon="10.867685"><ele>70.0</ele><time>2026-04-06T05:42:22.338Z</time></trkpt><trkpt lat="43.6560167" lon="10.8675833"><ele>73.0</ele><time>2026-04-06T05:42:24.339Z</time></trkpt><trkpt lat="43.6560333" lon="10.8674167"><ele>76.0</ele><time>2026-04-06T05:42:26.338Z</time></trkpt><trkpt lat="43.656015" lon="10.8673333"><ele>79.0</ele><time>2026-04-06T05:42:27.333Z</time></trkpt><trkpt lat="43.6559867" lon="10.8672533"><ele>82.0</ele><time>2026-04-06T05:42:28.335Z</time></trkpt><trkpt lat="43.6559467" lon="10.8671017"><ele>85.0</ele><time>2026-04-06T05:42:30.336Z</time></trkpt><trkpt lat="43.6558967" lon="10.8669533"><ele>85.0</ele><time>2026-04-06T05:42:32.339Z</time></trkpt><trkpt lat="43.6558517" lon="10.8668033"><ele>85.0</ele><time>2026-04-06T05:42:34.335Z</time></trkpt><trkpt lat="43.6558133" lon="10.8666583"><ele>85.0</ele><time>2026-04-06T05:42:36.335Z</time></trkpt><trkpt lat="43.6557733" lon="10.866525"><ele>85.0</ele><time>2026-04-06T05:42:38.338Z</time></trkpt><trkpt lat="43.6557333" lon="10.8663917"><ele>85.0</ele><time>2026-04-06T05:42:40.335Z</time></trkpt><trkpt lat="43.6557183" lon="10.8662667"><ele>87.0</ele><time>2026-04-06T05:42:42.338Z</time></trkpt><trkpt lat="43.6557233" lon="10.8661467"><ele>89.0</ele><time>2026-04-06T05:42:44.337Z</time></trkpt><trkpt lat="43.65575" lon="10.8660333"><ele>91.0</ele><time>2026-04-06T05:42:46.337Z</time></trkpt><trkpt lat="43.655795" lon="10.8659333"><ele>93.0</ele><time>2026-04-06T05:42:48.337Z</time></trkpt><trkpt lat="43.6558683" lon="10.86585"><ele>95.00000000000001</ele><time>2026-04-06T05:42:50.334Z</time></trkpt><trkpt lat="43.6559483" lon="10.865785"><ele>97.0</ele><time>2026-04-06T05:42:52.334Z</time></trkpt><trkpt lat="43.656025" lon="10.8657117"><ele>97.00000000000001</ele><time>2026-04-06T05:42:54.336Z</time></trkpt><trkpt lat="43.6560917" lon="10.8656183"><ele>97.0</ele><time>2026-04-06T05:42:56.338Z</time></trkpt><trkpt lat="43.656125" lon="10.8655133"><ele>97.0</ele><time>2026-04-06T05:42:58.338Z</time></trkpt><trkpt lat="43.6561117" lon="10.8654133"><ele>97.0</ele><time>2026-04-06T05:43:00.334Z</time></trkpt><trkpt lat="43.6560583" lon="10.865365"><ele>97.00000000000001</ele><time>2026-04-06T05:43:02.337Z</time></trkpt><trkpt lat="43.6559683" lon="10.8654217"><ele>97.0</ele><time>2026-04-06T05:43:04.335Z</time></trkpt><trkpt lat="43.6558633" lon="10.8654967"><ele>101.0</ele><time>2026-04-06T05:43:06.334Z</time></trkpt><trkpt lat="43.65574" lon="10.865495"><ele>105.0</ele><time>2026-04-06T05:43:08.334Z</time></trkpt><trkpt lat="43.6556233" lon="10.8654967"><ele>109.0</ele><time>2026-04-06T05:43:10.333Z</time></trkpt><trkpt lat="43.6555083" lon="10.8654983"><ele>113.0</ele><time>2026-04-06T05:43:12.337Z</time></trkpt><trkpt lat="43.6553933" lon="10.865495"><ele>113.5</ele><time>2026-04-06T05:43:14.336Z</time></trkpt><trkpt lat="43.6552817" lon="10.8655"><ele>114.0</ele><time>2026-04-06T05:43:16.334Z</time></trkpt><trkpt lat="43.655165" lon="10.8654867"><ele>114.5</ele><time>2026-04-06T05:43:18.334Z</time></trkpt><trkpt lat="43.6550533" lon="10.8654567"><ele>115.0</ele><time>2026-04-06T05:43:20.334Z</time></trkpt><trkpt lat="43.6549467" lon="10.8654067"><ele>115.0</ele><time>2026-04-06T05:43:22.333Z</time></trkpt><trkpt lat="43.6548417" lon="10.8653433"><ele>115.0</ele><time>2026-04-06T05:43:24.336Z</time></trkpt><trkpt lat="43.654745" lon="10.8652633"><ele>115.0</ele><time>2026-04-06T05:43:26.339Z</time></trkpt><trkpt lat="43.65465" lon="10.865185"><ele>115.0</ele><time>2026-04-06T05:43:28.342Z</time></trkpt><trkpt lat="43.6545567" lon="10.8650983"><ele>119.25</ele><time>2026-04-06T05:43:30.337Z</time></trkpt><trkpt lat="43.6544633" lon="10.8650067"><ele>123.5</ele><time>2026-04-06T05:43:32.334Z</time></trkpt><trkpt lat="43.654375" lon="10.8649017"><ele>127.75</ele><time>2026-04-06T05:43:34.333Z</time></trkpt><trkpt lat="43.6542933" lon="10.8647917"><ele>132.0</ele><time>2026-04-06T05:43:36.334Z</time></trkpt><trkpt lat="43.654215" lon="10.8646833"><ele>132.0</ele><time>2026-04-06T05:43:38.344Z</time></trkpt><trkpt lat="43.6541417" lon="10.86457"><ele>132.0</ele><time>2026-04-06T05:43:40.34Z</time></trkpt><trkpt lat="43.65408" lon="10.86446"><ele>132.0</ele><time>2026-04-06T05:43:42.333Z</time></trkpt><trkpt lat="43.6540167" lon="10.8643667"><ele>132.0</ele><time>2026-04-06T05:43:44.341Z</time></trkpt><trkpt lat="43.6539433" lon="10.864295"><ele>132.0</ele><time>2026-04-06T05:43:46.335Z</time></trkpt><trkpt lat="43.65386" lon="10.8642367"><ele>133.16666666666666</ele><time>2026-04-06T05:43:48.335Z</time></trkpt><trkpt lat="43.6537767" lon="10.864185"><ele>134.33333333333334</ele><time>2026-04-06T05:43:50.342Z</time></trkpt><trkpt lat="43.6536983" lon="10.864145"><ele>135.5</ele><time>2026-04-06T05:43:52.341Z</time></trkpt><trkpt lat="43.6536117" lon="10.8641217"><ele>136.66666666666669</ele><time>2026-04-06T05:43:54.335Z</time></trkpt><trkpt lat="43.6535317" lon="10.8640967"><ele>137.83333333333334</ele><time>2026-04-06T05:43:56.333Z</time></trkpt><trkpt lat="43.6534633" lon="10.8640867"><ele>139.0</ele><time>2026-04-06T05:43:58.341Z</time></trkpt><trkpt lat="43.6534033" lon="10.8641217"><ele>139.6</ele><time>2026-04-06T05:44:00.334Z</time></trkpt><trkpt lat="43.6533333" lon="10.8641833"><ele>140.2</ele><time>2026-04-06T05:44:02.334Z</time></trkpt><trkpt lat="43.6532483" lon="10.8642283"><ele>140.79999999999998</ele><time>2026-04-06T05:44:04.334Z</time></trkpt><trkpt lat="43.6531467" lon="10.864225"><ele>141.4</ele><time>2026-04-06T05:44:06.334Z</time></trkpt><trkpt lat="43.6530417" lon="10.8641967"><ele>142.0</ele><time>2026-04-06T05:44:08.338Z</time></trkpt><trkpt lat="43.6529367" lon="10.8641667"><ele>142.0</ele><time>2026-04-06T05:44:10.333Z</time></trkpt><trkpt lat="43.6528367" lon="10.8641433"><ele>142.0</ele><time>2026-04-06T05:44:12.337Z</time></trkpt><trkpt lat="43.65273" lon="10.86412"><ele>142.0</ele><time>2026-04-06T05:44:14.334Z</time></trkpt><trkpt lat="43.65263" lon="10.8640883"><ele>142.0</ele><time>2026-04-06T05:44:16.333Z</time></trkpt><trkpt lat="43.6525283" lon="10.8640517"><ele>142.0</ele><time>2026-04-06T05:44:18.335Z</time></trkpt><trkpt lat="43.65243" lon="10.864015"><ele>142.5</ele><time>2026-04-06T05:44:20.334Z</time></trkpt><trkpt lat="43.652355" lon="10.863965"><ele>143.0</ele><time>2026-04-06T05:44:22.334Z</time></trkpt><trkpt lat="43.65227" lon="10.8639267"><ele>143.5</ele><time>2026-04-06T05:44:24.334Z</time></trkpt><trkpt lat="43.6521867" lon="10.8638967"><ele>144.0</ele><time>2026-04-06T05:44:26.337Z</time></trkpt><trkpt lat="43.6521117" lon="10.86387"><ele>144.5</ele><time>2026-04-06T05:44:28.334Z</time></trkpt><trkpt lat="43.6520417" lon="10.863835"><ele>145.0</ele><time>2026-04-06T05:44:30.334Z</time></trkpt><trkpt lat="43.6519533" lon="10.86379"><ele>144.4</ele><time>2026-04-06T05:44:32.334Z</time></trkpt><trkpt lat="43.65187" lon="10.8637317"><ele>143.8</ele><time>2026-04-06T05:44:34.334Z</time></trkpt><trkpt lat="43.6517717" lon="10.863665"><ele>143.2</ele><time>2026-04-06T05:44:36.333Z</time></trkpt><trkpt lat="43.6516917" lon="10.8635583"><ele>142.6</ele><time>2026-04-06T05:44:38.336Z</time></trkpt><trkpt lat="43.6516117" lon="10.863445"><ele>142.0</ele><time>2026-04-06T05:44:40.333Z</time></trkpt><trkpt lat="43.6515667" lon="10.86338"><ele>142.0</ele><time>2026-04-06T05:44:41.334Z</time></trkpt><trkpt lat="43.6514817" lon="10.8632483"><ele>142.0</ele><time>2026-04-06T05:44:43.332Z</time></trkpt><trkpt lat="43.6514383" lon="10.863175"><ele>142.0</ele><time>2026-04-06T05:44:44.335Z</time></trkpt><trkpt lat="43.65139" lon="10.8631033"><ele>142.0</ele><time>2026-04-06T05:44:45.333Z</time></trkpt><trkpt lat="43.6513367" lon="10.8630317"><ele>142.0</ele><time>2026-04-06T05:44:46.333Z</time></trkpt><trkpt lat="43.651285" lon="10.86296"><ele>142.0</ele><time>2026-04-06T05:44:47.333Z</time></trkpt><trkpt lat="43.6512333" lon="10.862885"><ele>142.0</ele><time>2026-04-06T05:44:48.333Z</time></trkpt><trkpt lat="43.6511917" lon="10.8628183"><ele>142.0</ele><time>2026-04-06T05:44:49.334Z</time></trkpt><trkpt lat="43.6511383" lon="10.8627017"><ele>142.0</ele><time>2026-04-06T05:44:51.334Z</time></trkpt><trkpt lat="43.6510733" lon="10.862635"><ele>142.0</ele><time>2026-04-06T05:44:53.334Z</time></trkpt><trkpt lat="43.6510117" lon="10.8625683"><ele>142.0</ele><time>2026-04-06T05:44:55.334Z</time></trkpt><trkpt lat="43.6509483" lon="10.8624867"><ele>142.0</ele><time>2026-04-06T05:44:57.333Z</time></trkpt><trkpt lat="43.65088" lon="10.8624083"><ele>141.79999999999998</ele><time>2026-04-06T05:44:59.334Z</time></trkpt><trkpt lat="43.6508117" lon="10.8623217"><ele>141.6</ele><time>2026-04-06T05:45:01.333Z</time></trkpt><trkpt lat="43.6507367" lon="10.862235"><ele>141.39999999999998</ele><time>2026-04-06T05:45:03.335Z</time></trkpt><trkpt lat="43.6506567" lon="10.86215"><ele>141.2</ele><time>2026-04-06T05:45:05.334Z</time></trkpt><trkpt lat="43.6505883" lon="10.8620683"><ele>141.0</ele><time>2026-04-06T05:45:07.338Z</time></trkpt><trkpt lat="43.6505283" lon="10.862015"><ele>141.0</ele><time>2026-04-06T05:45:09.335Z</time></trkpt><trkpt lat="43.6504367" lon="10.86195"><ele>141.0</ele><time>2026-04-06T05:45:19.334Z</time></trkpt><trkpt lat="43.6503483" lon="10.8618917"><ele>141.0</ele><time>2026-04-06T05:45:22.335Z</time></trkpt><trkpt lat="43.6502783" lon="10.86184"><ele>141.0</ele><time>2026-04-06T05:45:24.334Z</time></trkpt><trkpt lat="43.6502117" lon="10.86178"><ele>141.0</ele><time>2026-04-06T05:45:26.336Z</time></trkpt><trkpt lat="43.6501417" lon="10.86172"><ele>141.0</ele><time>2026-04-06T05:45:28.333Z</time></trkpt><trkpt lat="43.6500767" lon="10.8616533"><ele>141.66666666666666</ele><time>2026-04-06T05:45:30.334Z</time></trkpt><trkpt lat="43.6500067" lon="10.861595"><ele>142.33333333333334</ele><time>2026-04-06T05:45:32.334Z</time></trkpt><trkpt lat="43.64993" lon="10.8615433"><ele>143.0</ele><time>2026-04-06T05:45:34.332Z</time></trkpt><trkpt lat="43.6498533" lon="10.86149"><ele>143.66666666666669</ele><time>2026-04-06T05:45:36.334Z</time></trkpt><trkpt lat="43.6497767" lon="10.86143"><ele>144.33333333333334</ele><time>2026-04-06T05:45:38.345Z</time></trkpt><trkpt lat="43.6497017" lon="10.8613717"><ele>145.0</ele><time>2026-04-06T05:45:40.335Z</time></trkpt><trkpt lat="43.6496333" lon="10.86131"><ele>145.0</ele><time>2026-04-06T05:45:42.333Z</time></trkpt><trkpt lat="43.6495817" lon="10.8612367"><ele>145.0</ele><time>2026-04-06T05:45:44.334Z</time></trkpt><trkpt lat="43.6495367" lon="10.8611717"><ele>145.0</ele><time>2026-04-06T05:45:46.334Z</time></trkpt><trkpt lat="43.649475" lon="10.8610933"><ele>145.0</ele><time>2026-04-06T05:45:49.343Z</time></trkpt><trkpt lat="43.64939" lon="10.8610567"><ele>145.0</ele><time>2026-04-06T05:46:01.334Z</time></trkpt><trkpt lat="43.6493" lon="10.8610117"><ele>145.0</ele><time>2026-04-06T05:46:04.332Z</time></trkpt><trkpt lat="43.64923" lon="10.86096"><ele>147.66666666666669</ele><time>2026-04-06T05:46:08.34Z</time></trkpt><trkpt lat="43.6491667" lon="10.8609467"><ele>150.33333333333334</ele><time>2026-04-06T05:46:11.346Z</time></trkpt><trkpt lat="43.6490517" lon="10.8609233"><ele>153.0</ele><time>2026-04-06T05:46:20.341Z</time></trkpt><trkpt lat="43.648995" lon="10.860885"><ele>155.66666666666666</ele><time>2026-04-06T05:46:23.337Z</time></trkpt><trkpt lat="43.6489467" lon="10.8608183"><ele>158.33333333333331</ele><time>2026-04-06T05:46:26.335Z</time></trkpt><trkpt lat="43.6488442" lon="10.8607448"><ele>161.0</ele><time>2026-04-06T05:46:33.35Z</time></trkpt><trkpt lat="43.6487779" lon="10.8606537"><ele>161.0</ele><time>2026-04-06T05:46:36.385Z</time></trkpt><trkpt lat="43.6487175" lon="10.8605926"><ele>161.0</ele><time>2026-04-06T05:46:38.361Z</time></trkpt><trkpt lat="43.6486436" lon="10.8605331"><ele>161.0</ele><time>2026-04-06T05:46:41.369Z</time></trkpt><trkpt lat="43.6485913" lon="10.8604683"><ele>161.0</ele><time>2026-04-06T05:46:45.334Z</time></trkpt><trkpt lat="43.6486396" lon="10.8603803"><ele>161.0</ele><time>2026-04-06T05:46:50.348Z</time></trkpt><trkpt lat="43.64869" lon="10.8603021"><ele>161.0</ele><time>2026-04-06T05:46:53.467Z</time></trkpt><trkpt lat="43.6486059" lon="10.8603252"><ele>161.33333333333331</ele><time>2026-04-06T05:47:50.363Z</time></trkpt><trkpt lat="43.6485307" lon="10.8604505"><ele>161.66666666666666</ele><time>2026-04-06T05:49:43.403Z</time></trkpt><trkpt lat="43.6484832" lon="10.8605188"><ele>162.0</ele><time>2026-04-06T05:49:46.396Z</time></trkpt><trkpt lat="43.6484398" lon="10.8605845"><ele>162.33333333333334</ele><time>2026-04-06T05:49:48.338Z</time></trkpt><trkpt lat="43.6484124" lon="10.8606673"><ele>162.66666666666669</ele><time>2026-04-06T05:50:05.369Z</time></trkpt><trkpt lat="43.6483688" lon="10.8607535"><ele>163.0</ele><time>2026-04-06T05:50:09.37Z</time></trkpt><trkpt lat="43.6483027" lon="10.860841"><ele>163.0</ele><time>2026-04-06T05:52:43.333Z</time></trkpt><trkpt lat="43.6482633" lon="10.8609121"><ele>163.0</ele><time>2026-04-06T05:52:47.386Z</time></trkpt><trkpt lat="43.6482313" lon="10.8609951"><ele>163.0</ele><time>2026-04-06T05:52:52.429Z</time></trkpt><trkpt lat="43.6481733" lon="10.8610667"><ele>163.0</ele><time>2026-04-06T05:53:03.334Z</time></trkpt><trkpt lat="43.6481361" lon="10.8611396"><ele>163.0</ele><time>2026-04-06T05:53:08.375Z</time></trkpt><trkpt lat="43.6481051" lon="10.8612229"><ele>163.0</ele><time>2026-04-06T05:53:12.361Z</time></trkpt><trkpt lat="43.6480619" lon="10.8612938"><ele>163.0</ele><time>2026-04-06T05:53:17.418Z</time></trkpt><trkpt lat="43.6480167" lon="10.861365"><ele>162.71428571428572</ele><time>2026-04-06T05:53:23.333Z</time></trkpt><trkpt lat="43.6479667" lon="10.8614433"><ele>162.42857142857142</ele><time>2026-04-06T05:53:29.336Z</time></trkpt><trkpt lat="43.6479267" lon="10.86152"><ele>162.14285714285714</ele><time>2026-04-06T05:53:34.333Z</time></trkpt><trkpt lat="43.64789" lon="10.8615917"><ele>161.85714285714286</ele><time>2026-04-06T05:53:39.335Z</time></trkpt><trkpt lat="43.64784" lon="10.8616717"><ele>161.57142857142856</ele><time>2026-04-06T05:53:46.337Z</time></trkpt><trkpt lat="43.6478083" lon="10.86176"><ele>161.28571428571428</ele><time>2026-04-06T05:53:52.336Z</time></trkpt><trkpt lat="43.6477767" lon="10.8618417"><ele>161.0</ele><time>2026-04-06T05:53:57.333Z</time></trkpt><trkpt lat="43.6477317" lon="10.8619167"><ele>161.0</ele><time>2026-04-06T05:54:04.344Z</time></trkpt><trkpt lat="43.6476817" lon="10.8620017"><ele>161.0</ele><time>2026-04-06T06:06:37.336Z</time></trkpt><trkpt lat="43.6476183" lon="10.8620767"><ele>161.0</ele><time>2026-04-06T06:06:40.335Z</time></trkpt><trkpt lat="43.6475567" lon="10.8621233"><ele>161.0</ele><time>2026-04-06T06:06:42.334Z</time></trkpt><trkpt lat="43.6474983" lon="10.8622083"><ele>161.0</ele><time>2026-04-06T06:06:44.337Z</time></trkpt><trkpt lat="43.6474367" lon="10.8623"><ele>161.0</ele><time>2026-04-06T06:06:46.337Z</time></trkpt><trkpt lat="43.6473633" lon="10.8623817"><ele>161.0</ele><time>2026-04-06T06:06:48.333Z</time></trkpt><trkpt lat="43.6472867" lon="10.8624633"><ele>161.0</ele><time>2026-04-06T06:06:50.333Z</time></trkpt><trkpt lat="43.6472" lon="10.862535"><ele>161.0</ele><time>2026-04-06T06:06:52.336Z</time></trkpt><trkpt lat="43.64711" lon="10.862585"><ele>161.0</ele><time>2026-04-06T06:06:54.334Z</time></trkpt><trkpt lat="43.6470133" lon="10.8626067"><ele>161.0</ele><time>2026-04-06T06:06:56.335Z</time></trkpt><trkpt lat="43.646905" lon="10.8626117"><ele>161.16666666666666</ele><time>2026-04-06T06:06:58.334Z</time></trkpt><trkpt lat="43.646785" lon="10.8626"><ele>161.33333333333331</ele><time>2026-04-06T06:07:00.332Z</time></trkpt><trkpt lat="43.6467217" lon="10.8625917"><ele>161.5</ele><time>2026-04-06T06:07:01.336Z</time></trkpt><trkpt lat="43.6466583" lon="10.8625767"><ele>161.66666666666666</ele><time>2026-04-06T06:07:02.338Z</time></trkpt><trkpt lat="43.646595" lon="10.8625533"><ele>161.83333333333334</ele><time>2026-04-06T06:07:03.334Z</time></trkpt><trkpt lat="43.64653" lon="10.86252"><ele>162.0</ele><time>2026-04-06T06:07:04.338Z</time></trkpt><trkpt lat="43.646465" lon="10.862485"><ele>162.0</ele><time>2026-04-06T06:07:05.334Z</time></trkpt><trkpt lat="43.6463967" lon="10.8624467"><ele>162.0</ele><time>2026-04-06T06:07:06.334Z</time></trkpt><trkpt lat="43.64633" lon="10.86241"><ele>162.0</ele><time>2026-04-06T06:07:07.333Z</time></trkpt><trkpt lat="43.64626" lon="10.862375"><ele>162.0</ele><time>2026-04-06T06:07:08.342Z</time></trkpt><trkpt lat="43.6461917" lon="10.8623417"><ele>162.0</ele><time>2026-04-06T06:07:09.335Z</time></trkpt><trkpt lat="43.64612" lon="10.862315"><ele>162.0</ele><time>2026-04-06T06:07:10.338Z</time></trkpt><trkpt lat="43.6460467" lon="10.8622967"><ele>162.0</ele><time>2026-04-06T06:07:11.338Z</time></trkpt><trkpt lat="43.645975" lon="10.8622867"><ele>160.57142857142858</ele><time>2026-04-06T06:07:12.338Z</time></trkpt><trkpt lat="43.6459017" lon="10.8622883"><ele>159.14285714285714</ele><time>2026-04-06T06:07:13.335Z</time></trkpt><trkpt lat="43.6458283" lon="10.8623017"><ele>157.71428571428572</ele><time>2026-04-06T06:07:14.333Z</time></trkpt><trkpt lat="43.6457583" lon="10.8623233"><ele>156.28571428571428</ele><time>2026-04-06T06:07:15.333Z</time></trkpt><trkpt lat="43.645685" lon="10.8623483"><ele>154.85714285714286</ele><time>2026-04-06T06:07:16.336Z</time></trkpt><trkpt lat="43.6456117" lon="10.8623733"><ele>153.42857142857142</ele><time>2026-04-06T06:07:17.333Z</time></trkpt><trkpt lat="43.6455433" lon="10.8624067"><ele>152.0</ele><time>2026-04-06T06:07:18.335Z</time></trkpt><trkpt lat="43.64547" lon="10.862435"><ele>152.0</ele><time>2026-04-06T06:07:19.334Z</time></trkpt><trkpt lat="43.6453967" lon="10.8624583"><ele>152.0</ele><time>2026-04-06T06:07:20.336Z</time></trkpt><trkpt lat="43.6453217" lon="10.8624733"><ele>152.0</ele><time>2026-04-06T06:07:21.335Z</time></trkpt><trkpt lat="43.6452483" lon="10.8624867"><ele>152.0</ele><time>2026-04-06T06:07:22.336Z</time></trkpt><trkpt lat="43.6451817" lon="10.862505"><ele>152.0</ele><time>2026-04-06T06:07:23.334Z</time></trkpt><trkpt lat="43.6451133" lon="10.8625383"><ele>152.0</ele><time>2026-04-06T06:07:24.332Z</time></trkpt><trkpt lat="43.645055" lon="10.8625883"><ele>152.0</ele><time>2026-04-06T06:07:25.333Z</time></trkpt><trkpt lat="43.6449983" lon="10.8626433"><ele>151.0</ele><time>2026-04-06T06:07:26.333Z</time></trkpt><trkpt lat="43.6449433" lon="10.8627067"><ele>150.0</ele><time>2026-04-06T06:07:27.334Z</time></trkpt><trkpt lat="43.6448933" lon="10.862775"><ele>149.0</ele><time>2026-04-06T06:07:28.336Z</time></trkpt><trkpt lat="43.64485" lon="10.8628483"><ele>148.0</ele><time>2026-04-06T06:07:29.337Z</time></trkpt><trkpt lat="43.64481" lon="10.8629233"><ele>147.0</ele><time>2026-04-06T06:07:30.334Z</time></trkpt><trkpt lat="43.64477" lon="10.8629967"><ele>146.0</ele><time>2026-04-06T06:07:31.339Z</time></trkpt><trkpt lat="43.6447283" lon="10.8630733"><ele>145.0</ele><time>2026-04-06T06:07:32.334Z</time></trkpt><trkpt lat="43.6446817" lon="10.8631467"><ele>145.0</ele><time>2026-04-06T06:07:33.334Z</time></trkpt><trkpt lat="43.6446317" lon="10.863215"><ele>145.0</ele><time>2026-04-06T06:07:34.333Z</time></trkpt><trkpt lat="43.6445717" lon="10.863275"><ele>145.0</ele><time>2026-04-06T06:07:35.336Z</time></trkpt><trkpt lat="43.6445083" lon="10.8633283"><ele>145.0</ele><time>2026-04-06T06:07:36.333Z</time></trkpt><trkpt lat="43.6444383" lon="10.86338"><ele>145.0</ele><time>2026-04-06T06:07:37.332Z</time></trkpt><trkpt lat="43.6443667" lon="10.8634217"><ele>145.0</ele><time>2026-04-06T06:07:38.335Z</time></trkpt><trkpt lat="43.6442917" lon="10.86345"><ele>146.0</ele><time>2026-04-06T06:07:39.342Z</time></trkpt><trkpt lat="43.644215" lon="10.8634683"><ele>147.0</ele><time>2026-04-06T06:07:40.334Z</time></trkpt><trkpt lat="43.64413" lon="10.8634883"><ele>148.0</ele><time>2026-04-06T06:07:41.332Z</time></trkpt><trkpt lat="43.6440433" lon="10.86351"><ele>149.0</ele><time>2026-04-06T06:07:42.332Z</time></trkpt><trkpt lat="43.6439583" lon="10.8635317"><ele>150.0</ele><time>2026-04-06T06:07:43.331Z</time></trkpt><trkpt lat="43.643875" lon="10.863555"><ele>151.0</ele><time>2026-04-06T06:07:44.333Z</time></trkpt><trkpt lat="43.6437917" lon="10.86358"><ele>151.0</ele><time>2026-04-06T06:07:45.333Z</time></trkpt><trkpt lat="43.64371" lon="10.86361"><ele>151.0</ele><time>2026-04-06T06:07:46.332Z</time></trkpt><trkpt lat="43.643635" lon="10.8636467"><ele>151.0</ele><time>2026-04-06T06:07:47.332Z</time></trkpt><trkpt lat="43.6435667" lon="10.8637033"><ele>151.0</ele><time>2026-04-06T06:07:48.333Z</time></trkpt><trkpt lat="43.6435067" lon="10.863775"><ele>151.0</ele><time>2026-04-06T06:07:49.338Z</time></trkpt><trkpt lat="43.6434483" lon="10.8638533"><ele>151.0</ele><time>2026-04-06T06:07:50.333Z</time></trkpt><trkpt lat="43.64339" lon="10.8639317"><ele>151.5</ele><time>2026-04-06T06:07:51.333Z</time></trkpt><trkpt lat="43.6433317" lon="10.8640083"><ele>152.0</ele><time>2026-04-06T06:07:52.333Z</time></trkpt><trkpt lat="43.6432733" lon="10.86409"><ele>152.5</ele><time>2026-04-06T06:07:53.336Z</time></trkpt><trkpt lat="43.643215" lon="10.8641683"><ele>153.0</ele><time>2026-04-06T06:07:54.334Z</time></trkpt><trkpt lat="43.6431583" lon="10.8642483"><ele>153.5</ele><time>2026-04-06T06:07:55.332Z</time></trkpt><trkpt lat="43.643105" lon="10.864325"><ele>154.0</ele><time>2026-04-06T06:07:56.333Z</time></trkpt><trkpt lat="43.6430467" lon="10.8644033"><ele>154.5</ele><time>2026-04-06T06:07:57.333Z</time></trkpt><trkpt lat="43.642985" lon="10.86449"><ele>155.0</ele><time>2026-04-06T06:07:58.333Z</time></trkpt><trkpt lat="43.6429217" lon="10.8645783"><ele>155.5</ele><time>2026-04-06T06:07:59.339Z</time></trkpt><trkpt lat="43.642855" lon="10.8646683"><ele>156.0</ele><time>2026-04-06T06:08:00.333Z</time></trkpt><trkpt lat="43.642795" lon="10.86476"><ele>156.5</ele><time>2026-04-06T06:08:01.333Z</time></trkpt><trkpt lat="43.642735" lon="10.8648483"><ele>157.0</ele><time>2026-04-06T06:08:02.333Z</time></trkpt><trkpt lat="43.6426717" lon="10.8649367"><ele>157.0</ele><time>2026-04-06T06:08:03.338Z</time></trkpt><trkpt lat="43.6426167" lon="10.8650267"><ele>157.0</ele><time>2026-04-06T06:08:04.332Z</time></trkpt><trkpt lat="43.642555" lon="10.8651167"><ele>157.0</ele><time>2026-04-06T06:08:05.339Z</time></trkpt><trkpt lat="43.6424967" lon="10.8652083"><ele>157.0</ele><time>2026-04-06T06:08:06.333Z</time></trkpt><trkpt lat="43.64244" lon="10.8653"><ele>157.0</ele><time>2026-04-06T06:08:07.337Z</time></trkpt><trkpt lat="43.642375" lon="10.8653883"><ele>157.0</ele><time>2026-04-06T06:08:08.332Z</time></trkpt><trkpt lat="43.6423067" lon="10.86547"><ele>157.33333333333334</ele><time>2026-04-06T06:08:09.332Z</time></trkpt><trkpt lat="43.6422333" lon="10.8655417"><ele>157.66666666666669</ele><time>2026-04-06T06:08:10.333Z</time></trkpt><trkpt lat="43.6421567" lon="10.8655983"><ele>158.0</ele><time>2026-04-06T06:08:11.333Z</time></trkpt><trkpt lat="43.642075" lon="10.8656533"><ele>158.33333333333334</ele><time>2026-04-06T06:08:12.341Z</time></trkpt><trkpt lat="43.641995" lon="10.865705"><ele>158.66666666666666</ele><time>2026-04-06T06:08:13.331Z</time></trkpt><trkpt lat="43.641915" lon="10.8657567"><ele>159.0</ele><time>2026-04-06T06:08:14.332Z</time></trkpt><trkpt lat="43.641835" lon="10.8658117"><ele>159.66666666666666</ele><time>2026-04-06T06:08:15.332Z</time></trkpt><trkpt lat="43.6417583" lon="10.865865"><ele>160.33333333333334</ele><time>2026-04-06T06:08:16.332Z</time></trkpt><trkpt lat="43.6416883" lon="10.8659317"><ele>161.0</ele><time>2026-04-06T06:08:17.333Z</time></trkpt><trkpt lat="43.6416267" lon="10.8660167"><ele>161.66666666666669</ele><time>2026-04-06T06:08:18.335Z</time></trkpt><trkpt lat="43.6415833" lon="10.8661083"><ele>162.33333333333334</ele><time>2026-04-06T06:08:19.335Z</time></trkpt><trkpt lat="43.6415483" lon="10.866195"><ele>163.0</ele><time>2026-04-06T06:08:20.334Z</time></trkpt><trkpt lat="43.6415117" lon="10.8663083"><ele>163.33333333333334</ele><time>2026-04-06T06:08:22.332Z</time></trkpt><trkpt lat="43.6414517" lon="10.8663433"><ele>163.66666666666669</ele><time>2026-04-06T06:08:38.333Z</time></trkpt><trkpt lat="43.64138" lon="10.8664167"><ele>164.0</ele><time>2026-04-06T06:08:41.332Z</time></trkpt><trkpt lat="43.641325" lon="10.86648"><ele>164.33333333333334</ele><time>2026-04-06T06:08:43.333Z</time></trkpt><trkpt lat="43.6412533" lon="10.8665367"><ele>164.66666666666666</ele><time>2026-04-06T06:08:45.337Z</time></trkpt><trkpt lat="43.6411767" lon="10.8666133"><ele>165.0</ele><time>2026-04-06T06:08:47.332Z</time></trkpt><trkpt lat="43.6411083" lon="10.866665"><ele>166.0</ele><time>2026-04-06T06:08:49.333Z</time></trkpt><trkpt lat="43.6410267" lon="10.866695"><ele>167.0</ele><time>2026-04-06T06:08:51.333Z</time></trkpt><trkpt lat="43.64094" lon="10.8667"><ele>168.0</ele><time>2026-04-06T06:08:53.334Z</time></trkpt><trkpt lat="43.64086" lon="10.86667"><ele>169.0</ele><time>2026-04-06T06:08:55.332Z</time></trkpt><trkpt lat="43.640795" lon="10.8666067"><ele>170.0</ele><time>2026-04-06T06:08:57.336Z</time></trkpt><trkpt lat="43.6407267" lon="10.86655"><ele>171.0</ele><time>2026-04-06T06:08:59.332Z</time></trkpt><trkpt lat="43.6406517" lon="10.86648"><ele>171.0</ele><time>2026-04-06T06:09:01.334Z</time></trkpt><trkpt lat="43.6405667" lon="10.8663967"><ele>171.0</ele><time>2026-04-06T06:09:03.334Z</time></trkpt><trkpt lat="43.6404983" lon="10.8662917"><ele>171.0</ele><time>2026-04-06T06:09:05.332Z</time></trkpt><trkpt lat="43.6404417" lon="10.8661867"><ele>171.0</ele><time>2026-04-06T06:09:07.334Z</time></trkpt><trkpt lat="43.64039" lon="10.866095"><ele>171.0</ele><time>2026-04-06T06:09:09.336Z</time></trkpt><trkpt lat="43.640345" lon="10.8660117"><ele>169.20000000000002</ele><time>2026-04-06T06:09:11.333Z</time></trkpt><trkpt lat="43.6402967" lon="10.86591"><ele>167.4</ele><time>2026-04-06T06:09:13.337Z</time></trkpt><trkpt lat="43.6402317" lon="10.8657983"><ele>165.6</ele><time>2026-04-06T06:09:15.337Z</time></trkpt><trkpt lat="43.6401633" lon="10.865675"><ele>163.8</ele><time>2026-04-06T06:09:17.333Z</time></trkpt><trkpt lat="43.6401033" lon="10.865555"><ele>162.0</ele><time>2026-04-06T06:09:19.337Z</time></trkpt><trkpt lat="43.6400433" lon="10.8654233"><ele>162.0</ele><time>2026-04-06T06:09:21.333Z</time></trkpt><trkpt lat="43.639975" lon="10.86529"><ele>162.0</ele><time>2026-04-06T06:09:23.332Z</time></trkpt><trkpt lat="43.6399383" lon="10.8652183"><ele>162.0</ele><time>2026-04-06T06:09:24.333Z</time></trkpt><trkpt lat="43.6398683" lon="10.86507"><ele>162.0</ele><time>2026-04-06T06:09:26.332Z</time></trkpt><trkpt lat="43.6398317" lon="10.8649983"><ele>162.0</ele><time>2026-04-06T06:09:27.331Z</time></trkpt><trkpt lat="43.6397917" lon="10.86493"><ele>162.0</ele><time>2026-04-06T06:09:28.332Z</time></trkpt><trkpt lat="43.6397433" lon="10.8648683"><ele>162.42857142857144</ele><time>2026-04-06T06:09:29.338Z</time></trkpt><trkpt lat="43.6396933" lon="10.864815"><ele>162.85714285714286</ele><time>2026-04-06T06:09:30.333Z</time></trkpt><trkpt lat="43.639595" lon="10.864715"><ele>163.28571428571428</ele><time>2026-04-06T06:09:32.335Z</time></trkpt><trkpt lat="43.6395367" lon="10.8646683"><ele>163.71428571428572</ele><time>2026-04-06T06:09:33.336Z</time></trkpt><trkpt lat="43.6394817" lon="10.8646217"><ele>164.14285714285714</ele><time>2026-04-06T06:09:34.334Z</time></trkpt><trkpt lat="43.6394283" lon="10.8645733"><ele>164.57142857142858</ele><time>2026-04-06T06:09:35.337Z</time></trkpt><trkpt lat="43.6393767" lon="10.8645233"><ele>165.0</ele><time>2026-04-06T06:09:36.334Z</time></trkpt><trkpt lat="43.6392783" lon="10.8644317"><ele>164.83333333333334</ele><time>2026-04-06T06:09:38.332Z</time></trkpt><trkpt lat="43.6391767" lon="10.8643467"><ele>164.66666666666666</ele><time>2026-04-06T06:09:40.332Z</time></trkpt><trkpt lat="43.6390767" lon="10.86425"><ele>164.5</ele><time>2026-04-06T06:09:42.332Z</time></trkpt><trkpt lat="43.6390233" lon="10.8641983"><ele>164.33333333333331</ele><time>2026-04-06T06:09:43.335Z</time></trkpt><trkpt lat="43.6389667" lon="10.8641433"><ele>164.16666666666666</ele><time>2026-04-06T06:09:44.333Z</time></trkpt><trkpt lat="43.63891" lon="10.8640883"><ele>164.0</ele><time>2026-04-06T06:09:45.336Z</time></trkpt><trkpt lat="43.638855" lon="10.8640217"><ele>164.0</ele><time>2026-04-06T06:09:46.333Z</time></trkpt><trkpt lat="43.6387967" lon="10.8639533"><ele>164.0</ele><time>2026-04-06T06:09:47.333Z</time></trkpt><trkpt lat="43.6387367" lon="10.8638833"><ele>164.0</ele><time>2026-04-06T06:09:48.334Z</time></trkpt><trkpt lat="43.6386767" lon="10.8638167"><ele>164.0</ele><time>2026-04-06T06:09:49.333Z</time></trkpt><trkpt lat="43.6386117" lon="10.8637533"><ele>164.0</ele><time>2026-04-06T06:09:50.334Z</time></trkpt><trkpt lat="43.63854" lon="10.8637067"><ele>164.0</ele><time>2026-04-06T06:09:51.334Z</time></trkpt><trkpt lat="43.6384633" lon="10.8636683"><ele>161.33333333333331</ele><time>2026-04-06T06:09:52.333Z</time></trkpt><trkpt lat="43.6383867" lon="10.86363"><ele>158.66666666666666</ele><time>2026-04-06T06:09:53.333Z</time></trkpt><trkpt lat="43.6383067" lon="10.8635967"><ele>156.0</ele><time>2026-04-06T06:09:54.337Z</time></trkpt><trkpt lat="43.6382283" lon="10.8635583"><ele>153.33333333333334</ele><time>2026-04-06T06:09:55.332Z</time></trkpt><trkpt lat="43.63815" lon="10.863525"><ele>150.66666666666669</ele><time>2026-04-06T06:09:56.338Z</time></trkpt><trkpt lat="43.6380733" lon="10.863495"><ele>148.0</ele><time>2026-04-06T06:09:57.333Z</time></trkpt><trkpt lat="43.638005" lon="10.8634617"><ele>147.8</ele><time>2026-04-06T06:09:58.331Z</time></trkpt><trkpt lat="43.63794" lon="10.86343"><ele>147.60000000000002</ele><time>2026-04-06T06:09:59.332Z</time></trkpt><trkpt lat="43.6378317" lon="10.86336"><ele>147.39999999999998</ele><time>2026-04-06T06:10:01.333Z</time></trkpt><trkpt lat="43.6377333" lon="10.8632433"><ele>147.2</ele><time>2026-04-06T06:10:03.331Z</time></trkpt><trkpt lat="43.637685" lon="10.8631783"><ele>147.0</ele><time>2026-04-06T06:10:04.335Z</time></trkpt><trkpt lat="43.637635" lon="10.8631067"><ele>147.0</ele><time>2026-04-06T06:10:05.333Z</time></trkpt><trkpt lat="43.6375867" lon="10.8630333"><ele>147.0</ele><time>2026-04-06T06:10:06.333Z</time></trkpt><trkpt lat="43.6375367" lon="10.8629617"><ele>147.0</ele><time>2026-04-06T06:10:07.336Z</time></trkpt><trkpt lat="43.6374867" lon="10.86289"><ele>147.0</ele><time>2026-04-06T06:10:08.334Z</time></trkpt><trkpt lat="43.637435" lon="10.862815"><ele>147.0</ele><time>2026-04-06T06:10:09.332Z</time></trkpt><trkpt lat="43.6373817" lon="10.8627383"><ele>147.0</ele><time>2026-04-06T06:10:10.331Z</time></trkpt><trkpt lat="43.63733" lon="10.8626617"><ele>147.0</ele><time>2026-04-06T06:10:11.337Z</time></trkpt><trkpt lat="43.6372767" lon="10.8625867"><ele>146.14285714285714</ele><time>2026-04-06T06:10:12.337Z</time></trkpt><trkpt lat="43.6372233" lon="10.86251"><ele>145.28571428571428</ele><time>2026-04-06T06:10:13.331Z</time></trkpt><trkpt lat="43.6371733" lon="10.8624333"><ele>144.42857142857144</ele><time>2026-04-06T06:10:14.334Z</time></trkpt><trkpt lat="43.637125" lon="10.8623583"><ele>143.57142857142856</ele><time>2026-04-06T06:10:15.332Z</time></trkpt><trkpt lat="43.6370783" lon="10.8622883"><ele>142.71428571428572</ele><time>2026-04-06T06:10:16.332Z</time></trkpt><trkpt lat="43.63703" lon="10.86222"><ele>141.85714285714286</ele><time>2026-04-06T06:10:17.335Z</time></trkpt><trkpt lat="43.6369817" lon="10.8621483"><ele>141.0</ele><time>2026-04-06T06:10:18.332Z</time></trkpt><trkpt lat="43.636935" lon="10.8620767"><ele>139.33333333333334</ele><time>2026-04-06T06:10:19.335Z</time></trkpt><trkpt lat="43.63689" lon="10.862005"><ele>137.66666666666666</ele><time>2026-04-06T06:10:20.332Z</time></trkpt><trkpt lat="43.6368467" lon="10.8619383"><ele>136.0</ele><time>2026-04-06T06:10:21.333Z</time></trkpt><trkpt lat="43.6368017" lon="10.8618767"><ele>134.33333333333331</ele><time>2026-04-06T06:10:22.331Z</time></trkpt><trkpt lat="43.636755" lon="10.861815"><ele>132.66666666666666</ele><time>2026-04-06T06:10:23.333Z</time></trkpt><trkpt lat="43.6366633" lon="10.8616917"><ele>131.0</ele><time>2026-04-06T06:10:25.336Z</time></trkpt><trkpt lat="43.63661" lon="10.8616333"><ele>130.42857142857144</ele><time>2026-04-06T06:10:26.335Z</time></trkpt><trkpt lat="43.6365517" lon="10.8615833"><ele>129.85714285714286</ele><time>2026-04-06T06:10:27.333Z</time></trkpt><trkpt lat="43.6364933" lon="10.8615367"><ele>129.28571428571428</ele><time>2026-04-06T06:10:28.336Z</time></trkpt><trkpt lat="43.6364367" lon="10.8614917"><ele>128.71428571428572</ele><time>2026-04-06T06:10:29.334Z</time></trkpt><trkpt lat="43.63638" lon="10.861445"><ele>128.14285714285714</ele><time>2026-04-06T06:10:30.338Z</time></trkpt><trkpt lat="43.6363233" lon="10.8614"><ele>127.57142857142858</ele><time>2026-04-06T06:10:31.332Z</time></trkpt><trkpt lat="43.6362683" lon="10.861355"><ele>127.0</ele><time>2026-04-06T06:10:32.337Z</time></trkpt><trkpt lat="43.636175" lon="10.8612733"><ele>124.39999999999999</ele><time>2026-04-06T06:10:34.332Z</time></trkpt><trkpt lat="43.6360867" lon="10.8611933"><ele>121.79999999999998</ele><time>2026-04-06T06:10:36.331Z</time></trkpt><trkpt lat="43.635985" lon="10.8611367"><ele>119.2</ele><time>2026-04-06T06:10:38.334Z</time></trkpt><trkpt lat="43.635885" lon="10.86113"><ele>116.6</ele><time>2026-04-06T06:10:40.333Z</time></trkpt><trkpt lat="43.6358183" lon="10.86114"><ele>114.0</ele><time>2026-04-06T06:10:41.34Z</time></trkpt><trkpt lat="43.6357467" lon="10.861155"><ele>114.0</ele><time>2026-04-06T06:10:42.332Z</time></trkpt><trkpt lat="43.63567" lon="10.8611633"><ele>114.0</ele><time>2026-04-06T06:10:43.332Z</time></trkpt><trkpt lat="43.6355917" lon="10.861165"><ele>114.0</ele><time>2026-04-06T06:10:44.333Z</time></trkpt><trkpt lat="43.6355117" lon="10.86116"><ele>114.0</ele><time>2026-04-06T06:10:45.334Z</time></trkpt><trkpt lat="43.63544" lon="10.8611417"><ele>114.0</ele><time>2026-04-06T06:10:46.332Z</time></trkpt><trkpt lat="43.6353667" lon="10.8611167"><ele>114.0</ele><time>2026-04-06T06:10:47.335Z</time></trkpt><trkpt lat="43.6352967" lon="10.8610767"><ele>114.16666666666667</ele><time>2026-04-06T06:10:48.334Z</time></trkpt><trkpt lat="43.6352317" lon="10.861035"><ele>114.33333333333334</ele><time>2026-04-06T06:10:49.332Z</time></trkpt><trkpt lat="43.6351683" lon="10.8609867"><ele>114.5</ele><time>2026-04-06T06:10:50.339Z</time></trkpt><trkpt lat="43.6351067" lon="10.860925"><ele>114.66666666666667</ele><time>2026-04-06T06:10:51.334Z</time></trkpt><trkpt lat="43.635065" lon="10.8608567"><ele>114.83333333333334</ele><time>2026-04-06T06:10:52.335Z</time></trkpt><trkpt lat="43.63502" lon="10.860785"><ele>115.0</ele><time>2026-04-06T06:10:53.334Z</time></trkpt><trkpt lat="43.63494" lon="10.8606617"><ele>115.0</ele><time>2026-04-06T06:10:55.34Z</time></trkpt><trkpt lat="43.634835" lon="10.8606067"><ele>115.0</ele><time>2026-04-06T06:10:57.336Z</time></trkpt><trkpt lat="43.63471" lon="10.8606167"><ele>115.0</ele><time>2026-04-06T06:10:59.333Z</time></trkpt><trkpt lat="43.6346483" lon="10.860635"><ele>115.0</ele><time>2026-04-06T06:11:00.337Z</time></trkpt><trkpt lat="43.63453" lon="10.8606783"><ele>115.0</ele><time>2026-04-06T06:11:02.333Z</time></trkpt><trkpt lat="43.6344667" lon="10.8606833"><ele>109.4</ele><time>2026-04-06T06:11:03.332Z</time></trkpt><trkpt lat="43.6344033" lon="10.8606833"><ele>103.8</ele><time>2026-04-06T06:11:04.332Z</time></trkpt><trkpt lat="43.63428" lon="10.8606783"><ele>98.19999999999999</ele><time>2026-04-06T06:11:06.333Z</time></trkpt><trkpt lat="43.6341767" lon="10.860605"><ele>92.6</ele><time>2026-04-06T06:11:08.335Z</time></trkpt><trkpt lat="43.6341" lon="10.8604933"><ele>87.0</ele><time>2026-04-06T06:11:10.333Z</time></trkpt><trkpt lat="43.634075" lon="10.8603533"><ele>87.0</ele><time>2026-04-06T06:11:12.335Z</time></trkpt><trkpt lat="43.634075" lon="10.8602583"><ele>87.0</ele><time>2026-04-06T06:11:13.332Z</time></trkpt><trkpt lat="43.63407" lon="10.86017"><ele>87.0</ele><time>2026-04-06T06:11:14.338Z</time></trkpt><trkpt lat="43.63403" lon="10.860005"><ele>87.0</ele><time>2026-04-06T06:11:16.332Z</time></trkpt><trkpt lat="43.633955" lon="10.8598733"><ele>87.0</ele><time>2026-04-06T06:11:18.332Z</time></trkpt><trkpt lat="43.6338817" lon="10.8597367"><ele>89.33333333333333</ele><time>2026-04-06T06:11:20.332Z</time></trkpt><trkpt lat="43.6338483" lon="10.859595"><ele>91.66666666666666</ele><time>2026-04-06T06:11:22.333Z</time></trkpt><trkpt lat="43.63381" lon="10.8594983"><ele>94.0</ele><time>2026-04-06T06:11:24.333Z</time></trkpt><trkpt lat="43.6337517" lon="10.8594583"><ele>96.33333333333333</ele><time>2026-04-06T06:11:26.333Z</time></trkpt><trkpt lat="43.6336983" lon="10.85952"><ele>98.66666666666666</ele><time>2026-04-06T06:11:28.332Z</time></trkpt><trkpt lat="43.6337217" lon="10.8596533"><ele>101.0</ele><time>2026-04-06T06:11:30.332Z</time></trkpt><trkpt lat="43.633765" lon="10.8597983"><ele>101.0</ele><time>2026-04-06T06:11:32.332Z</time></trkpt><trkpt lat="43.6337967" lon="10.8599483"><ele>101.0</ele><time>2026-04-06T06:11:34.339Z</time></trkpt><trkpt lat="43.6337717" lon="10.860125"><ele>101.0</ele><time>2026-04-06T06:11:36.334Z</time></trkpt><trkpt lat="43.6337483" lon="10.8602083"><ele>101.0</ele><time>2026-04-06T06:11:37.333Z</time></trkpt><trkpt lat="43.6337" lon="10.8603517"><ele>101.0</ele><time>2026-04-06T06:11:39.335Z</time></trkpt><trkpt lat="43.6336317" lon="10.860455"><ele>94.8</ele><time>2026-04-06T06:11:41.341Z</time></trkpt><trkpt lat="43.6335433" lon="10.8604983"><ele>88.6</ele><time>2026-04-06T06:11:43.334Z</time></trkpt><trkpt lat="43.63349" lon="10.86044"><ele>82.4</ele><time>2026-04-06T06:11:45.333Z</time></trkpt><trkpt lat="43.6335717" lon="10.860215"><ele>76.2</ele><time>2026-04-06T06:11:48.335Z</time></trkpt><trkpt lat="43.6335917" lon="10.8601267"><ele>70.0</ele><time>2026-04-06T06:11:49.334Z</time></trkpt><trkpt lat="43.6335583" lon="10.8599617"><ele>70.0</ele><time>2026-04-06T06:11:51.331Z</time></trkpt><trkpt lat="43.6335217" lon="10.8598783"><ele>70.0</ele><time>2026-04-06T06:11:52.332Z</time></trkpt><trkpt lat="43.6334733" lon="10.8597983"><ele>70.0</ele><time>2026-04-06T06:11:53.332Z</time></trkpt><trkpt lat="43.6334183" lon="10.8597133"><ele>70.0</ele><time>2026-04-06T06:11:54.333Z</time></trkpt><trkpt lat="43.6333717" lon="10.8596183"><ele>70.0</ele><time>2026-04-06T06:11:55.333Z</time></trkpt><trkpt lat="43.6333317" lon="10.85952"><ele>70.0</ele><time>2026-04-06T06:11:56.331Z</time></trkpt><trkpt lat="43.6332933" lon="10.859415"><ele>70.0</ele><time>2026-04-06T06:11:57.331Z</time></trkpt><trkpt lat="43.6332567" lon="10.8593033"><ele>70.0</ele><time>2026-04-06T06:11:58.331Z</time></trkpt><trkpt lat="43.6332167" lon="10.8591817"><ele>70.0</ele><time>2026-04-06T06:11:59.336Z</time></trkpt><trkpt lat="43.6331783" lon="10.8590533"><ele>70.0</ele><time>2026-04-06T06:12:00.333Z</time></trkpt><trkpt lat="43.63314" lon="10.8589233"><ele>70.0</ele><time>2026-04-06T06:12:01.333Z</time></trkpt><trkpt lat="43.6331033" lon="10.8588"><ele>70.0</ele><time>2026-04-06T06:12:02.333Z</time></trkpt><trkpt lat="43.6330683" lon="10.858685"><ele>70.0</ele><time>2026-04-06T06:12:03.333Z</time></trkpt><trkpt lat="43.6330333" lon="10.858565"><ele>70.0</ele><time>2026-04-06T06:12:04.334Z</time></trkpt><trkpt lat="43.6329983" lon="10.8584433"><ele>70.0</ele><time>2026-04-06T06:12:05.333Z</time></trkpt><trkpt lat="43.6329667" lon="10.85832"><ele>70.0</ele><time>2026-04-06T06:12:06.334Z</time></trkpt><trkpt lat="43.6329417" lon="10.8582"><ele>70.66666666666666</ele><time>2026-04-06T06:12:07.334Z</time></trkpt><trkpt lat="43.6329183" lon="10.8580833"><ele>71.33333333333333</ele><time>2026-04-06T06:12:08.334Z</time></trkpt><trkpt lat="43.6328933" lon="10.8579633"><ele>72.0</ele><time>2026-04-06T06:12:09.333Z</time></trkpt><trkpt lat="43.63287" lon="10.857845"><ele>72.66666666666667</ele><time>2026-04-06T06:12:10.333Z</time></trkpt><trkpt lat="43.6328533" lon="10.8577267"><ele>73.33333333333334</ele><time>2026-04-06T06:12:11.333Z</time></trkpt><trkpt lat="43.6328367" lon="10.8576033"><ele>74.0</ele><time>2026-04-06T06:12:12.334Z</time></trkpt><trkpt lat="43.6328183" lon="10.8574783"><ele>71.66666666666667</ele><time>2026-04-06T06:12:13.332Z</time></trkpt><trkpt lat="43.6327933" lon="10.8573633"><ele>69.33333333333334</ele><time>2026-04-06T06:12:14.333Z</time></trkpt><trkpt lat="43.6327633" lon="10.8572567"><ele>67.0</ele><time>2026-04-06T06:12:15.336Z</time></trkpt><trkpt lat="43.6327267" lon="10.857155"><ele>64.66666666666667</ele><time>2026-04-06T06:12:16.332Z</time></trkpt><trkpt lat="43.6326833" lon="10.8570567"><ele>62.333333333333336</ele><time>2026-04-06T06:12:17.333Z</time></trkpt><trkpt lat="43.632635" lon="10.8569617"><ele>60.0</ele><time>2026-04-06T06:12:18.333Z</time></trkpt><trkpt lat="43.63259" lon="10.856865"><ele>61.4</ele><time>2026-04-06T06:12:19.332Z</time></trkpt><trkpt lat="43.6325417" lon="10.8567633"><ele>62.8</ele><time>2026-04-06T06:12:20.331Z</time></trkpt><trkpt lat="43.6324867" lon="10.8566667"><ele>64.2</ele><time>2026-04-06T06:12:21.334Z</time></trkpt><trkpt lat="43.632435" lon="10.8565683"><ele>65.6</ele><time>2026-04-06T06:12:22.333Z</time></trkpt><trkpt lat="43.6323783" lon="10.8564667"><ele>67.0</ele><time>2026-04-06T06:12:23.331Z</time></trkpt><trkpt lat="43.63232" lon="10.8563683"><ele>67.0</ele><time>2026-04-06T06:12:24.333Z</time></trkpt><trkpt lat="43.6322583" lon="10.856275"><ele>67.0</ele><time>2026-04-06T06:12:25.332Z</time></trkpt><trkpt lat="43.6321983" lon="10.856185"><ele>67.0</ele><time>2026-04-06T06:12:26.333Z</time></trkpt><trkpt lat="43.632135" lon="10.856105"><ele>67.0</ele><time>2026-04-06T06:12:27.332Z</time></trkpt><trkpt lat="43.6320683" lon="10.8560333"><ele>67.0</ele><time>2026-04-06T06:12:28.335Z</time></trkpt><trkpt lat="43.6319917" lon="10.85597"><ele>67.0</ele><time>2026-04-06T06:12:29.331Z</time></trkpt><trkpt lat="43.6319117" lon="10.8559133"><ele>65.2</ele><time>2026-04-06T06:12:30.332Z</time></trkpt><trkpt lat="43.631825" lon="10.8558667"><ele>63.400000000000006</ele><time>2026-04-06T06:12:31.331Z</time></trkpt><trkpt lat="43.6317333" lon="10.85582"><ele>61.599999999999994</ele><time>2026-04-06T06:12:32.334Z</time></trkpt><trkpt lat="43.6316433" lon="10.855775"><ele>59.8</ele><time>2026-04-06T06:12:33.333Z</time></trkpt><trkpt lat="43.6315583" lon="10.8557267"><ele>58.0</ele><time>2026-04-06T06:12:34.332Z</time></trkpt><trkpt lat="43.6314733" lon="10.8556817"><ele>58.0</ele><time>2026-04-06T06:12:35.332Z</time></trkpt><trkpt lat="43.6313883" lon="10.8556367"><ele>58.0</ele><time>2026-04-06T06:12:36.331Z</time></trkpt><trkpt lat="43.631305" lon="10.85559"><ele>58.0</ele><time>2026-04-06T06:12:37.332Z</time></trkpt><trkpt lat="43.6312233" lon="10.8555367"><ele>58.0</ele><time>2026-04-06T06:12:38.333Z</time></trkpt><trkpt lat="43.63114" lon="10.855485"><ele>58.0</ele><time>2026-04-06T06:12:39.336Z</time></trkpt><trkpt lat="43.6310567" lon="10.8554283"><ele>57.166666666666664</ele><time>2026-04-06T06:12:40.331Z</time></trkpt><trkpt lat="43.6309767" lon="10.85537"><ele>56.33333333333333</ele><time>2026-04-06T06:12:41.331Z</time></trkpt><trkpt lat="43.6308983" lon="10.85531"><ele>55.5</ele><time>2026-04-06T06:12:42.335Z</time></trkpt><trkpt lat="43.630825" lon="10.8552467"><ele>54.66666666666667</ele><time>2026-04-06T06:12:43.332Z</time></trkpt><trkpt lat="43.6307533" lon="10.8551817"><ele>53.833333333333336</ele><time>2026-04-06T06:12:44.333Z</time></trkpt><trkpt lat="43.630685" lon="10.8551117"><ele>53.0</ele><time>2026-04-06T06:12:45.333Z</time></trkpt><trkpt lat="43.630625" lon="10.85504"><ele>53.00000000000001</ele><time>2026-04-06T06:12:46.332Z</time></trkpt><trkpt lat="43.6305717" lon="10.854965"><ele>53.0</ele><time>2026-04-06T06:12:47.332Z</time></trkpt><trkpt lat="43.63052" lon="10.85489"><ele>53.0</ele><time>2026-04-06T06:12:48.337Z</time></trkpt><trkpt lat="43.6304767" lon="10.854815"><ele>53.0</ele><time>2026-04-06T06:12:49.333Z</time></trkpt><trkpt lat="43.630435" lon="10.85474"><ele>53.00000000000001</ele><time>2026-04-06T06:12:50.333Z</time></trkpt><trkpt lat="43.630395" lon="10.85467"><ele>53.0</ele><time>2026-04-06T06:12:51.332Z</time></trkpt><trkpt lat="43.6303183" lon="10.8545533"><ele>53.00000000000001</ele><time>2026-04-06T06:12:53.331Z</time></trkpt><trkpt lat="43.6302583" lon="10.8544567"><ele>53.0</ele><time>2026-04-06T06:12:55.332Z</time></trkpt><trkpt lat="43.63022" lon="10.85437"><ele>53.0</ele><time>2026-04-06T06:12:57.333Z</time></trkpt><trkpt lat="43.63023" lon="10.8542717"><ele>53.0</ele><time>2026-04-06T06:12:59.332Z</time></trkpt><trkpt lat="43.6302933" lon="10.85419"><ele>53.00000000000001</ele><time>2026-04-06T06:13:01.338Z</time></trkpt><trkpt lat="43.6303617" lon="10.8541"><ele>53.0</ele><time>2026-04-06T06:13:03.334Z</time></trkpt><trkpt lat="43.630435" lon="10.8539967"><ele>53.0</ele><time>2026-04-06T06:13:05.332Z</time></trkpt><trkpt lat="43.6305183" lon="10.8539017"><ele>53.0</ele><time>2026-04-06T06:13:07.333Z</time></trkpt><trkpt lat="43.6305983" lon="10.8537933"><ele>53.0</ele><time>2026-04-06T06:13:09.337Z</time></trkpt><trkpt lat="43.6306883" lon="10.85368"><ele>53.0</ele><time>2026-04-06T06:13:11.336Z</time></trkpt><trkpt lat="43.6307367" lon="10.8536217"><ele>53.0</ele><time>2026-04-06T06:13:12.334Z</time></trkpt><trkpt lat="43.6307883" lon="10.8535633"><ele>53.0</ele><time>2026-04-06T06:13:13.341Z</time></trkpt><trkpt lat="43.63084" lon="10.8535017"><ele>53.0</ele><time>2026-04-06T06:13:14.334Z</time></trkpt><trkpt lat="43.6308933" lon="10.8534333"><ele>53.0</ele><time>2026-04-06T06:13:15.334Z</time></trkpt><trkpt lat="43.6309467" lon="10.8533667"><ele>53.0</ele><time>2026-04-06T06:13:16.335Z</time></trkpt><trkpt lat="43.6310033" lon="10.853295"><ele>53.0</ele><time>2026-04-06T06:13:17.334Z</time></trkpt><trkpt lat="43.6310583" lon="10.8532233"><ele>53.0</ele><time>2026-04-06T06:13:18.334Z</time></trkpt><trkpt lat="43.631115" lon="10.8531517"><ele>53.0</ele><time>2026-04-06T06:13:19.336Z</time></trkpt><trkpt lat="43.6311733" lon="10.8530783"><ele>53.00000000000001</ele><time>2026-04-06T06:13:20.336Z</time></trkpt><trkpt lat="43.631235" lon="10.8530017"><ele>53.0</ele><time>2026-04-06T06:13:21.336Z</time></trkpt><trkpt lat="43.6312967" lon="10.8529233"><ele>53.0</ele><time>2026-04-06T06:13:22.335Z</time></trkpt><trkpt lat="43.6313617" lon="10.85284"><ele>53.0</ele><time>2026-04-06T06:13:23.336Z</time></trkpt><trkpt lat="43.631425" lon="10.8527567"><ele>53.00000000000001</ele><time>2026-04-06T06:13:24.333Z</time></trkpt><trkpt lat="43.63149" lon="10.8526717"><ele>53.0</ele><time>2026-04-06T06:13:25.339Z</time></trkpt><trkpt lat="43.6315567" lon="10.8525867"><ele>52.66666666666667</ele><time>2026-04-06T06:13:26.338Z</time></trkpt><trkpt lat="43.631625" lon="10.8525"><ele>52.333333333333336</ele><time>2026-04-06T06:13:27.335Z</time></trkpt><trkpt lat="43.6316933" lon="10.852415"><ele>52.0</ele><time>2026-04-06T06:13:28.333Z</time></trkpt><trkpt lat="43.6317617" lon="10.85233"><ele>51.66666666666667</ele><time>2026-04-06T06:13:29.334Z</time></trkpt><trkpt lat="43.6318267" lon="10.8522467"><ele>51.333333333333336</ele><time>2026-04-06T06:13:30.334Z</time></trkpt><trkpt lat="43.6318883" lon="10.8521683"><ele>51.0</ele><time>2026-04-06T06:13:31.335Z</time></trkpt><trkpt lat="43.631945" lon="10.8520933"><ele>51.166666666666664</ele><time>2026-04-06T06:13:32.336Z</time></trkpt><trkpt lat="43.6320017" lon="10.8520217"><ele>51.33333333333333</ele><time>2026-04-06T06:13:33.334Z</time></trkpt><trkpt lat="43.6320583" lon="10.85195"><ele>51.5</ele><time>2026-04-06T06:13:34.335Z</time></trkpt><trkpt lat="43.6321167" lon="10.85188"><ele>51.666666666666664</ele><time>2026-04-06T06:13:35.332Z</time></trkpt><trkpt lat="43.6321733" lon="10.8518133"><ele>51.83333333333333</ele><time>2026-04-06T06:13:36.337Z</time></trkpt><trkpt lat="43.6322283" lon="10.851745"><ele>52.0</ele><time>2026-04-06T06:13:37.333Z</time></trkpt><trkpt lat="43.63228" lon="10.8516783"><ele>51.6</ele><time>2026-04-06T06:13:38.337Z</time></trkpt><trkpt lat="43.6323283" lon="10.8516183"><ele>51.2</ele><time>2026-04-06T06:13:39.332Z</time></trkpt><trkpt lat="43.632415" lon="10.851505"><ele>50.8</ele><time>2026-04-06T06:13:41.335Z</time></trkpt><trkpt lat="43.6324567" lon="10.8513917"><ele>50.4</ele><time>2026-04-06T06:13:43.419Z</time></trkpt><trkpt lat="43.6324417" lon="10.8512867"><ele>50.0</ele><time>2026-04-06T06:13:45.332Z</time></trkpt><trkpt lat="43.6323667" lon="10.8511917"><ele>50.00000000000001</ele><time>2026-04-06T06:13:47.334Z</time></trkpt><trkpt lat="43.63231" lon="10.851135"><ele>50.0</ele><time>2026-04-06T06:13:48.333Z</time></trkpt><trkpt lat="43.632255" lon="10.8510667"><ele>50.0</ele><time>2026-04-06T06:13:49.339Z</time></trkpt><trkpt lat="43.632205" lon="10.8509817"><ele>50.0</ele><time>2026-04-06T06:13:50.332Z</time></trkpt><trkpt lat="43.6321533" lon="10.8508967"><ele>50.00000000000001</ele><time>2026-04-06T06:13:51.332Z</time></trkpt><trkpt lat="43.632095" lon="10.8508033"><ele>50.0</ele><time>2026-04-06T06:13:52.334Z</time></trkpt><trkpt lat="43.6320383" lon="10.8507083"><ele>49.8</ele><time>2026-04-06T06:13:53.333Z</time></trkpt><trkpt lat="43.6319783" lon="10.8506117"><ele>49.6</ele><time>2026-04-06T06:13:54.335Z</time></trkpt><trkpt lat="43.6319133" lon="10.8505167"><ele>49.400000000000006</ele><time>2026-04-06T06:13:55.335Z</time></trkpt><trkpt lat="43.6318533" lon="10.85042"><ele>49.2</ele><time>2026-04-06T06:13:56.331Z</time></trkpt><trkpt lat="43.631795" lon="10.850325"><ele>49.0</ele><time>2026-04-06T06:13:57.338Z</time></trkpt><trkpt lat="43.63174" lon="10.8502317"><ele>48.83333333333333</ele><time>2026-04-06T06:13:58.339Z</time></trkpt><trkpt lat="43.631685" lon="10.8501367"><ele>48.666666666666664</ele><time>2026-04-06T06:13:59.335Z</time></trkpt><trkpt lat="43.6316317" lon="10.8500483"><ele>48.5</ele><time>2026-04-06T06:14:00.34Z</time></trkpt><trkpt lat="43.63158" lon="10.8499617"><ele>48.33333333333333</ele><time>2026-04-06T06:14:01.333Z</time></trkpt><trkpt lat="43.6315267" lon="10.8498733"><ele>48.166666666666664</ele><time>2026-04-06T06:14:02.339Z</time></trkpt><trkpt lat="43.6314733" lon="10.8497817"><ele>48.0</ele><time>2026-04-06T06:14:03.337Z</time></trkpt><trkpt lat="43.6314183" lon="10.8496917"><ele>47.833333333333336</ele><time>2026-04-06T06:14:04.333Z</time></trkpt><trkpt lat="43.6313617" lon="10.8496017"><ele>47.666666666666664</ele><time>2026-04-06T06:14:05.333Z</time></trkpt><trkpt lat="43.631305" lon="10.8495133"><ele>47.5</ele><time>2026-04-06T06:14:06.336Z</time></trkpt><trkpt lat="43.63125" lon="10.8494183"><ele>47.33333333333333</ele><time>2026-04-06T06:14:07.333Z</time></trkpt><trkpt lat="43.6311967" lon="10.8493217"><ele>47.166666666666664</ele><time>2026-04-06T06:14:08.336Z</time></trkpt><trkpt lat="43.631145" lon="10.8492283"><ele>47.0</ele><time>2026-04-06T06:14:09.333Z</time></trkpt><trkpt lat="43.6310933" lon="10.849135"><ele>47.0</ele><time>2026-04-06T06:14:10.331Z</time></trkpt><trkpt lat="43.631045" lon="10.84904"><ele>47.0</ele><time>2026-04-06T06:14:11.331Z</time></trkpt><trkpt lat="43.6309967" lon="10.848945"><ele>47.0</ele><time>2026-04-06T06:14:12.332Z</time></trkpt><trkpt lat="43.6309433" lon="10.84885"><ele>47.0</ele><time>2026-04-06T06:14:13.333Z</time></trkpt><trkpt lat="43.6308917" lon="10.8487533"><ele>47.0</ele><time>2026-04-06T06:14:14.333Z</time></trkpt><trkpt lat="43.6308417" lon="10.8486583"><ele>47.0</ele><time>2026-04-06T06:14:15.333Z</time></trkpt><trkpt lat="43.6307883" lon="10.84856"><ele>47.0</ele><time>2026-04-06T06:14:16.332Z</time></trkpt><trkpt lat="43.6307333" lon="10.8484617"><ele>47.0</ele><time>2026-04-06T06:14:17.333Z</time></trkpt><trkpt lat="43.6306767" lon="10.8483633"><ele>47.0</ele><time>2026-04-06T06:14:18.335Z</time></trkpt><trkpt lat="43.630625" lon="10.8482633"><ele>47.0</ele><time>2026-04-06T06:14:19.332Z</time></trkpt><trkpt lat="43.6305767" lon="10.8481667"><ele>47.0</ele><time>2026-04-06T06:14:20.334Z</time></trkpt><trkpt lat="43.63053" lon="10.8480717"><ele>47.0</ele><time>2026-04-06T06:14:21.333Z</time></trkpt><trkpt lat="43.63048" lon="10.84798"><ele>47.166666666666664</ele><time>2026-04-06T06:14:22.332Z</time></trkpt><trkpt lat="43.63043" lon="10.8478867"><ele>47.33333333333333</ele><time>2026-04-06T06:14:23.333Z</time></trkpt><trkpt lat="43.6303767" lon="10.8477917"><ele>47.5</ele><time>2026-04-06T06:14:24.333Z</time></trkpt><trkpt lat="43.6303233" lon="10.8477033"><ele>47.666666666666664</ele><time>2026-04-06T06:14:25.334Z</time></trkpt><trkpt lat="43.6302783" lon="10.84762"><ele>47.833333333333336</ele><time>2026-04-06T06:14:26.333Z</time></trkpt><trkpt lat="43.6302367" lon="10.8475383"><ele>48.0</ele><time>2026-04-06T06:14:27.336Z</time></trkpt><trkpt lat="43.6301967" lon="10.847465"><ele>48.599999999999994</ele><time>2026-04-06T06:14:28.332Z</time></trkpt><trkpt lat="43.6301233" lon="10.8473383"><ele>49.199999999999996</ele><time>2026-04-06T06:14:30.332Z</time></trkpt><trkpt lat="43.6300667" lon="10.8472333"><ele>49.8</ele><time>2026-04-06T06:14:32.334Z</time></trkpt><trkpt lat="43.63001" lon="10.8471617"><ele>50.4</ele><time>2026-04-06T06:14:34.335Z</time></trkpt><trkpt lat="43.6299267" lon="10.8471433"><ele>51.0</ele><time>2026-04-06T06:14:36.334Z</time></trkpt><trkpt lat="43.6298367" lon="10.847175"><ele>51.0</ele><time>2026-04-06T06:14:38.336Z</time></trkpt><trkpt lat="43.6297467" lon="10.8472267"><ele>51.0</ele><time>2026-04-06T06:14:40.337Z</time></trkpt><trkpt lat="43.6296933" lon="10.8472733"><ele>51.0</ele><time>2026-04-06T06:14:41.334Z</time></trkpt><trkpt lat="43.6296467" lon="10.8473333"><ele>51.0</ele><time>2026-04-06T06:14:42.333Z</time></trkpt><trkpt lat="43.629605" lon="10.8474033"><ele>51.0</ele><time>2026-04-06T06:14:43.334Z</time></trkpt><trkpt lat="43.6295617" lon="10.8474767"><ele>51.0</ele><time>2026-04-06T06:14:44.338Z</time></trkpt><trkpt lat="43.6295183" lon="10.8475483"><ele>51.0</ele><time>2026-04-06T06:14:45.338Z</time></trkpt><trkpt lat="43.6294733" lon="10.8476167"><ele>51.333333333333336</ele><time>2026-04-06T06:14:46.334Z</time></trkpt><trkpt lat="43.6294233" lon="10.84768"><ele>51.66666666666667</ele><time>2026-04-06T06:14:47.338Z</time></trkpt><trkpt lat="43.6293667" lon="10.847745"><ele>52.0</ele><time>2026-04-06T06:14:48.335Z</time></trkpt><trkpt lat="43.6293067" lon="10.8478033"><ele>52.333333333333336</ele><time>2026-04-06T06:14:49.34Z</time></trkpt><trkpt lat="43.6292433" lon="10.84786"><ele>52.66666666666667</ele><time>2026-04-06T06:14:50.338Z</time></trkpt><trkpt lat="43.6291833" lon="10.8479133"><ele>53.0</ele><time>2026-04-06T06:14:51.333Z</time></trkpt><trkpt lat="43.6290867" lon="10.8480033"><ele>53.00000000000001</ele><time>2026-04-06T06:14:53.336Z</time></trkpt><trkpt lat="43.62902" lon="10.848045"><ele>53.0</ele><time>2026-04-06T06:14:55.332Z</time></trkpt><trkpt lat="43.6290867" lon="10.8480117"><ele>53.0</ele><time>2026-04-06T06:15:08.341Z</time></trkpt><trkpt lat="43.6291683" lon="10.847945"><ele>53.0</ele><time>2026-04-06T06:15:10.337Z</time></trkpt><trkpt lat="43.6292667" lon="10.8478633"><ele>53.00000000000001</ele><time>2026-04-06T06:15:12.334Z</time></trkpt><trkpt lat="43.6293217" lon="10.847815"><ele>53.0</ele><time>2026-04-06T06:15:13.336Z</time></trkpt><trkpt lat="43.6293717" lon="10.8477567"><ele>53.0</ele><time>2026-04-06T06:15:14.333Z</time></trkpt><trkpt lat="43.6294217" lon="10.8476967"><ele>53.0</ele><time>2026-04-06T06:15:15.337Z</time></trkpt><trkpt lat="43.6294667" lon="10.847635"><ele>53.0</ele><time>2026-04-06T06:15:16.335Z</time></trkpt><trkpt lat="43.6295467" lon="10.8475033"><ele>53.0</ele><time>2026-04-06T06:15:18.337Z</time></trkpt><trkpt lat="43.629625" lon="10.847375"><ele>53.0</ele><time>2026-04-06T06:15:20.336Z</time></trkpt><trkpt lat="43.6297017" lon="10.8472733"><ele>52.66666666666667</ele><time>2026-04-06T06:15:22.335Z</time></trkpt><trkpt lat="43.62977" lon="10.8472167"><ele>52.333333333333336</ele><time>2026-04-06T06:15:24.335Z</time></trkpt><trkpt lat="43.6298317" lon="10.847125"><ele>52.0</ele><time>2026-04-06T06:15:33.333Z</time></trkpt><trkpt lat="43.6298" lon="10.84701"><ele>51.66666666666667</ele><time>2026-04-06T06:15:36.335Z</time></trkpt><trkpt lat="43.629775" lon="10.8469233"><ele>51.333333333333336</ele><time>2026-04-06T06:15:39.337Z</time></trkpt><trkpt lat="43.6297883" lon="10.8470167"><ele>51.0</ele><time>2026-04-06T06:15:45.335Z</time></trkpt><trkpt lat="43.62983" lon="10.8470917"><ele>51.0</ele><time>2026-04-06T06:15:48.338Z</time></trkpt><trkpt lat="43.6298883" lon="10.847135"><ele>51.0</ele><time>2026-04-06T06:16:12.338Z</time></trkpt><trkpt lat="43.629955" lon="10.8471033"><ele>51.0</ele><time>2026-04-06T06:16:14.336Z</time></trkpt><trkpt lat="43.63003" lon="10.84705"><ele>51.0</ele><time>2026-04-06T06:16:16.333Z</time></trkpt><trkpt lat="43.630115" lon="10.84701"><ele>51.0</ele><time>2026-04-06T06:16:18.336Z</time></trkpt><trkpt lat="43.630225" lon="10.8469933"><ele>51.0</ele><time>2026-04-06T06:16:20.333Z</time></trkpt><trkpt lat="43.630345" lon="10.846995"><ele>50.666666666666664</ele><time>2026-04-06T06:16:22.336Z</time></trkpt><trkpt lat="43.63047" lon="10.84701"><ele>50.33333333333333</ele><time>2026-04-06T06:16:24.336Z</time></trkpt><trkpt lat="43.6305383" lon="10.847015"><ele>50.0</ele><time>2026-04-06T06:16:25.335Z</time></trkpt><trkpt lat="43.630605" lon="10.8470167"><ele>49.666666666666664</ele><time>2026-04-06T06:16:26.335Z</time></trkpt><trkpt lat="43.630675" lon="10.8470117"><ele>49.33333333333333</ele><time>2026-04-06T06:16:27.334Z</time></trkpt><trkpt lat="43.6307467" lon="10.8469983"><ele>49.0</ele><time>2026-04-06T06:16:28.335Z</time></trkpt><trkpt lat="43.6308183" lon="10.84697"><ele>48.99999999999999</ele><time>2026-04-06T06:16:29.336Z</time></trkpt><trkpt lat="43.6308867" lon="10.84693"><ele>49.0</ele><time>2026-04-06T06:16:30.337Z</time></trkpt><trkpt lat="43.6309483" lon="10.8468817"><ele>49.0</ele><time>2026-04-06T06:16:31.338Z</time></trkpt><trkpt lat="43.6310067" lon="10.8468317"><ele>49.0</ele><time>2026-04-06T06:16:32.338Z</time></trkpt><trkpt lat="43.6311133" lon="10.8467467"><ele>48.99999999999999</ele><time>2026-04-06T06:16:34.333Z</time></trkpt><trkpt lat="43.6311733" lon="10.84671"><ele>49.0</ele><time>2026-04-06T06:16:35.333Z</time></trkpt><trkpt lat="43.631235" lon="10.84667"><ele>49.166666666666664</ele><time>2026-04-06T06:16:36.335Z</time></trkpt><trkpt lat="43.631295" lon="10.84662"><ele>49.33333333333333</ele><time>2026-04-06T06:16:37.336Z</time></trkpt><trkpt lat="43.631355" lon="10.84656"><ele>49.5</ele><time>2026-04-06T06:16:38.335Z</time></trkpt><trkpt lat="43.63141" lon="10.8464917"><ele>49.66666666666667</ele><time>2026-04-06T06:16:39.333Z</time></trkpt><trkpt lat="43.6314617" lon="10.8464167"><ele>49.833333333333336</ele><time>2026-04-06T06:16:40.333Z</time></trkpt><trkpt lat="43.631505" lon="10.8463267"><ele>50.0</ele><time>2026-04-06T06:16:41.335Z</time></trkpt><trkpt lat="43.63154" lon="10.84623"><ele>50.00000000000001</ele><time>2026-04-06T06:16:42.333Z</time></trkpt><trkpt lat="43.631565" lon="10.8461183"><ele>50.0</ele><time>2026-04-06T06:16:43.332Z</time></trkpt><trkpt lat="43.6315833" lon="10.846"><ele>50.0</ele><time>2026-04-06T06:16:44.333Z</time></trkpt><trkpt lat="43.6315967" lon="10.845875"><ele>50.0</ele><time>2026-04-06T06:16:45.333Z</time></trkpt><trkpt lat="43.6316083" lon="10.8457517"><ele>50.00000000000001</ele><time>2026-04-06T06:16:46.332Z</time></trkpt><trkpt lat="43.6316217" lon="10.8456333"><ele>50.0</ele><time>2026-04-06T06:16:47.333Z</time></trkpt><trkpt lat="43.631635" lon="10.845515"><ele>50.333333333333336</ele><time>2026-04-06T06:16:48.339Z</time></trkpt><trkpt lat="43.63165" lon="10.8453983"><ele>50.66666666666667</ele><time>2026-04-06T06:16:49.334Z</time></trkpt><trkpt lat="43.6316667" lon="10.8452817"><ele>51.0</ele><time>2026-04-06T06:16:50.343Z</time></trkpt><trkpt lat="43.631685" lon="10.8451667"><ele>51.33333333333333</ele><time>2026-04-06T06:16:51.333Z</time></trkpt><trkpt lat="43.63171" lon="10.84505"><ele>51.666666666666664</ele><time>2026-04-06T06:16:52.335Z</time></trkpt><trkpt lat="43.6317417" lon="10.8449317"><ele>52.0</ele><time>2026-04-06T06:16:53.333Z</time></trkpt><trkpt lat="43.63178" lon="10.8448183"><ele>52.0</ele><time>2026-04-06T06:16:54.335Z</time></trkpt><trkpt lat="43.6318217" lon="10.844705"><ele>52.0</ele><time>2026-04-06T06:16:55.335Z</time></trkpt><trkpt lat="43.6318633" lon="10.84459"><ele>52.0</ele><time>2026-04-06T06:16:56.336Z</time></trkpt><trkpt lat="43.631905" lon="10.8444733"><ele>52.0</ele><time>2026-04-06T06:16:57.336Z</time></trkpt><trkpt lat="43.6319483" lon="10.8443567"><ele>52.0</ele><time>2026-04-06T06:16:58.34Z</time></trkpt><trkpt lat="43.6319917" lon="10.84424"><ele>51.2</ele><time>2026-04-06T06:16:59.338Z</time></trkpt><trkpt lat="43.632035" lon="10.8441267"><ele>50.400000000000006</ele><time>2026-04-06T06:17:00.338Z</time></trkpt><trkpt lat="43.6320833" lon="10.844015"><ele>49.599999999999994</ele><time>2026-04-06T06:17:01.339Z</time></trkpt><trkpt lat="43.6321367" lon="10.8439083"><ele>48.8</ele><time>2026-04-06T06:17:02.339Z</time></trkpt><trkpt lat="43.6322" lon="10.8438117"><ele>48.0</ele><time>2026-04-06T06:17:03.332Z</time></trkpt><trkpt lat="43.6322767" lon="10.843725"><ele>48.0</ele><time>2026-04-06T06:17:04.339Z</time></trkpt><trkpt lat="43.6323567" lon="10.843645"><ele>48.0</ele><time>2026-04-06T06:17:05.335Z</time></trkpt><trkpt lat="43.6324383" lon="10.843565"><ele>48.0</ele><time>2026-04-06T06:17:06.334Z</time></trkpt><trkpt lat="43.63252" lon="10.8434867"><ele>48.0</ele><time>2026-04-06T06:17:07.334Z</time></trkpt><trkpt lat="43.6326033" lon="10.8434083"><ele>48.0</ele><time>2026-04-06T06:17:08.334Z</time></trkpt><trkpt lat="43.6326883" lon="10.8433283"><ele>47.75</ele><time>2026-04-06T06:17:09.336Z</time></trkpt><trkpt lat="43.632845" lon="10.843165"><ele>47.5</ele><time>2026-04-06T06:17:11.335Z</time></trkpt><trkpt lat="43.6329167" lon="10.8430833"><ele>47.25</ele><time>2026-04-06T06:17:12.333Z</time></trkpt><trkpt lat="43.6329867" lon="10.8430033"><ele>47.0</ele><time>2026-04-06T06:17:13.333Z</time></trkpt><trkpt lat="43.63306" lon="10.8429267"><ele>47.0</ele><time>2026-04-06T06:17:14.334Z</time></trkpt><trkpt lat="43.633135" lon="10.8428533"><ele>47.0</ele><time>2026-04-06T06:17:15.333Z</time></trkpt><trkpt lat="43.63321" lon="10.8427783"><ele>47.0</ele><time>2026-04-06T06:17:16.334Z</time></trkpt><trkpt lat="43.633285" lon="10.842705"><ele>47.0</ele><time>2026-04-06T06:17:17.334Z</time></trkpt><trkpt lat="43.63336" lon="10.8426283"><ele>47.0</ele><time>2026-04-06T06:17:18.334Z</time></trkpt><trkpt lat="43.6334367" lon="10.84255"><ele>46.8</ele><time>2026-04-06T06:17:19.333Z</time></trkpt><trkpt lat="43.63351" lon="10.8424733"><ele>46.6</ele><time>2026-04-06T06:17:20.334Z</time></trkpt><trkpt lat="43.6335867" lon="10.8423983"><ele>46.4</ele><time>2026-04-06T06:17:21.333Z</time></trkpt><trkpt lat="43.6336633" lon="10.842325"><ele>46.199999999999996</ele><time>2026-04-06T06:17:22.332Z</time></trkpt><trkpt lat="43.6337433" lon="10.842255"><ele>46.0</ele><time>2026-04-06T06:17:23.334Z</time></trkpt><trkpt lat="43.6338267" lon="10.8421883"><ele>46.0</ele><time>2026-04-06T06:17:24.333Z</time></trkpt><trkpt lat="43.633915" lon="10.842125"><ele>46.0</ele><time>2026-04-06T06:17:25.335Z</time></trkpt><trkpt lat="43.634005" lon="10.8420733"><ele>46.0</ele><time>2026-04-06T06:17:26.334Z</time></trkpt><trkpt lat="43.6340933" lon="10.842025"><ele>46.0</ele><time>2026-04-06T06:17:27.333Z</time></trkpt><trkpt lat="43.6341783" lon="10.8419833"><ele>46.0</ele><time>2026-04-06T06:17:28.334Z</time></trkpt><trkpt lat="43.6342633" lon="10.8419433"><ele>46.0</ele><time>2026-04-06T06:17:29.335Z</time></trkpt><trkpt lat="43.6343483" lon="10.8419067"><ele>46.0</ele><time>2026-04-06T06:17:30.336Z</time></trkpt><trkpt lat="43.6344333" lon="10.841865"><ele>46.0</ele><time>2026-04-06T06:17:31.332Z</time></trkpt><trkpt lat="43.63452" lon="10.84182"><ele>46.0</ele><time>2026-04-06T06:17:32.339Z</time></trkpt><trkpt lat="43.634605" lon="10.8417683"><ele>46.0</ele><time>2026-04-06T06:17:33.334Z</time></trkpt><trkpt lat="43.6346867" lon="10.841715"><ele>46.16666666666667</ele><time>2026-04-06T06:17:34.333Z</time></trkpt><trkpt lat="43.6347617" lon="10.841655"><ele>46.333333333333336</ele><time>2026-04-06T06:17:35.336Z</time></trkpt><trkpt lat="43.6348283" lon="10.84159"><ele>46.5</ele><time>2026-04-06T06:17:36.334Z</time></trkpt><trkpt lat="43.63489" lon="10.8415317"><ele>46.666666666666664</ele><time>2026-04-06T06:17:37.334Z</time></trkpt><trkpt lat="43.6349417" lon="10.8414783"><ele>46.83333333333333</ele><time>2026-04-06T06:17:38.334Z</time></trkpt><trkpt lat="43.6350317" lon="10.8413783"><ele>47.0</ele><time>2026-04-06T06:17:40.333Z</time></trkpt><trkpt lat="43.635125" lon="10.8412767"><ele>47.0</ele><time>2026-04-06T06:17:42.333Z</time></trkpt><trkpt lat="43.635225" lon="10.84117"><ele>47.0</ele><time>2026-04-06T06:17:44.334Z</time></trkpt><trkpt lat="43.6352767" lon="10.8411167"><ele>47.0</ele><time>2026-04-06T06:17:45.336Z</time></trkpt><trkpt lat="43.6353283" lon="10.8410583"><ele>47.0</ele><time>2026-04-06T06:17:46.332Z</time></trkpt><trkpt lat="43.6353817" lon="10.8409983"><ele>47.0</ele><time>2026-04-06T06:17:47.333Z</time></trkpt><trkpt lat="43.6354383" lon="10.8409383"><ele>47.0</ele><time>2026-04-06T06:17:48.338Z</time></trkpt><trkpt lat="43.6354967" lon="10.8408783"><ele>47.0</ele><time>2026-04-06T06:17:49.334Z</time></trkpt><trkpt lat="43.6355567" lon="10.84082"><ele>47.0</ele><time>2026-04-06T06:17:50.334Z</time></trkpt><trkpt lat="43.635615" lon="10.8407633"><ele>47.0</ele><time>2026-04-06T06:17:51.335Z</time></trkpt><trkpt lat="43.6356717" lon="10.8407067"><ele>47.0</ele><time>2026-04-06T06:17:52.334Z</time></trkpt><trkpt lat="43.635725" lon="10.84065"><ele>47.0</ele><time>2026-04-06T06:17:53.334Z</time></trkpt><trkpt lat="43.6357783" lon="10.8405917"><ele>47.0</ele><time>2026-04-06T06:17:54.335Z</time></trkpt><trkpt lat="43.63583" lon="10.840535"><ele>47.0</ele><time>2026-04-06T06:17:55.334Z</time></trkpt><trkpt lat="43.63588" lon="10.840475"><ele>47.0</ele><time>2026-04-06T06:17:56.336Z</time></trkpt><trkpt lat="43.6359333" lon="10.840415"><ele>47.0</ele><time>2026-04-06T06:17:57.333Z</time></trkpt><trkpt lat="43.63599" lon="10.8403567"><ele>47.0</ele><time>2026-04-06T06:17:58.333Z</time></trkpt><trkpt lat="43.636045" lon="10.840295"><ele>47.0</ele><time>2026-04-06T06:17:59.333Z</time></trkpt><trkpt lat="43.6361" lon="10.8402383"><ele>47.0</ele><time>2026-04-06T06:18:00.333Z</time></trkpt><trkpt lat="43.6361517" lon="10.8401883"><ele>47.0</ele><time>2026-04-06T06:18:01.335Z</time></trkpt><trkpt lat="43.6362283" lon="10.8401183"><ele>47.0</ele><time>2026-04-06T06:18:03.334Z</time></trkpt><trkpt lat="43.6363283" lon="10.8400383"><ele>46.8</ele><time>2026-04-06T06:18:50.339Z</time></trkpt><trkpt lat="43.6363883" lon="10.8399783"><ele>46.6</ele><time>2026-04-06T06:18:52.34Z</time></trkpt><trkpt lat="43.6364717" lon="10.8399117"><ele>46.4</ele><time>2026-04-06T06:18:54.34Z</time></trkpt><trkpt lat="43.6365633" lon="10.839825"><ele>46.199999999999996</ele><time>2026-04-06T06:18:56.337Z</time></trkpt><trkpt lat="43.6366683" lon="10.839735"><ele>46.0</ele><time>2026-04-06T06:18:58.335Z</time></trkpt><trkpt lat="43.6367733" lon="10.83965"><ele>46.0</ele><time>2026-04-06T06:19:00.336Z</time></trkpt><trkpt lat="43.6368283" lon="10.8396067"><ele>46.0</ele><time>2026-04-06T06:19:01.338Z</time></trkpt><trkpt lat="43.636885" lon="10.839565"><ele>46.0</ele><time>2026-04-06T06:19:02.337Z</time></trkpt><trkpt lat="43.6369433" lon="10.83952"><ele>46.0</ele><time>2026-04-06T06:19:03.337Z</time></trkpt><trkpt lat="43.6370033" lon="10.839475"><ele>46.0</ele><time>2026-04-06T06:19:04.336Z</time></trkpt><trkpt lat="43.637065" lon="10.8394233"><ele>46.0</ele><time>2026-04-06T06:19:05.342Z</time></trkpt><trkpt lat="43.6371283" lon="10.839375"><ele>46.0</ele><time>2026-04-06T06:19:06.338Z</time></trkpt><trkpt lat="43.63719" lon="10.8393217"><ele>46.285714285714285</ele><time>2026-04-06T06:19:07.339Z</time></trkpt><trkpt lat="43.63725" lon="10.8392717"><ele>46.57142857142857</ele><time>2026-04-06T06:19:08.338Z</time></trkpt><trkpt lat="43.6373133" lon="10.8392217"><ele>46.857142857142854</ele><time>2026-04-06T06:19:09.335Z</time></trkpt><trkpt lat="43.6373767" lon="10.8391733"><ele>47.14285714285714</ele><time>2026-04-06T06:19:10.339Z</time></trkpt><trkpt lat="43.63744" lon="10.8391217"><ele>47.42857142857143</ele><time>2026-04-06T06:19:11.34Z</time></trkpt><trkpt lat="43.637505" lon="10.8390683"><ele>47.71428571428571</ele><time>2026-04-06T06:19:12.336Z</time></trkpt><trkpt lat="43.63757" lon="10.8390167"><ele>48.0</ele><time>2026-04-06T06:19:13.34Z</time></trkpt><trkpt lat="43.6376367" lon="10.8389633"><ele>48.0</ele><time>2026-04-06T06:19:14.337Z</time></trkpt><trkpt lat="43.6377" lon="10.838905"><ele>48.0</ele><time>2026-04-06T06:19:15.338Z</time></trkpt><trkpt lat="43.6377617" lon="10.8388417"><ele>48.0</ele><time>2026-04-06T06:19:16.339Z</time></trkpt><trkpt lat="43.6378167" lon="10.8387717"><ele>48.0</ele><time>2026-04-06T06:19:17.338Z</time></trkpt><trkpt lat="43.6378717" lon="10.8386917"><ele>48.0</ele><time>2026-04-06T06:19:18.338Z</time></trkpt><trkpt lat="43.6379217" lon="10.8386067"><ele>48.0</ele><time>2026-04-06T06:19:19.336Z</time></trkpt><trkpt lat="43.63797" lon="10.8385167"><ele>48.166666666666664</ele><time>2026-04-06T06:19:20.342Z</time></trkpt><trkpt lat="43.6380183" lon="10.8384283"><ele>48.33333333333333</ele><time>2026-04-06T06:19:21.342Z</time></trkpt><trkpt lat="43.638065" lon="10.83834"><ele>48.5</ele><time>2026-04-06T06:19:22.335Z</time></trkpt><trkpt lat="43.638115" lon="10.8382517"><ele>48.666666666666664</ele><time>2026-04-06T06:19:23.341Z</time></trkpt><trkpt lat="43.6381617" lon="10.8381617"><ele>48.83333333333333</ele><time>2026-04-06T06:19:24.339Z</time></trkpt><trkpt lat="43.6382117" lon="10.83807"><ele>49.0</ele><time>2026-04-06T06:19:25.338Z</time></trkpt><trkpt lat="43.6382617" lon="10.8379733"><ele>48.99999999999999</ele><time>2026-04-06T06:19:26.339Z</time></trkpt><trkpt lat="43.638305" lon="10.8378717"><ele>49.0</ele><time>2026-04-06T06:19:27.334Z</time></trkpt><trkpt lat="43.6383433" lon="10.8377633"><ele>49.0</ele><time>2026-04-06T06:19:28.341Z</time></trkpt><trkpt lat="43.6383817" lon="10.8376517"><ele>49.0</ele><time>2026-04-06T06:19:29.34Z</time></trkpt><trkpt lat="43.6384233" lon="10.8375433"><ele>48.99999999999999</ele><time>2026-04-06T06:19:30.338Z</time></trkpt><trkpt lat="43.6384667" lon="10.837435"><ele>49.0</ele><time>2026-04-06T06:19:31.338Z</time></trkpt><trkpt lat="43.63851" lon="10.8373283"><ele>49.83333333333333</ele><time>2026-04-06T06:19:32.338Z</time></trkpt><trkpt lat="43.6385517" lon="10.83723"><ele>50.666666666666664</ele><time>2026-04-06T06:19:33.341Z</time></trkpt><trkpt lat="43.6385933" lon="10.8371367"><ele>51.5</ele><time>2026-04-06T06:19:34.339Z</time></trkpt><trkpt lat="43.6386333" lon="10.8370417"><ele>52.33333333333333</ele><time>2026-04-06T06:19:35.342Z</time></trkpt><trkpt lat="43.6386733" lon="10.83694"><ele>53.166666666666664</ele><time>2026-04-06T06:19:36.339Z</time></trkpt><trkpt lat="43.63871" lon="10.8368367"><ele>54.0</ele><time>2026-04-06T06:19:37.34Z</time></trkpt><trkpt lat="43.6387417" lon="10.8367383"><ele>52.57142857142857</ele><time>2026-04-06T06:19:38.337Z</time></trkpt><trkpt lat="43.6387733" lon="10.8366433"><ele>51.14285714285714</ele><time>2026-04-06T06:19:39.337Z</time></trkpt><trkpt lat="43.6388017" lon="10.8365483"><ele>49.714285714285715</ele><time>2026-04-06T06:19:40.34Z</time></trkpt><trkpt lat="43.63883" lon="10.83646"><ele>48.285714285714285</ele><time>2026-04-06T06:19:41.338Z</time></trkpt><trkpt lat="43.63886" lon="10.8363633"><ele>46.857142857142854</ele><time>2026-04-06T06:19:42.338Z</time></trkpt><trkpt lat="43.63889" lon="10.836265"><ele>45.42857142857143</ele><time>2026-04-06T06:19:43.341Z</time></trkpt><trkpt lat="43.6389167" lon="10.8361667"><ele>44.0</ele><time>2026-04-06T06:19:44.339Z</time></trkpt><trkpt lat="43.6389467" lon="10.8360633"><ele>44.33333333333333</ele><time>2026-04-06T06:19:45.339Z</time></trkpt><trkpt lat="43.6389767" lon="10.8359583"><ele>44.666666666666664</ele><time>2026-04-06T06:19:46.338Z</time></trkpt><trkpt lat="43.6390083" lon="10.8358517"><ele>45.0</ele><time>2026-04-06T06:19:47.34Z</time></trkpt><trkpt lat="43.63904" lon="10.8357417"><ele>45.333333333333336</ele><time>2026-04-06T06:19:48.336Z</time></trkpt><trkpt lat="43.6390767" lon="10.8356333"><ele>45.66666666666667</ele><time>2026-04-06T06:19:49.345Z</time></trkpt><trkpt lat="43.6391183" lon="10.8355267"><ele>46.0</ele><time>2026-04-06T06:19:50.339Z</time></trkpt><trkpt lat="43.63916" lon="10.83542"><ele>46.0</ele><time>2026-04-06T06:19:51.342Z</time></trkpt><trkpt lat="43.6392033" lon="10.83531"><ele>46.0</ele><time>2026-04-06T06:19:52.34Z</time></trkpt><trkpt lat="43.6392483" lon="10.8352033"><ele>46.0</ele><time>2026-04-06T06:19:53.338Z</time></trkpt><trkpt lat="43.6392917" lon="10.8351017"><ele>46.0</ele><time>2026-04-06T06:19:54.337Z</time></trkpt><trkpt lat="43.6393383" lon="10.835005"><ele>46.0</ele><time>2026-04-06T06:19:55.338Z</time></trkpt><trkpt lat="43.63938" lon="10.834915"><ele>46.0</ele><time>2026-04-06T06:19:56.339Z</time></trkpt><trkpt lat="43.6394183" lon="10.8348383"><ele>45.599999999999994</ele><time>2026-04-06T06:19:57.339Z</time></trkpt><trkpt lat="43.6394683" lon="10.8347067"><ele>45.2</ele><time>2026-04-06T06:19:59.338Z</time></trkpt><trkpt lat="43.6395017" lon="10.8346267"><ele>44.8</ele><time>2026-04-06T06:20:01.335Z</time></trkpt><trkpt lat="43.63954" lon="10.8345367"><ele>44.400000000000006</ele><time>2026-04-06T06:20:03.336Z</time></trkpt><trkpt lat="43.6396" lon="10.8344333"><ele>44.0</ele><time>2026-04-06T06:20:05.339Z</time></trkpt><trkpt lat="43.6396633" lon="10.8342867"><ele>43.83333333333333</ele><time>2026-04-06T06:20:07.34Z</time></trkpt><trkpt lat="43.63973" lon="10.8341333"><ele>43.666666666666664</ele><time>2026-04-06T06:20:09.339Z</time></trkpt><trkpt lat="43.6397717" lon="10.834045"><ele>43.5</ele><time>2026-04-06T06:20:10.337Z</time></trkpt><trkpt lat="43.6398117" lon="10.833955"><ele>43.333333333333336</ele><time>2026-04-06T06:20:11.337Z</time></trkpt><trkpt lat="43.639855" lon="10.8338633"><ele>43.16666666666667</ele><time>2026-04-06T06:20:12.335Z</time></trkpt><trkpt lat="43.6398967" lon="10.833775"><ele>43.0</ele><time>2026-04-06T06:20:13.335Z</time></trkpt><trkpt lat="43.6399333" lon="10.83369"><ele>43.0</ele><time>2026-04-06T06:20:14.335Z</time></trkpt><trkpt lat="43.63997" lon="10.8336133"><ele>43.0</ele><time>2026-04-06T06:20:15.338Z</time></trkpt><trkpt lat="43.6400067" lon="10.8335367"><ele>43.0</ele><time>2026-04-06T06:20:16.337Z</time></trkpt><trkpt lat="43.6400417" lon="10.8334617"><ele>43.0</ele><time>2026-04-06T06:20:17.338Z</time></trkpt><trkpt lat="43.640105" lon="10.8333333"><ele>43.0</ele><time>2026-04-06T06:20:19.336Z</time></trkpt><trkpt lat="43.6401617" lon="10.833235"><ele>43.0</ele><time>2026-04-06T06:20:21.339Z</time></trkpt><trkpt lat="43.6402267" lon="10.8331467"><ele>43.0</ele><time>2026-04-06T06:20:24.34Z</time></trkpt><trkpt lat="43.640245" lon="10.83305"><ele>43.0</ele><time>2026-04-06T06:20:26.339Z</time></trkpt><trkpt lat="43.6402333" lon="10.83292"><ele>43.0</ele><time>2026-04-06T06:20:28.348Z</time></trkpt><trkpt lat="43.6402017" lon="10.83276"><ele>43.0</ele><time>2026-04-06T06:20:30.334Z</time></trkpt><trkpt lat="43.6401883" lon="10.8326733"><ele>43.0</ele><time>2026-04-06T06:20:31.339Z</time></trkpt><trkpt lat="43.6401783" lon="10.83258"><ele>43.0</ele><time>2026-04-06T06:20:32.339Z</time></trkpt><trkpt lat="43.6401733" lon="10.8324817"><ele>43.0</ele><time>2026-04-06T06:20:33.338Z</time></trkpt><trkpt lat="43.6401667" lon="10.8323767"><ele>43.0</ele><time>2026-04-06T06:20:34.344Z</time></trkpt><trkpt lat="43.640165" lon="10.8322717"><ele>43.0</ele><time>2026-04-06T06:20:35.342Z</time></trkpt><trkpt lat="43.6401667" lon="10.8321667"><ele>43.0</ele><time>2026-04-06T06:20:36.338Z</time></trkpt><trkpt lat="43.6401717" lon="10.8320583"><ele>43.0</ele><time>2026-04-06T06:20:37.338Z</time></trkpt><trkpt lat="43.6401783" lon="10.83195"><ele>43.0</ele><time>2026-04-06T06:20:38.338Z</time></trkpt><trkpt lat="43.640185" lon="10.8318367"><ele>43.0</ele><time>2026-04-06T06:20:39.34Z</time></trkpt><trkpt lat="43.6401883" lon="10.8317233"><ele>43.0</ele><time>2026-04-06T06:20:40.347Z</time></trkpt><trkpt lat="43.6401933" lon="10.831605"><ele>43.0</ele><time>2026-04-06T06:20:41.34Z</time></trkpt><trkpt lat="43.6402017" lon="10.8314833"><ele>43.0</ele><time>2026-04-06T06:20:42.338Z</time></trkpt><trkpt lat="43.64021" lon="10.8313633"><ele>43.0</ele><time>2026-04-06T06:20:43.34Z</time></trkpt><trkpt lat="43.64022" lon="10.8312433"><ele>43.0</ele><time>2026-04-06T06:20:44.338Z</time></trkpt><trkpt lat="43.64023" lon="10.8311217"><ele>43.0</ele><time>2026-04-06T06:20:45.338Z</time></trkpt><trkpt lat="43.6402383" lon="10.8310033"><ele>43.0</ele><time>2026-04-06T06:20:46.339Z</time></trkpt><trkpt lat="43.640245" lon="10.8308833"><ele>43.0</ele><time>2026-04-06T06:20:47.337Z</time></trkpt><trkpt lat="43.6402517" lon="10.83076"><ele>43.0</ele><time>2026-04-06T06:20:48.344Z</time></trkpt><trkpt lat="43.6402583" lon="10.830635"><ele>43.0</ele><time>2026-04-06T06:20:49.339Z</time></trkpt><trkpt lat="43.6402683" lon="10.8305067"><ele>43.0</ele><time>2026-04-06T06:20:50.338Z</time></trkpt><trkpt lat="43.6402833" lon="10.83038"><ele>42.599999999999994</ele><time>2026-04-06T06:20:51.338Z</time></trkpt><trkpt lat="43.6403017" lon="10.83025"><ele>42.199999999999996</ele><time>2026-04-06T06:20:52.34Z</time></trkpt><trkpt lat="43.64032" lon="10.8301183"><ele>41.8</ele><time>2026-04-06T06:20:53.336Z</time></trkpt><trkpt lat="43.6403417" lon="10.8299883"><ele>41.4</ele><time>2026-04-06T06:20:54.341Z</time></trkpt><trkpt lat="43.640365" lon="10.8298567"><ele>41.0</ele><time>2026-04-06T06:20:55.338Z</time></trkpt><trkpt lat="43.6403883" lon="10.8297217"><ele>41.0</ele><time>2026-04-06T06:20:56.344Z</time></trkpt><trkpt lat="43.640415" lon="10.8295867"><ele>41.0</ele><time>2026-04-06T06:20:57.338Z</time></trkpt><trkpt lat="43.64044" lon="10.8294483"><ele>41.0</ele><time>2026-04-06T06:20:58.339Z</time></trkpt><trkpt lat="43.6404683" lon="10.8293117"><ele>41.0</ele><time>2026-04-06T06:20:59.337Z</time></trkpt><trkpt lat="43.640495" lon="10.8291733"><ele>41.0</ele><time>2026-04-06T06:21:00.337Z</time></trkpt><trkpt lat="43.6405217" lon="10.8290333"><ele>41.0</ele><time>2026-04-06T06:21:01.338Z</time></trkpt><trkpt lat="43.6405517" lon="10.8288933"><ele>41.0</ele><time>2026-04-06T06:21:02.339Z</time></trkpt><trkpt lat="43.6405817" lon="10.8287517"><ele>41.0</ele><time>2026-04-06T06:21:03.338Z</time></trkpt><trkpt lat="43.6406133" lon="10.82861"><ele>41.0</ele><time>2026-04-06T06:21:04.336Z</time></trkpt><trkpt lat="43.6406433" lon="10.8284683"><ele>41.0</ele><time>2026-04-06T06:21:05.338Z</time></trkpt><trkpt lat="43.6406717" lon="10.828325"><ele>41.0</ele><time>2026-04-06T06:21:06.336Z</time></trkpt><trkpt lat="43.6407" lon="10.8281817"><ele>41.0</ele><time>2026-04-06T06:21:07.338Z</time></trkpt><trkpt lat="43.6407267" lon="10.8280383"><ele>41.0</ele><time>2026-04-06T06:21:08.338Z</time></trkpt><trkpt lat="43.6407517" lon="10.8278967"><ele>41.0</ele><time>2026-04-06T06:21:09.337Z</time></trkpt><trkpt lat="43.6407717" lon="10.827755"><ele>41.0</ele><time>2026-04-06T06:21:10.336Z</time></trkpt><trkpt lat="43.6407883" lon="10.82761"><ele>41.0</ele><time>2026-04-06T06:21:11.338Z</time></trkpt><trkpt lat="43.6408017" lon="10.8274633"><ele>41.0</ele><time>2026-04-06T06:21:12.337Z</time></trkpt><trkpt lat="43.6408117" lon="10.827315"><ele>41.0</ele><time>2026-04-06T06:21:13.338Z</time></trkpt><trkpt lat="43.64082" lon="10.8271633"><ele>41.0</ele><time>2026-04-06T06:21:14.337Z</time></trkpt><trkpt lat="43.6408233" lon="10.82701"><ele>41.0</ele><time>2026-04-06T06:21:15.34Z</time></trkpt><trkpt lat="43.6408233" lon="10.8268583"><ele>40.8</ele><time>2026-04-06T06:21:16.337Z</time></trkpt><trkpt lat="43.6408217" lon="10.8267067"><ele>40.599999999999994</ele><time>2026-04-06T06:21:17.337Z</time></trkpt><trkpt lat="43.6408217" lon="10.8265533"><ele>40.4</ele><time>2026-04-06T06:21:18.343Z</time></trkpt><trkpt lat="43.64082" lon="10.8264017"><ele>40.2</ele><time>2026-04-06T06:21:19.334Z</time></trkpt><trkpt lat="43.6408183" lon="10.8262517"><ele>40.0</ele><time>2026-04-06T06:21:20.341Z</time></trkpt><trkpt lat="43.6408133" lon="10.8261"><ele>40.4</ele><time>2026-04-06T06:21:21.338Z</time></trkpt><trkpt lat="43.6408083" lon="10.8259483"><ele>40.8</ele><time>2026-04-06T06:21:22.336Z</time></trkpt><trkpt lat="43.6408033" lon="10.8257983"><ele>41.2</ele><time>2026-04-06T06:21:23.337Z</time></trkpt><trkpt lat="43.6407983" lon="10.8256483"><ele>41.6</ele><time>2026-04-06T06:21:24.34Z</time></trkpt><trkpt lat="43.6407933" lon="10.8254983"><ele>42.0</ele><time>2026-04-06T06:21:25.339Z</time></trkpt><trkpt lat="43.64079" lon="10.8253483"><ele>42.0</ele><time>2026-04-06T06:21:26.339Z</time></trkpt><trkpt lat="43.640785" lon="10.8251983"><ele>42.0</ele><time>2026-04-06T06:21:27.339Z</time></trkpt><trkpt lat="43.6407817" lon="10.8250467"><ele>42.0</ele><time>2026-04-06T06:21:28.339Z</time></trkpt><trkpt lat="43.6407783" lon="10.8248967"><ele>42.0</ele><time>2026-04-06T06:21:29.341Z</time></trkpt><trkpt lat="43.6407717" lon="10.824745"><ele>42.0</ele><time>2026-04-06T06:21:30.339Z</time></trkpt><trkpt lat="43.6407667" lon="10.8245917"><ele>42.0</ele><time>2026-04-06T06:21:31.339Z</time></trkpt><trkpt lat="43.6407617" lon="10.82444"><ele>42.0</ele><time>2026-04-06T06:21:32.34Z</time></trkpt><trkpt lat="43.6407567" lon="10.8242867"><ele>42.0</ele><time>2026-04-06T06:21:33.339Z</time></trkpt><trkpt lat="43.6407517" lon="10.8241333"><ele>42.0</ele><time>2026-04-06T06:21:34.337Z</time></trkpt><trkpt lat="43.640745" lon="10.823985"><ele>42.0</ele><time>2026-04-06T06:21:35.339Z</time></trkpt><trkpt lat="43.6407367" lon="10.8238417"><ele>41.8</ele><time>2026-04-06T06:21:36.338Z</time></trkpt><trkpt lat="43.6407317" lon="10.8237017"><ele>41.6</ele><time>2026-04-06T06:21:37.34Z</time></trkpt><trkpt lat="43.6407317" lon="10.8235633"><ele>41.4</ele><time>2026-04-06T06:21:38.337Z</time></trkpt><trkpt lat="43.64073" lon="10.823425"><ele>41.199999999999996</ele><time>2026-04-06T06:21:39.338Z</time></trkpt><trkpt lat="43.64073" lon="10.823285"><ele>41.0</ele><time>2026-04-06T06:21:40.339Z</time></trkpt><trkpt lat="43.64073" lon="10.823145"><ele>41.0</ele><time>2026-04-06T06:21:41.337Z</time></trkpt><trkpt lat="43.6407333" lon="10.82301"><ele>41.0</ele><time>2026-04-06T06:21:42.342Z</time></trkpt><trkpt lat="43.64074" lon="10.8228783"><ele>41.0</ele><time>2026-04-06T06:21:43.337Z</time></trkpt><trkpt lat="43.6407467" lon="10.82275"><ele>41.0</ele><time>2026-04-06T06:21:44.336Z</time></trkpt><trkpt lat="43.6407583" lon="10.8226183"><ele>41.0</ele><time>2026-04-06T06:21:45.338Z</time></trkpt><trkpt lat="43.6407767" lon="10.8224833"><ele>40.8</ele><time>2026-04-06T06:21:46.335Z</time></trkpt><trkpt lat="43.6408" lon="10.82235"><ele>40.599999999999994</ele><time>2026-04-06T06:21:47.338Z</time></trkpt><trkpt lat="43.6408267" lon="10.8222133"><ele>40.4</ele><time>2026-04-06T06:21:48.338Z</time></trkpt><trkpt lat="43.640855" lon="10.822075"><ele>40.2</ele><time>2026-04-06T06:21:49.339Z</time></trkpt><trkpt lat="43.6408883" lon="10.821935"><ele>40.0</ele><time>2026-04-06T06:21:50.336Z</time></trkpt><trkpt lat="43.6409233" lon="10.8217983"><ele>40.2</ele><time>2026-04-06T06:21:51.338Z</time></trkpt><trkpt lat="43.6409633" lon="10.8216633"><ele>40.4</ele><time>2026-04-06T06:21:52.337Z</time></trkpt><trkpt lat="43.6410067" lon="10.8215333"><ele>40.599999999999994</ele><time>2026-04-06T06:21:53.338Z</time></trkpt><trkpt lat="43.6410517" lon="10.8214067"><ele>40.8</ele><time>2026-04-06T06:21:54.34Z</time></trkpt><trkpt lat="43.6411" lon="10.8212833"><ele>41.0</ele><time>2026-04-06T06:21:55.336Z</time></trkpt><trkpt lat="43.64115" lon="10.8211633"><ele>41.0</ele><time>2026-04-06T06:21:56.337Z</time></trkpt><trkpt lat="43.6412033" lon="10.821045"><ele>41.0</ele><time>2026-04-06T06:21:57.338Z</time></trkpt><trkpt lat="43.64126" lon="10.82093"><ele>41.0</ele><time>2026-04-06T06:21:58.34Z</time></trkpt><trkpt lat="43.6413217" lon="10.8208183"><ele>41.0</ele><time>2026-04-06T06:21:59.34Z</time></trkpt><trkpt lat="43.641385" lon="10.8207067"><ele>41.0</ele><time>2026-04-06T06:22:00.338Z</time></trkpt><trkpt lat="43.6414467" lon="10.8205967"><ele>40.8</ele><time>2026-04-06T06:22:01.34Z</time></trkpt><trkpt lat="43.64151" lon="10.820485"><ele>40.599999999999994</ele><time>2026-04-06T06:22:02.338Z</time></trkpt><trkpt lat="43.6415783" lon="10.8203767"><ele>40.4</ele><time>2026-04-06T06:22:03.338Z</time></trkpt><trkpt lat="43.641655" lon="10.8202717"><ele>40.2</ele><time>2026-04-06T06:22:04.339Z</time></trkpt><trkpt lat="43.6417317" lon="10.8201717"><ele>40.0</ele><time>2026-04-06T06:22:05.338Z</time></trkpt><trkpt lat="43.6418083" lon="10.82007"><ele>39.8</ele><time>2026-04-06T06:22:06.338Z</time></trkpt><trkpt lat="43.6418783" lon="10.819965"><ele>39.6</ele><time>2026-04-06T06:22:07.336Z</time></trkpt><trkpt lat="43.6419517" lon="10.81986"><ele>39.4</ele><time>2026-04-06T06:22:08.339Z</time></trkpt><trkpt lat="43.642025" lon="10.8197533"><ele>39.2</ele><time>2026-04-06T06:22:09.337Z</time></trkpt><trkpt lat="43.6420983" lon="10.8196483"><ele>39.0</ele><time>2026-04-06T06:22:10.344Z</time></trkpt><trkpt lat="43.6421733" lon="10.8195433"><ele>39.0</ele><time>2026-04-06T06:22:11.338Z</time></trkpt><trkpt lat="43.6422483" lon="10.8194367"><ele>39.0</ele><time>2026-04-06T06:22:12.346Z</time></trkpt><trkpt lat="43.642325" lon="10.8193317"><ele>39.0</ele><time>2026-04-06T06:22:13.34Z</time></trkpt><trkpt lat="43.6424017" lon="10.81922"><ele>39.0</ele><time>2026-04-06T06:22:14.344Z</time></trkpt><trkpt lat="43.6424767" lon="10.81911"><ele>39.0</ele><time>2026-04-06T06:22:15.341Z</time></trkpt><trkpt lat="43.6425517" lon="10.8189967"><ele>39.0</ele><time>2026-04-06T06:22:16.338Z</time></trkpt><trkpt lat="43.6426267" lon="10.818885"><ele>39.0</ele><time>2026-04-06T06:22:17.339Z</time></trkpt><trkpt lat="43.642705" lon="10.818775"><ele>39.0</ele><time>2026-04-06T06:22:18.344Z</time></trkpt><trkpt lat="43.6427867" lon="10.818665"><ele>39.0</ele><time>2026-04-06T06:22:19.338Z</time></trkpt><trkpt lat="43.64287" lon="10.8185617"><ele>39.0</ele><time>2026-04-06T06:22:20.338Z</time></trkpt><trkpt lat="43.6429567" lon="10.81846"><ele>39.0</ele><time>2026-04-06T06:22:21.338Z</time></trkpt><trkpt lat="43.64305" lon="10.818365"><ele>39.0</ele><time>2026-04-06T06:22:22.336Z</time></trkpt><trkpt lat="43.6431467" lon="10.818275"><ele>39.0</ele><time>2026-04-06T06:22:23.335Z</time></trkpt><trkpt lat="43.6432383" lon="10.81819"><ele>39.0</ele><time>2026-04-06T06:22:24.338Z</time></trkpt><trkpt lat="43.6433283" lon="10.81811"><ele>39.0</ele><time>2026-04-06T06:22:25.339Z</time></trkpt><trkpt lat="43.6434183" lon="10.8180317"><ele>39.0</ele><time>2026-04-06T06:22:26.34Z</time></trkpt><trkpt lat="43.6435083" lon="10.8179533"><ele>39.0</ele><time>2026-04-06T06:22:27.338Z</time></trkpt><trkpt lat="43.6435983" lon="10.817875"><ele>39.0</ele><time>2026-04-06T06:22:28.339Z</time></trkpt><trkpt lat="43.6436867" lon="10.8177967"><ele>39.0</ele><time>2026-04-06T06:22:29.342Z</time></trkpt><trkpt lat="43.643775" lon="10.8177133"><ele>39.5</ele><time>2026-04-06T06:22:30.339Z</time></trkpt><trkpt lat="43.64386" lon="10.8176233"><ele>40.0</ele><time>2026-04-06T06:22:31.338Z</time></trkpt><trkpt lat="43.644015" lon="10.817415"><ele>40.5</ele><time>2026-04-06T06:22:33.337Z</time></trkpt><trkpt lat="43.6440833" lon="10.817305"><ele>41.0</ele><time>2026-04-06T06:22:34.339Z</time></trkpt><trkpt lat="43.6441433" lon="10.817195"><ele>41.0</ele><time>2026-04-06T06:22:35.338Z</time></trkpt><trkpt lat="43.6442017" lon="10.817085"><ele>41.0</ele><time>2026-04-06T06:22:36.339Z</time></trkpt><trkpt lat="43.644255" lon="10.81697"><ele>41.0</ele><time>2026-04-06T06:22:37.338Z</time></trkpt><trkpt lat="43.644305" lon="10.81685"><ele>41.0</ele><time>2026-04-06T06:22:38.338Z</time></trkpt><trkpt lat="43.6443467" lon="10.8167267"><ele>41.0</ele><time>2026-04-06T06:22:39.337Z</time></trkpt><trkpt lat="43.644385" lon="10.8166033"><ele>41.0</ele><time>2026-04-06T06:22:40.338Z</time></trkpt><trkpt lat="43.6444233" lon="10.8164767"><ele>41.0</ele><time>2026-04-06T06:22:41.339Z</time></trkpt><trkpt lat="43.644465" lon="10.81635"><ele>41.0</ele><time>2026-04-06T06:22:42.344Z</time></trkpt><trkpt lat="43.6445083" lon="10.8162233"><ele>41.0</ele><time>2026-04-06T06:22:43.339Z</time></trkpt><trkpt lat="43.6445517" lon="10.816095"><ele>41.0</ele><time>2026-04-06T06:22:44.339Z</time></trkpt><trkpt lat="43.6446" lon="10.8159667"><ele>41.0</ele><time>2026-04-06T06:22:45.338Z</time></trkpt><trkpt lat="43.6446467" lon="10.81584"><ele>41.0</ele><time>2026-04-06T06:22:46.341Z</time></trkpt><trkpt lat="43.6446917" lon="10.815715"><ele>41.0</ele><time>2026-04-06T06:22:47.338Z</time></trkpt><trkpt lat="43.6447367" lon="10.8155883"><ele>41.0</ele><time>2026-04-06T06:22:48.338Z</time></trkpt><trkpt lat="43.64478" lon="10.8154617"><ele>41.0</ele><time>2026-04-06T06:22:49.337Z</time></trkpt><trkpt lat="43.6448267" lon="10.8153367"><ele>41.0</ele><time>2026-04-06T06:22:50.338Z</time></trkpt><trkpt lat="43.6448683" lon="10.81521"><ele>41.0</ele><time>2026-04-06T06:22:51.338Z</time></trkpt><trkpt lat="43.64491" lon="10.8150833"><ele>41.0</ele><time>2026-04-06T06:22:52.338Z</time></trkpt><trkpt lat="43.644945" lon="10.81496"><ele>41.0</ele><time>2026-04-06T06:22:53.339Z</time></trkpt><trkpt lat="43.6449767" lon="10.8148383"><ele>41.0</ele><time>2026-04-06T06:22:54.338Z</time></trkpt><trkpt lat="43.6450017" lon="10.8147183"><ele>41.199999999999996</ele><time>2026-04-06T06:22:55.337Z</time></trkpt><trkpt lat="43.6450217" lon="10.8145967"><ele>41.4</ele><time>2026-04-06T06:22:56.336Z</time></trkpt><trkpt lat="43.6450417" lon="10.814475"><ele>41.6</ele><time>2026-04-06T06:22:57.336Z</time></trkpt><trkpt lat="43.6450583" lon="10.81435"><ele>41.8</ele><time>2026-04-06T06:22:58.337Z</time></trkpt><trkpt lat="43.6450767" lon="10.8142183"><ele>42.0</ele><time>2026-04-06T06:22:59.337Z</time></trkpt><trkpt lat="43.6451" lon="10.814085"><ele>42.0</ele><time>2026-04-06T06:23:00.339Z</time></trkpt><trkpt lat="43.6451283" lon="10.813955"><ele>42.0</ele><time>2026-04-06T06:23:01.337Z</time></trkpt><trkpt lat="43.6451667" lon="10.8138233"><ele>42.0</ele><time>2026-04-06T06:23:02.338Z</time></trkpt><trkpt lat="43.6452083" lon="10.8136933"><ele>42.0</ele><time>2026-04-06T06:23:03.336Z</time></trkpt><trkpt lat="43.6452517" lon="10.8135667"><ele>42.0</ele><time>2026-04-06T06:23:04.337Z</time></trkpt><trkpt lat="43.6452983" lon="10.8134383"><ele>41.6</ele><time>2026-04-06T06:23:05.338Z</time></trkpt><trkpt lat="43.64535" lon="10.813315"><ele>41.2</ele><time>2026-04-06T06:23:06.34Z</time></trkpt><trkpt lat="43.6454083" lon="10.8131967"><ele>40.8</ele><time>2026-04-06T06:23:07.334Z</time></trkpt><trkpt lat="43.6454683" lon="10.8130783"><ele>40.4</ele><time>2026-04-06T06:23:08.336Z</time></trkpt><trkpt lat="43.6455317" lon="10.8129567"><ele>40.0</ele><time>2026-04-06T06:23:09.337Z</time></trkpt><trkpt lat="43.6455933" lon="10.8128333"><ele>40.0</ele><time>2026-04-06T06:23:10.337Z</time></trkpt><trkpt lat="43.645655" lon="10.8127083"><ele>40.0</ele><time>2026-04-06T06:23:11.338Z</time></trkpt><trkpt lat="43.6457067" lon="10.8125733"><ele>40.0</ele><time>2026-04-06T06:23:12.341Z</time></trkpt><trkpt lat="43.6457517" lon="10.812435"><ele>40.0</ele><time>2026-04-06T06:23:13.338Z</time></trkpt><trkpt lat="43.6457917" lon="10.8122917"><ele>40.0</ele><time>2026-04-06T06:23:14.337Z</time></trkpt><trkpt lat="43.6458283" lon="10.8121467"><ele>40.4</ele><time>2026-04-06T06:23:15.34Z</time></trkpt><trkpt lat="43.6458633" lon="10.812005"><ele>40.8</ele><time>2026-04-06T06:23:16.339Z</time></trkpt><trkpt lat="43.6459017" lon="10.8118633"><ele>41.2</ele><time>2026-04-06T06:23:17.338Z</time></trkpt><trkpt lat="43.645945" lon="10.811725"><ele>41.6</ele><time>2026-04-06T06:23:18.337Z</time></trkpt><trkpt lat="43.6459917" lon="10.8115917"><ele>42.0</ele><time>2026-04-06T06:23:19.337Z</time></trkpt><trkpt lat="43.64604" lon="10.8114617"><ele>42.400000000000006</ele><time>2026-04-06T06:23:20.342Z</time></trkpt><trkpt lat="43.6460883" lon="10.8113367"><ele>42.800000000000004</ele><time>2026-04-06T06:23:21.339Z</time></trkpt><trkpt lat="43.64614" lon="10.8112217"><ele>43.2</ele><time>2026-04-06T06:23:22.338Z</time></trkpt><trkpt lat="43.646195" lon="10.8111167"><ele>43.6</ele><time>2026-04-06T06:23:23.338Z</time></trkpt><trkpt lat="43.646255" lon="10.8110167"><ele>44.0</ele><time>2026-04-06T06:23:24.342Z</time></trkpt><trkpt lat="43.6463167" lon="10.8109167"><ele>43.33333333333333</ele><time>2026-04-06T06:23:25.337Z</time></trkpt><trkpt lat="43.64638" lon="10.8108217"><ele>42.666666666666664</ele><time>2026-04-06T06:23:26.338Z</time></trkpt><trkpt lat="43.6464417" lon="10.8107333"><ele>42.0</ele><time>2026-04-06T06:23:27.341Z</time></trkpt><trkpt lat="43.6465" lon="10.8106467"><ele>41.333333333333336</ele><time>2026-04-06T06:23:28.337Z</time></trkpt><trkpt lat="43.6465567" lon="10.8105633"><ele>40.66666666666667</ele><time>2026-04-06T06:23:29.337Z</time></trkpt><trkpt lat="43.6466083" lon="10.8104833"><ele>40.0</ele><time>2026-04-06T06:23:30.335Z</time></trkpt><trkpt lat="43.64666" lon="10.8104067"><ele>40.0</ele><time>2026-04-06T06:23:31.337Z</time></trkpt><trkpt lat="43.6467083" lon="10.8103367"><ele>40.0</ele><time>2026-04-06T06:23:32.337Z</time></trkpt><trkpt lat="43.6467533" lon="10.8102717"><ele>40.0</ele><time>2026-04-06T06:23:33.337Z</time></trkpt><trkpt lat="43.6468" lon="10.8102083"><ele>40.0</ele><time>2026-04-06T06:23:34.339Z</time></trkpt><trkpt lat="43.646845" lon="10.8101467"><ele>40.0</ele><time>2026-04-06T06:23:35.338Z</time></trkpt><trkpt lat="43.6469267" lon="10.810045"><ele>40.0</ele><time>2026-04-06T06:23:37.342Z</time></trkpt><trkpt lat="43.6469717" lon="10.809975"><ele>40.0</ele><time>2026-04-06T06:23:39.339Z</time></trkpt><trkpt lat="43.647" lon="10.809885"><ele>40.4</ele><time>2026-04-06T06:23:47.337Z</time></trkpt><trkpt lat="43.64694" lon="10.8098167"><ele>40.8</ele><time>2026-04-06T06:23:49.342Z</time></trkpt><trkpt lat="43.6468667" lon="10.8097433"><ele>41.2</ele><time>2026-04-06T06:23:51.337Z</time></trkpt><trkpt lat="43.6467783" lon="10.8096717"><ele>41.6</ele><time>2026-04-06T06:23:53.339Z</time></trkpt><trkpt lat="43.6466733" lon="10.8095983"><ele>42.0</ele><time>2026-04-06T06:23:55.339Z</time></trkpt><trkpt lat="43.6465583" lon="10.8095117"><ele>42.0</ele><time>2026-04-06T06:23:57.34Z</time></trkpt><trkpt lat="43.6465" lon="10.8094633"><ele>42.0</ele><time>2026-04-06T06:23:58.337Z</time></trkpt><trkpt lat="43.6464483" lon="10.8094117"><ele>42.0</ele><time>2026-04-06T06:23:59.338Z</time></trkpt><trkpt lat="43.6463967" lon="10.809355"><ele>42.0</ele><time>2026-04-06T06:24:00.338Z</time></trkpt><trkpt lat="43.646345" lon="10.8093033"><ele>42.0</ele><time>2026-04-06T06:24:01.339Z</time></trkpt><trkpt lat="43.6462917" lon="10.80925"><ele>42.0</ele><time>2026-04-06T06:24:02.34Z</time></trkpt><trkpt lat="43.6462383" lon="10.8091967"><ele>42.0</ele><time>2026-04-06T06:24:03.34Z</time></trkpt><trkpt lat="43.6461867" lon="10.8091367"><ele>42.42857142857143</ele><time>2026-04-06T06:24:04.337Z</time></trkpt><trkpt lat="43.6461367" lon="10.809075"><ele>42.85714285714286</ele><time>2026-04-06T06:24:05.337Z</time></trkpt><trkpt lat="43.6460883" lon="10.8090117"><ele>43.285714285714285</ele><time>2026-04-06T06:24:06.343Z</time></trkpt><trkpt lat="43.64604" lon="10.8089483"><ele>43.714285714285715</ele><time>2026-04-06T06:24:07.34Z</time></trkpt><trkpt lat="43.6459883" lon="10.8088917"><ele>44.142857142857146</ele><time>2026-04-06T06:24:08.335Z</time></trkpt><trkpt lat="43.6459367" lon="10.808835"><ele>44.57142857142857</ele><time>2026-04-06T06:24:09.337Z</time></trkpt><trkpt lat="43.645885" lon="10.808775"><ele>45.0</ele><time>2026-04-06T06:24:10.337Z</time></trkpt><trkpt lat="43.6458367" lon="10.8087117"><ele>46.0</ele><time>2026-04-06T06:24:11.338Z</time></trkpt><trkpt lat="43.6457867" lon="10.8086483"><ele>47.0</ele><time>2026-04-06T06:24:12.339Z</time></trkpt><trkpt lat="43.6457367" lon="10.8085883"><ele>48.0</ele><time>2026-04-06T06:24:13.339Z</time></trkpt><trkpt lat="43.6456817" lon="10.8085283"><ele>49.0</ele><time>2026-04-06T06:24:14.34Z</time></trkpt><trkpt lat="43.6456233" lon="10.8084667"><ele>50.0</ele><time>2026-04-06T06:24:15.337Z</time></trkpt><trkpt lat="43.6455617" lon="10.808405"><ele>51.0</ele><time>2026-04-06T06:24:16.339Z</time></trkpt><trkpt lat="43.6454967" lon="10.808345"><ele>52.0</ele><time>2026-04-06T06:24:17.336Z</time></trkpt><trkpt lat="43.6454317" lon="10.8082817"><ele>52.166666666666664</ele><time>2026-04-06T06:24:18.348Z</time></trkpt><trkpt lat="43.6453633" lon="10.808215"><ele>52.33333333333333</ele><time>2026-04-06T06:24:19.337Z</time></trkpt><trkpt lat="43.6452933" lon="10.8081533"><ele>52.5</ele><time>2026-04-06T06:24:20.337Z</time></trkpt><trkpt lat="43.64523" lon="10.8080983"><ele>52.66666666666667</ele><time>2026-04-06T06:24:21.337Z</time></trkpt><trkpt lat="43.645165" lon="10.80804"><ele>52.833333333333336</ele><time>2026-04-06T06:24:22.337Z</time></trkpt><trkpt lat="43.6450983" lon="10.8079833"><ele>53.0</ele><time>2026-04-06T06:24:23.342Z</time></trkpt><trkpt lat="43.6450283" lon="10.80793"><ele>53.50000000000001</ele><time>2026-04-06T06:24:24.337Z</time></trkpt><trkpt lat="43.6449583" lon="10.8078783"><ele>54.0</ele><time>2026-04-06T06:24:25.334Z</time></trkpt><trkpt lat="43.644885" lon="10.8078233"><ele>54.5</ele><time>2026-04-06T06:24:26.34Z</time></trkpt><trkpt lat="43.6448117" lon="10.8077667"><ele>55.0</ele><time>2026-04-06T06:24:27.339Z</time></trkpt><trkpt lat="43.644735" lon="10.8077133"><ele>55.50000000000001</ele><time>2026-04-06T06:24:28.348Z</time></trkpt><trkpt lat="43.6446533" lon="10.80766"><ele>56.0</ele><time>2026-04-06T06:24:29.342Z</time></trkpt><trkpt lat="43.6445717" lon="10.8076067"><ele>56.0</ele><time>2026-04-06T06:24:30.348Z</time></trkpt><trkpt lat="43.6444867" lon="10.8075567"><ele>55.99999999999999</ele><time>2026-04-06T06:24:31.339Z</time></trkpt><trkpt lat="43.6444" lon="10.8075117"><ele>55.99999999999999</ele><time>2026-04-06T06:24:32.341Z</time></trkpt><trkpt lat="43.6443117" lon="10.8074683"><ele>56.0</ele><time>2026-04-06T06:24:33.338Z</time></trkpt><trkpt lat="43.6442267" lon="10.8074233"><ele>56.0</ele><time>2026-04-06T06:24:34.339Z</time></trkpt><trkpt lat="43.6441467" lon="10.80738"><ele>57.16666666666667</ele><time>2026-04-06T06:24:35.338Z</time></trkpt><trkpt lat="43.644065" lon="10.8073367"><ele>58.333333333333336</ele><time>2026-04-06T06:24:36.338Z</time></trkpt><trkpt lat="43.6439833" lon="10.8072933"><ele>59.5</ele><time>2026-04-06T06:24:37.34Z</time></trkpt><trkpt lat="43.6439" lon="10.807255"><ele>60.66666666666667</ele><time>2026-04-06T06:24:38.34Z</time></trkpt><trkpt lat="43.6438183" lon="10.807215"><ele>61.833333333333336</ele><time>2026-04-06T06:24:39.34Z</time></trkpt><trkpt lat="43.6437367" lon="10.8071717"><ele>63.0</ele><time>2026-04-06T06:24:40.349Z</time></trkpt><trkpt lat="43.6435783" lon="10.807095"><ele>65.0</ele><time>2026-04-06T06:24:42.341Z</time></trkpt><trkpt lat="43.6435017" lon="10.8070567"><ele>67.0</ele><time>2026-04-06T06:24:43.338Z</time></trkpt><trkpt lat="43.6434267" lon="10.8070217"><ele>69.0</ele><time>2026-04-06T06:24:44.341Z</time></trkpt><trkpt lat="43.6433567" lon="10.8069883"><ele>71.0</ele><time>2026-04-06T06:24:45.34Z</time></trkpt><trkpt lat="43.64329" lon="10.806955"><ele>73.0</ele><time>2026-04-06T06:24:46.338Z</time></trkpt><trkpt lat="43.643225" lon="10.80692"><ele>75.0</ele><time>2026-04-06T06:24:47.339Z</time></trkpt><trkpt lat="43.64316" lon="10.8068833"><ele>77.0</ele><time>2026-04-06T06:24:48.339Z</time></trkpt><trkpt lat="43.6430967" lon="10.8068483"><ele>77.0</ele><time>2026-04-06T06:24:49.337Z</time></trkpt><trkpt lat="43.6430367" lon="10.80681"><ele>77.0</ele><time>2026-04-06T06:24:50.338Z</time></trkpt><trkpt lat="43.642975" lon="10.8067667"><ele>77.0</ele><time>2026-04-06T06:24:51.342Z</time></trkpt><trkpt lat="43.6429133" lon="10.806715"><ele>77.0</ele><time>2026-04-06T06:24:52.338Z</time></trkpt><trkpt lat="43.6428617" lon="10.806655"><ele>77.0</ele><time>2026-04-06T06:24:53.341Z</time></trkpt><trkpt lat="43.6428217" lon="10.80657"><ele>77.0</ele><time>2026-04-06T06:24:54.342Z</time></trkpt><trkpt lat="43.642795" lon="10.8064683"><ele>77.0</ele><time>2026-04-06T06:24:55.362Z</time></trkpt><trkpt lat="43.64278" lon="10.80636"><ele>77.0</ele><time>2026-04-06T06:24:56.348Z</time></trkpt><trkpt lat="43.6427717" lon="10.806245"><ele>77.0</ele><time>2026-04-06T06:24:57.35Z</time></trkpt><trkpt lat="43.6427767" lon="10.8061217"><ele>77.0</ele><time>2026-04-06T06:24:58.337Z</time></trkpt><trkpt lat="43.64279" lon="10.8059933"><ele>77.0</ele><time>2026-04-06T06:24:59.339Z</time></trkpt><trkpt lat="43.6428083" lon="10.80586"><ele>77.0</ele><time>2026-04-06T06:25:00.341Z</time></trkpt><trkpt lat="43.6428233" lon="10.805725"><ele>79.6</ele><time>2026-04-06T06:25:01.341Z</time></trkpt><trkpt lat="43.6428383" lon="10.805585"><ele>82.2</ele><time>2026-04-06T06:25:02.345Z</time></trkpt><trkpt lat="43.64285" lon="10.8054417"><ele>84.8</ele><time>2026-04-06T06:25:03.339Z</time></trkpt><trkpt lat="43.6428683" lon="10.8052967"><ele>87.4</ele><time>2026-04-06T06:25:04.337Z</time></trkpt><trkpt lat="43.642885" lon="10.80516"><ele>90.0</ele><time>2026-04-06T06:25:05.34Z</time></trkpt><trkpt lat="43.6428983" lon="10.8050217"><ele>90.0</ele><time>2026-04-06T06:25:06.338Z</time></trkpt><trkpt lat="43.642915" lon="10.804885"><ele>90.0</ele><time>2026-04-06T06:25:07.337Z</time></trkpt><trkpt lat="43.64294" lon="10.8047533"><ele>90.0</ele><time>2026-04-06T06:25:08.338Z</time></trkpt><trkpt lat="43.6429733" lon="10.8046233"><ele>90.0</ele><time>2026-04-06T06:25:09.338Z</time></trkpt><trkpt lat="43.6430117" lon="10.8044967"><ele>90.0</ele><time>2026-04-06T06:25:10.337Z</time></trkpt><trkpt lat="43.6430583" lon="10.804375"><ele>88.4</ele><time>2026-04-06T06:25:11.338Z</time></trkpt><trkpt lat="43.6431067" lon="10.8042517"><ele>86.8</ele><time>2026-04-06T06:25:12.337Z</time></trkpt><trkpt lat="43.6431583" lon="10.80413"><ele>85.19999999999999</ele><time>2026-04-06T06:25:13.336Z</time></trkpt><trkpt lat="43.6432083" lon="10.804005"><ele>83.6</ele><time>2026-04-06T06:25:14.337Z</time></trkpt><trkpt lat="43.6432567" lon="10.80388"><ele>82.0</ele><time>2026-04-06T06:25:15.34Z</time></trkpt><trkpt lat="43.6433067" lon="10.8037517"><ele>82.0</ele><time>2026-04-06T06:25:16.337Z</time></trkpt><trkpt lat="43.643355" lon="10.8036233"><ele>82.0</ele><time>2026-04-06T06:25:17.342Z</time></trkpt><trkpt lat="43.6434083" lon="10.8034967"><ele>82.0</ele><time>2026-04-06T06:25:18.341Z</time></trkpt><trkpt lat="43.6434633" lon="10.80337"><ele>82.0</ele><time>2026-04-06T06:25:19.337Z</time></trkpt><trkpt lat="43.6435183" lon="10.8032417"><ele>82.0</ele><time>2026-04-06T06:25:20.347Z</time></trkpt><trkpt lat="43.6435717" lon="10.8031117"><ele>83.19999999999999</ele><time>2026-04-06T06:25:21.337Z</time></trkpt><trkpt lat="43.6436267" lon="10.8029833"><ele>84.4</ele><time>2026-04-06T06:25:22.337Z</time></trkpt><trkpt lat="43.6436833" lon="10.8028533"><ele>85.6</ele><time>2026-04-06T06:25:23.339Z</time></trkpt><trkpt lat="43.6437417" lon="10.8027217"><ele>86.80000000000001</ele><time>2026-04-06T06:25:24.342Z</time></trkpt><trkpt lat="43.6438" lon="10.80259"><ele>88.0</ele><time>2026-04-06T06:25:25.337Z</time></trkpt><trkpt lat="43.6438567" lon="10.8024583"><ele>88.0</ele><time>2026-04-06T06:25:26.341Z</time></trkpt><trkpt lat="43.6439167" lon="10.802325"><ele>88.0</ele><time>2026-04-06T06:25:27.338Z</time></trkpt><trkpt lat="43.6439733" lon="10.80219"><ele>88.0</ele><time>2026-04-06T06:25:28.34Z</time></trkpt><trkpt lat="43.6440283" lon="10.8020533"><ele>88.0</ele><time>2026-04-06T06:25:29.338Z</time></trkpt><trkpt lat="43.6440817" lon="10.8019167"><ele>86.2</ele><time>2026-04-06T06:25:30.347Z</time></trkpt><trkpt lat="43.6441233" lon="10.80177"><ele>84.4</ele><time>2026-04-06T06:25:31.344Z</time></trkpt><trkpt lat="43.644145" lon="10.8016217"><ele>82.60000000000001</ele><time>2026-04-06T06:25:32.345Z</time></trkpt><trkpt lat="43.644155" lon="10.8014767"><ele>80.80000000000001</ele><time>2026-04-06T06:25:33.348Z</time></trkpt><trkpt lat="43.6441567" lon="10.80133"><ele>79.0</ele><time>2026-04-06T06:25:34.339Z</time></trkpt><trkpt lat="43.644155" lon="10.80118"><ele>79.0</ele><time>2026-04-06T06:25:35.339Z</time></trkpt><trkpt lat="43.6441467" lon="10.8010267"><ele>79.0</ele><time>2026-04-06T06:25:36.342Z</time></trkpt><trkpt lat="43.6441383" lon="10.8008717"><ele>79.0</ele><time>2026-04-06T06:25:37.34Z</time></trkpt><trkpt lat="43.6441283" lon="10.800715"><ele>79.0</ele><time>2026-04-06T06:25:38.342Z</time></trkpt><trkpt lat="43.6441183" lon="10.8005583"><ele>77.75</ele><time>2026-04-06T06:25:39.338Z</time></trkpt><trkpt lat="43.6441067" lon="10.8004033"><ele>76.5</ele><time>2026-04-06T06:25:40.338Z</time></trkpt><trkpt lat="43.644095" lon="10.8002483"><ele>75.25</ele><time>2026-04-06T06:25:41.339Z</time></trkpt><trkpt lat="43.644085" lon="10.8000917"><ele>74.0</ele><time>2026-04-06T06:25:42.339Z</time></trkpt><trkpt lat="43.6440733" lon="10.7999367"><ele>74.0</ele><time>2026-04-06T06:25:43.344Z</time></trkpt><trkpt lat="43.6440633" lon="10.7997783"><ele>74.0</ele><time>2026-04-06T06:25:44.34Z</time></trkpt><trkpt lat="43.644055" lon="10.79962"><ele>74.0</ele><time>2026-04-06T06:25:45.338Z</time></trkpt><trkpt lat="43.6440433" lon="10.7994617"><ele>74.0</ele><time>2026-04-06T06:25:46.338Z</time></trkpt><trkpt lat="43.6440317" lon="10.7993017"><ele>73.8</ele><time>2026-04-06T06:25:47.341Z</time></trkpt><trkpt lat="43.6440217" lon="10.7991433"><ele>73.60000000000001</ele><time>2026-04-06T06:25:48.353Z</time></trkpt><trkpt lat="43.6440083" lon="10.7989883"><ele>73.4</ele><time>2026-04-06T06:25:49.344Z</time></trkpt><trkpt lat="43.6439967" lon="10.7988383"><ele>73.2</ele><time>2026-04-06T06:25:50.341Z</time></trkpt><trkpt lat="43.643985" lon="10.79869"><ele>73.0</ele><time>2026-04-06T06:25:51.342Z</time></trkpt><trkpt lat="43.643975" lon="10.7985433"><ele>73.2</ele><time>2026-04-06T06:25:52.339Z</time></trkpt><trkpt lat="43.6439667" lon="10.7983983"><ele>73.4</ele><time>2026-04-06T06:25:53.349Z</time></trkpt><trkpt lat="43.6439567" lon="10.7982533"><ele>73.60000000000001</ele><time>2026-04-06T06:25:54.341Z</time></trkpt><trkpt lat="43.6439467" lon="10.7981083"><ele>73.8</ele><time>2026-04-06T06:25:55.339Z</time></trkpt><trkpt lat="43.643935" lon="10.7979633"><ele>74.0</ele><time>2026-04-06T06:25:56.338Z</time></trkpt><trkpt lat="43.6439233" lon="10.7978217"><ele>74.0</ele><time>2026-04-06T06:25:57.336Z</time></trkpt><trkpt lat="43.6439083" lon="10.7976783"><ele>74.0</ele><time>2026-04-06T06:25:58.339Z</time></trkpt><trkpt lat="43.6438883" lon="10.797535"><ele>74.0</ele><time>2026-04-06T06:25:59.338Z</time></trkpt><trkpt lat="43.643865" lon="10.7973933"><ele>74.0</ele><time>2026-04-06T06:26:00.339Z</time></trkpt><trkpt lat="43.64384" lon="10.7972517"><ele>74.0</ele><time>2026-04-06T06:26:01.337Z</time></trkpt><trkpt lat="43.6438117" lon="10.7971083"><ele>73.8</ele><time>2026-04-06T06:26:02.34Z</time></trkpt><trkpt lat="43.6437833" lon="10.7969667"><ele>73.60000000000001</ele><time>2026-04-06T06:26:03.339Z</time></trkpt><trkpt lat="43.6437567" lon="10.7968233"><ele>73.4</ele><time>2026-04-06T06:26:04.336Z</time></trkpt><trkpt lat="43.64373" lon="10.7966817"><ele>73.2</ele><time>2026-04-06T06:26:05.339Z</time></trkpt><trkpt lat="43.643705" lon="10.79654"><ele>73.0</ele><time>2026-04-06T06:26:06.336Z</time></trkpt><trkpt lat="43.6436783" lon="10.7964"><ele>74.0</ele><time>2026-04-06T06:26:07.338Z</time></trkpt><trkpt lat="43.6436517" lon="10.7962567"><ele>75.0</ele><time>2026-04-06T06:26:08.34Z</time></trkpt><trkpt lat="43.6436267" lon="10.7961133"><ele>76.0</ele><time>2026-04-06T06:26:09.338Z</time></trkpt><trkpt lat="43.643605" lon="10.79597"><ele>77.0</ele><time>2026-04-06T06:26:10.34Z</time></trkpt><trkpt lat="43.64359" lon="10.7958233"><ele>78.0</ele><time>2026-04-06T06:26:11.34Z</time></trkpt><trkpt lat="43.6435817" lon="10.795675"><ele>75.2</ele><time>2026-04-06T06:26:12.34Z</time></trkpt><trkpt lat="43.64358" lon="10.7955217"><ele>72.4</ele><time>2026-04-06T06:26:13.34Z</time></trkpt><trkpt lat="43.6435833" lon="10.7953683"><ele>69.60000000000001</ele><time>2026-04-06T06:26:14.341Z</time></trkpt><trkpt lat="43.6435933" lon="10.7952133"><ele>66.8</ele><time>2026-04-06T06:26:15.34Z</time></trkpt><trkpt lat="43.6436083" lon="10.7950583"><ele>64.0</ele><time>2026-04-06T06:26:16.339Z</time></trkpt><trkpt lat="43.64363" lon="10.7949067"><ele>67.0</ele><time>2026-04-06T06:26:17.342Z</time></trkpt><trkpt lat="43.6436533" lon="10.794755"><ele>70.0</ele><time>2026-04-06T06:26:18.339Z</time></trkpt><trkpt lat="43.64368" lon="10.7946017"><ele>73.0</ele><time>2026-04-06T06:26:19.341Z</time></trkpt><trkpt lat="43.643705" lon="10.7944467"><ele>76.0</ele><time>2026-04-06T06:26:20.343Z</time></trkpt><trkpt lat="43.6437333" lon="10.7942983"><ele>76.0</ele><time>2026-04-06T06:26:21.339Z</time></trkpt><trkpt lat="43.6437567" lon="10.7941517"><ele>76.0</ele><time>2026-04-06T06:26:22.339Z</time></trkpt><trkpt lat="43.6437817" lon="10.7940083"><ele>76.0</ele><time>2026-04-06T06:26:23.339Z</time></trkpt><trkpt lat="43.643805" lon="10.79386"><ele>76.0</ele><time>2026-04-06T06:26:24.335Z</time></trkpt><trkpt lat="43.6438267" lon="10.7937117"><ele>76.0</ele><time>2026-04-06T06:26:25.343Z</time></trkpt><trkpt lat="43.6438533" lon="10.79357"><ele>73.8</ele><time>2026-04-06T06:26:26.339Z</time></trkpt><trkpt lat="43.643875" lon="10.793425"><ele>71.6</ele><time>2026-04-06T06:26:27.341Z</time></trkpt><trkpt lat="43.6439017" lon="10.7932783"><ele>69.4</ele><time>2026-04-06T06:26:28.338Z</time></trkpt><trkpt lat="43.6439283" lon="10.793135"><ele>67.2</ele><time>2026-04-06T06:26:29.339Z</time></trkpt><trkpt lat="43.6439533" lon="10.7929933"><ele>65.0</ele><time>2026-04-06T06:26:30.342Z</time></trkpt><trkpt lat="43.6439767" lon="10.7928483"><ele>65.0</ele><time>2026-04-06T06:26:31.338Z</time></trkpt><trkpt lat="43.644" lon="10.7927067"><ele>65.0</ele><time>2026-04-06T06:26:32.341Z</time></trkpt><trkpt lat="43.6440233" lon="10.7925617"><ele>65.0</ele><time>2026-04-06T06:26:33.34Z</time></trkpt><trkpt lat="43.64405" lon="10.7924183"><ele>65.0</ele><time>2026-04-06T06:26:34.339Z</time></trkpt><trkpt lat="43.6440767" lon="10.7922733"><ele>65.0</ele><time>2026-04-06T06:26:35.338Z</time></trkpt><trkpt lat="43.6440983" lon="10.7921267"><ele>64.2</ele><time>2026-04-06T06:26:36.341Z</time></trkpt><trkpt lat="43.6441217" lon="10.79198"><ele>63.4</ele><time>2026-04-06T06:26:37.339Z</time></trkpt><trkpt lat="43.6441467" lon="10.7918333"><ele>62.599999999999994</ele><time>2026-04-06T06:26:38.34Z</time></trkpt><trkpt lat="43.6441733" lon="10.7916867"><ele>61.8</ele><time>2026-04-06T06:26:39.333Z</time></trkpt><trkpt lat="43.6441983" lon="10.79154"><ele>61.0</ele><time>2026-04-06T06:26:40.337Z</time></trkpt><trkpt lat="43.6442233" lon="10.79139"><ele>60.199999999999996</ele><time>2026-04-06T06:26:41.341Z</time></trkpt><trkpt lat="43.6442483" lon="10.7912417"><ele>59.39999999999999</ele><time>2026-04-06T06:26:42.339Z</time></trkpt><trkpt lat="43.6442783" lon="10.791095"><ele>58.6</ele><time>2026-04-06T06:26:43.336Z</time></trkpt><trkpt lat="43.6443067" lon="10.7909467"><ele>57.8</ele><time>2026-04-06T06:26:44.339Z</time></trkpt><trkpt lat="43.644335" lon="10.7908"><ele>57.0</ele><time>2026-04-06T06:26:45.336Z</time></trkpt><trkpt lat="43.6443617" lon="10.79065"><ele>56.8</ele><time>2026-04-06T06:26:46.336Z</time></trkpt><trkpt lat="43.6443883" lon="10.7905"><ele>56.6</ele><time>2026-04-06T06:26:47.336Z</time></trkpt><trkpt lat="43.6444133" lon="10.79035"><ele>56.39999999999999</ele><time>2026-04-06T06:26:48.341Z</time></trkpt><trkpt lat="43.6444383" lon="10.7901983"><ele>56.199999999999996</ele><time>2026-04-06T06:26:49.339Z</time></trkpt><trkpt lat="43.6444633" lon="10.7900467"><ele>56.0</ele><time>2026-04-06T06:26:50.34Z</time></trkpt><trkpt lat="43.6444917" lon="10.7898933"><ele>57.0</ele><time>2026-04-06T06:26:51.341Z</time></trkpt><trkpt lat="43.64452" lon="10.78974"><ele>58.0</ele><time>2026-04-06T06:26:52.338Z</time></trkpt><trkpt lat="43.64455" lon="10.7895883"><ele>59.0</ele><time>2026-04-06T06:26:53.337Z</time></trkpt><trkpt lat="43.644575" lon="10.7894333"><ele>60.0</ele><time>2026-04-06T06:26:54.341Z</time></trkpt><trkpt lat="43.6446" lon="10.78928"><ele>60.0</ele><time>2026-04-06T06:26:55.337Z</time></trkpt><trkpt lat="43.6446267" lon="10.789125"><ele>60.0</ele><time>2026-04-06T06:26:56.34Z</time></trkpt><trkpt lat="43.6446533" lon="10.78897"><ele>60.0</ele><time>2026-04-06T06:26:57.337Z</time></trkpt><trkpt lat="43.6446767" lon="10.7888167"><ele>60.0</ele><time>2026-04-06T06:26:58.337Z</time></trkpt><trkpt lat="43.6447017" lon="10.7886633"><ele>59.4</ele><time>2026-04-06T06:26:59.341Z</time></trkpt><trkpt lat="43.644725" lon="10.7885083"><ele>58.8</ele><time>2026-04-06T06:27:00.337Z</time></trkpt><trkpt lat="43.644745" lon="10.7883567"><ele>58.2</ele><time>2026-04-06T06:27:01.342Z</time></trkpt><trkpt lat="43.64476" lon="10.788205"><ele>57.6</ele><time>2026-04-06T06:27:02.341Z</time></trkpt><trkpt lat="43.6447717" lon="10.7880517"><ele>57.0</ele><time>2026-04-06T06:27:03.339Z</time></trkpt><trkpt lat="43.644785" lon="10.7878983"><ele>57.0</ele><time>2026-04-06T06:27:04.339Z</time></trkpt><trkpt lat="43.644795" lon="10.7877433"><ele>57.0</ele><time>2026-04-06T06:27:05.339Z</time></trkpt><trkpt lat="43.6448033" lon="10.78759"><ele>57.0</ele><time>2026-04-06T06:27:06.339Z</time></trkpt><trkpt lat="43.6448083" lon="10.787435"><ele>57.0</ele><time>2026-04-06T06:27:07.339Z</time></trkpt><trkpt lat="43.6448133" lon="10.7872783"><ele>56.75</ele><time>2026-04-06T06:27:08.345Z</time></trkpt><trkpt lat="43.644815" lon="10.7871217"><ele>56.5</ele><time>2026-04-06T06:27:09.343Z</time></trkpt><trkpt lat="43.644815" lon="10.786965"><ele>56.25</ele><time>2026-04-06T06:27:10.339Z</time></trkpt><trkpt lat="43.6448133" lon="10.7868083"><ele>56.0</ele><time>2026-04-06T06:27:11.34Z</time></trkpt><trkpt lat="43.64481" lon="10.78665"><ele>55.0</ele><time>2026-04-06T06:27:12.349Z</time></trkpt><trkpt lat="43.6448067" lon="10.7864917"><ele>54.0</ele><time>2026-04-06T06:27:13.339Z</time></trkpt><trkpt lat="43.6448017" lon="10.7863317"><ele>53.0</ele><time>2026-04-06T06:27:14.342Z</time></trkpt><trkpt lat="43.6447917" lon="10.7861733"><ele>52.0</ele><time>2026-04-06T06:27:15.34Z</time></trkpt><trkpt lat="43.6447817" lon="10.786015"><ele>52.0</ele><time>2026-04-06T06:27:16.336Z</time></trkpt><trkpt lat="43.6447717" lon="10.7858567"><ele>52.0</ele><time>2026-04-06T06:27:17.337Z</time></trkpt><trkpt lat="43.6447633" lon="10.7857"><ele>52.0</ele><time>2026-04-06T06:27:18.338Z</time></trkpt><trkpt lat="43.6447533" lon="10.7855467"><ele>52.0</ele><time>2026-04-06T06:27:19.339Z</time></trkpt><trkpt lat="43.6447433" lon="10.7853917"><ele>52.0</ele><time>2026-04-06T06:27:20.339Z</time></trkpt><trkpt lat="43.644735" lon="10.7852383"><ele>52.0</ele><time>2026-04-06T06:27:21.336Z</time></trkpt><trkpt lat="43.6447283" lon="10.7850817"><ele>52.0</ele><time>2026-04-06T06:27:22.337Z</time></trkpt><trkpt lat="43.64472" lon="10.7849267"><ele>52.0</ele><time>2026-04-06T06:27:23.339Z</time></trkpt><trkpt lat="43.6447083" lon="10.784775"><ele>52.0</ele><time>2026-04-06T06:27:24.338Z</time></trkpt><trkpt lat="43.6446917" lon="10.7846217"><ele>52.0</ele><time>2026-04-06T06:27:25.339Z</time></trkpt><trkpt lat="43.6446667" lon="10.78447"><ele>52.0</ele><time>2026-04-06T06:27:26.339Z</time></trkpt><trkpt lat="43.6446333" lon="10.784325"><ele>52.0</ele><time>2026-04-06T06:27:27.34Z</time></trkpt><trkpt lat="43.64459" lon="10.7841817"><ele>52.0</ele><time>2026-04-06T06:27:28.336Z</time></trkpt><trkpt lat="43.6445383" lon="10.784045"><ele>52.0</ele><time>2026-04-06T06:27:29.34Z</time></trkpt><trkpt lat="43.6444783" lon="10.7839117"><ele>52.0</ele><time>2026-04-06T06:27:30.339Z</time></trkpt><trkpt lat="43.644415" lon="10.78378"><ele>52.0</ele><time>2026-04-06T06:27:31.342Z</time></trkpt><trkpt lat="43.64435" lon="10.7836517"><ele>52.0</ele><time>2026-04-06T06:27:32.338Z</time></trkpt><trkpt lat="43.6442833" lon="10.783525"><ele>52.0</ele><time>2026-04-06T06:27:33.339Z</time></trkpt><trkpt lat="43.6442167" lon="10.7833983"><ele>51.5</ele><time>2026-04-06T06:27:34.338Z</time></trkpt><trkpt lat="43.64415" lon="10.7832717"><ele>51.0</ele><time>2026-04-06T06:27:35.342Z</time></trkpt><trkpt lat="43.64408" lon="10.7831467"><ele>50.5</ele><time>2026-04-06T06:27:36.338Z</time></trkpt><trkpt lat="43.64401" lon="10.78302"><ele>50.0</ele><time>2026-04-06T06:27:37.343Z</time></trkpt><trkpt lat="43.6439383" lon="10.7828883"><ele>50.0</ele><time>2026-04-06T06:27:38.341Z</time></trkpt><trkpt lat="43.6438667" lon="10.7827583"><ele>50.0</ele><time>2026-04-06T06:27:39.339Z</time></trkpt><trkpt lat="43.6437983" lon="10.78263"><ele>50.0</ele><time>2026-04-06T06:27:40.336Z</time></trkpt><trkpt lat="43.64373" lon="10.7825067"><ele>50.0</ele><time>2026-04-06T06:27:41.341Z</time></trkpt><trkpt lat="43.64366" lon="10.7823783"><ele>50.5</ele><time>2026-04-06T06:27:42.339Z</time></trkpt><trkpt lat="43.6435917" lon="10.78225"><ele>51.0</ele><time>2026-04-06T06:27:43.339Z</time></trkpt><trkpt lat="43.6435217" lon="10.7821217"><ele>51.5</ele><time>2026-04-06T06:27:44.338Z</time></trkpt><trkpt lat="43.6434517" lon="10.7819933"><ele>52.0</ele><time>2026-04-06T06:27:45.339Z</time></trkpt><trkpt lat="43.6433817" lon="10.7818633"><ele>52.0</ele><time>2026-04-06T06:27:46.337Z</time></trkpt><trkpt lat="43.6433133" lon="10.7817317"><ele>52.0</ele><time>2026-04-06T06:27:47.34Z</time></trkpt><trkpt lat="43.6432433" lon="10.7816"><ele>52.0</ele><time>2026-04-06T06:27:48.338Z</time></trkpt><trkpt lat="43.6431733" lon="10.7814683"><ele>52.0</ele><time>2026-04-06T06:27:49.341Z</time></trkpt><trkpt lat="43.6431017" lon="10.7813367"><ele>52.0</ele><time>2026-04-06T06:27:50.341Z</time></trkpt><trkpt lat="43.6430317" lon="10.7812083"><ele>52.0</ele><time>2026-04-06T06:27:51.339Z</time></trkpt><trkpt lat="43.6429583" lon="10.78108"><ele>52.0</ele><time>2026-04-06T06:27:52.342Z</time></trkpt><trkpt lat="43.6428883" lon="10.78095"><ele>52.0</ele><time>2026-04-06T06:27:53.342Z</time></trkpt><trkpt lat="43.64282" lon="10.7808183"><ele>52.5</ele><time>2026-04-06T06:27:54.339Z</time></trkpt><trkpt lat="43.6427467" lon="10.7806883"><ele>53.0</ele><time>2026-04-06T06:27:55.339Z</time></trkpt><trkpt lat="43.6426733" lon="10.78056"><ele>53.5</ele><time>2026-04-06T06:27:56.338Z</time></trkpt><trkpt lat="43.6426" lon="10.7804267"><ele>54.0</ele><time>2026-04-06T06:27:57.34Z</time></trkpt><trkpt lat="43.64253" lon="10.7803"><ele>55.0</ele><time>2026-04-06T06:27:58.338Z</time></trkpt><trkpt lat="43.64246" lon="10.7801767"><ele>56.00000000000001</ele><time>2026-04-06T06:27:59.339Z</time></trkpt><trkpt lat="43.6423933" lon="10.7800567"><ele>57.00000000000001</ele><time>2026-04-06T06:28:00.342Z</time></trkpt><trkpt lat="43.6423283" lon="10.779935"><ele>58.0</ele><time>2026-04-06T06:28:01.337Z</time></trkpt><trkpt lat="43.6422667" lon="10.7798183"><ele>59.0</ele><time>2026-04-06T06:28:02.339Z</time></trkpt><trkpt lat="43.6422117" lon="10.779705"><ele>59.0</ele><time>2026-04-06T06:28:03.339Z</time></trkpt><trkpt lat="43.6421683" lon="10.779585"><ele>59.00000000000001</ele><time>2026-04-06T06:28:04.333Z</time></trkpt><trkpt lat="43.642135" lon="10.77946"><ele>59.00000000000001</ele><time>2026-04-06T06:28:05.339Z</time></trkpt><trkpt lat="43.6421183" lon="10.7793267"><ele>59.0</ele><time>2026-04-06T06:28:06.338Z</time></trkpt><trkpt lat="43.6421283" lon="10.7791917"><ele>59.0</ele><time>2026-04-06T06:28:07.337Z</time></trkpt><trkpt lat="43.642155" lon="10.77906"><ele>58.400000000000006</ele><time>2026-04-06T06:28:08.339Z</time></trkpt><trkpt lat="43.6421883" lon="10.77893"><ele>57.800000000000004</ele><time>2026-04-06T06:28:09.338Z</time></trkpt><trkpt lat="43.6422217" lon="10.778795"><ele>57.199999999999996</ele><time>2026-04-06T06:28:10.335Z</time></trkpt><trkpt lat="43.64225" lon="10.7786517"><ele>56.599999999999994</ele><time>2026-04-06T06:28:11.337Z</time></trkpt><trkpt lat="43.6422767" lon="10.778505"><ele>56.0</ele><time>2026-04-06T06:28:12.344Z</time></trkpt><trkpt lat="43.6423017" lon="10.778355"><ele>56.0</ele><time>2026-04-06T06:28:13.338Z</time></trkpt><trkpt lat="43.64232" lon="10.7782017"><ele>56.0</ele><time>2026-04-06T06:28:14.34Z</time></trkpt><trkpt lat="43.6423283" lon="10.778045"><ele>56.0</ele><time>2026-04-06T06:28:15.34Z</time></trkpt><trkpt lat="43.6423317" lon="10.777885"><ele>56.0</ele><time>2026-04-06T06:28:16.338Z</time></trkpt><trkpt lat="43.6423333" lon="10.777725"><ele>57.0</ele><time>2026-04-06T06:28:17.34Z</time></trkpt><trkpt lat="43.6423367" lon="10.7775633"><ele>58.0</ele><time>2026-04-06T06:28:18.338Z</time></trkpt><trkpt lat="43.64234" lon="10.7774"><ele>59.0</ele><time>2026-04-06T06:28:19.335Z</time></trkpt><trkpt lat="43.64234" lon="10.7772383"><ele>60.0</ele><time>2026-04-06T06:28:20.341Z</time></trkpt><trkpt lat="43.6423383" lon="10.777075"><ele>60.0</ele><time>2026-04-06T06:28:21.345Z</time></trkpt><trkpt lat="43.6423367" lon="10.7769133"><ele>60.0</ele><time>2026-04-06T06:28:22.337Z</time></trkpt><trkpt lat="43.642335" lon="10.7767517"><ele>60.0</ele><time>2026-04-06T06:28:23.337Z</time></trkpt><trkpt lat="43.642335" lon="10.7765883"><ele>60.0</ele><time>2026-04-06T06:28:24.338Z</time></trkpt><trkpt lat="43.642335" lon="10.7764283"><ele>60.0</ele><time>2026-04-06T06:28:25.338Z</time></trkpt><trkpt lat="43.642335" lon="10.7762667"><ele>60.0</ele><time>2026-04-06T06:28:26.34Z</time></trkpt><trkpt lat="43.64234" lon="10.7761067"><ele>60.0</ele><time>2026-04-06T06:28:27.34Z</time></trkpt><trkpt lat="43.6423517" lon="10.775945"><ele>60.0</ele><time>2026-04-06T06:28:28.336Z</time></trkpt><trkpt lat="43.6423717" lon="10.775785"><ele>59.25</ele><time>2026-04-06T06:28:29.338Z</time></trkpt><trkpt lat="43.6424" lon="10.7756267"><ele>58.5</ele><time>2026-04-06T06:28:30.338Z</time></trkpt><trkpt lat="43.6424333" lon="10.7754717"><ele>57.75</ele><time>2026-04-06T06:28:31.338Z</time></trkpt><trkpt lat="43.64247" lon="10.7753183"><ele>57.0</ele><time>2026-04-06T06:28:32.335Z</time></trkpt><trkpt lat="43.6425117" lon="10.7751717"><ele>56.25</ele><time>2026-04-06T06:28:33.335Z</time></trkpt><trkpt lat="43.6425583" lon="10.7750283"><ele>55.5</ele><time>2026-04-06T06:28:34.34Z</time></trkpt><trkpt lat="43.64261" lon="10.7748883"><ele>54.75</ele><time>2026-04-06T06:28:35.339Z</time></trkpt><trkpt lat="43.6426667" lon="10.77475"><ele>54.0</ele><time>2026-04-06T06:28:36.339Z</time></trkpt><trkpt lat="43.6427233" lon="10.7746133"><ele>54.0</ele><time>2026-04-06T06:28:37.337Z</time></trkpt><trkpt lat="43.64278" lon="10.774475"><ele>54.0</ele><time>2026-04-06T06:28:38.339Z</time></trkpt><trkpt lat="43.6428383" lon="10.774335"><ele>54.0</ele><time>2026-04-06T06:28:39.337Z</time></trkpt><trkpt lat="43.642895" lon="10.7741917"><ele>54.0</ele><time>2026-04-06T06:28:40.339Z</time></trkpt><trkpt lat="43.6429517" lon="10.7740483"><ele>53.0</ele><time>2026-04-06T06:28:41.339Z</time></trkpt><trkpt lat="43.6430083" lon="10.7739033"><ele>52.0</ele><time>2026-04-06T06:28:42.347Z</time></trkpt><trkpt lat="43.6430633" lon="10.7737617"><ele>51.0</ele><time>2026-04-06T06:28:43.341Z</time></trkpt><trkpt lat="43.6431167" lon="10.7736233"><ele>50.0</ele><time>2026-04-06T06:28:44.338Z</time></trkpt><trkpt lat="43.6431717" lon="10.7734867"><ele>50.0</ele><time>2026-04-06T06:28:45.339Z</time></trkpt><trkpt lat="43.643225" lon="10.7733517"><ele>50.0</ele><time>2026-04-06T06:28:46.339Z</time></trkpt><trkpt lat="43.6432817" lon="10.7732183"><ele>50.0</ele><time>2026-04-06T06:28:47.338Z</time></trkpt><trkpt lat="43.6433367" lon="10.7730817"><ele>50.0</ele><time>2026-04-06T06:28:48.337Z</time></trkpt><trkpt lat="43.6433917" lon="10.772945"><ele>50.0</ele><time>2026-04-06T06:28:49.337Z</time></trkpt><trkpt lat="43.643445" lon="10.7728067"><ele>50.0</ele><time>2026-04-06T06:28:50.341Z</time></trkpt><trkpt lat="43.6435" lon="10.7726683"><ele>50.0</ele><time>2026-04-06T06:28:51.34Z</time></trkpt><trkpt lat="43.6435583" lon="10.7725283"><ele>50.0</ele><time>2026-04-06T06:28:52.337Z</time></trkpt><trkpt lat="43.643615" lon="10.7723867"><ele>50.0</ele><time>2026-04-06T06:28:53.339Z</time></trkpt><trkpt lat="43.6436717" lon="10.772245"><ele>50.0</ele><time>2026-04-06T06:28:54.338Z</time></trkpt><trkpt lat="43.6437283" lon="10.7721"><ele>50.0</ele><time>2026-04-06T06:28:55.337Z</time></trkpt><trkpt lat="43.6437833" lon="10.7719567"><ele>50.0</ele><time>2026-04-06T06:28:56.336Z</time></trkpt><trkpt lat="43.64384" lon="10.771815"><ele>50.0</ele><time>2026-04-06T06:28:57.337Z</time></trkpt><trkpt lat="43.6438983" lon="10.771675"><ele>50.0</ele><time>2026-04-06T06:28:58.336Z</time></trkpt><trkpt lat="43.6439533" lon="10.7715367"><ele>50.0</ele><time>2026-04-06T06:28:59.337Z</time></trkpt><trkpt lat="43.644005" lon="10.7714033"><ele>50.0</ele><time>2026-04-06T06:29:00.337Z</time></trkpt><trkpt lat="43.6440567" lon="10.7712733"><ele>50.0</ele><time>2026-04-06T06:29:01.339Z</time></trkpt><trkpt lat="43.6441083" lon="10.7711467"><ele>49.0</ele><time>2026-04-06T06:29:02.339Z</time></trkpt><trkpt lat="43.64416" lon="10.7710183"><ele>48.0</ele><time>2026-04-06T06:29:03.336Z</time></trkpt><trkpt lat="43.6442117" lon="10.7708917"><ele>47.0</ele><time>2026-04-06T06:29:04.337Z</time></trkpt><trkpt lat="43.6442633" lon="10.7707667"><ele>46.0</ele><time>2026-04-06T06:29:05.343Z</time></trkpt><trkpt lat="43.644315" lon="10.77064"><ele>45.0</ele><time>2026-04-06T06:29:06.339Z</time></trkpt><trkpt lat="43.6443683" lon="10.7705133"><ele>45.0</ele><time>2026-04-06T06:29:07.337Z</time></trkpt><trkpt lat="43.6444233" lon="10.770385"><ele>45.0</ele><time>2026-04-06T06:29:08.339Z</time></trkpt><trkpt lat="43.6444767" lon="10.7702567"><ele>45.0</ele><time>2026-04-06T06:29:09.337Z</time></trkpt><trkpt lat="43.6445333" lon="10.7701317"><ele>45.0</ele><time>2026-04-06T06:29:10.338Z</time></trkpt><trkpt lat="43.6445933" lon="10.7700083"><ele>45.0</ele><time>2026-04-06T06:29:11.337Z</time></trkpt><trkpt lat="43.644655" lon="10.7698883"><ele>45.2</ele><time>2026-04-06T06:29:12.337Z</time></trkpt><trkpt lat="43.6447167" lon="10.7697667"><ele>45.4</ele><time>2026-04-06T06:29:13.338Z</time></trkpt><trkpt lat="43.6447783" lon="10.769645"><ele>45.599999999999994</ele><time>2026-04-06T06:29:14.341Z</time></trkpt><trkpt lat="43.6448417" lon="10.7695233"><ele>45.8</ele><time>2026-04-06T06:29:15.339Z</time></trkpt><trkpt lat="43.6449083" lon="10.7694"><ele>46.0</ele><time>2026-04-06T06:29:16.337Z</time></trkpt><trkpt lat="43.644975" lon="10.7692817"><ele>46.0</ele><time>2026-04-06T06:29:17.339Z</time></trkpt><trkpt lat="43.645045" lon="10.7691633"><ele>46.0</ele><time>2026-04-06T06:29:18.34Z</time></trkpt><trkpt lat="43.6451133" lon="10.769045"><ele>46.0</ele><time>2026-04-06T06:29:19.342Z</time></trkpt><trkpt lat="43.64518" lon="10.7689233"><ele>46.0</ele><time>2026-04-06T06:29:20.34Z</time></trkpt><trkpt lat="43.645245" lon="10.7688033"><ele>46.0</ele><time>2026-04-06T06:29:21.35Z</time></trkpt><trkpt lat="43.64531" lon="10.7686817"><ele>47.4</ele><time>2026-04-06T06:29:22.336Z</time></trkpt><trkpt lat="43.6453767" lon="10.76856"><ele>48.8</ele><time>2026-04-06T06:29:23.343Z</time></trkpt><trkpt lat="43.6454433" lon="10.76844"><ele>50.199999999999996</ele><time>2026-04-06T06:29:24.339Z</time></trkpt><trkpt lat="43.64551" lon="10.7683233"><ele>51.599999999999994</ele><time>2026-04-06T06:29:25.34Z</time></trkpt><trkpt lat="43.6455767" lon="10.7682033"><ele>53.0</ele><time>2026-04-06T06:29:26.343Z</time></trkpt><trkpt lat="43.6456417" lon="10.7680817"><ele>53.0</ele><time>2026-04-06T06:29:27.345Z</time></trkpt><trkpt lat="43.645705" lon="10.7679583"><ele>53.0</ele><time>2026-04-06T06:29:28.344Z</time></trkpt><trkpt lat="43.64577" lon="10.767835"><ele>53.0</ele><time>2026-04-06T06:29:29.342Z</time></trkpt><trkpt lat="43.645835" lon="10.7677133"><ele>53.0</ele><time>2026-04-06T06:29:30.346Z</time></trkpt><trkpt lat="43.6459017" lon="10.7675933"><ele>53.0</ele><time>2026-04-06T06:29:31.34Z</time></trkpt><trkpt lat="43.6459683" lon="10.76747"><ele>53.4</ele><time>2026-04-06T06:29:32.34Z</time></trkpt><trkpt lat="43.6460333" lon="10.7673467"><ele>53.8</ele><time>2026-04-06T06:29:33.336Z</time></trkpt><trkpt lat="43.6461" lon="10.7672233"><ele>54.2</ele><time>2026-04-06T06:29:34.339Z</time></trkpt><trkpt lat="43.6461667" lon="10.7670967"><ele>54.6</ele><time>2026-04-06T06:29:35.338Z</time></trkpt><trkpt lat="43.6462333" lon="10.7669733"><ele>55.0</ele><time>2026-04-06T06:29:36.34Z</time></trkpt><trkpt lat="43.6463033" lon="10.7668467"><ele>55.0</ele><time>2026-04-06T06:29:37.336Z</time></trkpt><trkpt lat="43.64637" lon="10.7667217"><ele>55.0</ele><time>2026-04-06T06:29:38.337Z</time></trkpt><trkpt lat="43.6464383" lon="10.7665917"><ele>55.0</ele><time>2026-04-06T06:29:39.337Z</time></trkpt><trkpt lat="43.6465083" lon="10.7664633"><ele>55.0</ele><time>2026-04-06T06:29:40.336Z</time></trkpt><trkpt lat="43.64658" lon="10.7663367"><ele>55.0</ele><time>2026-04-06T06:29:41.341Z</time></trkpt><trkpt lat="43.6466483" lon="10.7662183"><ele>55.0</ele><time>2026-04-06T06:29:42.336Z</time></trkpt><trkpt lat="43.646715" lon="10.7660983"><ele>55.0</ele><time>2026-04-06T06:29:43.337Z</time></trkpt><trkpt lat="43.64678" lon="10.7659817"><ele>55.0</ele><time>2026-04-06T06:29:44.337Z</time></trkpt><trkpt lat="43.646845" lon="10.7658633"><ele>55.0</ele><time>2026-04-06T06:29:45.34Z</time></trkpt><trkpt lat="43.64691" lon="10.7657467"><ele>55.0</ele><time>2026-04-06T06:29:46.338Z</time></trkpt><trkpt lat="43.6469767" lon="10.7656317"><ele>55.0</ele><time>2026-04-06T06:29:47.339Z</time></trkpt><trkpt lat="43.6470417" lon="10.7655133"><ele>55.0</ele><time>2026-04-06T06:29:48.34Z</time></trkpt><trkpt lat="43.647105" lon="10.765395"><ele>55.0</ele><time>2026-04-06T06:29:49.338Z</time></trkpt><trkpt lat="43.6471683" lon="10.7652767"><ele>55.0</ele><time>2026-04-06T06:29:50.342Z</time></trkpt><trkpt lat="43.64723" lon="10.76516"><ele>53.8</ele><time>2026-04-06T06:29:51.338Z</time></trkpt><trkpt lat="43.6472917" lon="10.76504"><ele>52.6</ele><time>2026-04-06T06:29:52.339Z</time></trkpt><trkpt lat="43.647355" lon="10.76492"><ele>51.400000000000006</ele><time>2026-04-06T06:29:53.337Z</time></trkpt><trkpt lat="43.6474167" lon="10.7648017"><ele>50.2</ele><time>2026-04-06T06:29:54.339Z</time></trkpt><trkpt lat="43.6474767" lon="10.76468"><ele>49.0</ele><time>2026-04-06T06:29:55.337Z</time></trkpt><trkpt lat="43.6475367" lon="10.76456"><ele>49.0</ele><time>2026-04-06T06:29:56.339Z</time></trkpt><trkpt lat="43.6475983" lon="10.7644417"><ele>49.0</ele><time>2026-04-06T06:29:57.337Z</time></trkpt><trkpt lat="43.6476617" lon="10.7643233"><ele>49.0</ele><time>2026-04-06T06:29:58.337Z</time></trkpt><trkpt lat="43.6477267" lon="10.7642067"><ele>49.0</ele><time>2026-04-06T06:29:59.339Z</time></trkpt><trkpt lat="43.6477833" lon="10.7640917"><ele>49.0</ele><time>2026-04-06T06:30:00.337Z</time></trkpt><trkpt lat="43.6478267" lon="10.7639683"><ele>48.6</ele><time>2026-04-06T06:30:01.338Z</time></trkpt><trkpt lat="43.64786" lon="10.7638417"><ele>48.2</ele><time>2026-04-06T06:30:02.336Z</time></trkpt><trkpt lat="43.64787" lon="10.763705"><ele>47.800000000000004</ele><time>2026-04-06T06:30:03.339Z</time></trkpt><trkpt lat="43.6478667" lon="10.7635733"><ele>47.400000000000006</ele><time>2026-04-06T06:30:04.338Z</time></trkpt><trkpt lat="43.647845" lon="10.7634417"><ele>47.0</ele><time>2026-04-06T06:30:05.337Z</time></trkpt><trkpt lat="43.647805" lon="10.7633183"><ele>45.8</ele><time>2026-04-06T06:30:06.341Z</time></trkpt><trkpt lat="43.6477517" lon="10.763205"><ele>44.6</ele><time>2026-04-06T06:30:07.337Z</time></trkpt><trkpt lat="43.647685" lon="10.7631017"><ele>43.4</ele><time>2026-04-06T06:30:08.337Z</time></trkpt><trkpt lat="43.64761" lon="10.76301"><ele>42.199999999999996</ele><time>2026-04-06T06:30:09.335Z</time></trkpt><trkpt lat="43.6475283" lon="10.7629217"><ele>41.0</ele><time>2026-04-06T06:30:10.335Z</time></trkpt><trkpt lat="43.6474467" lon="10.7628333"><ele>41.0</ele><time>2026-04-06T06:30:11.338Z</time></trkpt><trkpt lat="43.6473633" lon="10.7627383"><ele>41.0</ele><time>2026-04-06T06:30:12.337Z</time></trkpt><trkpt lat="43.64728" lon="10.762645"><ele>41.0</ele><time>2026-04-06T06:30:13.336Z</time></trkpt><trkpt lat="43.6471933" lon="10.7625533"><ele>41.0</ele><time>2026-04-06T06:30:14.338Z</time></trkpt><trkpt lat="43.6471067" lon="10.7624633"><ele>41.0</ele><time>2026-04-06T06:30:15.339Z</time></trkpt><trkpt lat="43.647015" lon="10.762375"><ele>40.8</ele><time>2026-04-06T06:30:16.337Z</time></trkpt><trkpt lat="43.6469217" lon="10.7622867"><ele>40.599999999999994</ele><time>2026-04-06T06:30:17.34Z</time></trkpt><trkpt lat="43.64683" lon="10.7622"><ele>40.4</ele><time>2026-04-06T06:30:18.337Z</time></trkpt><trkpt lat="43.6467383" lon="10.762115"><ele>40.2</ele><time>2026-04-06T06:30:19.34Z</time></trkpt><trkpt lat="43.6466483" lon="10.7620317"><ele>40.0</ele><time>2026-04-06T06:30:20.337Z</time></trkpt><trkpt lat="43.6465583" lon="10.7619517"><ele>40.0</ele><time>2026-04-06T06:30:21.337Z</time></trkpt><trkpt lat="43.6464683" lon="10.761875"><ele>40.0</ele><time>2026-04-06T06:30:22.337Z</time></trkpt><trkpt lat="43.6463767" lon="10.7617983"><ele>40.0</ele><time>2026-04-06T06:30:23.338Z</time></trkpt><trkpt lat="43.6462867" lon="10.76172"><ele>40.0</ele><time>2026-04-06T06:30:24.336Z</time></trkpt><trkpt lat="43.6462067" lon="10.76164"><ele>40.0</ele><time>2026-04-06T06:30:25.332Z</time></trkpt><trkpt lat="43.64613" lon="10.7615633"><ele>40.333333333333336</ele><time>2026-04-06T06:30:26.334Z</time></trkpt><trkpt lat="43.6460583" lon="10.7614883"><ele>40.66666666666667</ele><time>2026-04-06T06:30:27.335Z</time></trkpt><trkpt lat="43.64599" lon="10.7614183"><ele>41.0</ele><time>2026-04-06T06:30:28.334Z</time></trkpt><trkpt lat="43.645925" lon="10.7613533"><ele>41.333333333333336</ele><time>2026-04-06T06:30:29.336Z</time></trkpt><trkpt lat="43.6458617" lon="10.761295"><ele>41.666666666666664</ele><time>2026-04-06T06:30:30.336Z</time></trkpt><trkpt lat="43.6458033" lon="10.7612383"><ele>42.0</ele><time>2026-04-06T06:30:31.337Z</time></trkpt><trkpt lat="43.6457467" lon="10.7611867"><ele>42.0</ele><time>2026-04-06T06:30:32.338Z</time></trkpt><trkpt lat="43.6456917" lon="10.761135"><ele>42.0</ele><time>2026-04-06T06:30:33.338Z</time></trkpt><trkpt lat="43.6456383" lon="10.76108"><ele>42.0</ele><time>2026-04-06T06:30:34.336Z</time></trkpt><trkpt lat="43.6455467" lon="10.760975"><ele>42.0</ele><time>2026-04-06T06:30:36.337Z</time></trkpt><trkpt lat="43.6454683" lon="10.760885"><ele>42.0</ele><time>2026-04-06T06:30:38.34Z</time></trkpt><trkpt lat="43.6453767" lon="10.760825"><ele>42.400000000000006</ele><time>2026-04-06T06:30:40.346Z</time></trkpt><trkpt lat="43.6452583" lon="10.76081"><ele>42.800000000000004</ele><time>2026-04-06T06:30:42.335Z</time></trkpt><trkpt lat="43.6451283" lon="10.7608183"><ele>43.2</ele><time>2026-04-06T06:30:44.336Z</time></trkpt><trkpt lat="43.6450567" lon="10.7608233"><ele>43.6</ele><time>2026-04-06T06:30:45.336Z</time></trkpt><trkpt lat="43.6449783" lon="10.760825"><ele>44.0</ele><time>2026-04-06T06:30:46.336Z</time></trkpt><trkpt lat="43.6449" lon="10.7608267"><ele>44.0</ele><time>2026-04-06T06:30:47.334Z</time></trkpt><trkpt lat="43.6448267" lon="10.760825"><ele>44.0</ele><time>2026-04-06T06:30:48.346Z</time></trkpt><trkpt lat="43.6447467" lon="10.7608217"><ele>44.0</ele><time>2026-04-06T06:30:49.34Z</time></trkpt><trkpt lat="43.6446667" lon="10.760815"><ele>44.0</ele><time>2026-04-06T06:30:50.344Z</time></trkpt><trkpt lat="43.6445867" lon="10.76081"><ele>44.0</ele><time>2026-04-06T06:30:51.342Z</time></trkpt><trkpt lat="43.6445033" lon="10.7608067"><ele>44.0</ele><time>2026-04-06T06:30:52.336Z</time></trkpt><trkpt lat="43.6444183" lon="10.7608033"><ele>44.0</ele><time>2026-04-06T06:30:53.342Z</time></trkpt><trkpt lat="43.6443333" lon="10.7607983"><ele>44.0</ele><time>2026-04-06T06:30:54.34Z</time></trkpt><trkpt lat="43.644245" lon="10.760795"><ele>44.0</ele><time>2026-04-06T06:30:55.339Z</time></trkpt><trkpt lat="43.644155" lon="10.7607883"><ele>44.0</ele><time>2026-04-06T06:30:56.339Z</time></trkpt><trkpt lat="43.6440667" lon="10.7607833"><ele>44.0</ele><time>2026-04-06T06:30:57.34Z</time></trkpt><trkpt lat="43.6439767" lon="10.7607767"><ele>44.0</ele><time>2026-04-06T06:30:58.339Z</time></trkpt><trkpt lat="43.6438883" lon="10.7607683"><ele>44.0</ele><time>2026-04-06T06:30:59.34Z</time></trkpt><trkpt lat="43.6438" lon="10.76077"><ele>44.0</ele><time>2026-04-06T06:31:00.339Z</time></trkpt><trkpt lat="43.6437083" lon="10.7607817"><ele>44.0</ele><time>2026-04-06T06:31:01.338Z</time></trkpt><trkpt lat="43.6436183" lon="10.760805"><ele>44.0</ele><time>2026-04-06T06:31:02.34Z</time></trkpt><trkpt lat="43.6435283" lon="10.7608367"><ele>44.0</ele><time>2026-04-06T06:31:03.339Z</time></trkpt><trkpt lat="43.6434383" lon="10.7608783"><ele>44.400000000000006</ele><time>2026-04-06T06:31:04.339Z</time></trkpt><trkpt lat="43.6433483" lon="10.7609233"><ele>44.8</ele><time>2026-04-06T06:31:05.339Z</time></trkpt><trkpt lat="43.6432583" lon="10.7609783"><ele>45.2</ele><time>2026-04-06T06:31:06.338Z</time></trkpt><trkpt lat="43.6431717" lon="10.76104"><ele>45.599999999999994</ele><time>2026-04-06T06:31:07.341Z</time></trkpt><trkpt lat="43.6430867" lon="10.76111"><ele>46.0</ele><time>2026-04-06T06:31:08.342Z</time></trkpt><trkpt lat="43.6430017" lon="10.7611883"><ele>47.0</ele><time>2026-04-06T06:31:09.339Z</time></trkpt><trkpt lat="43.6429183" lon="10.7612683"><ele>48.0</ele><time>2026-04-06T06:31:10.338Z</time></trkpt><trkpt lat="43.642835" lon="10.7613483"><ele>49.0</ele><time>2026-04-06T06:31:11.337Z</time></trkpt><trkpt lat="43.64275" lon="10.7614283"><ele>50.0</ele><time>2026-04-06T06:31:12.34Z</time></trkpt><trkpt lat="43.642665" lon="10.7615083"><ele>51.0</ele><time>2026-04-06T06:31:13.339Z</time></trkpt><trkpt lat="43.6425767" lon="10.76159"><ele>51.0</ele><time>2026-04-06T06:31:14.338Z</time></trkpt><trkpt lat="43.64249" lon="10.7616733"><ele>51.0</ele><time>2026-04-06T06:31:15.34Z</time></trkpt><trkpt lat="43.6424017" lon="10.761755"><ele>51.0</ele><time>2026-04-06T06:31:16.341Z</time></trkpt><trkpt lat="43.6423133" lon="10.761835"><ele>51.0</ele><time>2026-04-06T06:31:17.338Z</time></trkpt><trkpt lat="43.6422267" lon="10.76191"><ele>51.0</ele><time>2026-04-06T06:31:18.338Z</time></trkpt><trkpt lat="43.6421367" lon="10.761985"><ele>51.8</ele><time>2026-04-06T06:31:19.339Z</time></trkpt><trkpt lat="43.642045" lon="10.7620583"><ele>52.599999999999994</ele><time>2026-04-06T06:31:20.338Z</time></trkpt><trkpt lat="43.6419517" lon="10.7621267"><ele>53.4</ele><time>2026-04-06T06:31:21.341Z</time></trkpt><trkpt lat="43.64186" lon="10.76219"><ele>54.2</ele><time>2026-04-06T06:31:22.338Z</time></trkpt><trkpt lat="43.6417633" lon="10.7622533"><ele>55.0</ele><time>2026-04-06T06:31:23.338Z</time></trkpt><trkpt lat="43.6416667" lon="10.7623133"><ele>55.0</ele><time>2026-04-06T06:31:24.341Z</time></trkpt><trkpt lat="43.6415683" lon="10.7623733"><ele>55.0</ele><time>2026-04-06T06:31:25.34Z</time></trkpt><trkpt lat="43.64147" lon="10.762435"><ele>55.0</ele><time>2026-04-06T06:31:26.339Z</time></trkpt><trkpt lat="43.6413717" lon="10.762495"><ele>55.0</ele><time>2026-04-06T06:31:27.34Z</time></trkpt><trkpt lat="43.6412733" lon="10.762555"><ele>55.0</ele><time>2026-04-06T06:31:28.337Z</time></trkpt><trkpt lat="43.641175" lon="10.762615"><ele>54.0</ele><time>2026-04-06T06:31:29.341Z</time></trkpt><trkpt lat="43.6410767" lon="10.7626767"><ele>53.0</ele><time>2026-04-06T06:31:30.344Z</time></trkpt><trkpt lat="43.6409783" lon="10.762735"><ele>52.0</ele><time>2026-04-06T06:31:31.339Z</time></trkpt><trkpt lat="43.64088" lon="10.762795"><ele>51.0</ele><time>2026-04-06T06:31:32.337Z</time></trkpt><trkpt lat="43.640785" lon="10.7628533"><ele>50.0</ele><time>2026-04-06T06:31:33.338Z</time></trkpt><trkpt lat="43.6406867" lon="10.7629167"><ele>49.4</ele><time>2026-04-06T06:31:34.342Z</time></trkpt><trkpt lat="43.6405883" lon="10.76298"><ele>48.8</ele><time>2026-04-06T06:31:35.346Z</time></trkpt><trkpt lat="43.6404867" lon="10.7630417"><ele>48.2</ele><time>2026-04-06T06:31:36.345Z</time></trkpt><trkpt lat="43.6403867" lon="10.7631033"><ele>47.6</ele><time>2026-04-06T06:31:37.337Z</time></trkpt><trkpt lat="43.6402867" lon="10.763165"><ele>47.0</ele><time>2026-04-06T06:31:38.341Z</time></trkpt><trkpt lat="43.640185" lon="10.7632283"><ele>47.0</ele><time>2026-04-06T06:31:39.34Z</time></trkpt><trkpt lat="43.640085" lon="10.76329"><ele>47.0</ele><time>2026-04-06T06:31:40.336Z</time></trkpt><trkpt lat="43.6399833" lon="10.7633483"><ele>47.0</ele><time>2026-04-06T06:31:41.337Z</time></trkpt><trkpt lat="43.6398783" lon="10.763415"><ele>47.0</ele><time>2026-04-06T06:31:42.339Z</time></trkpt><trkpt lat="43.6397717" lon="10.7634783"><ele>47.8</ele><time>2026-04-06T06:31:43.34Z</time></trkpt><trkpt lat="43.6396683" lon="10.7635433"><ele>48.6</ele><time>2026-04-06T06:31:44.347Z</time></trkpt><trkpt lat="43.639565" lon="10.7636067"><ele>49.4</ele><time>2026-04-06T06:31:45.338Z</time></trkpt><trkpt lat="43.639465" lon="10.76367"><ele>50.199999999999996</ele><time>2026-04-06T06:31:46.338Z</time></trkpt><trkpt lat="43.639365" lon="10.7637317"><ele>51.0</ele><time>2026-04-06T06:31:47.34Z</time></trkpt><trkpt lat="43.6392633" lon="10.7637983"><ele>51.199999999999996</ele><time>2026-04-06T06:31:48.339Z</time></trkpt><trkpt lat="43.639165" lon="10.7638617"><ele>51.4</ele><time>2026-04-06T06:31:49.338Z</time></trkpt><trkpt lat="43.639065" lon="10.76392"><ele>51.6</ele><time>2026-04-06T06:31:50.34Z</time></trkpt><trkpt lat="43.638965" lon="10.7639817"><ele>51.8</ele><time>2026-04-06T06:31:51.338Z</time></trkpt><trkpt lat="43.6388667" lon="10.7640467"><ele>52.0</ele><time>2026-04-06T06:31:52.339Z</time></trkpt><trkpt lat="43.63877" lon="10.7641167"><ele>52.0</ele><time>2026-04-06T06:31:53.339Z</time></trkpt><trkpt lat="43.63868" lon="10.7641867"><ele>52.0</ele><time>2026-04-06T06:31:54.338Z</time></trkpt><trkpt lat="43.6385933" lon="10.76427"><ele>52.0</ele><time>2026-04-06T06:31:55.336Z</time></trkpt><trkpt lat="43.6385083" lon="10.7643667"><ele>52.0</ele><time>2026-04-06T06:31:56.337Z</time></trkpt><trkpt lat="43.6384267" lon="10.7644683"><ele>52.0</ele><time>2026-04-06T06:31:57.341Z</time></trkpt><trkpt lat="43.6383433" lon="10.7645683"><ele>53.6</ele><time>2026-04-06T06:31:58.338Z</time></trkpt><trkpt lat="43.6382583" lon="10.7646683"><ele>55.2</ele><time>2026-04-06T06:31:59.34Z</time></trkpt><trkpt lat="43.6381733" lon="10.7647683"><ele>56.8</ele><time>2026-04-06T06:32:00.338Z</time></trkpt><trkpt lat="43.6380867" lon="10.7648667"><ele>58.4</ele><time>2026-04-06T06:32:01.336Z</time></trkpt><trkpt lat="43.6380017" lon="10.764965"><ele>60.0</ele><time>2026-04-06T06:32:02.337Z</time></trkpt><trkpt lat="43.6379133" lon="10.765065"><ele>60.0</ele><time>2026-04-06T06:32:03.337Z</time></trkpt><trkpt lat="43.6378267" lon="10.765165"><ele>60.0</ele><time>2026-04-06T06:32:04.333Z</time></trkpt><trkpt lat="43.6377417" lon="10.7652667"><ele>60.0</ele><time>2026-04-06T06:32:05.347Z</time></trkpt><trkpt lat="43.6376567" lon="10.7653683"><ele>60.0</ele><time>2026-04-06T06:32:06.338Z</time></trkpt><trkpt lat="43.6375683" lon="10.76547"><ele>59.0</ele><time>2026-04-06T06:32:07.338Z</time></trkpt><trkpt lat="43.6374833" lon="10.76557"><ele>58.0</ele><time>2026-04-06T06:32:08.338Z</time></trkpt><trkpt lat="43.6374" lon="10.7656717"><ele>57.0</ele><time>2026-04-06T06:32:09.336Z</time></trkpt><trkpt lat="43.6373133" lon="10.7657717"><ele>56.0</ele><time>2026-04-06T06:32:10.338Z</time></trkpt><trkpt lat="43.637225" lon="10.7658717"><ele>56.0</ele><time>2026-04-06T06:32:11.342Z</time></trkpt><trkpt lat="43.6371367" lon="10.765975"><ele>56.0</ele><time>2026-04-06T06:32:12.338Z</time></trkpt><trkpt lat="43.6370517" lon="10.7660833"><ele>56.0</ele><time>2026-04-06T06:32:13.338Z</time></trkpt><trkpt lat="43.6369717" lon="10.7661967"><ele>56.0</ele><time>2026-04-06T06:32:14.342Z</time></trkpt><trkpt lat="43.6368983" lon="10.76631"><ele>54.75</ele><time>2026-04-06T06:32:15.34Z</time></trkpt><trkpt lat="43.6368283" lon="10.76643"><ele>53.5</ele><time>2026-04-06T06:32:16.336Z</time></trkpt><trkpt lat="43.6367567" lon="10.76655"><ele>52.25</ele><time>2026-04-06T06:32:17.333Z</time></trkpt><trkpt lat="43.6366867" lon="10.7666733"><ele>51.0</ele><time>2026-04-06T06:32:18.334Z</time></trkpt><trkpt lat="43.6366183" lon="10.7668"><ele>52.0</ele><time>2026-04-06T06:32:19.337Z</time></trkpt><trkpt lat="43.6365483" lon="10.7669267"><ele>53.0</ele><time>2026-04-06T06:32:20.342Z</time></trkpt><trkpt lat="43.6364783" lon="10.7670533"><ele>54.0</ele><time>2026-04-06T06:32:21.339Z</time></trkpt><trkpt lat="43.6364067" lon="10.7671783"><ele>55.0</ele><time>2026-04-06T06:32:22.327Z</time></trkpt><trkpt lat="43.636335" lon="10.7673033"><ele>55.0</ele><time>2026-04-06T06:32:23.339Z</time></trkpt><trkpt lat="43.6362617" lon="10.7674267"><ele>55.0</ele><time>2026-04-06T06:32:24.338Z</time></trkpt><trkpt lat="43.6361883" lon="10.76755"><ele>55.0</ele><time>2026-04-06T06:32:25.338Z</time></trkpt><trkpt lat="43.636115" lon="10.76767"><ele>55.0</ele><time>2026-04-06T06:32:26.339Z</time></trkpt><trkpt lat="43.6360433" lon="10.7677817"><ele>55.4</ele><time>2026-04-06T06:32:27.336Z</time></trkpt><trkpt lat="43.6359683" lon="10.76789"><ele>55.8</ele><time>2026-04-06T06:32:28.336Z</time></trkpt><trkpt lat="43.6358933" lon="10.767995"><ele>56.2</ele><time>2026-04-06T06:32:29.338Z</time></trkpt><trkpt lat="43.63582" lon="10.7681033"><ele>56.6</ele><time>2026-04-06T06:32:30.338Z</time></trkpt><trkpt lat="43.635745" lon="10.76821"><ele>57.0</ele><time>2026-04-06T06:32:31.336Z</time></trkpt><trkpt lat="43.63567" lon="10.768315"><ele>57.0</ele><time>2026-04-06T06:32:32.338Z</time></trkpt><trkpt lat="43.635595" lon="10.76842"><ele>57.0</ele><time>2026-04-06T06:32:33.339Z</time></trkpt><trkpt lat="43.635525" lon="10.7685233"><ele>57.0</ele><time>2026-04-06T06:32:34.35Z</time></trkpt><trkpt lat="43.635455" lon="10.7686317"><ele>57.0</ele><time>2026-04-06T06:32:35.338Z</time></trkpt><trkpt lat="43.63539" lon="10.7687433"><ele>57.0</ele><time>2026-04-06T06:32:36.339Z</time></trkpt><trkpt lat="43.6353283" lon="10.768865"><ele>56.400000000000006</ele><time>2026-04-06T06:32:37.337Z</time></trkpt><trkpt lat="43.6352733" lon="10.7689917"><ele>55.800000000000004</ele><time>2026-04-06T06:32:38.337Z</time></trkpt><trkpt lat="43.6352217" lon="10.7691217"><ele>55.2</ele><time>2026-04-06T06:32:39.339Z</time></trkpt><trkpt lat="43.6351683" lon="10.7692517"><ele>54.6</ele><time>2026-04-06T06:32:40.338Z</time></trkpt><trkpt lat="43.6351183" lon="10.7693833"><ele>54.0</ele><time>2026-04-06T06:32:41.337Z</time></trkpt><trkpt lat="43.6350683" lon="10.7695167"><ele>54.0</ele><time>2026-04-06T06:32:42.337Z</time></trkpt><trkpt lat="43.635015" lon="10.76965"><ele>54.00000000000001</ele><time>2026-04-06T06:32:43.338Z</time></trkpt><trkpt lat="43.6349617" lon="10.7697833"><ele>54.00000000000001</ele><time>2026-04-06T06:32:44.337Z</time></trkpt><trkpt lat="43.634905" lon="10.7699183"><ele>54.0</ele><time>2026-04-06T06:32:45.337Z</time></trkpt><trkpt lat="43.6348483" lon="10.7700567"><ele>54.0</ele><time>2026-04-06T06:32:46.338Z</time></trkpt><trkpt lat="43.6347933" lon="10.7701933"><ele>54.0</ele><time>2026-04-06T06:32:47.337Z</time></trkpt><trkpt lat="43.6347317" lon="10.770325"><ele>54.00000000000001</ele><time>2026-04-06T06:32:48.336Z</time></trkpt><trkpt lat="43.6346633" lon="10.7704467"><ele>54.00000000000001</ele><time>2026-04-06T06:32:49.336Z</time></trkpt><trkpt lat="43.63459" lon="10.77056"><ele>54.0</ele><time>2026-04-06T06:32:50.34Z</time></trkpt><trkpt lat="43.6345117" lon="10.7706667"><ele>54.0</ele><time>2026-04-06T06:32:51.338Z</time></trkpt><trkpt lat="43.6344317" lon="10.7707717"><ele>53.400000000000006</ele><time>2026-04-06T06:32:52.336Z</time></trkpt><trkpt lat="43.6343483" lon="10.7708733"><ele>52.800000000000004</ele><time>2026-04-06T06:32:53.337Z</time></trkpt><trkpt lat="43.634265" lon="10.7709767"><ele>52.2</ele><time>2026-04-06T06:32:54.34Z</time></trkpt><trkpt lat="43.6341817" lon="10.7710783"><ele>51.599999999999994</ele><time>2026-04-06T06:32:55.335Z</time></trkpt><trkpt lat="43.6340983" lon="10.7711817"><ele>51.0</ele><time>2026-04-06T06:32:56.337Z</time></trkpt><trkpt lat="43.63401" lon="10.77128"><ele>51.0</ele><time>2026-04-06T06:32:57.338Z</time></trkpt><trkpt lat="43.6339233" lon="10.7713767"><ele>51.0</ele><time>2026-04-06T06:32:58.335Z</time></trkpt><trkpt lat="43.633835" lon="10.771475"><ele>51.0</ele><time>2026-04-06T06:32:59.338Z</time></trkpt><trkpt lat="43.63375" lon="10.771575"><ele>51.0</ele><time>2026-04-06T06:33:00.339Z</time></trkpt><trkpt lat="43.6336667" lon="10.7716717"><ele>51.0</ele><time>2026-04-06T06:33:01.335Z</time></trkpt><trkpt lat="43.633585" lon="10.7717683"><ele>52.199999999999996</ele><time>2026-04-06T06:33:02.337Z</time></trkpt><trkpt lat="43.6335033" lon="10.771865"><ele>53.4</ele><time>2026-04-06T06:33:03.338Z</time></trkpt><trkpt lat="43.63342" lon="10.7719583"><ele>54.6</ele><time>2026-04-06T06:33:04.337Z</time></trkpt><trkpt lat="43.6333367" lon="10.7720517"><ele>55.8</ele><time>2026-04-06T06:33:05.34Z</time></trkpt><trkpt lat="43.633255" lon="10.772145"><ele>57.0</ele><time>2026-04-06T06:33:06.336Z</time></trkpt><trkpt lat="43.6331717" lon="10.7722367"><ele>57.0</ele><time>2026-04-06T06:33:07.338Z</time></trkpt><trkpt lat="43.63309" lon="10.7723317"><ele>57.0</ele><time>2026-04-06T06:33:08.34Z</time></trkpt><trkpt lat="43.6330067" lon="10.772425"><ele>57.0</ele><time>2026-04-06T06:33:09.341Z</time></trkpt><trkpt lat="43.6329233" lon="10.7725217"><ele>57.0</ele><time>2026-04-06T06:33:10.337Z</time></trkpt><trkpt lat="43.6328417" lon="10.7726183"><ele>57.0</ele><time>2026-04-06T06:33:11.341Z</time></trkpt><trkpt lat="43.63276" lon="10.772715"><ele>56.8</ele><time>2026-04-06T06:33:12.337Z</time></trkpt><trkpt lat="43.632675" lon="10.7728083"><ele>56.6</ele><time>2026-04-06T06:33:13.342Z</time></trkpt><trkpt lat="43.6325867" lon="10.7729017"><ele>56.39999999999999</ele><time>2026-04-06T06:33:14.349Z</time></trkpt><trkpt lat="43.6324967" lon="10.7729883"><ele>56.199999999999996</ele><time>2026-04-06T06:33:15.346Z</time></trkpt><trkpt lat="43.6324017" lon="10.7730683"><ele>56.0</ele><time>2026-04-06T06:33:16.34Z</time></trkpt><trkpt lat="43.6323" lon="10.773135"><ele>56.0</ele><time>2026-04-06T06:33:17.344Z</time></trkpt><trkpt lat="43.632195" lon="10.7731867"><ele>55.99999999999999</ele><time>2026-04-06T06:33:18.34Z</time></trkpt><trkpt lat="43.6320883" lon="10.77323"><ele>55.99999999999999</ele><time>2026-04-06T06:33:19.335Z</time></trkpt><trkpt lat="43.6319833" lon="10.7732683"><ele>56.0</ele><time>2026-04-06T06:33:20.338Z</time></trkpt><trkpt lat="43.6318767" lon="10.7733067"><ele>56.0</ele><time>2026-04-06T06:33:21.339Z</time></trkpt><trkpt lat="43.6317683" lon="10.7733467"><ele>56.8</ele><time>2026-04-06T06:33:22.339Z</time></trkpt><trkpt lat="43.6316617" lon="10.773385"><ele>57.599999999999994</ele><time>2026-04-06T06:33:23.339Z</time></trkpt><trkpt lat="43.631555" lon="10.7734233"><ele>58.4</ele><time>2026-04-06T06:33:24.337Z</time></trkpt><trkpt lat="43.6314467" lon="10.7734583"><ele>59.2</ele><time>2026-04-06T06:33:25.337Z</time></trkpt><trkpt lat="43.6313383" lon="10.7734917"><ele>60.0</ele><time>2026-04-06T06:33:26.337Z</time></trkpt><trkpt lat="43.63123" lon="10.773525"><ele>62.2</ele><time>2026-04-06T06:33:27.336Z</time></trkpt><trkpt lat="43.6311217" lon="10.7735567"><ele>64.4</ele><time>2026-04-06T06:33:28.334Z</time></trkpt><trkpt lat="43.631015" lon="10.773595"><ele>66.6</ele><time>2026-04-06T06:33:29.337Z</time></trkpt><trkpt lat="43.6309083" lon="10.7736383"><ele>68.8</ele><time>2026-04-06T06:33:30.34Z</time></trkpt><trkpt lat="43.6308017" lon="10.7736783"><ele>71.0</ele><time>2026-04-06T06:33:31.338Z</time></trkpt><trkpt lat="43.6306917" lon="10.7737183"><ele>71.0</ele><time>2026-04-06T06:33:32.342Z</time></trkpt><trkpt lat="43.63058" lon="10.7737533"><ele>71.0</ele><time>2026-04-06T06:33:33.337Z</time></trkpt><trkpt lat="43.63047" lon="10.77379"><ele>71.0</ele><time>2026-04-06T06:33:34.335Z</time></trkpt><trkpt lat="43.630355" lon="10.7738283"><ele>71.0</ele><time>2026-04-06T06:33:35.338Z</time></trkpt><trkpt lat="43.63024" lon="10.7738633"><ele>71.5</ele><time>2026-04-06T06:33:36.337Z</time></trkpt><trkpt lat="43.630125" lon="10.7739033"><ele>72.0</ele><time>2026-04-06T06:33:37.336Z</time></trkpt><trkpt lat="43.63001" lon="10.7739417"><ele>72.5</ele><time>2026-04-06T06:33:38.34Z</time></trkpt><trkpt lat="43.6298967" lon="10.7739783"><ele>73.0</ele><time>2026-04-06T06:33:39.339Z</time></trkpt><trkpt lat="43.6297833" lon="10.7740133"><ele>73.0</ele><time>2026-04-06T06:33:40.338Z</time></trkpt><trkpt lat="43.62967" lon="10.774055"><ele>73.0</ele><time>2026-04-06T06:33:41.337Z</time></trkpt><trkpt lat="43.6295583" lon="10.774095"><ele>73.0</ele><time>2026-04-06T06:33:42.338Z</time></trkpt><trkpt lat="43.629445" lon="10.774135"><ele>73.0</ele><time>2026-04-06T06:33:43.336Z</time></trkpt><trkpt lat="43.6293283" lon="10.77417"><ele>70.0</ele><time>2026-04-06T06:33:44.34Z</time></trkpt><trkpt lat="43.6292167" lon="10.7742083"><ele>67.0</ele><time>2026-04-06T06:33:45.336Z</time></trkpt><trkpt lat="43.629105" lon="10.774245"><ele>64.0</ele><time>2026-04-06T06:33:46.337Z</time></trkpt><trkpt lat="43.6289967" lon="10.7742833"><ele>61.0</ele><time>2026-04-06T06:33:47.339Z</time></trkpt><trkpt lat="43.6288883" lon="10.774315"><ele>61.0</ele><time>2026-04-06T06:33:48.34Z</time></trkpt><trkpt lat="43.6287833" lon="10.7743517"><ele>60.99999999999999</ele><time>2026-04-06T06:33:49.341Z</time></trkpt><trkpt lat="43.6286783" lon="10.7743883"><ele>60.99999999999999</ele><time>2026-04-06T06:33:50.341Z</time></trkpt><trkpt lat="43.6285733" lon="10.7744217"><ele>61.0</ele><time>2026-04-06T06:33:51.341Z</time></trkpt><trkpt lat="43.6284683" lon="10.774455"><ele>61.0</ele><time>2026-04-06T06:33:52.343Z</time></trkpt><trkpt lat="43.6283617" lon="10.7744883"><ele>63.8</ele><time>2026-04-06T06:33:53.339Z</time></trkpt><trkpt lat="43.628255" lon="10.77452"><ele>66.6</ele><time>2026-04-06T06:33:54.338Z</time></trkpt><trkpt lat="43.6281467" lon="10.7745517"><ele>69.4</ele><time>2026-04-06T06:33:55.342Z</time></trkpt><trkpt lat="43.6280417" lon="10.77459"><ele>72.2</ele><time>2026-04-06T06:33:56.341Z</time></trkpt><trkpt lat="43.6279333" lon="10.7746283"><ele>75.0</ele><time>2026-04-06T06:33:57.339Z</time></trkpt><trkpt lat="43.6278267" lon="10.7746683"><ele>73.4</ele><time>2026-04-06T06:33:58.337Z</time></trkpt><trkpt lat="43.62772" lon="10.7747067"><ele>71.8</ele><time>2026-04-06T06:33:59.339Z</time></trkpt><trkpt lat="43.6276117" lon="10.77474"><ele>70.2</ele><time>2026-04-06T06:34:00.341Z</time></trkpt><trkpt lat="43.6275017" lon="10.7747733"><ele>68.6</ele><time>2026-04-06T06:34:01.339Z</time></trkpt><trkpt lat="43.6273917" lon="10.77481"><ele>67.0</ele><time>2026-04-06T06:34:02.338Z</time></trkpt><trkpt lat="43.6272833" lon="10.7748467"><ele>67.0</ele><time>2026-04-06T06:34:03.338Z</time></trkpt><trkpt lat="43.6271733" lon="10.7748833"><ele>67.0</ele><time>2026-04-06T06:34:04.338Z</time></trkpt><trkpt lat="43.6270667" lon="10.774925"><ele>67.0</ele><time>2026-04-06T06:34:05.338Z</time></trkpt><trkpt lat="43.6269583" lon="10.7749717"><ele>67.0</ele><time>2026-04-06T06:34:06.34Z</time></trkpt><trkpt lat="43.6268533" lon="10.7750233"><ele>67.0</ele><time>2026-04-06T06:34:07.338Z</time></trkpt><trkpt lat="43.626745" lon="10.7750817"><ele>65.0</ele><time>2026-04-06T06:34:08.339Z</time></trkpt><trkpt lat="43.6266383" lon="10.7751383"><ele>63.0</ele><time>2026-04-06T06:34:09.336Z</time></trkpt><trkpt lat="43.6265317" lon="10.7751917"><ele>61.0</ele><time>2026-04-06T06:34:10.335Z</time></trkpt><trkpt lat="43.626425" lon="10.7752433"><ele>59.0</ele><time>2026-04-06T06:34:11.337Z</time></trkpt><trkpt lat="43.6263233" lon="10.7752967"><ele>62.400000000000006</ele><time>2026-04-06T06:34:12.337Z</time></trkpt><trkpt lat="43.6262233" lon="10.7753483"><ele>65.80000000000001</ele><time>2026-04-06T06:34:13.337Z</time></trkpt><trkpt lat="43.626125" lon="10.7754017"><ele>69.19999999999999</ele><time>2026-04-06T06:34:14.339Z</time></trkpt><trkpt lat="43.6260233" lon="10.77545"><ele>72.6</ele><time>2026-04-06T06:34:15.336Z</time></trkpt><trkpt lat="43.6259217" lon="10.77549"><ele>76.0</ele><time>2026-04-06T06:34:16.334Z</time></trkpt><trkpt lat="43.6258167" lon="10.7755183"><ele>76.39999999999999</ele><time>2026-04-06T06:34:17.336Z</time></trkpt><trkpt lat="43.6257067" lon="10.77553"><ele>76.8</ele><time>2026-04-06T06:34:18.34Z</time></trkpt><trkpt lat="43.625595" lon="10.7755183"><ele>77.19999999999999</ele><time>2026-04-06T06:34:19.336Z</time></trkpt><trkpt lat="43.62549" lon="10.7754883"><ele>77.6</ele><time>2026-04-06T06:34:20.339Z</time></trkpt><trkpt lat="43.6253867" lon="10.7754483"><ele>78.0</ele><time>2026-04-06T06:34:21.349Z</time></trkpt><trkpt lat="43.6252833" lon="10.775405"><ele>79.4</ele><time>2026-04-06T06:34:22.337Z</time></trkpt><trkpt lat="43.62518" lon="10.7753617"><ele>80.8</ele><time>2026-04-06T06:34:23.338Z</time></trkpt><trkpt lat="43.6250767" lon="10.775315"><ele>82.2</ele><time>2026-04-06T06:34:24.338Z</time></trkpt><trkpt lat="43.62497" lon="10.7752733"><ele>83.6</ele><time>2026-04-06T06:34:25.338Z</time></trkpt><trkpt lat="43.6248633" lon="10.7752367"><ele>85.0</ele><time>2026-04-06T06:34:26.338Z</time></trkpt><trkpt lat="43.6247567" lon="10.7752083"><ele>85.0</ele><time>2026-04-06T06:34:27.341Z</time></trkpt><trkpt lat="43.6246467" lon="10.7751933"><ele>85.0</ele><time>2026-04-06T06:34:28.339Z</time></trkpt><trkpt lat="43.624535" lon="10.7752"><ele>85.0</ele><time>2026-04-06T06:34:29.339Z</time></trkpt><trkpt lat="43.624425" lon="10.77523"><ele>85.0</ele><time>2026-04-06T06:34:30.34Z</time></trkpt><trkpt lat="43.6243167" lon="10.7752717"><ele>85.0</ele><time>2026-04-06T06:34:31.337Z</time></trkpt><trkpt lat="43.62421" lon="10.775315"><ele>82.75</ele><time>2026-04-06T06:34:32.338Z</time></trkpt><trkpt lat="43.6241017" lon="10.77536"><ele>80.5</ele><time>2026-04-06T06:34:33.338Z</time></trkpt><trkpt lat="43.62399" lon="10.775405"><ele>78.25</ele><time>2026-04-06T06:34:34.337Z</time></trkpt><trkpt lat="43.62388" lon="10.77545"><ele>76.0</ele><time>2026-04-06T06:34:35.337Z</time></trkpt><trkpt lat="43.62377" lon="10.775495"><ele>76.0</ele><time>2026-04-06T06:34:36.339Z</time></trkpt><trkpt lat="43.62366" lon="10.77554"><ele>76.0</ele><time>2026-04-06T06:34:37.338Z</time></trkpt><trkpt lat="43.62355" lon="10.7755883"><ele>76.0</ele><time>2026-04-06T06:34:38.337Z</time></trkpt><trkpt lat="43.62344" lon="10.775635"><ele>76.0</ele><time>2026-04-06T06:34:39.337Z</time></trkpt><trkpt lat="43.62333" lon="10.7756817"><ele>72.75</ele><time>2026-04-06T06:34:40.338Z</time></trkpt><trkpt lat="43.6232217" lon="10.7757283"><ele>69.5</ele><time>2026-04-06T06:34:41.336Z</time></trkpt><trkpt lat="43.6231133" lon="10.7757733"><ele>66.25</ele><time>2026-04-06T06:34:42.338Z</time></trkpt><trkpt lat="43.6230067" lon="10.77582"><ele>63.0</ele><time>2026-04-06T06:34:43.34Z</time></trkpt><trkpt lat="43.6229" lon="10.775865"><ele>63.599999999999994</ele><time>2026-04-06T06:34:44.34Z</time></trkpt><trkpt lat="43.6227933" lon="10.7759117"><ele>64.19999999999999</ele><time>2026-04-06T06:34:45.338Z</time></trkpt><trkpt lat="43.6226883" lon="10.7759533"><ele>64.8</ele><time>2026-04-06T06:34:46.339Z</time></trkpt><trkpt lat="43.6225817" lon="10.775995"><ele>65.39999999999999</ele><time>2026-04-06T06:34:47.337Z</time></trkpt><trkpt lat="43.622475" lon="10.776035"><ele>66.0</ele><time>2026-04-06T06:34:48.337Z</time></trkpt><trkpt lat="43.6223683" lon="10.7760783"><ele>66.2</ele><time>2026-04-06T06:34:49.338Z</time></trkpt><trkpt lat="43.6222617" lon="10.7761233"><ele>66.39999999999999</ele><time>2026-04-06T06:34:50.337Z</time></trkpt><trkpt lat="43.6221533" lon="10.7761667"><ele>66.6</ele><time>2026-04-06T06:34:51.339Z</time></trkpt><trkpt lat="43.6220467" lon="10.7762083"><ele>66.8</ele><time>2026-04-06T06:34:52.339Z</time></trkpt><trkpt lat="43.6219433" lon="10.7762533"><ele>67.0</ele><time>2026-04-06T06:34:53.34Z</time></trkpt><trkpt lat="43.621845" lon="10.7762933"><ele>67.0</ele><time>2026-04-06T06:34:54.338Z</time></trkpt><trkpt lat="43.6217483" lon="10.7763333"><ele>67.0</ele><time>2026-04-06T06:34:55.338Z</time></trkpt><trkpt lat="43.62165" lon="10.7763767"><ele>67.0</ele><time>2026-04-06T06:34:56.337Z</time></trkpt><trkpt lat="43.6215517" lon="10.7764267"><ele>67.0</ele><time>2026-04-06T06:34:57.337Z</time></trkpt><trkpt lat="43.6214583" lon="10.776485"><ele>67.0</ele><time>2026-04-06T06:34:58.337Z</time></trkpt><trkpt lat="43.62137" lon="10.7765533"><ele>67.0</ele><time>2026-04-06T06:34:59.339Z</time></trkpt><trkpt lat="43.621285" lon="10.7766333"><ele>67.0</ele><time>2026-04-06T06:35:00.338Z</time></trkpt><trkpt lat="43.6212" lon="10.7767183"><ele>67.0</ele><time>2026-04-06T06:35:01.337Z</time></trkpt><trkpt lat="43.6211133" lon="10.7768017"><ele>67.0</ele><time>2026-04-06T06:35:02.338Z</time></trkpt><trkpt lat="43.6210267" lon="10.7768833"><ele>67.0</ele><time>2026-04-06T06:35:03.336Z</time></trkpt><trkpt lat="43.6209417" lon="10.776965"><ele>67.8</ele><time>2026-04-06T06:35:04.342Z</time></trkpt><trkpt lat="43.620855" lon="10.77705"><ele>68.6</ele><time>2026-04-06T06:35:05.338Z</time></trkpt><trkpt lat="43.62077" lon="10.7771367"><ele>69.39999999999999</ele><time>2026-04-06T06:35:06.336Z</time></trkpt><trkpt lat="43.6206833" lon="10.7772233"><ele>70.2</ele><time>2026-04-06T06:35:07.337Z</time></trkpt><trkpt lat="43.6206017" lon="10.77732"><ele>71.0</ele><time>2026-04-06T06:35:08.336Z</time></trkpt><trkpt lat="43.620525" lon="10.77742"><ele>71.0</ele><time>2026-04-06T06:35:09.337Z</time></trkpt><trkpt lat="43.620455" lon="10.7775317"><ele>71.0</ele><time>2026-04-06T06:35:10.336Z</time></trkpt><trkpt lat="43.62039" lon="10.77765"><ele>71.0</ele><time>2026-04-06T06:35:11.341Z</time></trkpt><trkpt lat="43.6203283" lon="10.7777733"><ele>71.0</ele><time>2026-04-06T06:35:12.338Z</time></trkpt><trkpt lat="43.6202667" lon="10.7779"><ele>71.0</ele><time>2026-04-06T06:35:13.341Z</time></trkpt><trkpt lat="43.620205" lon="10.7780283"><ele>71.39999999999999</ele><time>2026-04-06T06:35:14.34Z</time></trkpt><trkpt lat="43.6201417" lon="10.7781517"><ele>71.8</ele><time>2026-04-06T06:35:15.337Z</time></trkpt><trkpt lat="43.6200783" lon="10.7782767"><ele>72.19999999999999</ele><time>2026-04-06T06:35:16.336Z</time></trkpt><trkpt lat="43.620015" lon="10.7784033"><ele>72.6</ele><time>2026-04-06T06:35:17.336Z</time></trkpt><trkpt lat="43.6199533" lon="10.77853"><ele>73.0</ele><time>2026-04-06T06:35:18.342Z</time></trkpt><trkpt lat="43.6198917" lon="10.778655"><ele>74.6</ele><time>2026-04-06T06:35:19.341Z</time></trkpt><trkpt lat="43.61983" lon="10.7787817"><ele>76.19999999999999</ele><time>2026-04-06T06:35:20.344Z</time></trkpt><trkpt lat="43.6197683" lon="10.778905"><ele>77.8</ele><time>2026-04-06T06:35:21.35Z</time></trkpt><trkpt lat="43.6197067" lon="10.7790317"><ele>79.39999999999999</ele><time>2026-04-06T06:35:22.34Z</time></trkpt><trkpt lat="43.619645" lon="10.7791567"><ele>81.0</ele><time>2026-04-06T06:35:23.339Z</time></trkpt><trkpt lat="43.619585" lon="10.7792817"><ele>78.6</ele><time>2026-04-06T06:35:24.34Z</time></trkpt><trkpt lat="43.6195233" lon="10.7794067"><ele>76.19999999999999</ele><time>2026-04-06T06:35:25.34Z</time></trkpt><trkpt lat="43.619465" lon="10.7795367"><ele>73.80000000000001</ele><time>2026-04-06T06:35:26.339Z</time></trkpt><trkpt lat="43.619405" lon="10.7796667"><ele>71.4</ele><time>2026-04-06T06:35:27.339Z</time></trkpt><trkpt lat="43.6193433" lon="10.7797933"><ele>69.0</ele><time>2026-04-06T06:35:28.343Z</time></trkpt><trkpt lat="43.61928" lon="10.7799183"><ele>69.0</ele><time>2026-04-06T06:35:29.337Z</time></trkpt><trkpt lat="43.6192183" lon="10.7800467"><ele>69.0</ele><time>2026-04-06T06:35:30.338Z</time></trkpt><trkpt lat="43.619155" lon="10.780175"><ele>69.0</ele><time>2026-04-06T06:35:31.336Z</time></trkpt><trkpt lat="43.61909" lon="10.7803033"><ele>69.0</ele><time>2026-04-06T06:35:32.335Z</time></trkpt><trkpt lat="43.6190267" lon="10.7804317"><ele>71.80000000000001</ele><time>2026-04-06T06:35:33.337Z</time></trkpt><trkpt lat="43.618965" lon="10.7805583"><ele>74.60000000000001</ele><time>2026-04-06T06:35:34.337Z</time></trkpt><trkpt lat="43.618905" lon="10.7806867"><ele>77.4</ele><time>2026-04-06T06:35:35.336Z</time></trkpt><trkpt lat="43.6188467" lon="10.7808117"><ele>80.2</ele><time>2026-04-06T06:35:36.336Z</time></trkpt><trkpt lat="43.61879" lon="10.780935"><ele>83.0</ele><time>2026-04-06T06:35:37.337Z</time></trkpt><trkpt lat="43.6187317" lon="10.7810567"><ele>84.4</ele><time>2026-04-06T06:35:38.339Z</time></trkpt><trkpt lat="43.61867" lon="10.78118"><ele>85.80000000000001</ele><time>2026-04-06T06:35:39.337Z</time></trkpt><trkpt lat="43.6186067" lon="10.7813"><ele>87.2</ele><time>2026-04-06T06:35:40.336Z</time></trkpt><trkpt lat="43.61854" lon="10.78142"><ele>88.6</ele><time>2026-04-06T06:35:41.338Z</time></trkpt><trkpt lat="43.618475" lon="10.7815433"><ele>90.0</ele><time>2026-04-06T06:35:42.34Z</time></trkpt><trkpt lat="43.6184083" lon="10.7816667"><ele>85.75</ele><time>2026-04-06T06:35:43.339Z</time></trkpt><trkpt lat="43.61834" lon="10.7817883"><ele>81.5</ele><time>2026-04-06T06:35:44.345Z</time></trkpt><trkpt lat="43.6182683" lon="10.78191"><ele>77.25</ele><time>2026-04-06T06:35:45.339Z</time></trkpt><trkpt lat="43.6181967" lon="10.7820317"><ele>73.0</ele><time>2026-04-06T06:35:46.336Z</time></trkpt><trkpt lat="43.6181233" lon="10.782155"><ele>73.0</ele><time>2026-04-06T06:35:47.339Z</time></trkpt><trkpt lat="43.61805" lon="10.7822783"><ele>73.0</ele><time>2026-04-06T06:35:48.341Z</time></trkpt><trkpt lat="43.6179767" lon="10.7824"><ele>73.0</ele><time>2026-04-06T06:35:49.344Z</time></trkpt><trkpt lat="43.6179067" lon="10.7825217"><ele>73.0</ele><time>2026-04-06T06:35:50.337Z</time></trkpt><trkpt lat="43.6178383" lon="10.782645"><ele>73.0</ele><time>2026-04-06T06:35:51.336Z</time></trkpt><trkpt lat="43.6177683" lon="10.7827667"><ele>73.0</ele><time>2026-04-06T06:35:52.34Z</time></trkpt><trkpt lat="43.617695" lon="10.782885"><ele>73.0</ele><time>2026-04-06T06:35:53.336Z</time></trkpt><trkpt lat="43.6176183" lon="10.7829967"><ele>73.0</ele><time>2026-04-06T06:35:54.339Z</time></trkpt><trkpt lat="43.6175383" lon="10.7831017"><ele>73.0</ele><time>2026-04-06T06:35:55.336Z</time></trkpt><trkpt lat="43.6174517" lon="10.783205"><ele>73.0</ele><time>2026-04-06T06:35:56.338Z</time></trkpt><trkpt lat="43.617365" lon="10.783305"><ele>73.0</ele><time>2026-04-06T06:35:57.337Z</time></trkpt><trkpt lat="43.61728" lon="10.7834017"><ele>73.0</ele><time>2026-04-06T06:35:58.333Z</time></trkpt><trkpt lat="43.6171933" lon="10.7835017"><ele>73.0</ele><time>2026-04-06T06:35:59.336Z</time></trkpt><trkpt lat="43.6171067" lon="10.7835983"><ele>73.0</ele><time>2026-04-06T06:36:00.337Z</time></trkpt><trkpt lat="43.6170217" lon="10.7836917"><ele>73.75</ele><time>2026-04-06T06:36:01.348Z</time></trkpt><trkpt lat="43.6169333" lon="10.7837883"><ele>74.5</ele><time>2026-04-06T06:36:02.339Z</time></trkpt><trkpt lat="43.61684" lon="10.78388"><ele>75.25</ele><time>2026-04-06T06:36:03.337Z</time></trkpt><trkpt lat="43.6167433" lon="10.78396"><ele>76.0</ele><time>2026-04-06T06:36:04.339Z</time></trkpt><trkpt lat="43.6166417" lon="10.78403"><ele>76.0</ele><time>2026-04-06T06:36:05.341Z</time></trkpt><trkpt lat="43.6165367" lon="10.7840867"><ele>76.0</ele><time>2026-04-06T06:36:06.34Z</time></trkpt><trkpt lat="43.61643" lon="10.784135"><ele>76.0</ele><time>2026-04-06T06:36:07.34Z</time></trkpt><trkpt lat="43.6163183" lon="10.78418"><ele>76.0</ele><time>2026-04-06T06:36:08.337Z</time></trkpt><trkpt lat="43.6162083" lon="10.7842283"><ele>75.5</ele><time>2026-04-06T06:36:09.339Z</time></trkpt><trkpt lat="43.6160967" lon="10.7842767"><ele>75.0</ele><time>2026-04-06T06:36:10.337Z</time></trkpt><trkpt lat="43.6159833" lon="10.7843217"><ele>74.5</ele><time>2026-04-06T06:36:11.337Z</time></trkpt><trkpt lat="43.6158717" lon="10.784365"><ele>74.0</ele><time>2026-04-06T06:36:12.337Z</time></trkpt><trkpt lat="43.6157617" lon="10.7844083"><ele>74.0</ele><time>2026-04-06T06:36:13.339Z</time></trkpt><trkpt lat="43.615655" lon="10.7844533"><ele>74.0</ele><time>2026-04-06T06:36:14.339Z</time></trkpt><trkpt lat="43.6155483" lon="10.7844933"><ele>74.0</ele><time>2026-04-06T06:36:15.337Z</time></trkpt><trkpt lat="43.61544" lon="10.7845383"><ele>74.0</ele><time>2026-04-06T06:36:16.336Z</time></trkpt><trkpt lat="43.6153317" lon="10.784585"><ele>74.0</ele><time>2026-04-06T06:36:17.34Z</time></trkpt><trkpt lat="43.615225" lon="10.7846367"><ele>75.0</ele><time>2026-04-06T06:36:18.339Z</time></trkpt><trkpt lat="43.6151233" lon="10.7846967"><ele>76.0</ele><time>2026-04-06T06:36:19.336Z</time></trkpt><trkpt lat="43.615025" lon="10.7847683"><ele>77.0</ele><time>2026-04-06T06:36:20.337Z</time></trkpt><trkpt lat="43.614935" lon="10.7848483"><ele>78.0</ele><time>2026-04-06T06:36:21.337Z</time></trkpt><trkpt lat="43.6148467" lon="10.7849283"><ele>79.0</ele><time>2026-04-06T06:36:22.34Z</time></trkpt><trkpt lat="43.61476" lon="10.785005"><ele>79.0</ele><time>2026-04-06T06:36:23.344Z</time></trkpt><trkpt lat="43.6146717" lon="10.7850833"><ele>79.0</ele><time>2026-04-06T06:36:24.338Z</time></trkpt><trkpt lat="43.6145867" lon="10.7851583"><ele>79.0</ele><time>2026-04-06T06:36:25.338Z</time></trkpt><trkpt lat="43.614505" lon="10.7852317"><ele>79.0</ele><time>2026-04-06T06:36:26.34Z</time></trkpt><trkpt lat="43.6144283" lon="10.7853033"><ele>79.0</ele><time>2026-04-06T06:36:27.341Z</time></trkpt><trkpt lat="43.6143517" lon="10.7853783"><ele>80.4</ele><time>2026-04-06T06:36:28.338Z</time></trkpt><trkpt lat="43.614275" lon="10.7854517"><ele>81.80000000000001</ele><time>2026-04-06T06:36:29.337Z</time></trkpt><trkpt lat="43.6141983" lon="10.785525"><ele>83.19999999999999</ele><time>2026-04-06T06:36:30.337Z</time></trkpt><trkpt lat="43.6141183" lon="10.7855967"><ele>84.6</ele><time>2026-04-06T06:36:31.337Z</time></trkpt><trkpt lat="43.6140383" lon="10.7856667"><ele>86.0</ele><time>2026-04-06T06:36:32.337Z</time></trkpt><trkpt lat="43.6139583" lon="10.7857383"><ele>86.0</ele><time>2026-04-06T06:36:33.336Z</time></trkpt><trkpt lat="43.613875" lon="10.7858067"><ele>86.0</ele><time>2026-04-06T06:36:34.337Z</time></trkpt><trkpt lat="43.61379" lon="10.78587"><ele>86.0</ele><time>2026-04-06T06:36:35.336Z</time></trkpt><trkpt lat="43.6137033" lon="10.7859317"><ele>86.0</ele><time>2026-04-06T06:36:36.336Z</time></trkpt><trkpt lat="43.613615" lon="10.785985"><ele>86.0</ele><time>2026-04-06T06:36:37.34Z</time></trkpt><trkpt lat="43.6135267" lon="10.7860367"><ele>86.0</ele><time>2026-04-06T06:36:38.339Z</time></trkpt><trkpt lat="43.61344" lon="10.7860867"><ele>86.0</ele><time>2026-04-06T06:36:39.343Z</time></trkpt><trkpt lat="43.6133533" lon="10.7861367"><ele>86.0</ele><time>2026-04-06T06:36:40.339Z</time></trkpt><trkpt lat="43.6132633" lon="10.7861883"><ele>86.0</ele><time>2026-04-06T06:36:41.341Z</time></trkpt><trkpt lat="43.6131767" lon="10.7862383"><ele>86.0</ele><time>2026-04-06T06:36:42.339Z</time></trkpt><trkpt lat="43.6130883" lon="10.78629"><ele>86.0</ele><time>2026-04-06T06:36:43.338Z</time></trkpt><trkpt lat="43.6130033" lon="10.7863417"><ele>86.0</ele><time>2026-04-06T06:36:44.341Z</time></trkpt><trkpt lat="43.6129233" lon="10.7863867"><ele>86.0</ele><time>2026-04-06T06:36:45.34Z</time></trkpt><trkpt lat="43.6128467" lon="10.7864283"><ele>86.0</ele><time>2026-04-06T06:36:46.334Z</time></trkpt><trkpt lat="43.6127667" lon="10.7864617"><ele>86.0</ele><time>2026-04-06T06:36:47.337Z</time></trkpt><trkpt lat="43.6126833" lon="10.7864767"><ele>86.0</ele><time>2026-04-06T06:36:48.337Z</time></trkpt><trkpt lat="43.6125983" lon="10.7864817"><ele>87.16666666666667</ele><time>2026-04-06T06:36:49.429Z</time></trkpt><trkpt lat="43.6125133" lon="10.7864683"><ele>88.33333333333334</ele><time>2026-04-06T06:36:50.34Z</time></trkpt><trkpt lat="43.6124267" lon="10.7864467"><ele>89.5</ele><time>2026-04-06T06:36:51.342Z</time></trkpt><trkpt lat="43.6123433" lon="10.786425"><ele>90.66666666666667</ele><time>2026-04-06T06:36:52.348Z</time></trkpt><trkpt lat="43.6122683" lon="10.7864117"><ele>91.83333333333333</ele><time>2026-04-06T06:36:53.342Z</time></trkpt><trkpt lat="43.6122017" lon="10.7864083"><ele>93.0</ele><time>2026-04-06T06:36:54.345Z</time></trkpt><trkpt lat="43.6120917" lon="10.786415"><ele>93.0</ele><time>2026-04-06T06:36:56.343Z</time></trkpt><trkpt lat="43.6120033" lon="10.7863817"><ele>93.0</ele><time>2026-04-06T06:36:58.337Z</time></trkpt><trkpt lat="43.6119733" lon="10.78628"><ele>93.0</ele><time>2026-04-06T06:37:00.354Z</time></trkpt><trkpt lat="43.6120317" lon="10.786205"><ele>93.0</ele><time>2026-04-06T06:37:02.34Z</time></trkpt><trkpt lat="43.612125" lon="10.7862167"><ele>93.0</ele><time>2026-04-06T06:37:04.336Z</time></trkpt><trkpt lat="43.612235" lon="10.78623"><ele>93.0</ele><time>2026-04-06T06:37:06.336Z</time></trkpt><trkpt lat="43.6123583" lon="10.7862267"><ele>93.0</ele><time>2026-04-06T06:37:08.338Z</time></trkpt><trkpt lat="43.6124283" lon="10.7862183"><ele>93.0</ele><time>2026-04-06T06:37:09.339Z</time></trkpt><trkpt lat="43.6125" lon="10.7862"><ele>93.0</ele><time>2026-04-06T06:37:10.337Z</time></trkpt><trkpt lat="43.612565" lon="10.7861717"><ele>93.0</ele><time>2026-04-06T06:37:11.339Z</time></trkpt><trkpt lat="43.61264" lon="10.7861333"><ele>93.0</ele><time>2026-04-06T06:37:12.341Z</time></trkpt><trkpt lat="43.6127183" lon="10.7860867"><ele>93.0</ele><time>2026-04-06T06:37:13.341Z</time></trkpt><trkpt lat="43.6128" lon="10.7860333"><ele>93.0</ele><time>2026-04-06T06:37:14.34Z</time></trkpt><trkpt lat="43.6128817" lon="10.7859767"><ele>93.0</ele><time>2026-04-06T06:37:15.339Z</time></trkpt><trkpt lat="43.6129633" lon="10.7859233"><ele>93.0</ele><time>2026-04-06T06:37:16.335Z</time></trkpt><trkpt lat="43.6130467" lon="10.78587"><ele>93.0</ele><time>2026-04-06T06:37:17.334Z</time></trkpt><trkpt lat="43.6131283" lon="10.7858167"><ele>95.2</ele><time>2026-04-06T06:37:18.339Z</time></trkpt><trkpt lat="43.61321" lon="10.78576"><ele>97.4</ele><time>2026-04-06T06:37:19.342Z</time></trkpt><trkpt lat="43.6132917" lon="10.785705"><ele>99.60000000000001</ele><time>2026-04-06T06:37:20.34Z</time></trkpt><trkpt lat="43.6133733" lon="10.78565"><ele>101.80000000000001</ele><time>2026-04-06T06:37:21.342Z</time></trkpt><trkpt lat="43.613455" lon="10.7855933"><ele>104.0</ele><time>2026-04-06T06:37:22.338Z</time></trkpt><trkpt lat="43.6135367" lon="10.7855333"><ele>103.99999999999999</ele><time>2026-04-06T06:37:23.34Z</time></trkpt><trkpt lat="43.6136133" lon="10.7854667"><ele>104.0</ele><time>2026-04-06T06:37:24.34Z</time></trkpt><trkpt lat="43.6136833" lon="10.7853883"><ele>104.0</ele><time>2026-04-06T06:37:25.339Z</time></trkpt><trkpt lat="43.6137417" lon="10.7852983"><ele>104.0</ele><time>2026-04-06T06:37:26.339Z</time></trkpt><trkpt lat="43.6137917" lon="10.7851933"><ele>103.99999999999999</ele><time>2026-04-06T06:37:27.337Z</time></trkpt><trkpt lat="43.61383" lon="10.7850817"><ele>104.0</ele><time>2026-04-06T06:37:28.337Z</time></trkpt><trkpt lat="43.613855" lon="10.7849633"><ele>103.2</ele><time>2026-04-06T06:37:29.335Z</time></trkpt><trkpt lat="43.6138633" lon="10.78484"><ele>102.4</ele><time>2026-04-06T06:37:30.337Z</time></trkpt><trkpt lat="43.6138583" lon="10.7847167"><ele>101.6</ele><time>2026-04-06T06:37:31.339Z</time></trkpt><trkpt lat="43.6138317" lon="10.78459"><ele>100.8</ele><time>2026-04-06T06:37:32.337Z</time></trkpt><trkpt lat="43.6137917" lon="10.7844767"><ele>100.0</ele><time>2026-04-06T06:37:33.335Z</time></trkpt><trkpt lat="43.613735" lon="10.7843783"><ele>100.0</ele><time>2026-04-06T06:37:34.338Z</time></trkpt><trkpt lat="43.6136683" lon="10.78429"><ele>100.0</ele><time>2026-04-06T06:37:35.34Z</time></trkpt><trkpt lat="43.6135983" lon="10.7842017"><ele>100.0</ele><time>2026-04-06T06:37:36.338Z</time></trkpt><trkpt lat="43.613525" lon="10.7841183"><ele>100.0</ele><time>2026-04-06T06:37:37.357Z</time></trkpt><trkpt lat="43.6134433" lon="10.784045"><ele>100.0</ele><time>2026-04-06T06:37:38.336Z</time></trkpt><trkpt lat="43.6133567" lon="10.78398"><ele>102.4</ele><time>2026-04-06T06:37:39.337Z</time></trkpt><trkpt lat="43.61327" lon="10.7839083"><ele>104.8</ele><time>2026-04-06T06:37:40.338Z</time></trkpt><trkpt lat="43.61319" lon="10.7838267"><ele>107.19999999999999</ele><time>2026-04-06T06:37:41.339Z</time></trkpt><trkpt lat="43.6131217" lon="10.783725"><ele>109.6</ele><time>2026-04-06T06:37:42.34Z</time></trkpt><trkpt lat="43.6130617" lon="10.7836167"><ele>112.0</ele><time>2026-04-06T06:37:43.338Z</time></trkpt><trkpt lat="43.6130133" lon="10.783505"><ele>112.00000000000001</ele><time>2026-04-06T06:37:44.338Z</time></trkpt><trkpt lat="43.6129717" lon="10.7833883"><ele>112.0</ele><time>2026-04-06T06:37:45.346Z</time></trkpt><trkpt lat="43.6129333" lon="10.78327"><ele>112.0</ele><time>2026-04-06T06:37:46.336Z</time></trkpt><trkpt lat="43.6128983" lon="10.783155"><ele>112.0</ele><time>2026-04-06T06:37:47.337Z</time></trkpt><trkpt lat="43.6128617" lon="10.7830517"><ele>112.00000000000001</ele><time>2026-04-06T06:37:48.337Z</time></trkpt><trkpt lat="43.6128117" lon="10.782975"><ele>112.0</ele><time>2026-04-06T06:37:49.344Z</time></trkpt><trkpt lat="43.6127517" lon="10.78293"><ele>114.71428571428572</ele><time>2026-04-06T06:37:50.339Z</time></trkpt><trkpt lat="43.6126867" lon="10.7829167"><ele>117.42857142857143</ele><time>2026-04-06T06:37:51.337Z</time></trkpt><trkpt lat="43.6126217" lon="10.7829417"><ele>120.14285714285714</ele><time>2026-04-06T06:37:52.337Z</time></trkpt><trkpt lat="43.6125733" lon="10.7830033"><ele>122.85714285714286</ele><time>2026-04-06T06:37:53.338Z</time></trkpt><trkpt lat="43.6125467" lon="10.783085"><ele>125.57142857142858</ele><time>2026-04-06T06:37:54.336Z</time></trkpt><trkpt lat="43.6125483" lon="10.783175"><ele>128.28571428571428</ele><time>2026-04-06T06:37:55.337Z</time></trkpt><trkpt lat="43.6125617" lon="10.7832683"><ele>131.0</ele><time>2026-04-06T06:37:56.341Z</time></trkpt><trkpt lat="43.6125867" lon="10.7833667"><ele>131.0</ele><time>2026-04-06T06:37:57.338Z</time></trkpt><trkpt lat="43.6126083" lon="10.7834717"><ele>131.0</ele><time>2026-04-06T06:37:58.337Z</time></trkpt><trkpt lat="43.6126283" lon="10.7835867"><ele>131.0</ele><time>2026-04-06T06:37:59.341Z</time></trkpt><trkpt lat="43.6126483" lon="10.7836983"><ele>131.0</ele><time>2026-04-06T06:38:00.338Z</time></trkpt><trkpt lat="43.6126767" lon="10.783805"><ele>131.0</ele><time>2026-04-06T06:38:01.34Z</time></trkpt><trkpt lat="43.6127" lon="10.78391"><ele>131.0</ele><time>2026-04-06T06:38:02.339Z</time></trkpt><trkpt lat="43.61271" lon="10.7840067"><ele>132.6</ele><time>2026-04-06T06:38:03.34Z</time></trkpt><trkpt lat="43.6127017" lon="10.7840933"><ele>134.2</ele><time>2026-04-06T06:38:04.34Z</time></trkpt><trkpt lat="43.6126467" lon="10.7842183"><ele>135.8</ele><time>2026-04-06T06:38:06.337Z</time></trkpt><trkpt lat="43.6125483" lon="10.78424"><ele>137.4</ele><time>2026-04-06T06:38:08.338Z</time></trkpt><trkpt lat="43.6124717" lon="10.7841367"><ele>139.0</ele><time>2026-04-06T06:38:10.339Z</time></trkpt><trkpt lat="43.61244" lon="10.7839633"><ele>139.0</ele><time>2026-04-06T06:38:12.336Z</time></trkpt><trkpt lat="43.61242" lon="10.7838733"><ele>139.0</ele><time>2026-04-06T06:38:13.336Z</time></trkpt><trkpt lat="43.6123967" lon="10.783785"><ele>139.0</ele><time>2026-04-06T06:38:14.337Z</time></trkpt><trkpt lat="43.6123717" lon="10.7836933"><ele>139.0</ele><time>2026-04-06T06:38:15.337Z</time></trkpt><trkpt lat="43.612345" lon="10.783595"><ele>139.0</ele><time>2026-04-06T06:38:16.335Z</time></trkpt><trkpt lat="43.61232" lon="10.7835033"><ele>139.0</ele><time>2026-04-06T06:38:17.337Z</time></trkpt><trkpt lat="43.612295" lon="10.7834217"><ele>139.0</ele><time>2026-04-06T06:38:18.338Z</time></trkpt><trkpt lat="43.6122183" lon="10.7832967"><ele>139.0</ele><time>2026-04-06T06:38:20.37Z</time></trkpt><trkpt lat="43.6121033" lon="10.78331"><ele>139.0</ele><time>2026-04-06T06:38:22.337Z</time></trkpt><trkpt lat="43.61205" lon="10.7834467"><ele>139.0</ele><time>2026-04-06T06:38:24.339Z</time></trkpt><trkpt lat="43.6120933" lon="10.7836033"><ele>139.0</ele><time>2026-04-06T06:38:26.339Z</time></trkpt><trkpt lat="43.6121267" lon="10.7836883"><ele>139.0</ele><time>2026-04-06T06:38:27.337Z</time></trkpt><trkpt lat="43.612155" lon="10.7837783"><ele>139.0</ele><time>2026-04-06T06:38:28.336Z</time></trkpt><trkpt lat="43.6121783" lon="10.7838667"><ele>139.0</ele><time>2026-04-06T06:38:29.335Z</time></trkpt><trkpt lat="43.6122067" lon="10.783955"><ele>139.0</ele><time>2026-04-06T06:38:30.337Z</time></trkpt><trkpt lat="43.612235" lon="10.7840517"><ele>139.0</ele><time>2026-04-06T06:38:31.34Z</time></trkpt><trkpt lat="43.6122617" lon="10.784155"><ele>139.0</ele><time>2026-04-06T06:38:32.337Z</time></trkpt><trkpt lat="43.6122867" lon="10.7842617"><ele>139.0</ele><time>2026-04-06T06:38:33.339Z</time></trkpt><trkpt lat="43.6123067" lon="10.7843667"><ele>139.2</ele><time>2026-04-06T06:38:34.342Z</time></trkpt><trkpt lat="43.6123183" lon="10.784475"><ele>139.4</ele><time>2026-04-06T06:38:35.339Z</time></trkpt><trkpt lat="43.6123283" lon="10.7845783"><ele>139.6</ele><time>2026-04-06T06:38:36.339Z</time></trkpt><trkpt lat="43.612335" lon="10.7846733"><ele>139.8</ele><time>2026-04-06T06:38:37.337Z</time></trkpt><trkpt lat="43.61232" lon="10.7848383"><ele>140.0</ele><time>2026-04-06T06:38:39.337Z</time></trkpt><trkpt lat="43.612245" lon="10.7849467"><ele>140.0</ele><time>2026-04-06T06:38:41.339Z</time></trkpt><trkpt lat="43.61214" lon="10.78496"><ele>140.0</ele><time>2026-04-06T06:38:43.338Z</time></trkpt><trkpt lat="43.6120217" lon="10.7849583"><ele>140.0</ele><time>2026-04-06T06:38:45.337Z</time></trkpt><trkpt lat="43.611955" lon="10.7849717"><ele>140.0</ele><time>2026-04-06T06:38:46.336Z</time></trkpt><trkpt lat="43.6118883" lon="10.7849933"><ele>140.0</ele><time>2026-04-06T06:38:47.34Z</time></trkpt><trkpt lat="43.6118217" lon="10.7850267"><ele>140.0</ele><time>2026-04-06T06:38:48.339Z</time></trkpt><trkpt lat="43.61176" lon="10.7850567"><ele>138.57142857142858</ele><time>2026-04-06T06:38:49.337Z</time></trkpt><trkpt lat="43.6116983" lon="10.7850833"><ele>137.14285714285714</ele><time>2026-04-06T06:38:50.338Z</time></trkpt><trkpt lat="43.6116333" lon="10.7851133"><ele>135.71428571428572</ele><time>2026-04-06T06:38:51.338Z</time></trkpt><trkpt lat="43.611565" lon="10.7851417"><ele>134.28571428571428</ele><time>2026-04-06T06:38:52.338Z</time></trkpt><trkpt lat="43.6114933" lon="10.785165"><ele>132.85714285714286</ele><time>2026-04-06T06:38:53.338Z</time></trkpt><trkpt lat="43.6114217" lon="10.7851817"><ele>131.42857142857144</ele><time>2026-04-06T06:38:54.341Z</time></trkpt><trkpt lat="43.6113483" lon="10.7852017"><ele>130.0</ele><time>2026-04-06T06:38:55.338Z</time></trkpt><trkpt lat="43.6112783" lon="10.785225"><ele>130.0</ele><time>2026-04-06T06:38:56.338Z</time></trkpt><trkpt lat="43.611205" lon="10.785255"><ele>130.0</ele><time>2026-04-06T06:38:57.338Z</time></trkpt><trkpt lat="43.6111333" lon="10.7852883"><ele>130.0</ele><time>2026-04-06T06:38:58.337Z</time></trkpt><trkpt lat="43.6110617" lon="10.7853117"><ele>130.0</ele><time>2026-04-06T06:38:59.339Z</time></trkpt><trkpt lat="43.6109867" lon="10.7853217"><ele>130.0</ele><time>2026-04-06T06:39:00.338Z</time></trkpt><trkpt lat="43.6109133" lon="10.78531"><ele>130.0</ele><time>2026-04-06T06:39:01.336Z</time></trkpt><trkpt lat="43.61084" lon="10.7852767"><ele>130.5</ele><time>2026-04-06T06:39:02.338Z</time></trkpt><trkpt lat="43.6107717" lon="10.7852267"><ele>131.0</ele><time>2026-04-06T06:39:03.341Z</time></trkpt><trkpt lat="43.6107067" lon="10.7851717"><ele>131.5</ele><time>2026-04-06T06:39:04.337Z</time></trkpt><trkpt lat="43.6106383" lon="10.785125"><ele>132.0</ele><time>2026-04-06T06:39:05.339Z</time></trkpt><trkpt lat="43.6105667" lon="10.78509"><ele>132.5</ele><time>2026-04-06T06:39:06.339Z</time></trkpt><trkpt lat="43.6104867" lon="10.7850617"><ele>133.0</ele><time>2026-04-06T06:39:07.339Z</time></trkpt><trkpt lat="43.610405" lon="10.78503"><ele>137.83333333333334</ele><time>2026-04-06T06:39:08.335Z</time></trkpt><trkpt lat="43.61033" lon="10.784985"><ele>142.66666666666669</ele><time>2026-04-06T06:39:09.336Z</time></trkpt><trkpt lat="43.610265" lon="10.7849183"><ele>147.5</ele><time>2026-04-06T06:39:10.337Z</time></trkpt><trkpt lat="43.61021" lon="10.78484"><ele>152.33333333333334</ele><time>2026-04-06T06:39:11.337Z</time></trkpt><trkpt lat="43.6101567" lon="10.7847633"><ele>157.16666666666666</ele><time>2026-04-06T06:39:12.335Z</time></trkpt><trkpt lat="43.610095" lon="10.7847033"><ele>162.0</ele><time>2026-04-06T06:39:13.335Z</time></trkpt><trkpt lat="43.6100267" lon="10.7846633"><ele>162.0</ele><time>2026-04-06T06:39:14.338Z</time></trkpt><trkpt lat="43.6099533" lon="10.78464"><ele>162.0</ele><time>2026-04-06T06:39:15.336Z</time></trkpt><trkpt lat="43.6098717" lon="10.7846367"><ele>162.0</ele><time>2026-04-06T06:39:16.338Z</time></trkpt><trkpt lat="43.6097917" lon="10.78464"><ele>162.0</ele><time>2026-04-06T06:39:17.338Z</time></trkpt><trkpt lat="43.6097083" lon="10.7846433"><ele>162.0</ele><time>2026-04-06T06:39:18.338Z</time></trkpt><trkpt lat="43.60963" lon="10.78464"><ele>162.0</ele><time>2026-04-06T06:39:19.338Z</time></trkpt><trkpt lat="43.6095533" lon="10.7846183"><ele>161.4</ele><time>2026-04-06T06:39:20.338Z</time></trkpt><trkpt lat="43.6094883" lon="10.7845717"><ele>160.79999999999998</ele><time>2026-04-06T06:39:21.341Z</time></trkpt><trkpt lat="43.60944" lon="10.7845033"><ele>160.2</ele><time>2026-04-06T06:39:22.338Z</time></trkpt><trkpt lat="43.60941" lon="10.7843383"><ele>159.6</ele><time>2026-04-06T06:39:24.344Z</time></trkpt><trkpt lat="43.6094683" lon="10.7842"><ele>159.0</ele><time>2026-04-06T06:39:26.339Z</time></trkpt><trkpt lat="43.6095517" lon="10.7840667"><ele>162.85714285714286</ele><time>2026-04-06T06:39:28.341Z</time></trkpt><trkpt lat="43.6095867" lon="10.78399"><ele>166.71428571428572</ele><time>2026-04-06T06:39:29.338Z</time></trkpt><trkpt lat="43.6096183" lon="10.7839083"><ele>170.57142857142858</ele><time>2026-04-06T06:39:30.341Z</time></trkpt><trkpt lat="43.609645" lon="10.7838267"><ele>174.42857142857144</ele><time>2026-04-06T06:39:31.338Z</time></trkpt><trkpt lat="43.6096667" lon="10.7837433"><ele>178.28571428571428</ele><time>2026-04-06T06:39:32.339Z</time></trkpt><trkpt lat="43.6096767" lon="10.7836517"><ele>182.14285714285717</ele><time>2026-04-06T06:39:33.339Z</time></trkpt><trkpt lat="43.6096817" lon="10.78356"><ele>186.0</ele><time>2026-04-06T06:39:34.337Z</time></trkpt><trkpt lat="43.6096717" lon="10.7834"><ele>186.33333333333334</ele><time>2026-04-06T06:39:36.337Z</time></trkpt><trkpt lat="43.609665" lon="10.7832467"><ele>186.66666666666666</ele><time>2026-04-06T06:39:38.34Z</time></trkpt><trkpt lat="43.6096617" lon="10.7830783"><ele>187.0</ele><time>2026-04-06T06:39:40.336Z</time></trkpt><trkpt lat="43.6096617" lon="10.7829833"><ele>187.33333333333331</ele><time>2026-04-06T06:39:41.339Z</time></trkpt><trkpt lat="43.609665" lon="10.782885"><ele>187.66666666666666</ele><time>2026-04-06T06:39:42.338Z</time></trkpt><trkpt lat="43.60967" lon="10.7827817"><ele>188.0</ele><time>2026-04-06T06:39:43.337Z</time></trkpt><trkpt lat="43.609675" lon="10.7826817"><ele>186.66666666666666</ele><time>2026-04-06T06:39:44.338Z</time></trkpt><trkpt lat="43.60968" lon="10.7825833"><ele>185.33333333333331</ele><time>2026-04-06T06:39:45.338Z</time></trkpt><trkpt lat="43.6096867" lon="10.7824817"><ele>184.0</ele><time>2026-04-06T06:39:46.34Z</time></trkpt><trkpt lat="43.6096933" lon="10.7823783"><ele>182.66666666666666</ele><time>2026-04-06T06:39:47.337Z</time></trkpt><trkpt lat="43.6097" lon="10.7822717"><ele>181.33333333333334</ele><time>2026-04-06T06:39:48.339Z</time></trkpt><trkpt lat="43.609705" lon="10.782165"><ele>180.0</ele><time>2026-04-06T06:39:49.339Z</time></trkpt><trkpt lat="43.6097133" lon="10.782055"><ele>180.0</ele><time>2026-04-06T06:39:50.339Z</time></trkpt><trkpt lat="43.6097233" lon="10.781945"><ele>180.0</ele><time>2026-04-06T06:39:51.347Z</time></trkpt><trkpt lat="43.60973" lon="10.78183"><ele>180.0</ele><time>2026-04-06T06:39:52.34Z</time></trkpt><trkpt lat="43.60974" lon="10.7817167"><ele>180.0</ele><time>2026-04-06T06:39:53.339Z</time></trkpt><trkpt lat="43.6097567" lon="10.7816017"><ele>180.0</ele><time>2026-04-06T06:39:54.34Z</time></trkpt><trkpt lat="43.6097767" lon="10.7814933"><ele>180.0</ele><time>2026-04-06T06:39:55.341Z</time></trkpt><trkpt lat="43.6098017" lon="10.78139"><ele>180.0</ele><time>2026-04-06T06:39:56.338Z</time></trkpt><trkpt lat="43.60983" lon="10.7812883"><ele>180.0</ele><time>2026-04-06T06:39:57.339Z</time></trkpt><trkpt lat="43.60986" lon="10.7811883"><ele>180.0</ele><time>2026-04-06T06:39:58.339Z</time></trkpt><trkpt lat="43.6098883" lon="10.781095"><ele>180.0</ele><time>2026-04-06T06:39:59.34Z</time></trkpt><trkpt lat="43.6099167" lon="10.7810033"><ele>180.0</ele><time>2026-04-06T06:40:00.338Z</time></trkpt><trkpt lat="43.609945" lon="10.78091"><ele>180.0</ele><time>2026-04-06T06:40:01.337Z</time></trkpt><trkpt lat="43.6099733" lon="10.78082"><ele>180.0</ele><time>2026-04-06T06:40:02.336Z</time></trkpt><trkpt lat="43.61" lon="10.78073"><ele>180.0</ele><time>2026-04-06T06:40:03.338Z</time></trkpt><trkpt lat="43.6100183" lon="10.7806333"><ele>180.0</ele><time>2026-04-06T06:40:04.337Z</time></trkpt><trkpt lat="43.6100317" lon="10.7805333"><ele>180.0</ele><time>2026-04-06T06:40:05.34Z</time></trkpt><trkpt lat="43.6100383" lon="10.7804317"><ele>180.0</ele><time>2026-04-06T06:40:06.338Z</time></trkpt><trkpt lat="43.6100367" lon="10.7803283"><ele>180.0</ele><time>2026-04-06T06:40:07.343Z</time></trkpt><trkpt lat="43.61003" lon="10.78022"><ele>180.0</ele><time>2026-04-06T06:40:08.34Z</time></trkpt><trkpt lat="43.6100167" lon="10.78011"><ele>180.33333333333334</ele><time>2026-04-06T06:40:09.341Z</time></trkpt><trkpt lat="43.6099983" lon="10.7799967"><ele>180.66666666666666</ele><time>2026-04-06T06:40:10.338Z</time></trkpt><trkpt lat="43.6099767" lon="10.7798833"><ele>181.0</ele><time>2026-04-06T06:40:11.338Z</time></trkpt><trkpt lat="43.6099533" lon="10.7797717"><ele>181.33333333333331</ele><time>2026-04-06T06:40:12.338Z</time></trkpt><trkpt lat="43.6099283" lon="10.77966"><ele>181.66666666666666</ele><time>2026-04-06T06:40:13.342Z</time></trkpt><trkpt lat="43.609905" lon="10.7795467"><ele>182.0</ele><time>2026-04-06T06:40:14.34Z</time></trkpt><trkpt lat="43.6098817" lon="10.7794333"><ele>183.5</ele><time>2026-04-06T06:40:15.336Z</time></trkpt><trkpt lat="43.609855" lon="10.77932"><ele>185.0</ele><time>2026-04-06T06:40:16.333Z</time></trkpt><trkpt lat="43.609825" lon="10.77921"><ele>186.5</ele><time>2026-04-06T06:40:17.335Z</time></trkpt><trkpt lat="43.60979" lon="10.7791017"><ele>188.0</ele><time>2026-04-06T06:40:18.348Z</time></trkpt><trkpt lat="43.6097483" lon="10.7789983"><ele>189.5</ele><time>2026-04-06T06:40:19.34Z</time></trkpt><trkpt lat="43.6097" lon="10.7788983"><ele>191.0</ele><time>2026-04-06T06:40:20.341Z</time></trkpt><trkpt lat="43.6096483" lon="10.7788"><ele>191.0</ele><time>2026-04-06T06:40:21.343Z</time></trkpt><trkpt lat="43.6095967" lon="10.7787133"><ele>191.0</ele><time>2026-04-06T06:40:22.339Z</time></trkpt><trkpt lat="43.6095433" lon="10.7786367"><ele>191.0</ele><time>2026-04-06T06:40:23.34Z</time></trkpt><trkpt lat="43.60948" lon="10.7785717"><ele>191.0</ele><time>2026-04-06T06:40:24.338Z</time></trkpt><trkpt lat="43.60941" lon="10.7785233"><ele>191.0</ele><time>2026-04-06T06:40:25.348Z</time></trkpt><trkpt lat="43.6093383" lon="10.7784917"><ele>191.0</ele><time>2026-04-06T06:40:26.341Z</time></trkpt><trkpt lat="43.609265" lon="10.778475"><ele>192.66666666666666</ele><time>2026-04-06T06:40:27.34Z</time></trkpt><trkpt lat="43.60919" lon="10.77847"><ele>194.33333333333331</ele><time>2026-04-06T06:40:28.341Z</time></trkpt><trkpt lat="43.60911" lon="10.7784717"><ele>196.0</ele><time>2026-04-06T06:40:29.34Z</time></trkpt><trkpt lat="43.6090283" lon="10.7784817"><ele>197.66666666666666</ele><time>2026-04-06T06:40:30.339Z</time></trkpt><trkpt lat="43.608945" lon="10.7784933"><ele>199.33333333333334</ele><time>2026-04-06T06:40:31.34Z</time></trkpt><trkpt lat="43.6088617" lon="10.7784917"><ele>201.0</ele><time>2026-04-06T06:40:32.339Z</time></trkpt><trkpt lat="43.60878" lon="10.77847"><ele>201.0</ele><time>2026-04-06T06:40:33.336Z</time></trkpt><trkpt lat="43.608705" lon="10.7784233"><ele>201.0</ele><time>2026-04-06T06:40:34.334Z</time></trkpt><trkpt lat="43.6086417" lon="10.7783567"><ele>201.0</ele><time>2026-04-06T06:40:35.337Z</time></trkpt><trkpt lat="43.6085883" lon="10.7782767"><ele>201.0</ele><time>2026-04-06T06:40:36.338Z</time></trkpt><trkpt lat="43.6085417" lon="10.7781883"><ele>201.0</ele><time>2026-04-06T06:40:37.337Z</time></trkpt><trkpt lat="43.60851" lon="10.778085"><ele>201.0</ele><time>2026-04-06T06:40:38.338Z</time></trkpt><trkpt lat="43.6084833" lon="10.777975"><ele>201.83333333333334</ele><time>2026-04-06T06:40:39.335Z</time></trkpt><trkpt lat="43.6084533" lon="10.7778667"><ele>202.66666666666669</ele><time>2026-04-06T06:40:40.337Z</time></trkpt><trkpt lat="43.608415" lon="10.7777733"><ele>203.5</ele><time>2026-04-06T06:40:41.337Z</time></trkpt><trkpt lat="43.60837" lon="10.7776817"><ele>204.33333333333334</ele><time>2026-04-06T06:40:42.338Z</time></trkpt><trkpt lat="43.60832" lon="10.7775967"><ele>205.16666666666669</ele><time>2026-04-06T06:40:43.339Z</time></trkpt><trkpt lat="43.60827" lon="10.77751"><ele>206.0</ele><time>2026-04-06T06:40:44.339Z</time></trkpt><trkpt lat="43.6082217" lon="10.7774183"><ele>206.00000000000003</ele><time>2026-04-06T06:40:45.338Z</time></trkpt><trkpt lat="43.6081733" lon="10.7773233"><ele>206.0</ele><time>2026-04-06T06:40:46.339Z</time></trkpt><trkpt lat="43.60813" lon="10.777225"><ele>206.0</ele><time>2026-04-06T06:40:47.34Z</time></trkpt><trkpt lat="43.60809" lon="10.7771233"><ele>206.0</ele><time>2026-04-06T06:40:48.337Z</time></trkpt><trkpt lat="43.60805" lon="10.7770233"><ele>206.00000000000003</ele><time>2026-04-06T06:40:49.34Z</time></trkpt><trkpt lat="43.60801" lon="10.7769233"><ele>206.0</ele><time>2026-04-06T06:40:50.342Z</time></trkpt><trkpt lat="43.60797" lon="10.7768283"><ele>206.00000000000003</ele><time>2026-04-06T06:40:51.337Z</time></trkpt><trkpt lat="43.6079267" lon="10.7767333"><ele>206.0</ele><time>2026-04-06T06:40:52.341Z</time></trkpt><trkpt lat="43.60788" lon="10.7766367"><ele>206.0</ele><time>2026-04-06T06:40:53.337Z</time></trkpt><trkpt lat="43.6078333" lon="10.7765367"><ele>206.0</ele><time>2026-04-06T06:40:54.336Z</time></trkpt><trkpt lat="43.6077867" lon="10.776435"><ele>206.00000000000003</ele><time>2026-04-06T06:40:55.339Z</time></trkpt><trkpt lat="43.607735" lon="10.7763317"><ele>206.0</ele><time>2026-04-06T06:40:56.341Z</time></trkpt><trkpt lat="43.6076833" lon="10.7762217"><ele>205.8</ele><time>2026-04-06T06:40:57.338Z</time></trkpt><trkpt lat="43.60763" lon="10.7761133"><ele>205.60000000000002</ele><time>2026-04-06T06:40:58.337Z</time></trkpt><trkpt lat="43.6075817" lon="10.776005"><ele>205.4</ele><time>2026-04-06T06:40:59.335Z</time></trkpt><trkpt lat="43.6075283" lon="10.7759"><ele>205.2</ele><time>2026-04-06T06:41:00.334Z</time></trkpt><trkpt lat="43.60747" lon="10.775805"><ele>205.0</ele><time>2026-04-06T06:41:01.332Z</time></trkpt><trkpt lat="43.607405" lon="10.775715"><ele>205.0</ele><time>2026-04-06T06:41:02.342Z</time></trkpt><trkpt lat="43.6073367" lon="10.7756367"><ele>205.0</ele><time>2026-04-06T06:41:03.337Z</time></trkpt><trkpt lat="43.6072583" lon="10.77557"><ele>205.0</ele><time>2026-04-06T06:41:04.338Z</time></trkpt><trkpt lat="43.607175" lon="10.77551"><ele>205.0</ele><time>2026-04-06T06:41:05.337Z</time></trkpt><trkpt lat="43.60709" lon="10.77545"><ele>205.0</ele><time>2026-04-06T06:41:06.337Z</time></trkpt><trkpt lat="43.6070067" lon="10.7753817"><ele>205.0</ele><time>2026-04-06T06:41:07.335Z</time></trkpt><trkpt lat="43.6069267" lon="10.7753117"><ele>205.0</ele><time>2026-04-06T06:41:08.337Z</time></trkpt><trkpt lat="43.606845" lon="10.775245"><ele>205.0</ele><time>2026-04-06T06:41:09.336Z</time></trkpt><trkpt lat="43.6067633" lon="10.775185"><ele>205.0</ele><time>2026-04-06T06:41:10.339Z</time></trkpt><trkpt lat="43.6066833" lon="10.775125"><ele>205.0</ele><time>2026-04-06T06:41:11.338Z</time></trkpt><trkpt lat="43.6066083" lon="10.7750633"><ele>204.99999999999997</ele><time>2026-04-06T06:41:12.337Z</time></trkpt><trkpt lat="43.6065333" lon="10.775005"><ele>205.0</ele><time>2026-04-06T06:41:13.338Z</time></trkpt><trkpt lat="43.6064567" lon="10.7749567"><ele>205.0</ele><time>2026-04-06T06:41:14.337Z</time></trkpt><trkpt lat="43.6063783" lon="10.7749217"><ele>205.0</ele><time>2026-04-06T06:41:15.334Z</time></trkpt><trkpt lat="43.6062917" lon="10.7749117"><ele>204.99999999999997</ele><time>2026-04-06T06:41:16.338Z</time></trkpt><trkpt lat="43.6062067" lon="10.7749317"><ele>205.0</ele><time>2026-04-06T06:41:17.338Z</time></trkpt><trkpt lat="43.60613" lon="10.7749767"><ele>205.16666666666666</ele><time>2026-04-06T06:41:18.342Z</time></trkpt><trkpt lat="43.60606" lon="10.775045"><ele>205.33333333333331</ele><time>2026-04-06T06:41:19.341Z</time></trkpt><trkpt lat="43.6059983" lon="10.775125"><ele>205.5</ele><time>2026-04-06T06:41:20.34Z</time></trkpt><trkpt lat="43.6059433" lon="10.7752017"><ele>205.66666666666669</ele><time>2026-04-06T06:41:21.337Z</time></trkpt><trkpt lat="43.6058883" lon="10.7752783"><ele>205.83333333333334</ele><time>2026-04-06T06:41:22.335Z</time></trkpt><trkpt lat="43.605835" lon="10.7753517"><ele>206.0</ele><time>2026-04-06T06:41:23.334Z</time></trkpt><trkpt lat="43.6057767" lon="10.775415"><ele>204.33333333333334</ele><time>2026-04-06T06:41:24.335Z</time></trkpt><trkpt lat="43.6057133" lon="10.77546"><ele>202.66666666666669</ele><time>2026-04-06T06:41:25.34Z</time></trkpt><trkpt lat="43.6056483" lon="10.7754867"><ele>201.0</ele><time>2026-04-06T06:41:26.337Z</time></trkpt><trkpt lat="43.6055583" lon="10.7754883"><ele>199.33333333333331</ele><time>2026-04-06T06:41:28.347Z</time></trkpt><trkpt lat="43.605495" lon="10.775455"><ele>197.66666666666666</ele><time>2026-04-06T06:41:31.337Z</time></trkpt><trkpt lat="43.60544" lon="10.7754"><ele>196.0</ele><time>2026-04-06T06:41:34.337Z</time></trkpt><trkpt lat="43.605395" lon="10.77527"><ele>197.20000000000002</ele><time>2026-04-06T06:41:37.337Z</time></trkpt><trkpt lat="43.605355" lon="10.7751467"><ele>198.4</ele><time>2026-04-06T06:41:39.336Z</time></trkpt><trkpt lat="43.6053067" lon="10.775005"><ele>199.6</ele><time>2026-04-06T06:41:41.339Z</time></trkpt><trkpt lat="43.6052683" lon="10.7748583"><ele>200.8</ele><time>2026-04-06T06:41:43.336Z</time></trkpt><trkpt lat="43.6052183" lon="10.7747133"><ele>202.0</ele><time>2026-04-06T06:41:45.338Z</time></trkpt><trkpt lat="43.6051917" lon="10.7745717"><ele>201.99999999999997</ele><time>2026-04-06T06:41:47.337Z</time></trkpt><trkpt lat="43.60515" lon="10.7744567"><ele>202.0</ele><time>2026-04-06T06:41:49.338Z</time></trkpt><trkpt lat="43.6051283" lon="10.7743633"><ele>202.0</ele><time>2026-04-06T06:41:51.336Z</time></trkpt><trkpt lat="43.60508" lon="10.7742767"><ele>202.0</ele><time>2026-04-06T06:42:01.338Z</time></trkpt><trkpt lat="43.6050783" lon="10.7741883"><ele>201.99999999999997</ele><time>2026-04-06T06:42:03.339Z</time></trkpt><trkpt lat="43.60508" lon="10.7740333"><ele>202.0</ele><time>2026-04-06T06:42:05.348Z</time></trkpt><trkpt lat="43.605055" lon="10.773895"><ele>202.14285714285714</ele><time>2026-04-06T06:42:07.343Z</time></trkpt><trkpt lat="43.60504" lon="10.77381"><ele>202.28571428571428</ele><time>2026-04-06T06:42:08.339Z</time></trkpt><trkpt lat="43.6050317" lon="10.77372"><ele>202.42857142857144</ele><time>2026-04-06T06:42:09.339Z</time></trkpt><trkpt lat="43.60503" lon="10.7736283"><ele>202.57142857142856</ele><time>2026-04-06T06:42:10.337Z</time></trkpt><trkpt lat="43.6050233" lon="10.7735317"><ele>202.71428571428572</ele><time>2026-04-06T06:42:11.337Z</time></trkpt><trkpt lat="43.6050133" lon="10.773435"><ele>202.85714285714286</ele><time>2026-04-06T06:42:12.338Z</time></trkpt><trkpt lat="43.605005" lon="10.7733367"><ele>203.0</ele><time>2026-04-06T06:42:13.337Z</time></trkpt><trkpt lat="43.6049983" lon="10.773245"><ele>203.00000000000003</ele><time>2026-04-06T06:42:14.339Z</time></trkpt><trkpt lat="43.6049917" lon="10.773155"><ele>203.0</ele><time>2026-04-06T06:42:15.341Z</time></trkpt><trkpt lat="43.6049867" lon="10.7730683"><ele>203.0</ele><time>2026-04-06T06:42:16.34Z</time></trkpt><trkpt lat="43.6049883" lon="10.7728983"><ele>203.0</ele><time>2026-04-06T06:42:18.337Z</time></trkpt><trkpt lat="43.6049783" lon="10.7727217"><ele>203.00000000000003</ele><time>2026-04-06T06:42:20.341Z</time></trkpt><trkpt lat="43.6049783" lon="10.7726267"><ele>203.0</ele><time>2026-04-06T06:42:21.336Z</time></trkpt><trkpt lat="43.6049717" lon="10.7725317"><ele>202.66666666666669</ele><time>2026-04-06T06:42:22.335Z</time></trkpt><trkpt lat="43.6049733" lon="10.772435"><ele>202.33333333333334</ele><time>2026-04-06T06:42:23.334Z</time></trkpt><trkpt lat="43.604975" lon="10.7723417"><ele>202.0</ele><time>2026-04-06T06:42:24.337Z</time></trkpt><trkpt lat="43.604975" lon="10.7722533"><ele>201.66666666666669</ele><time>2026-04-06T06:42:25.334Z</time></trkpt><trkpt lat="43.6049867" lon="10.7720783"><ele>201.33333333333334</ele><time>2026-04-06T06:42:27.334Z</time></trkpt><trkpt lat="43.6050017" lon="10.7719917"><ele>201.0</ele><time>2026-04-06T06:42:28.335Z</time></trkpt><trkpt lat="43.60501" lon="10.7718317"><ele>201.0</ele><time>2026-04-06T06:42:30.34Z</time></trkpt><trkpt lat="43.60502" lon="10.7716683"><ele>201.0</ele><time>2026-04-06T06:42:32.336Z</time></trkpt><trkpt lat="43.6050467" lon="10.77152"><ele>201.0</ele><time>2026-04-06T06:42:34.334Z</time></trkpt><trkpt lat="43.605125" lon="10.7714"><ele>201.0</ele><time>2026-04-06T06:42:36.337Z</time></trkpt><trkpt lat="43.605225" lon="10.7713033"><ele>200.33333333333334</ele><time>2026-04-06T06:42:38.336Z</time></trkpt><trkpt lat="43.6053333" lon="10.7712283"><ele>199.66666666666669</ele><time>2026-04-06T06:42:40.336Z</time></trkpt><trkpt lat="43.6053833" lon="10.771175"><ele>199.0</ele><time>2026-04-06T06:42:41.336Z</time></trkpt><trkpt lat="43.6054683" lon="10.7710483"><ele>198.33333333333334</ele><time>2026-04-06T06:42:43.335Z</time></trkpt><trkpt lat="43.605505" lon="10.7709733"><ele>197.66666666666669</ele><time>2026-04-06T06:42:44.337Z</time></trkpt><trkpt lat="43.605545" lon="10.770895"><ele>197.0</ele><time>2026-04-06T06:42:45.337Z</time></trkpt><trkpt lat="43.60558" lon="10.7708083"><ele>197.0</ele><time>2026-04-06T06:42:46.336Z</time></trkpt><trkpt lat="43.6056083" lon="10.7707167"><ele>197.0</ele><time>2026-04-06T06:42:47.337Z</time></trkpt><trkpt lat="43.6056317" lon="10.770625"><ele>197.0</ele><time>2026-04-06T06:42:48.337Z</time></trkpt><trkpt lat="43.6056517" lon="10.770535"><ele>197.0</ele><time>2026-04-06T06:42:49.336Z</time></trkpt><trkpt lat="43.6056717" lon="10.7704433"><ele>197.0</ele><time>2026-04-06T06:42:50.338Z</time></trkpt><trkpt lat="43.60569" lon="10.7703533"><ele>197.0</ele><time>2026-04-06T06:42:51.336Z</time></trkpt><trkpt lat="43.6057117" lon="10.7702617"><ele>197.0</ele><time>2026-04-06T06:42:52.336Z</time></trkpt><trkpt lat="43.605735" lon="10.7701683"><ele>198.14285714285714</ele><time>2026-04-06T06:42:53.337Z</time></trkpt><trkpt lat="43.605755" lon="10.770075"><ele>199.28571428571428</ele><time>2026-04-06T06:42:54.337Z</time></trkpt><trkpt lat="43.6057667" lon="10.7699817"><ele>200.42857142857144</ele><time>2026-04-06T06:42:55.336Z</time></trkpt><trkpt lat="43.6057633" lon="10.76989"><ele>201.57142857142856</ele><time>2026-04-06T06:42:56.336Z</time></trkpt><trkpt lat="43.6057467" lon="10.7697983"><ele>202.7142857142857</ele><time>2026-04-06T06:42:57.34Z</time></trkpt><trkpt lat="43.6057267" lon="10.76971"><ele>203.85714285714286</ele><time>2026-04-06T06:42:58.34Z</time></trkpt><trkpt lat="43.6056983" lon="10.769625"><ele>205.0</ele><time>2026-04-06T06:42:59.337Z</time></trkpt><trkpt lat="43.60566" lon="10.7695433"><ele>204.99999999999997</ele><time>2026-04-06T06:43:00.339Z</time></trkpt><trkpt lat="43.6056117" lon="10.7694717"><ele>205.0</ele><time>2026-04-06T06:43:01.335Z</time></trkpt><trkpt lat="43.6055533" lon="10.7694083"><ele>205.0</ele><time>2026-04-06T06:43:02.338Z</time></trkpt><trkpt lat="43.6054867" lon="10.7693483"><ele>205.0</ele><time>2026-04-06T06:43:03.344Z</time></trkpt><trkpt lat="43.6054183" lon="10.7692917"><ele>204.99999999999997</ele><time>2026-04-06T06:43:04.338Z</time></trkpt><trkpt lat="43.6053533" lon="10.7692317"><ele>205.0</ele><time>2026-04-06T06:43:05.339Z</time></trkpt><trkpt lat="43.60529" lon="10.7691733"><ele>207.6</ele><time>2026-04-06T06:43:06.337Z</time></trkpt><trkpt lat="43.6052317" lon="10.769115"><ele>210.2</ele><time>2026-04-06T06:43:07.336Z</time></trkpt><trkpt lat="43.6051817" lon="10.769055"><ele>212.8</ele><time>2026-04-06T06:43:08.339Z</time></trkpt><trkpt lat="43.605105" lon="10.7689483"><ele>215.4</ele><time>2026-04-06T06:43:10.335Z</time></trkpt><trkpt lat="43.6050667" lon="10.7688383"><ele>218.0</ele><time>2026-04-06T06:43:12.339Z</time></trkpt><trkpt lat="43.6050817" lon="10.76868"><ele>218.00000000000003</ele><time>2026-04-06T06:43:14.337Z</time></trkpt><trkpt lat="43.6050933" lon="10.76859"><ele>218.0</ele><time>2026-04-06T06:43:15.338Z</time></trkpt><trkpt lat="43.6051117" lon="10.7685"><ele>218.0</ele><time>2026-04-06T06:43:16.337Z</time></trkpt><trkpt lat="43.605135" lon="10.7684"><ele>218.0</ele><time>2026-04-06T06:43:17.337Z</time></trkpt><trkpt lat="43.6051683" lon="10.7682983"><ele>218.00000000000003</ele><time>2026-04-06T06:43:18.333Z</time></trkpt><trkpt lat="43.6052067" lon="10.7681983"><ele>218.0</ele><time>2026-04-06T06:43:19.337Z</time></trkpt><trkpt lat="43.605245" lon="10.7680933"><ele>216.16666666666669</ele><time>2026-04-06T06:43:20.336Z</time></trkpt><trkpt lat="43.605285" lon="10.767985"><ele>214.33333333333334</ele><time>2026-04-06T06:43:21.336Z</time></trkpt><trkpt lat="43.60532" lon="10.7678817"><ele>212.5</ele><time>2026-04-06T06:43:22.339Z</time></trkpt><trkpt lat="43.6053483" lon="10.76778"><ele>210.66666666666669</ele><time>2026-04-06T06:43:23.337Z</time></trkpt><trkpt lat="43.6053783" lon="10.7676783"><ele>208.83333333333334</ele><time>2026-04-06T06:43:24.339Z</time></trkpt><trkpt lat="43.6054117" lon="10.7675833"><ele>207.0</ele><time>2026-04-06T06:43:25.339Z</time></trkpt><trkpt lat="43.6054467" lon="10.7674967"><ele>206.83333333333334</ele><time>2026-04-06T06:43:26.337Z</time></trkpt><trkpt lat="43.6054817" lon="10.767405"><ele>206.66666666666669</ele><time>2026-04-06T06:43:27.335Z</time></trkpt><trkpt lat="43.6055183" lon="10.7673133"><ele>206.5</ele><time>2026-04-06T06:43:28.338Z</time></trkpt><trkpt lat="43.605555" lon="10.7672233"><ele>206.33333333333334</ele><time>2026-04-06T06:43:29.34Z</time></trkpt><trkpt lat="43.6055883" lon="10.7671267"><ele>206.16666666666669</ele><time>2026-04-06T06:43:30.337Z</time></trkpt><trkpt lat="43.6056217" lon="10.76703"><ele>206.0</ele><time>2026-04-06T06:43:31.339Z</time></trkpt><trkpt lat="43.605655" lon="10.7669417"><ele>207.33333333333334</ele><time>2026-04-06T06:43:32.338Z</time></trkpt><trkpt lat="43.6056933" lon="10.7668583"><ele>208.66666666666669</ele><time>2026-04-06T06:43:33.335Z</time></trkpt><trkpt lat="43.6057283" lon="10.7667683"><ele>210.0</ele><time>2026-04-06T06:43:34.338Z</time></trkpt><trkpt lat="43.6057567" lon="10.766675"><ele>211.33333333333331</ele><time>2026-04-06T06:43:35.34Z</time></trkpt><trkpt lat="43.6058017" lon="10.76659"><ele>212.66666666666666</ele><time>2026-04-06T06:43:36.338Z</time></trkpt><trkpt lat="43.6058367" lon="10.766495"><ele>214.0</ele><time>2026-04-06T06:43:37.338Z</time></trkpt><trkpt lat="43.605875" lon="10.7664017"><ele>214.00000000000003</ele><time>2026-04-06T06:43:38.337Z</time></trkpt><trkpt lat="43.6059167" lon="10.7663133"><ele>214.0</ele><time>2026-04-06T06:43:39.339Z</time></trkpt><trkpt lat="43.6059533" lon="10.7662267"><ele>214.0</ele><time>2026-04-06T06:43:40.337Z</time></trkpt><trkpt lat="43.6059933" lon="10.7661433"><ele>214.0</ele><time>2026-04-06T06:43:41.337Z</time></trkpt><trkpt lat="43.606015" lon="10.766055"><ele>214.0</ele><time>2026-04-06T06:43:42.339Z</time></trkpt><trkpt lat="43.606035" lon="10.76596"><ele>214.00000000000003</ele><time>2026-04-06T06:43:43.34Z</time></trkpt><trkpt lat="43.606045" lon="10.76586"><ele>214.0</ele><time>2026-04-06T06:43:44.339Z</time></trkpt><trkpt lat="43.6060333" lon="10.7657517"><ele>213.66666666666666</ele><time>2026-04-06T06:43:45.336Z</time></trkpt><trkpt lat="43.6060017" lon="10.7656567"><ele>213.33333333333331</ele><time>2026-04-06T06:43:46.338Z</time></trkpt><trkpt lat="43.6059533" lon="10.76557"><ele>213.0</ele><time>2026-04-06T06:43:47.337Z</time></trkpt><trkpt lat="43.6059033" lon="10.7654833"><ele>212.66666666666669</ele><time>2026-04-06T06:43:48.343Z</time></trkpt><trkpt lat="43.60586" lon="10.7653883"><ele>212.33333333333334</ele><time>2026-04-06T06:43:49.337Z</time></trkpt><trkpt lat="43.6058167" lon="10.7653"><ele>212.0</ele><time>2026-04-06T06:43:50.338Z</time></trkpt><trkpt lat="43.60577" lon="10.765215"><ele>212.0</ele><time>2026-04-06T06:43:51.339Z</time></trkpt><trkpt lat="43.6057233" lon="10.7651333"><ele>212.0</ele><time>2026-04-06T06:43:52.331Z</time></trkpt><trkpt lat="43.60567" lon="10.7650633"><ele>212.0</ele><time>2026-04-06T06:43:53.336Z</time></trkpt><trkpt lat="43.6056133" lon="10.765"><ele>212.0</ele><time>2026-04-06T06:43:54.337Z</time></trkpt><trkpt lat="43.605555" lon="10.7649433"><ele>212.0</ele><time>2026-04-06T06:43:55.335Z</time></trkpt><trkpt lat="43.6054933" lon="10.7648867"><ele>212.0</ele><time>2026-04-06T06:43:56.34Z</time></trkpt><trkpt lat="43.6054333" lon="10.764825"><ele>212.0</ele><time>2026-04-06T06:43:57.337Z</time></trkpt><trkpt lat="43.6053767" lon="10.7647517"><ele>209.83333333333334</ele><time>2026-04-06T06:43:58.337Z</time></trkpt><trkpt lat="43.6053233" lon="10.76467"><ele>207.66666666666669</ele><time>2026-04-06T06:43:59.335Z</time></trkpt><trkpt lat="43.6052717" lon="10.76458"><ele>205.5</ele><time>2026-04-06T06:44:00.336Z</time></trkpt><trkpt lat="43.605225" lon="10.7644867"><ele>203.33333333333331</ele><time>2026-04-06T06:44:01.337Z</time></trkpt><trkpt lat="43.6051817" lon="10.764385"><ele>201.16666666666666</ele><time>2026-04-06T06:44:02.338Z</time></trkpt><trkpt lat="43.605145" lon="10.76427"><ele>199.0</ele><time>2026-04-06T06:44:03.335Z</time></trkpt><trkpt lat="43.6051083" lon="10.7641467"><ele>199.0</ele><time>2026-04-06T06:44:04.338Z</time></trkpt><trkpt lat="43.6050767" lon="10.7640167"><ele>199.0</ele><time>2026-04-06T06:44:05.339Z</time></trkpt><trkpt lat="43.6049933" lon="10.7637483"><ele>199.0</ele><time>2026-04-06T06:44:07.337Z</time></trkpt><trkpt lat="43.6049483" lon="10.7636067"><ele>199.0</ele><time>2026-04-06T06:44:08.338Z</time></trkpt><trkpt lat="43.6049" lon="10.7634617"><ele>197.75</ele><time>2026-04-06T06:44:09.334Z</time></trkpt><trkpt lat="43.6048467" lon="10.76332"><ele>196.5</ele><time>2026-04-06T06:44:10.336Z</time></trkpt><trkpt lat="43.6047883" lon="10.76318"><ele>195.25</ele><time>2026-04-06T06:44:11.336Z</time></trkpt><trkpt lat="43.60472" lon="10.7630467"><ele>194.0</ele><time>2026-04-06T06:44:12.337Z</time></trkpt><trkpt lat="43.6046467" lon="10.7629167"><ele>194.0</ele><time>2026-04-06T06:44:13.336Z</time></trkpt><trkpt lat="43.60457" lon="10.76279"><ele>194.0</ele><time>2026-04-06T06:44:14.337Z</time></trkpt><trkpt lat="43.604495" lon="10.762665"><ele>194.0</ele><time>2026-04-06T06:44:15.337Z</time></trkpt><trkpt lat="43.604425" lon="10.7625417"><ele>194.0</ele><time>2026-04-06T06:44:16.336Z</time></trkpt><trkpt lat="43.604355" lon="10.7624183"><ele>192.0</ele><time>2026-04-06T06:44:17.338Z</time></trkpt><trkpt lat="43.6042817" lon="10.7622983"><ele>190.0</ele><time>2026-04-06T06:44:18.336Z</time></trkpt><trkpt lat="43.6042033" lon="10.7621883"><ele>188.0</ele><time>2026-04-06T06:44:19.337Z</time></trkpt><trkpt lat="43.6041183" lon="10.762085"><ele>186.0</ele><time>2026-04-06T06:44:20.34Z</time></trkpt><trkpt lat="43.6040333" lon="10.7619817"><ele>186.0</ele><time>2026-04-06T06:44:21.336Z</time></trkpt><trkpt lat="43.6039517" lon="10.7618667"><ele>186.0</ele><time>2026-04-06T06:44:22.337Z</time></trkpt><trkpt lat="43.6038767" lon="10.7617467"><ele>186.0</ele><time>2026-04-06T06:44:23.336Z</time></trkpt><trkpt lat="43.6038" lon="10.76163"><ele>186.0</ele><time>2026-04-06T06:44:24.343Z</time></trkpt><trkpt lat="43.6037267" lon="10.76152"><ele>183.8</ele><time>2026-04-06T06:44:25.338Z</time></trkpt><trkpt lat="43.60365" lon="10.7614183"><ele>181.60000000000002</ele><time>2026-04-06T06:44:26.338Z</time></trkpt><trkpt lat="43.603575" lon="10.76132"><ele>179.4</ele><time>2026-04-06T06:44:27.336Z</time></trkpt><trkpt lat="43.6034983" lon="10.7612333"><ele>177.2</ele><time>2026-04-06T06:44:28.338Z</time></trkpt><trkpt lat="43.60342" lon="10.761155"><ele>175.0</ele><time>2026-04-06T06:44:29.337Z</time></trkpt><trkpt lat="43.60334" lon="10.7610883"><ele>175.0</ele><time>2026-04-06T06:44:30.338Z</time></trkpt><trkpt lat="43.6032533" lon="10.7610333"><ele>175.0</ele><time>2026-04-06T06:44:31.337Z</time></trkpt><trkpt lat="43.6031617" lon="10.7609917"><ele>175.0</ele><time>2026-04-06T06:44:32.345Z</time></trkpt><trkpt lat="43.603065" lon="10.7609583"><ele>175.0</ele><time>2026-04-06T06:44:33.346Z</time></trkpt><trkpt lat="43.6029667" lon="10.76093"><ele>175.0</ele><time>2026-04-06T06:44:34.339Z</time></trkpt><trkpt lat="43.6028683" lon="10.7609067"><ele>178.0</ele><time>2026-04-06T06:44:35.34Z</time></trkpt><trkpt lat="43.6027667" lon="10.760885"><ele>181.0</ele><time>2026-04-06T06:44:36.341Z</time></trkpt><trkpt lat="43.602665" lon="10.7608683"><ele>184.0</ele><time>2026-04-06T06:44:37.338Z</time></trkpt><trkpt lat="43.6025617" lon="10.760855"><ele>187.0</ele><time>2026-04-06T06:44:38.338Z</time></trkpt><trkpt lat="43.6024567" lon="10.7608483"><ele>190.0</ele><time>2026-04-06T06:44:39.337Z</time></trkpt><trkpt lat="43.60235" lon="10.7608417"><ele>190.0</ele><time>2026-04-06T06:44:40.338Z</time></trkpt><trkpt lat="43.602245" lon="10.7608333"><ele>190.0</ele><time>2026-04-06T06:44:41.34Z</time></trkpt><trkpt lat="43.60214" lon="10.76082"><ele>190.0</ele><time>2026-04-06T06:44:42.339Z</time></trkpt><trkpt lat="43.6020333" lon="10.7608"><ele>190.0</ele><time>2026-04-06T06:44:43.336Z</time></trkpt><trkpt lat="43.60193" lon="10.760775"><ele>190.0</ele><time>2026-04-06T06:44:44.34Z</time></trkpt><trkpt lat="43.6018317" lon="10.7607433"><ele>190.2</ele><time>2026-04-06T06:44:45.338Z</time></trkpt><trkpt lat="43.6017417" lon="10.7607033"><ele>190.4</ele><time>2026-04-06T06:44:46.346Z</time></trkpt><trkpt lat="43.60166" lon="10.7606483"><ele>190.60000000000002</ele><time>2026-04-06T06:44:47.338Z</time></trkpt><trkpt lat="43.6015783" lon="10.7605783"><ele>190.8</ele><time>2026-04-06T06:44:48.341Z</time></trkpt><trkpt lat="43.6015" lon="10.7604983"><ele>191.0</ele><time>2026-04-06T06:44:49.337Z</time></trkpt><trkpt lat="43.6014233" lon="10.7604083"><ele>191.0</ele><time>2026-04-06T06:44:50.343Z</time></trkpt><trkpt lat="43.60135" lon="10.760315"><ele>191.0</ele><time>2026-04-06T06:44:51.337Z</time></trkpt><trkpt lat="43.60128" lon="10.7602167"><ele>191.0</ele><time>2026-04-06T06:44:52.338Z</time></trkpt><trkpt lat="43.6012183" lon="10.7601133"><ele>191.0</ele><time>2026-04-06T06:44:53.338Z</time></trkpt><trkpt lat="43.601155" lon="10.76001"><ele>191.0</ele><time>2026-04-06T06:44:54.338Z</time></trkpt><trkpt lat="43.6010967" lon="10.7599067"><ele>188.60000000000002</ele><time>2026-04-06T06:44:55.339Z</time></trkpt><trkpt lat="43.6010367" lon="10.7598067"><ele>186.2</ele><time>2026-04-06T06:44:56.341Z</time></trkpt><trkpt lat="43.6009783" lon="10.75971"><ele>183.8</ele><time>2026-04-06T06:44:57.337Z</time></trkpt><trkpt lat="43.6009183" lon="10.759615"><ele>181.39999999999998</ele><time>2026-04-06T06:44:58.336Z</time></trkpt><trkpt lat="43.600855" lon="10.7595183"><ele>179.0</ele><time>2026-04-06T06:44:59.336Z</time></trkpt><trkpt lat="43.600795" lon="10.7594233"><ele>179.5</ele><time>2026-04-06T06:45:00.339Z</time></trkpt><trkpt lat="43.6007367" lon="10.7593317"><ele>180.0</ele><time>2026-04-06T06:45:01.338Z</time></trkpt><trkpt lat="43.6006783" lon="10.7592433"><ele>180.5</ele><time>2026-04-06T06:45:02.34Z</time></trkpt><trkpt lat="43.6006217" lon="10.7591567"><ele>181.0</ele><time>2026-04-06T06:45:03.338Z</time></trkpt><trkpt lat="43.600565" lon="10.7590667"><ele>181.5</ele><time>2026-04-06T06:45:04.34Z</time></trkpt><trkpt lat="43.60051" lon="10.7589683"><ele>182.0</ele><time>2026-04-06T06:45:05.338Z</time></trkpt><trkpt lat="43.600455" lon="10.7588667"><ele>182.0</ele><time>2026-04-06T06:45:06.337Z</time></trkpt><trkpt lat="43.6004033" lon="10.75876"><ele>182.0</ele><time>2026-04-06T06:45:07.337Z</time></trkpt><trkpt lat="43.6003533" lon="10.7586533"><ele>182.0</ele><time>2026-04-06T06:45:08.342Z</time></trkpt><trkpt lat="43.600305" lon="10.7585383"><ele>182.0</ele><time>2026-04-06T06:45:09.336Z</time></trkpt><trkpt lat="43.6002583" lon="10.7584133"><ele>182.0</ele><time>2026-04-06T06:45:10.338Z</time></trkpt><trkpt lat="43.600215" lon="10.758285"><ele>182.0</ele><time>2026-04-06T06:45:11.337Z</time></trkpt><trkpt lat="43.6001717" lon="10.7581483"><ele>182.0</ele><time>2026-04-06T06:45:12.339Z</time></trkpt><trkpt lat="43.6001367" lon="10.758005"><ele>182.0</ele><time>2026-04-06T06:45:13.339Z</time></trkpt><trkpt lat="43.6001117" lon="10.7578533"><ele>182.0</ele><time>2026-04-06T06:45:14.339Z</time></trkpt><trkpt lat="43.6001017" lon="10.7576983"><ele>182.0</ele><time>2026-04-06T06:45:15.338Z</time></trkpt><trkpt lat="43.6000983" lon="10.7575467"><ele>181.6</ele><time>2026-04-06T06:45:16.336Z</time></trkpt><trkpt lat="43.600095" lon="10.7573967"><ele>181.2</ele><time>2026-04-06T06:45:17.338Z</time></trkpt><trkpt lat="43.600095" lon="10.7572467"><ele>180.8</ele><time>2026-04-06T06:45:18.338Z</time></trkpt><trkpt lat="43.6000933" lon="10.7570983"><ele>180.4</ele><time>2026-04-06T06:45:19.336Z</time></trkpt><trkpt lat="43.6000867" lon="10.7569517"><ele>180.0</ele><time>2026-04-06T06:45:20.336Z</time></trkpt><trkpt lat="43.600065" lon="10.75681"><ele>178.8</ele><time>2026-04-06T06:45:21.341Z</time></trkpt><trkpt lat="43.6000333" lon="10.7566717"><ele>177.6</ele><time>2026-04-06T06:45:22.344Z</time></trkpt><trkpt lat="43.5999983" lon="10.7565367"><ele>176.39999999999998</ele><time>2026-04-06T06:45:23.33Z</time></trkpt><trkpt lat="43.5999617" lon="10.7564"><ele>175.2</ele><time>2026-04-06T06:45:24.337Z</time></trkpt><trkpt lat="43.599925" lon="10.7562617"><ele>174.0</ele><time>2026-04-06T06:45:25.335Z</time></trkpt><trkpt lat="43.59989" lon="10.75612"><ele>173.0</ele><time>2026-04-06T06:45:26.337Z</time></trkpt><trkpt lat="43.5998583" lon="10.7559783"><ele>172.0</ele><time>2026-04-06T06:45:27.337Z</time></trkpt><trkpt lat="43.5998367" lon="10.755835"><ele>171.0</ele><time>2026-04-06T06:45:28.338Z</time></trkpt><trkpt lat="43.5998283" lon="10.7556883"><ele>170.0</ele><time>2026-04-06T06:45:29.339Z</time></trkpt><trkpt lat="43.5998333" lon="10.7555433"><ele>169.0</ele><time>2026-04-06T06:45:30.336Z</time></trkpt><trkpt lat="43.5998517" lon="10.7554"><ele>169.0</ele><time>2026-04-06T06:45:31.337Z</time></trkpt><trkpt lat="43.5998783" lon="10.75526"><ele>169.0</ele><time>2026-04-06T06:45:32.337Z</time></trkpt><trkpt lat="43.5999033" lon="10.7551167"><ele>169.0</ele><time>2026-04-06T06:45:33.34Z</time></trkpt><trkpt lat="43.5999233" lon="10.75497"><ele>169.0</ele><time>2026-04-06T06:45:34.335Z</time></trkpt><trkpt lat="43.5999433" lon="10.754825"><ele>169.0</ele><time>2026-04-06T06:45:35.337Z</time></trkpt><trkpt lat="43.5999633" lon="10.7546817"><ele>168.6</ele><time>2026-04-06T06:45:36.337Z</time></trkpt><trkpt lat="43.599985" lon="10.75454"><ele>168.2</ele><time>2026-04-06T06:45:37.342Z</time></trkpt><trkpt lat="43.6000083" lon="10.754395"><ele>167.79999999999998</ele><time>2026-04-06T06:45:38.341Z</time></trkpt><trkpt lat="43.60003" lon="10.75425"><ele>167.39999999999998</ele><time>2026-04-06T06:45:39.335Z</time></trkpt><trkpt lat="43.6000533" lon="10.75411"><ele>167.0</ele><time>2026-04-06T06:45:40.335Z</time></trkpt><trkpt lat="43.6000667" lon="10.7539717"><ele>167.0</ele><time>2026-04-06T06:45:41.338Z</time></trkpt><trkpt lat="43.600065" lon="10.7538417"><ele>167.0</ele><time>2026-04-06T06:45:42.342Z</time></trkpt><trkpt lat="43.600045" lon="10.7537217"><ele>167.0</ele><time>2026-04-06T06:45:43.337Z</time></trkpt><trkpt lat="43.600005" lon="10.753615"><ele>167.0</ele><time>2026-04-06T06:45:44.337Z</time></trkpt><trkpt lat="43.599945" lon="10.7535317"><ele>167.0</ele><time>2026-04-06T06:45:45.339Z</time></trkpt><trkpt lat="43.599865" lon="10.7534833"><ele>167.0</ele><time>2026-04-06T06:45:46.337Z</time></trkpt><trkpt lat="43.5997767" lon="10.7534667"><ele>168.16666666666666</ele><time>2026-04-06T06:45:47.339Z</time></trkpt><trkpt lat="43.59969" lon="10.7534583"><ele>169.33333333333331</ele><time>2026-04-06T06:45:48.339Z</time></trkpt><trkpt lat="43.5996133" lon="10.7534367"><ele>170.5</ele><time>2026-04-06T06:45:49.34Z</time></trkpt><trkpt lat="43.5995417" lon="10.753385"><ele>171.66666666666666</ele><time>2026-04-06T06:45:50.345Z</time></trkpt><trkpt lat="43.5994767" lon="10.7533167"><ele>172.83333333333334</ele><time>2026-04-06T06:45:51.338Z</time></trkpt><trkpt lat="43.5994267" lon="10.75323"><ele>174.0</ele><time>2026-04-06T06:45:52.338Z</time></trkpt><trkpt lat="43.599395" lon="10.7531333"><ele>174.0</ele><time>2026-04-06T06:45:53.34Z</time></trkpt><trkpt lat="43.5993783" lon="10.753025"><ele>174.0</ele><time>2026-04-06T06:45:54.34Z</time></trkpt><trkpt lat="43.5993783" lon="10.7529217"><ele>174.0</ele><time>2026-04-06T06:45:55.338Z</time></trkpt><trkpt lat="43.5994" lon="10.7528267"><ele>174.0</ele><time>2026-04-06T06:45:56.35Z</time></trkpt><trkpt lat="43.5994717" lon="10.7527683"><ele>174.0</ele><time>2026-04-06T06:45:57.343Z</time></trkpt><trkpt lat="43.59955" lon="10.7527483"><ele>174.0</ele><time>2026-04-06T06:45:58.338Z</time></trkpt><trkpt lat="43.59962" lon="10.7527533"><ele>174.0</ele><time>2026-04-06T06:45:59.338Z</time></trkpt><trkpt lat="43.5996983" lon="10.75278"><ele>174.0</ele><time>2026-04-06T06:46:00.335Z</time></trkpt><trkpt lat="43.59978" lon="10.752805"><ele>174.0</ele><time>2026-04-06T06:46:01.344Z</time></trkpt><trkpt lat="43.5998583" lon="10.752825"><ele>174.0</ele><time>2026-04-06T06:46:02.336Z</time></trkpt><trkpt lat="43.5999383" lon="10.7528383"><ele>174.0</ele><time>2026-04-06T06:46:03.338Z</time></trkpt><trkpt lat="43.60002" lon="10.7528367"><ele>174.0</ele><time>2026-04-06T06:46:04.337Z</time></trkpt><trkpt lat="43.6000967" lon="10.752825"><ele>174.0</ele><time>2026-04-06T06:46:05.342Z</time></trkpt><trkpt lat="43.6001767" lon="10.7528033"><ele>174.0</ele><time>2026-04-06T06:46:06.34Z</time></trkpt><trkpt lat="43.6002567" lon="10.7527733"><ele>174.0</ele><time>2026-04-06T06:46:07.349Z</time></trkpt><trkpt lat="43.600335" lon="10.7527333"><ele>174.0</ele><time>2026-04-06T06:46:08.34Z</time></trkpt><trkpt lat="43.6004133" lon="10.7526833"><ele>174.0</ele><time>2026-04-06T06:46:09.337Z</time></trkpt><trkpt lat="43.6004867" lon="10.7526233"><ele>174.0</ele><time>2026-04-06T06:46:10.337Z</time></trkpt><trkpt lat="43.6005467" lon="10.7525533"><ele>173.5</ele><time>2026-04-06T06:46:11.336Z</time></trkpt><trkpt lat="43.6006017" lon="10.75247"><ele>173.0</ele><time>2026-04-06T06:46:12.339Z</time></trkpt><trkpt lat="43.60065" lon="10.752375"><ele>172.5</ele><time>2026-04-06T06:46:13.337Z</time></trkpt><trkpt lat="43.60069" lon="10.7522683"><ele>172.0</ele><time>2026-04-06T06:46:14.339Z</time></trkpt><trkpt lat="43.600725" lon="10.7521517"><ele>171.5</ele><time>2026-04-06T06:46:15.337Z</time></trkpt><trkpt lat="43.6007533" lon="10.7520283"><ele>171.0</ele><time>2026-04-06T06:46:16.348Z</time></trkpt><trkpt lat="43.60078" lon="10.751905"><ele>170.60000000000002</ele><time>2026-04-06T06:46:17.338Z</time></trkpt><trkpt lat="43.6008067" lon="10.7517783"><ele>170.2</ele><time>2026-04-06T06:46:18.337Z</time></trkpt><trkpt lat="43.60083" lon="10.7516517"><ele>169.8</ele><time>2026-04-06T06:46:19.337Z</time></trkpt><trkpt lat="43.60085" lon="10.75153"><ele>169.39999999999998</ele><time>2026-04-06T06:46:20.333Z</time></trkpt><trkpt lat="43.60087" lon="10.7514117"><ele>169.0</ele><time>2026-04-06T06:46:21.342Z</time></trkpt><trkpt lat="43.6008883" lon="10.7512967"><ele>169.0</ele><time>2026-04-06T06:46:22.337Z</time></trkpt><trkpt lat="43.600905" lon="10.751185"><ele>169.0</ele><time>2026-04-06T06:46:23.338Z</time></trkpt><trkpt lat="43.6009233" lon="10.7510767"><ele>169.0</ele><time>2026-04-06T06:46:24.338Z</time></trkpt><trkpt lat="43.600935" lon="10.7509667"><ele>169.0</ele><time>2026-04-06T06:46:25.338Z</time></trkpt><trkpt lat="43.6009433" lon="10.7508567"><ele>169.0</ele><time>2026-04-06T06:46:26.343Z</time></trkpt><trkpt lat="43.6009483" lon="10.75074"><ele>169.0</ele><time>2026-04-06T06:46:27.338Z</time></trkpt><trkpt lat="43.6009517" lon="10.7506233"><ele>168.33333333333334</ele><time>2026-04-06T06:46:28.338Z</time></trkpt><trkpt lat="43.6009517" lon="10.7505033"><ele>167.66666666666669</ele><time>2026-04-06T06:46:29.345Z</time></trkpt><trkpt lat="43.6009483" lon="10.750385"><ele>167.0</ele><time>2026-04-06T06:46:30.341Z</time></trkpt><trkpt lat="43.6009417" lon="10.7502667"><ele>166.33333333333334</ele><time>2026-04-06T06:46:31.337Z</time></trkpt><trkpt lat="43.6009333" lon="10.7501483"><ele>165.66666666666666</ele><time>2026-04-06T06:46:32.338Z</time></trkpt><trkpt lat="43.6009233" lon="10.750025"><ele>165.0</ele><time>2026-04-06T06:46:33.337Z</time></trkpt><trkpt lat="43.6009117" lon="10.7499"><ele>164.4</ele><time>2026-04-06T06:46:34.333Z</time></trkpt><trkpt lat="43.6009033" lon="10.749775"><ele>163.8</ele><time>2026-04-06T06:46:35.337Z</time></trkpt><trkpt lat="43.6009" lon="10.7496467"><ele>163.2</ele><time>2026-04-06T06:46:36.34Z</time></trkpt><trkpt lat="43.6009067" lon="10.7495167"><ele>162.6</ele><time>2026-04-06T06:46:37.341Z</time></trkpt><trkpt lat="43.6009233" lon="10.74939"><ele>162.0</ele><time>2026-04-06T06:46:38.339Z</time></trkpt><trkpt lat="43.6009483" lon="10.74926"><ele>160.79999999999998</ele><time>2026-04-06T06:46:39.334Z</time></trkpt><trkpt lat="43.6009833" lon="10.7491317"><ele>159.6</ele><time>2026-04-06T06:46:40.337Z</time></trkpt><trkpt lat="43.6010217" lon="10.7490033"><ele>158.39999999999998</ele><time>2026-04-06T06:46:41.338Z</time></trkpt><trkpt lat="43.6010633" lon="10.7488767"><ele>157.2</ele><time>2026-04-06T06:46:42.338Z</time></trkpt><trkpt lat="43.6011083" lon="10.7487533"><ele>156.0</ele><time>2026-04-06T06:46:43.338Z</time></trkpt><trkpt lat="43.6011583" lon="10.7486333"><ele>156.0</ele><time>2026-04-06T06:46:44.341Z</time></trkpt><trkpt lat="43.6012067" lon="10.748515"><ele>156.0</ele><time>2026-04-06T06:46:45.34Z</time></trkpt><trkpt lat="43.60125" lon="10.7483917"><ele>156.0</ele><time>2026-04-06T06:46:46.339Z</time></trkpt><trkpt lat="43.6012867" lon="10.7482633"><ele>156.0</ele><time>2026-04-06T06:46:47.337Z</time></trkpt><trkpt lat="43.6013167" lon="10.7481317"><ele>156.0</ele><time>2026-04-06T06:46:48.338Z</time></trkpt><trkpt lat="43.6013433" lon="10.7479967"><ele>156.0</ele><time>2026-04-06T06:46:49.337Z</time></trkpt><trkpt lat="43.6013667" lon="10.74786"><ele>156.0</ele><time>2026-04-06T06:46:50.338Z</time></trkpt><trkpt lat="43.601385" lon="10.7477217"><ele>156.0</ele><time>2026-04-06T06:46:51.341Z</time></trkpt><trkpt lat="43.6014" lon="10.7475833"><ele>156.0</ele><time>2026-04-06T06:46:52.339Z</time></trkpt><trkpt lat="43.601415" lon="10.7474433"><ele>156.0</ele><time>2026-04-06T06:46:53.335Z</time></trkpt><trkpt lat="43.60143" lon="10.747305"><ele>155.4</ele><time>2026-04-06T06:46:54.335Z</time></trkpt><trkpt lat="43.6014433" lon="10.7471633"><ele>154.8</ele><time>2026-04-06T06:46:55.353Z</time></trkpt><trkpt lat="43.6014533" lon="10.747025"><ele>154.20000000000002</ele><time>2026-04-06T06:46:56.339Z</time></trkpt><trkpt lat="43.601465" lon="10.7468833"><ele>153.6</ele><time>2026-04-06T06:46:57.336Z</time></trkpt><trkpt lat="43.6014767" lon="10.7467383"><ele>153.0</ele><time>2026-04-06T06:46:58.337Z</time></trkpt><trkpt lat="43.60149" lon="10.746595"><ele>152.6</ele><time>2026-04-06T06:46:59.338Z</time></trkpt><trkpt lat="43.601505" lon="10.746455"><ele>152.20000000000002</ele><time>2026-04-06T06:47:00.34Z</time></trkpt><trkpt lat="43.60152" lon="10.7463167"><ele>151.8</ele><time>2026-04-06T06:47:01.34Z</time></trkpt><trkpt lat="43.6015317" lon="10.74618"><ele>151.4</ele><time>2026-04-06T06:47:02.337Z</time></trkpt><trkpt lat="43.601545" lon="10.74604"><ele>151.0</ele><time>2026-04-06T06:47:03.335Z</time></trkpt><trkpt lat="43.6015567" lon="10.7459017"><ele>150.4</ele><time>2026-04-06T06:47:04.338Z</time></trkpt><trkpt lat="43.60157" lon="10.7457583"><ele>149.8</ele><time>2026-04-06T06:47:05.34Z</time></trkpt><trkpt lat="43.601585" lon="10.74562"><ele>149.20000000000002</ele><time>2026-04-06T06:47:06.341Z</time></trkpt><trkpt lat="43.60161" lon="10.7454867"><ele>148.6</ele><time>2026-04-06T06:47:07.342Z</time></trkpt><trkpt lat="43.6016533" lon="10.74536"><ele>148.0</ele><time>2026-04-06T06:47:08.337Z</time></trkpt><trkpt lat="43.60171" lon="10.745245"><ele>147.4</ele><time>2026-04-06T06:47:09.343Z</time></trkpt><trkpt lat="43.6017767" lon="10.745145"><ele>146.8</ele><time>2026-04-06T06:47:10.347Z</time></trkpt><trkpt lat="43.601855" lon="10.74506"><ele>146.2</ele><time>2026-04-06T06:47:11.339Z</time></trkpt><trkpt lat="43.60194" lon="10.7449883"><ele>145.6</ele><time>2026-04-06T06:47:12.337Z</time></trkpt><trkpt lat="43.60203" lon="10.7449267"><ele>145.0</ele><time>2026-04-06T06:47:13.348Z</time></trkpt><trkpt lat="43.60212" lon="10.7448667"><ele>144.0</ele><time>2026-04-06T06:47:14.338Z</time></trkpt><trkpt lat="43.6022083" lon="10.7448083"><ele>143.0</ele><time>2026-04-06T06:47:15.335Z</time></trkpt><trkpt lat="43.6022933" lon="10.744745"><ele>142.0</ele><time>2026-04-06T06:47:16.337Z</time></trkpt><trkpt lat="43.6023717" lon="10.7446717"><ele>141.0</ele><time>2026-04-06T06:47:17.339Z</time></trkpt><trkpt lat="43.60244" lon="10.7445833"><ele>140.0</ele><time>2026-04-06T06:47:18.344Z</time></trkpt><trkpt lat="43.602495" lon="10.7444783"><ele>141.0</ele><time>2026-04-06T06:47:19.338Z</time></trkpt><trkpt lat="43.6025383" lon="10.74436"><ele>142.0</ele><time>2026-04-06T06:47:20.344Z</time></trkpt><trkpt lat="43.602565" lon="10.7442317"><ele>143.0</ele><time>2026-04-06T06:47:21.339Z</time></trkpt><trkpt lat="43.6025767" lon="10.7440983"><ele>144.0</ele><time>2026-04-06T06:47:22.338Z</time></trkpt><trkpt lat="43.60258" lon="10.7439583"><ele>145.0</ele><time>2026-04-06T06:47:23.341Z</time></trkpt><trkpt lat="43.60258" lon="10.74382"><ele>145.0</ele><time>2026-04-06T06:47:24.349Z</time></trkpt><trkpt lat="43.60258" lon="10.7436817"><ele>145.0</ele><time>2026-04-06T06:47:25.339Z</time></trkpt><trkpt lat="43.60258" lon="10.7435467"><ele>145.0</ele><time>2026-04-06T06:47:26.343Z</time></trkpt><trkpt lat="43.60258" lon="10.7434083"><ele>145.0</ele><time>2026-04-06T06:47:27.341Z</time></trkpt><trkpt lat="43.602575" lon="10.7432633"><ele>145.0</ele><time>2026-04-06T06:47:28.34Z</time></trkpt><trkpt lat="43.6025667" lon="10.743115"><ele>143.5</ele><time>2026-04-06T06:47:29.337Z</time></trkpt><trkpt lat="43.60256" lon="10.7429633"><ele>142.0</ele><time>2026-04-06T06:47:30.336Z</time></trkpt><trkpt lat="43.6025567" lon="10.7428033"><ele>140.5</ele><time>2026-04-06T06:47:31.34Z</time></trkpt><trkpt lat="43.60255" lon="10.7426417"><ele>139.0</ele><time>2026-04-06T06:47:32.337Z</time></trkpt><trkpt lat="43.6025317" lon="10.7424817"><ele>138.75</ele><time>2026-04-06T06:47:33.339Z</time></trkpt><trkpt lat="43.6024967" lon="10.7423283"><ele>138.5</ele><time>2026-04-06T06:47:34.336Z</time></trkpt><trkpt lat="43.60245" lon="10.7421817"><ele>138.25</ele><time>2026-04-06T06:47:35.346Z</time></trkpt><trkpt lat="43.602395" lon="10.7420417"><ele>138.0</ele><time>2026-04-06T06:47:36.336Z</time></trkpt><trkpt lat="43.60234" lon="10.741905"><ele>139.4</ele><time>2026-04-06T06:47:37.337Z</time></trkpt><trkpt lat="43.60229" lon="10.7417683"><ele>140.8</ele><time>2026-04-06T06:47:38.34Z</time></trkpt><trkpt lat="43.6022533" lon="10.74163"><ele>142.2</ele><time>2026-04-06T06:47:39.338Z</time></trkpt><trkpt lat="43.6022367" lon="10.7414883"><ele>143.6</ele><time>2026-04-06T06:47:40.338Z</time></trkpt><trkpt lat="43.60224" lon="10.7413483"><ele>145.0</ele><time>2026-04-06T06:47:41.339Z</time></trkpt><trkpt lat="43.6022633" lon="10.7412167"><ele>145.0</ele><time>2026-04-06T06:47:42.338Z</time></trkpt><trkpt lat="43.6023017" lon="10.7410933"><ele>145.0</ele><time>2026-04-06T06:47:43.338Z</time></trkpt><trkpt lat="43.602355" lon="10.7409767"><ele>145.0</ele><time>2026-04-06T06:47:44.337Z</time></trkpt><trkpt lat="43.6024217" lon="10.7408667"><ele>145.0</ele><time>2026-04-06T06:47:45.337Z</time></trkpt><trkpt lat="43.602495" lon="10.7407617"><ele>145.0</ele><time>2026-04-06T06:47:46.338Z</time></trkpt><trkpt lat="43.6025767" lon="10.7406633"><ele>144.75</ele><time>2026-04-06T06:47:47.344Z</time></trkpt><trkpt lat="43.602665" lon="10.740575"><ele>144.5</ele><time>2026-04-06T06:47:48.339Z</time></trkpt><trkpt lat="43.6027567" lon="10.74049"><ele>144.25</ele><time>2026-04-06T06:47:49.343Z</time></trkpt><trkpt lat="43.6028533" lon="10.7404"><ele>144.0</ele><time>2026-04-06T06:47:50.351Z</time></trkpt><trkpt lat="43.6029517" lon="10.74031"><ele>144.0</ele><time>2026-04-06T06:47:51.337Z</time></trkpt><trkpt lat="43.6030467" lon="10.7402217"><ele>144.0</ele><time>2026-04-06T06:47:52.337Z</time></trkpt><trkpt lat="43.603135" lon="10.74013"><ele>144.0</ele><time>2026-04-06T06:47:53.337Z</time></trkpt><trkpt lat="43.6032183" lon="10.7400317"><ele>144.0</ele><time>2026-04-06T06:47:54.34Z</time></trkpt><trkpt lat="43.6032917" lon="10.73992"><ele>144.0</ele><time>2026-04-06T06:47:55.337Z</time></trkpt><trkpt lat="43.6033567" lon="10.7397967"><ele>146.75</ele><time>2026-04-06T06:47:56.337Z</time></trkpt><trkpt lat="43.60341" lon="10.7396583"><ele>149.5</ele><time>2026-04-06T06:47:57.338Z</time></trkpt><trkpt lat="43.6034517" lon="10.7395117"><ele>152.25</ele><time>2026-04-06T06:47:58.338Z</time></trkpt><trkpt lat="43.603485" lon="10.73936"><ele>155.0</ele><time>2026-04-06T06:47:59.338Z</time></trkpt><trkpt lat="43.60351" lon="10.7392067"><ele>155.0</ele><time>2026-04-06T06:48:00.34Z</time></trkpt><trkpt lat="43.6035283" lon="10.73905"><ele>155.0</ele><time>2026-04-06T06:48:01.337Z</time></trkpt><trkpt lat="43.60354" lon="10.7388917"><ele>155.0</ele><time>2026-04-06T06:48:02.343Z</time></trkpt><trkpt lat="43.6035517" lon="10.7387333"><ele>155.0</ele><time>2026-04-06T06:48:03.351Z</time></trkpt><trkpt lat="43.6035667" lon="10.738575"><ele>154.5</ele><time>2026-04-06T06:48:04.337Z</time></trkpt><trkpt lat="43.6035833" lon="10.7384167"><ele>154.0</ele><time>2026-04-06T06:48:05.335Z</time></trkpt><trkpt lat="43.6035967" lon="10.73826"><ele>153.5</ele><time>2026-04-06T06:48:06.337Z</time></trkpt><trkpt lat="43.6036083" lon="10.738105"><ele>153.0</ele><time>2026-04-06T06:48:07.337Z</time></trkpt><trkpt lat="43.60362" lon="10.7379467"><ele>153.0</ele><time>2026-04-06T06:48:08.337Z</time></trkpt><trkpt lat="43.6036317" lon="10.7377917"><ele>153.0</ele><time>2026-04-06T06:48:09.337Z</time></trkpt><trkpt lat="43.6036433" lon="10.737635"><ele>153.0</ele><time>2026-04-06T06:48:10.338Z</time></trkpt><trkpt lat="43.6036567" lon="10.73748"><ele>153.0</ele><time>2026-04-06T06:48:11.338Z</time></trkpt><trkpt lat="43.6036667" lon="10.7373233"><ele>153.0</ele><time>2026-04-06T06:48:12.337Z</time></trkpt><trkpt lat="43.6036717" lon="10.7371667"><ele>153.0</ele><time>2026-04-06T06:48:13.337Z</time></trkpt><trkpt lat="43.60367" lon="10.7370117"><ele>153.0</ele><time>2026-04-06T06:48:14.339Z</time></trkpt><trkpt lat="43.6036533" lon="10.7368567"><ele>153.0</ele><time>2026-04-06T06:48:15.342Z</time></trkpt><trkpt lat="43.603615" lon="10.736705"><ele>153.0</ele><time>2026-04-06T06:48:16.339Z</time></trkpt><trkpt lat="43.6035633" lon="10.7365583"><ele>153.0</ele><time>2026-04-06T06:48:17.337Z</time></trkpt><trkpt lat="43.603505" lon="10.7364117"><ele>153.0</ele><time>2026-04-06T06:48:18.338Z</time></trkpt><trkpt lat="43.6034483" lon="10.7362717"><ele>153.0</ele><time>2026-04-06T06:48:19.343Z</time></trkpt><trkpt lat="43.6033917" lon="10.7361367"><ele>155.2</ele><time>2026-04-06T06:48:20.341Z</time></trkpt><trkpt lat="43.6033317" lon="10.7359983"><ele>157.4</ele><time>2026-04-06T06:48:21.339Z</time></trkpt><trkpt lat="43.6032733" lon="10.7358667"><ele>159.6</ele><time>2026-04-06T06:48:22.336Z</time></trkpt><trkpt lat="43.6032133" lon="10.735745"><ele>161.79999999999998</ele><time>2026-04-06T06:48:23.343Z</time></trkpt><trkpt lat="43.603145" lon="10.73564"><ele>164.0</ele><time>2026-04-06T06:48:24.342Z</time></trkpt><trkpt lat="43.6030683" lon="10.7355583"><ele>164.0</ele><time>2026-04-06T06:48:25.339Z</time></trkpt><trkpt lat="43.6029833" lon="10.7355033"><ele>164.0</ele><time>2026-04-06T06:48:26.338Z</time></trkpt><trkpt lat="43.6028883" lon="10.7354833"><ele>164.0</ele><time>2026-04-06T06:48:27.337Z</time></trkpt><trkpt lat="43.6027867" lon="10.7354933"><ele>164.0</ele><time>2026-04-06T06:48:28.335Z</time></trkpt><trkpt lat="43.6026833" lon="10.7355367"><ele>164.0</ele><time>2026-04-06T06:48:29.336Z</time></trkpt><trkpt lat="43.602585" lon="10.7356033"><ele>162.79999999999998</ele><time>2026-04-06T06:48:30.338Z</time></trkpt><trkpt lat="43.6024933" lon="10.735685"><ele>161.6</ele><time>2026-04-06T06:48:31.337Z</time></trkpt><trkpt lat="43.6024033" lon="10.7357617"><ele>160.4</ele><time>2026-04-06T06:48:32.337Z</time></trkpt><trkpt lat="43.6023083" lon="10.7358367"><ele>159.2</ele><time>2026-04-06T06:48:33.337Z</time></trkpt><trkpt lat="43.6022133" lon="10.7359067"><ele>158.0</ele><time>2026-04-06T06:48:34.337Z</time></trkpt><trkpt lat="43.6021167" lon="10.7359717"><ele>158.0</ele><time>2026-04-06T06:48:35.336Z</time></trkpt><trkpt lat="43.60202" lon="10.7360383"><ele>158.0</ele><time>2026-04-06T06:48:36.338Z</time></trkpt><trkpt lat="43.6019233" lon="10.7361033"><ele>158.0</ele><time>2026-04-06T06:48:37.339Z</time></trkpt><trkpt lat="43.6018267" lon="10.7361667"><ele>158.0</ele><time>2026-04-06T06:48:38.34Z</time></trkpt><trkpt lat="43.6017267" lon="10.7362267"><ele>158.0</ele><time>2026-04-06T06:48:39.337Z</time></trkpt><trkpt lat="43.6016233" lon="10.7362833"><ele>155.6</ele><time>2026-04-06T06:48:40.336Z</time></trkpt><trkpt lat="43.60152" lon="10.736335"><ele>153.20000000000002</ele><time>2026-04-06T06:48:41.334Z</time></trkpt><trkpt lat="43.6014133" lon="10.73638"><ele>150.8</ele><time>2026-04-06T06:48:42.335Z</time></trkpt><trkpt lat="43.601305" lon="10.7364083"><ele>148.4</ele><time>2026-04-06T06:48:43.336Z</time></trkpt><trkpt lat="43.6011917" lon="10.7364233"><ele>146.0</ele><time>2026-04-06T06:48:44.337Z</time></trkpt><trkpt lat="43.6010783" lon="10.7364283"><ele>145.5</ele><time>2026-04-06T06:48:45.335Z</time></trkpt><trkpt lat="43.600965" lon="10.7364333"><ele>145.0</ele><time>2026-04-06T06:48:46.333Z</time></trkpt><trkpt lat="43.6008483" lon="10.7364367"><ele>144.5</ele><time>2026-04-06T06:48:47.339Z</time></trkpt><trkpt lat="43.6007333" lon="10.73644"><ele>144.0</ele><time>2026-04-06T06:48:48.336Z</time></trkpt><trkpt lat="43.6006217" lon="10.7364367"><ele>144.0</ele><time>2026-04-06T06:48:49.335Z</time></trkpt><trkpt lat="43.6005117" lon="10.73643"><ele>144.0</ele><time>2026-04-06T06:48:50.342Z</time></trkpt><trkpt lat="43.6004033" lon="10.7364183"><ele>144.0</ele><time>2026-04-06T06:48:51.339Z</time></trkpt><trkpt lat="43.600295" lon="10.7364"><ele>144.0</ele><time>2026-04-06T06:48:52.338Z</time></trkpt><trkpt lat="43.600185" lon="10.73638"><ele>144.0</ele><time>2026-04-06T06:48:53.339Z</time></trkpt><trkpt lat="43.6000733" lon="10.736355"><ele>142.4</ele><time>2026-04-06T06:48:54.337Z</time></trkpt><trkpt lat="43.5999667" lon="10.7363267"><ele>140.8</ele><time>2026-04-06T06:48:55.337Z</time></trkpt><trkpt lat="43.5998617" lon="10.736295"><ele>139.2</ele><time>2026-04-06T06:48:56.339Z</time></trkpt><trkpt lat="43.5997583" lon="10.7362617"><ele>137.6</ele><time>2026-04-06T06:48:57.338Z</time></trkpt><trkpt lat="43.5996583" lon="10.7362267"><ele>136.0</ele><time>2026-04-06T06:48:58.337Z</time></trkpt><trkpt lat="43.5995583" lon="10.73619"><ele>136.4</ele><time>2026-04-06T06:48:59.337Z</time></trkpt><trkpt lat="43.5994583" lon="10.7361483"><ele>136.8</ele><time>2026-04-06T06:49:00.338Z</time></trkpt><trkpt lat="43.5993583" lon="10.73611"><ele>137.20000000000002</ele><time>2026-04-06T06:49:01.337Z</time></trkpt><trkpt lat="43.5992583" lon="10.736065"><ele>137.6</ele><time>2026-04-06T06:49:02.338Z</time></trkpt><trkpt lat="43.5991583" lon="10.7360117"><ele>138.0</ele><time>2026-04-06T06:49:03.337Z</time></trkpt><trkpt lat="43.5990617" lon="10.73595"><ele>138.0</ele><time>2026-04-06T06:49:04.338Z</time></trkpt><trkpt lat="43.5989683" lon="10.7358867"><ele>138.0</ele><time>2026-04-06T06:49:05.337Z</time></trkpt><trkpt lat="43.5988783" lon="10.7358233"><ele>138.0</ele><time>2026-04-06T06:49:06.34Z</time></trkpt><trkpt lat="43.5987917" lon="10.7357617"><ele>138.0</ele><time>2026-04-06T06:49:07.339Z</time></trkpt><trkpt lat="43.59871" lon="10.735705"><ele>138.0</ele><time>2026-04-06T06:49:08.338Z</time></trkpt><trkpt lat="43.5986383" lon="10.735655"><ele>136.5</ele><time>2026-04-06T06:49:09.337Z</time></trkpt><trkpt lat="43.5985783" lon="10.7356117"><ele>135.0</ele><time>2026-04-06T06:49:10.339Z</time></trkpt><trkpt lat="43.5985033" lon="10.7355483"><ele>133.5</ele><time>2026-04-06T06:49:12.337Z</time></trkpt><trkpt lat="43.5984567" lon="10.735475"><ele>132.0</ele><time>2026-04-06T06:49:15.337Z</time></trkpt><trkpt lat="43.5983933" lon="10.73541"><ele>130.5</ele><time>2026-04-06T06:51:19.346Z</time></trkpt><trkpt lat="43.598335" lon="10.7353767"><ele>129.0</ele><time>2026-04-06T06:51:21.342Z</time></trkpt><trkpt lat="43.598255" lon="10.7353317"><ele>129.0</ele><time>2026-04-06T06:51:23.342Z</time></trkpt><trkpt lat="43.5981617" lon="10.7352867"><ele>129.0</ele><time>2026-04-06T06:51:25.34Z</time></trkpt><trkpt lat="43.5980567" lon="10.735245"><ele>129.0</ele><time>2026-04-06T06:51:27.341Z</time></trkpt><trkpt lat="43.5979417" lon="10.7352283"><ele>129.0</ele><time>2026-04-06T06:51:29.332Z</time></trkpt><trkpt lat="43.5978133" lon="10.735245"><ele>127.83333333333333</ele><time>2026-04-06T06:51:31.343Z</time></trkpt><trkpt lat="43.597745" lon="10.7352567"><ele>126.66666666666666</ele><time>2026-04-06T06:51:32.344Z</time></trkpt><trkpt lat="43.59768" lon="10.73526"><ele>125.5</ele><time>2026-04-06T06:51:33.337Z</time></trkpt><trkpt lat="43.5975583" lon="10.73528"><ele>124.33333333333333</ele><time>2026-04-06T06:51:35.334Z</time></trkpt><trkpt lat="43.597495" lon="10.7352933"><ele>123.16666666666666</ele><time>2026-04-06T06:51:36.339Z</time></trkpt><trkpt lat="43.59743" lon="10.7353033"><ele>122.0</ele><time>2026-04-06T06:51:37.338Z</time></trkpt><trkpt lat="43.5973617" lon="10.7353183"><ele>121.99999999999999</ele><time>2026-04-06T06:51:38.339Z</time></trkpt><trkpt lat="43.597295" lon="10.7353367"><ele>122.0</ele><time>2026-04-06T06:51:39.337Z</time></trkpt><trkpt lat="43.5972283" lon="10.73536"><ele>122.0</ele><time>2026-04-06T06:51:40.335Z</time></trkpt><trkpt lat="43.5971533" lon="10.7353883"><ele>122.0</ele><time>2026-04-06T06:51:41.337Z</time></trkpt><trkpt lat="43.5970783" lon="10.7354167"><ele>121.99999999999999</ele><time>2026-04-06T06:51:42.34Z</time></trkpt><trkpt lat="43.5970033" lon="10.735445"><ele>122.0</ele><time>2026-04-06T06:51:43.338Z</time></trkpt><trkpt lat="43.596925" lon="10.735475"><ele>122.16666666666666</ele><time>2026-04-06T06:51:44.338Z</time></trkpt><trkpt lat="43.59684" lon="10.7355"><ele>122.33333333333333</ele><time>2026-04-06T06:51:45.338Z</time></trkpt><trkpt lat="43.5967517" lon="10.7355183"><ele>122.5</ele><time>2026-04-06T06:51:46.339Z</time></trkpt><trkpt lat="43.5966633" lon="10.735525"><ele>122.66666666666666</ele><time>2026-04-06T06:51:47.336Z</time></trkpt><trkpt lat="43.596575" lon="10.73553"><ele>122.83333333333333</ele><time>2026-04-06T06:51:48.336Z</time></trkpt><trkpt lat="43.59649" lon="10.7355317"><ele>123.0</ele><time>2026-04-06T06:51:49.341Z</time></trkpt><trkpt lat="43.5964033" lon="10.7355317"><ele>123.0</ele><time>2026-04-06T06:51:50.339Z</time></trkpt><trkpt lat="43.5963167" lon="10.7355333"><ele>123.0</ele><time>2026-04-06T06:51:51.342Z</time></trkpt><trkpt lat="43.5962267" lon="10.7355283"><ele>123.0</ele><time>2026-04-06T06:51:52.339Z</time></trkpt><trkpt lat="43.5961367" lon="10.7355117"><ele>123.0</ele><time>2026-04-06T06:51:53.338Z</time></trkpt><trkpt lat="43.5960517" lon="10.7354883"><ele>123.0</ele><time>2026-04-06T06:51:54.337Z</time></trkpt><trkpt lat="43.5959667" lon="10.7354617"><ele>123.0</ele><time>2026-04-06T06:51:55.337Z</time></trkpt><trkpt lat="43.595885" lon="10.73543"><ele>122.66666666666667</ele><time>2026-04-06T06:51:56.337Z</time></trkpt><trkpt lat="43.5958067" lon="10.7353917"><ele>122.33333333333334</ele><time>2026-04-06T06:51:57.339Z</time></trkpt><trkpt lat="43.5957317" lon="10.7353483"><ele>122.0</ele><time>2026-04-06T06:51:58.34Z</time></trkpt><trkpt lat="43.5956617" lon="10.7353017"><ele>121.66666666666667</ele><time>2026-04-06T06:51:59.34Z</time></trkpt><trkpt lat="43.595595" lon="10.7352583"><ele>121.33333333333334</ele><time>2026-04-06T06:52:00.336Z</time></trkpt><trkpt lat="43.5955283" lon="10.7352183"><ele>121.0</ele><time>2026-04-06T06:52:01.337Z</time></trkpt><trkpt lat="43.59546" lon="10.7352"><ele>121.19999999999999</ele><time>2026-04-06T06:52:02.337Z</time></trkpt><trkpt lat="43.5953933" lon="10.735205"><ele>121.39999999999999</ele><time>2026-04-06T06:52:03.339Z</time></trkpt><trkpt lat="43.5952833" lon="10.73528"><ele>121.6</ele><time>2026-04-06T06:52:05.333Z</time></trkpt><trkpt lat="43.5951783" lon="10.73542"><ele>121.8</ele><time>2026-04-06T06:52:07.337Z</time></trkpt><trkpt lat="43.5951267" lon="10.735505"><ele>122.0</ele><time>2026-04-06T06:52:08.336Z</time></trkpt><trkpt lat="43.5950433" lon="10.7355983"><ele>122.0</ele><time>2026-04-06T06:52:09.335Z</time></trkpt><trkpt lat="43.5949567" lon="10.73567"><ele>121.99999999999999</ele><time>2026-04-06T06:52:10.337Z</time></trkpt><trkpt lat="43.5948567" lon="10.73572"><ele>121.99999999999999</ele><time>2026-04-06T06:52:11.343Z</time></trkpt><trkpt lat="43.5947567" lon="10.7357183"><ele>122.0</ele><time>2026-04-06T06:52:12.334Z</time></trkpt><trkpt lat="43.5946683" lon="10.7356783"><ele>122.0</ele><time>2026-04-06T06:52:13.338Z</time></trkpt><trkpt lat="43.5945883" lon="10.73561"><ele>122.0</ele><time>2026-04-06T06:52:14.337Z</time></trkpt><trkpt lat="43.5945233" lon="10.7355117"><ele>121.99999999999999</ele><time>2026-04-06T06:52:15.337Z</time></trkpt><trkpt lat="43.5944783" lon="10.7353967"><ele>121.99999999999999</ele><time>2026-04-06T06:52:16.333Z</time></trkpt><trkpt lat="43.5944533" lon="10.7352683"><ele>122.0</ele><time>2026-04-06T06:52:17.335Z</time></trkpt><trkpt lat="43.5944467" lon="10.7351367"><ele>122.0</ele><time>2026-04-06T06:52:18.335Z</time></trkpt><trkpt lat="43.5944483" lon="10.7350067"><ele>120.8</ele><time>2026-04-06T06:52:19.337Z</time></trkpt><trkpt lat="43.5944567" lon="10.7348783"><ele>119.6</ele><time>2026-04-06T06:52:20.338Z</time></trkpt><trkpt lat="43.59446" lon="10.73475"><ele>118.39999999999999</ele><time>2026-04-06T06:52:21.339Z</time></trkpt><trkpt lat="43.59446" lon="10.7346217"><ele>117.19999999999999</ele><time>2026-04-06T06:52:22.343Z</time></trkpt><trkpt lat="43.5944567" lon="10.7344933"><ele>116.0</ele><time>2026-04-06T06:52:23.338Z</time></trkpt><trkpt lat="43.594435" lon="10.7343717"><ele>116.0</ele><time>2026-04-06T06:52:24.339Z</time></trkpt><trkpt lat="43.5943933" lon="10.7342533"><ele>116.0</ele><time>2026-04-06T06:52:25.338Z</time></trkpt><trkpt lat="43.5943417" lon="10.7341367"><ele>116.0</ele><time>2026-04-06T06:52:26.342Z</time></trkpt><trkpt lat="43.5942817" lon="10.734025"><ele>116.0</ele><time>2026-04-06T06:52:27.341Z</time></trkpt><trkpt lat="43.5942183" lon="10.7339183"><ele>116.0</ele><time>2026-04-06T06:52:28.34Z</time></trkpt><trkpt lat="43.5941567" lon="10.7338067"><ele>116.0</ele><time>2026-04-06T06:52:29.339Z</time></trkpt><trkpt lat="43.594095" lon="10.7337"><ele>116.0</ele><time>2026-04-06T06:52:30.34Z</time></trkpt><trkpt lat="43.5940333" lon="10.7335933"><ele>116.0</ele><time>2026-04-06T06:52:31.348Z</time></trkpt><trkpt lat="43.59397" lon="10.7334867"><ele>116.0</ele><time>2026-04-06T06:52:32.347Z</time></trkpt><trkpt lat="43.5939067" lon="10.7333783"><ele>116.0</ele><time>2026-04-06T06:52:33.337Z</time></trkpt><trkpt lat="43.593845" lon="10.7332717"><ele>116.8</ele><time>2026-04-06T06:52:34.337Z</time></trkpt><trkpt lat="43.59378" lon="10.733165"><ele>117.6</ele><time>2026-04-06T06:52:35.34Z</time></trkpt><trkpt lat="43.5937167" lon="10.7330567"><ele>118.4</ele><time>2026-04-06T06:52:36.334Z</time></trkpt><trkpt lat="43.593655" lon="10.7329433"><ele>119.2</ele><time>2026-04-06T06:52:37.332Z</time></trkpt><trkpt lat="43.593595" lon="10.732825"><ele>120.0</ele><time>2026-04-06T06:52:38.334Z</time></trkpt><trkpt lat="43.59354" lon="10.7327033"><ele>117.0</ele><time>2026-04-06T06:52:39.343Z</time></trkpt><trkpt lat="43.59349" lon="10.7325783"><ele>114.0</ele><time>2026-04-06T06:52:40.339Z</time></trkpt><trkpt lat="43.5934433" lon="10.73245"><ele>111.0</ele><time>2026-04-06T06:52:41.337Z</time></trkpt><trkpt lat="43.593395" lon="10.732325"><ele>108.0</ele><time>2026-04-06T06:52:42.337Z</time></trkpt><trkpt lat="43.5933417" lon="10.7321983"><ele>105.0</ele><time>2026-04-06T06:52:43.336Z</time></trkpt><trkpt lat="43.5932833" lon="10.73207"><ele>105.0</ele><time>2026-04-06T06:52:44.338Z</time></trkpt><trkpt lat="43.59322" lon="10.7319383"><ele>105.0</ele><time>2026-04-06T06:52:45.34Z</time></trkpt><trkpt lat="43.5931533" lon="10.731805"><ele>105.0</ele><time>2026-04-06T06:52:46.338Z</time></trkpt><trkpt lat="43.593085" lon="10.7316783"><ele>105.0</ele><time>2026-04-06T06:52:47.339Z</time></trkpt><trkpt lat="43.593015" lon="10.7315567"><ele>104.5</ele><time>2026-04-06T06:52:48.339Z</time></trkpt><trkpt lat="43.5929417" lon="10.7314367"><ele>104.0</ele><time>2026-04-06T06:52:49.339Z</time></trkpt><trkpt lat="43.5928683" lon="10.7313167"><ele>103.5</ele><time>2026-04-06T06:52:50.338Z</time></trkpt><trkpt lat="43.5927983" lon="10.731195"><ele>103.0</ele><time>2026-04-06T06:52:51.338Z</time></trkpt><trkpt lat="43.5927317" lon="10.7310733"><ele>101.4</ele><time>2026-04-06T06:52:52.338Z</time></trkpt><trkpt lat="43.5926683" lon="10.7309533"><ele>99.80000000000001</ele><time>2026-04-06T06:52:53.338Z</time></trkpt><trkpt lat="43.5926067" lon="10.7308367"><ele>98.2</ele><time>2026-04-06T06:52:54.34Z</time></trkpt><trkpt lat="43.592545" lon="10.7307217"><ele>96.6</ele><time>2026-04-06T06:52:55.338Z</time></trkpt><trkpt lat="43.5924817" lon="10.7306083"><ele>95.0</ele><time>2026-04-06T06:52:56.341Z</time></trkpt><trkpt lat="43.5924167" lon="10.7305"><ele>95.0</ele><time>2026-04-06T06:52:57.34Z</time></trkpt><trkpt lat="43.5923483" lon="10.730395"><ele>95.0</ele><time>2026-04-06T06:52:58.336Z</time></trkpt><trkpt lat="43.5922783" lon="10.7303017"><ele>95.0</ele><time>2026-04-06T06:52:59.339Z</time></trkpt><trkpt lat="43.5922033" lon="10.7302183"><ele>95.0</ele><time>2026-04-06T06:53:00.337Z</time></trkpt><trkpt lat="43.5921217" lon="10.7301533"><ele>95.0</ele><time>2026-04-06T06:53:01.35Z</time></trkpt><trkpt lat="43.5920333" lon="10.7300917"><ele>94.4</ele><time>2026-04-06T06:53:02.338Z</time></trkpt><trkpt lat="43.5919367" lon="10.7300283"><ele>93.8</ele><time>2026-04-06T06:53:03.339Z</time></trkpt><trkpt lat="43.5918467" lon="10.7299633"><ele>93.19999999999999</ele><time>2026-04-06T06:53:04.336Z</time></trkpt><trkpt lat="43.591765" lon="10.7298917"><ele>92.6</ele><time>2026-04-06T06:53:05.336Z</time></trkpt><trkpt lat="43.5916917" lon="10.7298117"><ele>92.0</ele><time>2026-04-06T06:53:06.34Z</time></trkpt><trkpt lat="43.591635" lon="10.7297117"><ele>92.0</ele><time>2026-04-06T06:53:07.337Z</time></trkpt><trkpt lat="43.5916017" lon="10.7295983"><ele>92.0</ele><time>2026-04-06T06:53:08.346Z</time></trkpt><trkpt lat="43.5915933" lon="10.7294767"><ele>92.0</ele><time>2026-04-06T06:53:09.334Z</time></trkpt><trkpt lat="43.5916017" lon="10.7293667"><ele>92.0</ele><time>2026-04-06T06:53:10.343Z</time></trkpt><trkpt lat="43.59162" lon="10.7292617"><ele>92.0</ele><time>2026-04-06T06:53:11.339Z</time></trkpt><trkpt lat="43.5916433" lon="10.7291617"><ele>92.0</ele><time>2026-04-06T06:53:12.339Z</time></trkpt><trkpt lat="43.5916667" lon="10.729055"><ele>91.66666666666667</ele><time>2026-04-06T06:53:13.336Z</time></trkpt><trkpt lat="43.591685" lon="10.7289483"><ele>91.33333333333334</ele><time>2026-04-06T06:53:14.341Z</time></trkpt><trkpt lat="43.5916933" lon="10.72884"><ele>91.0</ele><time>2026-04-06T06:53:15.341Z</time></trkpt><trkpt lat="43.5916833" lon="10.7287333"><ele>90.66666666666667</ele><time>2026-04-06T06:53:16.352Z</time></trkpt><trkpt lat="43.5916517" lon="10.7286233"><ele>90.33333333333333</ele><time>2026-04-06T06:53:17.336Z</time></trkpt><trkpt lat="43.5916033" lon="10.728515"><ele>90.0</ele><time>2026-04-06T06:53:18.338Z</time></trkpt><trkpt lat="43.5915417" lon="10.7284167"><ele>88.2</ele><time>2026-04-06T06:53:19.338Z</time></trkpt><trkpt lat="43.59147" lon="10.7283233"><ele>86.4</ele><time>2026-04-06T06:53:20.339Z</time></trkpt><trkpt lat="43.5913917" lon="10.7282367"><ele>84.6</ele><time>2026-04-06T06:53:21.35Z</time></trkpt><trkpt lat="43.5913083" lon="10.7281567"><ele>82.8</ele><time>2026-04-06T06:53:22.34Z</time></trkpt><trkpt lat="43.591225" lon="10.728075"><ele>81.0</ele><time>2026-04-06T06:53:23.349Z</time></trkpt><trkpt lat="43.5911433" lon="10.727995"><ele>80.2</ele><time>2026-04-06T06:53:24.342Z</time></trkpt><trkpt lat="43.5910617" lon="10.7279183"><ele>79.39999999999999</ele><time>2026-04-06T06:53:25.339Z</time></trkpt><trkpt lat="43.5909833" lon="10.7278433"><ele>78.6</ele><time>2026-04-06T06:53:26.341Z</time></trkpt><trkpt lat="43.590905" lon="10.7277667"><ele>77.8</ele><time>2026-04-06T06:53:27.337Z</time></trkpt><trkpt lat="43.5908317" lon="10.7276867"><ele>77.0</ele><time>2026-04-06T06:53:28.338Z</time></trkpt><trkpt lat="43.5907567" lon="10.7276067"><ele>77.0</ele><time>2026-04-06T06:53:29.339Z</time></trkpt><trkpt lat="43.5906833" lon="10.72752"><ele>77.0</ele><time>2026-04-06T06:53:30.338Z</time></trkpt><trkpt lat="43.5906133" lon="10.7274233"><ele>77.0</ele><time>2026-04-06T06:53:31.342Z</time></trkpt><trkpt lat="43.590555" lon="10.7273183"><ele>77.0</ele><time>2026-04-06T06:53:32.344Z</time></trkpt><trkpt lat="43.5905083" lon="10.7272183"><ele>77.0</ele><time>2026-04-06T06:53:33.339Z</time></trkpt><trkpt lat="43.5904667" lon="10.727115"><ele>77.0</ele><time>2026-04-06T06:53:34.337Z</time></trkpt><trkpt lat="43.5904267" lon="10.7270083"><ele>77.0</ele><time>2026-04-06T06:53:35.339Z</time></trkpt><trkpt lat="43.590385" lon="10.7269083"><ele>77.0</ele><time>2026-04-06T06:53:36.341Z</time></trkpt><trkpt lat="43.59034" lon="10.726805"><ele>77.0</ele><time>2026-04-06T06:53:37.343Z</time></trkpt><trkpt lat="43.5903" lon="10.7267033"><ele>77.0</ele><time>2026-04-06T06:53:38.342Z</time></trkpt><trkpt lat="43.59026" lon="10.7265883"><ele>77.0</ele><time>2026-04-06T06:53:39.34Z</time></trkpt><trkpt lat="43.5902217" lon="10.726465"><ele>76.4</ele><time>2026-04-06T06:53:40.338Z</time></trkpt><trkpt lat="43.5901867" lon="10.72634"><ele>75.80000000000001</ele><time>2026-04-06T06:53:41.337Z</time></trkpt><trkpt lat="43.5901583" lon="10.7262083"><ele>75.2</ele><time>2026-04-06T06:53:42.336Z</time></trkpt><trkpt lat="43.590135" lon="10.72608"><ele>74.60000000000001</ele><time>2026-04-06T06:53:43.337Z</time></trkpt><trkpt lat="43.5901117" lon="10.7259467"><ele>74.0</ele><time>2026-04-06T06:53:44.338Z</time></trkpt><trkpt lat="43.590085" lon="10.7258167"><ele>73.0</ele><time>2026-04-06T06:53:45.338Z</time></trkpt><trkpt lat="43.5900583" lon="10.7256817"><ele>72.0</ele><time>2026-04-06T06:53:46.336Z</time></trkpt><trkpt lat="43.5900333" lon="10.7255417"><ele>71.0</ele><time>2026-04-06T06:53:47.338Z</time></trkpt><trkpt lat="43.5900083" lon="10.7253983"><ele>70.0</ele><time>2026-04-06T06:53:48.339Z</time></trkpt><trkpt lat="43.5899817" lon="10.72526"><ele>69.0</ele><time>2026-04-06T06:53:49.34Z</time></trkpt><trkpt lat="43.589955" lon="10.7251167"><ele>67.8</ele><time>2026-04-06T06:53:50.344Z</time></trkpt><trkpt lat="43.5899283" lon="10.7249767"><ele>66.60000000000001</ele><time>2026-04-06T06:53:51.34Z</time></trkpt><trkpt lat="43.589905" lon="10.72484"><ele>65.4</ele><time>2026-04-06T06:53:52.337Z</time></trkpt><trkpt lat="43.5898817" lon="10.7247"><ele>64.2</ele><time>2026-04-06T06:53:53.338Z</time></trkpt><trkpt lat="43.589855" lon="10.7245583"><ele>63.0</ele><time>2026-04-06T06:53:54.339Z</time></trkpt><trkpt lat="43.5898283" lon="10.7244133"><ele>62.4</ele><time>2026-04-06T06:53:55.336Z</time></trkpt><trkpt lat="43.5898" lon="10.724265"><ele>61.8</ele><time>2026-04-06T06:53:56.338Z</time></trkpt><trkpt lat="43.5897717" lon="10.7241217"><ele>61.2</ele><time>2026-04-06T06:53:57.336Z</time></trkpt><trkpt lat="43.5897467" lon="10.723975"><ele>60.6</ele><time>2026-04-06T06:53:58.334Z</time></trkpt><trkpt lat="43.5897233" lon="10.7238283"><ele>60.0</ele><time>2026-04-06T06:53:59.337Z</time></trkpt><trkpt lat="43.5896983" lon="10.72368"><ele>59.2</ele><time>2026-04-06T06:54:00.335Z</time></trkpt><trkpt lat="43.5896717" lon="10.723535"><ele>58.4</ele><time>2026-04-06T06:54:01.335Z</time></trkpt><trkpt lat="43.5896433" lon="10.723385"><ele>57.599999999999994</ele><time>2026-04-06T06:54:02.336Z</time></trkpt><trkpt lat="43.58962" lon="10.7232333"><ele>56.8</ele><time>2026-04-06T06:54:03.337Z</time></trkpt><trkpt lat="43.589595" lon="10.72308"><ele>56.0</ele><time>2026-04-06T06:54:04.336Z</time></trkpt><trkpt lat="43.5895667" lon="10.7229283"><ele>56.0</ele><time>2026-04-06T06:54:05.337Z</time></trkpt><trkpt lat="43.5895367" lon="10.722775"><ele>56.0</ele><time>2026-04-06T06:54:06.337Z</time></trkpt><trkpt lat="43.589505" lon="10.7226217"><ele>56.0</ele><time>2026-04-06T06:54:07.34Z</time></trkpt><trkpt lat="43.5894733" lon="10.7224667"><ele>56.0</ele><time>2026-04-06T06:54:08.338Z</time></trkpt><trkpt lat="43.5894417" lon="10.72231"><ele>53.5</ele><time>2026-04-06T06:54:09.339Z</time></trkpt><trkpt lat="43.5894117" lon="10.7221533"><ele>51.0</ele><time>2026-04-06T06:54:10.338Z</time></trkpt><trkpt lat="43.5893817" lon="10.7220017"><ele>48.5</ele><time>2026-04-06T06:54:11.337Z</time></trkpt><trkpt lat="43.5893533" lon="10.72185"><ele>46.0</ele><time>2026-04-06T06:54:12.336Z</time></trkpt><trkpt lat="43.5893267" lon="10.7217"><ele>45.599999999999994</ele><time>2026-04-06T06:54:13.34Z</time></trkpt><trkpt lat="43.5893" lon="10.721555"><ele>45.2</ele><time>2026-04-06T06:54:14.339Z</time></trkpt><trkpt lat="43.589275" lon="10.7214133"><ele>44.8</ele><time>2026-04-06T06:54:15.344Z</time></trkpt><trkpt lat="43.5892533" lon="10.7212733"><ele>44.400000000000006</ele><time>2026-04-06T06:54:16.338Z</time></trkpt><trkpt lat="43.5892333" lon="10.7211383"><ele>44.0</ele><time>2026-04-06T06:54:17.334Z</time></trkpt><trkpt lat="43.5892117" lon="10.72101"><ele>43.5</ele><time>2026-04-06T06:54:18.337Z</time></trkpt><trkpt lat="43.5891933" lon="10.7208867"><ele>43.0</ele><time>2026-04-06T06:54:19.337Z</time></trkpt><trkpt lat="43.5891733" lon="10.72077"><ele>42.5</ele><time>2026-04-06T06:54:20.337Z</time></trkpt><trkpt lat="43.5891517" lon="10.7206583"><ele>42.0</ele><time>2026-04-06T06:54:21.337Z</time></trkpt><trkpt lat="43.5891317" lon="10.7205567"><ele>41.5</ele><time>2026-04-06T06:54:22.337Z</time></trkpt><trkpt lat="43.5891183" lon="10.7204617"><ele>41.0</ele><time>2026-04-06T06:54:23.337Z</time></trkpt><trkpt lat="43.5891083" lon="10.7203117"><ele>40.8</ele><time>2026-04-06T06:54:25.337Z</time></trkpt><trkpt lat="43.5890717" lon="10.7202117"><ele>40.599999999999994</ele><time>2026-04-06T06:54:28.339Z</time></trkpt><trkpt lat="43.58901" lon="10.7201867"><ele>40.4</ele><time>2026-04-06T06:54:30.336Z</time></trkpt><trkpt lat="43.588925" lon="10.720175"><ele>40.2</ele><time>2026-04-06T06:54:32.338Z</time></trkpt><trkpt lat="43.5888183" lon="10.720175"><ele>40.0</ele><time>2026-04-06T06:54:34.337Z</time></trkpt><trkpt lat="43.5887" lon="10.72021"><ele>39.833333333333336</ele><time>2026-04-06T06:54:36.334Z</time></trkpt><trkpt lat="43.58863" lon="10.7202267"><ele>39.66666666666667</ele><time>2026-04-06T06:54:37.337Z</time></trkpt><trkpt lat="43.5885567" lon="10.72024"><ele>39.5</ele><time>2026-04-06T06:54:38.337Z</time></trkpt><trkpt lat="43.58848" lon="10.72026"><ele>39.333333333333336</ele><time>2026-04-06T06:54:39.336Z</time></trkpt><trkpt lat="43.5884" lon="10.7202883"><ele>39.166666666666664</ele><time>2026-04-06T06:54:40.339Z</time></trkpt><trkpt lat="43.5883183" lon="10.72032"><ele>39.0</ele><time>2026-04-06T06:54:41.337Z</time></trkpt><trkpt lat="43.58824" lon="10.7203517"><ele>39.0</ele><time>2026-04-06T06:54:42.338Z</time></trkpt><trkpt lat="43.58816" lon="10.7203933"><ele>39.0</ele><time>2026-04-06T06:54:43.337Z</time></trkpt><trkpt lat="43.5880783" lon="10.7204417"><ele>39.0</ele><time>2026-04-06T06:54:44.34Z</time></trkpt><trkpt lat="43.5879933" lon="10.7204867"><ele>39.0</ele><time>2026-04-06T06:54:45.339Z</time></trkpt><trkpt lat="43.5879117" lon="10.7205317"><ele>39.0</ele><time>2026-04-06T06:54:46.337Z</time></trkpt><trkpt lat="43.5878267" lon="10.7205817"><ele>39.0</ele><time>2026-04-06T06:54:47.337Z</time></trkpt><trkpt lat="43.58774" lon="10.720635"><ele>39.6</ele><time>2026-04-06T06:54:48.339Z</time></trkpt><trkpt lat="43.5876517" lon="10.72069"><ele>40.2</ele><time>2026-04-06T06:54:49.336Z</time></trkpt><trkpt lat="43.5875617" lon="10.7207433"><ele>40.800000000000004</ele><time>2026-04-06T06:54:50.34Z</time></trkpt><trkpt lat="43.5874717" lon="10.7207967"><ele>41.4</ele><time>2026-04-06T06:54:51.336Z</time></trkpt><trkpt lat="43.5873817" lon="10.72085"><ele>42.0</ele><time>2026-04-06T06:54:52.339Z</time></trkpt><trkpt lat="43.58729" lon="10.7209033"><ele>42.0</ele><time>2026-04-06T06:54:53.339Z</time></trkpt><trkpt lat="43.587195" lon="10.7209567"><ele>42.0</ele><time>2026-04-06T06:54:54.339Z</time></trkpt><trkpt lat="43.5871" lon="10.7210133"><ele>42.0</ele><time>2026-04-06T06:54:55.336Z</time></trkpt><trkpt lat="43.587005" lon="10.7210683"><ele>42.0</ele><time>2026-04-06T06:54:56.339Z</time></trkpt><trkpt lat="43.58691" lon="10.7211233"><ele>42.0</ele><time>2026-04-06T06:54:57.337Z</time></trkpt><trkpt lat="43.5868133" lon="10.7211783"><ele>42.0</ele><time>2026-04-06T06:54:58.336Z</time></trkpt><trkpt lat="43.5867183" lon="10.7212333"><ele>42.0</ele><time>2026-04-06T06:54:59.336Z</time></trkpt><trkpt lat="43.5866233" lon="10.72129"><ele>42.0</ele><time>2026-04-06T06:55:00.339Z</time></trkpt><trkpt lat="43.5865283" lon="10.721345"><ele>42.0</ele><time>2026-04-06T06:55:01.335Z</time></trkpt><trkpt lat="43.586435" lon="10.7214"><ele>42.0</ele><time>2026-04-06T06:55:02.343Z</time></trkpt><trkpt lat="43.5863383" lon="10.7214567"><ele>42.0</ele><time>2026-04-06T06:55:03.336Z</time></trkpt><trkpt lat="43.58624" lon="10.7215133"><ele>42.0</ele><time>2026-04-06T06:55:04.34Z</time></trkpt><trkpt lat="43.586145" lon="10.7215683"><ele>42.0</ele><time>2026-04-06T06:55:05.338Z</time></trkpt><trkpt lat="43.5860483" lon="10.721625"><ele>42.0</ele><time>2026-04-06T06:55:06.337Z</time></trkpt><trkpt lat="43.5859517" lon="10.7216817"><ele>42.0</ele><time>2026-04-06T06:55:07.337Z</time></trkpt><trkpt lat="43.585855" lon="10.72174"><ele>42.2</ele><time>2026-04-06T06:55:08.338Z</time></trkpt><trkpt lat="43.5857583" lon="10.721795"><ele>42.400000000000006</ele><time>2026-04-06T06:55:09.336Z</time></trkpt><trkpt lat="43.5856583" lon="10.7218467"><ele>42.599999999999994</ele><time>2026-04-06T06:55:10.344Z</time></trkpt><trkpt lat="43.5855583" lon="10.721895"><ele>42.8</ele><time>2026-04-06T06:55:11.341Z</time></trkpt><trkpt lat="43.5854567" lon="10.7219367"><ele>43.0</ele><time>2026-04-06T06:55:12.337Z</time></trkpt><trkpt lat="43.5853567" lon="10.72198"><ele>43.4</ele><time>2026-04-06T06:55:13.338Z</time></trkpt><trkpt lat="43.585255" lon="10.7220217"><ele>43.8</ele><time>2026-04-06T06:55:14.341Z</time></trkpt><trkpt lat="43.5851533" lon="10.72206"><ele>44.2</ele><time>2026-04-06T06:55:15.338Z</time></trkpt><trkpt lat="43.5850483" lon="10.722095"><ele>44.6</ele><time>2026-04-06T06:55:16.338Z</time></trkpt><trkpt lat="43.5849467" lon="10.72213"><ele>45.0</ele><time>2026-04-06T06:55:17.335Z</time></trkpt><trkpt lat="43.5848433" lon="10.722165"><ele>45.0</ele><time>2026-04-06T06:55:18.336Z</time></trkpt><trkpt lat="43.5847417" lon="10.7221983"><ele>45.0</ele><time>2026-04-06T06:55:19.338Z</time></trkpt><trkpt lat="43.5846383" lon="10.7222333"><ele>45.0</ele><time>2026-04-06T06:55:20.34Z</time></trkpt><trkpt lat="43.584535" lon="10.7222667"><ele>45.0</ele><time>2026-04-06T06:55:21.336Z</time></trkpt><trkpt lat="43.5844317" lon="10.7223017"><ele>45.0</ele><time>2026-04-06T06:55:22.336Z</time></trkpt><trkpt lat="43.5843267" lon="10.7223367"><ele>45.0</ele><time>2026-04-06T06:55:23.338Z</time></trkpt><trkpt lat="43.58422" lon="10.7223683"><ele>45.0</ele><time>2026-04-06T06:55:24.338Z</time></trkpt><trkpt lat="43.5841167" lon="10.7223983"><ele>45.0</ele><time>2026-04-06T06:55:25.335Z</time></trkpt><trkpt lat="43.5840117" lon="10.7224283"><ele>45.0</ele><time>2026-04-06T06:55:26.342Z</time></trkpt><trkpt lat="43.5839067" lon="10.7224617"><ele>45.0</ele><time>2026-04-06T06:55:27.333Z</time></trkpt><trkpt lat="43.583805" lon="10.7224967"><ele>45.0</ele><time>2026-04-06T06:55:28.341Z</time></trkpt><trkpt lat="43.5837067" lon="10.722525"><ele>45.0</ele><time>2026-04-06T06:55:29.337Z</time></trkpt><trkpt lat="43.5836133" lon="10.7225483"><ele>45.0</ele><time>2026-04-06T06:55:30.338Z</time></trkpt><trkpt lat="43.5835183" lon="10.7225733"><ele>45.0</ele><time>2026-04-06T06:55:31.334Z</time></trkpt><trkpt lat="43.5834283" lon="10.7226033"><ele>45.0</ele><time>2026-04-06T06:55:32.336Z</time></trkpt><trkpt lat="43.58334" lon="10.7226383"><ele>44.333333333333336</ele><time>2026-04-06T06:55:33.339Z</time></trkpt><trkpt lat="43.5832533" lon="10.7226717"><ele>43.666666666666664</ele><time>2026-04-06T06:55:34.337Z</time></trkpt><trkpt lat="43.58317" lon="10.7227017"><ele>43.0</ele><time>2026-04-06T06:55:35.335Z</time></trkpt><trkpt lat="43.5830933" lon="10.72273"><ele>42.33333333333333</ele><time>2026-04-06T06:55:36.338Z</time></trkpt><trkpt lat="43.5830217" lon="10.72276"><ele>41.666666666666664</ele><time>2026-04-06T06:55:37.337Z</time></trkpt><trkpt lat="43.5829483" lon="10.7227917"><ele>41.0</ele><time>2026-04-06T06:55:38.34Z</time></trkpt><trkpt lat="43.5828683" lon="10.7228117"><ele>41.0</ele><time>2026-04-06T06:55:39.336Z</time></trkpt><trkpt lat="43.5827867" lon="10.7228"><ele>41.0</ele><time>2026-04-06T06:55:40.34Z</time></trkpt><trkpt lat="43.5827117" lon="10.72275"><ele>41.0</ele><time>2026-04-06T06:55:41.339Z</time></trkpt><trkpt lat="43.5826467" lon="10.7226817"><ele>41.0</ele><time>2026-04-06T06:55:42.335Z</time></trkpt><trkpt lat="43.5825883" lon="10.7226033"><ele>41.0</ele><time>2026-04-06T06:55:43.336Z</time></trkpt><trkpt lat="43.58253" lon="10.7225217"><ele>41.0</ele><time>2026-04-06T06:55:44.337Z</time></trkpt><trkpt lat="43.5824683" lon="10.7224333"><ele>41.0</ele><time>2026-04-06T06:55:45.336Z</time></trkpt><trkpt lat="43.5824083" lon="10.7223417"><ele>41.0</ele><time>2026-04-06T06:55:46.336Z</time></trkpt><trkpt lat="43.5823483" lon="10.7222483"><ele>41.0</ele><time>2026-04-06T06:55:47.337Z</time></trkpt><trkpt lat="43.58229" lon="10.7221467"><ele>41.0</ele><time>2026-04-06T06:55:48.34Z</time></trkpt><trkpt lat="43.5822283" lon="10.7220467"><ele>41.0</ele><time>2026-04-06T06:55:49.336Z</time></trkpt><trkpt lat="43.5821667" lon="10.7219517"><ele>40.8</ele><time>2026-04-06T06:55:50.34Z</time></trkpt><trkpt lat="43.5820967" lon="10.7218517"><ele>40.599999999999994</ele><time>2026-04-06T06:55:51.34Z</time></trkpt><trkpt lat="43.5820267" lon="10.721745"><ele>40.4</ele><time>2026-04-06T06:55:52.338Z</time></trkpt><trkpt lat="43.581965" lon="10.7216417"><ele>40.2</ele><time>2026-04-06T06:55:53.336Z</time></trkpt><trkpt lat="43.5819" lon="10.7215417"><ele>40.0</ele><time>2026-04-06T06:55:54.339Z</time></trkpt><trkpt lat="43.58183" lon="10.72144"><ele>40.0</ele><time>2026-04-06T06:55:55.338Z</time></trkpt><trkpt lat="43.5817583" lon="10.7213317"><ele>40.0</ele><time>2026-04-06T06:55:56.34Z</time></trkpt><trkpt lat="43.5816883" lon="10.7212183"><ele>40.0</ele><time>2026-04-06T06:55:57.336Z</time></trkpt><trkpt lat="43.5816183" lon="10.7211067"><ele>40.0</ele><time>2026-04-06T06:55:58.339Z</time></trkpt><trkpt lat="43.5815483" lon="10.7209967"><ele>40.0</ele><time>2026-04-06T06:55:59.337Z</time></trkpt><trkpt lat="43.5814767" lon="10.7208883"><ele>39.8</ele><time>2026-04-06T06:56:00.338Z</time></trkpt><trkpt lat="43.5814067" lon="10.72078"><ele>39.6</ele><time>2026-04-06T06:56:01.337Z</time></trkpt><trkpt lat="43.58134" lon="10.7206733"><ele>39.4</ele><time>2026-04-06T06:56:02.339Z</time></trkpt><trkpt lat="43.5812733" lon="10.7205683"><ele>39.2</ele><time>2026-04-06T06:56:03.339Z</time></trkpt><trkpt lat="43.5812083" lon="10.7204617"><ele>39.0</ele><time>2026-04-06T06:56:04.338Z</time></trkpt><trkpt lat="43.5811383" lon="10.720355"><ele>39.0</ele><time>2026-04-06T06:56:05.339Z</time></trkpt><trkpt lat="43.58107" lon="10.720245"><ele>39.0</ele><time>2026-04-06T06:56:06.336Z</time></trkpt><trkpt lat="43.5810017" lon="10.7201333"><ele>39.0</ele><time>2026-04-06T06:56:07.342Z</time></trkpt><trkpt lat="43.5809333" lon="10.72002"><ele>39.0</ele><time>2026-04-06T06:56:08.34Z</time></trkpt><trkpt lat="43.5808667" lon="10.7199083"><ele>39.0</ele><time>2026-04-06T06:56:09.336Z</time></trkpt><trkpt lat="43.5808033" lon="10.7197917"><ele>39.2</ele><time>2026-04-06T06:56:10.337Z</time></trkpt><trkpt lat="43.5807417" lon="10.7196717"><ele>39.4</ele><time>2026-04-06T06:56:11.338Z</time></trkpt><trkpt lat="43.5806833" lon="10.7195483"><ele>39.6</ele><time>2026-04-06T06:56:12.337Z</time></trkpt><trkpt lat="43.58063" lon="10.7194183"><ele>39.8</ele><time>2026-04-06T06:56:13.335Z</time></trkpt><trkpt lat="43.5805833" lon="10.7192833"><ele>40.0</ele><time>2026-04-06T06:56:14.337Z</time></trkpt><trkpt lat="43.580545" lon="10.7191483"><ele>40.0</ele><time>2026-04-06T06:56:15.336Z</time></trkpt><trkpt lat="43.5805117" lon="10.71901"><ele>40.0</ele><time>2026-04-06T06:56:16.339Z</time></trkpt><trkpt lat="43.5804833" lon="10.71887"><ele>40.0</ele><time>2026-04-06T06:56:17.339Z</time></trkpt><trkpt lat="43.5804567" lon="10.71873"><ele>40.0</ele><time>2026-04-06T06:56:18.339Z</time></trkpt><trkpt lat="43.580435" lon="10.718585"><ele>40.0</ele><time>2026-04-06T06:56:19.337Z</time></trkpt><trkpt lat="43.5804233" lon="10.7184367"><ele>40.0</ele><time>2026-04-06T06:56:20.338Z</time></trkpt><trkpt lat="43.5804133" lon="10.7182883"><ele>40.0</ele><time>2026-04-06T06:56:21.339Z</time></trkpt><trkpt lat="43.5804083" lon="10.7181383"><ele>40.0</ele><time>2026-04-06T06:56:22.336Z</time></trkpt><trkpt lat="43.580405" lon="10.71799"><ele>40.0</ele><time>2026-04-06T06:56:23.337Z</time></trkpt><trkpt lat="43.5804067" lon="10.7178417"><ele>40.0</ele><time>2026-04-06T06:56:24.337Z</time></trkpt><trkpt lat="43.5804083" lon="10.717695"><ele>40.0</ele><time>2026-04-06T06:56:25.338Z</time></trkpt><trkpt lat="43.5804117" lon="10.7175467"><ele>40.0</ele><time>2026-04-06T06:56:26.338Z</time></trkpt><trkpt lat="43.5804133" lon="10.7173967"><ele>40.0</ele><time>2026-04-06T06:56:27.337Z</time></trkpt><trkpt lat="43.5804133" lon="10.7172467"><ele>40.0</ele><time>2026-04-06T06:56:28.338Z</time></trkpt><trkpt lat="43.580415" lon="10.7170933"><ele>40.0</ele><time>2026-04-06T06:56:29.341Z</time></trkpt><trkpt lat="43.580415" lon="10.71694"><ele>40.0</ele><time>2026-04-06T06:56:30.339Z</time></trkpt><trkpt lat="43.5804167" lon="10.716785"><ele>40.0</ele><time>2026-04-06T06:56:31.343Z</time></trkpt><trkpt lat="43.5804183" lon="10.71663"><ele>40.0</ele><time>2026-04-06T06:56:32.339Z</time></trkpt><trkpt lat="43.58042" lon="10.7164733"><ele>40.0</ele><time>2026-04-06T06:56:33.34Z</time></trkpt><trkpt lat="43.5804217" lon="10.7163167"><ele>40.0</ele><time>2026-04-06T06:56:34.339Z</time></trkpt><trkpt lat="43.5804217" lon="10.7161617"><ele>40.0</ele><time>2026-04-06T06:56:35.34Z</time></trkpt><trkpt lat="43.5804183" lon="10.716005"><ele>40.0</ele><time>2026-04-06T06:56:36.34Z</time></trkpt><trkpt lat="43.58042" lon="10.715845"><ele>40.0</ele><time>2026-04-06T06:56:37.343Z</time></trkpt><trkpt lat="43.5804217" lon="10.7156833"><ele>40.0</ele><time>2026-04-06T06:56:38.34Z</time></trkpt><trkpt lat="43.5804283" lon="10.7155217"><ele>40.0</ele><time>2026-04-06T06:56:39.338Z</time></trkpt><trkpt lat="43.5804317" lon="10.7153617"><ele>40.0</ele><time>2026-04-06T06:56:40.337Z</time></trkpt><trkpt lat="43.5804333" lon="10.7152017"><ele>40.0</ele><time>2026-04-06T06:56:41.338Z</time></trkpt><trkpt lat="43.5804333" lon="10.71504"><ele>40.0</ele><time>2026-04-06T06:56:42.335Z</time></trkpt><trkpt lat="43.5804367" lon="10.71488"><ele>40.0</ele><time>2026-04-06T06:56:43.337Z</time></trkpt><trkpt lat="43.58044" lon="10.7147283"><ele>40.0</ele><time>2026-04-06T06:56:44.342Z</time></trkpt><trkpt lat="43.5804433" lon="10.7145833"><ele>40.0</ele><time>2026-04-06T06:56:45.338Z</time></trkpt><trkpt lat="43.5804467" lon="10.7144517"><ele>40.0</ele><time>2026-04-06T06:56:46.337Z</time></trkpt><trkpt lat="43.58045" lon="10.7143383"><ele>39.8</ele><time>2026-04-06T06:56:47.34Z</time></trkpt><trkpt lat="43.5804533" lon="10.71424"><ele>39.6</ele><time>2026-04-06T06:56:48.338Z</time></trkpt><trkpt lat="43.58046" lon="10.714085"><ele>39.4</ele><time>2026-04-06T06:56:50.338Z</time></trkpt><trkpt lat="43.580475" lon="10.713975"><ele>39.2</ele><time>2026-04-06T06:56:52.336Z</time></trkpt><trkpt lat="43.5804267" lon="10.7137583"><ele>39.0</ele><time>2026-04-06T06:57:33.338Z</time></trkpt><trkpt lat="43.580415" lon="10.7136517"><ele>38.8</ele><time>2026-04-06T06:57:35.339Z</time></trkpt><trkpt lat="43.5804267" lon="10.7135133"><ele>38.599999999999994</ele><time>2026-04-06T06:57:37.339Z</time></trkpt><trkpt lat="43.5804383" lon="10.7133567"><ele>38.4</ele><time>2026-04-06T06:57:39.34Z</time></trkpt><trkpt lat="43.5804433" lon="10.71318"><ele>38.199999999999996</ele><time>2026-04-06T06:57:41.337Z</time></trkpt><trkpt lat="43.5804467" lon="10.71309"><ele>38.0</ele><time>2026-04-06T06:57:42.336Z</time></trkpt><trkpt lat="43.58045" lon="10.7129917"><ele>38.0</ele><time>2026-04-06T06:57:43.339Z</time></trkpt><trkpt lat="43.5804533" lon="10.7128883"><ele>38.0</ele><time>2026-04-06T06:57:44.338Z</time></trkpt><trkpt lat="43.5804583" lon="10.7127833"><ele>38.0</ele><time>2026-04-06T06:57:45.336Z</time></trkpt><trkpt lat="43.58046" lon="10.712675"><ele>38.0</ele><time>2026-04-06T06:57:46.338Z</time></trkpt><trkpt lat="43.580465" lon="10.7125633"><ele>38.0</ele><time>2026-04-06T06:57:47.336Z</time></trkpt><trkpt lat="43.58047" lon="10.7124533"><ele>38.0</ele><time>2026-04-06T06:57:48.339Z</time></trkpt><trkpt lat="43.5804733" lon="10.7123417"><ele>37.666666666666664</ele><time>2026-04-06T06:57:49.341Z</time></trkpt><trkpt lat="43.5804733" lon="10.7122267"><ele>37.33333333333333</ele><time>2026-04-06T06:57:50.336Z</time></trkpt><trkpt lat="43.580475" lon="10.71211"><ele>37.0</ele><time>2026-04-06T06:57:51.34Z</time></trkpt><trkpt lat="43.5804767" lon="10.7119867"><ele>36.666666666666664</ele><time>2026-04-06T06:57:52.338Z</time></trkpt><trkpt lat="43.58048" lon="10.711865"><ele>36.333333333333336</ele><time>2026-04-06T06:57:53.337Z</time></trkpt><trkpt lat="43.5804833" lon="10.7117467"><ele>36.0</ele><time>2026-04-06T06:57:54.339Z</time></trkpt><trkpt lat="43.580485" lon="10.7116283"><ele>36.0</ele><time>2026-04-06T06:57:55.337Z</time></trkpt><trkpt lat="43.5804883" lon="10.71151"><ele>36.0</ele><time>2026-04-06T06:57:56.337Z</time></trkpt><trkpt lat="43.5804917" lon="10.71139"><ele>36.0</ele><time>2026-04-06T06:57:57.339Z</time></trkpt><trkpt lat="43.5804933" lon="10.7112667"><ele>36.0</ele><time>2026-04-06T06:57:58.338Z</time></trkpt><trkpt lat="43.5804933" lon="10.71114"><ele>36.0</ele><time>2026-04-06T06:57:59.339Z</time></trkpt><trkpt lat="43.5804933" lon="10.7110117"><ele>36.0</ele><time>2026-04-06T06:58:00.336Z</time></trkpt><trkpt lat="43.580495" lon="10.7108783"><ele>36.2</ele><time>2026-04-06T06:58:01.338Z</time></trkpt><trkpt lat="43.5804933" lon="10.710745"><ele>36.400000000000006</ele><time>2026-04-06T06:58:02.338Z</time></trkpt><trkpt lat="43.5804967" lon="10.71061"><ele>36.6</ele><time>2026-04-06T06:58:03.356Z</time></trkpt><trkpt lat="43.5804983" lon="10.7104733"><ele>36.800000000000004</ele><time>2026-04-06T06:58:04.338Z</time></trkpt><trkpt lat="43.5805" lon="10.710335"><ele>37.0</ele><time>2026-04-06T06:58:05.338Z</time></trkpt><trkpt lat="43.5805017" lon="10.7101983"><ele>36.6</ele><time>2026-04-06T06:58:06.337Z</time></trkpt><trkpt lat="43.580505" lon="10.7100583"><ele>36.2</ele><time>2026-04-06T06:58:07.336Z</time></trkpt><trkpt lat="43.5805083" lon="10.7099183"><ele>35.8</ele><time>2026-04-06T06:58:08.337Z</time></trkpt><trkpt lat="43.5805117" lon="10.7097767"><ele>35.4</ele><time>2026-04-06T06:58:09.338Z</time></trkpt><trkpt lat="43.5805133" lon="10.7096333"><ele>35.0</ele><time>2026-04-06T06:58:10.341Z</time></trkpt><trkpt lat="43.5805133" lon="10.70949"><ele>35.0</ele><time>2026-04-06T06:58:11.34Z</time></trkpt><trkpt lat="43.5805133" lon="10.709345"><ele>35.0</ele><time>2026-04-06T06:58:12.336Z</time></trkpt><trkpt lat="43.580515" lon="10.7092"><ele>35.0</ele><time>2026-04-06T06:58:13.341Z</time></trkpt><trkpt lat="43.5805183" lon="10.709055"><ele>35.0</ele><time>2026-04-06T06:58:14.339Z</time></trkpt><trkpt lat="43.5805217" lon="10.7089083"><ele>35.0</ele><time>2026-04-06T06:58:15.338Z</time></trkpt><trkpt lat="43.5805233" lon="10.7087633"><ele>35.0</ele><time>2026-04-06T06:58:16.335Z</time></trkpt><trkpt lat="43.5805233" lon="10.7086167"><ele>35.0</ele><time>2026-04-06T06:58:17.337Z</time></trkpt><trkpt lat="43.580525" lon="10.70847"><ele>35.0</ele><time>2026-04-06T06:58:18.337Z</time></trkpt><trkpt lat="43.5805283" lon="10.70832"><ele>35.0</ele><time>2026-04-06T06:58:19.337Z</time></trkpt><trkpt lat="43.5805317" lon="10.7081717"><ele>35.0</ele><time>2026-04-06T06:58:20.337Z</time></trkpt><trkpt lat="43.5805317" lon="10.708025"><ele>35.2</ele><time>2026-04-06T06:58:21.336Z</time></trkpt><trkpt lat="43.5805317" lon="10.7078767"><ele>35.4</ele><time>2026-04-06T06:58:22.336Z</time></trkpt><trkpt lat="43.580535" lon="10.7077283"><ele>35.6</ele><time>2026-04-06T06:58:23.338Z</time></trkpt><trkpt lat="43.5805367" lon="10.70758"><ele>35.8</ele><time>2026-04-06T06:58:24.337Z</time></trkpt><trkpt lat="43.5805383" lon="10.7074333"><ele>36.0</ele><time>2026-04-06T06:58:25.337Z</time></trkpt><trkpt lat="43.58054" lon="10.707285"><ele>36.2</ele><time>2026-04-06T06:58:26.338Z</time></trkpt><trkpt lat="43.58054" lon="10.7071383"><ele>36.400000000000006</ele><time>2026-04-06T06:58:27.337Z</time></trkpt><trkpt lat="43.5805417" lon="10.7069917"><ele>36.6</ele><time>2026-04-06T06:58:28.338Z</time></trkpt><trkpt lat="43.580545" lon="10.7068467"><ele>36.800000000000004</ele><time>2026-04-06T06:58:29.337Z</time></trkpt><trkpt lat="43.5805467" lon="10.7067"><ele>37.0</ele><time>2026-04-06T06:58:30.336Z</time></trkpt><trkpt lat="43.58055" lon="10.7065533"><ele>37.0</ele><time>2026-04-06T06:58:31.336Z</time></trkpt><trkpt lat="43.58055" lon="10.7064067"><ele>37.0</ele><time>2026-04-06T06:58:32.336Z</time></trkpt><trkpt lat="43.58055" lon="10.70626"><ele>37.0</ele><time>2026-04-06T06:58:33.336Z</time></trkpt><trkpt lat="43.5805517" lon="10.7061167"><ele>37.0</ele><time>2026-04-06T06:58:34.338Z</time></trkpt><trkpt lat="43.580555" lon="10.70598"><ele>37.0</ele><time>2026-04-06T06:58:35.335Z</time></trkpt><trkpt lat="43.5805583" lon="10.7058483"><ele>37.0</ele><time>2026-04-06T06:58:36.339Z</time></trkpt><trkpt lat="43.58056" lon="10.7057217"><ele>37.0</ele><time>2026-04-06T06:58:37.341Z</time></trkpt><trkpt lat="43.58056" lon="10.7055967"><ele>37.0</ele><time>2026-04-06T06:58:38.338Z</time></trkpt><trkpt lat="43.58056" lon="10.7054783"><ele>37.0</ele><time>2026-04-06T06:58:39.338Z</time></trkpt><trkpt lat="43.58056" lon="10.7053633"><ele>37.0</ele><time>2026-04-06T06:58:40.338Z</time></trkpt><trkpt lat="43.5805583" lon="10.7052467"><ele>37.0</ele><time>2026-04-06T06:58:41.337Z</time></trkpt><trkpt lat="43.5805567" lon="10.7051333"><ele>37.0</ele><time>2026-04-06T06:58:42.339Z</time></trkpt><trkpt lat="43.5805617" lon="10.7050233"><ele>37.0</ele><time>2026-04-06T06:58:43.34Z</time></trkpt><trkpt lat="43.5805733" lon="10.7049183"><ele>37.0</ele><time>2026-04-06T06:58:44.341Z</time></trkpt><trkpt lat="43.5805967" lon="10.7048217"><ele>37.0</ele><time>2026-04-06T06:58:45.336Z</time></trkpt><trkpt lat="43.5806317" lon="10.7047317"><ele>37.0</ele><time>2026-04-06T06:58:46.336Z</time></trkpt><trkpt lat="43.58067" lon="10.704655"><ele>37.0</ele><time>2026-04-06T06:58:47.348Z</time></trkpt><trkpt lat="43.5807017" lon="10.704575"><ele>37.0</ele><time>2026-04-06T06:58:48.34Z</time></trkpt><trkpt lat="43.580725" lon="10.7044917"><ele>37.0</ele><time>2026-04-06T06:58:49.339Z</time></trkpt><trkpt lat="43.5807333" lon="10.7044017"><ele>37.0</ele><time>2026-04-06T06:58:50.344Z</time></trkpt><trkpt lat="43.5807283" lon="10.70431"><ele>37.0</ele><time>2026-04-06T06:58:51.344Z</time></trkpt><trkpt lat="43.5806633" lon="10.704165"><ele>37.0</ele><time>2026-04-06T06:58:53.335Z</time></trkpt><trkpt lat="43.5806083" lon="10.70412"><ele>37.0</ele><time>2026-04-06T06:58:54.339Z</time></trkpt><trkpt lat="43.5805467" lon="10.7041017"><ele>37.0</ele><time>2026-04-06T06:58:55.337Z</time></trkpt><trkpt lat="43.5804767" lon="10.7041033"><ele>37.0</ele><time>2026-04-06T06:58:56.338Z</time></trkpt><trkpt lat="43.5804033" lon="10.7041267"><ele>37.0</ele><time>2026-04-06T06:58:57.335Z</time></trkpt><trkpt lat="43.5803267" lon="10.7041667"><ele>37.0</ele><time>2026-04-06T06:58:58.335Z</time></trkpt><trkpt lat="43.5802533" lon="10.704215"><ele>37.0</ele><time>2026-04-06T06:58:59.337Z</time></trkpt><trkpt lat="43.5801783" lon="10.70427"><ele>37.0</ele><time>2026-04-06T06:59:00.335Z</time></trkpt><trkpt lat="43.5801033" lon="10.7043283"><ele>37.0</ele><time>2026-04-06T06:59:01.334Z</time></trkpt><trkpt lat="43.5800233" lon="10.7043867"><ele>37.0</ele><time>2026-04-06T06:59:02.336Z</time></trkpt><trkpt lat="43.579945" lon="10.70444"><ele>37.0</ele><time>2026-04-06T06:59:03.337Z</time></trkpt><trkpt lat="43.5798683" lon="10.7044917"><ele>37.0</ele><time>2026-04-06T06:59:04.333Z</time></trkpt><trkpt lat="43.5797933" lon="10.704545"><ele>37.0</ele><time>2026-04-06T06:59:05.336Z</time></trkpt><trkpt lat="43.5797133" lon="10.7045983"><ele>37.0</ele><time>2026-04-06T06:59:06.337Z</time></trkpt><trkpt lat="43.57963" lon="10.7046467"><ele>37.0</ele><time>2026-04-06T06:59:07.338Z</time></trkpt><trkpt lat="43.5795467" lon="10.7046917"><ele>36.75</ele><time>2026-04-06T06:59:08.337Z</time></trkpt><trkpt lat="43.5793717" lon="10.7047683"><ele>36.5</ele><time>2026-04-06T06:59:10.339Z</time></trkpt><trkpt lat="43.5792817" lon="10.704805"><ele>36.25</ele><time>2026-04-06T06:59:11.34Z</time></trkpt><trkpt lat="43.5791883" lon="10.70484"><ele>36.0</ele><time>2026-04-06T06:59:12.336Z</time></trkpt><trkpt lat="43.5790967" lon="10.7048733"><ele>36.0</ele><time>2026-04-06T06:59:13.337Z</time></trkpt><trkpt lat="43.5790017" lon="10.70491"><ele>36.0</ele><time>2026-04-06T06:59:14.341Z</time></trkpt><trkpt lat="43.5789067" lon="10.7049467"><ele>36.0</ele><time>2026-04-06T06:59:15.339Z</time></trkpt><trkpt lat="43.57881" lon="10.7049833"><ele>36.0</ele><time>2026-04-06T06:59:16.342Z</time></trkpt><trkpt lat="43.5787117" lon="10.7050217"><ele>36.0</ele><time>2026-04-06T06:59:17.341Z</time></trkpt><trkpt lat="43.5786117" lon="10.7050583"><ele>36.0</ele><time>2026-04-06T06:59:18.339Z</time></trkpt><trkpt lat="43.5785117" lon="10.7050933"><ele>36.0</ele><time>2026-04-06T06:59:19.339Z</time></trkpt><trkpt lat="43.5784117" lon="10.7051317"><ele>36.0</ele><time>2026-04-06T06:59:20.34Z</time></trkpt><trkpt lat="43.57831" lon="10.7051717"><ele>36.0</ele><time>2026-04-06T06:59:21.339Z</time></trkpt><trkpt lat="43.5782083" lon="10.70521"><ele>36.0</ele><time>2026-04-06T06:59:22.338Z</time></trkpt><trkpt lat="43.578105" lon="10.70525"><ele>36.0</ele><time>2026-04-06T06:59:23.341Z</time></trkpt><trkpt lat="43.5780033" lon="10.7052917"><ele>36.0</ele><time>2026-04-06T06:59:24.336Z</time></trkpt><trkpt lat="43.5778983" lon="10.7053333"><ele>36.0</ele><time>2026-04-06T06:59:25.337Z</time></trkpt><trkpt lat="43.577795" lon="10.7053733"><ele>36.0</ele><time>2026-04-06T06:59:26.339Z</time></trkpt><trkpt lat="43.5776917" lon="10.7054133"><ele>36.0</ele><time>2026-04-06T06:59:27.338Z</time></trkpt><trkpt lat="43.5775883" lon="10.705455"><ele>36.2</ele><time>2026-04-06T06:59:28.335Z</time></trkpt><trkpt lat="43.577485" lon="10.7054967"><ele>36.400000000000006</ele><time>2026-04-06T06:59:29.338Z</time></trkpt><trkpt lat="43.5773833" lon="10.7055383"><ele>36.6</ele><time>2026-04-06T06:59:30.336Z</time></trkpt><trkpt lat="43.57728" lon="10.7055783"><ele>36.800000000000004</ele><time>2026-04-06T06:59:31.336Z</time></trkpt><trkpt lat="43.5771783" lon="10.7056217"><ele>37.0</ele><time>2026-04-06T06:59:32.338Z</time></trkpt><trkpt lat="43.5770767" lon="10.7056633"><ele>37.2</ele><time>2026-04-06T06:59:33.336Z</time></trkpt><trkpt lat="43.5769717" lon="10.7057033"><ele>37.400000000000006</ele><time>2026-04-06T06:59:34.337Z</time></trkpt><trkpt lat="43.5768667" lon="10.7057417"><ele>37.599999999999994</ele><time>2026-04-06T06:59:35.335Z</time></trkpt><trkpt lat="43.5767617" lon="10.7057817"><ele>37.8</ele><time>2026-04-06T06:59:36.339Z</time></trkpt><trkpt lat="43.5766567" lon="10.7058233"><ele>38.0</ele><time>2026-04-06T06:59:37.339Z</time></trkpt><trkpt lat="43.5765533" lon="10.705865"><ele>38.0</ele><time>2026-04-06T06:59:38.34Z</time></trkpt><trkpt lat="43.5764483" lon="10.70591"><ele>38.0</ele><time>2026-04-06T06:59:39.338Z</time></trkpt><trkpt lat="43.576345" lon="10.7059533"><ele>38.0</ele><time>2026-04-06T06:59:40.337Z</time></trkpt><trkpt lat="43.5762417" lon="10.7059967"><ele>38.0</ele><time>2026-04-06T06:59:41.345Z</time></trkpt><trkpt lat="43.5761383" lon="10.7060417"><ele>38.0</ele><time>2026-04-06T06:59:42.338Z</time></trkpt><trkpt lat="43.576035" lon="10.706085"><ele>38.0</ele><time>2026-04-06T06:59:43.34Z</time></trkpt><trkpt lat="43.57593" lon="10.70613"><ele>38.0</ele><time>2026-04-06T06:59:44.34Z</time></trkpt><trkpt lat="43.575825" lon="10.7061733"><ele>38.0</ele><time>2026-04-06T06:59:45.342Z</time></trkpt><trkpt lat="43.5757183" lon="10.706215"><ele>38.0</ele><time>2026-04-06T06:59:46.339Z</time></trkpt><trkpt lat="43.5756117" lon="10.706255"><ele>38.0</ele><time>2026-04-06T06:59:47.339Z</time></trkpt><trkpt lat="43.5755067" lon="10.7062967"><ele>38.0</ele><time>2026-04-06T06:59:48.338Z</time></trkpt><trkpt lat="43.5754017" lon="10.706335"><ele>38.0</ele><time>2026-04-06T06:59:49.34Z</time></trkpt><trkpt lat="43.5752967" lon="10.7063767"><ele>38.0</ele><time>2026-04-06T06:59:50.341Z</time></trkpt><trkpt lat="43.5751933" lon="10.70642"><ele>38.0</ele><time>2026-04-06T06:59:51.338Z</time></trkpt><trkpt lat="43.5750867" lon="10.7064617"><ele>38.0</ele><time>2026-04-06T06:59:52.341Z</time></trkpt><trkpt lat="43.5749833" lon="10.7065017"><ele>38.0</ele><time>2026-04-06T06:59:53.339Z</time></trkpt><trkpt lat="43.5748817" lon="10.7065433"><ele>38.0</ele><time>2026-04-06T06:59:54.338Z</time></trkpt><trkpt lat="43.57478" lon="10.7065833"><ele>38.0</ele><time>2026-04-06T06:59:55.338Z</time></trkpt><trkpt lat="43.5746783" lon="10.7066233"><ele>38.0</ele><time>2026-04-06T06:59:56.34Z</time></trkpt><trkpt lat="43.5745767" lon="10.7066617"><ele>38.0</ele><time>2026-04-06T06:59:57.339Z</time></trkpt><trkpt lat="43.574475" lon="10.7067017"><ele>37.8</ele><time>2026-04-06T06:59:58.338Z</time></trkpt><trkpt lat="43.5743733" lon="10.7067417"><ele>37.599999999999994</ele><time>2026-04-06T06:59:59.343Z</time></trkpt><trkpt lat="43.5742717" lon="10.7067817"><ele>37.400000000000006</ele><time>2026-04-06T07:00:00.339Z</time></trkpt><trkpt lat="43.5741717" lon="10.706825"><ele>37.2</ele><time>2026-04-06T07:00:01.34Z</time></trkpt><trkpt lat="43.5740683" lon="10.7068667"><ele>37.0</ele><time>2026-04-06T07:00:02.34Z</time></trkpt><trkpt lat="43.5739633" lon="10.7069067"><ele>37.0</ele><time>2026-04-06T07:00:03.34Z</time></trkpt><trkpt lat="43.5738583" lon="10.7069467"><ele>37.0</ele><time>2026-04-06T07:00:04.34Z</time></trkpt><trkpt lat="43.5737517" lon="10.7069867"><ele>37.0</ele><time>2026-04-06T07:00:05.341Z</time></trkpt><trkpt lat="43.5736467" lon="10.7070267"><ele>37.0</ele><time>2026-04-06T07:00:06.339Z</time></trkpt><trkpt lat="43.5735417" lon="10.7070683"><ele>37.0</ele><time>2026-04-06T07:00:07.339Z</time></trkpt><trkpt lat="43.573435" lon="10.70711"><ele>37.4</ele><time>2026-04-06T07:00:08.341Z</time></trkpt><trkpt lat="43.57333" lon="10.7071533"><ele>37.800000000000004</ele><time>2026-04-06T07:00:09.338Z</time></trkpt><trkpt lat="43.5732233" lon="10.7071933"><ele>38.2</ele><time>2026-04-06T07:00:10.34Z</time></trkpt><trkpt lat="43.573115" lon="10.7072333"><ele>38.6</ele><time>2026-04-06T07:00:11.337Z</time></trkpt><trkpt lat="43.5730083" lon="10.7072767"><ele>39.0</ele><time>2026-04-06T07:00:12.341Z</time></trkpt><trkpt lat="43.5729017" lon="10.70732"><ele>39.2</ele><time>2026-04-06T07:00:13.337Z</time></trkpt><trkpt lat="43.5727933" lon="10.7073633"><ele>39.4</ele><time>2026-04-06T07:00:14.34Z</time></trkpt><trkpt lat="43.5726867" lon="10.7074067"><ele>39.6</ele><time>2026-04-06T07:00:15.338Z</time></trkpt><trkpt lat="43.5725783" lon="10.7074483"><ele>39.8</ele><time>2026-04-06T07:00:16.338Z</time></trkpt><trkpt lat="43.57247" lon="10.70749"><ele>40.0</ele><time>2026-04-06T07:00:17.337Z</time></trkpt><trkpt lat="43.57236" lon="10.7075317"><ele>40.0</ele><time>2026-04-06T07:00:18.338Z</time></trkpt><trkpt lat="43.572255" lon="10.7075733"><ele>40.0</ele><time>2026-04-06T07:00:19.336Z</time></trkpt><trkpt lat="43.5721483" lon="10.7076183"><ele>40.0</ele><time>2026-04-06T07:00:20.342Z</time></trkpt><trkpt lat="43.5720417" lon="10.7076617"><ele>40.0</ele><time>2026-04-06T07:00:21.339Z</time></trkpt><trkpt lat="43.571935" lon="10.707705"><ele>40.0</ele><time>2026-04-06T07:00:22.338Z</time></trkpt><trkpt lat="43.57183" lon="10.7077483"><ele>39.6</ele><time>2026-04-06T07:00:23.338Z</time></trkpt><trkpt lat="43.571725" lon="10.7077883"><ele>39.2</ele><time>2026-04-06T07:00:24.338Z</time></trkpt><trkpt lat="43.5716233" lon="10.70783"><ele>38.8</ele><time>2026-04-06T07:00:25.337Z</time></trkpt><trkpt lat="43.57152" lon="10.7078733"><ele>38.4</ele><time>2026-04-06T07:00:26.338Z</time></trkpt><trkpt lat="43.571415" lon="10.707915"><ele>38.0</ele><time>2026-04-06T07:00:27.34Z</time></trkpt><trkpt lat="43.5713117" lon="10.707955"><ele>38.0</ele><time>2026-04-06T07:00:28.342Z</time></trkpt><trkpt lat="43.57121" lon="10.7079967"><ele>38.0</ele><time>2026-04-06T07:00:29.341Z</time></trkpt><trkpt lat="43.5711083" lon="10.7080383"><ele>38.0</ele><time>2026-04-06T07:00:30.339Z</time></trkpt><trkpt lat="43.571005" lon="10.7080783"><ele>38.0</ele><time>2026-04-06T07:00:31.341Z</time></trkpt><trkpt lat="43.570905" lon="10.7081183"><ele>38.0</ele><time>2026-04-06T07:00:32.339Z</time></trkpt><trkpt lat="43.5708033" lon="10.7081583"><ele>38.0</ele><time>2026-04-06T07:00:33.34Z</time></trkpt><trkpt lat="43.5707017" lon="10.7081983"><ele>38.0</ele><time>2026-04-06T07:00:34.339Z</time></trkpt><trkpt lat="43.5706017" lon="10.70824"><ele>38.0</ele><time>2026-04-06T07:00:35.34Z</time></trkpt><trkpt lat="43.5705017" lon="10.70828"><ele>38.0</ele><time>2026-04-06T07:00:36.342Z</time></trkpt><trkpt lat="43.5704017" lon="10.70832"><ele>38.0</ele><time>2026-04-06T07:00:37.338Z</time></trkpt><trkpt lat="43.5703033" lon="10.70836"><ele>38.4</ele><time>2026-04-06T07:00:38.338Z</time></trkpt><trkpt lat="43.570205" lon="10.7084"><ele>38.8</ele><time>2026-04-06T07:00:39.338Z</time></trkpt><trkpt lat="43.570105" lon="10.7084417"><ele>39.2</ele><time>2026-04-06T07:00:40.34Z</time></trkpt><trkpt lat="43.570005" lon="10.7084817"><ele>39.6</ele><time>2026-04-06T07:00:41.34Z</time></trkpt><trkpt lat="43.5699033" lon="10.708525"><ele>40.0</ele><time>2026-04-06T07:00:42.339Z</time></trkpt><trkpt lat="43.5698033" lon="10.7085667"><ele>40.0</ele><time>2026-04-06T07:00:43.339Z</time></trkpt><trkpt lat="43.5697033" lon="10.7086067"><ele>40.0</ele><time>2026-04-06T07:00:44.34Z</time></trkpt><trkpt lat="43.5696" lon="10.7086467"><ele>40.0</ele><time>2026-04-06T07:00:45.339Z</time></trkpt><trkpt lat="43.5695" lon="10.708685"><ele>40.0</ele><time>2026-04-06T07:00:46.341Z</time></trkpt><trkpt lat="43.5693983" lon="10.7087267"><ele>40.0</ele><time>2026-04-06T07:00:47.339Z</time></trkpt><trkpt lat="43.5692983" lon="10.7087683"><ele>40.2</ele><time>2026-04-06T07:00:48.338Z</time></trkpt><trkpt lat="43.5691933" lon="10.7088083"><ele>40.4</ele><time>2026-04-06T07:00:49.341Z</time></trkpt><trkpt lat="43.5690917" lon="10.7088483"><ele>40.599999999999994</ele><time>2026-04-06T07:00:50.34Z</time></trkpt><trkpt lat="43.56899" lon="10.70889"><ele>40.8</ele><time>2026-04-06T07:00:51.338Z</time></trkpt><trkpt lat="43.56889" lon="10.70893"><ele>41.0</ele><time>2026-04-06T07:00:52.339Z</time></trkpt><trkpt lat="43.5687883" lon="10.70897"><ele>40.8</ele><time>2026-04-06T07:00:53.341Z</time></trkpt><trkpt lat="43.568685" lon="10.70901"><ele>40.599999999999994</ele><time>2026-04-06T07:00:54.335Z</time></trkpt><trkpt lat="43.568585" lon="10.70905"><ele>40.4</ele><time>2026-04-06T07:00:55.34Z</time></trkpt><trkpt lat="43.5684817" lon="10.7090917"><ele>40.2</ele><time>2026-04-06T07:00:56.336Z</time></trkpt><trkpt lat="43.56838" lon="10.70913"><ele>40.0</ele><time>2026-04-06T07:00:57.338Z</time></trkpt><trkpt lat="43.5682767" lon="10.70917"><ele>40.0</ele><time>2026-04-06T07:00:58.337Z</time></trkpt><trkpt lat="43.5681733" lon="10.70921"><ele>40.0</ele><time>2026-04-06T07:00:59.336Z</time></trkpt><trkpt lat="43.5680717" lon="10.7092517"><ele>40.0</ele><time>2026-04-06T07:01:00.335Z</time></trkpt><trkpt lat="43.56797" lon="10.7092933"><ele>40.0</ele><time>2026-04-06T07:01:01.336Z</time></trkpt><trkpt lat="43.5678683" lon="10.709335"><ele>40.0</ele><time>2026-04-06T07:01:02.338Z</time></trkpt><trkpt lat="43.5677667" lon="10.7093767"><ele>39.8</ele><time>2026-04-06T07:01:03.337Z</time></trkpt><trkpt lat="43.5676667" lon="10.7094183"><ele>39.6</ele><time>2026-04-06T07:01:04.341Z</time></trkpt><trkpt lat="43.5675633" lon="10.70946"><ele>39.4</ele><time>2026-04-06T07:01:05.337Z</time></trkpt><trkpt lat="43.56746" lon="10.7095017"><ele>39.2</ele><time>2026-04-06T07:01:06.336Z</time></trkpt><trkpt lat="43.5673567" lon="10.7095433"><ele>39.0</ele><time>2026-04-06T07:01:07.336Z</time></trkpt><trkpt lat="43.5672533" lon="10.709585"><ele>39.0</ele><time>2026-04-06T07:01:08.338Z</time></trkpt><trkpt lat="43.5671533" lon="10.70963"><ele>39.0</ele><time>2026-04-06T07:01:09.335Z</time></trkpt><trkpt lat="43.5670483" lon="10.7096717"><ele>39.0</ele><time>2026-04-06T07:01:10.338Z</time></trkpt><trkpt lat="43.5669417" lon="10.70971"><ele>39.0</ele><time>2026-04-06T07:01:11.339Z</time></trkpt><trkpt lat="43.5668367" lon="10.70975"><ele>39.0</ele><time>2026-04-06T07:01:12.34Z</time></trkpt><trkpt lat="43.5667317" lon="10.7097883"><ele>39.6</ele><time>2026-04-06T07:01:13.338Z</time></trkpt><trkpt lat="43.5666283" lon="10.7098317"><ele>40.2</ele><time>2026-04-06T07:01:14.351Z</time></trkpt><trkpt lat="43.566525" lon="10.709875"><ele>40.800000000000004</ele><time>2026-04-06T07:01:15.342Z</time></trkpt><trkpt lat="43.5664233" lon="10.7099183"><ele>41.4</ele><time>2026-04-06T07:01:16.338Z</time></trkpt><trkpt lat="43.5663183" lon="10.7099583"><ele>42.0</ele><time>2026-04-06T07:01:17.341Z</time></trkpt><trkpt lat="43.5662117" lon="10.7099983"><ele>42.0</ele><time>2026-04-06T07:01:18.341Z</time></trkpt><trkpt lat="43.5661067" lon="10.7100417"><ele>42.0</ele><time>2026-04-06T07:01:19.34Z</time></trkpt><trkpt lat="43.5660033" lon="10.710085"><ele>42.0</ele><time>2026-04-06T07:01:20.342Z</time></trkpt><trkpt lat="43.5658967" lon="10.71013"><ele>42.0</ele><time>2026-04-06T07:01:21.34Z</time></trkpt><trkpt lat="43.5657917" lon="10.710175"><ele>42.0</ele><time>2026-04-06T07:01:22.341Z</time></trkpt><trkpt lat="43.5656867" lon="10.710215"><ele>42.0</ele><time>2026-04-06T07:01:23.336Z</time></trkpt><trkpt lat="43.5655817" lon="10.7102567"><ele>42.0</ele><time>2026-04-06T07:01:24.341Z</time></trkpt><trkpt lat="43.5654767" lon="10.710295"><ele>42.0</ele><time>2026-04-06T07:01:25.342Z</time></trkpt><trkpt lat="43.5653717" lon="10.7103367"><ele>42.0</ele><time>2026-04-06T07:01:26.343Z</time></trkpt><trkpt lat="43.565265" lon="10.71038"><ele>42.0</ele><time>2026-04-06T07:01:27.34Z</time></trkpt><trkpt lat="43.5651567" lon="10.71042"><ele>41.8</ele><time>2026-04-06T07:01:28.337Z</time></trkpt><trkpt lat="43.56505" lon="10.7104633"><ele>41.6</ele><time>2026-04-06T07:01:29.338Z</time></trkpt><trkpt lat="43.5649433" lon="10.7105067"><ele>41.4</ele><time>2026-04-06T07:01:30.339Z</time></trkpt><trkpt lat="43.564835" lon="10.7105483"><ele>41.199999999999996</ele><time>2026-04-06T07:01:31.341Z</time></trkpt><trkpt lat="43.5647267" lon="10.71059"><ele>41.0</ele><time>2026-04-06T07:01:32.343Z</time></trkpt><trkpt lat="43.5646217" lon="10.7106317"><ele>41.199999999999996</ele><time>2026-04-06T07:01:33.341Z</time></trkpt><trkpt lat="43.564515" lon="10.7106733"><ele>41.4</ele><time>2026-04-06T07:01:34.337Z</time></trkpt><trkpt lat="43.5644083" lon="10.710715"><ele>41.6</ele><time>2026-04-06T07:01:35.356Z</time></trkpt><trkpt lat="43.5643" lon="10.710755"><ele>41.8</ele><time>2026-04-06T07:01:36.334Z</time></trkpt><trkpt lat="43.5641917" lon="10.710795"><ele>42.0</ele><time>2026-04-06T07:01:37.341Z</time></trkpt><trkpt lat="43.5640867" lon="10.7108367"><ele>42.0</ele><time>2026-04-06T07:01:38.341Z</time></trkpt><trkpt lat="43.56398" lon="10.7108783"><ele>42.0</ele><time>2026-04-06T07:01:39.338Z</time></trkpt><trkpt lat="43.5638733" lon="10.7109183"><ele>42.0</ele><time>2026-04-06T07:01:40.337Z</time></trkpt><trkpt lat="43.5637683" lon="10.7109583"><ele>42.0</ele><time>2026-04-06T07:01:41.341Z</time></trkpt><trkpt lat="43.5636617" lon="10.711"><ele>42.0</ele><time>2026-04-06T07:01:42.336Z</time></trkpt><trkpt lat="43.5635533" lon="10.7110433"><ele>42.0</ele><time>2026-04-06T07:01:43.337Z</time></trkpt><trkpt lat="43.5634483" lon="10.7110833"><ele>42.0</ele><time>2026-04-06T07:01:44.339Z</time></trkpt><trkpt lat="43.56334" lon="10.711125"><ele>42.0</ele><time>2026-04-06T07:01:45.336Z</time></trkpt><trkpt lat="43.5632317" lon="10.711165"><ele>42.0</ele><time>2026-04-06T07:01:46.339Z</time></trkpt><trkpt lat="43.5631217" lon="10.7112067"><ele>42.0</ele><time>2026-04-06T07:01:47.339Z</time></trkpt><trkpt lat="43.5630117" lon="10.71125"><ele>42.0</ele><time>2026-04-06T07:01:48.338Z</time></trkpt><trkpt lat="43.562905" lon="10.7112933"><ele>42.0</ele><time>2026-04-06T07:01:49.339Z</time></trkpt><trkpt lat="43.562795" lon="10.7113367"><ele>42.0</ele><time>2026-04-06T07:01:50.339Z</time></trkpt><trkpt lat="43.5626833" lon="10.7113783"><ele>42.0</ele><time>2026-04-06T07:01:51.338Z</time></trkpt><trkpt lat="43.5625733" lon="10.71142"><ele>42.25</ele><time>2026-04-06T07:01:52.337Z</time></trkpt><trkpt lat="43.5624633" lon="10.7114633"><ele>42.5</ele><time>2026-04-06T07:01:53.338Z</time></trkpt><trkpt lat="43.5623517" lon="10.7115067"><ele>42.75</ele><time>2026-04-06T07:01:54.337Z</time></trkpt><trkpt lat="43.5622417" lon="10.71155"><ele>43.0</ele><time>2026-04-06T07:01:55.345Z</time></trkpt><trkpt lat="43.5621317" lon="10.71159"><ele>43.25</ele><time>2026-04-06T07:01:56.341Z</time></trkpt><trkpt lat="43.56202" lon="10.7116317"><ele>43.5</ele><time>2026-04-06T07:01:57.345Z</time></trkpt><trkpt lat="43.56191" lon="10.711675"><ele>43.75</ele><time>2026-04-06T07:01:58.344Z</time></trkpt><trkpt lat="43.5617983" lon="10.71172"><ele>44.0</ele><time>2026-04-06T07:01:59.337Z</time></trkpt><trkpt lat="43.5616867" lon="10.711765"><ele>44.0</ele><time>2026-04-06T07:02:00.344Z</time></trkpt><trkpt lat="43.5615733" lon="10.7118083"><ele>44.0</ele><time>2026-04-06T07:02:01.343Z</time></trkpt><trkpt lat="43.5614617" lon="10.711855"><ele>44.0</ele><time>2026-04-06T07:02:02.344Z</time></trkpt><trkpt lat="43.5613483" lon="10.7118967"><ele>44.0</ele><time>2026-04-06T07:02:03.337Z</time></trkpt><trkpt lat="43.561235" lon="10.71194"><ele>43.75</ele><time>2026-04-06T07:02:04.342Z</time></trkpt><trkpt lat="43.56112" lon="10.7119767"><ele>43.5</ele><time>2026-04-06T07:02:05.344Z</time></trkpt><trkpt lat="43.5610083" lon="10.7120083"><ele>43.25</ele><time>2026-04-06T07:02:06.338Z</time></trkpt><trkpt lat="43.560895" lon="10.7120367"><ele>43.0</ele><time>2026-04-06T07:02:07.341Z</time></trkpt><trkpt lat="43.5607817" lon="10.7120617"><ele>43.0</ele><time>2026-04-06T07:02:08.342Z</time></trkpt><trkpt lat="43.5606667" lon="10.7120833"><ele>43.0</ele><time>2026-04-06T07:02:09.339Z</time></trkpt><trkpt lat="43.5605533" lon="10.7121"><ele>43.0</ele><time>2026-04-06T07:02:10.341Z</time></trkpt><trkpt lat="43.56044" lon="10.7121117"><ele>43.0</ele><time>2026-04-06T07:02:11.339Z</time></trkpt><trkpt lat="43.5603267" lon="10.7121233"><ele>43.25</ele><time>2026-04-06T07:02:12.339Z</time></trkpt><trkpt lat="43.5602133" lon="10.7121333"><ele>43.5</ele><time>2026-04-06T07:02:13.338Z</time></trkpt><trkpt lat="43.5601" lon="10.7121433"><ele>43.75</ele><time>2026-04-06T07:02:14.341Z</time></trkpt><trkpt lat="43.5599867" lon="10.7121517"><ele>44.0</ele><time>2026-04-06T07:02:15.338Z</time></trkpt><trkpt lat="43.5598733" lon="10.71216"><ele>44.0</ele><time>2026-04-06T07:02:16.339Z</time></trkpt><trkpt lat="43.5597617" lon="10.7121667"><ele>44.0</ele><time>2026-04-06T07:02:17.339Z</time></trkpt><trkpt lat="43.5596467" lon="10.7121717"><ele>44.0</ele><time>2026-04-06T07:02:18.337Z</time></trkpt><trkpt lat="43.5595333" lon="10.71218"><ele>44.0</ele><time>2026-04-06T07:02:19.338Z</time></trkpt><trkpt lat="43.55942" lon="10.712185"><ele>44.0</ele><time>2026-04-06T07:02:20.34Z</time></trkpt><trkpt lat="43.5593083" lon="10.7121917"><ele>44.0</ele><time>2026-04-06T07:02:21.336Z</time></trkpt><trkpt lat="43.559195" lon="10.7121983"><ele>44.0</ele><time>2026-04-06T07:02:22.337Z</time></trkpt><trkpt lat="43.5590817" lon="10.7122067"><ele>44.0</ele><time>2026-04-06T07:02:23.339Z</time></trkpt><trkpt lat="43.5589683" lon="10.712215"><ele>44.0</ele><time>2026-04-06T07:02:24.337Z</time></trkpt><trkpt lat="43.558855" lon="10.7122217"><ele>44.0</ele><time>2026-04-06T07:02:25.338Z</time></trkpt><trkpt lat="43.5587417" lon="10.7122317"><ele>44.0</ele><time>2026-04-06T07:02:26.34Z</time></trkpt><trkpt lat="43.5586283" lon="10.7122417"><ele>44.0</ele><time>2026-04-06T07:02:27.337Z</time></trkpt><trkpt lat="43.558515" lon="10.7122483"><ele>44.0</ele><time>2026-04-06T07:02:28.336Z</time></trkpt><trkpt lat="43.5584017" lon="10.7122567"><ele>44.0</ele><time>2026-04-06T07:02:29.338Z</time></trkpt><trkpt lat="43.5582883" lon="10.7122633"><ele>44.0</ele><time>2026-04-06T07:02:30.339Z</time></trkpt><trkpt lat="43.558175" lon="10.7122683"><ele>44.0</ele><time>2026-04-06T07:02:31.337Z</time></trkpt><trkpt lat="43.5580617" lon="10.712275"><ele>44.0</ele><time>2026-04-06T07:02:32.34Z</time></trkpt><trkpt lat="43.5579467" lon="10.7122817"><ele>44.0</ele><time>2026-04-06T07:02:33.335Z</time></trkpt><trkpt lat="43.557835" lon="10.7122883"><ele>44.0</ele><time>2026-04-06T07:02:34.336Z</time></trkpt><trkpt lat="43.5577217" lon="10.7122967"><ele>44.0</ele><time>2026-04-06T07:02:35.337Z</time></trkpt><trkpt lat="43.557605" lon="10.7123033"><ele>44.25</ele><time>2026-04-06T07:02:36.338Z</time></trkpt><trkpt lat="43.55749" lon="10.71231"><ele>44.5</ele><time>2026-04-06T07:02:37.337Z</time></trkpt><trkpt lat="43.5573767" lon="10.7123183"><ele>44.75</ele><time>2026-04-06T07:02:38.34Z</time></trkpt><trkpt lat="43.5572617" lon="10.7123267"><ele>45.0</ele><time>2026-04-06T07:02:39.34Z</time></trkpt><trkpt lat="43.5571483" lon="10.7123333"><ele>45.25</ele><time>2026-04-06T07:02:40.336Z</time></trkpt><trkpt lat="43.557035" lon="10.7123383"><ele>45.5</ele><time>2026-04-06T07:02:41.336Z</time></trkpt><trkpt lat="43.5569183" lon="10.7123467"><ele>45.75</ele><time>2026-04-06T07:02:42.337Z</time></trkpt><trkpt lat="43.5568" lon="10.7123583"><ele>46.0</ele><time>2026-04-06T07:02:43.336Z</time></trkpt><trkpt lat="43.55668" lon="10.7123683"><ele>46.0</ele><time>2026-04-06T07:02:44.341Z</time></trkpt><trkpt lat="43.5565583" lon="10.7123783"><ele>46.0</ele><time>2026-04-06T07:02:45.337Z</time></trkpt><trkpt lat="43.5564383" lon="10.7123867"><ele>46.0</ele><time>2026-04-06T07:02:46.338Z</time></trkpt><trkpt lat="43.5563217" lon="10.712395"><ele>46.0</ele><time>2026-04-06T07:02:47.342Z</time></trkpt><trkpt lat="43.5562067" lon="10.7124017"><ele>46.25</ele><time>2026-04-06T07:02:48.337Z</time></trkpt><trkpt lat="43.5560917" lon="10.7124067"><ele>46.5</ele><time>2026-04-06T07:02:49.339Z</time></trkpt><trkpt lat="43.5559783" lon="10.7124117"><ele>46.75</ele><time>2026-04-06T07:02:50.336Z</time></trkpt><trkpt lat="43.5558667" lon="10.7124183"><ele>47.0</ele><time>2026-04-06T07:02:51.338Z</time></trkpt><trkpt lat="43.555755" lon="10.7124283"><ele>47.0</ele><time>2026-04-06T07:02:52.342Z</time></trkpt><trkpt lat="43.5556433" lon="10.7124367"><ele>47.0</ele><time>2026-04-06T07:02:53.342Z</time></trkpt><trkpt lat="43.5555317" lon="10.7124433"><ele>47.0</ele><time>2026-04-06T07:02:54.338Z</time></trkpt><trkpt lat="43.5554183" lon="10.7124467"><ele>47.0</ele><time>2026-04-06T07:02:55.336Z</time></trkpt><trkpt lat="43.5553033" lon="10.7124517"><ele>47.0</ele><time>2026-04-06T07:02:56.341Z</time></trkpt><trkpt lat="43.55519" lon="10.71246"><ele>47.0</ele><time>2026-04-06T07:02:57.34Z</time></trkpt><trkpt lat="43.5550767" lon="10.7124683"><ele>47.0</ele><time>2026-04-06T07:02:58.337Z</time></trkpt><trkpt lat="43.5549617" lon="10.7124767"><ele>47.0</ele><time>2026-04-06T07:02:59.338Z</time></trkpt><trkpt lat="43.5548467" lon="10.712485"><ele>47.0</ele><time>2026-04-06T07:03:00.339Z</time></trkpt><trkpt lat="43.55473" lon="10.7124933"><ele>47.0</ele><time>2026-04-06T07:03:01.339Z</time></trkpt><trkpt lat="43.5546133" lon="10.7125033"><ele>47.0</ele><time>2026-04-06T07:03:02.343Z</time></trkpt><trkpt lat="43.5544967" lon="10.7125133"><ele>47.0</ele><time>2026-04-06T07:03:03.338Z</time></trkpt><trkpt lat="43.5543783" lon="10.712525"><ele>47.0</ele><time>2026-04-06T07:03:04.336Z</time></trkpt><trkpt lat="43.55426" lon="10.7125333"><ele>47.0</ele><time>2026-04-06T07:03:05.34Z</time></trkpt><trkpt lat="43.55414" lon="10.71254"><ele>47.0</ele><time>2026-04-06T07:03:06.338Z</time></trkpt><trkpt lat="43.5540217" lon="10.712545"><ele>47.0</ele><time>2026-04-06T07:03:07.338Z</time></trkpt><trkpt lat="43.553905" lon="10.7125517"><ele>47.0</ele><time>2026-04-06T07:03:08.341Z</time></trkpt><trkpt lat="43.55379" lon="10.7125583"><ele>47.0</ele><time>2026-04-06T07:03:09.337Z</time></trkpt><trkpt lat="43.5536767" lon="10.7125633"><ele>47.0</ele><time>2026-04-06T07:03:10.336Z</time></trkpt><trkpt lat="43.5535633" lon="10.7125683"><ele>47.0</ele><time>2026-04-06T07:03:11.337Z</time></trkpt><trkpt lat="43.55345" lon="10.712575"><ele>47.0</ele><time>2026-04-06T07:03:12.335Z</time></trkpt><trkpt lat="43.553335" lon="10.71258"><ele>47.0</ele><time>2026-04-06T07:03:13.338Z</time></trkpt><trkpt lat="43.55322" lon="10.712585"><ele>47.0</ele><time>2026-04-06T07:03:14.339Z</time></trkpt><trkpt lat="43.553105" lon="10.71259"><ele>47.0</ele><time>2026-04-06T07:03:15.338Z</time></trkpt><trkpt lat="43.55299" lon="10.7125983"><ele>47.0</ele><time>2026-04-06T07:03:16.338Z</time></trkpt><trkpt lat="43.5528733" lon="10.71261"><ele>47.0</ele><time>2026-04-06T07:03:17.337Z</time></trkpt><trkpt lat="43.5527567" lon="10.7126217"><ele>47.0</ele><time>2026-04-06T07:03:18.336Z</time></trkpt><trkpt lat="43.5526383" lon="10.71264"><ele>47.0</ele><time>2026-04-06T07:03:19.338Z</time></trkpt><trkpt lat="43.5525217" lon="10.7126633"><ele>47.0</ele><time>2026-04-06T07:03:20.342Z</time></trkpt><trkpt lat="43.5524083" lon="10.7126983"><ele>47.0</ele><time>2026-04-06T07:03:21.338Z</time></trkpt><trkpt lat="43.5522933" lon="10.7127417"><ele>47.0</ele><time>2026-04-06T07:03:22.34Z</time></trkpt><trkpt lat="43.55218" lon="10.71279"><ele>47.0</ele><time>2026-04-06T07:03:23.339Z</time></trkpt><trkpt lat="43.552065" lon="10.71284"><ele>48.0</ele><time>2026-04-06T07:03:24.336Z</time></trkpt><trkpt lat="43.5519533" lon="10.7128917"><ele>49.0</ele><time>2026-04-06T07:03:25.336Z</time></trkpt><trkpt lat="43.5518433" lon="10.7129433"><ele>50.0</ele><time>2026-04-06T07:03:26.339Z</time></trkpt><trkpt lat="43.5517317" lon="10.7129983"><ele>51.0</ele><time>2026-04-06T07:03:27.336Z</time></trkpt><trkpt lat="43.55162" lon="10.7130533"><ele>51.0</ele><time>2026-04-06T07:03:28.338Z</time></trkpt><trkpt lat="43.5515083" lon="10.7131083"><ele>51.0</ele><time>2026-04-06T07:03:29.337Z</time></trkpt><trkpt lat="43.551395" lon="10.713165"><ele>51.0</ele><time>2026-04-06T07:03:30.336Z</time></trkpt><trkpt lat="43.5512833" lon="10.71322"><ele>51.0</ele><time>2026-04-06T07:03:31.339Z</time></trkpt><trkpt lat="43.5511683" lon="10.713275"><ele>51.25</ele><time>2026-04-06T07:03:32.336Z</time></trkpt><trkpt lat="43.5510567" lon="10.713325"><ele>51.5</ele><time>2026-04-06T07:03:33.337Z</time></trkpt><trkpt lat="43.5509467" lon="10.7133783"><ele>51.75</ele><time>2026-04-06T07:03:34.337Z</time></trkpt><trkpt lat="43.5508367" lon="10.71343"><ele>52.0</ele><time>2026-04-06T07:03:35.338Z</time></trkpt><trkpt lat="43.5507283" lon="10.7134783"><ele>52.0</ele><time>2026-04-06T07:03:36.342Z</time></trkpt><trkpt lat="43.550625" lon="10.7135283"><ele>52.0</ele><time>2026-04-06T07:03:37.338Z</time></trkpt><trkpt lat="43.5505233" lon="10.7135783"><ele>52.0</ele><time>2026-04-06T07:03:38.341Z</time></trkpt><trkpt lat="43.5504233" lon="10.71363"><ele>52.0</ele><time>2026-04-06T07:03:39.339Z</time></trkpt><trkpt lat="43.5503217" lon="10.7136767"><ele>52.0</ele><time>2026-04-06T07:03:40.34Z</time></trkpt><trkpt lat="43.5502217" lon="10.713725"><ele>52.8</ele><time>2026-04-06T07:03:41.338Z</time></trkpt><trkpt lat="43.55012" lon="10.713775"><ele>53.6</ele><time>2026-04-06T07:03:42.337Z</time></trkpt><trkpt lat="43.5500167" lon="10.713825"><ele>54.39999999999999</ele><time>2026-04-06T07:03:43.338Z</time></trkpt><trkpt lat="43.5499117" lon="10.7138767"><ele>55.199999999999996</ele><time>2026-04-06T07:03:44.339Z</time></trkpt><trkpt lat="43.549805" lon="10.7139267"><ele>56.0</ele><time>2026-04-06T07:03:45.337Z</time></trkpt><trkpt lat="43.549695" lon="10.7139733"><ele>56.0</ele><time>2026-04-06T07:03:46.336Z</time></trkpt><trkpt lat="43.5495817" lon="10.714015"><ele>56.0</ele><time>2026-04-06T07:03:47.337Z</time></trkpt><trkpt lat="43.5494683" lon="10.7140517"><ele>56.0</ele><time>2026-04-06T07:03:48.338Z</time></trkpt><trkpt lat="43.54935" lon="10.7140817"><ele>56.0</ele><time>2026-04-06T07:03:49.339Z</time></trkpt><trkpt lat="43.5492283" lon="10.7140967"><ele>55.75</ele><time>2026-04-06T07:03:50.341Z</time></trkpt><trkpt lat="43.5491083" lon="10.7140983"><ele>55.5</ele><time>2026-04-06T07:03:51.34Z</time></trkpt><trkpt lat="43.5489883" lon="10.714095"><ele>55.25</ele><time>2026-04-06T07:03:52.338Z</time></trkpt><trkpt lat="43.54887" lon="10.7140867"><ele>55.0</ele><time>2026-04-06T07:03:53.339Z</time></trkpt><trkpt lat="43.5487533" lon="10.7140767"><ele>54.5</ele><time>2026-04-06T07:03:54.339Z</time></trkpt><trkpt lat="43.5486383" lon="10.7140667"><ele>54.0</ele><time>2026-04-06T07:03:55.337Z</time></trkpt><trkpt lat="43.548525" lon="10.7140633"><ele>53.5</ele><time>2026-04-06T07:03:56.342Z</time></trkpt><trkpt lat="43.54841" lon="10.71406"><ele>53.0</ele><time>2026-04-06T07:03:57.339Z</time></trkpt><trkpt lat="43.5482933" lon="10.714065"><ele>53.0</ele><time>2026-04-06T07:03:58.337Z</time></trkpt><trkpt lat="43.54818" lon="10.7140767"><ele>53.0</ele><time>2026-04-06T07:03:59.336Z</time></trkpt><trkpt lat="43.5480617" lon="10.7140933"><ele>53.0</ele><time>2026-04-06T07:04:00.336Z</time></trkpt><trkpt lat="43.5479417" lon="10.7141133"><ele>53.0</ele><time>2026-04-06T07:04:01.335Z</time></trkpt><trkpt lat="43.5478233" lon="10.71413"><ele>53.0</ele><time>2026-04-06T07:04:02.335Z</time></trkpt><trkpt lat="43.5477067" lon="10.7141433"><ele>53.0</ele><time>2026-04-06T07:04:03.334Z</time></trkpt><trkpt lat="43.5475917" lon="10.7141633"><ele>53.0</ele><time>2026-04-06T07:04:04.337Z</time></trkpt><trkpt lat="43.5474783" lon="10.7141883"><ele>53.0</ele><time>2026-04-06T07:04:05.334Z</time></trkpt><trkpt lat="43.5473633" lon="10.7142167"><ele>53.0</ele><time>2026-04-06T07:04:06.333Z</time></trkpt><trkpt lat="43.5472483" lon="10.7142483"><ele>53.0</ele><time>2026-04-06T07:04:07.343Z</time></trkpt><trkpt lat="43.5471317" lon="10.7142817"><ele>53.0</ele><time>2026-04-06T07:04:08.341Z</time></trkpt><trkpt lat="43.5470183" lon="10.7143167"><ele>53.0</ele><time>2026-04-06T07:04:09.342Z</time></trkpt><trkpt lat="43.5469067" lon="10.7143533"><ele>52.75</ele><time>2026-04-06T07:04:10.338Z</time></trkpt><trkpt lat="43.5467967" lon="10.71439"><ele>52.5</ele><time>2026-04-06T07:04:11.338Z</time></trkpt><trkpt lat="43.5466883" lon="10.7144283"><ele>52.25</ele><time>2026-04-06T07:04:12.337Z</time></trkpt><trkpt lat="43.54658" lon="10.714465"><ele>52.0</ele><time>2026-04-06T07:04:13.339Z</time></trkpt><trkpt lat="43.54647" lon="10.714505"><ele>53.25</ele><time>2026-04-06T07:04:14.337Z</time></trkpt><trkpt lat="43.5463633" lon="10.7145483"><ele>54.5</ele><time>2026-04-06T07:04:15.338Z</time></trkpt><trkpt lat="43.546255" lon="10.7145917"><ele>55.75</ele><time>2026-04-06T07:04:16.337Z</time></trkpt><trkpt lat="43.5461467" lon="10.7146317"><ele>57.0</ele><time>2026-04-06T07:04:17.336Z</time></trkpt><trkpt lat="43.546035" lon="10.7146733"><ele>57.0</ele><time>2026-04-06T07:04:18.338Z</time></trkpt><trkpt lat="43.5459217" lon="10.714705"><ele>57.0</ele><time>2026-04-06T07:04:19.336Z</time></trkpt><trkpt lat="43.5458033" lon="10.7147267"><ele>57.0</ele><time>2026-04-06T07:04:20.338Z</time></trkpt><trkpt lat="43.545685" lon="10.7147317"><ele>57.0</ele><time>2026-04-06T07:04:21.337Z</time></trkpt><trkpt lat="43.5455667" lon="10.714725"><ele>57.0</ele><time>2026-04-06T07:04:22.348Z</time></trkpt><trkpt lat="43.545455" lon="10.7147217"><ele>57.0</ele><time>2026-04-06T07:04:23.335Z</time></trkpt><trkpt lat="43.5453517" lon="10.7147183"><ele>57.0</ele><time>2026-04-06T07:04:24.335Z</time></trkpt><trkpt lat="43.5452517" lon="10.7147167"><ele>57.0</ele><time>2026-04-06T07:04:25.339Z</time></trkpt><trkpt lat="43.5451583" lon="10.7147233"><ele>57.0</ele><time>2026-04-06T07:04:26.339Z</time></trkpt><trkpt lat="43.5450683" lon="10.7147367"><ele>57.0</ele><time>2026-04-06T07:04:27.338Z</time></trkpt><trkpt lat="43.544985" lon="10.714765"><ele>57.0</ele><time>2026-04-06T07:04:28.338Z</time></trkpt><trkpt lat="43.5449067" lon="10.7148"><ele>57.0</ele><time>2026-04-06T07:04:29.338Z</time></trkpt><trkpt lat="43.5448217" lon="10.7148383"><ele>57.0</ele><time>2026-04-06T07:04:30.335Z</time></trkpt><trkpt lat="43.5447283" lon="10.7148683"><ele>57.0</ele><time>2026-04-06T07:04:31.34Z</time></trkpt><trkpt lat="43.54463" lon="10.7148867"><ele>56.400000000000006</ele><time>2026-04-06T07:04:32.341Z</time></trkpt><trkpt lat="43.5445333" lon="10.7148917"><ele>55.800000000000004</ele><time>2026-04-06T07:04:33.334Z</time></trkpt><trkpt lat="43.54444" lon="10.7148917"><ele>55.2</ele><time>2026-04-06T07:04:34.333Z</time></trkpt><trkpt lat="43.5443433" lon="10.7148933"><ele>54.6</ele><time>2026-04-06T07:04:35.336Z</time></trkpt><trkpt lat="43.5442483" lon="10.7148917"><ele>54.0</ele><time>2026-04-06T07:04:36.335Z</time></trkpt><trkpt lat="43.544155" lon="10.71489"><ele>54.0</ele><time>2026-04-06T07:04:37.335Z</time></trkpt><trkpt lat="43.5440633" lon="10.7148867"><ele>54.0</ele><time>2026-04-06T07:04:38.338Z</time></trkpt><trkpt lat="43.54398" lon="10.71487"><ele>54.0</ele><time>2026-04-06T07:04:39.339Z</time></trkpt><trkpt lat="43.543895" lon="10.7148383"><ele>54.0</ele><time>2026-04-06T07:04:40.336Z</time></trkpt><trkpt lat="43.54382" lon="10.71478"><ele>54.0</ele><time>2026-04-06T07:04:41.337Z</time></trkpt><trkpt lat="43.5437567" lon="10.7146883"><ele>54.0</ele><time>2026-04-06T07:04:42.337Z</time></trkpt><trkpt lat="43.543715" lon="10.71457"><ele>52.666666666666664</ele><time>2026-04-06T07:04:43.336Z</time></trkpt><trkpt lat="43.543695" lon="10.71445"><ele>51.333333333333336</ele><time>2026-04-06T07:04:44.336Z</time></trkpt><trkpt lat="43.5436783" lon="10.7143317"><ele>50.0</ele><time>2026-04-06T07:04:45.343Z</time></trkpt><trkpt lat="43.54366" lon="10.7142183"><ele>48.66666666666667</ele><time>2026-04-06T07:04:46.339Z</time></trkpt><trkpt lat="43.543645" lon="10.7141"><ele>47.333333333333336</ele><time>2026-04-06T07:04:47.341Z</time></trkpt><trkpt lat="43.543635" lon="10.7139783"><ele>46.0</ele><time>2026-04-06T07:04:48.34Z</time></trkpt><trkpt lat="43.5436217" lon="10.713855"><ele>45.199999999999996</ele><time>2026-04-06T07:04:49.338Z</time></trkpt><trkpt lat="43.543605" lon="10.7137233"><ele>44.4</ele><time>2026-04-06T07:04:50.343Z</time></trkpt><trkpt lat="43.5435867" lon="10.7135867"><ele>43.6</ele><time>2026-04-06T07:04:51.343Z</time></trkpt><trkpt lat="43.5435683" lon="10.7134483"><ele>42.8</ele><time>2026-04-06T07:04:52.337Z</time></trkpt><trkpt lat="43.5435467" lon="10.7133083"><ele>42.0</ele><time>2026-04-06T07:04:53.346Z</time></trkpt><trkpt lat="43.5435267" lon="10.7131667"><ele>42.0</ele><time>2026-04-06T07:04:54.339Z</time></trkpt><trkpt lat="43.543505" lon="10.7130233"><ele>42.0</ele><time>2026-04-06T07:04:55.337Z</time></trkpt><trkpt lat="43.5434833" lon="10.7128767"><ele>42.0</ele><time>2026-04-06T07:04:56.339Z</time></trkpt><trkpt lat="43.5434617" lon="10.7127283"><ele>42.0</ele><time>2026-04-06T07:04:57.338Z</time></trkpt><trkpt lat="43.5434417" lon="10.7125767"><ele>42.0</ele><time>2026-04-06T07:04:58.335Z</time></trkpt><trkpt lat="43.5434183" lon="10.7124267"><ele>42.25</ele><time>2026-04-06T07:04:59.338Z</time></trkpt><trkpt lat="43.543395" lon="10.71227"><ele>42.5</ele><time>2026-04-06T07:05:00.337Z</time></trkpt><trkpt lat="43.543375" lon="10.7121133"><ele>42.75</ele><time>2026-04-06T07:05:01.336Z</time></trkpt><trkpt lat="43.5433567" lon="10.7119567"><ele>43.0</ele><time>2026-04-06T07:05:02.34Z</time></trkpt><trkpt lat="43.5433367" lon="10.7118033"><ele>43.0</ele><time>2026-04-06T07:05:03.338Z</time></trkpt><trkpt lat="43.5433167" lon="10.7116517"><ele>43.0</ele><time>2026-04-06T07:05:04.348Z</time></trkpt><trkpt lat="43.543295" lon="10.7115017"><ele>43.0</ele><time>2026-04-06T07:05:05.346Z</time></trkpt><trkpt lat="43.543275" lon="10.7113483"><ele>43.0</ele><time>2026-04-06T07:05:06.338Z</time></trkpt><trkpt lat="43.5432567" lon="10.7111983"><ele>43.0</ele><time>2026-04-06T07:05:07.339Z</time></trkpt><trkpt lat="43.5432383" lon="10.7110517"><ele>43.4</ele><time>2026-04-06T07:05:08.341Z</time></trkpt><trkpt lat="43.5432167" lon="10.7109017"><ele>43.8</ele><time>2026-04-06T07:05:09.335Z</time></trkpt><trkpt lat="43.5431983" lon="10.7107533"><ele>44.2</ele><time>2026-04-06T07:05:10.335Z</time></trkpt><trkpt lat="43.5431783" lon="10.710605"><ele>44.6</ele><time>2026-04-06T07:05:11.336Z</time></trkpt><trkpt lat="43.5431567" lon="10.71046"><ele>45.0</ele><time>2026-04-06T07:05:12.335Z</time></trkpt><trkpt lat="43.543135" lon="10.710315"><ele>45.6</ele><time>2026-04-06T07:05:13.337Z</time></trkpt><trkpt lat="43.543115" lon="10.7101717"><ele>46.2</ele><time>2026-04-06T07:05:14.341Z</time></trkpt><trkpt lat="43.543095" lon="10.7100233"><ele>46.8</ele><time>2026-04-06T07:05:15.341Z</time></trkpt><trkpt lat="43.5430733" lon="10.7098783"><ele>47.4</ele><time>2026-04-06T07:05:16.34Z</time></trkpt><trkpt lat="43.543055" lon="10.709735"><ele>48.0</ele><time>2026-04-06T07:05:17.339Z</time></trkpt><trkpt lat="43.543035" lon="10.7095867"><ele>48.0</ele><time>2026-04-06T07:05:18.34Z</time></trkpt><trkpt lat="43.5430133" lon="10.7094367"><ele>48.0</ele><time>2026-04-06T07:05:19.343Z</time></trkpt><trkpt lat="43.5429917" lon="10.7092883"><ele>48.0</ele><time>2026-04-06T07:05:20.34Z</time></trkpt><trkpt lat="43.54297" lon="10.70914"><ele>48.0</ele><time>2026-04-06T07:05:21.338Z</time></trkpt><trkpt lat="43.5429533" lon="10.7089917"><ele>48.0</ele><time>2026-04-06T07:05:22.341Z</time></trkpt><trkpt lat="43.54293" lon="10.70884"><ele>48.0</ele><time>2026-04-06T07:05:23.339Z</time></trkpt><trkpt lat="43.54291" lon="10.7086917"><ele>48.0</ele><time>2026-04-06T07:05:24.337Z</time></trkpt><trkpt lat="43.5428917" lon="10.7085483"><ele>48.0</ele><time>2026-04-06T07:05:25.338Z</time></trkpt><trkpt lat="43.54287" lon="10.7084"><ele>48.0</ele><time>2026-04-06T07:05:26.34Z</time></trkpt><trkpt lat="43.5428467" lon="10.7082583"><ele>48.0</ele><time>2026-04-06T07:05:27.344Z</time></trkpt><trkpt lat="43.5428233" lon="10.708115"><ele>48.0</ele><time>2026-04-06T07:05:28.337Z</time></trkpt><trkpt lat="43.5428067" lon="10.707975"><ele>48.0</ele><time>2026-04-06T07:05:29.338Z</time></trkpt><trkpt lat="43.5427833" lon="10.707835"><ele>48.0</ele><time>2026-04-06T07:05:30.339Z</time></trkpt><trkpt lat="43.5427617" lon="10.7076917"><ele>48.0</ele><time>2026-04-06T07:05:31.338Z</time></trkpt><trkpt lat="43.542745" lon="10.70755"><ele>48.0</ele><time>2026-04-06T07:05:32.339Z</time></trkpt><trkpt lat="43.5427267" lon="10.7074033"><ele>48.25</ele><time>2026-04-06T07:05:33.344Z</time></trkpt><trkpt lat="43.542705" lon="10.7072433"><ele>48.5</ele><time>2026-04-06T07:05:34.336Z</time></trkpt><trkpt lat="43.5426817" lon="10.7070883"><ele>48.75</ele><time>2026-04-06T07:05:35.341Z</time></trkpt><trkpt lat="43.5426617" lon="10.706935"><ele>49.0</ele><time>2026-04-06T07:05:36.34Z</time></trkpt><trkpt lat="43.5426417" lon="10.7067833"><ele>49.5</ele><time>2026-04-06T07:05:37.339Z</time></trkpt><trkpt lat="43.5426233" lon="10.7066233"><ele>50.0</ele><time>2026-04-06T07:05:38.34Z</time></trkpt><trkpt lat="43.542605" lon="10.70647"><ele>50.5</ele><time>2026-04-06T07:05:39.339Z</time></trkpt><trkpt lat="43.542585" lon="10.706315"><ele>51.0</ele><time>2026-04-06T07:05:40.335Z</time></trkpt><trkpt lat="43.5425633" lon="10.706155"><ele>50.75</ele><time>2026-04-06T07:05:41.338Z</time></trkpt><trkpt lat="43.5425417" lon="10.7059967"><ele>50.5</ele><time>2026-04-06T07:05:42.338Z</time></trkpt><trkpt lat="43.542525" lon="10.7058383"><ele>50.25</ele><time>2026-04-06T07:05:43.335Z</time></trkpt><trkpt lat="43.5425033" lon="10.7056833"><ele>50.0</ele><time>2026-04-06T07:05:44.34Z</time></trkpt><trkpt lat="43.5424817" lon="10.70553"><ele>50.0</ele><time>2026-04-06T07:05:45.337Z</time></trkpt><trkpt lat="43.5424617" lon="10.7053733"><ele>50.0</ele><time>2026-04-06T07:05:46.336Z</time></trkpt><trkpt lat="43.5424417" lon="10.7052167"><ele>50.0</ele><time>2026-04-06T07:05:47.338Z</time></trkpt><trkpt lat="43.54242" lon="10.7050567"><ele>50.0</ele><time>2026-04-06T07:05:48.335Z</time></trkpt><trkpt lat="43.5424" lon="10.7049033"><ele>49.75</ele><time>2026-04-06T07:05:49.337Z</time></trkpt><trkpt lat="43.5423767" lon="10.7047467"><ele>49.5</ele><time>2026-04-06T07:05:50.339Z</time></trkpt><trkpt lat="43.5423567" lon="10.70459"><ele>49.25</ele><time>2026-04-06T07:05:51.336Z</time></trkpt><trkpt lat="43.5423367" lon="10.704435"><ele>49.0</ele><time>2026-04-06T07:05:52.335Z</time></trkpt><trkpt lat="43.5423167" lon="10.7042817"><ele>49.400000000000006</ele><time>2026-04-06T07:05:53.336Z</time></trkpt><trkpt lat="43.542295" lon="10.7041317"><ele>49.8</ele><time>2026-04-06T07:05:54.336Z</time></trkpt><trkpt lat="43.5422733" lon="10.7039817"><ele>50.2</ele><time>2026-04-06T07:05:55.333Z</time></trkpt><trkpt lat="43.5422517" lon="10.7038317"><ele>50.599999999999994</ele><time>2026-04-06T07:05:56.335Z</time></trkpt><trkpt lat="43.5422317" lon="10.7036833"><ele>51.0</ele><time>2026-04-06T07:05:57.333Z</time></trkpt><trkpt lat="43.5422117" lon="10.7035367"><ele>51.0</ele><time>2026-04-06T07:05:58.337Z</time></trkpt><trkpt lat="43.5421917" lon="10.70339"><ele>51.0</ele><time>2026-04-06T07:05:59.338Z</time></trkpt><trkpt lat="43.5421717" lon="10.703245"><ele>51.0</ele><time>2026-04-06T07:06:00.337Z</time></trkpt><trkpt lat="43.54215" lon="10.7030983"><ele>51.0</ele><time>2026-04-06T07:06:01.34Z</time></trkpt><trkpt lat="43.54213" lon="10.70295"><ele>51.0</ele><time>2026-04-06T07:06:02.338Z</time></trkpt><trkpt lat="43.54211" lon="10.7028033"><ele>51.4</ele><time>2026-04-06T07:06:03.341Z</time></trkpt><trkpt lat="43.5420917" lon="10.702655"><ele>51.8</ele><time>2026-04-06T07:06:04.335Z</time></trkpt><trkpt lat="43.5420733" lon="10.7025133"><ele>52.199999999999996</ele><time>2026-04-06T07:06:05.338Z</time></trkpt><trkpt lat="43.542055" lon="10.7023783"><ele>52.599999999999994</ele><time>2026-04-06T07:06:06.338Z</time></trkpt><trkpt lat="43.54204" lon="10.7022467"><ele>53.0</ele><time>2026-04-06T07:06:07.338Z</time></trkpt><trkpt lat="43.5420217" lon="10.7021133"><ele>53.0</ele><time>2026-04-06T07:06:08.338Z</time></trkpt><trkpt lat="43.5420033" lon="10.7019783"><ele>53.0</ele><time>2026-04-06T07:06:09.336Z</time></trkpt><trkpt lat="43.541985" lon="10.701845"><ele>53.0</ele><time>2026-04-06T07:06:10.334Z</time></trkpt><trkpt lat="43.5419667" lon="10.7017117"><ele>53.0</ele><time>2026-04-06T07:06:11.336Z</time></trkpt><trkpt lat="43.5419467" lon="10.701575"><ele>53.0</ele><time>2026-04-06T07:06:12.335Z</time></trkpt><trkpt lat="43.541925" lon="10.7014383"><ele>53.16666666666667</ele><time>2026-04-06T07:06:13.338Z</time></trkpt><trkpt lat="43.5419083" lon="10.701315"><ele>53.333333333333336</ele><time>2026-04-06T07:06:14.343Z</time></trkpt><trkpt lat="43.5418933" lon="10.701195"><ele>53.5</ele><time>2026-04-06T07:06:15.339Z</time></trkpt><trkpt lat="43.54188" lon="10.7010833"><ele>53.66666666666667</ele><time>2026-04-06T07:06:16.336Z</time></trkpt><trkpt lat="43.5418683" lon="10.7009783"><ele>53.833333333333336</ele><time>2026-04-06T07:06:17.334Z</time></trkpt><trkpt lat="43.5418583" lon="10.70088"><ele>54.0</ele><time>2026-04-06T07:06:18.338Z</time></trkpt><trkpt lat="43.541845" lon="10.7007867"><ele>54.333333333333336</ele><time>2026-04-06T07:06:19.338Z</time></trkpt><trkpt lat="43.5418317" lon="10.7006933"><ele>54.66666666666667</ele><time>2026-04-06T07:06:20.338Z</time></trkpt><trkpt lat="43.54182" lon="10.7006067"><ele>55.0</ele><time>2026-04-06T07:06:21.344Z</time></trkpt><trkpt lat="43.5418" lon="10.7004483"><ele>55.333333333333336</ele><time>2026-04-06T07:06:23.343Z</time></trkpt><trkpt lat="43.5418017" lon="10.7003067"><ele>55.66666666666667</ele><time>2026-04-06T07:06:25.336Z</time></trkpt><trkpt lat="43.5418167" lon="10.700185"><ele>56.0</ele><time>2026-04-06T07:06:27.335Z</time></trkpt><trkpt lat="43.54181" lon="10.70006"><ele>56.00000000000001</ele><time>2026-04-06T07:06:29.339Z</time></trkpt><trkpt lat="43.5417483" lon="10.6999667"><ele>56.0</ele><time>2026-04-06T07:06:31.343Z</time></trkpt><trkpt lat="43.5416533" lon="10.69997"><ele>56.0</ele><time>2026-04-06T07:06:33.338Z</time></trkpt><trkpt lat="43.54154" lon="10.7000167"><ele>56.0</ele><time>2026-04-06T07:06:35.339Z</time></trkpt><trkpt lat="43.5414767" lon="10.7000217"><ele>56.00000000000001</ele><time>2026-04-06T07:06:36.338Z</time></trkpt><trkpt lat="43.54141" lon="10.7000367"><ele>56.0</ele><time>2026-04-06T07:06:37.338Z</time></trkpt><trkpt lat="43.54134" lon="10.70005"><ele>56.00000000000001</ele><time>2026-04-06T07:06:38.338Z</time></trkpt><trkpt lat="43.5412667" lon="10.7000667"><ele>56.0</ele><time>2026-04-06T07:06:39.338Z</time></trkpt><trkpt lat="43.54119" lon="10.7000867"><ele>56.0</ele><time>2026-04-06T07:06:40.338Z</time></trkpt><trkpt lat="43.54111" lon="10.7001067"><ele>56.0</ele><time>2026-04-06T07:06:41.336Z</time></trkpt><trkpt lat="43.5410283" lon="10.700125"><ele>56.00000000000001</ele><time>2026-04-06T07:06:42.338Z</time></trkpt><trkpt lat="43.5409483" lon="10.7001317"><ele>56.0</ele><time>2026-04-06T07:06:43.339Z</time></trkpt><trkpt lat="43.5408683" lon="10.700135"><ele>56.333333333333336</ele><time>2026-04-06T07:06:44.336Z</time></trkpt><trkpt lat="43.5407883" lon="10.7001383"><ele>56.66666666666667</ele><time>2026-04-06T07:06:45.338Z</time></trkpt><trkpt lat="43.540705" lon="10.7001517"><ele>57.0</ele><time>2026-04-06T07:06:46.337Z</time></trkpt><trkpt lat="43.5406233" lon="10.7001667"><ele>57.33333333333333</ele><time>2026-04-06T07:06:47.336Z</time></trkpt><trkpt lat="43.5405417" lon="10.7001783"><ele>57.666666666666664</ele><time>2026-04-06T07:06:48.339Z</time></trkpt><trkpt lat="43.540455" lon="10.70019"><ele>58.0</ele><time>2026-04-06T07:06:49.336Z</time></trkpt><trkpt lat="43.54037" lon="10.7002017"><ele>58.2</ele><time>2026-04-06T07:06:50.338Z</time></trkpt><trkpt lat="43.5402817" lon="10.7002117"><ele>58.4</ele><time>2026-04-06T07:06:51.338Z</time></trkpt><trkpt lat="43.5401933" lon="10.7002233"><ele>58.60000000000001</ele><time>2026-04-06T07:06:52.337Z</time></trkpt><trkpt lat="43.5401033" lon="10.700235"><ele>58.800000000000004</ele><time>2026-04-06T07:06:53.337Z</time></trkpt><trkpt lat="43.5400133" lon="10.7002467"><ele>59.0</ele><time>2026-04-06T07:06:54.34Z</time></trkpt><trkpt lat="43.5399217" lon="10.70026"><ele>58.6</ele><time>2026-04-06T07:06:55.337Z</time></trkpt><trkpt lat="43.5398267" lon="10.700275"><ele>58.2</ele><time>2026-04-06T07:06:56.342Z</time></trkpt><trkpt lat="43.53973" lon="10.7002867"><ele>57.800000000000004</ele><time>2026-04-06T07:06:57.343Z</time></trkpt><trkpt lat="43.5396333" lon="10.7003"><ele>57.400000000000006</ele><time>2026-04-06T07:06:58.338Z</time></trkpt><trkpt lat="43.5395367" lon="10.7003133"><ele>57.0</ele><time>2026-04-06T07:06:59.337Z</time></trkpt><trkpt lat="43.539435" lon="10.7003233"><ele>56.8</ele><time>2026-04-06T07:07:00.339Z</time></trkpt><trkpt lat="43.539335" lon="10.700335"><ele>56.6</ele><time>2026-04-06T07:07:01.341Z</time></trkpt><trkpt lat="43.5392333" lon="10.70035"><ele>56.39999999999999</ele><time>2026-04-06T07:07:02.341Z</time></trkpt><trkpt lat="43.53913" lon="10.700365"><ele>56.199999999999996</ele><time>2026-04-06T07:07:03.336Z</time></trkpt><trkpt lat="43.5390267" lon="10.7003783"><ele>56.0</ele><time>2026-04-06T07:07:04.338Z</time></trkpt><trkpt lat="43.53892" lon="10.7003917"><ele>56.0</ele><time>2026-04-06T07:07:05.338Z</time></trkpt><trkpt lat="43.538815" lon="10.7004067"><ele>55.99999999999999</ele><time>2026-04-06T07:07:06.339Z</time></trkpt><trkpt lat="43.5387083" lon="10.70042"><ele>55.99999999999999</ele><time>2026-04-06T07:07:07.34Z</time></trkpt><trkpt lat="43.5386017" lon="10.700435"><ele>56.0</ele><time>2026-04-06T07:07:08.341Z</time></trkpt><trkpt lat="43.538495" lon="10.70045"><ele>56.0</ele><time>2026-04-06T07:07:09.339Z</time></trkpt><trkpt lat="43.53839" lon="10.700465"><ele>56.199999999999996</ele><time>2026-04-06T07:07:10.338Z</time></trkpt><trkpt lat="43.5382833" lon="10.7004783"><ele>56.39999999999999</ele><time>2026-04-06T07:07:11.339Z</time></trkpt><trkpt lat="43.5381767" lon="10.7004933"><ele>56.6</ele><time>2026-04-06T07:07:12.336Z</time></trkpt><trkpt lat="43.5380683" lon="10.7005067"><ele>56.8</ele><time>2026-04-06T07:07:13.339Z</time></trkpt><trkpt lat="43.53796" lon="10.7005233"><ele>57.0</ele><time>2026-04-06T07:07:14.339Z</time></trkpt><trkpt lat="43.5378533" lon="10.70054"><ele>57.0</ele><time>2026-04-06T07:07:15.337Z</time></trkpt><trkpt lat="43.537745" lon="10.7005567"><ele>57.0</ele><time>2026-04-06T07:07:16.336Z</time></trkpt><trkpt lat="43.53764" lon="10.7005733"><ele>57.0</ele><time>2026-04-06T07:07:17.337Z</time></trkpt><trkpt lat="43.5375333" lon="10.7005883"><ele>57.0</ele><time>2026-04-06T07:07:18.338Z</time></trkpt><trkpt lat="43.5374267" lon="10.7006067"><ele>57.0</ele><time>2026-04-06T07:07:19.336Z</time></trkpt><trkpt lat="43.5373217" lon="10.7006233"><ele>57.0</ele><time>2026-04-06T07:07:20.34Z</time></trkpt><trkpt lat="43.537215" lon="10.700645"><ele>57.0</ele><time>2026-04-06T07:07:21.338Z</time></trkpt><trkpt lat="43.5371083" lon="10.70067"><ele>57.0</ele><time>2026-04-06T07:07:22.337Z</time></trkpt><trkpt lat="43.5370017" lon="10.7006933"><ele>57.0</ele><time>2026-04-06T07:07:23.341Z</time></trkpt><trkpt lat="43.536895" lon="10.700715"><ele>57.0</ele><time>2026-04-06T07:07:24.34Z</time></trkpt><trkpt lat="43.5367917" lon="10.700735"><ele>56.6</ele><time>2026-04-06T07:07:25.339Z</time></trkpt><trkpt lat="43.5366867" lon="10.7007567"><ele>56.2</ele><time>2026-04-06T07:07:26.337Z</time></trkpt><trkpt lat="43.5365817" lon="10.7007833"><ele>55.8</ele><time>2026-04-06T07:07:27.343Z</time></trkpt><trkpt lat="43.5364767" lon="10.7008067"><ele>55.4</ele><time>2026-04-06T07:07:28.337Z</time></trkpt><trkpt lat="43.5363717" lon="10.7008283"><ele>55.0</ele><time>2026-04-06T07:07:29.338Z</time></trkpt><trkpt lat="43.536265" lon="10.70085"><ele>55.4</ele><time>2026-04-06T07:07:30.336Z</time></trkpt><trkpt lat="43.53616" lon="10.7008717"><ele>55.8</ele><time>2026-04-06T07:07:31.338Z</time></trkpt><trkpt lat="43.5360533" lon="10.7008933"><ele>56.2</ele><time>2026-04-06T07:07:32.339Z</time></trkpt><trkpt lat="43.5359467" lon="10.7009167"><ele>56.6</ele><time>2026-04-06T07:07:33.347Z</time></trkpt><trkpt lat="43.5358417" lon="10.70094"><ele>57.0</ele><time>2026-04-06T07:07:34.337Z</time></trkpt><trkpt lat="43.5357367" lon="10.7009617"><ele>57.0</ele><time>2026-04-06T07:07:35.335Z</time></trkpt><trkpt lat="43.53563" lon="10.7009817"><ele>57.0</ele><time>2026-04-06T07:07:36.337Z</time></trkpt><trkpt lat="43.5355233" lon="10.7010017"><ele>57.0</ele><time>2026-04-06T07:07:37.337Z</time></trkpt><trkpt lat="43.5354167" lon="10.701025"><ele>57.0</ele><time>2026-04-06T07:07:38.339Z</time></trkpt><trkpt lat="43.5353067" lon="10.7010483"><ele>57.0</ele><time>2026-04-06T07:07:39.337Z</time></trkpt><trkpt lat="43.535195" lon="10.70107"><ele>56.75</ele><time>2026-04-06T07:07:40.336Z</time></trkpt><trkpt lat="43.535085" lon="10.7010933"><ele>56.5</ele><time>2026-04-06T07:07:41.338Z</time></trkpt><trkpt lat="43.5349767" lon="10.7011167"><ele>56.25</ele><time>2026-04-06T07:07:42.337Z</time></trkpt><trkpt lat="43.5348667" lon="10.70114"><ele>56.0</ele><time>2026-04-06T07:07:43.339Z</time></trkpt><trkpt lat="43.5346467" lon="10.701185"><ele>56.5</ele><time>2026-04-06T07:07:45.34Z</time></trkpt><trkpt lat="43.534535" lon="10.7012083"><ele>57.0</ele><time>2026-04-06T07:07:46.337Z</time></trkpt><trkpt lat="43.5344233" lon="10.7012267"><ele>57.5</ele><time>2026-04-06T07:07:47.337Z</time></trkpt><trkpt lat="43.5343133" lon="10.7012467"><ele>58.0</ele><time>2026-04-06T07:07:48.341Z</time></trkpt><trkpt lat="43.5342" lon="10.70127"><ele>58.0</ele><time>2026-04-06T07:07:49.339Z</time></trkpt><trkpt lat="43.5340883" lon="10.7012967"><ele>58.0</ele><time>2026-04-06T07:07:50.339Z</time></trkpt><trkpt lat="43.533975" lon="10.7013183"><ele>58.0</ele><time>2026-04-06T07:07:51.339Z</time></trkpt><trkpt lat="43.5338633" lon="10.7013433"><ele>58.0</ele><time>2026-04-06T07:07:52.339Z</time></trkpt><trkpt lat="43.5337517" lon="10.701365"><ele>57.5</ele><time>2026-04-06T07:07:53.339Z</time></trkpt><trkpt lat="43.5336417" lon="10.7013883"><ele>57.0</ele><time>2026-04-06T07:07:54.339Z</time></trkpt><trkpt lat="43.53353" lon="10.7014083"><ele>56.5</ele><time>2026-04-06T07:07:55.338Z</time></trkpt><trkpt lat="43.5334183" lon="10.701435"><ele>56.0</ele><time>2026-04-06T07:07:56.338Z</time></trkpt><trkpt lat="43.533305" lon="10.70146"><ele>56.0</ele><time>2026-04-06T07:07:57.337Z</time></trkpt><trkpt lat="43.5331917" lon="10.7014867"><ele>56.0</ele><time>2026-04-06T07:07:58.336Z</time></trkpt><trkpt lat="43.5330783" lon="10.70151"><ele>56.0</ele><time>2026-04-06T07:07:59.341Z</time></trkpt><trkpt lat="43.532965" lon="10.70153"><ele>56.0</ele><time>2026-04-06T07:08:00.34Z</time></trkpt><trkpt lat="43.5328533" lon="10.70155"><ele>55.75</ele><time>2026-04-06T07:08:01.337Z</time></trkpt><trkpt lat="43.5327383" lon="10.7015733"><ele>55.5</ele><time>2026-04-06T07:08:02.339Z</time></trkpt><trkpt lat="43.5326233" lon="10.7015967"><ele>55.25</ele><time>2026-04-06T07:08:03.335Z</time></trkpt><trkpt lat="43.5325067" lon="10.7016233"><ele>55.0</ele><time>2026-04-06T07:08:04.344Z</time></trkpt><trkpt lat="43.5323917" lon="10.701645"><ele>55.0</ele><time>2026-04-06T07:08:05.344Z</time></trkpt><trkpt lat="43.5322783" lon="10.7016667"><ele>55.0</ele><time>2026-04-06T07:08:06.34Z</time></trkpt><trkpt lat="43.5321633" lon="10.7016883"><ele>55.0</ele><time>2026-04-06T07:08:07.338Z</time></trkpt><trkpt lat="43.53205" lon="10.7017133"><ele>55.0</ele><time>2026-04-06T07:08:08.339Z</time></trkpt><trkpt lat="43.5319367" lon="10.7017367"><ele>55.0</ele><time>2026-04-06T07:08:09.338Z</time></trkpt><trkpt lat="43.531825" lon="10.7017583"><ele>55.0</ele><time>2026-04-06T07:08:10.337Z</time></trkpt><trkpt lat="43.5317117" lon="10.7017817"><ele>55.0</ele><time>2026-04-06T07:08:11.335Z</time></trkpt><trkpt lat="43.5316" lon="10.7018033"><ele>55.0</ele><time>2026-04-06T07:08:12.336Z</time></trkpt><trkpt lat="43.53149" lon="10.7018267"><ele>55.0</ele><time>2026-04-06T07:08:13.337Z</time></trkpt><trkpt lat="43.5313817" lon="10.7018533"><ele>55.0</ele><time>2026-04-06T07:08:14.343Z</time></trkpt><trkpt lat="43.5312733" lon="10.701875"><ele>55.0</ele><time>2026-04-06T07:08:15.341Z</time></trkpt><trkpt lat="43.5311633" lon="10.7018933"><ele>55.0</ele><time>2026-04-06T07:08:16.344Z</time></trkpt><trkpt lat="43.531055" lon="10.70191"><ele>55.0</ele><time>2026-04-06T07:08:17.34Z</time></trkpt><trkpt lat="43.5309467" lon="10.7019267"><ele>55.0</ele><time>2026-04-06T07:08:18.337Z</time></trkpt><trkpt lat="43.5308367" lon="10.70194"><ele>55.0</ele><time>2026-04-06T07:08:19.335Z</time></trkpt><trkpt lat="43.5307283" lon="10.701955"><ele>55.0</ele><time>2026-04-06T07:08:20.341Z</time></trkpt><trkpt lat="43.5306217" lon="10.70197"><ele>55.0</ele><time>2026-04-06T07:08:21.339Z</time></trkpt><trkpt lat="43.5305133" lon="10.7019833"><ele>55.0</ele><time>2026-04-06T07:08:22.338Z</time></trkpt><trkpt lat="43.5304067" lon="10.7019967"><ele>54.8</ele><time>2026-04-06T07:08:23.339Z</time></trkpt><trkpt lat="43.5303" lon="10.7020083"><ele>54.6</ele><time>2026-04-06T07:08:24.337Z</time></trkpt><trkpt lat="43.53019" lon="10.7020217"><ele>54.400000000000006</ele><time>2026-04-06T07:08:25.336Z</time></trkpt><trkpt lat="43.5300817" lon="10.702035"><ele>54.2</ele><time>2026-04-06T07:08:26.338Z</time></trkpt><trkpt lat="43.52997" lon="10.7020483"><ele>54.0</ele><time>2026-04-06T07:08:27.339Z</time></trkpt><trkpt lat="43.52986" lon="10.7020617"><ele>54.0</ele><time>2026-04-06T07:08:28.339Z</time></trkpt><trkpt lat="43.52975" lon="10.7020767"><ele>54.00000000000001</ele><time>2026-04-06T07:08:29.34Z</time></trkpt><trkpt lat="43.5296383" lon="10.7020933"><ele>54.00000000000001</ele><time>2026-04-06T07:08:30.339Z</time></trkpt><trkpt lat="43.5295283" lon="10.7021083"><ele>54.0</ele><time>2026-04-06T07:08:31.34Z</time></trkpt><trkpt lat="43.5294183" lon="10.7021217"><ele>54.0</ele><time>2026-04-06T07:08:32.342Z</time></trkpt><trkpt lat="43.5293083" lon="10.7021367"><ele>54.2</ele><time>2026-04-06T07:08:33.339Z</time></trkpt><trkpt lat="43.5291967" lon="10.7021483"><ele>54.400000000000006</ele><time>2026-04-06T07:08:34.337Z</time></trkpt><trkpt lat="43.5290867" lon="10.7021583"><ele>54.6</ele><time>2026-04-06T07:08:35.338Z</time></trkpt><trkpt lat="43.528975" lon="10.7021667"><ele>54.8</ele><time>2026-04-06T07:08:36.339Z</time></trkpt><trkpt lat="43.5288617" lon="10.7021733"><ele>55.0</ele><time>2026-04-06T07:08:37.341Z</time></trkpt><trkpt lat="43.52875" lon="10.70218"><ele>55.75</ele><time>2026-04-06T07:08:38.339Z</time></trkpt><trkpt lat="43.528635" lon="10.7021867"><ele>56.5</ele><time>2026-04-06T07:08:39.339Z</time></trkpt><trkpt lat="43.5285233" lon="10.7021933"><ele>57.25</ele><time>2026-04-06T07:08:40.337Z</time></trkpt><trkpt lat="43.5284117" lon="10.7021983"><ele>58.0</ele><time>2026-04-06T07:08:41.338Z</time></trkpt><trkpt lat="43.5282983" lon="10.7022033"><ele>58.0</ele><time>2026-04-06T07:08:42.34Z</time></trkpt><trkpt lat="43.528185" lon="10.7022083"><ele>58.0</ele><time>2026-04-06T07:08:43.339Z</time></trkpt><trkpt lat="43.5280733" lon="10.7022117"><ele>58.0</ele><time>2026-04-06T07:08:44.35Z</time></trkpt><trkpt lat="43.52796" lon="10.702215"><ele>58.0</ele><time>2026-04-06T07:08:45.336Z</time></trkpt><trkpt lat="43.52785" lon="10.7022183"><ele>58.0</ele><time>2026-04-06T07:08:46.339Z</time></trkpt><trkpt lat="43.5277367" lon="10.70222"><ele>57.599999999999994</ele><time>2026-04-06T07:08:47.337Z</time></trkpt><trkpt lat="43.527625" lon="10.7022217"><ele>57.199999999999996</ele><time>2026-04-06T07:08:48.337Z</time></trkpt><trkpt lat="43.5275133" lon="10.702225"><ele>56.8</ele><time>2026-04-06T07:08:49.336Z</time></trkpt><trkpt lat="43.5274" lon="10.70223"><ele>56.4</ele><time>2026-04-06T07:08:50.339Z</time></trkpt><trkpt lat="43.5272883" lon="10.7022317"><ele>56.0</ele><time>2026-04-06T07:08:51.337Z</time></trkpt><trkpt lat="43.5271783" lon="10.702235"><ele>56.0</ele><time>2026-04-06T07:08:52.337Z</time></trkpt><trkpt lat="43.5270683" lon="10.7022383"><ele>55.99999999999999</ele><time>2026-04-06T07:08:53.338Z</time></trkpt><trkpt lat="43.5269567" lon="10.7022433"><ele>55.99999999999999</ele><time>2026-04-06T07:08:54.337Z</time></trkpt><trkpt lat="43.526845" lon="10.7022533"><ele>56.0</ele><time>2026-04-06T07:08:55.337Z</time></trkpt><trkpt lat="43.526735" lon="10.7022667"><ele>56.0</ele><time>2026-04-06T07:08:56.339Z</time></trkpt><trkpt lat="43.526625" lon="10.7022933"><ele>56.0</ele><time>2026-04-06T07:08:57.337Z</time></trkpt><trkpt lat="43.5265183" lon="10.702335"><ele>55.99999999999999</ele><time>2026-04-06T07:08:58.343Z</time></trkpt><trkpt lat="43.5264117" lon="10.70239"><ele>55.99999999999999</ele><time>2026-04-06T07:08:59.339Z</time></trkpt><trkpt lat="43.52631" lon="10.7024583"><ele>56.0</ele><time>2026-04-06T07:09:00.337Z</time></trkpt><trkpt lat="43.5262133" lon="10.702535"><ele>56.0</ele><time>2026-04-06T07:09:01.339Z</time></trkpt><trkpt lat="43.526115" lon="10.7026167"><ele>56.25</ele><time>2026-04-06T07:09:02.339Z</time></trkpt><trkpt lat="43.526015" lon="10.702695"><ele>56.5</ele><time>2026-04-06T07:09:03.335Z</time></trkpt><trkpt lat="43.525915" lon="10.7027767"><ele>56.75</ele><time>2026-04-06T07:09:04.338Z</time></trkpt><trkpt lat="43.52582" lon="10.7028617"><ele>57.0</ele><time>2026-04-06T07:09:05.339Z</time></trkpt><trkpt lat="43.5257267" lon="10.7029483"><ele>56.5</ele><time>2026-04-06T07:09:06.338Z</time></trkpt><trkpt lat="43.52563" lon="10.703035"><ele>56.0</ele><time>2026-04-06T07:09:07.339Z</time></trkpt><trkpt lat="43.5255317" lon="10.703115"><ele>55.5</ele><time>2026-04-06T07:09:08.339Z</time></trkpt><trkpt lat="43.525435" lon="10.7031983"><ele>55.0</ele><time>2026-04-06T07:09:09.339Z</time></trkpt><trkpt lat="43.5253367" lon="10.7032783"><ele>54.5</ele><time>2026-04-06T07:09:10.34Z</time></trkpt><trkpt lat="43.5252367" lon="10.7033617"><ele>54.0</ele><time>2026-04-06T07:09:11.34Z</time></trkpt><trkpt lat="43.5251367" lon="10.7034483"><ele>53.5</ele><time>2026-04-06T07:09:12.337Z</time></trkpt><trkpt lat="43.525035" lon="10.703535"><ele>53.0</ele><time>2026-04-06T07:09:13.34Z</time></trkpt><trkpt lat="43.5249367" lon="10.7036183"><ele>53.0</ele><time>2026-04-06T07:09:14.339Z</time></trkpt><trkpt lat="43.5248383" lon="10.703705"><ele>53.0</ele><time>2026-04-06T07:09:15.337Z</time></trkpt><trkpt lat="43.5247367" lon="10.7037933"><ele>53.0</ele><time>2026-04-06T07:09:16.339Z</time></trkpt><trkpt lat="43.5246367" lon="10.7038817"><ele>53.0</ele><time>2026-04-06T07:09:17.338Z</time></trkpt><trkpt lat="43.5245383" lon="10.7039683"><ele>53.5</ele><time>2026-04-06T07:09:18.336Z</time></trkpt><trkpt lat="43.52444" lon="10.7040567"><ele>54.0</ele><time>2026-04-06T07:09:19.338Z</time></trkpt><trkpt lat="43.5243417" lon="10.7041417"><ele>54.5</ele><time>2026-04-06T07:09:20.338Z</time></trkpt><trkpt lat="43.524245" lon="10.7042267"><ele>55.0</ele><time>2026-04-06T07:09:21.337Z</time></trkpt><trkpt lat="43.5241483" lon="10.7043117"><ele>55.0</ele><time>2026-04-06T07:09:22.339Z</time></trkpt><trkpt lat="43.5240483" lon="10.7043933"><ele>55.0</ele><time>2026-04-06T07:09:23.339Z</time></trkpt><trkpt lat="43.5239517" lon="10.704475"><ele>55.0</ele><time>2026-04-06T07:09:24.337Z</time></trkpt><trkpt lat="43.523855" lon="10.70456"><ele>55.0</ele><time>2026-04-06T07:09:25.338Z</time></trkpt><trkpt lat="43.5237583" lon="10.7046433"><ele>55.25</ele><time>2026-04-06T07:09:26.338Z</time></trkpt><trkpt lat="43.523665" lon="10.7047267"><ele>55.5</ele><time>2026-04-06T07:09:27.336Z</time></trkpt><trkpt lat="43.5235683" lon="10.70481"><ele>55.75</ele><time>2026-04-06T07:09:28.337Z</time></trkpt><trkpt lat="43.5234733" lon="10.704895"><ele>56.0</ele><time>2026-04-06T07:09:29.337Z</time></trkpt><trkpt lat="43.5233767" lon="10.70498"><ele>56.0</ele><time>2026-04-06T07:09:30.335Z</time></trkpt><trkpt lat="43.5232817" lon="10.7050633"><ele>56.0</ele><time>2026-04-06T07:09:31.337Z</time></trkpt><trkpt lat="43.523185" lon="10.7051483"><ele>56.0</ele><time>2026-04-06T07:09:32.336Z</time></trkpt><trkpt lat="43.5230883" lon="10.7052317"><ele>56.0</ele><time>2026-04-06T07:09:33.338Z</time></trkpt><trkpt lat="43.5229917" lon="10.7053133"><ele>56.25</ele><time>2026-04-06T07:09:34.336Z</time></trkpt><trkpt lat="43.5228933" lon="10.7053967"><ele>56.5</ele><time>2026-04-06T07:09:35.336Z</time></trkpt><trkpt lat="43.5227967" lon="10.70548"><ele>56.75</ele><time>2026-04-06T07:09:36.335Z</time></trkpt><trkpt lat="43.5227" lon="10.705565"><ele>57.0</ele><time>2026-04-06T07:09:37.336Z</time></trkpt><trkpt lat="43.522605" lon="10.7056517"><ele>57.0</ele><time>2026-04-06T07:09:38.336Z</time></trkpt><trkpt lat="43.5225083" lon="10.705735"><ele>57.0</ele><time>2026-04-06T07:09:39.337Z</time></trkpt><trkpt lat="43.5224133" lon="10.70582"><ele>57.0</ele><time>2026-04-06T07:09:40.335Z</time></trkpt><trkpt lat="43.5223183" lon="10.7059033"><ele>57.0</ele><time>2026-04-06T07:09:41.338Z</time></trkpt><trkpt lat="43.522225" lon="10.705985"><ele>57.0</ele><time>2026-04-06T07:09:42.337Z</time></trkpt><trkpt lat="43.5221317" lon="10.7060667"><ele>57.0</ele><time>2026-04-06T07:09:43.34Z</time></trkpt><trkpt lat="43.5220367" lon="10.7061467"><ele>57.0</ele><time>2026-04-06T07:09:44.338Z</time></trkpt><trkpt lat="43.521945" lon="10.7062283"><ele>57.0</ele><time>2026-04-06T07:09:45.337Z</time></trkpt><trkpt lat="43.5218517" lon="10.7063117"><ele>57.0</ele><time>2026-04-06T07:09:46.336Z</time></trkpt><trkpt lat="43.5217567" lon="10.7063967"><ele>57.0</ele><time>2026-04-06T07:09:47.34Z</time></trkpt><trkpt lat="43.521665" lon="10.7064817"><ele>57.0</ele><time>2026-04-06T07:09:48.342Z</time></trkpt><trkpt lat="43.5215733" lon="10.7065683"><ele>57.0</ele><time>2026-04-06T07:09:49.339Z</time></trkpt><trkpt lat="43.5214833" lon="10.7066567"><ele>57.0</ele><time>2026-04-06T07:09:50.34Z</time></trkpt><trkpt lat="43.521395" lon="10.70675"><ele>57.0</ele><time>2026-04-06T07:09:51.339Z</time></trkpt><trkpt lat="43.5213083" lon="10.7068467"><ele>56.8</ele><time>2026-04-06T07:09:52.338Z</time></trkpt><trkpt lat="43.5212233" lon="10.7069467"><ele>56.6</ele><time>2026-04-06T07:09:53.339Z</time></trkpt><trkpt lat="43.5211367" lon="10.707045"><ele>56.39999999999999</ele><time>2026-04-06T07:09:54.339Z</time></trkpt><trkpt lat="43.5210517" lon="10.7071417"><ele>56.199999999999996</ele><time>2026-04-06T07:09:55.338Z</time></trkpt><trkpt lat="43.5209667" lon="10.70724"><ele>56.0</ele><time>2026-04-06T07:09:56.339Z</time></trkpt><trkpt lat="43.52088" lon="10.7073383"><ele>56.0</ele><time>2026-04-06T07:09:57.338Z</time></trkpt><trkpt lat="43.520795" lon="10.7074383"><ele>56.0</ele><time>2026-04-06T07:09:58.336Z</time></trkpt><trkpt lat="43.5207083" lon="10.7075367"><ele>56.0</ele><time>2026-04-06T07:09:59.336Z</time></trkpt><trkpt lat="43.52062" lon="10.707635"><ele>56.0</ele><time>2026-04-06T07:10:00.336Z</time></trkpt><trkpt lat="43.5205333" lon="10.7077383"><ele>56.0</ele><time>2026-04-06T07:10:01.338Z</time></trkpt><trkpt lat="43.5204467" lon="10.7078467"><ele>56.0</ele><time>2026-04-06T07:10:02.338Z</time></trkpt><trkpt lat="43.5203633" lon="10.7079617"><ele>56.0</ele><time>2026-04-06T07:10:03.34Z</time></trkpt><trkpt lat="43.520285" lon="10.7080767"><ele>56.0</ele><time>2026-04-06T07:10:04.337Z</time></trkpt><trkpt lat="43.5202083" lon="10.708195"><ele>56.25</ele><time>2026-04-06T07:10:05.338Z</time></trkpt><trkpt lat="43.520135" lon="10.708315"><ele>56.5</ele><time>2026-04-06T07:10:06.339Z</time></trkpt><trkpt lat="43.5200633" lon="10.7084383"><ele>56.75</ele><time>2026-04-06T07:10:07.337Z</time></trkpt><trkpt lat="43.519995" lon="10.7085633"><ele>57.0</ele><time>2026-04-06T07:10:08.339Z</time></trkpt><trkpt lat="43.5199267" lon="10.7086867"><ele>57.2</ele><time>2026-04-06T07:10:09.338Z</time></trkpt><trkpt lat="43.51986" lon="10.7088083"><ele>57.400000000000006</ele><time>2026-04-06T07:10:10.339Z</time></trkpt><trkpt lat="43.519795" lon="10.7089283"><ele>57.599999999999994</ele><time>2026-04-06T07:10:11.337Z</time></trkpt><trkpt lat="43.5197317" lon="10.70905"><ele>57.8</ele><time>2026-04-06T07:10:12.336Z</time></trkpt><trkpt lat="43.5196667" lon="10.70917"><ele>58.0</ele><time>2026-04-06T07:10:13.336Z</time></trkpt><trkpt lat="43.5196" lon="10.7092917"><ele>57.599999999999994</ele><time>2026-04-06T07:10:14.337Z</time></trkpt><trkpt lat="43.519535" lon="10.7094133"><ele>57.199999999999996</ele><time>2026-04-06T07:10:15.338Z</time></trkpt><trkpt lat="43.5194717" lon="10.709535"><ele>56.8</ele><time>2026-04-06T07:10:16.337Z</time></trkpt><trkpt lat="43.5194083" lon="10.7096583"><ele>56.4</ele><time>2026-04-06T07:10:17.335Z</time></trkpt><trkpt lat="43.5193433" lon="10.7097833"><ele>56.0</ele><time>2026-04-06T07:10:18.339Z</time></trkpt><trkpt lat="43.5192767" lon="10.7099083"><ele>56.0</ele><time>2026-04-06T07:10:19.339Z</time></trkpt><trkpt lat="43.519215" lon="10.710035"><ele>55.99999999999999</ele><time>2026-04-06T07:10:20.338Z</time></trkpt><trkpt lat="43.5191517" lon="10.7101633"><ele>55.99999999999999</ele><time>2026-04-06T07:10:21.338Z</time></trkpt><trkpt lat="43.5190867" lon="10.71029"><ele>56.0</ele><time>2026-04-06T07:10:22.337Z</time></trkpt><trkpt lat="43.5190217" lon="10.7104167"><ele>56.0</ele><time>2026-04-06T07:10:23.341Z</time></trkpt><trkpt lat="43.5189567" lon="10.710545"><ele>55.75</ele><time>2026-04-06T07:10:24.339Z</time></trkpt><trkpt lat="43.51889" lon="10.7106717"><ele>55.5</ele><time>2026-04-06T07:10:25.339Z</time></trkpt><trkpt lat="43.5188217" lon="10.7107983"><ele>55.25</ele><time>2026-04-06T07:10:26.337Z</time></trkpt><trkpt lat="43.5187583" lon="10.710925"><ele>55.0</ele><time>2026-04-06T07:10:27.337Z</time></trkpt><trkpt lat="43.518695" lon="10.7110533"><ele>55.5</ele><time>2026-04-06T07:10:28.336Z</time></trkpt><trkpt lat="43.5186333" lon="10.7111833"><ele>56.0</ele><time>2026-04-06T07:10:29.337Z</time></trkpt><trkpt lat="43.5185683" lon="10.7113117"><ele>56.5</ele><time>2026-04-06T07:10:30.335Z</time></trkpt><trkpt lat="43.5184983" lon="10.71144"><ele>57.0</ele><time>2026-04-06T07:10:31.335Z</time></trkpt><trkpt lat="43.51843" lon="10.7115683"><ele>57.0</ele><time>2026-04-06T07:10:32.339Z</time></trkpt><trkpt lat="43.51836" lon="10.7116983"><ele>57.0</ele><time>2026-04-06T07:10:33.339Z</time></trkpt><trkpt lat="43.5182933" lon="10.7118267"><ele>57.0</ele><time>2026-04-06T07:10:34.337Z</time></trkpt><trkpt lat="43.5182267" lon="10.7119533"><ele>57.0</ele><time>2026-04-06T07:10:35.338Z</time></trkpt><trkpt lat="43.51816" lon="10.7120833"><ele>57.2</ele><time>2026-04-06T07:10:36.337Z</time></trkpt><trkpt lat="43.5180983" lon="10.7122083"><ele>57.400000000000006</ele><time>2026-04-06T07:10:37.341Z</time></trkpt><trkpt lat="43.518035" lon="10.7123317"><ele>57.599999999999994</ele><time>2026-04-06T07:10:38.34Z</time></trkpt><trkpt lat="43.5179717" lon="10.7124567"><ele>57.8</ele><time>2026-04-06T07:10:39.343Z</time></trkpt><trkpt lat="43.5179067" lon="10.71258"><ele>58.0</ele><time>2026-04-06T07:10:40.34Z</time></trkpt><trkpt lat="43.51784" lon="10.7127033"><ele>57.8</ele><time>2026-04-06T07:10:41.339Z</time></trkpt><trkpt lat="43.517775" lon="10.712825"><ele>57.599999999999994</ele><time>2026-04-06T07:10:42.343Z</time></trkpt><trkpt lat="43.517715" lon="10.7129433"><ele>57.400000000000006</ele><time>2026-04-06T07:10:43.337Z</time></trkpt><trkpt lat="43.5176517" lon="10.713065"><ele>57.2</ele><time>2026-04-06T07:10:44.338Z</time></trkpt><trkpt lat="43.5175883" lon="10.7131883"><ele>57.0</ele><time>2026-04-06T07:10:45.338Z</time></trkpt><trkpt lat="43.517525" lon="10.7133117"><ele>57.0</ele><time>2026-04-06T07:10:46.338Z</time></trkpt><trkpt lat="43.5174633" lon="10.7134333"><ele>57.0</ele><time>2026-04-06T07:10:47.338Z</time></trkpt><trkpt lat="43.5174" lon="10.713555"><ele>57.0</ele><time>2026-04-06T07:10:48.339Z</time></trkpt><trkpt lat="43.517335" lon="10.7136767"><ele>57.0</ele><time>2026-04-06T07:10:49.34Z</time></trkpt><trkpt lat="43.51727" lon="10.7137983"><ele>57.0</ele><time>2026-04-06T07:10:50.34Z</time></trkpt><trkpt lat="43.517205" lon="10.71392"><ele>57.0</ele><time>2026-04-06T07:10:51.34Z</time></trkpt><trkpt lat="43.5171367" lon="10.7140367"><ele>57.0</ele><time>2026-04-06T07:10:52.339Z</time></trkpt><trkpt lat="43.5170667" lon="10.7141517"><ele>57.0</ele><time>2026-04-06T07:10:53.337Z</time></trkpt><trkpt lat="43.5169933" lon="10.7142667"><ele>57.0</ele><time>2026-04-06T07:10:54.338Z</time></trkpt><trkpt lat="43.5169217" lon="10.7143817"><ele>57.0</ele><time>2026-04-06T07:10:55.337Z</time></trkpt><trkpt lat="43.516845" lon="10.7144917"><ele>57.6</ele><time>2026-04-06T07:10:56.338Z</time></trkpt><trkpt lat="43.516765" lon="10.7146017"><ele>58.2</ele><time>2026-04-06T07:10:57.337Z</time></trkpt><trkpt lat="43.5166867" lon="10.7147083"><ele>58.8</ele><time>2026-04-06T07:10:58.339Z</time></trkpt><trkpt lat="43.5166067" lon="10.7148133"><ele>59.4</ele><time>2026-04-06T07:10:59.336Z</time></trkpt><trkpt lat="43.5165267" lon="10.7149167"><ele>60.0</ele><time>2026-04-06T07:11:00.336Z</time></trkpt><trkpt lat="43.5164433" lon="10.7150167"><ele>60.0</ele><time>2026-04-06T07:11:01.337Z</time></trkpt><trkpt lat="43.51636" lon="10.7151167"><ele>60.0</ele><time>2026-04-06T07:11:02.337Z</time></trkpt><trkpt lat="43.516275" lon="10.715215"><ele>60.0</ele><time>2026-04-06T07:11:03.338Z</time></trkpt><trkpt lat="43.5161883" lon="10.7153067"><ele>60.0</ele><time>2026-04-06T07:11:04.338Z</time></trkpt><trkpt lat="43.5160983" lon="10.7153983"><ele>60.0</ele><time>2026-04-06T07:11:05.338Z</time></trkpt><trkpt lat="43.5160067" lon="10.7154883"><ele>59.75</ele><time>2026-04-06T07:11:06.339Z</time></trkpt><trkpt lat="43.515915" lon="10.7155767"><ele>59.5</ele><time>2026-04-06T07:11:07.341Z</time></trkpt><trkpt lat="43.5158217" lon="10.71566"><ele>59.25</ele><time>2026-04-06T07:11:08.344Z</time></trkpt><trkpt lat="43.515725" lon="10.7157417"><ele>59.0</ele><time>2026-04-06T07:11:09.337Z</time></trkpt><trkpt lat="43.515625" lon="10.7158167"><ele>59.0</ele><time>2026-04-06T07:11:10.336Z</time></trkpt><trkpt lat="43.5155267" lon="10.7158883"><ele>59.00000000000001</ele><time>2026-04-06T07:11:11.336Z</time></trkpt><trkpt lat="43.5154283" lon="10.7159633"><ele>59.00000000000001</ele><time>2026-04-06T07:11:12.338Z</time></trkpt><trkpt lat="43.5153317" lon="10.71604"><ele>59.0</ele><time>2026-04-06T07:11:13.334Z</time></trkpt><trkpt lat="43.5152317" lon="10.71611"><ele>59.0</ele><time>2026-04-06T07:11:14.336Z</time></trkpt><trkpt lat="43.5151283" lon="10.7161767"><ele>59.0</ele><time>2026-04-06T07:11:15.336Z</time></trkpt><trkpt lat="43.5150233" lon="10.716245"><ele>59.0</ele><time>2026-04-06T07:11:16.337Z</time></trkpt><trkpt lat="43.5149183" lon="10.7163067"><ele>59.0</ele><time>2026-04-06T07:11:17.337Z</time></trkpt><trkpt lat="43.5148133" lon="10.7163667"><ele>59.0</ele><time>2026-04-06T07:11:18.338Z</time></trkpt><trkpt lat="43.5147067" lon="10.7164233"><ele>59.0</ele><time>2026-04-06T07:11:19.34Z</time></trkpt><trkpt lat="43.5145983" lon="10.7164767"><ele>59.0</ele><time>2026-04-06T07:11:20.338Z</time></trkpt><trkpt lat="43.5144917" lon="10.71653"><ele>59.0</ele><time>2026-04-06T07:11:21.34Z</time></trkpt><trkpt lat="43.514385" lon="10.7165833"><ele>59.0</ele><time>2026-04-06T07:11:22.34Z</time></trkpt><trkpt lat="43.514275" lon="10.716635"><ele>59.5</ele><time>2026-04-06T07:11:23.34Z</time></trkpt><trkpt lat="43.514165" lon="10.7166883"><ele>60.0</ele><time>2026-04-06T07:11:24.339Z</time></trkpt><trkpt lat="43.5140533" lon="10.7167367"><ele>60.5</ele><time>2026-04-06T07:11:25.338Z</time></trkpt><trkpt lat="43.5139417" lon="10.7167817"><ele>61.0</ele><time>2026-04-06T07:11:26.342Z</time></trkpt><trkpt lat="43.5138283" lon="10.71683"><ele>60.75</ele><time>2026-04-06T07:11:27.339Z</time></trkpt><trkpt lat="43.5137167" lon="10.7168767"><ele>60.5</ele><time>2026-04-06T07:11:28.339Z</time></trkpt><trkpt lat="43.5136067" lon="10.7169233"><ele>60.25</ele><time>2026-04-06T07:11:29.337Z</time></trkpt><trkpt lat="43.5134967" lon="10.7169717"><ele>60.0</ele><time>2026-04-06T07:11:30.337Z</time></trkpt><trkpt lat="43.5133867" lon="10.7170167"><ele>60.0</ele><time>2026-04-06T07:11:31.336Z</time></trkpt><trkpt lat="43.5132783" lon="10.71706"><ele>60.0</ele><time>2026-04-06T07:11:32.337Z</time></trkpt><trkpt lat="43.5131683" lon="10.7171017"><ele>60.0</ele><time>2026-04-06T07:11:33.338Z</time></trkpt><trkpt lat="43.51306" lon="10.7171483"><ele>60.0</ele><time>2026-04-06T07:11:34.336Z</time></trkpt><trkpt lat="43.5129533" lon="10.7171967"><ele>60.25</ele><time>2026-04-06T07:11:35.34Z</time></trkpt><trkpt lat="43.512845" lon="10.7172417"><ele>60.5</ele><time>2026-04-06T07:11:36.338Z</time></trkpt><trkpt lat="43.5127367" lon="10.717285"><ele>60.75</ele><time>2026-04-06T07:11:37.336Z</time></trkpt><trkpt lat="43.5126267" lon="10.7173267"><ele>61.0</ele><time>2026-04-06T07:11:38.35Z</time></trkpt><trkpt lat="43.5125183" lon="10.717365"><ele>61.0</ele><time>2026-04-06T07:11:39.335Z</time></trkpt><trkpt lat="43.51241" lon="10.7174017"><ele>61.0</ele><time>2026-04-06T07:11:40.339Z</time></trkpt><trkpt lat="43.5122983" lon="10.7174333"><ele>61.0</ele><time>2026-04-06T07:11:41.338Z</time></trkpt><trkpt lat="43.512185" lon="10.7174633"><ele>61.0</ele><time>2026-04-06T07:11:42.337Z</time></trkpt><trkpt lat="43.51207" lon="10.717485"><ele>61.75</ele><time>2026-04-06T07:11:43.337Z</time></trkpt><trkpt lat="43.5119567" lon="10.717505"><ele>62.5</ele><time>2026-04-06T07:11:44.338Z</time></trkpt><trkpt lat="43.5118417" lon="10.71752"><ele>63.25</ele><time>2026-04-06T07:11:45.339Z</time></trkpt><trkpt lat="43.5117267" lon="10.7175383"><ele>64.0</ele><time>2026-04-06T07:11:46.335Z</time></trkpt><trkpt lat="43.5116117" lon="10.7175483"><ele>64.0</ele><time>2026-04-06T07:11:47.336Z</time></trkpt><trkpt lat="43.5114983" lon="10.7175567"><ele>64.0</ele><time>2026-04-06T07:11:48.337Z</time></trkpt><trkpt lat="43.511385" lon="10.7175583"><ele>64.0</ele><time>2026-04-06T07:11:49.336Z</time></trkpt><trkpt lat="43.5112717" lon="10.7175633"><ele>64.0</ele><time>2026-04-06T07:11:50.338Z</time></trkpt><trkpt lat="43.5111583" lon="10.7175683"><ele>64.75</ele><time>2026-04-06T07:11:51.338Z</time></trkpt><trkpt lat="43.5110433" lon="10.717575"><ele>65.5</ele><time>2026-04-06T07:11:52.337Z</time></trkpt><trkpt lat="43.51093" lon="10.7175817"><ele>66.25</ele><time>2026-04-06T07:11:53.337Z</time></trkpt><trkpt lat="43.5108167" lon="10.7175883"><ele>67.0</ele><time>2026-04-06T07:11:54.335Z</time></trkpt><trkpt lat="43.5106983" lon="10.7175967"><ele>67.0</ele><time>2026-04-06T07:11:55.336Z</time></trkpt><trkpt lat="43.5105817" lon="10.7176033"><ele>67.0</ele><time>2026-04-06T07:11:56.338Z</time></trkpt><trkpt lat="43.5104633" lon="10.7176083"><ele>67.0</ele><time>2026-04-06T07:11:57.339Z</time></trkpt><trkpt lat="43.5103467" lon="10.71762"><ele>67.0</ele><time>2026-04-06T07:11:58.34Z</time></trkpt><trkpt lat="43.5102333" lon="10.7176383"><ele>66.25</ele><time>2026-04-06T07:11:59.341Z</time></trkpt><trkpt lat="43.5101217" lon="10.71766"><ele>65.5</ele><time>2026-04-06T07:12:00.341Z</time></trkpt><trkpt lat="43.5100133" lon="10.7176917"><ele>64.75</ele><time>2026-04-06T07:12:01.34Z</time></trkpt><trkpt lat="43.5099033" lon="10.71773"><ele>64.0</ele><time>2026-04-06T07:12:02.338Z</time></trkpt><trkpt lat="43.5097883" lon="10.7177733"><ele>64.0</ele><time>2026-04-06T07:12:03.338Z</time></trkpt><trkpt lat="43.5096733" lon="10.7178117"><ele>64.0</ele><time>2026-04-06T07:12:04.336Z</time></trkpt><trkpt lat="43.50956" lon="10.7178483"><ele>64.0</ele><time>2026-04-06T07:12:05.337Z</time></trkpt><trkpt lat="43.5094467" lon="10.7178883"><ele>64.0</ele><time>2026-04-06T07:12:06.338Z</time></trkpt><trkpt lat="43.5093333" lon="10.7179333"><ele>63.75</ele><time>2026-04-06T07:12:07.339Z</time></trkpt><trkpt lat="43.5092217" lon="10.7179767"><ele>63.5</ele><time>2026-04-06T07:12:08.342Z</time></trkpt><trkpt lat="43.5091083" lon="10.71802"><ele>63.25</ele><time>2026-04-06T07:12:09.337Z</time></trkpt><trkpt lat="43.5089983" lon="10.71806"><ele>63.0</ele><time>2026-04-06T07:12:10.34Z</time></trkpt><trkpt lat="43.5088917" lon="10.7180967"><ele>63.0</ele><time>2026-04-06T07:12:11.337Z</time></trkpt><trkpt lat="43.5087867" lon="10.7181317"><ele>63.0</ele><time>2026-04-06T07:12:12.34Z</time></trkpt><trkpt lat="43.50868" lon="10.71817"><ele>63.0</ele><time>2026-04-06T07:12:13.338Z</time></trkpt><trkpt lat="43.508575" lon="10.7182133"><ele>63.0</ele><time>2026-04-06T07:12:14.339Z</time></trkpt><trkpt lat="43.5084667" lon="10.718255"><ele>63.0</ele><time>2026-04-06T07:12:15.339Z</time></trkpt><trkpt lat="43.5083567" lon="10.7182967"><ele>63.0</ele><time>2026-04-06T07:12:16.337Z</time></trkpt><trkpt lat="43.5082467" lon="10.718335"><ele>63.0</ele><time>2026-04-06T07:12:17.337Z</time></trkpt><trkpt lat="43.5081333" lon="10.7183733"><ele>63.0</ele><time>2026-04-06T07:12:18.336Z</time></trkpt><trkpt lat="43.508025" lon="10.7184117"><ele>63.0</ele><time>2026-04-06T07:12:19.337Z</time></trkpt><trkpt lat="43.507915" lon="10.7184517"><ele>62.5</ele><time>2026-04-06T07:12:20.339Z</time></trkpt><trkpt lat="43.507805" lon="10.718495"><ele>62.0</ele><time>2026-04-06T07:12:21.336Z</time></trkpt><trkpt lat="43.507695" lon="10.7185367"><ele>61.5</ele><time>2026-04-06T07:12:22.335Z</time></trkpt><trkpt lat="43.5075833" lon="10.7185767"><ele>61.0</ele><time>2026-04-06T07:12:23.336Z</time></trkpt><trkpt lat="43.5074717" lon="10.7186167"><ele>61.0</ele><time>2026-04-06T07:12:24.337Z</time></trkpt><trkpt lat="43.5073583" lon="10.718655"><ele>60.99999999999999</ele><time>2026-04-06T07:12:25.337Z</time></trkpt><trkpt lat="43.5072517" lon="10.7186883"><ele>60.99999999999999</ele><time>2026-04-06T07:12:26.339Z</time></trkpt><trkpt lat="43.5071433" lon="10.718725"><ele>61.0</ele><time>2026-04-06T07:12:27.338Z</time></trkpt><trkpt lat="43.507035" lon="10.7187633"><ele>61.0</ele><time>2026-04-06T07:12:28.34Z</time></trkpt><trkpt lat="43.506925" lon="10.718805"><ele>61.0</ele><time>2026-04-06T07:12:29.337Z</time></trkpt><trkpt lat="43.5068167" lon="10.7188417"><ele>60.99999999999999</ele><time>2026-04-06T07:12:30.338Z</time></trkpt><trkpt lat="43.5067083" lon="10.7188783"><ele>60.99999999999999</ele><time>2026-04-06T07:12:31.337Z</time></trkpt><trkpt lat="43.5066" lon="10.7189167"><ele>61.0</ele><time>2026-04-06T07:12:32.339Z</time></trkpt><trkpt lat="43.5064933" lon="10.718955"><ele>61.0</ele><time>2026-04-06T07:12:33.338Z</time></trkpt><trkpt lat="43.5063883" lon="10.7189917"><ele>61.0</ele><time>2026-04-06T07:12:34.339Z</time></trkpt><trkpt lat="43.50628" lon="10.71903"><ele>60.99999999999999</ele><time>2026-04-06T07:12:35.337Z</time></trkpt><trkpt lat="43.5061733" lon="10.7190683"><ele>60.99999999999999</ele><time>2026-04-06T07:12:36.336Z</time></trkpt><trkpt lat="43.506065" lon="10.7191083"><ele>61.0</ele><time>2026-04-06T07:12:37.337Z</time></trkpt><trkpt lat="43.505955" lon="10.7191483"><ele>61.0</ele><time>2026-04-06T07:12:38.338Z</time></trkpt><trkpt lat="43.505845" lon="10.7191883"><ele>61.599999999999994</ele><time>2026-04-06T07:12:39.338Z</time></trkpt><trkpt lat="43.5057367" lon="10.7192267"><ele>62.199999999999996</ele><time>2026-04-06T07:12:40.339Z</time></trkpt><trkpt lat="43.5056283" lon="10.7192667"><ele>62.800000000000004</ele><time>2026-04-06T07:12:41.341Z</time></trkpt><trkpt lat="43.50552" lon="10.7193067"><ele>63.400000000000006</ele><time>2026-04-06T07:12:42.34Z</time></trkpt><trkpt lat="43.5054117" lon="10.719345"><ele>64.0</ele><time>2026-04-06T07:12:43.338Z</time></trkpt><trkpt lat="43.5053" lon="10.7193833"><ele>64.0</ele><time>2026-04-06T07:12:44.339Z</time></trkpt><trkpt lat="43.50519" lon="10.7194217"><ele>64.0</ele><time>2026-04-06T07:12:45.34Z</time></trkpt><trkpt lat="43.50508" lon="10.71946"><ele>64.0</ele><time>2026-04-06T07:12:46.336Z</time></trkpt><trkpt lat="43.5049683" lon="10.7195"><ele>64.0</ele><time>2026-04-06T07:12:47.338Z</time></trkpt><trkpt lat="43.5048567" lon="10.7195383"><ele>64.0</ele><time>2026-04-06T07:12:48.34Z</time></trkpt><trkpt lat="43.5047433" lon="10.7195767"><ele>64.0</ele><time>2026-04-06T07:12:49.337Z</time></trkpt><trkpt lat="43.5046317" lon="10.7196167"><ele>64.0</ele><time>2026-04-06T07:12:50.34Z</time></trkpt><trkpt lat="43.5045217" lon="10.719655"><ele>64.0</ele><time>2026-04-06T07:12:51.338Z</time></trkpt><trkpt lat="43.50441" lon="10.719695"><ele>63.75</ele><time>2026-04-06T07:12:52.337Z</time></trkpt><trkpt lat="43.5042983" lon="10.7197383"><ele>63.5</ele><time>2026-04-06T07:12:53.337Z</time></trkpt><trkpt lat="43.504185" lon="10.71978"><ele>63.25</ele><time>2026-04-06T07:12:54.339Z</time></trkpt><trkpt lat="43.5040717" lon="10.71982"><ele>63.0</ele><time>2026-04-06T07:12:55.34Z</time></trkpt><trkpt lat="43.5039583" lon="10.7198567"><ele>63.0</ele><time>2026-04-06T07:12:56.339Z</time></trkpt><trkpt lat="43.5038483" lon="10.719895"><ele>63.0</ele><time>2026-04-06T07:12:57.337Z</time></trkpt><trkpt lat="43.5037367" lon="10.7199333"><ele>63.0</ele><time>2026-04-06T07:12:58.336Z</time></trkpt><trkpt lat="43.503625" lon="10.7199733"><ele>63.0</ele><time>2026-04-06T07:12:59.339Z</time></trkpt><trkpt lat="43.5035117" lon="10.720015"><ele>63.0</ele><time>2026-04-06T07:13:00.338Z</time></trkpt><trkpt lat="43.5034033" lon="10.720055"><ele>63.0</ele><time>2026-04-06T07:13:01.337Z</time></trkpt><trkpt lat="43.5032967" lon="10.7200917"><ele>63.0</ele><time>2026-04-06T07:13:02.338Z</time></trkpt><trkpt lat="43.5031883" lon="10.72013"><ele>63.0</ele><time>2026-04-06T07:13:03.338Z</time></trkpt><trkpt lat="43.5030817" lon="10.7201683"><ele>63.0</ele><time>2026-04-06T07:13:04.336Z</time></trkpt><trkpt lat="43.5029733" lon="10.7202083"><ele>63.5</ele><time>2026-04-06T07:13:05.336Z</time></trkpt><trkpt lat="43.5028633" lon="10.72025"><ele>64.0</ele><time>2026-04-06T07:13:06.34Z</time></trkpt><trkpt lat="43.5027517" lon="10.7202933"><ele>64.5</ele><time>2026-04-06T07:13:07.337Z</time></trkpt><trkpt lat="43.502635" lon="10.72034"><ele>65.0</ele><time>2026-04-06T07:13:08.342Z</time></trkpt><trkpt lat="43.50252" lon="10.7203833"><ele>65.0</ele><time>2026-04-06T07:13:09.337Z</time></trkpt><trkpt lat="43.5024067" lon="10.7204217"><ele>65.0</ele><time>2026-04-06T07:13:10.338Z</time></trkpt><trkpt lat="43.5022933" lon="10.7204567"><ele>65.0</ele><time>2026-04-06T07:13:11.335Z</time></trkpt><trkpt lat="43.5021817" lon="10.7204933"><ele>65.0</ele><time>2026-04-06T07:13:12.336Z</time></trkpt><trkpt lat="43.50207" lon="10.7205317"><ele>65.0</ele><time>2026-04-06T07:13:13.337Z</time></trkpt><trkpt lat="43.5019583" lon="10.7205717"><ele>65.0</ele><time>2026-04-06T07:13:14.335Z</time></trkpt><trkpt lat="43.5018467" lon="10.7206133"><ele>65.0</ele><time>2026-04-06T07:13:15.339Z</time></trkpt><trkpt lat="43.501735" lon="10.7206517"><ele>65.0</ele><time>2026-04-06T07:13:16.338Z</time></trkpt><trkpt lat="43.5016233" lon="10.7206933"><ele>65.0</ele><time>2026-04-06T07:13:17.343Z</time></trkpt><trkpt lat="43.5015117" lon="10.7207333"><ele>65.0</ele><time>2026-04-06T07:13:18.338Z</time></trkpt><trkpt lat="43.5013983" lon="10.720775"><ele>65.0</ele><time>2026-04-06T07:13:19.338Z</time></trkpt><trkpt lat="43.5012867" lon="10.720815"><ele>65.0</ele><time>2026-04-06T07:13:20.34Z</time></trkpt><trkpt lat="43.5011733" lon="10.720855"><ele>64.75</ele><time>2026-04-06T07:13:21.339Z</time></trkpt><trkpt lat="43.50106" lon="10.720895"><ele>64.5</ele><time>2026-04-06T07:13:22.338Z</time></trkpt><trkpt lat="43.5009467" lon="10.7209367"><ele>64.25</ele><time>2026-04-06T07:13:23.339Z</time></trkpt><trkpt lat="43.5008333" lon="10.720975"><ele>64.0</ele><time>2026-04-06T07:13:24.34Z</time></trkpt><trkpt lat="43.5007217" lon="10.721015"><ele>64.0</ele><time>2026-04-06T07:13:25.34Z</time></trkpt><trkpt lat="43.5006117" lon="10.7210533"><ele>64.0</ele><time>2026-04-06T07:13:26.34Z</time></trkpt><trkpt lat="43.5005" lon="10.7210967"><ele>64.0</ele><time>2026-04-06T07:13:27.338Z</time></trkpt><trkpt lat="43.5003883" lon="10.721135"><ele>64.0</ele><time>2026-04-06T07:13:28.337Z</time></trkpt><trkpt lat="43.500275" lon="10.72117"><ele>64.8</ele><time>2026-04-06T07:13:29.34Z</time></trkpt><trkpt lat="43.5001583" lon="10.7211983"><ele>65.60000000000001</ele><time>2026-04-06T07:13:30.333Z</time></trkpt><trkpt lat="43.500045" lon="10.72122"><ele>66.4</ele><time>2026-04-06T07:13:31.337Z</time></trkpt><trkpt lat="43.4999417" lon="10.7212417"><ele>67.2</ele><time>2026-04-06T07:13:32.339Z</time></trkpt><trkpt lat="43.4998433" lon="10.72126"><ele>68.0</ele><time>2026-04-06T07:13:33.337Z</time></trkpt><trkpt lat="43.4997517" lon="10.7212783"><ele>68.0</ele><time>2026-04-06T07:13:34.338Z</time></trkpt><trkpt lat="43.499665" lon="10.7212933"><ele>68.0</ele><time>2026-04-06T07:13:35.337Z</time></trkpt><trkpt lat="43.4995833" lon="10.7213067"><ele>68.0</ele><time>2026-04-06T07:13:36.339Z</time></trkpt><trkpt lat="43.4995067" lon="10.721315"><ele>68.0</ele><time>2026-04-06T07:13:37.338Z</time></trkpt><trkpt lat="43.4994367" lon="10.7213117"><ele>68.0</ele><time>2026-04-06T07:13:38.34Z</time></trkpt><trkpt lat="43.4993733" lon="10.721295"><ele>68.0</ele><time>2026-04-06T07:13:39.335Z</time></trkpt><trkpt lat="43.49928" lon="10.7212483"><ele>68.33333333333334</ele><time>2026-04-06T07:13:41.336Z</time></trkpt><trkpt lat="43.4992133" lon="10.7212083"><ele>68.66666666666667</ele><time>2026-04-06T07:13:43.336Z</time></trkpt><trkpt lat="43.49915" lon="10.7211883"><ele>69.0</ele><time>2026-04-06T07:13:45.336Z</time></trkpt><trkpt lat="43.4990867" lon="10.72121"><ele>69.33333333333333</ele><time>2026-04-06T07:13:47.337Z</time></trkpt><trkpt lat="43.499035" lon="10.7212733"><ele>69.66666666666666</ele><time>2026-04-06T07:13:49.336Z</time></trkpt><trkpt lat="43.49899" lon="10.7213833"><ele>70.0</ele><time>2026-04-06T07:13:52.353Z</time></trkpt><trkpt lat="43.499" lon="10.7215167"><ele>70.0</ele><time>2026-04-06T07:14:02.337Z</time></trkpt><trkpt lat="43.4990583" lon="10.7215583"><ele>70.0</ele><time>2026-04-06T07:14:04.333Z</time></trkpt><trkpt lat="43.4991233" lon="10.721575"><ele>70.0</ele><time>2026-04-06T07:14:06.341Z</time></trkpt><trkpt lat="43.4991883" lon="10.7215367"><ele>70.0</ele><time>2026-04-06T07:14:08.343Z</time></trkpt><trkpt lat="43.4992317" lon="10.7214383"><ele>70.0</ele><time>2026-04-06T07:14:10.34Z</time></trkpt><trkpt lat="43.49922" lon="10.7213167"><ele>70.0</ele><time>2026-04-06T07:14:12.336Z</time></trkpt><trkpt lat="43.4991617" lon="10.7212117"><ele>70.0</ele><time>2026-04-06T07:14:14.338Z</time></trkpt><trkpt lat="43.4991017" lon="10.7211017"><ele>70.0</ele><time>2026-04-06T07:14:16.338Z</time></trkpt><trkpt lat="43.4990583" lon="10.720985"><ele>70.0</ele><time>2026-04-06T07:14:18.336Z</time></trkpt><trkpt lat="43.4990333" lon="10.7208683"><ele>70.0</ele><time>2026-04-06T07:14:20.337Z</time></trkpt><trkpt lat="43.4990067" lon="10.7207617"><ele>70.0</ele><time>2026-04-06T07:14:22.332Z</time></trkpt><trkpt lat="43.4989933" lon="10.7206583"><ele>70.0</ele><time>2026-04-06T07:14:24.338Z</time></trkpt><trkpt lat="43.4989817" lon="10.720555"><ele>69.5</ele><time>2026-04-06T07:14:26.343Z</time></trkpt><trkpt lat="43.4989683" lon="10.7204417"><ele>69.0</ele><time>2026-04-06T07:14:28.338Z</time></trkpt><trkpt lat="43.49896" lon="10.7203183"><ele>68.5</ele><time>2026-04-06T07:14:30.338Z</time></trkpt><trkpt lat="43.4989517" lon="10.7202"><ele>68.0</ele><time>2026-04-06T07:14:32.341Z</time></trkpt><trkpt lat="43.4989417" lon="10.7201017"><ele>67.5</ele><time>2026-04-06T07:14:34.339Z</time></trkpt><trkpt lat="43.4989283" lon="10.7199867"><ele>67.0</ele><time>2026-04-06T07:14:37.342Z</time></trkpt><trkpt lat="43.4989167" lon="10.7201083"><ele>66.8</ele><time>2026-04-06T07:15:39.342Z</time></trkpt><trkpt lat="43.4989183" lon="10.72024"><ele>66.6</ele><time>2026-04-06T07:15:41.334Z</time></trkpt><trkpt lat="43.49892" lon="10.7203867"><ele>66.39999999999999</ele><time>2026-04-06T07:15:43.336Z</time></trkpt><trkpt lat="43.4989367" lon="10.72055"><ele>66.2</ele><time>2026-04-06T07:15:45.335Z</time></trkpt><trkpt lat="43.4989583" lon="10.720715"><ele>66.0</ele><time>2026-04-06T07:15:47.339Z</time></trkpt><trkpt lat="43.498985" lon="10.7208667"><ele>66.0</ele><time>2026-04-06T07:15:49.337Z</time></trkpt><trkpt lat="43.499005" lon="10.7210117"><ele>66.0</ele><time>2026-04-06T07:15:51.337Z</time></trkpt><trkpt lat="43.4990117" lon="10.72113"><ele>66.0</ele><time>2026-04-06T07:15:53.341Z</time></trkpt><trkpt lat="43.49899" lon="10.7212283"><ele>66.0</ele><time>2026-04-06T07:15:56.339Z</time></trkpt><trkpt lat="43.4989483" lon="10.7213133"><ele>66.0</ele><time>2026-04-06T07:16:00.334Z</time></trkpt><trkpt lat="43.4989467" lon="10.7214267"><ele>66.0</ele><time>2026-04-06T07:16:04.339Z</time></trkpt><trkpt lat="43.4989617" lon="10.7215183"><ele>66.39999999999999</ele><time>2026-04-06T07:16:06.342Z</time></trkpt><trkpt lat="43.4989767" lon="10.72163"><ele>66.8</ele><time>2026-04-06T07:16:08.338Z</time></trkpt><trkpt lat="43.49897" lon="10.7217667"><ele>67.19999999999999</ele><time>2026-04-06T07:16:10.338Z</time></trkpt><trkpt lat="43.4989483" lon="10.7219167"><ele>67.6</ele><time>2026-04-06T07:16:12.334Z</time></trkpt><trkpt lat="43.4989133" lon="10.7220833"><ele>68.0</ele><time>2026-04-06T07:16:14.337Z</time></trkpt><trkpt lat="43.4988967" lon="10.72217"><ele>68.0</ele><time>2026-04-06T07:16:15.334Z</time></trkpt><trkpt lat="43.4988567" lon="10.722335"><ele>68.0</ele><time>2026-04-06T07:16:17.338Z</time></trkpt><trkpt lat="43.4988383" lon="10.7224217"><ele>68.0</ele><time>2026-04-06T07:16:18.337Z</time></trkpt><trkpt lat="43.4988217" lon="10.7225083"><ele>68.0</ele><time>2026-04-06T07:16:19.337Z</time></trkpt><trkpt lat="43.4988033" lon="10.722595"><ele>68.0</ele><time>2026-04-06T07:16:20.339Z</time></trkpt><trkpt lat="43.4987867" lon="10.722685"><ele>68.0</ele><time>2026-04-06T07:16:21.339Z</time></trkpt><trkpt lat="43.4987683" lon="10.7227767"><ele>67.99999999999999</ele><time>2026-04-06T07:16:22.337Z</time></trkpt><trkpt lat="43.4987517" lon="10.7228667"><ele>68.0</ele><time>2026-04-06T07:16:23.339Z</time></trkpt><trkpt lat="43.498735" lon="10.7229567"><ele>68.0</ele><time>2026-04-06T07:16:24.34Z</time></trkpt><trkpt lat="43.4987183" lon="10.7230483"><ele>68.0</ele><time>2026-04-06T07:16:25.342Z</time></trkpt><trkpt lat="43.4987" lon="10.7231417"><ele>68.0</ele><time>2026-04-06T07:16:26.335Z</time></trkpt><trkpt lat="43.49868" lon="10.7232367"><ele>67.99999999999999</ele><time>2026-04-06T07:16:27.345Z</time></trkpt><trkpt lat="43.49866" lon="10.723335"><ele>68.0</ele><time>2026-04-06T07:16:28.345Z</time></trkpt><trkpt lat="43.49864" lon="10.7234383"><ele>68.0</ele><time>2026-04-06T07:16:29.338Z</time></trkpt><trkpt lat="43.4986183" lon="10.72354"><ele>68.0</ele><time>2026-04-06T07:16:30.335Z</time></trkpt><trkpt lat="43.4985983" lon="10.72364"><ele>68.0</ele><time>2026-04-06T07:16:31.337Z</time></trkpt><trkpt lat="43.4985783" lon="10.7237417"><ele>68.0</ele><time>2026-04-06T07:16:32.338Z</time></trkpt><trkpt lat="43.4985583" lon="10.7238467"><ele>68.0</ele><time>2026-04-06T07:16:33.338Z</time></trkpt><trkpt lat="43.4985417" lon="10.7239533"><ele>68.0</ele><time>2026-04-06T07:16:34.334Z</time></trkpt><trkpt lat="43.498525" lon="10.72406"><ele>68.83333333333334</ele><time>2026-04-06T07:16:35.336Z</time></trkpt><trkpt lat="43.4985117" lon="10.7241683"><ele>69.66666666666667</ele><time>2026-04-06T07:16:36.336Z</time></trkpt><trkpt lat="43.4985033" lon="10.7242767"><ele>70.5</ele><time>2026-04-06T07:16:37.337Z</time></trkpt><trkpt lat="43.4985017" lon="10.7243867"><ele>71.33333333333333</ele><time>2026-04-06T07:16:38.34Z</time></trkpt><trkpt lat="43.4985" lon="10.7245"><ele>72.16666666666666</ele><time>2026-04-06T07:16:39.338Z</time></trkpt><trkpt lat="43.4984983" lon="10.72461"><ele>73.0</ele><time>2026-04-06T07:16:40.338Z</time></trkpt><trkpt lat="43.4985" lon="10.7247133"><ele>73.33333333333333</ele><time>2026-04-06T07:16:41.341Z</time></trkpt><trkpt lat="43.498505" lon="10.724815"><ele>73.66666666666666</ele><time>2026-04-06T07:16:42.34Z</time></trkpt><trkpt lat="43.4985117" lon="10.7249183"><ele>74.0</ele><time>2026-04-06T07:16:43.34Z</time></trkpt><trkpt lat="43.4985267" lon="10.7250233"><ele>74.33333333333333</ele><time>2026-04-06T07:16:44.341Z</time></trkpt><trkpt lat="43.49855" lon="10.725125"><ele>74.66666666666667</ele><time>2026-04-06T07:16:45.338Z</time></trkpt><trkpt lat="43.498585" lon="10.7252283"><ele>75.0</ele><time>2026-04-06T07:16:46.341Z</time></trkpt><trkpt lat="43.4986283" lon="10.7253333"><ele>75.0</ele><time>2026-04-06T07:16:47.338Z</time></trkpt><trkpt lat="43.4986717" lon="10.7254433"><ele>75.0</ele><time>2026-04-06T07:16:48.338Z</time></trkpt><trkpt lat="43.4987183" lon="10.725555"><ele>75.0</ele><time>2026-04-06T07:16:49.338Z</time></trkpt><trkpt lat="43.4987667" lon="10.7256683"><ele>75.0</ele><time>2026-04-06T07:16:50.343Z</time></trkpt><trkpt lat="43.4988167" lon="10.725785"><ele>75.0</ele><time>2026-04-06T07:16:51.34Z</time></trkpt><trkpt lat="43.4988683" lon="10.7259017"><ele>75.2</ele><time>2026-04-06T07:16:52.34Z</time></trkpt><trkpt lat="43.4989183" lon="10.7260217"><ele>75.4</ele><time>2026-04-06T07:16:53.337Z</time></trkpt><trkpt lat="43.49897" lon="10.726145"><ele>75.6</ele><time>2026-04-06T07:16:54.339Z</time></trkpt><trkpt lat="43.4990233" lon="10.7262667"><ele>75.8</ele><time>2026-04-06T07:16:55.338Z</time></trkpt><trkpt lat="43.4990767" lon="10.72639"><ele>76.0</ele><time>2026-04-06T07:16:56.338Z</time></trkpt><trkpt lat="43.4991283" lon="10.7265133"><ele>75.39999999999999</ele><time>2026-04-06T07:16:57.338Z</time></trkpt><trkpt lat="43.49918" lon="10.726635"><ele>74.8</ele><time>2026-04-06T07:16:58.338Z</time></trkpt><trkpt lat="43.49923" lon="10.7267583"><ele>74.19999999999999</ele><time>2026-04-06T07:16:59.338Z</time></trkpt><trkpt lat="43.4992817" lon="10.72688"><ele>73.6</ele><time>2026-04-06T07:17:00.339Z</time></trkpt><trkpt lat="43.4993317" lon="10.727"><ele>73.0</ele><time>2026-04-06T07:17:01.337Z</time></trkpt><trkpt lat="43.4993833" lon="10.727125"><ele>72.6</ele><time>2026-04-06T07:17:02.339Z</time></trkpt><trkpt lat="43.4994317" lon="10.72725"><ele>72.19999999999999</ele><time>2026-04-06T07:17:03.34Z</time></trkpt><trkpt lat="43.4994817" lon="10.7273733"><ele>71.8</ele><time>2026-04-06T07:17:04.339Z</time></trkpt><trkpt lat="43.4995317" lon="10.727495"><ele>71.39999999999999</ele><time>2026-04-06T07:17:05.338Z</time></trkpt><trkpt lat="43.4995817" lon="10.72762"><ele>71.0</ele><time>2026-04-06T07:17:06.338Z</time></trkpt><trkpt lat="43.49963" lon="10.727745"><ele>72.2</ele><time>2026-04-06T07:17:07.337Z</time></trkpt><trkpt lat="43.4996767" lon="10.7278717"><ele>73.39999999999999</ele><time>2026-04-06T07:17:08.342Z</time></trkpt><trkpt lat="43.49972" lon="10.728"><ele>74.6</ele><time>2026-04-06T07:17:09.338Z</time></trkpt><trkpt lat="43.4997633" lon="10.72813"><ele>75.8</ele><time>2026-04-06T07:17:10.34Z</time></trkpt><trkpt lat="43.4998033" lon="10.7282617"><ele>77.0</ele><time>2026-04-06T07:17:11.341Z</time></trkpt><trkpt lat="43.4998433" lon="10.7283933"><ele>77.0</ele><time>2026-04-06T07:17:12.344Z</time></trkpt><trkpt lat="43.4998833" lon="10.728525"><ele>77.0</ele><time>2026-04-06T07:17:13.337Z</time></trkpt><trkpt lat="43.49992" lon="10.7286567"><ele>77.0</ele><time>2026-04-06T07:17:14.343Z</time></trkpt><trkpt lat="43.4999583" lon="10.72879"><ele>77.0</ele><time>2026-04-06T07:17:15.339Z</time></trkpt><trkpt lat="43.4999933" lon="10.7289217"><ele>77.0</ele><time>2026-04-06T07:17:16.335Z</time></trkpt><trkpt lat="43.5000317" lon="10.7290533"><ele>75.6</ele><time>2026-04-06T07:17:17.339Z</time></trkpt><trkpt lat="43.5000633" lon="10.7291883"><ele>74.2</ele><time>2026-04-06T07:17:18.336Z</time></trkpt><trkpt lat="43.5000917" lon="10.729325"><ele>72.8</ele><time>2026-04-06T07:17:19.336Z</time></trkpt><trkpt lat="43.5001167" lon="10.7294633"><ele>71.4</ele><time>2026-04-06T07:17:20.338Z</time></trkpt><trkpt lat="43.500135" lon="10.7296033"><ele>70.0</ele><time>2026-04-06T07:17:21.338Z</time></trkpt><trkpt lat="43.50015" lon="10.7297467"><ele>70.0</ele><time>2026-04-06T07:17:22.339Z</time></trkpt><trkpt lat="43.5001633" lon="10.7298917"><ele>70.0</ele><time>2026-04-06T07:17:23.342Z</time></trkpt><trkpt lat="43.500175" lon="10.7300417"><ele>70.0</ele><time>2026-04-06T07:17:24.338Z</time></trkpt><trkpt lat="43.5001867" lon="10.73019"><ele>70.0</ele><time>2026-04-06T07:17:25.335Z</time></trkpt><trkpt lat="43.500195" lon="10.7303417"><ele>70.0</ele><time>2026-04-06T07:17:26.337Z</time></trkpt><trkpt lat="43.5002033" lon="10.7304933"><ele>69.4</ele><time>2026-04-06T07:17:27.34Z</time></trkpt><trkpt lat="43.50021" lon="10.7306467"><ele>68.8</ele><time>2026-04-06T07:17:28.339Z</time></trkpt><trkpt lat="43.5002167" lon="10.7308"><ele>68.2</ele><time>2026-04-06T07:17:29.344Z</time></trkpt><trkpt lat="43.5002217" lon="10.7309533"><ele>67.6</ele><time>2026-04-06T07:17:30.332Z</time></trkpt><trkpt lat="43.5002233" lon="10.731105"><ele>67.0</ele><time>2026-04-06T07:17:31.337Z</time></trkpt><trkpt lat="43.5002183" lon="10.731255"><ele>67.0</ele><time>2026-04-06T07:17:32.339Z</time></trkpt><trkpt lat="43.50021" lon="10.7314067"><ele>67.0</ele><time>2026-04-06T07:17:33.337Z</time></trkpt><trkpt lat="43.500195" lon="10.731555"><ele>67.0</ele><time>2026-04-06T07:17:34.337Z</time></trkpt><trkpt lat="43.5001733" lon="10.7317033"><ele>67.0</ele><time>2026-04-06T07:17:35.339Z</time></trkpt><trkpt lat="43.5001433" lon="10.7318467"><ele>67.0</ele><time>2026-04-06T07:17:36.338Z</time></trkpt><trkpt lat="43.5001017" lon="10.7319867"><ele>67.0</ele><time>2026-04-06T07:17:37.332Z</time></trkpt><trkpt lat="43.5000483" lon="10.7321183"><ele>67.0</ele><time>2026-04-06T07:17:38.338Z</time></trkpt><trkpt lat="43.4999833" lon="10.7322433"><ele>67.0</ele><time>2026-04-06T07:17:39.335Z</time></trkpt><trkpt lat="43.4999117" lon="10.7323583"><ele>67.0</ele><time>2026-04-06T07:17:40.336Z</time></trkpt><trkpt lat="43.499835" lon="10.732465"><ele>67.0</ele><time>2026-04-06T07:17:41.336Z</time></trkpt><trkpt lat="43.49975" lon="10.7325617"><ele>67.0</ele><time>2026-04-06T07:17:42.337Z</time></trkpt><trkpt lat="43.49966" lon="10.7326467"><ele>67.0</ele><time>2026-04-06T07:17:43.338Z</time></trkpt><trkpt lat="43.4995683" lon="10.7327183"><ele>67.0</ele><time>2026-04-06T07:17:44.338Z</time></trkpt><trkpt lat="43.499475" lon="10.7327783"><ele>67.0</ele><time>2026-04-06T07:17:45.338Z</time></trkpt><trkpt lat="43.4993783" lon="10.732835"><ele>67.0</ele><time>2026-04-06T07:17:46.338Z</time></trkpt><trkpt lat="43.4992783" lon="10.7328867"><ele>67.2</ele><time>2026-04-06T07:17:47.341Z</time></trkpt><trkpt lat="43.4991767" lon="10.7329367"><ele>67.4</ele><time>2026-04-06T07:17:48.343Z</time></trkpt><trkpt lat="43.499075" lon="10.7329867"><ele>67.6</ele><time>2026-04-06T07:17:49.338Z</time></trkpt><trkpt lat="43.4989717" lon="10.7330367"><ele>67.8</ele><time>2026-04-06T07:17:50.345Z</time></trkpt><trkpt lat="43.49887" lon="10.7330867"><ele>68.0</ele><time>2026-04-06T07:17:51.34Z</time></trkpt><trkpt lat="43.4987683" lon="10.7331367"><ele>68.4</ele><time>2026-04-06T07:17:52.338Z</time></trkpt><trkpt lat="43.4986667" lon="10.7331867"><ele>68.8</ele><time>2026-04-06T07:17:53.339Z</time></trkpt><trkpt lat="43.4985633" lon="10.7332383"><ele>69.2</ele><time>2026-04-06T07:17:54.34Z</time></trkpt><trkpt lat="43.4984633" lon="10.73329"><ele>69.6</ele><time>2026-04-06T07:17:55.338Z</time></trkpt><trkpt lat="43.4983633" lon="10.7333417"><ele>70.0</ele><time>2026-04-06T07:17:56.338Z</time></trkpt><trkpt lat="43.4982633" lon="10.7333917"><ele>70.0</ele><time>2026-04-06T07:17:57.338Z</time></trkpt><trkpt lat="43.4981617" lon="10.7334417"><ele>70.0</ele><time>2026-04-06T07:17:58.337Z</time></trkpt><trkpt lat="43.49806" lon="10.7334933"><ele>70.0</ele><time>2026-04-06T07:17:59.337Z</time></trkpt><trkpt lat="43.4979583" lon="10.733545"><ele>70.0</ele><time>2026-04-06T07:18:00.335Z</time></trkpt><trkpt lat="43.49786" lon="10.7335967"><ele>70.0</ele><time>2026-04-06T07:18:01.335Z</time></trkpt><trkpt lat="43.4977617" lon="10.7336483"><ele>69.2</ele><time>2026-04-06T07:18:02.34Z</time></trkpt><trkpt lat="43.4976667" lon="10.733705"><ele>68.4</ele><time>2026-04-06T07:18:03.335Z</time></trkpt><trkpt lat="43.49757" lon="10.7337683"><ele>67.6</ele><time>2026-04-06T07:18:04.339Z</time></trkpt><trkpt lat="43.4974767" lon="10.73383"><ele>66.8</ele><time>2026-04-06T07:18:05.338Z</time></trkpt><trkpt lat="43.4973817" lon="10.7338967"><ele>66.0</ele><time>2026-04-06T07:18:06.339Z</time></trkpt><trkpt lat="43.49729" lon="10.733965"><ele>66.0</ele><time>2026-04-06T07:18:07.338Z</time></trkpt><trkpt lat="43.4972017" lon="10.7340383"><ele>66.0</ele><time>2026-04-06T07:18:08.339Z</time></trkpt><trkpt lat="43.4971133" lon="10.734115"><ele>66.0</ele><time>2026-04-06T07:18:09.339Z</time></trkpt><trkpt lat="43.497025" lon="10.7342"><ele>66.0</ele><time>2026-04-06T07:18:10.338Z</time></trkpt><trkpt lat="43.4969383" lon="10.7342883"><ele>66.0</ele><time>2026-04-06T07:18:11.341Z</time></trkpt><trkpt lat="43.4968533" lon="10.73438"><ele>66.2</ele><time>2026-04-06T07:18:12.337Z</time></trkpt><trkpt lat="43.49677" lon="10.73447"><ele>66.39999999999999</ele><time>2026-04-06T07:18:13.338Z</time></trkpt><trkpt lat="43.496685" lon="10.7345617"><ele>66.6</ele><time>2026-04-06T07:18:14.338Z</time></trkpt><trkpt lat="43.4966017" lon="10.7346517"><ele>66.8</ele><time>2026-04-06T07:18:15.337Z</time></trkpt><trkpt lat="43.4965167" lon="10.734745"><ele>67.0</ele><time>2026-04-06T07:18:16.336Z</time></trkpt><trkpt lat="43.4964333" lon="10.7348433"><ele>67.0</ele><time>2026-04-06T07:18:17.338Z</time></trkpt><trkpt lat="43.49635" lon="10.7349383"><ele>67.0</ele><time>2026-04-06T07:18:18.338Z</time></trkpt><trkpt lat="43.4962633" lon="10.7350267"><ele>67.0</ele><time>2026-04-06T07:18:19.336Z</time></trkpt><trkpt lat="43.496175" lon="10.7351067"><ele>67.0</ele><time>2026-04-06T07:18:20.336Z</time></trkpt><trkpt lat="43.496085" lon="10.735185"><ele>67.0</ele><time>2026-04-06T07:18:21.338Z</time></trkpt><trkpt lat="43.4959917" lon="10.73526"><ele>67.2</ele><time>2026-04-06T07:18:22.335Z</time></trkpt><trkpt lat="43.4958967" lon="10.735325"><ele>67.4</ele><time>2026-04-06T07:18:23.358Z</time></trkpt><trkpt lat="43.4958017" lon="10.735385"><ele>67.6</ele><time>2026-04-06T07:18:24.337Z</time></trkpt><trkpt lat="43.4957033" lon="10.7354433"><ele>67.8</ele><time>2026-04-06T07:18:25.338Z</time></trkpt><trkpt lat="43.4956033" lon="10.7354983"><ele>68.0</ele><time>2026-04-06T07:18:26.338Z</time></trkpt><trkpt lat="43.4955033" lon="10.73555"><ele>68.6</ele><time>2026-04-06T07:18:27.336Z</time></trkpt><trkpt lat="43.4954033" lon="10.7355983"><ele>69.19999999999999</ele><time>2026-04-06T07:18:28.338Z</time></trkpt><trkpt lat="43.4953017" lon="10.7356433"><ele>69.8</ele><time>2026-04-06T07:18:29.335Z</time></trkpt><trkpt lat="43.4951983" lon="10.7356817"><ele>70.39999999999999</ele><time>2026-04-06T07:18:30.349Z</time></trkpt><trkpt lat="43.495095" lon="10.7357233"><ele>71.0</ele><time>2026-04-06T07:18:31.343Z</time></trkpt><trkpt lat="43.4949933" lon="10.735765"><ele>71.0</ele><time>2026-04-06T07:18:32.338Z</time></trkpt><trkpt lat="43.4948883" lon="10.7358067"><ele>71.0</ele><time>2026-04-06T07:18:33.337Z</time></trkpt><trkpt lat="43.4947833" lon="10.7358483"><ele>71.0</ele><time>2026-04-06T07:18:34.339Z</time></trkpt><trkpt lat="43.4946817" lon="10.7358917"><ele>71.0</ele><time>2026-04-06T07:18:35.337Z</time></trkpt><trkpt lat="43.4945783" lon="10.73594"><ele>71.0</ele><time>2026-04-06T07:18:36.335Z</time></trkpt><trkpt lat="43.4944767" lon="10.7359933"><ele>71.0</ele><time>2026-04-06T07:18:37.336Z</time></trkpt><trkpt lat="43.4943767" lon="10.7360467"><ele>71.0</ele><time>2026-04-06T07:18:38.339Z</time></trkpt><trkpt lat="43.494275" lon="10.7361017"><ele>71.0</ele><time>2026-04-06T07:18:39.336Z</time></trkpt><trkpt lat="43.4941733" lon="10.73616"><ele>71.0</ele><time>2026-04-06T07:18:40.336Z</time></trkpt><trkpt lat="43.4940767" lon="10.73622"><ele>71.0</ele><time>2026-04-06T07:18:41.334Z</time></trkpt><trkpt lat="43.4939817" lon="10.7362833"><ele>70.8</ele><time>2026-04-06T07:18:42.337Z</time></trkpt><trkpt lat="43.4938867" lon="10.736355"><ele>70.6</ele><time>2026-04-06T07:18:43.335Z</time></trkpt><trkpt lat="43.4937933" lon="10.73643"><ele>70.4</ele><time>2026-04-06T07:18:44.337Z</time></trkpt><trkpt lat="43.4937" lon="10.73651"><ele>70.2</ele><time>2026-04-06T07:18:45.341Z</time></trkpt><trkpt lat="43.4936067" lon="10.7365933"><ele>70.0</ele><time>2026-04-06T07:18:46.338Z</time></trkpt><trkpt lat="43.4935117" lon="10.7366783"><ele>69.8</ele><time>2026-04-06T07:18:47.338Z</time></trkpt><trkpt lat="43.49342" lon="10.7367667"><ele>69.6</ele><time>2026-04-06T07:18:48.338Z</time></trkpt><trkpt lat="43.4933267" lon="10.736855"><ele>69.4</ele><time>2026-04-06T07:18:49.343Z</time></trkpt><trkpt lat="43.4932367" lon="10.7369417"><ele>69.2</ele><time>2026-04-06T07:18:50.338Z</time></trkpt><trkpt lat="43.493145" lon="10.73703"><ele>69.0</ele><time>2026-04-06T07:18:51.338Z</time></trkpt><trkpt lat="43.4930533" lon="10.7371217"><ele>69.0</ele><time>2026-04-06T07:18:52.34Z</time></trkpt><trkpt lat="43.492965" lon="10.7372083"><ele>69.0</ele><time>2026-04-06T07:18:53.338Z</time></trkpt><trkpt lat="43.492875" lon="10.7372983"><ele>69.0</ele><time>2026-04-06T07:18:54.338Z</time></trkpt><trkpt lat="43.4927883" lon="10.7373867"><ele>69.0</ele><time>2026-04-06T07:18:55.342Z</time></trkpt><trkpt lat="43.4927033" lon="10.737485"><ele>69.0</ele><time>2026-04-06T07:18:56.339Z</time></trkpt><trkpt lat="43.4926233" lon="10.7375883"><ele>69.0</ele><time>2026-04-06T07:18:57.338Z</time></trkpt><trkpt lat="43.4925417" lon="10.7376917"><ele>69.0</ele><time>2026-04-06T07:18:58.337Z</time></trkpt><trkpt lat="43.4924617" lon="10.7377967"><ele>69.0</ele><time>2026-04-06T07:18:59.338Z</time></trkpt><trkpt lat="43.4923833" lon="10.7379017"><ele>69.0</ele><time>2026-04-06T07:19:00.338Z</time></trkpt><trkpt lat="43.4923083" lon="10.7380117"><ele>69.0</ele><time>2026-04-06T07:19:01.338Z</time></trkpt><trkpt lat="43.4922367" lon="10.7381267"><ele>69.0</ele><time>2026-04-06T07:19:02.339Z</time></trkpt><trkpt lat="43.492165" lon="10.7382467"><ele>69.0</ele><time>2026-04-06T07:19:03.337Z</time></trkpt><trkpt lat="43.4920983" lon="10.738365"><ele>69.0</ele><time>2026-04-06T07:19:04.338Z</time></trkpt><trkpt lat="43.4920333" lon="10.7384883"><ele>69.0</ele><time>2026-04-06T07:19:05.337Z</time></trkpt><trkpt lat="43.4919717" lon="10.73861"><ele>69.0</ele><time>2026-04-06T07:19:06.336Z</time></trkpt><trkpt lat="43.49191" lon="10.738735"><ele>69.25</ele><time>2026-04-06T07:19:07.339Z</time></trkpt><trkpt lat="43.4918483" lon="10.738865"><ele>69.5</ele><time>2026-04-06T07:19:08.341Z</time></trkpt><trkpt lat="43.4917867" lon="10.739"><ele>69.75</ele><time>2026-04-06T07:19:09.34Z</time></trkpt><trkpt lat="43.491725" lon="10.73913"><ele>70.0</ele><time>2026-04-06T07:19:10.337Z</time></trkpt><trkpt lat="43.4916633" lon="10.739265"><ele>69.6</ele><time>2026-04-06T07:19:11.337Z</time></trkpt><trkpt lat="43.4916033" lon="10.7393967"><ele>69.2</ele><time>2026-04-06T07:19:12.337Z</time></trkpt><trkpt lat="43.4915433" lon="10.739525"><ele>68.8</ele><time>2026-04-06T07:19:13.337Z</time></trkpt><trkpt lat="43.491485" lon="10.7396517"><ele>68.4</ele><time>2026-04-06T07:19:14.34Z</time></trkpt><trkpt lat="43.4914267" lon="10.7397733"><ele>68.0</ele><time>2026-04-06T07:19:15.337Z</time></trkpt><trkpt lat="43.4913717" lon="10.7398933"><ele>68.0</ele><time>2026-04-06T07:19:16.341Z</time></trkpt><trkpt lat="43.491315" lon="10.74001"><ele>68.0</ele><time>2026-04-06T07:19:17.338Z</time></trkpt><trkpt lat="43.4912517" lon="10.7401233"><ele>68.0</ele><time>2026-04-06T07:19:18.339Z</time></trkpt><trkpt lat="43.4911867" lon="10.7402383"><ele>68.0</ele><time>2026-04-06T07:19:19.337Z</time></trkpt><trkpt lat="43.49112" lon="10.74035"><ele>68.0</ele><time>2026-04-06T07:19:20.341Z</time></trkpt><trkpt lat="43.4910517" lon="10.7404633"><ele>68.4</ele><time>2026-04-06T07:19:21.339Z</time></trkpt><trkpt lat="43.49098" lon="10.7405733"><ele>68.8</ele><time>2026-04-06T07:19:22.339Z</time></trkpt><trkpt lat="43.490905" lon="10.74068"><ele>69.2</ele><time>2026-04-06T07:19:23.339Z</time></trkpt><trkpt lat="43.49083" lon="10.7407833"><ele>69.6</ele><time>2026-04-06T07:19:24.339Z</time></trkpt><trkpt lat="43.49075" lon="10.740885"><ele>70.0</ele><time>2026-04-06T07:19:25.357Z</time></trkpt><trkpt lat="43.4906683" lon="10.7409833"><ele>69.6</ele><time>2026-04-06T07:19:26.348Z</time></trkpt><trkpt lat="43.4905833" lon="10.7410783"><ele>69.2</ele><time>2026-04-06T07:19:27.338Z</time></trkpt><trkpt lat="43.4904933" lon="10.74117"><ele>68.8</ele><time>2026-04-06T07:19:28.338Z</time></trkpt><trkpt lat="43.4904017" lon="10.74126"><ele>68.4</ele><time>2026-04-06T07:19:29.348Z</time></trkpt><trkpt lat="43.49031" lon="10.741345"><ele>68.0</ele><time>2026-04-06T07:19:30.338Z</time></trkpt><trkpt lat="43.4902167" lon="10.7414283"><ele>68.8</ele><time>2026-04-06T07:19:31.339Z</time></trkpt><trkpt lat="43.4901217" lon="10.74151"><ele>69.6</ele><time>2026-04-06T07:19:32.341Z</time></trkpt><trkpt lat="43.490025" lon="10.741585"><ele>70.4</ele><time>2026-04-06T07:19:33.34Z</time></trkpt><trkpt lat="43.4899283" lon="10.74166"><ele>71.2</ele><time>2026-04-06T07:19:34.337Z</time></trkpt><trkpt lat="43.4898283" lon="10.7417317"><ele>72.0</ele><time>2026-04-06T07:19:35.337Z</time></trkpt><trkpt lat="43.4897283" lon="10.7418017"><ele>72.0</ele><time>2026-04-06T07:19:36.338Z</time></trkpt><trkpt lat="43.4896283" lon="10.74187"><ele>72.0</ele><time>2026-04-06T07:19:37.336Z</time></trkpt><trkpt lat="43.4895267" lon="10.7419333"><ele>72.0</ele><time>2026-04-06T07:19:38.341Z</time></trkpt><trkpt lat="43.4894233" lon="10.741995"><ele>72.0</ele><time>2026-04-06T07:19:39.336Z</time></trkpt><trkpt lat="43.48932" lon="10.7420633"><ele>71.6</ele><time>2026-04-06T07:19:40.337Z</time></trkpt><trkpt lat="43.4892183" lon="10.7421317"><ele>71.2</ele><time>2026-04-06T07:19:41.337Z</time></trkpt><trkpt lat="43.48912" lon="10.7422"><ele>70.8</ele><time>2026-04-06T07:19:42.338Z</time></trkpt><trkpt lat="43.4890233" lon="10.7422717"><ele>70.4</ele><time>2026-04-06T07:19:43.338Z</time></trkpt><trkpt lat="43.48893" lon="10.74235"><ele>70.0</ele><time>2026-04-06T07:19:44.339Z</time></trkpt><trkpt lat="43.4888367" lon="10.742435"><ele>70.2</ele><time>2026-04-06T07:19:45.337Z</time></trkpt><trkpt lat="43.488745" lon="10.7425217"><ele>70.4</ele><time>2026-04-06T07:19:46.336Z</time></trkpt><trkpt lat="43.4886583" lon="10.7426117"><ele>70.6</ele><time>2026-04-06T07:19:47.337Z</time></trkpt><trkpt lat="43.4885733" lon="10.7427083"><ele>70.8</ele><time>2026-04-06T07:19:48.34Z</time></trkpt><trkpt lat="43.4884883" lon="10.7428067"><ele>71.0</ele><time>2026-04-06T07:19:49.336Z</time></trkpt><trkpt lat="43.488405" lon="10.7429117"><ele>71.0</ele><time>2026-04-06T07:19:50.338Z</time></trkpt><trkpt lat="43.488325" lon="10.7430233"><ele>71.0</ele><time>2026-04-06T07:19:51.339Z</time></trkpt><trkpt lat="43.48825" lon="10.743135"><ele>71.0</ele><time>2026-04-06T07:19:52.34Z</time></trkpt><trkpt lat="43.4881783" lon="10.74325"><ele>71.0</ele><time>2026-04-06T07:19:53.338Z</time></trkpt><trkpt lat="43.4881117" lon="10.74337"><ele>71.0</ele><time>2026-04-06T07:19:54.337Z</time></trkpt><trkpt lat="43.4880467" lon="10.7434917"><ele>70.0</ele><time>2026-04-06T07:19:55.336Z</time></trkpt><trkpt lat="43.4879817" lon="10.7436167"><ele>69.0</ele><time>2026-04-06T07:19:56.342Z</time></trkpt><trkpt lat="43.4879167" lon="10.7437467"><ele>68.0</ele><time>2026-04-06T07:19:57.338Z</time></trkpt><trkpt lat="43.487855" lon="10.7438783"><ele>67.0</ele><time>2026-04-06T07:19:58.341Z</time></trkpt><trkpt lat="43.4877933" lon="10.7440117"><ele>67.6</ele><time>2026-04-06T07:19:59.341Z</time></trkpt><trkpt lat="43.487735" lon="10.7441433"><ele>68.2</ele><time>2026-04-06T07:20:00.338Z</time></trkpt><trkpt lat="43.4876733" lon="10.7442717"><ele>68.8</ele><time>2026-04-06T07:20:01.339Z</time></trkpt><trkpt lat="43.4876117" lon="10.7444"><ele>69.4</ele><time>2026-04-06T07:20:02.337Z</time></trkpt><trkpt lat="43.4875467" lon="10.7445267"><ele>70.0</ele><time>2026-04-06T07:20:03.338Z</time></trkpt><trkpt lat="43.4874783" lon="10.7446483"><ele>70.0</ele><time>2026-04-06T07:20:04.337Z</time></trkpt><trkpt lat="43.4874067" lon="10.74477"><ele>70.0</ele><time>2026-04-06T07:20:05.348Z</time></trkpt><trkpt lat="43.4873317" lon="10.7448933"><ele>70.0</ele><time>2026-04-06T07:20:06.339Z</time></trkpt><trkpt lat="43.4872517" lon="10.7450083"><ele>70.0</ele><time>2026-04-06T07:20:07.336Z</time></trkpt><trkpt lat="43.4871667" lon="10.7451217"><ele>69.33333333333333</ele><time>2026-04-06T07:20:08.339Z</time></trkpt><trkpt lat="43.48708" lon="10.7452317"><ele>68.66666666666667</ele><time>2026-04-06T07:20:09.335Z</time></trkpt><trkpt lat="43.4869883" lon="10.7453367"><ele>68.0</ele><time>2026-04-06T07:20:10.338Z</time></trkpt><trkpt lat="43.4868" lon="10.7455283"><ele>68.0</ele><time>2026-04-06T07:20:12.337Z</time></trkpt><trkpt lat="43.4867" lon="10.7456167"><ele>68.0</ele><time>2026-04-06T07:20:13.338Z</time></trkpt><trkpt lat="43.4865983" lon="10.7457033"><ele>68.0</ele><time>2026-04-06T07:20:14.338Z</time></trkpt><trkpt lat="43.4864967" lon="10.7457917"><ele>68.0</ele><time>2026-04-06T07:20:15.338Z</time></trkpt><trkpt lat="43.486395" lon="10.7458733"><ele>68.0</ele><time>2026-04-06T07:20:16.34Z</time></trkpt><trkpt lat="43.4862917" lon="10.7459583"><ele>68.0</ele><time>2026-04-06T07:20:17.337Z</time></trkpt><trkpt lat="43.48619" lon="10.7460417"><ele>68.0</ele><time>2026-04-06T07:20:18.338Z</time></trkpt><trkpt lat="43.48609" lon="10.7461233"><ele>68.0</ele><time>2026-04-06T07:20:19.336Z</time></trkpt><trkpt lat="43.4859917" lon="10.7462083"><ele>68.0</ele><time>2026-04-06T07:20:20.338Z</time></trkpt><trkpt lat="43.485895" lon="10.7463"><ele>68.0</ele><time>2026-04-06T07:20:21.337Z</time></trkpt><trkpt lat="43.485805" lon="10.7463967"><ele>68.0</ele><time>2026-04-06T07:20:22.332Z</time></trkpt><trkpt lat="43.48572" lon="10.7465033"><ele>68.0</ele><time>2026-04-06T07:20:23.336Z</time></trkpt><trkpt lat="43.48564" lon="10.7466183"><ele>68.0</ele><time>2026-04-06T07:20:24.337Z</time></trkpt><trkpt lat="43.485565" lon="10.7467383"><ele>68.0</ele><time>2026-04-06T07:20:25.343Z</time></trkpt><trkpt lat="43.485495" lon="10.74686"><ele>68.0</ele><time>2026-04-06T07:20:26.34Z</time></trkpt><trkpt lat="43.485425" lon="10.7469883"><ele>68.0</ele><time>2026-04-06T07:20:27.34Z</time></trkpt><trkpt lat="43.4853567" lon="10.7471217"><ele>69.5</ele><time>2026-04-06T07:20:28.339Z</time></trkpt><trkpt lat="43.48529" lon="10.7472533"><ele>71.0</ele><time>2026-04-06T07:20:29.337Z</time></trkpt><trkpt lat="43.4852267" lon="10.7473817"><ele>72.5</ele><time>2026-04-06T07:20:30.339Z</time></trkpt><trkpt lat="43.4851567" lon="10.7475083"><ele>74.0</ele><time>2026-04-06T07:20:31.338Z</time></trkpt><trkpt lat="43.4850833" lon="10.7476317"><ele>72.25</ele><time>2026-04-06T07:20:32.339Z</time></trkpt><trkpt lat="43.4850033" lon="10.7477483"><ele>70.5</ele><time>2026-04-06T07:20:33.336Z</time></trkpt><trkpt lat="43.48492" lon="10.7478583"><ele>68.75</ele><time>2026-04-06T07:20:34.341Z</time></trkpt><trkpt lat="43.4848283" lon="10.7479617"><ele>67.0</ele><time>2026-04-06T07:20:35.339Z</time></trkpt><trkpt lat="43.4847317" lon="10.7480567"><ele>67.0</ele><time>2026-04-06T07:20:36.339Z</time></trkpt><trkpt lat="43.4846283" lon="10.7481417"><ele>67.0</ele><time>2026-04-06T07:20:37.336Z</time></trkpt><trkpt lat="43.4845233" lon="10.7482167"><ele>67.0</ele><time>2026-04-06T07:20:38.341Z</time></trkpt><trkpt lat="43.4844133" lon="10.748285"><ele>67.0</ele><time>2026-04-06T07:20:39.336Z</time></trkpt><trkpt lat="43.4843033" lon="10.7483483"><ele>66.5</ele><time>2026-04-06T07:20:40.336Z</time></trkpt><trkpt lat="43.484195" lon="10.748415"><ele>66.0</ele><time>2026-04-06T07:20:41.335Z</time></trkpt><trkpt lat="43.48409" lon="10.7484817"><ele>65.5</ele><time>2026-04-06T07:20:42.337Z</time></trkpt><trkpt lat="43.4839883" lon="10.74855"><ele>65.0</ele><time>2026-04-06T07:20:43.337Z</time></trkpt><trkpt lat="43.483885" lon="10.7486183"><ele>65.0</ele><time>2026-04-06T07:20:44.338Z</time></trkpt><trkpt lat="43.483785" lon="10.7486917"><ele>65.0</ele><time>2026-04-06T07:20:45.337Z</time></trkpt><trkpt lat="43.4836867" lon="10.7487683"><ele>65.0</ele><time>2026-04-06T07:20:46.335Z</time></trkpt><trkpt lat="43.48359" lon="10.748845"><ele>65.0</ele><time>2026-04-06T07:20:47.336Z</time></trkpt><trkpt lat="43.483495" lon="10.7489283"><ele>66.75</ele><time>2026-04-06T07:20:48.337Z</time></trkpt><trkpt lat="43.4834017" lon="10.7490117"><ele>68.5</ele><time>2026-04-06T07:20:49.338Z</time></trkpt><trkpt lat="43.4833083" lon="10.7491033"><ele>70.25</ele><time>2026-04-06T07:20:50.34Z</time></trkpt><trkpt lat="43.4832183" lon="10.7491967"><ele>72.0</ele><time>2026-04-06T07:20:51.339Z</time></trkpt><trkpt lat="43.48313" lon="10.7492983"><ele>72.25</ele><time>2026-04-06T07:20:52.337Z</time></trkpt><trkpt lat="43.4830417" lon="10.7494033"><ele>72.5</ele><time>2026-04-06T07:20:53.338Z</time></trkpt><trkpt lat="43.4829517" lon="10.74951"><ele>72.75</ele><time>2026-04-06T07:20:54.336Z</time></trkpt><trkpt lat="43.48286" lon="10.7496167"><ele>73.0</ele><time>2026-04-06T07:20:55.337Z</time></trkpt><trkpt lat="43.4827683" lon="10.7497267"><ele>73.0</ele><time>2026-04-06T07:20:56.34Z</time></trkpt><trkpt lat="43.4826783" lon="10.749835"><ele>73.0</ele><time>2026-04-06T07:20:57.338Z</time></trkpt><trkpt lat="43.48259" lon="10.74994"><ele>73.0</ele><time>2026-04-06T07:20:58.338Z</time></trkpt><trkpt lat="43.4825017" lon="10.7500467"><ele>73.0</ele><time>2026-04-06T07:20:59.335Z</time></trkpt><trkpt lat="43.482415" lon="10.7501467"><ele>73.2</ele><time>2026-04-06T07:21:00.338Z</time></trkpt><trkpt lat="43.4823317" lon="10.75025"><ele>73.4</ele><time>2026-04-06T07:21:01.341Z</time></trkpt><trkpt lat="43.4822483" lon="10.750355"><ele>73.60000000000001</ele><time>2026-04-06T07:21:02.341Z</time></trkpt><trkpt lat="43.482165" lon="10.750455"><ele>73.8</ele><time>2026-04-06T07:21:03.339Z</time></trkpt><trkpt lat="43.48208" lon="10.7505517"><ele>74.0</ele><time>2026-04-06T07:21:04.336Z</time></trkpt><trkpt lat="43.481995" lon="10.750645"><ele>74.0</ele><time>2026-04-06T07:21:05.342Z</time></trkpt><trkpt lat="43.48191" lon="10.7507433"><ele>74.0</ele><time>2026-04-06T07:21:06.337Z</time></trkpt><trkpt lat="43.4818267" lon="10.7508417"><ele>74.0</ele><time>2026-04-06T07:21:07.339Z</time></trkpt><trkpt lat="43.4817467" lon="10.7509367"><ele>74.0</ele><time>2026-04-06T07:21:08.339Z</time></trkpt><trkpt lat="43.4816667" lon="10.7510317"><ele>74.0</ele><time>2026-04-06T07:21:09.337Z</time></trkpt><trkpt lat="43.4815883" lon="10.7511217"><ele>74.2</ele><time>2026-04-06T07:21:10.345Z</time></trkpt><trkpt lat="43.481515" lon="10.7512083"><ele>74.4</ele><time>2026-04-06T07:21:11.338Z</time></trkpt><trkpt lat="43.481435" lon="10.7513017"><ele>74.6</ele><time>2026-04-06T07:21:12.338Z</time></trkpt><trkpt lat="43.481355" lon="10.7513983"><ele>74.8</ele><time>2026-04-06T07:21:13.339Z</time></trkpt><trkpt lat="43.4812733" lon="10.7514917"><ele>75.0</ele><time>2026-04-06T07:21:14.34Z</time></trkpt><trkpt lat="43.4811933" lon="10.7515833"><ele>75.0</ele><time>2026-04-06T07:21:15.337Z</time></trkpt><trkpt lat="43.4811133" lon="10.75168"><ele>75.0</ele><time>2026-04-06T07:21:16.339Z</time></trkpt><trkpt lat="43.4810367" lon="10.7517767"><ele>75.0</ele><time>2026-04-06T07:21:17.337Z</time></trkpt><trkpt lat="43.48096" lon="10.7518767"><ele>75.0</ele><time>2026-04-06T07:21:18.338Z</time></trkpt><trkpt lat="43.4808833" lon="10.751985"><ele>75.0</ele><time>2026-04-06T07:21:19.338Z</time></trkpt><trkpt lat="43.4808117" lon="10.7520967"><ele>74.6</ele><time>2026-04-06T07:21:20.341Z</time></trkpt><trkpt lat="43.4807417" lon="10.7522117"><ele>74.2</ele><time>2026-04-06T07:21:21.337Z</time></trkpt><trkpt lat="43.4806783" lon="10.7523283"><ele>73.8</ele><time>2026-04-06T07:21:22.335Z</time></trkpt><trkpt lat="43.4806167" lon="10.7524483"><ele>73.4</ele><time>2026-04-06T07:21:23.338Z</time></trkpt><trkpt lat="43.480555" lon="10.752575"><ele>73.0</ele><time>2026-04-06T07:21:24.348Z</time></trkpt><trkpt lat="43.4804917" lon="10.7527"><ele>74.2</ele><time>2026-04-06T07:21:25.339Z</time></trkpt><trkpt lat="43.480425" lon="10.7528283"><ele>75.4</ele><time>2026-04-06T07:21:26.337Z</time></trkpt><trkpt lat="43.4803583" lon="10.752955"><ele>76.60000000000001</ele><time>2026-04-06T07:21:27.336Z</time></trkpt><trkpt lat="43.4802967" lon="10.7530783"><ele>77.8</ele><time>2026-04-06T07:21:28.336Z</time></trkpt><trkpt lat="43.4802333" lon="10.7532"><ele>79.0</ele><time>2026-04-06T07:21:29.338Z</time></trkpt><trkpt lat="43.48017" lon="10.75332"><ele>79.0</ele><time>2026-04-06T07:21:30.336Z</time></trkpt><trkpt lat="43.4801067" lon="10.7534367"><ele>79.0</ele><time>2026-04-06T07:21:31.341Z</time></trkpt><trkpt lat="43.4800433" lon="10.7535533"><ele>79.0</ele><time>2026-04-06T07:21:32.338Z</time></trkpt><trkpt lat="43.479975" lon="10.7536683"><ele>79.0</ele><time>2026-04-06T07:21:33.336Z</time></trkpt><trkpt lat="43.4799083" lon="10.7537767"><ele>79.0</ele><time>2026-04-06T07:21:34.339Z</time></trkpt><trkpt lat="43.47984" lon="10.7538867"><ele>79.80000000000001</ele><time>2026-04-06T07:21:35.337Z</time></trkpt><trkpt lat="43.47977" lon="10.7539967"><ele>80.60000000000001</ele><time>2026-04-06T07:21:36.338Z</time></trkpt><trkpt lat="43.4796967" lon="10.7541083"><ele>81.4</ele><time>2026-04-06T07:21:37.337Z</time></trkpt><trkpt lat="43.4796267" lon="10.7542167"><ele>82.2</ele><time>2026-04-06T07:21:38.34Z</time></trkpt><trkpt lat="43.479555" lon="10.754325"><ele>83.0</ele><time>2026-04-06T07:21:39.34Z</time></trkpt><trkpt lat="43.4794817" lon="10.75443"><ele>81.4</ele><time>2026-04-06T07:21:40.338Z</time></trkpt><trkpt lat="43.4794067" lon="10.7545417"><ele>79.80000000000001</ele><time>2026-04-06T07:21:41.34Z</time></trkpt><trkpt lat="43.479335" lon="10.7546483"><ele>78.2</ele><time>2026-04-06T07:21:42.338Z</time></trkpt><trkpt lat="43.47926" lon="10.7547567"><ele>76.6</ele><time>2026-04-06T07:21:43.336Z</time></trkpt><trkpt lat="43.479185" lon="10.754865"><ele>75.0</ele><time>2026-04-06T07:21:44.339Z</time></trkpt><trkpt lat="43.4791117" lon="10.7549733"><ele>75.0</ele><time>2026-04-06T07:21:45.338Z</time></trkpt><trkpt lat="43.47904" lon="10.75508"><ele>75.0</ele><time>2026-04-06T07:21:46.344Z</time></trkpt><trkpt lat="43.478965" lon="10.75519"><ele>75.0</ele><time>2026-04-06T07:21:47.341Z</time></trkpt><trkpt lat="43.47889" lon="10.7553"><ele>75.0</ele><time>2026-04-06T07:21:48.338Z</time></trkpt><trkpt lat="43.4788133" lon="10.75541"><ele>75.0</ele><time>2026-04-06T07:21:49.337Z</time></trkpt><trkpt lat="43.4787383" lon="10.7555183"><ele>75.0</ele><time>2026-04-06T07:21:50.341Z</time></trkpt><trkpt lat="43.4786617" lon="10.7556283"><ele>75.0</ele><time>2026-04-06T07:21:51.339Z</time></trkpt><trkpt lat="43.4785867" lon="10.7557367"><ele>75.0</ele><time>2026-04-06T07:21:52.337Z</time></trkpt><trkpt lat="43.4785083" lon="10.7558467"><ele>75.0</ele><time>2026-04-06T07:21:53.34Z</time></trkpt><trkpt lat="43.4784333" lon="10.7559533"><ele>75.0</ele><time>2026-04-06T07:21:54.337Z</time></trkpt><trkpt lat="43.47836" lon="10.7560633"><ele>74.8</ele><time>2026-04-06T07:21:55.337Z</time></trkpt><trkpt lat="43.4782883" lon="10.7561783"><ele>74.6</ele><time>2026-04-06T07:21:56.338Z</time></trkpt><trkpt lat="43.4782183" lon="10.7562983"><ele>74.4</ele><time>2026-04-06T07:21:57.338Z</time></trkpt><trkpt lat="43.4781517" lon="10.7564267"><ele>74.2</ele><time>2026-04-06T07:21:58.337Z</time></trkpt><trkpt lat="43.4780933" lon="10.75656"><ele>74.0</ele><time>2026-04-06T07:21:59.34Z</time></trkpt><trkpt lat="43.4780383" lon="10.7567"><ele>74.0</ele><time>2026-04-06T07:22:00.337Z</time></trkpt><trkpt lat="43.4779933" lon="10.756845"><ele>74.0</ele><time>2026-04-06T07:22:01.34Z</time></trkpt><trkpt lat="43.47795" lon="10.7569883"><ele>74.0</ele><time>2026-04-06T07:22:02.339Z</time></trkpt><trkpt lat="43.47791" lon="10.7571267"><ele>74.0</ele><time>2026-04-06T07:22:03.336Z</time></trkpt><trkpt lat="43.47787" lon="10.7572683"><ele>74.0</ele><time>2026-04-06T07:22:04.338Z</time></trkpt><trkpt lat="43.47783" lon="10.7574133"><ele>73.75</ele><time>2026-04-06T07:22:05.341Z</time></trkpt><trkpt lat="43.477785" lon="10.75756"><ele>73.5</ele><time>2026-04-06T07:22:06.343Z</time></trkpt><trkpt lat="43.47774" lon="10.7577083"><ele>73.25</ele><time>2026-04-06T07:22:07.339Z</time></trkpt><trkpt lat="43.4776933" lon="10.7578567"><ele>73.0</ele><time>2026-04-06T07:22:08.342Z</time></trkpt><trkpt lat="43.477645" lon="10.7580033"><ele>73.0</ele><time>2026-04-06T07:22:09.36Z</time></trkpt><trkpt lat="43.4775967" lon="10.7581517"><ele>73.0</ele><time>2026-04-06T07:22:10.343Z</time></trkpt><trkpt lat="43.4775467" lon="10.7583"><ele>73.0</ele><time>2026-04-06T07:22:11.334Z</time></trkpt><trkpt lat="43.4775" lon="10.7584467"><ele>73.0</ele><time>2026-04-06T07:22:12.338Z</time></trkpt><trkpt lat="43.4774533" lon="10.758595"><ele>72.4</ele><time>2026-04-06T07:22:13.336Z</time></trkpt><trkpt lat="43.4774133" lon="10.758745"><ele>71.8</ele><time>2026-04-06T07:22:14.338Z</time></trkpt><trkpt lat="43.4773733" lon="10.7588883"><ele>71.2</ele><time>2026-04-06T07:22:15.347Z</time></trkpt><trkpt lat="43.477335" lon="10.7590267"><ele>70.6</ele><time>2026-04-06T07:22:16.337Z</time></trkpt><trkpt lat="43.477295" lon="10.7591633"><ele>70.0</ele><time>2026-04-06T07:22:17.339Z</time></trkpt><trkpt lat="43.4772533" lon="10.7592967"><ele>70.0</ele><time>2026-04-06T07:22:18.342Z</time></trkpt><trkpt lat="43.4772083" lon="10.75943"><ele>70.0</ele><time>2026-04-06T07:22:19.337Z</time></trkpt><trkpt lat="43.477165" lon="10.7595667"><ele>70.0</ele><time>2026-04-06T07:22:20.337Z</time></trkpt><trkpt lat="43.4771233" lon="10.759705"><ele>70.0</ele><time>2026-04-06T07:22:21.339Z</time></trkpt><trkpt lat="43.47708" lon="10.759845"><ele>70.0</ele><time>2026-04-06T07:22:22.34Z</time></trkpt><trkpt lat="43.4770383" lon="10.7599867"><ele>72.0</ele><time>2026-04-06T07:22:23.339Z</time></trkpt><trkpt lat="43.476995" lon="10.7601283"><ele>74.0</ele><time>2026-04-06T07:22:24.338Z</time></trkpt><trkpt lat="43.4769483" lon="10.760275"><ele>76.0</ele><time>2026-04-06T07:22:25.338Z</time></trkpt><trkpt lat="43.4769033" lon="10.7604167"><ele>78.0</ele><time>2026-04-06T07:22:26.339Z</time></trkpt><trkpt lat="43.4768567" lon="10.76056"><ele>78.0</ele><time>2026-04-06T07:22:27.335Z</time></trkpt><trkpt lat="43.4768117" lon="10.7607067"><ele>78.0</ele><time>2026-04-06T07:22:28.34Z</time></trkpt><trkpt lat="43.4767667" lon="10.7608567"><ele>78.0</ele><time>2026-04-06T07:22:29.337Z</time></trkpt><trkpt lat="43.4767267" lon="10.7610083"><ele>78.0</ele><time>2026-04-06T07:22:30.341Z</time></trkpt><trkpt lat="43.4766933" lon="10.7611667"><ele>77.5</ele><time>2026-04-06T07:22:31.34Z</time></trkpt><trkpt lat="43.4766683" lon="10.7613283"><ele>77.0</ele><time>2026-04-06T07:22:32.339Z</time></trkpt><trkpt lat="43.4766517" lon="10.7614917"><ele>76.5</ele><time>2026-04-06T07:22:33.338Z</time></trkpt><trkpt lat="43.47664" lon="10.7616517"><ele>76.0</ele><time>2026-04-06T07:22:34.337Z</time></trkpt><trkpt lat="43.4766333" lon="10.7618117"><ele>76.2</ele><time>2026-04-06T07:22:35.338Z</time></trkpt><trkpt lat="43.4766233" lon="10.76197"><ele>76.39999999999999</ele><time>2026-04-06T07:22:36.337Z</time></trkpt><trkpt lat="43.4766117" lon="10.7621217"><ele>76.6</ele><time>2026-04-06T07:22:37.339Z</time></trkpt><trkpt lat="43.4765967" lon="10.7622717"><ele>76.8</ele><time>2026-04-06T07:22:38.337Z</time></trkpt><trkpt lat="43.476575" lon="10.7624183"><ele>77.0</ele><time>2026-04-06T07:22:39.339Z</time></trkpt><trkpt lat="43.47655" lon="10.7625567"><ele>77.0</ele><time>2026-04-06T07:22:40.336Z</time></trkpt><trkpt lat="43.4765133" lon="10.7626767"><ele>77.0</ele><time>2026-04-06T07:22:41.338Z</time></trkpt><trkpt lat="43.4764617" lon="10.76278"><ele>77.0</ele><time>2026-04-06T07:22:42.338Z</time></trkpt><trkpt lat="43.4764" lon="10.7628683"><ele>77.0</ele><time>2026-04-06T07:22:43.337Z</time></trkpt><trkpt lat="43.4763317" lon="10.76294"><ele>77.0</ele><time>2026-04-06T07:22:44.339Z</time></trkpt><trkpt lat="43.4762533" lon="10.762995"><ele>77.0</ele><time>2026-04-06T07:22:45.339Z</time></trkpt><trkpt lat="43.4761667" lon="10.76304"><ele>78.0</ele><time>2026-04-06T07:22:46.337Z</time></trkpt><trkpt lat="43.476075" lon="10.7630767"><ele>79.0</ele><time>2026-04-06T07:22:47.338Z</time></trkpt><trkpt lat="43.47598" lon="10.7631067"><ele>80.0</ele><time>2026-04-06T07:22:48.341Z</time></trkpt><trkpt lat="43.475885" lon="10.763135"><ele>81.0</ele><time>2026-04-06T07:22:49.341Z</time></trkpt><trkpt lat="43.4757867" lon="10.763165"><ele>82.0</ele><time>2026-04-06T07:22:50.336Z</time></trkpt><trkpt lat="43.4756833" lon="10.7631917"><ele>82.0</ele><time>2026-04-06T07:22:51.347Z</time></trkpt><trkpt lat="43.4755767" lon="10.7632217"><ele>82.0</ele><time>2026-04-06T07:22:52.336Z</time></trkpt><trkpt lat="43.47547" lon="10.7632467"><ele>82.0</ele><time>2026-04-06T07:22:53.337Z</time></trkpt><trkpt lat="43.475365" lon="10.7632717"><ele>82.0</ele><time>2026-04-06T07:22:54.34Z</time></trkpt><trkpt lat="43.47526" lon="10.7632983"><ele>82.0</ele><time>2026-04-06T07:22:55.338Z</time></trkpt><trkpt lat="43.4751483" lon="10.7633283"><ele>82.25</ele><time>2026-04-06T07:22:56.337Z</time></trkpt><trkpt lat="43.4750367" lon="10.76336"><ele>82.5</ele><time>2026-04-06T07:22:57.336Z</time></trkpt><trkpt lat="43.4749217" lon="10.7633917"><ele>82.75</ele><time>2026-04-06T07:22:58.336Z</time></trkpt><trkpt lat="43.4748067" lon="10.7634183"><ele>83.0</ele><time>2026-04-06T07:22:59.337Z</time></trkpt><trkpt lat="43.4746867" lon="10.7634417"><ele>82.75</ele><time>2026-04-06T07:23:00.338Z</time></trkpt><trkpt lat="43.4745683" lon="10.7634583"><ele>82.5</ele><time>2026-04-06T07:23:01.336Z</time></trkpt><trkpt lat="43.4744467" lon="10.7634683"><ele>82.25</ele><time>2026-04-06T07:23:02.338Z</time></trkpt><trkpt lat="43.474325" lon="10.7634683"><ele>82.0</ele><time>2026-04-06T07:23:03.338Z</time></trkpt><trkpt lat="43.4742067" lon="10.76346"><ele>82.0</ele><time>2026-04-06T07:23:04.34Z</time></trkpt><trkpt lat="43.4740917" lon="10.7634433"><ele>82.0</ele><time>2026-04-06T07:23:05.343Z</time></trkpt><trkpt lat="43.473975" lon="10.7634283"><ele>82.0</ele><time>2026-04-06T07:23:06.338Z</time></trkpt><trkpt lat="43.4738567" lon="10.76341"><ele>82.0</ele><time>2026-04-06T07:23:07.34Z</time></trkpt><trkpt lat="43.47374" lon="10.7633917"><ele>82.25</ele><time>2026-04-06T07:23:08.339Z</time></trkpt><trkpt lat="43.47362" lon="10.7633783"><ele>82.5</ele><time>2026-04-06T07:23:09.338Z</time></trkpt><trkpt lat="43.4735017" lon="10.763365"><ele>82.75</ele><time>2026-04-06T07:23:10.34Z</time></trkpt><trkpt lat="43.47338" lon="10.76335"><ele>83.0</ele><time>2026-04-06T07:23:11.343Z</time></trkpt><trkpt lat="43.4732633" lon="10.7633333"><ele>83.0</ele><time>2026-04-06T07:23:12.34Z</time></trkpt><trkpt lat="43.473145" lon="10.7633183"><ele>83.0</ele><time>2026-04-06T07:23:13.338Z</time></trkpt><trkpt lat="43.47303" lon="10.7633017"><ele>83.0</ele><time>2026-04-06T07:23:14.339Z</time></trkpt><trkpt lat="43.4729133" lon="10.7632867"><ele>83.0</ele><time>2026-04-06T07:23:15.34Z</time></trkpt><trkpt lat="43.4727983" lon="10.7632667"><ele>82.5</ele><time>2026-04-06T07:23:16.335Z</time></trkpt><trkpt lat="43.4726817" lon="10.7632467"><ele>82.0</ele><time>2026-04-06T07:23:17.336Z</time></trkpt><trkpt lat="43.472565" lon="10.763225"><ele>81.5</ele><time>2026-04-06T07:23:18.338Z</time></trkpt><trkpt lat="43.47245" lon="10.7632"><ele>81.0</ele><time>2026-04-06T07:23:19.34Z</time></trkpt><trkpt lat="43.4723383" lon="10.7631617"><ele>81.0</ele><time>2026-04-06T07:23:20.338Z</time></trkpt><trkpt lat="43.4722267" lon="10.7631133"><ele>81.0</ele><time>2026-04-06T07:23:21.34Z</time></trkpt><trkpt lat="43.472115" lon="10.7630583"><ele>81.0</ele><time>2026-04-06T07:23:22.339Z</time></trkpt><trkpt lat="43.472005" lon="10.763"><ele>81.0</ele><time>2026-04-06T07:23:23.338Z</time></trkpt><trkpt lat="43.4718967" lon="10.76294"><ele>80.75</ele><time>2026-04-06T07:23:24.337Z</time></trkpt><trkpt lat="43.47179" lon="10.7628783"><ele>80.5</ele><time>2026-04-06T07:23:25.337Z</time></trkpt><trkpt lat="43.4716817" lon="10.7628133"><ele>80.25</ele><time>2026-04-06T07:23:26.337Z</time></trkpt><trkpt lat="43.471575" lon="10.7627467"><ele>80.0</ele><time>2026-04-06T07:23:27.344Z</time></trkpt><trkpt lat="43.4714667" lon="10.7626783"><ele>80.75</ele><time>2026-04-06T07:23:28.339Z</time></trkpt><trkpt lat="43.4713567" lon="10.7626117"><ele>81.5</ele><time>2026-04-06T07:23:29.337Z</time></trkpt><trkpt lat="43.471245" lon="10.7625433"><ele>82.25</ele><time>2026-04-06T07:23:30.336Z</time></trkpt><trkpt lat="43.4711333" lon="10.7624717"><ele>83.0</ele><time>2026-04-06T07:23:31.336Z</time></trkpt><trkpt lat="43.4710233" lon="10.7624"><ele>83.0</ele><time>2026-04-06T07:23:32.336Z</time></trkpt><trkpt lat="43.470915" lon="10.7623267"><ele>83.0</ele><time>2026-04-06T07:23:33.336Z</time></trkpt><trkpt lat="43.4708033" lon="10.7622583"><ele>83.0</ele><time>2026-04-06T07:23:34.337Z</time></trkpt><trkpt lat="43.4706933" lon="10.76219"><ele>83.0</ele><time>2026-04-06T07:23:35.339Z</time></trkpt><trkpt lat="43.4705817" lon="10.7621267"><ele>83.0</ele><time>2026-04-06T07:23:36.336Z</time></trkpt><trkpt lat="43.4704717" lon="10.762065"><ele>83.0</ele><time>2026-04-06T07:23:37.339Z</time></trkpt><trkpt lat="43.4703633" lon="10.7620033"><ele>83.0</ele><time>2026-04-06T07:23:38.339Z</time></trkpt><trkpt lat="43.470255" lon="10.7619383"><ele>83.0</ele><time>2026-04-06T07:23:39.335Z</time></trkpt><trkpt lat="43.4701483" lon="10.7618717"><ele>83.25</ele><time>2026-04-06T07:23:40.339Z</time></trkpt><trkpt lat="43.47004" lon="10.7618067"><ele>83.5</ele><time>2026-04-06T07:23:41.337Z</time></trkpt><trkpt lat="43.4699317" lon="10.7617417"><ele>83.75</ele><time>2026-04-06T07:23:42.338Z</time></trkpt><trkpt lat="43.4698217" lon="10.761685"><ele>84.0</ele><time>2026-04-06T07:23:43.337Z</time></trkpt><trkpt lat="43.4697133" lon="10.7616333"><ele>84.0</ele><time>2026-04-06T07:23:44.337Z</time></trkpt><trkpt lat="43.4696" lon="10.76159"><ele>84.0</ele><time>2026-04-06T07:23:45.336Z</time></trkpt><trkpt lat="43.4694867" lon="10.76155"><ele>84.0</ele><time>2026-04-06T07:23:46.338Z</time></trkpt><trkpt lat="43.469375" lon="10.7615133"><ele>84.0</ele><time>2026-04-06T07:23:47.337Z</time></trkpt><trkpt lat="43.46926" lon="10.76148"><ele>84.0</ele><time>2026-04-06T07:23:48.335Z</time></trkpt><trkpt lat="43.4691417" lon="10.76145"><ele>84.0</ele><time>2026-04-06T07:23:49.339Z</time></trkpt><trkpt lat="43.4690267" lon="10.7614183"><ele>84.0</ele><time>2026-04-06T07:23:50.339Z</time></trkpt><trkpt lat="43.468915" lon="10.7613817"><ele>84.0</ele><time>2026-04-06T07:23:51.34Z</time></trkpt><trkpt lat="43.4688017" lon="10.7613483"><ele>83.25</ele><time>2026-04-06T07:23:52.337Z</time></trkpt><trkpt lat="43.4686883" lon="10.76131"><ele>82.5</ele><time>2026-04-06T07:23:53.336Z</time></trkpt><trkpt lat="43.4685733" lon="10.7612733"><ele>81.75</ele><time>2026-04-06T07:23:54.337Z</time></trkpt><trkpt lat="43.46846" lon="10.7612367"><ele>81.0</ele><time>2026-04-06T07:23:55.337Z</time></trkpt><trkpt lat="43.4683467" lon="10.7612017"><ele>81.0</ele><time>2026-04-06T07:23:56.337Z</time></trkpt><trkpt lat="43.4682283" lon="10.7611667"><ele>81.0</ele><time>2026-04-06T07:23:57.339Z</time></trkpt><trkpt lat="43.4681117" lon="10.7611317"><ele>81.0</ele><time>2026-04-06T07:23:58.34Z</time></trkpt><trkpt lat="43.467995" lon="10.7610983"><ele>81.0</ele><time>2026-04-06T07:23:59.336Z</time></trkpt><trkpt lat="43.46788" lon="10.7610617"><ele>82.5</ele><time>2026-04-06T07:24:00.337Z</time></trkpt><trkpt lat="43.4677617" lon="10.7610267"><ele>84.0</ele><time>2026-04-06T07:24:01.337Z</time></trkpt><trkpt lat="43.4676417" lon="10.7609917"><ele>85.5</ele><time>2026-04-06T07:24:02.339Z</time></trkpt><trkpt lat="43.46752" lon="10.7609567"><ele>87.0</ele><time>2026-04-06T07:24:03.338Z</time></trkpt><trkpt lat="43.4673983" lon="10.76092"><ele>87.0</ele><time>2026-04-06T07:24:04.339Z</time></trkpt><trkpt lat="43.4672783" lon="10.7608833"><ele>87.0</ele><time>2026-04-06T07:24:05.338Z</time></trkpt><trkpt lat="43.4671567" lon="10.7608483"><ele>87.0</ele><time>2026-04-06T07:24:06.339Z</time></trkpt><trkpt lat="43.467035" lon="10.7608133"><ele>87.0</ele><time>2026-04-06T07:24:07.339Z</time></trkpt><trkpt lat="43.4669117" lon="10.7607783"><ele>86.0</ele><time>2026-04-06T07:24:08.336Z</time></trkpt><trkpt lat="43.4667917" lon="10.7607417"><ele>85.0</ele><time>2026-04-06T07:24:09.339Z</time></trkpt><trkpt lat="43.4666719" lon="10.7607069"><ele>84.0</ele><time>2026-04-06T07:24:10.337Z</time></trkpt><trkpt lat="43.4665526" lon="10.7606718"><ele>83.0</ele><time>2026-04-06T07:24:11.339Z</time></trkpt><trkpt lat="43.4664357" lon="10.7606305"><ele>83.0</ele><time>2026-04-06T07:24:12.337Z</time></trkpt><trkpt lat="43.4663177" lon="10.7605917"><ele>83.0</ele><time>2026-04-06T07:24:13.34Z</time></trkpt><trkpt lat="43.4662022" lon="10.7605534"><ele>83.0</ele><time>2026-04-06T07:24:14.339Z</time></trkpt><trkpt lat="43.4660862" lon="10.7605175"><ele>83.0</ele><time>2026-04-06T07:24:15.342Z</time></trkpt><trkpt lat="43.4659715" lon="10.7604824"><ele>82.5</ele><time>2026-04-06T07:24:16.334Z</time></trkpt><trkpt lat="43.4658575" lon="10.7604505"><ele>82.0</ele><time>2026-04-06T07:24:17.343Z</time></trkpt><trkpt lat="43.4657461" lon="10.7604265"><ele>81.5</ele><time>2026-04-06T07:24:18.335Z</time></trkpt><trkpt lat="43.4656344" lon="10.7604135"><ele>81.0</ele><time>2026-04-06T07:24:19.337Z</time></trkpt><trkpt lat="43.4655213" lon="10.7604081"><ele>81.25</ele><time>2026-04-06T07:24:20.336Z</time></trkpt><trkpt lat="43.4654066" lon="10.7604094"><ele>81.5</ele><time>2026-04-06T07:24:21.339Z</time></trkpt><trkpt lat="43.4652901" lon="10.7604159"><ele>81.75</ele><time>2026-04-06T07:24:22.336Z</time></trkpt><trkpt lat="43.4651731" lon="10.7604277"><ele>82.0</ele><time>2026-04-06T07:24:23.338Z</time></trkpt><trkpt lat="43.4650535" lon="10.7604427"><ele>82.0</ele><time>2026-04-06T07:24:24.337Z</time></trkpt><trkpt lat="43.4649319" lon="10.7604632"><ele>82.0</ele><time>2026-04-06T07:24:25.337Z</time></trkpt><trkpt lat="43.4648071" lon="10.7604824"><ele>82.0</ele><time>2026-04-06T07:24:26.34Z</time></trkpt><trkpt lat="43.4646807" lon="10.7605025"><ele>82.0</ele><time>2026-04-06T07:24:27.336Z</time></trkpt><trkpt lat="43.4645536" lon="10.7605258"><ele>82.25</ele><time>2026-04-06T07:24:28.336Z</time></trkpt><trkpt lat="43.4644309" lon="10.76055"><ele>82.5</ele><time>2026-04-06T07:24:29.338Z</time></trkpt><trkpt lat="43.4643106" lon="10.7605743"><ele>82.75</ele><time>2026-04-06T07:24:30.34Z</time></trkpt><trkpt lat="43.4641952" lon="10.7605957"><ele>83.0</ele><time>2026-04-06T07:24:31.334Z</time></trkpt><trkpt lat="43.4640806" lon="10.7606129"><ele>83.0</ele><time>2026-04-06T07:24:32.34Z</time></trkpt><trkpt lat="43.4639652" lon="10.760621"><ele>83.0</ele><time>2026-04-06T07:24:33.338Z</time></trkpt><trkpt lat="43.463849" lon="10.7606229"><ele>83.0</ele><time>2026-04-06T07:24:34.336Z</time></trkpt><trkpt lat="43.4637316" lon="10.7606196"><ele>83.0</ele><time>2026-04-06T07:24:35.339Z</time></trkpt><trkpt lat="43.4636136" lon="10.7606075"><ele>83.75</ele><time>2026-04-06T07:24:36.337Z</time></trkpt><trkpt lat="43.463497" lon="10.7605901"><ele>84.5</ele><time>2026-04-06T07:24:37.337Z</time></trkpt><trkpt lat="43.4633776" lon="10.7605754"><ele>85.25</ele><time>2026-04-06T07:24:38.339Z</time></trkpt><trkpt lat="43.4632589" lon="10.7605636"><ele>86.0</ele><time>2026-04-06T07:24:39.338Z</time></trkpt><trkpt lat="43.4631414" lon="10.7605595"><ele>86.0</ele><time>2026-04-06T07:24:40.336Z</time></trkpt><trkpt lat="43.4630256" lon="10.7605638"><ele>86.0</ele><time>2026-04-06T07:24:41.342Z</time></trkpt><trkpt lat="43.4629128" lon="10.7605793"><ele>86.0</ele><time>2026-04-06T07:24:42.337Z</time></trkpt><trkpt lat="43.4628015" lon="10.7606049"><ele>86.0</ele><time>2026-04-06T07:24:43.334Z</time></trkpt><trkpt lat="43.4626883" lon="10.7606391"><ele>86.5</ele><time>2026-04-06T07:24:44.346Z</time></trkpt><trkpt lat="43.462577" lon="10.7606771"><ele>87.0</ele><time>2026-04-06T07:24:45.338Z</time></trkpt><trkpt lat="43.4624668" lon="10.7607157"><ele>87.5</ele><time>2026-04-06T07:24:46.338Z</time></trkpt><trkpt lat="43.4623581" lon="10.7607485"><ele>88.0</ele><time>2026-04-06T07:24:47.338Z</time></trkpt><trkpt lat="43.4622461" lon="10.7607703"><ele>88.0</ele><time>2026-04-06T07:24:48.337Z</time></trkpt><trkpt lat="43.4621324" lon="10.7607787"><ele>88.0</ele><time>2026-04-06T07:24:49.339Z</time></trkpt><trkpt lat="43.4620186" lon="10.7607672"><ele>88.0</ele><time>2026-04-06T07:24:50.337Z</time></trkpt><trkpt lat="43.4619037" lon="10.7607358"><ele>88.0</ele><time>2026-04-06T07:24:51.338Z</time></trkpt><trkpt lat="43.4617929" lon="10.7606829"><ele>88.0</ele><time>2026-04-06T07:24:52.339Z</time></trkpt><trkpt lat="43.4616832" lon="10.7606151"><ele>88.0</ele><time>2026-04-06T07:24:53.339Z</time></trkpt><trkpt lat="43.4615735" lon="10.7605443"><ele>88.0</ele><time>2026-04-06T07:24:54.338Z</time></trkpt><trkpt lat="43.4614664" lon="10.7604687"><ele>88.0</ele><time>2026-04-06T07:24:55.337Z</time></trkpt><trkpt lat="43.461361" lon="10.7603953"><ele>87.25</ele><time>2026-04-06T07:24:56.342Z</time></trkpt><trkpt lat="43.4612576" lon="10.7603234"><ele>86.5</ele><time>2026-04-06T07:24:57.338Z</time></trkpt><trkpt lat="43.4611532" lon="10.7602529"><ele>85.75</ele><time>2026-04-06T07:24:58.338Z</time></trkpt><trkpt lat="43.4610485" lon="10.7601804"><ele>85.0</ele><time>2026-04-06T07:24:59.339Z</time></trkpt><trkpt lat="43.4609451" lon="10.760107"><ele>86.75</ele><time>2026-04-06T07:25:00.337Z</time></trkpt><trkpt lat="43.4608416" lon="10.7600332"><ele>88.5</ele><time>2026-04-06T07:25:01.337Z</time></trkpt><trkpt lat="43.4607366" lon="10.759961"><ele>90.25</ele><time>2026-04-06T07:25:02.338Z</time></trkpt><trkpt lat="43.4606302" lon="10.7598881"><ele>92.0</ele><time>2026-04-06T07:25:03.336Z</time></trkpt><trkpt lat="43.4605261" lon="10.7598136"><ele>91.19999999999999</ele><time>2026-04-06T07:25:04.338Z</time></trkpt><trkpt lat="43.4604205" lon="10.7597428"><ele>90.4</ele><time>2026-04-06T07:25:05.335Z</time></trkpt><trkpt lat="43.460321" lon="10.7596732"><ele>89.6</ele><time>2026-04-06T07:25:06.335Z</time></trkpt><trkpt lat="43.4602271" lon="10.7596063"><ele>88.80000000000001</ele><time>2026-04-06T07:25:07.338Z</time></trkpt><trkpt lat="43.4601382" lon="10.7595423"><ele>88.0</ele><time>2026-04-06T07:25:08.339Z</time></trkpt><trkpt lat="43.4600491" lon="10.7594908"><ele>88.0</ele><time>2026-04-06T07:25:09.338Z</time></trkpt><trkpt lat="43.4599594" lon="10.7594533"><ele>88.0</ele><time>2026-04-06T07:25:10.335Z</time></trkpt><trkpt lat="43.4598666" lon="10.7594354"><ele>88.0</ele><time>2026-04-06T07:25:11.337Z</time></trkpt><trkpt lat="43.4597717" lon="10.7594354"><ele>88.0</ele><time>2026-04-06T07:25:12.338Z</time></trkpt><trkpt lat="43.459679" lon="10.7594542"><ele>88.0</ele><time>2026-04-06T07:25:13.343Z</time></trkpt><trkpt lat="43.4595865" lon="10.759493"><ele>87.4</ele><time>2026-04-06T07:25:14.338Z</time></trkpt><trkpt lat="43.4595027" lon="10.7595431"><ele>86.80000000000001</ele><time>2026-04-06T07:25:15.338Z</time></trkpt><trkpt lat="43.4594247" lon="10.7596066"><ele>86.2</ele><time>2026-04-06T07:25:16.338Z</time></trkpt><trkpt lat="43.4593567" lon="10.759695"><ele>85.6</ele><time>2026-04-06T07:25:17.337Z</time></trkpt><trkpt lat="43.459295" lon="10.7597983"><ele>85.0</ele><time>2026-04-06T07:25:18.339Z</time></trkpt><trkpt lat="43.4592433" lon="10.7599117"><ele>85.0</ele><time>2026-04-06T07:25:19.338Z</time></trkpt><trkpt lat="43.459195" lon="10.7600333"><ele>85.0</ele><time>2026-04-06T07:25:20.342Z</time></trkpt><trkpt lat="43.4591483" lon="10.76016"><ele>85.0</ele><time>2026-04-06T07:25:21.341Z</time></trkpt><trkpt lat="43.4591017" lon="10.76029"><ele>85.0</ele><time>2026-04-06T07:25:22.339Z</time></trkpt><trkpt lat="43.4590517" lon="10.7604233"><ele>85.0</ele><time>2026-04-06T07:25:23.339Z</time></trkpt><trkpt lat="43.459005" lon="10.7605583"><ele>85.0</ele><time>2026-04-06T07:25:24.339Z</time></trkpt><trkpt lat="43.4589567" lon="10.7606933"><ele>85.0</ele><time>2026-04-06T07:25:25.338Z</time></trkpt><trkpt lat="43.45891" lon="10.76083"><ele>85.0</ele><time>2026-04-06T07:25:26.34Z</time></trkpt><trkpt lat="43.4588683" lon="10.7609617"><ele>85.0</ele><time>2026-04-06T07:25:27.338Z</time></trkpt><trkpt lat="43.4588217" lon="10.7610983"><ele>85.0</ele><time>2026-04-06T07:25:28.337Z</time></trkpt><trkpt lat="43.4587717" lon="10.7612367"><ele>85.8</ele><time>2026-04-06T07:25:29.339Z</time></trkpt><trkpt lat="43.4587233" lon="10.761375"><ele>86.6</ele><time>2026-04-06T07:25:30.338Z</time></trkpt><trkpt lat="43.4586767" lon="10.761515"><ele>87.4</ele><time>2026-04-06T07:25:31.337Z</time></trkpt><trkpt lat="43.4586267" lon="10.7616533"><ele>88.2</ele><time>2026-04-06T07:25:32.341Z</time></trkpt><trkpt lat="43.4585783" lon="10.7617917"><ele>89.0</ele><time>2026-04-06T07:25:33.336Z</time></trkpt><trkpt lat="43.458535" lon="10.7619333"><ele>89.4</ele><time>2026-04-06T07:25:34.337Z</time></trkpt><trkpt lat="43.4584967" lon="10.7620767"><ele>89.80000000000001</ele><time>2026-04-06T07:25:35.338Z</time></trkpt><trkpt lat="43.4584733" lon="10.7622233"><ele>90.19999999999999</ele><time>2026-04-06T07:25:36.337Z</time></trkpt><trkpt lat="43.4584633" lon="10.7623683"><ele>90.6</ele><time>2026-04-06T07:25:37.339Z</time></trkpt><trkpt lat="43.4584617" lon="10.7625167"><ele>91.0</ele><time>2026-04-06T07:25:38.341Z</time></trkpt><trkpt lat="43.4584617" lon="10.7626633"><ele>90.8</ele><time>2026-04-06T07:25:39.338Z</time></trkpt><trkpt lat="43.4584667" lon="10.7628067"><ele>90.6</ele><time>2026-04-06T07:25:40.339Z</time></trkpt><trkpt lat="43.45847" lon="10.762945"><ele>90.4</ele><time>2026-04-06T07:25:41.339Z</time></trkpt><trkpt lat="43.4584683" lon="10.7630833"><ele>90.2</ele><time>2026-04-06T07:25:42.343Z</time></trkpt><trkpt lat="43.45846" lon="10.7632217"><ele>90.0</ele><time>2026-04-06T07:25:43.341Z</time></trkpt><trkpt lat="43.4584417" lon="10.76336"><ele>90.0</ele><time>2026-04-06T07:25:44.339Z</time></trkpt><trkpt lat="43.4584083" lon="10.7634917"><ele>90.0</ele><time>2026-04-06T07:25:45.34Z</time></trkpt><trkpt lat="43.458355" lon="10.763615"><ele>90.0</ele><time>2026-04-06T07:25:46.336Z</time></trkpt><trkpt lat="43.4582883" lon="10.763725"><ele>90.0</ele><time>2026-04-06T07:25:47.338Z</time></trkpt><trkpt lat="43.4582117" lon="10.7638233"><ele>90.0</ele><time>2026-04-06T07:25:48.337Z</time></trkpt><trkpt lat="43.4581283" lon="10.7639167"><ele>89.8</ele><time>2026-04-06T07:25:49.337Z</time></trkpt><trkpt lat="43.4580417" lon="10.7640117"><ele>89.6</ele><time>2026-04-06T07:25:50.338Z</time></trkpt><trkpt lat="43.4579533" lon="10.7641017"><ele>89.4</ele><time>2026-04-06T07:25:51.337Z</time></trkpt><trkpt lat="43.4578717" lon="10.7641983"><ele>89.2</ele><time>2026-04-06T07:25:52.337Z</time></trkpt><trkpt lat="43.45779" lon="10.7642933"><ele>89.0</ele><time>2026-04-06T07:25:53.337Z</time></trkpt><trkpt lat="43.4577067" lon="10.7643883"><ele>89.0</ele><time>2026-04-06T07:25:54.339Z</time></trkpt><trkpt lat="43.45762" lon="10.7644883"><ele>89.0</ele><time>2026-04-06T07:25:55.338Z</time></trkpt><trkpt lat="43.4575317" lon="10.76459"><ele>89.0</ele><time>2026-04-06T07:25:56.338Z</time></trkpt><trkpt lat="43.4574467" lon="10.7646883"><ele>89.0</ele><time>2026-04-06T07:25:57.338Z</time></trkpt><trkpt lat="43.4573583" lon="10.7647933"><ele>89.0</ele><time>2026-04-06T07:25:58.339Z</time></trkpt><trkpt lat="43.4572683" lon="10.7648967"><ele>89.0</ele><time>2026-04-06T07:25:59.338Z</time></trkpt><trkpt lat="43.4571783" lon="10.7649967"><ele>89.0</ele><time>2026-04-06T07:26:00.341Z</time></trkpt><trkpt lat="43.4570883" lon="10.7650983"><ele>89.0</ele><time>2026-04-06T07:26:01.338Z</time></trkpt><trkpt lat="43.4569983" lon="10.7652017"><ele>89.25</ele><time>2026-04-06T07:26:02.34Z</time></trkpt><trkpt lat="43.4569067" lon="10.7653067"><ele>89.5</ele><time>2026-04-06T07:26:03.344Z</time></trkpt><trkpt lat="43.4568133" lon="10.76541"><ele>89.75</ele><time>2026-04-06T07:26:04.335Z</time></trkpt><trkpt lat="43.45672" lon="10.7655133"><ele>90.0</ele><time>2026-04-06T07:26:05.338Z</time></trkpt><trkpt lat="43.4565367" lon="10.765725"><ele>90.0</ele><time>2026-04-06T07:26:07.338Z</time></trkpt><trkpt lat="43.456445" lon="10.76583"><ele>90.0</ele><time>2026-04-06T07:26:08.34Z</time></trkpt><trkpt lat="43.456355" lon="10.7659317"><ele>90.0</ele><time>2026-04-06T07:26:09.338Z</time></trkpt><trkpt lat="43.456265" lon="10.76603"><ele>90.0</ele><time>2026-04-06T07:26:10.34Z</time></trkpt><trkpt lat="43.4561733" lon="10.76613"><ele>90.5</ele><time>2026-04-06T07:26:11.337Z</time></trkpt><trkpt lat="43.456075" lon="10.7662317"><ele>91.0</ele><time>2026-04-06T07:26:12.341Z</time></trkpt><trkpt lat="43.4559783" lon="10.7663417"><ele>91.5</ele><time>2026-04-06T07:26:13.337Z</time></trkpt><trkpt lat="43.4558833" lon="10.76645"><ele>92.0</ele><time>2026-04-06T07:26:14.342Z</time></trkpt><trkpt lat="43.455785" lon="10.766555"><ele>92.0</ele><time>2026-04-06T07:26:15.338Z</time></trkpt><trkpt lat="43.4556883" lon="10.76666"><ele>92.0</ele><time>2026-04-06T07:26:16.337Z</time></trkpt><trkpt lat="43.4555917" lon="10.76677"><ele>92.0</ele><time>2026-04-06T07:26:17.336Z</time></trkpt><trkpt lat="43.455495" lon="10.7668783"><ele>92.0</ele><time>2026-04-06T07:26:18.339Z</time></trkpt><trkpt lat="43.4553983" lon="10.7669883"><ele>92.75</ele><time>2026-04-06T07:26:19.338Z</time></trkpt><trkpt lat="43.455305" lon="10.7670933"><ele>93.5</ele><time>2026-04-06T07:26:20.341Z</time></trkpt><trkpt lat="43.4552117" lon="10.7672"><ele>94.25</ele><time>2026-04-06T07:26:21.336Z</time></trkpt><trkpt lat="43.4551233" lon="10.7673017"><ele>95.0</ele><time>2026-04-06T07:26:22.337Z</time></trkpt><trkpt lat="43.4550333" lon="10.7674033"><ele>95.0</ele><time>2026-04-06T07:26:23.337Z</time></trkpt><trkpt lat="43.4549433" lon="10.7675067"><ele>95.0</ele><time>2026-04-06T07:26:24.337Z</time></trkpt><trkpt lat="43.454855" lon="10.7676133"><ele>95.0</ele><time>2026-04-06T07:26:25.34Z</time></trkpt><trkpt lat="43.4547617" lon="10.7677233"><ele>95.0</ele><time>2026-04-06T07:26:26.34Z</time></trkpt><trkpt lat="43.4546633" lon="10.7678283"><ele>95.25</ele><time>2026-04-06T07:26:27.34Z</time></trkpt><trkpt lat="43.45456" lon="10.76793"><ele>95.5</ele><time>2026-04-06T07:26:28.337Z</time></trkpt><trkpt lat="43.4544517" lon="10.7680217"><ele>95.75</ele><time>2026-04-06T07:26:29.338Z</time></trkpt><trkpt lat="43.4543433" lon="10.768105"><ele>96.0</ele><time>2026-04-06T07:26:30.336Z</time></trkpt><trkpt lat="43.4542317" lon="10.7681783"><ele>96.0</ele><time>2026-04-06T07:26:31.339Z</time></trkpt><trkpt lat="43.4541183" lon="10.768245"><ele>96.0</ele><time>2026-04-06T07:26:32.337Z</time></trkpt><trkpt lat="43.454005" lon="10.7683117"><ele>96.0</ele><time>2026-04-06T07:26:33.337Z</time></trkpt><trkpt lat="43.4538917" lon="10.7683783"><ele>96.0</ele><time>2026-04-06T07:26:34.337Z</time></trkpt><trkpt lat="43.453775" lon="10.768445"><ele>96.25</ele><time>2026-04-06T07:26:35.337Z</time></trkpt><trkpt lat="43.4536567" lon="10.7685117"><ele>96.5</ele><time>2026-04-06T07:26:36.337Z</time></trkpt><trkpt lat="43.45354" lon="10.7685767"><ele>96.75</ele><time>2026-04-06T07:26:37.339Z</time></trkpt><trkpt lat="43.4534233" lon="10.7686417"><ele>97.0</ele><time>2026-04-06T07:26:38.339Z</time></trkpt><trkpt lat="43.4533083" lon="10.7687033"><ele>97.0</ele><time>2026-04-06T07:26:39.34Z</time></trkpt><trkpt lat="43.4531933" lon="10.7687667"><ele>97.0</ele><time>2026-04-06T07:26:40.338Z</time></trkpt><trkpt lat="43.4530767" lon="10.7688283"><ele>97.0</ele><time>2026-04-06T07:26:41.336Z</time></trkpt><trkpt lat="43.4529617" lon="10.76889"><ele>97.0</ele><time>2026-04-06T07:26:42.338Z</time></trkpt><trkpt lat="43.4528517" lon="10.7689517"><ele>97.5</ele><time>2026-04-06T07:26:43.335Z</time></trkpt><trkpt lat="43.4527417" lon="10.769015"><ele>98.0</ele><time>2026-04-06T07:26:44.338Z</time></trkpt><trkpt lat="43.4526317" lon="10.769075"><ele>98.5</ele><time>2026-04-06T07:26:45.339Z</time></trkpt><trkpt lat="43.4525217" lon="10.7691367"><ele>99.0</ele><time>2026-04-06T07:26:46.339Z</time></trkpt><trkpt lat="43.4524117" lon="10.7691967"><ele>99.0</ele><time>2026-04-06T07:26:47.338Z</time></trkpt><trkpt lat="43.4523033" lon="10.76926"><ele>99.0</ele><time>2026-04-06T07:26:48.34Z</time></trkpt><trkpt lat="43.452195" lon="10.76932"><ele>99.0</ele><time>2026-04-06T07:26:49.338Z</time></trkpt><trkpt lat="43.4520817" lon="10.7693817"><ele>99.0</ele><time>2026-04-06T07:26:50.34Z</time></trkpt><trkpt lat="43.4519667" lon="10.769445"><ele>99.0</ele><time>2026-04-06T07:26:51.34Z</time></trkpt><trkpt lat="43.45185" lon="10.76951"><ele>99.0</ele><time>2026-04-06T07:26:52.338Z</time></trkpt><trkpt lat="43.4517367" lon="10.769575"><ele>99.0</ele><time>2026-04-06T07:26:53.337Z</time></trkpt><trkpt lat="43.45162" lon="10.7696417"><ele>99.0</ele><time>2026-04-06T07:26:54.34Z</time></trkpt><trkpt lat="43.451505" lon="10.7697083"><ele>99.0</ele><time>2026-04-06T07:26:55.339Z</time></trkpt><trkpt lat="43.45139" lon="10.769775"><ele>99.0</ele><time>2026-04-06T07:26:56.338Z</time></trkpt><trkpt lat="43.4512733" lon="10.7698383"><ele>99.0</ele><time>2026-04-06T07:26:57.339Z</time></trkpt><trkpt lat="43.4511567" lon="10.769905"><ele>99.0</ele><time>2026-04-06T07:26:58.336Z</time></trkpt><trkpt lat="43.4510417" lon="10.7699717"><ele>99.25</ele><time>2026-04-06T07:26:59.336Z</time></trkpt><trkpt lat="43.450928" lon="10.7700407"><ele>99.5</ele><time>2026-04-06T07:27:00.338Z</time></trkpt><trkpt lat="43.4508177" lon="10.7701062"><ele>99.75</ele><time>2026-04-06T07:27:01.343Z</time></trkpt><trkpt lat="43.4507124" lon="10.7701664"><ele>100.0</ele><time>2026-04-06T07:27:02.337Z</time></trkpt><trkpt lat="43.4506098" lon="10.7702242"><ele>100.0</ele><time>2026-04-06T07:27:03.338Z</time></trkpt><trkpt lat="43.4505083" lon="10.7702791"><ele>100.0</ele><time>2026-04-06T07:27:04.337Z</time></trkpt><trkpt lat="43.4504069" lon="10.7703339"><ele>100.0</ele><time>2026-04-06T07:27:05.339Z</time></trkpt><trkpt lat="43.4503053" lon="10.77039"><ele>100.0</ele><time>2026-04-06T07:27:06.341Z</time></trkpt><trkpt lat="43.4502047" lon="10.770448"><ele>100.0</ele><time>2026-04-06T07:27:07.342Z</time></trkpt><trkpt lat="43.4501116" lon="10.7705169"><ele>100.2</ele><time>2026-04-06T07:27:08.339Z</time></trkpt><trkpt lat="43.4500308" lon="10.7706025"><ele>100.4</ele><time>2026-04-06T07:27:09.338Z</time></trkpt><trkpt lat="43.4499671" lon="10.7707119"><ele>100.6</ele><time>2026-04-06T07:27:10.338Z</time></trkpt><trkpt lat="43.4499244" lon="10.7708436"><ele>100.8</ele><time>2026-04-06T07:27:11.339Z</time></trkpt><trkpt lat="43.4499058" lon="10.7709898"><ele>101.0</ele><time>2026-04-06T07:27:12.342Z</time></trkpt><trkpt lat="43.4499037" lon="10.7711389"><ele>100.6</ele><time>2026-04-06T07:27:13.338Z</time></trkpt><trkpt lat="43.449911" lon="10.771289"><ele>100.19999999999999</ele><time>2026-04-06T07:27:14.338Z</time></trkpt><trkpt lat="43.4499198" lon="10.7714351"><ele>99.80000000000001</ele><time>2026-04-06T07:27:15.336Z</time></trkpt><trkpt lat="43.4499291" lon="10.7715753"><ele>99.4</ele><time>2026-04-06T07:27:16.337Z</time></trkpt><trkpt lat="43.4499352" lon="10.7717072"><ele>99.0</ele><time>2026-04-06T07:27:17.338Z</time></trkpt><trkpt lat="43.4499372" lon="10.7718316"><ele>98.80000000000001</ele><time>2026-04-06T07:27:18.339Z</time></trkpt><trkpt lat="43.4499272" lon="10.7719543"><ele>98.60000000000001</ele><time>2026-04-06T07:27:19.342Z</time></trkpt><trkpt lat="43.4498992" lon="10.7720715"><ele>98.4</ele><time>2026-04-06T07:27:20.342Z</time></trkpt><trkpt lat="43.4498484" lon="10.7721778"><ele>98.2</ele><time>2026-04-06T07:27:21.338Z</time></trkpt><trkpt lat="43.449774" lon="10.7722577"><ele>98.0</ele><time>2026-04-06T07:27:22.337Z</time></trkpt><trkpt lat="43.4496797" lon="10.772299"><ele>98.80000000000001</ele><time>2026-04-06T07:27:23.337Z</time></trkpt><trkpt lat="43.4495784" lon="10.7723034"><ele>99.6</ele><time>2026-04-06T07:27:24.339Z</time></trkpt><trkpt lat="43.4494751" lon="10.7722855"><ele>100.4</ele><time>2026-04-06T07:27:25.338Z</time></trkpt><trkpt lat="43.4493736" lon="10.772266"><ele>101.19999999999999</ele><time>2026-04-06T07:27:26.343Z</time></trkpt><trkpt lat="43.4492705" lon="10.7722457"><ele>102.0</ele><time>2026-04-06T07:27:27.338Z</time></trkpt><trkpt lat="43.449164" lon="10.7722206"><ele>102.0</ele><time>2026-04-06T07:27:28.337Z</time></trkpt><trkpt lat="43.4490596" lon="10.7721959"><ele>102.0</ele><time>2026-04-06T07:27:29.337Z</time></trkpt><trkpt lat="43.4489549" lon="10.772174"><ele>102.0</ele><time>2026-04-06T07:27:30.339Z</time></trkpt><trkpt lat="43.4488486" lon="10.7721534"><ele>102.0</ele><time>2026-04-06T07:27:31.337Z</time></trkpt><trkpt lat="43.4487403" lon="10.7721382"><ele>102.0</ele><time>2026-04-06T07:27:32.341Z</time></trkpt><trkpt lat="43.4486317" lon="10.7721333"><ele>103.39999999999999</ele><time>2026-04-06T07:27:33.339Z</time></trkpt><trkpt lat="43.4485233" lon="10.772135"><ele>104.8</ele><time>2026-04-06T07:27:34.338Z</time></trkpt><trkpt lat="43.4484167" lon="10.7721433"><ele>106.2</ele><time>2026-04-06T07:27:35.344Z</time></trkpt><trkpt lat="43.448305" lon="10.77216"><ele>107.6</ele><time>2026-04-06T07:27:36.34Z</time></trkpt><trkpt lat="43.4481933" lon="10.7721783"><ele>109.0</ele><time>2026-04-06T07:27:37.338Z</time></trkpt><trkpt lat="43.4480783" lon="10.7721983"><ele>109.0</ele><time>2026-04-06T07:27:38.341Z</time></trkpt><trkpt lat="43.4479617" lon="10.7722167"><ele>109.0</ele><time>2026-04-06T07:27:39.339Z</time></trkpt><trkpt lat="43.4478467" lon="10.7722333"><ele>109.0</ele><time>2026-04-06T07:27:40.339Z</time></trkpt><trkpt lat="43.44773" lon="10.7722533"><ele>109.0</ele><time>2026-04-06T07:27:41.341Z</time></trkpt><trkpt lat="43.4476117" lon="10.7722717"><ele>109.0</ele><time>2026-04-06T07:27:42.338Z</time></trkpt><trkpt lat="43.447495" lon="10.7722917"><ele>109.0</ele><time>2026-04-06T07:27:43.339Z</time></trkpt><trkpt lat="43.4473783" lon="10.7723117"><ele>109.0</ele><time>2026-04-06T07:27:44.338Z</time></trkpt><trkpt lat="43.4472617" lon="10.77233"><ele>109.0</ele><time>2026-04-06T07:27:45.34Z</time></trkpt><trkpt lat="43.4471417" lon="10.772355"><ele>108.75</ele><time>2026-04-06T07:27:46.337Z</time></trkpt><trkpt lat="43.4470217" lon="10.7723767"><ele>108.5</ele><time>2026-04-06T07:27:47.338Z</time></trkpt><trkpt lat="43.4469017" lon="10.772395"><ele>108.25</ele><time>2026-04-06T07:27:48.337Z</time></trkpt><trkpt lat="43.4467817" lon="10.7724133"><ele>108.0</ele><time>2026-04-06T07:27:49.339Z</time></trkpt><trkpt lat="43.4466633" lon="10.7724333"><ele>108.0</ele><time>2026-04-06T07:27:50.338Z</time></trkpt><trkpt lat="43.4465433" lon="10.7724517"><ele>108.0</ele><time>2026-04-06T07:27:51.338Z</time></trkpt><trkpt lat="43.446425" lon="10.77247"><ele>108.0</ele><time>2026-04-06T07:27:52.337Z</time></trkpt><trkpt lat="43.4463067" lon="10.772485"><ele>108.0</ele><time>2026-04-06T07:27:53.339Z</time></trkpt><trkpt lat="43.4461867" lon="10.7725017"><ele>108.25</ele><time>2026-04-06T07:27:54.338Z</time></trkpt><trkpt lat="43.4460667" lon="10.77252"><ele>108.5</ele><time>2026-04-06T07:27:55.337Z</time></trkpt><trkpt lat="43.445945" lon="10.7725383"><ele>108.75</ele><time>2026-04-06T07:27:56.338Z</time></trkpt><trkpt lat="43.4458217" lon="10.77255"><ele>109.0</ele><time>2026-04-06T07:27:57.338Z</time></trkpt><trkpt lat="43.4456983" lon="10.7725617"><ele>109.0</ele><time>2026-04-06T07:27:58.337Z</time></trkpt><trkpt lat="43.4455733" lon="10.77257"><ele>109.0</ele><time>2026-04-06T07:27:59.336Z</time></trkpt><trkpt lat="43.4454517" lon="10.7725783"><ele>109.0</ele><time>2026-04-06T07:28:00.337Z</time></trkpt><trkpt lat="43.4453333" lon="10.7725867"><ele>109.0</ele><time>2026-04-06T07:28:01.344Z</time></trkpt><trkpt lat="43.445215" lon="10.772595"><ele>109.5</ele><time>2026-04-06T07:28:02.337Z</time></trkpt><trkpt lat="43.4450983" lon="10.7726033"><ele>110.0</ele><time>2026-04-06T07:28:03.339Z</time></trkpt><trkpt lat="43.4449833" lon="10.7726117"><ele>110.5</ele><time>2026-04-06T07:28:04.341Z</time></trkpt><trkpt lat="43.4448683" lon="10.7726183"><ele>111.0</ele><time>2026-04-06T07:28:05.343Z</time></trkpt><trkpt lat="43.44475" lon="10.7726267"><ele>111.0</ele><time>2026-04-06T07:28:06.34Z</time></trkpt><trkpt lat="43.4446317" lon="10.7726367"><ele>111.0</ele><time>2026-04-06T07:28:07.339Z</time></trkpt><trkpt lat="43.4445133" lon="10.7726483"><ele>111.0</ele><time>2026-04-06T07:28:08.341Z</time></trkpt><trkpt lat="43.4443933" lon="10.7726583"><ele>111.0</ele><time>2026-04-06T07:28:09.339Z</time></trkpt><trkpt lat="43.4442733" lon="10.7726683"><ele>111.0</ele><time>2026-04-06T07:28:10.338Z</time></trkpt><trkpt lat="43.4441533" lon="10.77268"><ele>111.0</ele><time>2026-04-06T07:28:11.337Z</time></trkpt><trkpt lat="43.4440317" lon="10.7726933"><ele>111.0</ele><time>2026-04-06T07:28:12.338Z</time></trkpt><trkpt lat="43.443915" lon="10.7727"><ele>111.0</ele><time>2026-04-06T07:28:13.341Z</time></trkpt><trkpt lat="43.4437967" lon="10.7727033"><ele>111.25</ele><time>2026-04-06T07:28:14.342Z</time></trkpt><trkpt lat="43.4436783" lon="10.772705"><ele>111.5</ele><time>2026-04-06T07:28:15.34Z</time></trkpt><trkpt lat="43.44356" lon="10.7726967"><ele>111.75</ele><time>2026-04-06T07:28:16.343Z</time></trkpt><trkpt lat="43.4434417" lon="10.77268"><ele>112.0</ele><time>2026-04-06T07:28:17.34Z</time></trkpt><trkpt lat="43.4433233" lon="10.7726517"><ele>112.5</ele><time>2026-04-06T07:28:18.341Z</time></trkpt><trkpt lat="43.4432033" lon="10.772615"><ele>113.0</ele><time>2026-04-06T07:28:19.338Z</time></trkpt><trkpt lat="43.4430817" lon="10.7725733"><ele>113.5</ele><time>2026-04-06T07:28:20.342Z</time></trkpt><trkpt lat="43.44296" lon="10.7725267"><ele>114.0</ele><time>2026-04-06T07:28:21.34Z</time></trkpt><trkpt lat="43.44284" lon="10.7724817"><ele>114.25</ele><time>2026-04-06T07:28:22.339Z</time></trkpt><trkpt lat="43.44272" lon="10.772435"><ele>114.5</ele><time>2026-04-06T07:28:23.341Z</time></trkpt><trkpt lat="43.4426017" lon="10.7723883"><ele>114.75</ele><time>2026-04-06T07:28:24.341Z</time></trkpt><trkpt lat="43.4424867" lon="10.7723367"><ele>115.0</ele><time>2026-04-06T07:28:25.339Z</time></trkpt><trkpt lat="43.4423733" lon="10.77228"><ele>115.0</ele><time>2026-04-06T07:28:26.339Z</time></trkpt><trkpt lat="43.4422633" lon="10.77222"><ele>115.0</ele><time>2026-04-06T07:28:27.34Z</time></trkpt><trkpt lat="43.4421517" lon="10.7721633"><ele>115.0</ele><time>2026-04-06T07:28:28.338Z</time></trkpt><trkpt lat="43.4420383" lon="10.77211"><ele>115.0</ele><time>2026-04-06T07:28:29.339Z</time></trkpt><trkpt lat="43.4419233" lon="10.7720617"><ele>116.25</ele><time>2026-04-06T07:28:30.337Z</time></trkpt><trkpt lat="43.44181" lon="10.772015"><ele>117.5</ele><time>2026-04-06T07:28:31.338Z</time></trkpt><trkpt lat="43.4416967" lon="10.7719667"><ele>118.75</ele><time>2026-04-06T07:28:32.338Z</time></trkpt><trkpt lat="43.4415833" lon="10.771925"><ele>120.0</ele><time>2026-04-06T07:28:33.339Z</time></trkpt><trkpt lat="43.4414733" lon="10.771885"><ele>119.5</ele><time>2026-04-06T07:28:34.335Z</time></trkpt><trkpt lat="43.4413617" lon="10.7718383"><ele>119.0</ele><time>2026-04-06T07:28:35.337Z</time></trkpt><trkpt lat="43.44125" lon="10.771785"><ele>118.5</ele><time>2026-04-06T07:28:36.336Z</time></trkpt><trkpt lat="43.4411383" lon="10.7717333"><ele>118.0</ele><time>2026-04-06T07:28:37.336Z</time></trkpt><trkpt lat="43.441025" lon="10.7716833"><ele>118.0</ele><time>2026-04-06T07:28:38.339Z</time></trkpt><trkpt lat="43.4409083" lon="10.7716367"><ele>118.0</ele><time>2026-04-06T07:28:39.336Z</time></trkpt><trkpt lat="43.4407917" lon="10.7715917"><ele>118.0</ele><time>2026-04-06T07:28:40.335Z</time></trkpt><trkpt lat="43.4406767" lon="10.7715417"><ele>118.0</ele><time>2026-04-06T07:28:41.337Z</time></trkpt><trkpt lat="43.4405617" lon="10.7714867"><ele>120.0</ele><time>2026-04-06T07:28:42.344Z</time></trkpt><trkpt lat="43.4404517" lon="10.7714217"><ele>122.0</ele><time>2026-04-06T07:28:43.337Z</time></trkpt><trkpt lat="43.4403467" lon="10.77134"><ele>124.0</ele><time>2026-04-06T07:28:44.338Z</time></trkpt><trkpt lat="43.4402517" lon="10.7712383"><ele>126.0</ele><time>2026-04-06T07:28:45.338Z</time></trkpt><trkpt lat="43.4401633" lon="10.7711217"><ele>124.25</ele><time>2026-04-06T07:28:46.337Z</time></trkpt><trkpt lat="43.4400767" lon="10.7710033"><ele>122.5</ele><time>2026-04-06T07:28:47.336Z</time></trkpt><trkpt lat="43.4399933" lon="10.770885"><ele>120.75</ele><time>2026-04-06T07:28:48.337Z</time></trkpt><trkpt lat="43.4399067" lon="10.77077"><ele>119.0</ele><time>2026-04-06T07:28:49.34Z</time></trkpt><trkpt lat="43.4398233" lon="10.7706567"><ele>119.0</ele><time>2026-04-06T07:28:50.338Z</time></trkpt><trkpt lat="43.43974" lon="10.7705417"><ele>119.0</ele><time>2026-04-06T07:28:51.338Z</time></trkpt><trkpt lat="43.4396567" lon="10.7704267"><ele>119.0</ele><time>2026-04-06T07:28:52.337Z</time></trkpt><trkpt lat="43.4395733" lon="10.77031"><ele>119.0</ele><time>2026-04-06T07:28:53.337Z</time></trkpt><trkpt lat="43.4394883" lon="10.770195"><ele>119.5</ele><time>2026-04-06T07:28:54.339Z</time></trkpt><trkpt lat="43.4394017" lon="10.7700783"><ele>120.0</ele><time>2026-04-06T07:28:55.339Z</time></trkpt><trkpt lat="43.4393133" lon="10.7699617"><ele>120.5</ele><time>2026-04-06T07:28:56.335Z</time></trkpt><trkpt lat="43.439225" lon="10.769845"><ele>121.0</ele><time>2026-04-06T07:28:57.336Z</time></trkpt><trkpt lat="43.439135" lon="10.7697283"><ele>121.0</ele><time>2026-04-06T07:28:58.335Z</time></trkpt><trkpt lat="43.4390483" lon="10.7696083"><ele>121.0</ele><time>2026-04-06T07:28:59.342Z</time></trkpt><trkpt lat="43.4389583" lon="10.769485"><ele>121.0</ele><time>2026-04-06T07:29:00.336Z</time></trkpt><trkpt lat="43.43887" lon="10.769365"><ele>121.0</ele><time>2026-04-06T07:29:01.338Z</time></trkpt><trkpt lat="43.4387817" lon="10.7692467"><ele>121.5</ele><time>2026-04-06T07:29:02.338Z</time></trkpt><trkpt lat="43.438695" lon="10.7691317"><ele>122.0</ele><time>2026-04-06T07:29:03.34Z</time></trkpt><trkpt lat="43.43861" lon="10.7690167"><ele>122.5</ele><time>2026-04-06T07:29:04.337Z</time></trkpt><trkpt lat="43.4385267" lon="10.7689033"><ele>123.0</ele><time>2026-04-06T07:29:05.338Z</time></trkpt><trkpt lat="43.4384417" lon="10.76879"><ele>123.0</ele><time>2026-04-06T07:29:06.337Z</time></trkpt><trkpt lat="43.4383517" lon="10.768675"><ele>123.0</ele><time>2026-04-06T07:29:07.337Z</time></trkpt><trkpt lat="43.438265" lon="10.7685583"><ele>123.0</ele><time>2026-04-06T07:29:08.338Z</time></trkpt><trkpt lat="43.438175" lon="10.76844"><ele>123.0</ele><time>2026-04-06T07:29:09.336Z</time></trkpt><trkpt lat="43.438085" lon="10.7683217"><ele>123.5</ele><time>2026-04-06T07:29:10.337Z</time></trkpt><trkpt lat="43.4379967" lon="10.7682033"><ele>124.0</ele><time>2026-04-06T07:29:11.339Z</time></trkpt><trkpt lat="43.4379067" lon="10.7680817"><ele>124.5</ele><time>2026-04-06T07:29:12.338Z</time></trkpt><trkpt lat="43.4378183" lon="10.7679583"><ele>125.0</ele><time>2026-04-06T07:29:13.339Z</time></trkpt><trkpt lat="43.43773" lon="10.7678383"><ele>125.0</ele><time>2026-04-06T07:29:14.338Z</time></trkpt><trkpt lat="43.4376433" lon="10.7677233"><ele>125.0</ele><time>2026-04-06T07:29:15.336Z</time></trkpt><trkpt lat="43.4375562" lon="10.7676114"><ele>125.0</ele><time>2026-04-06T07:29:16.335Z</time></trkpt><trkpt lat="43.4374704" lon="10.7674992"><ele>125.0</ele><time>2026-04-06T07:29:17.336Z</time></trkpt><trkpt lat="43.4373857" lon="10.7673859"><ele>124.75</ele><time>2026-04-06T07:29:18.337Z</time></trkpt><trkpt lat="43.4373011" lon="10.7672706"><ele>124.5</ele><time>2026-04-06T07:29:19.338Z</time></trkpt><trkpt lat="43.4372139" lon="10.7671554"><ele>124.25</ele><time>2026-04-06T07:29:20.338Z</time></trkpt><trkpt lat="43.437128" lon="10.7670389"><ele>124.0</ele><time>2026-04-06T07:29:21.339Z</time></trkpt><trkpt lat="43.4370429" lon="10.7669199"><ele>124.5</ele><time>2026-04-06T07:29:22.337Z</time></trkpt><trkpt lat="43.4369638" lon="10.7667903"><ele>125.0</ele><time>2026-04-06T07:29:23.339Z</time></trkpt><trkpt lat="43.4368918" lon="10.7666546"><ele>125.5</ele><time>2026-04-06T07:29:24.342Z</time></trkpt><trkpt lat="43.4368256" lon="10.7665116"><ele>126.0</ele><time>2026-04-06T07:29:25.34Z</time></trkpt><trkpt lat="43.4367674" lon="10.7663617"><ele>126.0</ele><time>2026-04-06T07:29:26.339Z</time></trkpt><trkpt lat="43.4367127" lon="10.7662075"><ele>126.0</ele><time>2026-04-06T07:29:27.34Z</time></trkpt><trkpt lat="43.4366558" lon="10.766054"><ele>126.0</ele><time>2026-04-06T07:29:28.338Z</time></trkpt><trkpt lat="43.4365971" lon="10.7659005"><ele>126.0</ele><time>2026-04-06T07:29:29.338Z</time></trkpt><trkpt lat="43.4365398" lon="10.765747"><ele>125.75</ele><time>2026-04-06T07:29:30.336Z</time></trkpt><trkpt lat="43.4364821" lon="10.765589"><ele>125.5</ele><time>2026-04-06T07:29:31.34Z</time></trkpt><trkpt lat="43.4364247" lon="10.765433"><ele>125.25</ele><time>2026-04-06T07:29:32.336Z</time></trkpt><trkpt lat="43.4363701" lon="10.765279"><ele>125.0</ele><time>2026-04-06T07:29:33.338Z</time></trkpt><trkpt lat="43.436316" lon="10.7651308"><ele>127.0</ele><time>2026-04-06T07:29:34.337Z</time></trkpt><trkpt lat="43.436262" lon="10.7649843"><ele>129.0</ele><time>2026-04-06T07:29:35.338Z</time></trkpt><trkpt lat="43.4362104" lon="10.7648393"><ele>131.0</ele><time>2026-04-06T07:29:36.336Z</time></trkpt><trkpt lat="43.4361549" lon="10.7646961"><ele>133.0</ele><time>2026-04-06T07:29:37.339Z</time></trkpt><trkpt lat="43.4361012" lon="10.7645546"><ele>133.0</ele><time>2026-04-06T07:29:38.336Z</time></trkpt><trkpt lat="43.4360466" lon="10.7644156"><ele>133.0</ele><time>2026-04-06T07:29:39.336Z</time></trkpt><trkpt lat="43.4359899" lon="10.7642735"><ele>133.0</ele><time>2026-04-06T07:29:40.338Z</time></trkpt><trkpt lat="43.4359313" lon="10.7641291"><ele>133.0</ele><time>2026-04-06T07:29:41.337Z</time></trkpt><trkpt lat="43.4358753" lon="10.7639807"><ele>132.5</ele><time>2026-04-06T07:29:42.335Z</time></trkpt><trkpt lat="43.4358191" lon="10.7638305"><ele>132.0</ele><time>2026-04-06T07:29:43.337Z</time></trkpt><trkpt lat="43.4357608" lon="10.7636778"><ele>131.5</ele><time>2026-04-06T07:29:44.337Z</time></trkpt><trkpt lat="43.4357011" lon="10.7635253"><ele>131.0</ele><time>2026-04-06T07:29:45.336Z</time></trkpt><trkpt lat="43.4356429" lon="10.7633731"><ele>130.5</ele><time>2026-04-06T07:29:46.338Z</time></trkpt><trkpt lat="43.4355863" lon="10.7632248"><ele>130.0</ele><time>2026-04-06T07:29:47.342Z</time></trkpt><trkpt lat="43.43553" lon="10.7630797"><ele>129.5</ele><time>2026-04-06T07:29:48.337Z</time></trkpt><trkpt lat="43.4354721" lon="10.7629331"><ele>129.0</ele><time>2026-04-06T07:29:49.34Z</time></trkpt><trkpt lat="43.4354145" lon="10.7627868"><ele>130.0</ele><time>2026-04-06T07:29:50.339Z</time></trkpt><trkpt lat="43.4353574" lon="10.7626389"><ele>131.0</ele><time>2026-04-06T07:29:51.34Z</time></trkpt><trkpt lat="43.4353006" lon="10.7624917"><ele>132.0</ele><time>2026-04-06T07:29:52.34Z</time></trkpt><trkpt lat="43.4352443" lon="10.762343"><ele>133.0</ele><time>2026-04-06T07:29:53.341Z</time></trkpt><trkpt lat="43.4351867" lon="10.762196"><ele>133.0</ele><time>2026-04-06T07:29:54.336Z</time></trkpt><trkpt lat="43.4351278" lon="10.7620502"><ele>133.0</ele><time>2026-04-06T07:29:55.347Z</time></trkpt><trkpt lat="43.4350709" lon="10.7619034"><ele>133.0</ele><time>2026-04-06T07:29:56.337Z</time></trkpt><trkpt lat="43.4350154" lon="10.761751"><ele>133.0</ele><time>2026-04-06T07:29:57.342Z</time></trkpt><trkpt lat="43.4349606" lon="10.7616008"><ele>132.75</ele><time>2026-04-06T07:29:58.338Z</time></trkpt><trkpt lat="43.4349056" lon="10.7614507"><ele>132.5</ele><time>2026-04-06T07:29:59.338Z</time></trkpt><trkpt lat="43.4348508" lon="10.7613024"><ele>132.25</ele><time>2026-04-06T07:30:00.337Z</time></trkpt><trkpt lat="43.434796" lon="10.7611566"><ele>132.0</ele><time>2026-04-06T07:30:01.341Z</time></trkpt><trkpt lat="43.4347371" lon="10.7610159"><ele>131.75</ele><time>2026-04-06T07:30:02.339Z</time></trkpt><trkpt lat="43.434671" lon="10.7608822"><ele>131.5</ele><time>2026-04-06T07:30:03.337Z</time></trkpt><trkpt lat="43.4345977" lon="10.7607566"><ele>131.25</ele><time>2026-04-06T07:30:04.338Z</time></trkpt><trkpt lat="43.4345164" lon="10.7606435"><ele>131.0</ele><time>2026-04-06T07:30:05.34Z</time></trkpt><trkpt lat="43.4344298" lon="10.7605386"><ele>131.75</ele><time>2026-04-06T07:30:06.338Z</time></trkpt><trkpt lat="43.4343403" lon="10.7604349"><ele>132.5</ele><time>2026-04-06T07:30:07.336Z</time></trkpt><trkpt lat="43.4342499" lon="10.76033"><ele>133.25</ele><time>2026-04-06T07:30:08.338Z</time></trkpt><trkpt lat="43.4341609" lon="10.760225"><ele>134.0</ele><time>2026-04-06T07:30:09.344Z</time></trkpt><trkpt lat="43.4340718" lon="10.7601186"><ele>134.0</ele><time>2026-04-06T07:30:10.339Z</time></trkpt><trkpt lat="43.433982" lon="10.7600119"><ele>134.0</ele><time>2026-04-06T07:30:11.338Z</time></trkpt><trkpt lat="43.4338919" lon="10.7599043"><ele>134.0</ele><time>2026-04-06T07:30:12.337Z</time></trkpt><trkpt lat="43.4338034" lon="10.7597983"><ele>134.0</ele><time>2026-04-06T07:30:13.337Z</time></trkpt><trkpt lat="43.4337093" lon="10.7597047"><ele>135.5</ele><time>2026-04-06T07:30:14.337Z</time></trkpt><trkpt lat="43.4336118" lon="10.7596284"><ele>137.0</ele><time>2026-04-06T07:30:15.337Z</time></trkpt><trkpt lat="43.4335083" lon="10.7595685"><ele>138.5</ele><time>2026-04-06T07:30:16.337Z</time></trkpt><trkpt lat="43.4333989" lon="10.7595235"><ele>140.0</ele><time>2026-04-06T07:30:17.339Z</time></trkpt><trkpt lat="43.4332861" lon="10.759482"><ele>140.0</ele><time>2026-04-06T07:30:18.337Z</time></trkpt><trkpt lat="43.4331712" lon="10.7594413"><ele>140.0</ele><time>2026-04-06T07:30:19.337Z</time></trkpt><trkpt lat="43.4330545" lon="10.7594018"><ele>140.0</ele><time>2026-04-06T07:30:20.341Z</time></trkpt><trkpt lat="43.4329368" lon="10.7593675"><ele>140.0</ele><time>2026-04-06T07:30:21.336Z</time></trkpt><trkpt lat="43.432818" lon="10.7593365"><ele>139.5</ele><time>2026-04-06T07:30:22.338Z</time></trkpt><trkpt lat="43.4327019" lon="10.7593053"><ele>139.0</ele><time>2026-04-06T07:30:23.337Z</time></trkpt><trkpt lat="43.4325841" lon="10.7592783"><ele>138.5</ele><time>2026-04-06T07:30:24.336Z</time></trkpt><trkpt lat="43.4324657" lon="10.7592596"><ele>138.0</ele><time>2026-04-06T07:30:25.337Z</time></trkpt><trkpt lat="43.432346" lon="10.7592519"><ele>138.0</ele><time>2026-04-06T07:30:26.338Z</time></trkpt><trkpt lat="43.4322287" lon="10.7592508"><ele>138.0</ele><time>2026-04-06T07:30:27.336Z</time></trkpt><trkpt lat="43.4321132" lon="10.7592559"><ele>138.0</ele><time>2026-04-06T07:30:28.339Z</time></trkpt><trkpt lat="43.4320011" lon="10.7592692"><ele>138.0</ele><time>2026-04-06T07:30:29.339Z</time></trkpt><trkpt lat="43.4318898" lon="10.7592937"><ele>139.25</ele><time>2026-04-06T07:30:30.34Z</time></trkpt><trkpt lat="43.4317799" lon="10.7593284"><ele>140.5</ele><time>2026-04-06T07:30:31.34Z</time></trkpt><trkpt lat="43.4316715" lon="10.7593663"><ele>141.75</ele><time>2026-04-06T07:30:32.338Z</time></trkpt><trkpt lat="43.4315619" lon="10.7594022"><ele>143.0</ele><time>2026-04-06T07:30:33.338Z</time></trkpt><trkpt lat="43.4314519" lon="10.7594375"><ele>144.5</ele><time>2026-04-06T07:30:34.338Z</time></trkpt><trkpt lat="43.4313416" lon="10.7594728"><ele>146.0</ele><time>2026-04-06T07:30:35.343Z</time></trkpt><trkpt lat="43.4312303" lon="10.7595078"><ele>147.5</ele><time>2026-04-06T07:30:36.342Z</time></trkpt><trkpt lat="43.4311199" lon="10.7595452"><ele>149.0</ele><time>2026-04-06T07:30:37.339Z</time></trkpt><trkpt lat="43.4310071" lon="10.7595809"><ele>149.0</ele><time>2026-04-06T07:30:38.339Z</time></trkpt><trkpt lat="43.4308936" lon="10.7596143"><ele>149.0</ele><time>2026-04-06T07:30:39.338Z</time></trkpt><trkpt lat="43.4307777" lon="10.7596483"><ele>149.0</ele><time>2026-04-06T07:30:40.338Z</time></trkpt><trkpt lat="43.4306635" lon="10.7596844"><ele>149.0</ele><time>2026-04-06T07:30:41.338Z</time></trkpt><trkpt lat="43.4305485" lon="10.7597203"><ele>148.5</ele><time>2026-04-06T07:30:42.337Z</time></trkpt><trkpt lat="43.4304307" lon="10.7597466"><ele>148.0</ele><time>2026-04-06T07:30:43.338Z</time></trkpt><trkpt lat="43.4303109" lon="10.7597567"><ele>147.5</ele><time>2026-04-06T07:30:44.337Z</time></trkpt><trkpt lat="43.4301908" lon="10.7597479"><ele>147.0</ele><time>2026-04-06T07:30:45.337Z</time></trkpt><trkpt lat="43.430072" lon="10.7597186"><ele>147.0</ele><time>2026-04-06T07:30:46.337Z</time></trkpt><trkpt lat="43.4299563" lon="10.7596742"><ele>147.0</ele><time>2026-04-06T07:30:47.338Z</time></trkpt><trkpt lat="43.4298418" lon="10.759623"><ele>147.0</ele><time>2026-04-06T07:30:48.333Z</time></trkpt><trkpt lat="43.4297295" lon="10.7595742"><ele>147.0</ele><time>2026-04-06T07:30:49.336Z</time></trkpt><trkpt lat="43.4296165" lon="10.7595286"><ele>148.25</ele><time>2026-04-06T07:30:50.339Z</time></trkpt><trkpt lat="43.4295033" lon="10.7594895"><ele>149.5</ele><time>2026-04-06T07:30:51.338Z</time></trkpt><trkpt lat="43.4293914" lon="10.7594673"><ele>150.75</ele><time>2026-04-06T07:30:52.336Z</time></trkpt><trkpt lat="43.4292796" lon="10.7594705"><ele>152.0</ele><time>2026-04-06T07:30:53.337Z</time></trkpt><trkpt lat="43.4291695" lon="10.7595002"><ele>152.0</ele><time>2026-04-06T07:30:54.336Z</time></trkpt><trkpt lat="43.4290641" lon="10.759559"><ele>152.0</ele><time>2026-04-06T07:30:55.334Z</time></trkpt><trkpt lat="43.4289654" lon="10.7596385"><ele>152.0</ele><time>2026-04-06T07:30:56.336Z</time></trkpt><trkpt lat="43.4288761" lon="10.7597331"><ele>152.0</ele><time>2026-04-06T07:30:57.338Z</time></trkpt><trkpt lat="43.4287918" lon="10.7598354"><ele>153.2</ele><time>2026-04-06T07:30:58.336Z</time></trkpt><trkpt lat="43.4287106" lon="10.7599385"><ele>154.39999999999998</ele><time>2026-04-06T07:30:59.337Z</time></trkpt><trkpt lat="43.428628" lon="10.7600352"><ele>155.60000000000002</ele><time>2026-04-06T07:31:00.336Z</time></trkpt><trkpt lat="43.4285401" lon="10.7601187"><ele>156.8</ele><time>2026-04-06T07:31:01.339Z</time></trkpt><trkpt lat="43.4284445" lon="10.760184"><ele>158.0</ele><time>2026-04-06T07:31:02.338Z</time></trkpt><trkpt lat="43.4283472" lon="10.7602296"><ele>158.0</ele><time>2026-04-06T07:31:03.338Z</time></trkpt><trkpt lat="43.4282489" lon="10.7602602"><ele>158.0</ele><time>2026-04-06T07:31:04.338Z</time></trkpt><trkpt lat="43.4281519" lon="10.7602938"><ele>158.0</ele><time>2026-04-06T07:31:05.338Z</time></trkpt><trkpt lat="43.4280634" lon="10.7603527"><ele>158.0</ele><time>2026-04-06T07:31:06.335Z</time></trkpt><trkpt lat="43.4279856" lon="10.760441"><ele>158.0</ele><time>2026-04-06T07:31:07.334Z</time></trkpt><trkpt lat="43.4279213" lon="10.7605577"><ele>157.0</ele><time>2026-04-06T07:31:08.339Z</time></trkpt><trkpt lat="43.4278695" lon="10.760698"><ele>156.0</ele><time>2026-04-06T07:31:09.351Z</time></trkpt><trkpt lat="43.4278214" lon="10.7608367"><ele>155.0</ele><time>2026-04-06T07:31:10.336Z</time></trkpt><trkpt lat="43.427771" lon="10.7609673"><ele>154.0</ele><time>2026-04-06T07:31:11.337Z</time></trkpt><trkpt lat="43.4277165" lon="10.7610882"><ele>153.0</ele><time>2026-04-06T07:31:12.339Z</time></trkpt><trkpt lat="43.4276586" lon="10.7612051"><ele>153.0</ele><time>2026-04-06T07:31:13.334Z</time></trkpt><trkpt lat="43.4276018" lon="10.7613255"><ele>153.0</ele><time>2026-04-06T07:31:14.338Z</time></trkpt><trkpt lat="43.4275498" lon="10.7614485"><ele>153.0</ele><time>2026-04-06T07:31:15.337Z</time></trkpt><trkpt lat="43.4275099" lon="10.7615751"><ele>153.0</ele><time>2026-04-06T07:31:16.339Z</time></trkpt><trkpt lat="43.4274828" lon="10.7617025"><ele>153.0</ele><time>2026-04-06T07:31:17.338Z</time></trkpt><trkpt lat="43.427464" lon="10.7618376"><ele>153.20000000000002</ele><time>2026-04-06T07:31:18.34Z</time></trkpt><trkpt lat="43.4274558" lon="10.7619729"><ele>153.4</ele><time>2026-04-06T07:31:19.341Z</time></trkpt><trkpt lat="43.4274576" lon="10.7621037"><ele>153.60000000000002</ele><time>2026-04-06T07:31:20.34Z</time></trkpt><trkpt lat="43.4274636" lon="10.7622305"><ele>153.8</ele><time>2026-04-06T07:31:21.339Z</time></trkpt><trkpt lat="43.4274693" lon="10.7623538"><ele>154.0</ele><time>2026-04-06T07:31:22.337Z</time></trkpt><trkpt lat="43.4274712" lon="10.7624726"><ele>154.0</ele><time>2026-04-06T07:31:23.338Z</time></trkpt><trkpt lat="43.427465" lon="10.7625862"><ele>154.0</ele><time>2026-04-06T07:31:24.338Z</time></trkpt><trkpt lat="43.4274437" lon="10.7626949"><ele>154.0</ele><time>2026-04-06T07:31:25.337Z</time></trkpt><trkpt lat="43.4273948" lon="10.7627869"><ele>154.0</ele><time>2026-04-06T07:31:26.339Z</time></trkpt><trkpt lat="43.427319" lon="10.7628525"><ele>154.0</ele><time>2026-04-06T07:31:27.339Z</time></trkpt><trkpt lat="43.4272295" lon="10.7629026"><ele>154.0</ele><time>2026-04-06T07:31:28.339Z</time></trkpt><trkpt lat="43.4271372" lon="10.7629483"><ele>152.2</ele><time>2026-04-06T07:31:29.339Z</time></trkpt><trkpt lat="43.4270436" lon="10.7629933"><ele>150.4</ele><time>2026-04-06T07:31:30.338Z</time></trkpt><trkpt lat="43.42695" lon="10.7630383"><ele>148.6</ele><time>2026-04-06T07:31:31.34Z</time></trkpt><trkpt lat="43.4268633" lon="10.7630917"><ele>146.8</ele><time>2026-04-06T07:31:32.339Z</time></trkpt><trkpt lat="43.4267833" lon="10.7631633"><ele>145.0</ele><time>2026-04-06T07:31:33.341Z</time></trkpt><trkpt lat="43.4267133" lon="10.763255"><ele>145.0</ele><time>2026-04-06T07:31:34.352Z</time></trkpt><trkpt lat="43.4266617" lon="10.7633667"><ele>145.0</ele><time>2026-04-06T07:31:35.339Z</time></trkpt><trkpt lat="43.4266267" lon="10.7634883"><ele>145.0</ele><time>2026-04-06T07:31:36.341Z</time></trkpt><trkpt lat="43.4266083" lon="10.763615"><ele>145.0</ele><time>2026-04-06T07:31:37.345Z</time></trkpt><trkpt lat="43.4265933" lon="10.7637483"><ele>145.0</ele><time>2026-04-06T07:31:38.341Z</time></trkpt><trkpt lat="43.4265767" lon="10.7638733"><ele>145.5</ele><time>2026-04-06T07:31:39.341Z</time></trkpt><trkpt lat="43.4265483" lon="10.7639817"><ele>146.0</ele><time>2026-04-06T07:31:40.337Z</time></trkpt><trkpt lat="43.4265067" lon="10.764075"><ele>146.5</ele><time>2026-04-06T07:31:41.337Z</time></trkpt><trkpt lat="43.4264483" lon="10.7641467"><ele>147.0</ele><time>2026-04-06T07:31:42.337Z</time></trkpt><trkpt lat="43.4263733" lon="10.7641967"><ele>147.5</ele><time>2026-04-06T07:31:43.338Z</time></trkpt><trkpt lat="43.4262983" lon="10.76425"><ele>148.0</ele><time>2026-04-06T07:31:44.336Z</time></trkpt><trkpt lat="43.4262317" lon="10.764315"><ele>146.0</ele><time>2026-04-06T07:31:45.336Z</time></trkpt><trkpt lat="43.4261783" lon="10.7643967"><ele>144.0</ele><time>2026-04-06T07:31:46.34Z</time></trkpt><trkpt lat="43.4261417" lon="10.7644933"><ele>142.0</ele><time>2026-04-06T07:31:47.337Z</time></trkpt><trkpt lat="43.4261183" lon="10.7646033"><ele>140.0</ele><time>2026-04-06T07:31:48.338Z</time></trkpt><trkpt lat="43.4261083" lon="10.7647217"><ele>138.0</ele><time>2026-04-06T07:31:49.335Z</time></trkpt><trkpt lat="43.4261083" lon="10.764845"><ele>136.0</ele><time>2026-04-06T07:31:50.343Z</time></trkpt><trkpt lat="43.4261133" lon="10.7649683"><ele>136.0</ele><time>2026-04-06T07:31:51.336Z</time></trkpt><trkpt lat="43.426115" lon="10.7650933"><ele>136.0</ele><time>2026-04-06T07:31:52.336Z</time></trkpt><trkpt lat="43.4261067" lon="10.7652167"><ele>136.0</ele><time>2026-04-06T07:31:53.344Z</time></trkpt><trkpt lat="43.4260833" lon="10.76534"><ele>136.0</ele><time>2026-04-06T07:31:54.336Z</time></trkpt><trkpt lat="43.42604" lon="10.7654533"><ele>136.0</ele><time>2026-04-06T07:31:55.339Z</time></trkpt><trkpt lat="43.4259767" lon="10.7655533"><ele>136.0</ele><time>2026-04-06T07:31:56.337Z</time></trkpt><trkpt lat="43.425905" lon="10.7656417"><ele>136.0</ele><time>2026-04-06T07:31:57.339Z</time></trkpt><trkpt lat="43.425835" lon="10.765725"><ele>136.0</ele><time>2026-04-06T07:31:58.342Z</time></trkpt><trkpt lat="43.42577" lon="10.7658117"><ele>136.0</ele><time>2026-04-06T07:31:59.339Z</time></trkpt><trkpt lat="43.4257083" lon="10.7659117"><ele>136.0</ele><time>2026-04-06T07:32:00.339Z</time></trkpt><trkpt lat="43.425655" lon="10.7660167"><ele>137.0</ele><time>2026-04-06T07:32:01.337Z</time></trkpt><trkpt lat="43.4256017" lon="10.76613"><ele>138.0</ele><time>2026-04-06T07:32:02.338Z</time></trkpt><trkpt lat="43.4255517" lon="10.7662483"><ele>139.0</ele><time>2026-04-06T07:32:03.342Z</time></trkpt><trkpt lat="43.4255067" lon="10.7663683"><ele>140.0</ele><time>2026-04-06T07:32:04.339Z</time></trkpt><trkpt lat="43.4254633" lon="10.7664883"><ele>141.0</ele><time>2026-04-06T07:32:05.338Z</time></trkpt><trkpt lat="43.42542" lon="10.7666083"><ele>138.6</ele><time>2026-04-06T07:32:06.338Z</time></trkpt><trkpt lat="43.425375" lon="10.7667317"><ele>136.2</ele><time>2026-04-06T07:32:07.336Z</time></trkpt><trkpt lat="43.4253267" lon="10.7668517"><ele>133.8</ele><time>2026-04-06T07:32:08.338Z</time></trkpt><trkpt lat="43.4252783" lon="10.7669717"><ele>131.4</ele><time>2026-04-06T07:32:09.339Z</time></trkpt><trkpt lat="43.4252333" lon="10.7670883"><ele>129.0</ele><time>2026-04-06T07:32:10.338Z</time></trkpt><trkpt lat="43.4251917" lon="10.7672033"><ele>129.0</ele><time>2026-04-06T07:32:11.342Z</time></trkpt><trkpt lat="43.42515" lon="10.76732"><ele>129.0</ele><time>2026-04-06T07:32:12.335Z</time></trkpt><trkpt lat="43.4251033" lon="10.7674417"><ele>129.0</ele><time>2026-04-06T07:32:13.337Z</time></trkpt><trkpt lat="43.4250517" lon="10.7675633"><ele>129.0</ele><time>2026-04-06T07:32:14.339Z</time></trkpt><trkpt lat="43.4249917" lon="10.7676767"><ele>129.0</ele><time>2026-04-06T07:32:15.337Z</time></trkpt><trkpt lat="43.4249217" lon="10.7677817"><ele>128.2</ele><time>2026-04-06T07:32:16.338Z</time></trkpt><trkpt lat="43.424845" lon="10.7678733"><ele>127.4</ele><time>2026-04-06T07:32:17.336Z</time></trkpt><trkpt lat="43.4247633" lon="10.767955"><ele>126.6</ele><time>2026-04-06T07:32:18.339Z</time></trkpt><trkpt lat="43.42468" lon="10.7680417"><ele>125.8</ele><time>2026-04-06T07:32:19.339Z</time></trkpt><trkpt lat="43.4246" lon="10.7681283"><ele>125.0</ele><time>2026-04-06T07:32:20.34Z</time></trkpt><trkpt lat="43.42452" lon="10.768215"><ele>125.0</ele><time>2026-04-06T07:32:21.333Z</time></trkpt><trkpt lat="43.4244433" lon="10.7683067"><ele>125.0</ele><time>2026-04-06T07:32:22.337Z</time></trkpt><trkpt lat="43.424375" lon="10.7684017"><ele>125.0</ele><time>2026-04-06T07:32:23.336Z</time></trkpt><trkpt lat="43.42431" lon="10.7684967"><ele>125.0</ele><time>2026-04-06T07:32:24.339Z</time></trkpt><trkpt lat="43.4242467" lon="10.7685883"><ele>125.0</ele><time>2026-04-06T07:32:25.335Z</time></trkpt><trkpt lat="43.424185" lon="10.7686767"><ele>124.2</ele><time>2026-04-06T07:32:26.339Z</time></trkpt><trkpt lat="43.4241267" lon="10.7687667"><ele>123.4</ele><time>2026-04-06T07:32:27.339Z</time></trkpt><trkpt lat="43.4240667" lon="10.7688517"><ele>122.6</ele><time>2026-04-06T07:32:28.336Z</time></trkpt><trkpt lat="43.42396" lon="10.769015"><ele>121.8</ele><time>2026-04-06T07:32:30.347Z</time></trkpt><trkpt lat="43.423925" lon="10.7691067"><ele>121.0</ele><time>2026-04-06T07:32:31.341Z</time></trkpt><trkpt lat="43.42391" lon="10.76921"><ele>121.0</ele><time>2026-04-06T07:32:32.339Z</time></trkpt><trkpt lat="43.4239183" lon="10.7693217"><ele>121.0</ele><time>2026-04-06T07:32:33.337Z</time></trkpt><trkpt lat="43.42395" lon="10.7694367"><ele>121.0</ele><time>2026-04-06T07:32:34.338Z</time></trkpt><trkpt lat="43.4239983" lon="10.7695517"><ele>121.0</ele><time>2026-04-06T07:32:35.338Z</time></trkpt><trkpt lat="43.424055" lon="10.76967"><ele>121.0</ele><time>2026-04-06T07:32:36.342Z</time></trkpt><trkpt lat="43.424115" lon="10.7697933"><ele>121.4</ele><time>2026-04-06T07:32:37.338Z</time></trkpt><trkpt lat="43.42417" lon="10.7699183"><ele>121.8</ele><time>2026-04-06T07:32:38.341Z</time></trkpt><trkpt lat="43.4242183" lon="10.7700433"><ele>122.20000000000002</ele><time>2026-04-06T07:32:39.338Z</time></trkpt><trkpt lat="43.4242567" lon="10.77017"><ele>122.60000000000001</ele><time>2026-04-06T07:32:40.339Z</time></trkpt><trkpt lat="43.4242817" lon="10.7702967"><ele>123.0</ele><time>2026-04-06T07:32:41.337Z</time></trkpt><trkpt lat="43.42429" lon="10.770425"><ele>123.80000000000001</ele><time>2026-04-06T07:32:42.35Z</time></trkpt><trkpt lat="43.424275" lon="10.770555"><ele>124.60000000000001</ele><time>2026-04-06T07:32:43.336Z</time></trkpt><trkpt lat="43.42424" lon="10.77068"><ele>125.39999999999999</ele><time>2026-04-06T07:32:44.341Z</time></trkpt><trkpt lat="43.4241867" lon="10.770795"><ele>126.19999999999999</ele><time>2026-04-06T07:32:45.34Z</time></trkpt><trkpt lat="43.4241217" lon="10.7709067"><ele>127.0</ele><time>2026-04-06T07:32:46.337Z</time></trkpt><trkpt lat="43.424055" lon="10.7710183"><ele>126.6</ele><time>2026-04-06T07:32:47.337Z</time></trkpt><trkpt lat="43.4239867" lon="10.771135"><ele>126.19999999999999</ele><time>2026-04-06T07:32:48.346Z</time></trkpt><trkpt lat="43.4239167" lon="10.77125"><ele>125.8</ele><time>2026-04-06T07:32:49.338Z</time></trkpt><trkpt lat="43.423845" lon="10.7713633"><ele>125.4</ele><time>2026-04-06T07:32:50.338Z</time></trkpt><trkpt lat="43.4237683" lon="10.77147"><ele>125.0</ele><time>2026-04-06T07:32:51.35Z</time></trkpt><trkpt lat="43.4236867" lon="10.7715633"><ele>124.8</ele><time>2026-04-06T07:32:52.342Z</time></trkpt><trkpt lat="43.4236" lon="10.771645"><ele>124.6</ele><time>2026-04-06T07:32:53.339Z</time></trkpt><trkpt lat="43.42351" lon="10.7717167"><ele>124.4</ele><time>2026-04-06T07:32:54.339Z</time></trkpt><trkpt lat="43.4234267" lon="10.7717883"><ele>124.2</ele><time>2026-04-06T07:32:55.34Z</time></trkpt><trkpt lat="43.4233533" lon="10.7718733"><ele>124.0</ele><time>2026-04-06T07:32:56.338Z</time></trkpt><trkpt lat="43.423295" lon="10.7719733"><ele>124.0</ele><time>2026-04-06T07:32:57.337Z</time></trkpt><trkpt lat="43.4232567" lon="10.772095"><ele>124.0</ele><time>2026-04-06T07:32:58.336Z</time></trkpt><trkpt lat="43.4232433" lon="10.772225"><ele>124.0</ele><time>2026-04-06T07:32:59.337Z</time></trkpt><trkpt lat="43.423255" lon="10.7723517"><ele>124.0</ele><time>2026-04-06T07:33:00.339Z</time></trkpt><trkpt lat="43.4232717" lon="10.7724733"><ele>124.0</ele><time>2026-04-06T07:33:01.336Z</time></trkpt><trkpt lat="43.4232783" lon="10.772595"><ele>124.0</ele><time>2026-04-06T07:33:02.34Z</time></trkpt><trkpt lat="43.4232667" lon="10.7727217"><ele>124.0</ele><time>2026-04-06T07:33:03.339Z</time></trkpt><trkpt lat="43.42323" lon="10.772845"><ele>124.0</ele><time>2026-04-06T07:33:04.345Z</time></trkpt><trkpt lat="43.4231733" lon="10.77295"><ele>124.0</ele><time>2026-04-06T07:33:05.339Z</time></trkpt><trkpt lat="43.4231033" lon="10.773045"><ele>124.0</ele><time>2026-04-06T07:33:06.339Z</time></trkpt><trkpt lat="43.4230267" lon="10.7731367"><ele>124.0</ele><time>2026-04-06T07:33:07.339Z</time></trkpt><trkpt lat="43.4229467" lon="10.7732283"><ele>124.0</ele><time>2026-04-06T07:33:08.338Z</time></trkpt><trkpt lat="43.422865" lon="10.77332"><ele>124.0</ele><time>2026-04-06T07:33:09.34Z</time></trkpt><trkpt lat="43.4227867" lon="10.7734083"><ele>124.0</ele><time>2026-04-06T07:33:10.338Z</time></trkpt><trkpt lat="43.4227083" lon="10.7734983"><ele>124.0</ele><time>2026-04-06T07:33:11.338Z</time></trkpt><trkpt lat="43.4226317" lon="10.7735917"><ele>124.4</ele><time>2026-04-06T07:33:12.339Z</time></trkpt><trkpt lat="43.4225567" lon="10.7736833"><ele>124.80000000000001</ele><time>2026-04-06T07:33:13.336Z</time></trkpt><trkpt lat="43.4224783" lon="10.7737717"><ele>125.19999999999999</ele><time>2026-04-06T07:33:14.337Z</time></trkpt><trkpt lat="43.4224" lon="10.7738567"><ele>125.6</ele><time>2026-04-06T07:33:15.339Z</time></trkpt><trkpt lat="43.422315" lon="10.7739317"><ele>126.0</ele><time>2026-04-06T07:33:16.34Z</time></trkpt><trkpt lat="43.42222" lon="10.7739983"><ele>126.6</ele><time>2026-04-06T07:33:17.339Z</time></trkpt><trkpt lat="43.42212" lon="10.7740383"><ele>127.19999999999999</ele><time>2026-04-06T07:33:18.34Z</time></trkpt><trkpt lat="43.422015" lon="10.7740517"><ele>127.80000000000001</ele><time>2026-04-06T07:33:19.334Z</time></trkpt><trkpt lat="43.4219083" lon="10.7740417"><ele>128.4</ele><time>2026-04-06T07:33:20.336Z</time></trkpt><trkpt lat="43.4218017" lon="10.7740167"><ele>129.0</ele><time>2026-04-06T07:33:21.336Z</time></trkpt><trkpt lat="43.4216967" lon="10.7739917"><ele>129.0</ele><time>2026-04-06T07:33:22.338Z</time></trkpt><trkpt lat="43.4215883" lon="10.7739733"><ele>129.0</ele><time>2026-04-06T07:33:23.338Z</time></trkpt><trkpt lat="43.4214817" lon="10.7739567"><ele>129.0</ele><time>2026-04-06T07:33:24.338Z</time></trkpt><trkpt lat="43.42137" lon="10.77394"><ele>129.0</ele><time>2026-04-06T07:33:25.338Z</time></trkpt><trkpt lat="43.4212583" lon="10.773925"><ele>129.0</ele><time>2026-04-06T07:33:26.341Z</time></trkpt><trkpt lat="43.421145" lon="10.7739067"><ele>129.5</ele><time>2026-04-06T07:33:27.341Z</time></trkpt><trkpt lat="43.4210317" lon="10.773885"><ele>130.0</ele><time>2026-04-06T07:33:28.346Z</time></trkpt><trkpt lat="43.4209167" lon="10.7738633"><ele>130.5</ele><time>2026-04-06T07:33:29.36Z</time></trkpt><trkpt lat="43.4207983" lon="10.773835"><ele>131.0</ele><time>2026-04-06T07:33:30.338Z</time></trkpt><trkpt lat="43.4206817" lon="10.7738067"><ele>131.0</ele><time>2026-04-06T07:33:31.338Z</time></trkpt><trkpt lat="43.4205683" lon="10.7737717"><ele>131.0</ele><time>2026-04-06T07:33:32.34Z</time></trkpt><trkpt lat="43.420455" lon="10.773735"><ele>131.0</ele><time>2026-04-06T07:33:33.337Z</time></trkpt><trkpt lat="43.4203433" lon="10.7736983"><ele>131.0</ele><time>2026-04-06T07:33:34.336Z</time></trkpt><trkpt lat="43.4202317" lon="10.77366"><ele>130.5</ele><time>2026-04-06T07:33:35.339Z</time></trkpt><trkpt lat="43.4201217" lon="10.7736217"><ele>130.0</ele><time>2026-04-06T07:33:36.335Z</time></trkpt><trkpt lat="43.4200083" lon="10.7735867"><ele>129.5</ele><time>2026-04-06T07:33:37.336Z</time></trkpt><trkpt lat="43.419895" lon="10.7735517"><ele>129.0</ele><time>2026-04-06T07:33:38.336Z</time></trkpt><trkpt lat="43.4197817" lon="10.7735183"><ele>128.75</ele><time>2026-04-06T07:33:39.337Z</time></trkpt><trkpt lat="43.41967" lon="10.7734867"><ele>128.5</ele><time>2026-04-06T07:33:40.337Z</time></trkpt><trkpt lat="43.4195583" lon="10.7734533"><ele>128.25</ele><time>2026-04-06T07:33:41.336Z</time></trkpt><trkpt lat="43.4194467" lon="10.77342"><ele>128.0</ele><time>2026-04-06T07:33:42.348Z</time></trkpt><trkpt lat="43.4193333" lon="10.773385"><ele>128.0</ele><time>2026-04-06T07:33:43.34Z</time></trkpt><trkpt lat="43.4192217" lon="10.7733517"><ele>128.0</ele><time>2026-04-06T07:33:44.337Z</time></trkpt><trkpt lat="43.4191083" lon="10.7733183"><ele>128.0</ele><time>2026-04-06T07:33:45.337Z</time></trkpt><trkpt lat="43.4188783" lon="10.77325"><ele>128.5</ele><time>2026-04-06T07:33:47.337Z</time></trkpt><trkpt lat="43.418765" lon="10.7732133"><ele>129.0</ele><time>2026-04-06T07:33:48.337Z</time></trkpt><trkpt lat="43.4186517" lon="10.7731783"><ele>129.5</ele><time>2026-04-06T07:33:49.343Z</time></trkpt><trkpt lat="43.4185383" lon="10.7731467"><ele>130.0</ele><time>2026-04-06T07:33:50.341Z</time></trkpt><trkpt lat="43.418425" lon="10.7731117"><ele>130.0</ele><time>2026-04-06T07:33:51.343Z</time></trkpt><trkpt lat="43.4183083" lon="10.773075"><ele>130.0</ele><time>2026-04-06T07:33:52.339Z</time></trkpt><trkpt lat="43.4181917" lon="10.7730383"><ele>130.0</ele><time>2026-04-06T07:33:53.35Z</time></trkpt><trkpt lat="43.418075" lon="10.7730033"><ele>130.0</ele><time>2026-04-06T07:33:54.339Z</time></trkpt><trkpt lat="43.41796" lon="10.7729683"><ele>130.25</ele><time>2026-04-06T07:33:55.338Z</time></trkpt><trkpt lat="43.4178433" lon="10.7729333"><ele>130.5</ele><time>2026-04-06T07:33:56.339Z</time></trkpt><trkpt lat="43.4177267" lon="10.772895"><ele>130.75</ele><time>2026-04-06T07:33:57.339Z</time></trkpt><trkpt lat="43.4176083" lon="10.7728583"><ele>131.0</ele><time>2026-04-06T07:33:58.339Z</time></trkpt><trkpt lat="43.41749" lon="10.7728217"><ele>131.0</ele><time>2026-04-06T07:33:59.338Z</time></trkpt><trkpt lat="43.4173783" lon="10.772785"><ele>131.0</ele><time>2026-04-06T07:34:00.34Z</time></trkpt><trkpt lat="43.41727" lon="10.7727517"><ele>131.0</ele><time>2026-04-06T07:34:01.338Z</time></trkpt><trkpt lat="43.4171633" lon="10.77272"><ele>131.0</ele><time>2026-04-06T07:34:02.339Z</time></trkpt><trkpt lat="43.4170567" lon="10.7726983"><ele>131.0</ele><time>2026-04-06T07:34:03.337Z</time></trkpt><trkpt lat="43.4169467" lon="10.772695"><ele>131.4</ele><time>2026-04-06T07:34:04.335Z</time></trkpt><trkpt lat="43.4168383" lon="10.7727167"><ele>131.8</ele><time>2026-04-06T07:34:05.337Z</time></trkpt><trkpt lat="43.4167317" lon="10.77276"><ele>132.20000000000002</ele><time>2026-04-06T07:34:06.345Z</time></trkpt><trkpt lat="43.4166333" lon="10.7728317"><ele>132.6</ele><time>2026-04-06T07:34:07.336Z</time></trkpt><trkpt lat="43.416545" lon="10.7729267"><ele>133.0</ele><time>2026-04-06T07:34:08.344Z</time></trkpt><trkpt lat="43.41647" lon="10.7730383"><ele>133.0</ele><time>2026-04-06T07:34:09.336Z</time></trkpt><trkpt lat="43.4164033" lon="10.7731667"><ele>133.0</ele><time>2026-04-06T07:34:10.337Z</time></trkpt><trkpt lat="43.4163367" lon="10.7732967"><ele>133.0</ele><time>2026-04-06T07:34:11.34Z</time></trkpt><trkpt lat="43.416265" lon="10.7734183"><ele>133.0</ele><time>2026-04-06T07:34:12.34Z</time></trkpt><trkpt lat="43.4161817" lon="10.7735283"><ele>132.75</ele><time>2026-04-06T07:34:13.34Z</time></trkpt><trkpt lat="43.4160867" lon="10.773625"><ele>132.5</ele><time>2026-04-06T07:34:14.34Z</time></trkpt><trkpt lat="43.4159817" lon="10.7737017"><ele>132.25</ele><time>2026-04-06T07:34:15.339Z</time></trkpt><trkpt lat="43.4158667" lon="10.7737617"><ele>132.0</ele><time>2026-04-06T07:34:16.339Z</time></trkpt><trkpt lat="43.4157467" lon="10.7738117"><ele>132.0</ele><time>2026-04-06T07:34:17.339Z</time></trkpt><trkpt lat="43.4156283" lon="10.7738567"><ele>132.0</ele><time>2026-04-06T07:34:18.339Z</time></trkpt><trkpt lat="43.4155133" lon="10.773905"><ele>132.0</ele><time>2026-04-06T07:34:19.341Z</time></trkpt><trkpt lat="43.4154" lon="10.7739583"><ele>132.0</ele><time>2026-04-06T07:34:20.341Z</time></trkpt><trkpt lat="43.4152867" lon="10.77401"><ele>133.0</ele><time>2026-04-06T07:34:21.339Z</time></trkpt><trkpt lat="43.4151717" lon="10.7740583"><ele>134.0</ele><time>2026-04-06T07:34:22.338Z</time></trkpt><trkpt lat="43.4150583" lon="10.7741067"><ele>135.0</ele><time>2026-04-06T07:34:23.338Z</time></trkpt><trkpt lat="43.4149517" lon="10.774155"><ele>136.0</ele><time>2026-04-06T07:34:24.338Z</time></trkpt><trkpt lat="43.4148483" lon="10.7741967"><ele>136.0</ele><time>2026-04-06T07:34:25.337Z</time></trkpt><trkpt lat="43.4147417" lon="10.7742267"><ele>136.0</ele><time>2026-04-06T07:34:26.341Z</time></trkpt><trkpt lat="43.414635" lon="10.7742367"><ele>136.0</ele><time>2026-04-06T07:34:27.339Z</time></trkpt><trkpt lat="43.4145267" lon="10.77422"><ele>136.0</ele><time>2026-04-06T07:34:28.338Z</time></trkpt><trkpt lat="43.4144217" lon="10.7741783"><ele>136.0</ele><time>2026-04-06T07:34:29.338Z</time></trkpt><trkpt lat="43.4143183" lon="10.7741167"><ele>136.25</ele><time>2026-04-06T07:34:30.336Z</time></trkpt><trkpt lat="43.4142167" lon="10.774045"><ele>136.5</ele><time>2026-04-06T07:34:31.336Z</time></trkpt><trkpt lat="43.414115" lon="10.7739683"><ele>136.75</ele><time>2026-04-06T07:34:32.336Z</time></trkpt><trkpt lat="43.4140083" lon="10.7738917"><ele>137.0</ele><time>2026-04-06T07:34:33.339Z</time></trkpt><trkpt lat="43.4139" lon="10.773815"><ele>136.75</ele><time>2026-04-06T07:34:34.336Z</time></trkpt><trkpt lat="43.4137933" lon="10.7737417"><ele>136.5</ele><time>2026-04-06T07:34:35.338Z</time></trkpt><trkpt lat="43.4136917" lon="10.77367"><ele>136.25</ele><time>2026-04-06T07:34:36.337Z</time></trkpt><trkpt lat="43.4135917" lon="10.7735983"><ele>136.0</ele><time>2026-04-06T07:34:37.337Z</time></trkpt><trkpt lat="43.4134933" lon="10.7735283"><ele>137.5</ele><time>2026-04-06T07:34:38.337Z</time></trkpt><trkpt lat="43.4133933" lon="10.7734567"><ele>139.0</ele><time>2026-04-06T07:34:39.335Z</time></trkpt><trkpt lat="43.4132933" lon="10.773385"><ele>140.5</ele><time>2026-04-06T07:34:40.334Z</time></trkpt><trkpt lat="43.4131883" lon="10.7733217"><ele>142.0</ele><time>2026-04-06T07:34:41.336Z</time></trkpt><trkpt lat="43.41308" lon="10.7732667"><ele>141.4</ele><time>2026-04-06T07:34:42.338Z</time></trkpt><trkpt lat="43.412975" lon="10.7732233"><ele>140.79999999999998</ele><time>2026-04-06T07:34:43.336Z</time></trkpt><trkpt lat="43.4128783" lon="10.7731833"><ele>140.2</ele><time>2026-04-06T07:34:44.339Z</time></trkpt><trkpt lat="43.412785" lon="10.7731467"><ele>139.6</ele><time>2026-04-06T07:34:45.337Z</time></trkpt><trkpt lat="43.4126867" lon="10.7731233"><ele>139.0</ele><time>2026-04-06T07:34:46.336Z</time></trkpt><trkpt lat="43.4125867" lon="10.77313"><ele>139.0</ele><time>2026-04-06T07:34:47.345Z</time></trkpt><trkpt lat="43.41249" lon="10.7731717"><ele>139.0</ele><time>2026-04-06T07:34:48.339Z</time></trkpt><trkpt lat="43.4124" lon="10.7732417"><ele>139.0</ele><time>2026-04-06T07:34:49.339Z</time></trkpt><trkpt lat="43.4123167" lon="10.77333"><ele>139.0</ele><time>2026-04-06T07:34:50.343Z</time></trkpt><trkpt lat="43.41223" lon="10.7734183"><ele>139.0</ele><time>2026-04-06T07:34:51.338Z</time></trkpt><trkpt lat="43.412135" lon="10.773495"><ele>138.5</ele><time>2026-04-06T07:34:52.338Z</time></trkpt><trkpt lat="43.4120333" lon="10.7735633"><ele>138.0</ele><time>2026-04-06T07:34:53.34Z</time></trkpt><trkpt lat="43.4119267" lon="10.7736267"><ele>137.5</ele><time>2026-04-06T07:34:54.343Z</time></trkpt><trkpt lat="43.4118133" lon="10.7736817"><ele>137.0</ele><time>2026-04-06T07:34:55.334Z</time></trkpt><trkpt lat="43.4116983" lon="10.7737167"><ele>137.0</ele><time>2026-04-06T07:34:56.337Z</time></trkpt><trkpt lat="43.4115783" lon="10.7737283"><ele>137.0</ele><time>2026-04-06T07:34:57.338Z</time></trkpt><trkpt lat="43.4114567" lon="10.7737117"><ele>137.0</ele><time>2026-04-06T07:34:58.338Z</time></trkpt><trkpt lat="43.411335" lon="10.7736767"><ele>137.0</ele><time>2026-04-06T07:34:59.337Z</time></trkpt><trkpt lat="43.4112117" lon="10.7736367"><ele>137.5</ele><time>2026-04-06T07:35:00.351Z</time></trkpt><trkpt lat="43.411085" lon="10.7736117"><ele>138.0</ele><time>2026-04-06T07:35:01.338Z</time></trkpt><trkpt lat="43.41096" lon="10.7736067"><ele>138.5</ele><time>2026-04-06T07:35:02.341Z</time></trkpt><trkpt lat="43.4108367" lon="10.7736183"><ele>139.0</ele><time>2026-04-06T07:35:03.34Z</time></trkpt><trkpt lat="43.4107133" lon="10.7736267"><ele>139.0</ele><time>2026-04-06T07:35:04.342Z</time></trkpt><trkpt lat="43.4105933" lon="10.7736217"><ele>139.0</ele><time>2026-04-06T07:35:05.339Z</time></trkpt><trkpt lat="43.41048" lon="10.7736033"><ele>139.0</ele><time>2026-04-06T07:35:06.339Z</time></trkpt><trkpt lat="43.410375" lon="10.77357"><ele>139.0</ele><time>2026-04-06T07:35:07.345Z</time></trkpt><trkpt lat="43.4102733" lon="10.77352"><ele>139.0</ele><time>2026-04-06T07:35:08.337Z</time></trkpt><trkpt lat="43.410175" lon="10.7734767"><ele>139.0</ele><time>2026-04-06T07:35:09.336Z</time></trkpt><trkpt lat="43.4100733" lon="10.7734567"><ele>139.0</ele><time>2026-04-06T07:35:10.34Z</time></trkpt><trkpt lat="43.4099717" lon="10.7734717"><ele>139.0</ele><time>2026-04-06T07:35:11.336Z</time></trkpt><trkpt lat="43.4098717" lon="10.7735183"><ele>139.0</ele><time>2026-04-06T07:35:12.336Z</time></trkpt><trkpt lat="43.4097833" lon="10.7736017"><ele>139.0</ele><time>2026-04-06T07:35:13.34Z</time></trkpt><trkpt lat="43.4097117" lon="10.7737083"><ele>139.0</ele><time>2026-04-06T07:35:14.337Z</time></trkpt><trkpt lat="43.4096617" lon="10.7738367"><ele>139.0</ele><time>2026-04-06T07:35:15.337Z</time></trkpt><trkpt lat="43.4096317" lon="10.773975"><ele>139.0</ele><time>2026-04-06T07:35:16.336Z</time></trkpt><trkpt lat="43.40961" lon="10.774115"><ele>139.0</ele><time>2026-04-06T07:35:17.339Z</time></trkpt><trkpt lat="43.4095783" lon="10.77425"><ele>140.0</ele><time>2026-04-06T07:35:18.339Z</time></trkpt><trkpt lat="43.4095317" lon="10.77438"><ele>141.0</ele><time>2026-04-06T07:35:19.337Z</time></trkpt><trkpt lat="43.4094733" lon="10.7745"><ele>142.0</ele><time>2026-04-06T07:35:20.339Z</time></trkpt><trkpt lat="43.4094017" lon="10.7746083"><ele>143.0</ele><time>2026-04-06T07:35:21.34Z</time></trkpt><trkpt lat="43.4093183" lon="10.7747033"><ele>144.0</ele><time>2026-04-06T07:35:22.335Z</time></trkpt><trkpt lat="43.4092283" lon="10.774785"><ele>144.0</ele><time>2026-04-06T07:35:23.337Z</time></trkpt><trkpt lat="43.4091367" lon="10.7748567"><ele>144.0</ele><time>2026-04-06T07:35:24.336Z</time></trkpt><trkpt lat="43.4090417" lon="10.7749267"><ele>144.0</ele><time>2026-04-06T07:35:25.338Z</time></trkpt><trkpt lat="43.4089467" lon="10.774995"><ele>144.0</ele><time>2026-04-06T07:35:26.34Z</time></trkpt><trkpt lat="43.4088467" lon="10.77506"><ele>144.0</ele><time>2026-04-06T07:35:27.337Z</time></trkpt><trkpt lat="43.4087417" lon="10.7751167"><ele>143.5</ele><time>2026-04-06T07:35:28.339Z</time></trkpt><trkpt lat="43.4086367" lon="10.775165"><ele>143.0</ele><time>2026-04-06T07:35:29.337Z</time></trkpt><trkpt lat="43.40853" lon="10.7752117"><ele>142.5</ele><time>2026-04-06T07:35:30.336Z</time></trkpt><trkpt lat="43.40842" lon="10.7752567"><ele>142.0</ele><time>2026-04-06T07:35:31.341Z</time></trkpt><trkpt lat="43.4083083" lon="10.7752983"><ele>142.0</ele><time>2026-04-06T07:35:32.337Z</time></trkpt><trkpt lat="43.4081933" lon="10.7753333"><ele>142.0</ele><time>2026-04-06T07:35:33.339Z</time></trkpt><trkpt lat="43.4080783" lon="10.7753617"><ele>142.0</ele><time>2026-04-06T07:35:34.338Z</time></trkpt><trkpt lat="43.4079617" lon="10.7753817"><ele>142.0</ele><time>2026-04-06T07:35:35.337Z</time></trkpt><trkpt lat="43.4078433" lon="10.775395"><ele>142.75</ele><time>2026-04-06T07:35:36.336Z</time></trkpt><trkpt lat="43.407725" lon="10.7753983"><ele>143.5</ele><time>2026-04-06T07:35:37.338Z</time></trkpt><trkpt lat="43.4076067" lon="10.7753983"><ele>144.25</ele><time>2026-04-06T07:35:38.335Z</time></trkpt><trkpt lat="43.4074933" lon="10.7753983"><ele>145.0</ele><time>2026-04-06T07:35:39.338Z</time></trkpt><trkpt lat="43.407385" lon="10.7754017"><ele>145.0</ele><time>2026-04-06T07:35:40.337Z</time></trkpt><trkpt lat="43.4072783" lon="10.77541"><ele>145.0</ele><time>2026-04-06T07:35:41.337Z</time></trkpt><trkpt lat="43.4071717" lon="10.7754317"><ele>145.0</ele><time>2026-04-06T07:35:42.338Z</time></trkpt><trkpt lat="43.407065" lon="10.7754683"><ele>145.0</ele><time>2026-04-06T07:35:43.34Z</time></trkpt><trkpt lat="43.4069583" lon="10.7755117"><ele>145.0</ele><time>2026-04-06T07:35:44.337Z</time></trkpt><trkpt lat="43.4068483" lon="10.7755467"><ele>145.25</ele><time>2026-04-06T07:35:45.336Z</time></trkpt><trkpt lat="43.4067333" lon="10.77557"><ele>145.5</ele><time>2026-04-06T07:35:46.335Z</time></trkpt><trkpt lat="43.4066183" lon="10.775575"><ele>145.75</ele><time>2026-04-06T07:35:47.338Z</time></trkpt><trkpt lat="43.4065017" lon="10.775565"><ele>146.0</ele><time>2026-04-06T07:35:48.336Z</time></trkpt><trkpt lat="43.4063867" lon="10.7755417"><ele>145.75</ele><time>2026-04-06T07:35:49.337Z</time></trkpt><trkpt lat="43.40627" lon="10.7755017"><ele>145.5</ele><time>2026-04-06T07:35:50.339Z</time></trkpt><trkpt lat="43.406155" lon="10.775455"><ele>145.25</ele><time>2026-04-06T07:35:51.341Z</time></trkpt><trkpt lat="43.40604" lon="10.7754033"><ele>145.0</ele><time>2026-04-06T07:35:52.337Z</time></trkpt><trkpt lat="43.4059267" lon="10.775345"><ele>145.0</ele><time>2026-04-06T07:35:53.338Z</time></trkpt><trkpt lat="43.4058133" lon="10.7752883"><ele>145.0</ele><time>2026-04-06T07:35:54.34Z</time></trkpt><trkpt lat="43.4057017" lon="10.7752317"><ele>145.0</ele><time>2026-04-06T07:35:55.338Z</time></trkpt><trkpt lat="43.40559" lon="10.7751767"><ele>145.0</ele><time>2026-04-06T07:35:56.338Z</time></trkpt><trkpt lat="43.4054817" lon="10.7751217"><ele>146.25</ele><time>2026-04-06T07:35:57.336Z</time></trkpt><trkpt lat="43.405375" lon="10.7750667"><ele>147.5</ele><time>2026-04-06T07:35:58.334Z</time></trkpt><trkpt lat="43.4052683" lon="10.77501"><ele>148.75</ele><time>2026-04-06T07:35:59.337Z</time></trkpt><trkpt lat="43.4051617" lon="10.7749567"><ele>150.0</ele><time>2026-04-06T07:36:00.34Z</time></trkpt><trkpt lat="43.405055" lon="10.7749017"><ele>150.0</ele><time>2026-04-06T07:36:01.337Z</time></trkpt><trkpt lat="43.4049483" lon="10.7748483"><ele>150.0</ele><time>2026-04-06T07:36:02.338Z</time></trkpt><trkpt lat="43.4048417" lon="10.774795"><ele>150.0</ele><time>2026-04-06T07:36:03.337Z</time></trkpt><trkpt lat="43.4047317" lon="10.7747417"><ele>150.0</ele><time>2026-04-06T07:36:04.336Z</time></trkpt><trkpt lat="43.4046217" lon="10.7746933"><ele>150.0</ele><time>2026-04-06T07:36:05.339Z</time></trkpt><trkpt lat="43.40451" lon="10.7746483"><ele>150.0</ele><time>2026-04-06T07:36:06.34Z</time></trkpt><trkpt lat="43.4043983" lon="10.7746133"><ele>150.0</ele><time>2026-04-06T07:36:07.341Z</time></trkpt><trkpt lat="43.404285" lon="10.77459"><ele>150.0</ele><time>2026-04-06T07:36:08.336Z</time></trkpt><trkpt lat="43.40417" lon="10.774585"><ele>150.0</ele><time>2026-04-06T07:36:09.34Z</time></trkpt><trkpt lat="43.4040567" lon="10.7745967"><ele>150.0</ele><time>2026-04-06T07:36:10.34Z</time></trkpt><trkpt lat="43.403945" lon="10.7746283"><ele>150.0</ele><time>2026-04-06T07:36:11.34Z</time></trkpt><trkpt lat="43.4038383" lon="10.7746783"><ele>150.0</ele><time>2026-04-06T07:36:12.335Z</time></trkpt><trkpt lat="43.4037333" lon="10.7747433"><ele>152.0</ele><time>2026-04-06T07:36:13.337Z</time></trkpt><trkpt lat="43.4036283" lon="10.7748167"><ele>154.0</ele><time>2026-04-06T07:36:14.337Z</time></trkpt><trkpt lat="43.40352" lon="10.7748883"><ele>156.0</ele><time>2026-04-06T07:36:15.335Z</time></trkpt><trkpt lat="43.4034117" lon="10.7749583"><ele>158.0</ele><time>2026-04-06T07:36:16.338Z</time></trkpt><trkpt lat="43.4033017" lon="10.77503"><ele>158.0</ele><time>2026-04-06T07:36:17.337Z</time></trkpt><trkpt lat="43.4031917" lon="10.7751033"><ele>158.0</ele><time>2026-04-06T07:36:18.337Z</time></trkpt><trkpt lat="43.4030783" lon="10.7751783"><ele>158.0</ele><time>2026-04-06T07:36:19.336Z</time></trkpt><trkpt lat="43.4029683" lon="10.7752483"><ele>158.0</ele><time>2026-04-06T07:36:20.338Z</time></trkpt><trkpt lat="43.4028633" lon="10.7753117"><ele>158.0</ele><time>2026-04-06T07:36:21.338Z</time></trkpt><trkpt lat="43.4027617" lon="10.7753717"><ele>158.0</ele><time>2026-04-06T07:36:22.337Z</time></trkpt><trkpt lat="43.4026633" lon="10.775435"><ele>158.0</ele><time>2026-04-06T07:36:23.34Z</time></trkpt><trkpt lat="43.4025733" lon="10.7755167"><ele>158.0</ele><time>2026-04-06T07:36:24.342Z</time></trkpt><trkpt lat="43.4024967" lon="10.7756167"><ele>158.0</ele><time>2026-04-06T07:36:25.336Z</time></trkpt><trkpt lat="43.4024333" lon="10.77574"><ele>158.0</ele><time>2026-04-06T07:36:26.338Z</time></trkpt><trkpt lat="43.402385" lon="10.77588"><ele>158.0</ele><time>2026-04-06T07:36:27.34Z</time></trkpt><trkpt lat="43.402355" lon="10.776035"><ele>158.0</ele><time>2026-04-06T07:36:28.335Z</time></trkpt><trkpt lat="43.4023367" lon="10.77619"><ele>158.0</ele><time>2026-04-06T07:36:29.338Z</time></trkpt><trkpt lat="43.4023233" lon="10.77635"><ele>158.0</ele><time>2026-04-06T07:36:30.336Z</time></trkpt><trkpt lat="43.4023083" lon="10.77651"><ele>158.0</ele><time>2026-04-06T07:36:31.337Z</time></trkpt><trkpt lat="43.402285" lon="10.77667"><ele>158.0</ele><time>2026-04-06T07:36:32.339Z</time></trkpt><trkpt lat="43.402255" lon="10.77683"><ele>158.0</ele><time>2026-04-06T07:36:33.336Z</time></trkpt><trkpt lat="43.4022167" lon="10.7769867"><ele>157.5</ele><time>2026-04-06T07:36:34.336Z</time></trkpt><trkpt lat="43.4021767" lon="10.7771383"><ele>157.0</ele><time>2026-04-06T07:36:35.336Z</time></trkpt><trkpt lat="43.4021367" lon="10.7772883"><ele>156.5</ele><time>2026-04-06T07:36:36.336Z</time></trkpt><trkpt lat="43.4021" lon="10.7774417"><ele>156.0</ele><time>2026-04-06T07:36:37.337Z</time></trkpt><trkpt lat="43.40207" lon="10.7775967"><ele>158.5</ele><time>2026-04-06T07:36:38.343Z</time></trkpt><trkpt lat="43.4020467" lon="10.7777567"><ele>161.0</ele><time>2026-04-06T07:36:39.337Z</time></trkpt><trkpt lat="43.40203" lon="10.7779167"><ele>163.5</ele><time>2026-04-06T07:36:40.337Z</time></trkpt><trkpt lat="43.402015" lon="10.778075"><ele>166.0</ele><time>2026-04-06T07:36:41.335Z</time></trkpt><trkpt lat="43.4020067" lon="10.7782317"><ele>166.0</ele><time>2026-04-06T07:36:42.338Z</time></trkpt><trkpt lat="43.4020033" lon="10.7783867"><ele>166.0</ele><time>2026-04-06T07:36:43.338Z</time></trkpt><trkpt lat="43.402005" lon="10.778545"><ele>166.0</ele><time>2026-04-06T07:36:44.344Z</time></trkpt><trkpt lat="43.4020083" lon="10.7787033"><ele>166.0</ele><time>2026-04-06T07:36:45.337Z</time></trkpt><trkpt lat="43.402015" lon="10.7788583"><ele>166.0</ele><time>2026-04-06T07:36:46.336Z</time></trkpt><trkpt lat="43.4020217" lon="10.7790167"><ele>166.0</ele><time>2026-04-06T07:36:47.34Z</time></trkpt><trkpt lat="43.4020267" lon="10.7791733"><ele>166.0</ele><time>2026-04-06T07:36:48.338Z</time></trkpt><trkpt lat="43.40204" lon="10.779485"><ele>166.0</ele><time>2026-04-06T07:36:50.34Z</time></trkpt><trkpt lat="43.4020467" lon="10.77964"><ele>166.0</ele><time>2026-04-06T07:36:51.34Z</time></trkpt><trkpt lat="43.40205" lon="10.7797967"><ele>166.0</ele><time>2026-04-06T07:36:52.337Z</time></trkpt><trkpt lat="43.4020467" lon="10.7799533"><ele>166.0</ele><time>2026-04-06T07:36:53.339Z</time></trkpt><trkpt lat="43.402035" lon="10.7801083"><ele>165.75</ele><time>2026-04-06T07:36:54.339Z</time></trkpt><trkpt lat="43.402015" lon="10.7802633"><ele>165.5</ele><time>2026-04-06T07:36:55.338Z</time></trkpt><trkpt lat="43.4019933" lon="10.7804217"><ele>165.25</ele><time>2026-04-06T07:36:56.341Z</time></trkpt><trkpt lat="43.4019717" lon="10.7805783"><ele>165.0</ele><time>2026-04-06T07:36:57.34Z</time></trkpt><trkpt lat="43.4019517" lon="10.780735"><ele>165.0</ele><time>2026-04-06T07:36:58.338Z</time></trkpt><trkpt lat="43.4019317" lon="10.780885"><ele>165.0</ele><time>2026-04-06T07:36:59.337Z</time></trkpt><trkpt lat="43.401915" lon="10.78103"><ele>165.0</ele><time>2026-04-06T07:37:00.338Z</time></trkpt><trkpt lat="43.4018983" lon="10.7811717"><ele>165.0</ele><time>2026-04-06T07:37:01.337Z</time></trkpt><trkpt lat="43.4018833" lon="10.7813117"><ele>165.0</ele><time>2026-04-06T07:37:02.338Z</time></trkpt><trkpt lat="43.4018683" lon="10.781455"><ele>165.0</ele><time>2026-04-06T07:37:03.339Z</time></trkpt><trkpt lat="43.40186" lon="10.7815983"><ele>165.0</ele><time>2026-04-06T07:37:04.337Z</time></trkpt><trkpt lat="43.4018617" lon="10.78174"><ele>165.0</ele><time>2026-04-06T07:37:05.336Z</time></trkpt><trkpt lat="43.4018667" lon="10.7818833"><ele>165.0</ele><time>2026-04-06T07:37:06.341Z</time></trkpt><trkpt lat="43.4018733" lon="10.7820267"><ele>165.0</ele><time>2026-04-06T07:37:07.342Z</time></trkpt><trkpt lat="43.4018867" lon="10.7821717"><ele>164.8</ele><time>2026-04-06T07:37:08.339Z</time></trkpt><trkpt lat="43.4019" lon="10.782315"><ele>164.6</ele><time>2026-04-06T07:37:09.34Z</time></trkpt><trkpt lat="43.4019133" lon="10.7824583"><ele>164.39999999999998</ele><time>2026-04-06T07:37:10.334Z</time></trkpt><trkpt lat="43.4019233" lon="10.7826033"><ele>164.2</ele><time>2026-04-06T07:37:11.336Z</time></trkpt><trkpt lat="43.401935" lon="10.7827483"><ele>164.0</ele><time>2026-04-06T07:37:12.335Z</time></trkpt><trkpt lat="43.40195" lon="10.7828933"><ele>163.39999999999998</ele><time>2026-04-06T07:37:13.334Z</time></trkpt><trkpt lat="43.4019617" lon="10.7830383"><ele>162.8</ele><time>2026-04-06T07:37:14.341Z</time></trkpt><trkpt lat="43.401975" lon="10.7831833"><ele>162.2</ele><time>2026-04-06T07:37:15.339Z</time></trkpt><trkpt lat="43.40199" lon="10.7833283"><ele>161.60000000000002</ele><time>2026-04-06T07:37:16.339Z</time></trkpt><trkpt lat="43.4020067" lon="10.7834767"><ele>161.0</ele><time>2026-04-06T07:37:17.336Z</time></trkpt><trkpt lat="43.4020217" lon="10.7836217"><ele>160.4</ele><time>2026-04-06T07:37:18.339Z</time></trkpt><trkpt lat="43.4020367" lon="10.7837717"><ele>159.8</ele><time>2026-04-06T07:37:19.337Z</time></trkpt><trkpt lat="43.4020517" lon="10.783925"><ele>159.20000000000002</ele><time>2026-04-06T07:37:20.339Z</time></trkpt><trkpt lat="43.4020717" lon="10.7840767"><ele>158.60000000000002</ele><time>2026-04-06T07:37:21.339Z</time></trkpt><trkpt lat="43.4020933" lon="10.78423"><ele>158.0</ele><time>2026-04-06T07:37:22.336Z</time></trkpt><trkpt lat="43.4021183" lon="10.7843817"><ele>157.8</ele><time>2026-04-06T07:37:23.341Z</time></trkpt><trkpt lat="43.40215" lon="10.7845283"><ele>157.60000000000002</ele><time>2026-04-06T07:37:24.339Z</time></trkpt><trkpt lat="43.4021833" lon="10.784675"><ele>157.39999999999998</ele><time>2026-04-06T07:37:25.335Z</time></trkpt><trkpt lat="43.4022183" lon="10.7848217"><ele>157.2</ele><time>2026-04-06T07:37:26.337Z</time></trkpt><trkpt lat="43.402255" lon="10.7849683"><ele>157.0</ele><time>2026-04-06T07:37:27.336Z</time></trkpt><trkpt lat="43.4022933" lon="10.7851183"><ele>158.75</ele><time>2026-04-06T07:37:28.338Z</time></trkpt><trkpt lat="43.40233" lon="10.7852667"><ele>160.5</ele><time>2026-04-06T07:37:29.336Z</time></trkpt><trkpt lat="43.4023683" lon="10.7854167"><ele>162.25</ele><time>2026-04-06T07:37:30.339Z</time></trkpt><trkpt lat="43.4024067" lon="10.7855667"><ele>164.0</ele><time>2026-04-06T07:37:31.429Z</time></trkpt><trkpt lat="43.4024467" lon="10.785715"><ele>164.0</ele><time>2026-04-06T07:37:32.338Z</time></trkpt><trkpt lat="43.4024867" lon="10.78586"><ele>164.0</ele><time>2026-04-06T07:37:33.336Z</time></trkpt><trkpt lat="43.4025233" lon="10.7860067"><ele>164.0</ele><time>2026-04-06T07:37:34.338Z</time></trkpt><trkpt lat="43.40256" lon="10.786155"><ele>164.0</ele><time>2026-04-06T07:37:35.343Z</time></trkpt><trkpt lat="43.402595" lon="10.7863033"><ele>164.39999999999998</ele><time>2026-04-06T07:37:36.338Z</time></trkpt><trkpt lat="43.4026317" lon="10.78645"><ele>164.8</ele><time>2026-04-06T07:37:37.337Z</time></trkpt><trkpt lat="43.40267" lon="10.7865933"><ele>165.2</ele><time>2026-04-06T07:37:38.338Z</time></trkpt><trkpt lat="43.4027083" lon="10.7867367"><ele>165.60000000000002</ele><time>2026-04-06T07:37:39.342Z</time></trkpt><trkpt lat="43.402745" lon="10.7868817"><ele>166.0</ele><time>2026-04-06T07:37:40.334Z</time></trkpt><trkpt lat="43.4027783" lon="10.787025"><ele>166.4</ele><time>2026-04-06T07:37:41.338Z</time></trkpt><trkpt lat="43.4028133" lon="10.78717"><ele>166.8</ele><time>2026-04-06T07:37:42.341Z</time></trkpt><trkpt lat="43.4028433" lon="10.7873133"><ele>167.20000000000002</ele><time>2026-04-06T07:37:43.336Z</time></trkpt><trkpt lat="43.4028667" lon="10.7874567"><ele>167.60000000000002</ele><time>2026-04-06T07:37:44.339Z</time></trkpt><trkpt lat="43.4028833" lon="10.7876"><ele>168.0</ele><time>2026-04-06T07:37:45.334Z</time></trkpt><trkpt lat="43.4028883" lon="10.787745"><ele>169.4</ele><time>2026-04-06T07:37:46.339Z</time></trkpt><trkpt lat="43.4028817" lon="10.7878867"><ele>170.8</ele><time>2026-04-06T07:37:47.335Z</time></trkpt><trkpt lat="43.402855" lon="10.7880267"><ele>172.2</ele><time>2026-04-06T07:37:48.343Z</time></trkpt><trkpt lat="43.4028117" lon="10.78816"><ele>173.6</ele><time>2026-04-06T07:37:49.342Z</time></trkpt><trkpt lat="43.4027533" lon="10.7882817"><ele>175.0</ele><time>2026-04-06T07:37:50.337Z</time></trkpt><trkpt lat="43.402685" lon="10.788395"><ele>175.0</ele><time>2026-04-06T07:37:51.338Z</time></trkpt><trkpt lat="43.402615" lon="10.788505"><ele>175.0</ele><time>2026-04-06T07:37:52.338Z</time></trkpt><trkpt lat="43.4025417" lon="10.78861"><ele>175.0</ele><time>2026-04-06T07:37:53.343Z</time></trkpt><trkpt lat="43.40247" lon="10.7887133"><ele>175.0</ele><time>2026-04-06T07:37:54.335Z</time></trkpt><trkpt lat="43.4023983" lon="10.7888117"><ele>175.0</ele><time>2026-04-06T07:37:55.337Z</time></trkpt><trkpt lat="43.4023217" lon="10.7889067"><ele>174.4</ele><time>2026-04-06T07:37:56.338Z</time></trkpt><trkpt lat="43.402235" lon="10.78899"><ele>173.8</ele><time>2026-04-06T07:37:57.34Z</time></trkpt><trkpt lat="43.4021433" lon="10.7890567"><ele>173.2</ele><time>2026-04-06T07:37:58.336Z</time></trkpt><trkpt lat="43.402045" lon="10.7891"><ele>172.6</ele><time>2026-04-06T07:37:59.339Z</time></trkpt><trkpt lat="43.4019417" lon="10.7891167"><ele>172.0</ele><time>2026-04-06T07:38:00.335Z</time></trkpt><trkpt lat="43.401835" lon="10.7891083"><ele>172.0</ele><time>2026-04-06T07:38:01.337Z</time></trkpt><trkpt lat="43.4017333" lon="10.7890833"><ele>172.0</ele><time>2026-04-06T07:38:02.339Z</time></trkpt><trkpt lat="43.4016333" lon="10.7890483"><ele>172.0</ele><time>2026-04-06T07:38:03.338Z</time></trkpt><trkpt lat="43.4015333" lon="10.789015"><ele>172.0</ele><time>2026-04-06T07:38:04.337Z</time></trkpt><trkpt lat="43.401435" lon="10.7889933"><ele>172.0</ele><time>2026-04-06T07:38:05.339Z</time></trkpt><trkpt lat="43.4013383" lon="10.7889967"><ele>169.0</ele><time>2026-04-06T07:38:06.34Z</time></trkpt><trkpt lat="43.4012467" lon="10.7890233"><ele>166.0</ele><time>2026-04-06T07:38:07.336Z</time></trkpt><trkpt lat="43.401165" lon="10.7890817"><ele>163.0</ele><time>2026-04-06T07:38:08.339Z</time></trkpt><trkpt lat="43.4010967" lon="10.7891717"><ele>160.0</ele><time>2026-04-06T07:38:09.338Z</time></trkpt><trkpt lat="43.4010533" lon="10.7892833"><ele>157.0</ele><time>2026-04-06T07:38:10.336Z</time></trkpt><trkpt lat="43.4010333" lon="10.7894083"><ele>156.0</ele><time>2026-04-06T07:38:11.339Z</time></trkpt><trkpt lat="43.4010383" lon="10.789535"><ele>155.0</ele><time>2026-04-06T07:38:12.338Z</time></trkpt><trkpt lat="43.401065" lon="10.789655"><ele>154.0</ele><time>2026-04-06T07:38:13.34Z</time></trkpt><trkpt lat="43.4011083" lon="10.78977"><ele>153.0</ele><time>2026-04-06T07:38:14.34Z</time></trkpt><trkpt lat="43.4011567" lon="10.78988"><ele>152.0</ele><time>2026-04-06T07:38:15.335Z</time></trkpt><trkpt lat="43.4012067" lon="10.7899867"><ele>152.0</ele><time>2026-04-06T07:38:16.335Z</time></trkpt><trkpt lat="43.4012617" lon="10.7900883"><ele>152.0</ele><time>2026-04-06T07:38:17.337Z</time></trkpt><trkpt lat="43.4013233" lon="10.7901833"><ele>152.0</ele><time>2026-04-06T07:38:18.338Z</time></trkpt><trkpt lat="43.4013817" lon="10.7902817"><ele>152.0</ele><time>2026-04-06T07:38:19.336Z</time></trkpt><trkpt lat="43.4014317" lon="10.790385"><ele>152.0</ele><time>2026-04-06T07:38:20.337Z</time></trkpt><trkpt lat="43.4014683" lon="10.7904967"><ele>151.6</ele><time>2026-04-06T07:38:21.336Z</time></trkpt><trkpt lat="43.401485" lon="10.7906167"><ele>151.2</ele><time>2026-04-06T07:38:22.337Z</time></trkpt><trkpt lat="43.4014783" lon="10.7907383"><ele>150.8</ele><time>2026-04-06T07:38:23.332Z</time></trkpt><trkpt lat="43.4014433" lon="10.7908483"><ele>150.4</ele><time>2026-04-06T07:38:24.34Z</time></trkpt><trkpt lat="43.40138" lon="10.79094"><ele>150.0</ele><time>2026-04-06T07:38:25.338Z</time></trkpt><trkpt lat="43.4013033" lon="10.7910183"><ele>150.0</ele><time>2026-04-06T07:38:26.338Z</time></trkpt><trkpt lat="43.4012233" lon="10.791085"><ele>150.0</ele><time>2026-04-06T07:38:27.339Z</time></trkpt><trkpt lat="43.4011417" lon="10.791145"><ele>150.0</ele><time>2026-04-06T07:38:28.334Z</time></trkpt><trkpt lat="43.401055" lon="10.7911983"><ele>150.0</ele><time>2026-04-06T07:38:29.335Z</time></trkpt><trkpt lat="43.4009633" lon="10.79125"><ele>150.0</ele><time>2026-04-06T07:38:30.337Z</time></trkpt><trkpt lat="43.4008667" lon="10.7912933"><ele>150.0</ele><time>2026-04-06T07:38:31.336Z</time></trkpt><trkpt lat="43.40077" lon="10.791325"><ele>150.0</ele><time>2026-04-06T07:38:32.344Z</time></trkpt><trkpt lat="43.4006733" lon="10.7913617"><ele>150.0</ele><time>2026-04-06T07:38:33.336Z</time></trkpt><trkpt lat="43.4005783" lon="10.7914"><ele>150.0</ele><time>2026-04-06T07:38:34.338Z</time></trkpt><trkpt lat="43.4004833" lon="10.7914433"><ele>150.0</ele><time>2026-04-06T07:38:35.338Z</time></trkpt><trkpt lat="43.4003883" lon="10.791495"><ele>148.8</ele><time>2026-04-06T07:38:36.337Z</time></trkpt><trkpt lat="43.4002967" lon="10.7915633"><ele>147.6</ele><time>2026-04-06T07:38:37.341Z</time></trkpt><trkpt lat="43.4002133" lon="10.7916467"><ele>146.4</ele><time>2026-04-06T07:38:38.34Z</time></trkpt><trkpt lat="43.40014" lon="10.7917467"><ele>145.2</ele><time>2026-04-06T07:38:39.342Z</time></trkpt><trkpt lat="43.4000867" lon="10.7918567"><ele>144.0</ele><time>2026-04-06T07:38:40.339Z</time></trkpt><trkpt lat="43.4000483" lon="10.7919833"><ele>144.0</ele><time>2026-04-06T07:38:41.338Z</time></trkpt><trkpt lat="43.4000133" lon="10.7921117"><ele>144.0</ele><time>2026-04-06T07:38:42.337Z</time></trkpt><trkpt lat="43.3999767" lon="10.792235"><ele>144.0</ele><time>2026-04-06T07:38:43.337Z</time></trkpt><trkpt lat="43.399935" lon="10.7923517"><ele>144.0</ele><time>2026-04-06T07:38:44.341Z</time></trkpt><trkpt lat="43.399885" lon="10.79246"><ele>144.0</ele><time>2026-04-06T07:38:45.337Z</time></trkpt><trkpt lat="43.3998283" lon="10.792565"><ele>144.0</ele><time>2026-04-06T07:38:46.339Z</time></trkpt><trkpt lat="43.39976" lon="10.7926633"><ele>144.0</ele><time>2026-04-06T07:38:47.34Z</time></trkpt><trkpt lat="43.3996767" lon="10.7927467"><ele>144.0</ele><time>2026-04-06T07:38:48.337Z</time></trkpt><trkpt lat="43.39958" lon="10.7928033"><ele>144.0</ele><time>2026-04-06T07:38:49.338Z</time></trkpt><trkpt lat="43.3994817" lon="10.7928417"><ele>144.0</ele><time>2026-04-06T07:38:50.339Z</time></trkpt><trkpt lat="43.3993783" lon="10.792875"><ele>143.0</ele><time>2026-04-06T07:38:51.339Z</time></trkpt><trkpt lat="43.399275" lon="10.7928983"><ele>142.0</ele><time>2026-04-06T07:38:52.337Z</time></trkpt><trkpt lat="43.3991667" lon="10.7929017"><ele>141.0</ele><time>2026-04-06T07:38:53.338Z</time></trkpt><trkpt lat="43.3990583" lon="10.7928833"><ele>140.0</ele><time>2026-04-06T07:38:54.339Z</time></trkpt><trkpt lat="43.3989517" lon="10.792845"><ele>139.0</ele><time>2026-04-06T07:38:55.341Z</time></trkpt><trkpt lat="43.3988467" lon="10.792795"><ele>138.4</ele><time>2026-04-06T07:38:56.345Z</time></trkpt><trkpt lat="43.3987433" lon="10.79274"><ele>137.8</ele><time>2026-04-06T07:38:57.341Z</time></trkpt><trkpt lat="43.39864" lon="10.7926817"><ele>137.2</ele><time>2026-04-06T07:38:58.339Z</time></trkpt><trkpt lat="43.3985383" lon="10.7926233"><ele>136.6</ele><time>2026-04-06T07:38:59.341Z</time></trkpt><trkpt lat="43.3984367" lon="10.7925633"><ele>136.0</ele><time>2026-04-06T07:39:00.341Z</time></trkpt><trkpt lat="43.3983333" lon="10.792505"><ele>136.0</ele><time>2026-04-06T07:39:01.342Z</time></trkpt><trkpt lat="43.3982283" lon="10.79245"><ele>136.0</ele><time>2026-04-06T07:39:02.339Z</time></trkpt><trkpt lat="43.39812" lon="10.7924067"><ele>136.0</ele><time>2026-04-06T07:39:03.339Z</time></trkpt><trkpt lat="43.3980117" lon="10.792375"><ele>136.0</ele><time>2026-04-06T07:39:04.336Z</time></trkpt><trkpt lat="43.3979017" lon="10.7923567"><ele>136.0</ele><time>2026-04-06T07:39:05.338Z</time></trkpt><trkpt lat="43.3977933" lon="10.7923533"><ele>136.5</ele><time>2026-04-06T07:39:06.337Z</time></trkpt><trkpt lat="43.3976817" lon="10.7923617"><ele>137.0</ele><time>2026-04-06T07:39:07.433Z</time></trkpt><trkpt lat="43.3975717" lon="10.792375"><ele>137.5</ele><time>2026-04-06T07:39:08.339Z</time></trkpt><trkpt lat="43.3974583" lon="10.7923883"><ele>138.0</ele><time>2026-04-06T07:39:09.338Z</time></trkpt><trkpt lat="43.3973433" lon="10.7924033"><ele>138.0</ele><time>2026-04-06T07:39:10.337Z</time></trkpt><trkpt lat="43.397225" lon="10.792415"><ele>138.0</ele><time>2026-04-06T07:39:11.337Z</time></trkpt><trkpt lat="43.397105" lon="10.7924183"><ele>138.0</ele><time>2026-04-06T07:39:12.339Z</time></trkpt><trkpt lat="43.3969833" lon="10.7924117"><ele>138.0</ele><time>2026-04-06T07:39:13.339Z</time></trkpt><trkpt lat="43.3968633" lon="10.7923967"><ele>137.5</ele><time>2026-04-06T07:39:14.346Z</time></trkpt><trkpt lat="43.3967467" lon="10.7923833"><ele>137.0</ele><time>2026-04-06T07:39:15.337Z</time></trkpt><trkpt lat="43.3966333" lon="10.7923883"><ele>136.5</ele><time>2026-04-06T07:39:16.346Z</time></trkpt><trkpt lat="43.3965217" lon="10.7924117"><ele>136.0</ele><time>2026-04-06T07:39:17.339Z</time></trkpt><trkpt lat="43.3964133" lon="10.792445"><ele>136.0</ele><time>2026-04-06T07:39:18.336Z</time></trkpt><trkpt lat="43.3963083" lon="10.7924833"><ele>136.0</ele><time>2026-04-06T07:39:19.339Z</time></trkpt><trkpt lat="43.39621" lon="10.7925317"><ele>136.0</ele><time>2026-04-06T07:39:20.34Z</time></trkpt><trkpt lat="43.3961183" lon="10.7925967"><ele>136.0</ele><time>2026-04-06T07:39:21.338Z</time></trkpt><trkpt lat="43.3960367" lon="10.7926733"><ele>136.0</ele><time>2026-04-06T07:39:22.337Z</time></trkpt><trkpt lat="43.39596" lon="10.7927567"><ele>134.2</ele><time>2026-04-06T07:39:23.339Z</time></trkpt><trkpt lat="43.39589" lon="10.7928433"><ele>132.39999999999998</ele><time>2026-04-06T07:39:24.343Z</time></trkpt><trkpt lat="43.39582" lon="10.792935"><ele>130.6</ele><time>2026-04-06T07:39:25.338Z</time></trkpt><trkpt lat="43.39575" lon="10.79303"><ele>128.79999999999998</ele><time>2026-04-06T07:39:26.337Z</time></trkpt><trkpt lat="43.3956817" lon="10.7931283"><ele>127.0</ele><time>2026-04-06T07:39:27.34Z</time></trkpt><trkpt lat="43.3956117" lon="10.7932317"><ele>127.0</ele><time>2026-04-06T07:39:28.339Z</time></trkpt><trkpt lat="43.3955383" lon="10.793335"><ele>126.99999999999999</ele><time>2026-04-06T07:39:29.341Z</time></trkpt><trkpt lat="43.3954633" lon="10.79344"><ele>126.99999999999999</ele><time>2026-04-06T07:39:30.343Z</time></trkpt><trkpt lat="43.3953867" lon="10.793545"><ele>127.0</ele><time>2026-04-06T07:39:31.347Z</time></trkpt><trkpt lat="43.3953083" lon="10.7936533"><ele>127.0</ele><time>2026-04-06T07:39:32.343Z</time></trkpt><trkpt lat="43.3952317" lon="10.793755"><ele>126.19999999999999</ele><time>2026-04-06T07:39:33.339Z</time></trkpt><trkpt lat="43.395155" lon="10.7938483"><ele>125.39999999999999</ele><time>2026-04-06T07:39:34.339Z</time></trkpt><trkpt lat="43.3950733" lon="10.7939317"><ele>124.60000000000001</ele><time>2026-04-06T07:39:35.342Z</time></trkpt><trkpt lat="43.3949833" lon="10.7939967"><ele>123.80000000000001</ele><time>2026-04-06T07:39:36.338Z</time></trkpt><trkpt lat="43.3948867" lon="10.7940417"><ele>123.0</ele><time>2026-04-06T07:39:37.34Z</time></trkpt><trkpt lat="43.3947833" lon="10.7940567"><ele>123.0</ele><time>2026-04-06T07:39:38.342Z</time></trkpt><trkpt lat="43.3946767" lon="10.7940417"><ele>123.00000000000001</ele><time>2026-04-06T07:39:39.34Z</time></trkpt><trkpt lat="43.39457" lon="10.7940033"><ele>123.00000000000001</ele><time>2026-04-06T07:39:40.338Z</time></trkpt><trkpt lat="43.3944617" lon="10.7939533"><ele>123.0</ele><time>2026-04-06T07:39:41.339Z</time></trkpt><trkpt lat="43.3943517" lon="10.7939017"><ele>123.0</ele><time>2026-04-06T07:39:42.34Z</time></trkpt><trkpt lat="43.3942433" lon="10.79385"><ele>122.0</ele><time>2026-04-06T07:39:43.342Z</time></trkpt><trkpt lat="43.394135" lon="10.7938017"><ele>121.00000000000001</ele><time>2026-04-06T07:39:44.339Z</time></trkpt><trkpt lat="43.3940283" lon="10.79376"><ele>120.00000000000001</ele><time>2026-04-06T07:39:45.342Z</time></trkpt><trkpt lat="43.3939183" lon="10.7937283"><ele>119.0</ele><time>2026-04-06T07:39:46.339Z</time></trkpt><trkpt lat="43.3938067" lon="10.7937117"><ele>118.0</ele><time>2026-04-06T07:39:47.339Z</time></trkpt><trkpt lat="43.393695" lon="10.7937"><ele>116.75</ele><time>2026-04-06T07:39:48.338Z</time></trkpt><trkpt lat="43.3935817" lon="10.7936917"><ele>115.5</ele><time>2026-04-06T07:39:49.342Z</time></trkpt><trkpt lat="43.3934667" lon="10.7936867"><ele>114.25</ele><time>2026-04-06T07:39:50.338Z</time></trkpt><trkpt lat="43.39335" lon="10.7936833"><ele>113.0</ele><time>2026-04-06T07:39:51.34Z</time></trkpt><trkpt lat="43.393235" lon="10.7936767"><ele>113.0</ele><time>2026-04-06T07:39:52.34Z</time></trkpt><trkpt lat="43.39312" lon="10.7936733"><ele>113.0</ele><time>2026-04-06T07:39:53.34Z</time></trkpt><trkpt lat="43.3930033" lon="10.79367"><ele>113.0</ele><time>2026-04-06T07:39:54.339Z</time></trkpt><trkpt lat="43.3928867" lon="10.793665"><ele>113.0</ele><time>2026-04-06T07:39:55.338Z</time></trkpt><trkpt lat="43.3927717" lon="10.79366"><ele>112.5</ele><time>2026-04-06T07:39:56.339Z</time></trkpt><trkpt lat="43.392655" lon="10.7936567"><ele>112.0</ele><time>2026-04-06T07:39:57.34Z</time></trkpt><trkpt lat="43.3925417" lon="10.793655"><ele>111.5</ele><time>2026-04-06T07:39:58.339Z</time></trkpt><trkpt lat="43.3924283" lon="10.79365"><ele>111.0</ele><time>2026-04-06T07:39:59.339Z</time></trkpt><trkpt lat="43.39232" lon="10.793645"><ele>111.0</ele><time>2026-04-06T07:40:00.338Z</time></trkpt><trkpt lat="43.3922117" lon="10.7936417"><ele>111.0</ele><time>2026-04-06T07:40:01.336Z</time></trkpt><trkpt lat="43.392105" lon="10.7936383"><ele>111.0</ele><time>2026-04-06T07:40:02.337Z</time></trkpt><trkpt lat="43.3919967" lon="10.7936333"><ele>111.0</ele><time>2026-04-06T07:40:03.337Z</time></trkpt><trkpt lat="43.3918867" lon="10.7936317"><ele>111.0</ele><time>2026-04-06T07:40:04.337Z</time></trkpt><trkpt lat="43.391775" lon="10.79363"><ele>110.8</ele><time>2026-04-06T07:40:05.339Z</time></trkpt><trkpt lat="43.391665" lon="10.7936317"><ele>110.6</ele><time>2026-04-06T07:40:06.338Z</time></trkpt><trkpt lat="43.391555" lon="10.7936483"><ele>110.4</ele><time>2026-04-06T07:40:07.339Z</time></trkpt><trkpt lat="43.3914467" lon="10.7936917"><ele>110.2</ele><time>2026-04-06T07:40:08.351Z</time></trkpt><trkpt lat="43.3913483" lon="10.7937633"><ele>110.0</ele><time>2026-04-06T07:40:09.338Z</time></trkpt><trkpt lat="43.3912567" lon="10.79386"><ele>110.25</ele><time>2026-04-06T07:40:10.337Z</time></trkpt><trkpt lat="43.3911767" lon="10.7939733"><ele>110.5</ele><time>2026-04-06T07:40:11.337Z</time></trkpt><trkpt lat="43.391105" lon="10.7941033"><ele>110.75</ele><time>2026-04-06T07:40:12.337Z</time></trkpt><trkpt lat="43.39104" lon="10.7942433"><ele>111.0</ele><time>2026-04-06T07:40:13.337Z</time></trkpt><trkpt lat="43.3909767" lon="10.794385"><ele>111.0</ele><time>2026-04-06T07:40:14.34Z</time></trkpt><trkpt lat="43.3909167" lon="10.794525"><ele>111.0</ele><time>2026-04-06T07:40:15.339Z</time></trkpt><trkpt lat="43.390855" lon="10.7946583"><ele>111.0</ele><time>2026-04-06T07:40:16.338Z</time></trkpt><trkpt lat="43.3907917" lon="10.794785"><ele>111.0</ele><time>2026-04-06T07:40:17.338Z</time></trkpt><trkpt lat="43.3907267" lon="10.7949083"><ele>111.0</ele><time>2026-04-06T07:40:18.339Z</time></trkpt><trkpt lat="43.39066" lon="10.7950233"><ele>111.0</ele><time>2026-04-06T07:40:19.335Z</time></trkpt><trkpt lat="43.3905933" lon="10.7951367"><ele>111.0</ele><time>2026-04-06T07:40:20.339Z</time></trkpt><trkpt lat="43.3905233" lon="10.795245"><ele>111.0</ele><time>2026-04-06T07:40:21.34Z</time></trkpt><trkpt lat="43.390455" lon="10.7953533"><ele>111.0</ele><time>2026-04-06T07:40:22.337Z</time></trkpt><trkpt lat="43.39039" lon="10.7954633"><ele>110.6</ele><time>2026-04-06T07:40:23.341Z</time></trkpt><trkpt lat="43.3903267" lon="10.7955733"><ele>110.19999999999999</ele><time>2026-04-06T07:40:24.337Z</time></trkpt><trkpt lat="43.3902633" lon="10.7956833"><ele>109.80000000000001</ele><time>2026-04-06T07:40:25.34Z</time></trkpt><trkpt lat="43.3901983" lon="10.7957967"><ele>109.4</ele><time>2026-04-06T07:40:26.341Z</time></trkpt><trkpt lat="43.3901317" lon="10.7959067"><ele>109.0</ele><time>2026-04-06T07:40:27.336Z</time></trkpt><trkpt lat="43.390065" lon="10.79602"><ele>107.0</ele><time>2026-04-06T07:40:28.341Z</time></trkpt><trkpt lat="43.389995" lon="10.7961333"><ele>105.0</ele><time>2026-04-06T07:40:29.341Z</time></trkpt><trkpt lat="43.38992" lon="10.7962417"><ele>103.0</ele><time>2026-04-06T07:40:30.338Z</time></trkpt><trkpt lat="43.3898433" lon="10.7963433"><ele>101.0</ele><time>2026-04-06T07:40:31.336Z</time></trkpt><trkpt lat="43.3897617" lon="10.7964367"><ele>99.0</ele><time>2026-04-06T07:40:32.337Z</time></trkpt><trkpt lat="43.3896767" lon="10.79652"><ele>99.4</ele><time>2026-04-06T07:40:33.336Z</time></trkpt><trkpt lat="43.3895867" lon="10.7965917"><ele>99.80000000000001</ele><time>2026-04-06T07:40:34.333Z</time></trkpt><trkpt lat="43.38949" lon="10.796645"><ele>100.19999999999999</ele><time>2026-04-06T07:40:35.339Z</time></trkpt><trkpt lat="43.389385" lon="10.7966733"><ele>100.6</ele><time>2026-04-06T07:40:36.338Z</time></trkpt><trkpt lat="43.3892767" lon="10.79668"><ele>101.0</ele><time>2026-04-06T07:40:37.34Z</time></trkpt><trkpt lat="43.3891683" lon="10.79667"><ele>101.0</ele><time>2026-04-06T07:40:38.337Z</time></trkpt><trkpt lat="43.3890567" lon="10.796655"><ele>101.0</ele><time>2026-04-06T07:40:39.337Z</time></trkpt><trkpt lat="43.388945" lon="10.7966367"><ele>101.0</ele><time>2026-04-06T07:40:40.337Z</time></trkpt><trkpt lat="43.3888317" lon="10.7966233"><ele>101.0</ele><time>2026-04-06T07:40:41.337Z</time></trkpt><trkpt lat="43.3887217" lon="10.79661"><ele>101.0</ele><time>2026-04-06T07:40:42.338Z</time></trkpt><trkpt lat="43.3886167" lon="10.7965933"><ele>100.8</ele><time>2026-04-06T07:40:43.338Z</time></trkpt><trkpt lat="43.388515" lon="10.7965767"><ele>100.6</ele><time>2026-04-06T07:40:44.339Z</time></trkpt><trkpt lat="43.3884167" lon="10.796545"><ele>100.4</ele><time>2026-04-06T07:40:45.337Z</time></trkpt><trkpt lat="43.3883167" lon="10.7964967"><ele>100.2</ele><time>2026-04-06T07:40:46.338Z</time></trkpt><trkpt lat="43.38822" lon="10.7964317"><ele>100.0</ele><time>2026-04-06T07:40:47.339Z</time></trkpt><trkpt lat="43.388125" lon="10.79635"><ele>100.0</ele><time>2026-04-06T07:40:48.341Z</time></trkpt><trkpt lat="43.388035" lon="10.7962517"><ele>100.0</ele><time>2026-04-06T07:40:49.337Z</time></trkpt><trkpt lat="43.38795" lon="10.7961433"><ele>100.0</ele><time>2026-04-06T07:40:50.342Z</time></trkpt><trkpt lat="43.3878667" lon="10.79603"><ele>100.0</ele><time>2026-04-06T07:40:51.337Z</time></trkpt><trkpt lat="43.3877867" lon="10.7959133"><ele>100.0</ele><time>2026-04-06T07:40:52.337Z</time></trkpt><trkpt lat="43.3877083" lon="10.7957983"><ele>100.0</ele><time>2026-04-06T07:40:53.34Z</time></trkpt><trkpt lat="43.3876267" lon="10.7956833"><ele>100.0</ele><time>2026-04-06T07:40:54.339Z</time></trkpt><trkpt lat="43.38754" lon="10.7955733"><ele>100.0</ele><time>2026-04-06T07:40:55.34Z</time></trkpt><trkpt lat="43.38745" lon="10.7954683"><ele>100.0</ele><time>2026-04-06T07:40:56.343Z</time></trkpt><trkpt lat="43.3873567" lon="10.7953717"><ele>100.0</ele><time>2026-04-06T07:40:57.337Z</time></trkpt><trkpt lat="43.3872633" lon="10.7952833"><ele>100.0</ele><time>2026-04-06T07:40:58.337Z</time></trkpt><trkpt lat="43.38717" lon="10.7952033"><ele>100.0</ele><time>2026-04-06T07:40:59.337Z</time></trkpt><trkpt lat="43.3870783" lon="10.7951217"><ele>100.0</ele><time>2026-04-06T07:41:00.337Z</time></trkpt><trkpt lat="43.386985" lon="10.7950433"><ele>98.8</ele><time>2026-04-06T07:41:01.334Z</time></trkpt><trkpt lat="43.3868883" lon="10.7949683"><ele>97.6</ele><time>2026-04-06T07:41:02.339Z</time></trkpt><trkpt lat="43.3867883" lon="10.794895"><ele>96.4</ele><time>2026-04-06T07:41:03.34Z</time></trkpt><trkpt lat="43.3866883" lon="10.7948233"><ele>95.2</ele><time>2026-04-06T07:41:04.341Z</time></trkpt><trkpt lat="43.3865867" lon="10.79476"><ele>94.0</ele><time>2026-04-06T07:41:05.337Z</time></trkpt><trkpt lat="43.3864883" lon="10.7947067"><ele>94.0</ele><time>2026-04-06T07:41:06.338Z</time></trkpt><trkpt lat="43.3863867" lon="10.7946633"><ele>94.0</ele><time>2026-04-06T07:41:07.337Z</time></trkpt><trkpt lat="43.38628" lon="10.79464"><ele>94.0</ele><time>2026-04-06T07:41:08.334Z</time></trkpt><trkpt lat="43.3861717" lon="10.7946383"><ele>94.0</ele><time>2026-04-06T07:41:09.339Z</time></trkpt><trkpt lat="43.386065" lon="10.794655"><ele>94.0</ele><time>2026-04-06T07:41:10.338Z</time></trkpt><trkpt lat="43.38596" lon="10.7946933"><ele>93.25</ele><time>2026-04-06T07:41:11.347Z</time></trkpt><trkpt lat="43.3858583" lon="10.7947517"><ele>92.5</ele><time>2026-04-06T07:41:12.337Z</time></trkpt><trkpt lat="43.38576" lon="10.7948283"><ele>91.75</ele><time>2026-04-06T07:41:13.337Z</time></trkpt><trkpt lat="43.385665" lon="10.79492"><ele>91.0</ele><time>2026-04-06T07:41:14.338Z</time></trkpt><trkpt lat="43.3855717" lon="10.7950167"><ele>89.75</ele><time>2026-04-06T07:41:15.339Z</time></trkpt><trkpt lat="43.38548" lon="10.7951183"><ele>88.5</ele><time>2026-04-06T07:41:16.338Z</time></trkpt><trkpt lat="43.3853867" lon="10.79522"><ele>87.25</ele><time>2026-04-06T07:41:17.342Z</time></trkpt><trkpt lat="43.38529" lon="10.7953267"><ele>86.0</ele><time>2026-04-06T07:41:18.339Z</time></trkpt><trkpt lat="43.3851917" lon="10.7954317"><ele>85.75</ele><time>2026-04-06T07:41:19.339Z</time></trkpt><trkpt lat="43.3850933" lon="10.7955367"><ele>85.5</ele><time>2026-04-06T07:41:20.339Z</time></trkpt><trkpt lat="43.3849967" lon="10.7956417"><ele>85.25</ele><time>2026-04-06T07:41:21.338Z</time></trkpt><trkpt lat="43.3848983" lon="10.795745"><ele>85.0</ele><time>2026-04-06T07:41:22.34Z</time></trkpt><trkpt lat="43.3848017" lon="10.79585"><ele>85.0</ele><time>2026-04-06T07:41:23.341Z</time></trkpt><trkpt lat="43.3847067" lon="10.795955"><ele>85.0</ele><time>2026-04-06T07:41:24.34Z</time></trkpt><trkpt lat="43.3846133" lon="10.7960617"><ele>85.0</ele><time>2026-04-06T07:41:25.344Z</time></trkpt><trkpt lat="43.3845133" lon="10.79617"><ele>85.0</ele><time>2026-04-06T07:41:26.341Z</time></trkpt><trkpt lat="43.3844117" lon="10.796275"><ele>84.25</ele><time>2026-04-06T07:41:27.337Z</time></trkpt><trkpt lat="43.3843067" lon="10.7963833"><ele>83.5</ele><time>2026-04-06T07:41:28.337Z</time></trkpt><trkpt lat="43.3842033" lon="10.796495"><ele>82.75</ele><time>2026-04-06T07:41:29.342Z</time></trkpt><trkpt lat="43.3840967" lon="10.7966083"><ele>82.0</ele><time>2026-04-06T07:41:30.337Z</time></trkpt><trkpt lat="43.383985" lon="10.7967283"><ele>82.25</ele><time>2026-04-06T07:41:31.339Z</time></trkpt><trkpt lat="43.38387" lon="10.7968483"><ele>82.5</ele><time>2026-04-06T07:41:32.34Z</time></trkpt><trkpt lat="43.3837533" lon="10.7969733"><ele>82.75</ele><time>2026-04-06T07:41:33.34Z</time></trkpt><trkpt lat="43.3836333" lon="10.7971"><ele>83.0</ele><time>2026-04-06T07:41:34.336Z</time></trkpt><trkpt lat="43.3835083" lon="10.7972333"><ele>82.33333333333334</ele><time>2026-04-06T07:41:35.336Z</time></trkpt><trkpt lat="43.38338" lon="10.7973717"><ele>81.66666666666667</ele><time>2026-04-06T07:41:36.338Z</time></trkpt><trkpt lat="43.3832483" lon="10.7975133"><ele>81.0</ele><time>2026-04-06T07:41:37.337Z</time></trkpt><trkpt lat="43.3831133" lon="10.7976567"><ele>81.33333333333333</ele><time>2026-04-06T07:41:38.337Z</time></trkpt><trkpt lat="43.3829783" lon="10.7978017"><ele>81.66666666666666</ele><time>2026-04-06T07:41:39.336Z</time></trkpt><trkpt lat="43.382845" lon="10.7979433"><ele>82.0</ele><time>2026-04-06T07:41:40.339Z</time></trkpt><trkpt lat="43.382715" lon="10.7980783"><ele>82.0</ele><time>2026-04-06T07:41:41.338Z</time></trkpt><trkpt lat="43.38259" lon="10.798205"><ele>82.0</ele><time>2026-04-06T07:41:42.333Z</time></trkpt><trkpt lat="43.3824717" lon="10.7983317"><ele>82.0</ele><time>2026-04-06T07:41:43.336Z</time></trkpt><trkpt lat="43.3823583" lon="10.7984533"><ele>82.0</ele><time>2026-04-06T07:41:44.341Z</time></trkpt><trkpt lat="43.3822483" lon="10.7985733"><ele>82.0</ele><time>2026-04-06T07:41:45.341Z</time></trkpt><trkpt lat="43.3821433" lon="10.798685"><ele>82.0</ele><time>2026-04-06T07:41:46.343Z</time></trkpt><trkpt lat="43.3820417" lon="10.7987933"><ele>82.0</ele><time>2026-04-06T07:41:47.342Z</time></trkpt><trkpt lat="43.3819417" lon="10.7988983"><ele>82.0</ele><time>2026-04-06T07:41:48.352Z</time></trkpt><trkpt lat="43.3818433" lon="10.7990033"><ele>82.0</ele><time>2026-04-06T07:41:49.339Z</time></trkpt><trkpt lat="43.381745" lon="10.7991067"><ele>82.0</ele><time>2026-04-06T07:41:50.34Z</time></trkpt><trkpt lat="43.381645" lon="10.7992117"><ele>82.0</ele><time>2026-04-06T07:41:51.341Z</time></trkpt><trkpt lat="43.3815467" lon="10.7993167"><ele>82.0</ele><time>2026-04-06T07:41:52.34Z</time></trkpt><trkpt lat="43.3814467" lon="10.799425"><ele>81.5</ele><time>2026-04-06T07:41:53.34Z</time></trkpt><trkpt lat="43.3813467" lon="10.7995333"><ele>81.0</ele><time>2026-04-06T07:41:54.339Z</time></trkpt><trkpt lat="43.3812467" lon="10.7996433"><ele>80.5</ele><time>2026-04-06T07:41:55.336Z</time></trkpt><trkpt lat="43.3811417" lon="10.7997533"><ele>80.0</ele><time>2026-04-06T07:41:56.338Z</time></trkpt><trkpt lat="43.3810417" lon="10.799865"><ele>80.0</ele><time>2026-04-06T07:41:57.337Z</time></trkpt><trkpt lat="43.3809517" lon="10.79997"><ele>80.0</ele><time>2026-04-06T07:41:58.335Z</time></trkpt><trkpt lat="43.3808633" lon="10.8000667"><ele>80.0</ele><time>2026-04-06T07:41:59.34Z</time></trkpt><trkpt lat="43.3807733" lon="10.8001583"><ele>80.0</ele><time>2026-04-06T07:42:00.339Z</time></trkpt><trkpt lat="43.380685" lon="10.80025"><ele>80.2</ele><time>2026-04-06T07:42:01.338Z</time></trkpt><trkpt lat="43.3805967" lon="10.8003417"><ele>80.4</ele><time>2026-04-06T07:42:02.34Z</time></trkpt><trkpt lat="43.3805083" lon="10.800435"><ele>80.6</ele><time>2026-04-06T07:42:03.34Z</time></trkpt><trkpt lat="43.38042" lon="10.80053"><ele>80.8</ele><time>2026-04-06T07:42:04.336Z</time></trkpt><trkpt lat="43.38033" lon="10.8006267"><ele>81.0</ele><time>2026-04-06T07:42:05.342Z</time></trkpt><trkpt lat="43.3802417" lon="10.8007267"><ele>80.5</ele><time>2026-04-06T07:42:06.336Z</time></trkpt><trkpt lat="43.380145" lon="10.8008217"><ele>80.0</ele><time>2026-04-06T07:42:07.339Z</time></trkpt><trkpt lat="43.3800383" lon="10.8008967"><ele>79.5</ele><time>2026-04-06T07:42:08.338Z</time></trkpt><trkpt lat="43.379925" lon="10.8009383"><ele>79.0</ele><time>2026-04-06T07:42:09.338Z</time></trkpt><trkpt lat="43.379805" lon="10.8009517"><ele>78.5</ele><time>2026-04-06T07:42:10.354Z</time></trkpt><trkpt lat="43.37968" lon="10.80094"><ele>78.0</ele><time>2026-04-06T07:42:11.337Z</time></trkpt><trkpt lat="43.379555" lon="10.800915"><ele>77.5</ele><time>2026-04-06T07:42:12.355Z</time></trkpt><trkpt lat="43.3794317" lon="10.8008867"><ele>77.0</ele><time>2026-04-06T07:42:13.34Z</time></trkpt><trkpt lat="43.379315" lon="10.8008617"><ele>77.0</ele><time>2026-04-06T07:42:14.34Z</time></trkpt><trkpt lat="43.3792017" lon="10.8008367"><ele>77.0</ele><time>2026-04-06T07:42:15.342Z</time></trkpt><trkpt lat="43.3790883" lon="10.80081"><ele>77.0</ele><time>2026-04-06T07:42:16.338Z</time></trkpt><trkpt lat="43.37898" lon="10.8007833"><ele>77.0</ele><time>2026-04-06T07:42:17.339Z</time></trkpt><trkpt lat="43.37887" lon="10.8007567"><ele>77.2</ele><time>2026-04-06T07:42:18.338Z</time></trkpt><trkpt lat="43.37876" lon="10.80073"><ele>77.4</ele><time>2026-04-06T07:42:19.337Z</time></trkpt><trkpt lat="43.3786517" lon="10.8007067"><ele>77.6</ele><time>2026-04-06T07:42:20.343Z</time></trkpt><trkpt lat="43.3785417" lon="10.800685"><ele>77.8</ele><time>2026-04-06T07:42:21.336Z</time></trkpt><trkpt lat="43.3784317" lon="10.80066"><ele>78.0</ele><time>2026-04-06T07:42:22.343Z</time></trkpt><trkpt lat="43.3783183" lon="10.800635"><ele>78.0</ele><time>2026-04-06T07:42:23.337Z</time></trkpt><trkpt lat="43.378205" lon="10.800605"><ele>78.0</ele><time>2026-04-06T07:42:24.34Z</time></trkpt><trkpt lat="43.37809" lon="10.8005783"><ele>78.0</ele><time>2026-04-06T07:42:25.336Z</time></trkpt><trkpt lat="43.3779733" lon="10.8005533"><ele>78.0</ele><time>2026-04-06T07:42:26.339Z</time></trkpt><trkpt lat="43.377855" lon="10.8005283"><ele>77.5</ele><time>2026-04-06T07:42:27.338Z</time></trkpt><trkpt lat="43.3777383" lon="10.8005"><ele>77.0</ele><time>2026-04-06T07:42:28.337Z</time></trkpt><trkpt lat="43.3776217" lon="10.80047"><ele>76.5</ele><time>2026-04-06T07:42:29.338Z</time></trkpt><trkpt lat="43.377505" lon="10.8004417"><ele>76.0</ele><time>2026-04-06T07:42:30.339Z</time></trkpt><trkpt lat="43.3773883" lon="10.8004117"><ele>76.0</ele><time>2026-04-06T07:42:31.334Z</time></trkpt><trkpt lat="43.377275" lon="10.8003783"><ele>76.0</ele><time>2026-04-06T07:42:32.338Z</time></trkpt><trkpt lat="43.3771617" lon="10.80035"><ele>76.0</ele><time>2026-04-06T07:42:33.336Z</time></trkpt><trkpt lat="43.37705" lon="10.8003333"><ele>76.0</ele><time>2026-04-06T07:42:34.337Z</time></trkpt><trkpt lat="43.3769367" lon="10.800335"><ele>76.75</ele><time>2026-04-06T07:42:35.34Z</time></trkpt><trkpt lat="43.3768217" lon="10.80035"><ele>77.5</ele><time>2026-04-06T07:42:36.342Z</time></trkpt><trkpt lat="43.3767067" lon="10.80038"><ele>78.25</ele><time>2026-04-06T07:42:37.339Z</time></trkpt><trkpt lat="43.37659" lon="10.8004217"><ele>79.0</ele><time>2026-04-06T07:42:38.339Z</time></trkpt><trkpt lat="43.3764767" lon="10.8004733"><ele>79.0</ele><time>2026-04-06T07:42:39.337Z</time></trkpt><trkpt lat="43.3763617" lon="10.800535"><ele>79.0</ele><time>2026-04-06T07:42:40.337Z</time></trkpt><trkpt lat="43.37625" lon="10.8006067"><ele>79.0</ele><time>2026-04-06T07:42:41.335Z</time></trkpt><trkpt lat="43.37614" lon="10.800685"><ele>79.0</ele><time>2026-04-06T07:42:42.336Z</time></trkpt><trkpt lat="43.37603" lon="10.8007667"><ele>78.5</ele><time>2026-04-06T07:42:43.342Z</time></trkpt><trkpt lat="43.37592" lon="10.8008483"><ele>78.0</ele><time>2026-04-06T07:42:44.337Z</time></trkpt><trkpt lat="43.37581" lon="10.80093"><ele>77.5</ele><time>2026-04-06T07:42:45.337Z</time></trkpt><trkpt lat="43.3756983" lon="10.8010133"><ele>77.0</ele><time>2026-04-06T07:42:46.338Z</time></trkpt><trkpt lat="43.3755883" lon="10.801095"><ele>76.5</ele><time>2026-04-06T07:42:47.337Z</time></trkpt><trkpt lat="43.3754783" lon="10.8011767"><ele>76.0</ele><time>2026-04-06T07:42:48.338Z</time></trkpt><trkpt lat="43.37537" lon="10.8012583"><ele>75.5</ele><time>2026-04-06T07:42:49.339Z</time></trkpt><trkpt lat="43.3752617" lon="10.8013367"><ele>75.0</ele><time>2026-04-06T07:42:50.34Z</time></trkpt><trkpt lat="43.375155" lon="10.8014167"><ele>75.0</ele><time>2026-04-06T07:42:51.34Z</time></trkpt><trkpt lat="43.3750483" lon="10.8014983"><ele>75.0</ele><time>2026-04-06T07:42:52.345Z</time></trkpt><trkpt lat="43.3749417" lon="10.8015767"><ele>75.0</ele><time>2026-04-06T07:42:53.337Z</time></trkpt><trkpt lat="43.3748317" lon="10.801655"><ele>75.0</ele><time>2026-04-06T07:42:54.336Z</time></trkpt><trkpt lat="43.3747233" lon="10.801735"><ele>74.75</ele><time>2026-04-06T07:42:55.339Z</time></trkpt><trkpt lat="43.374615" lon="10.8018167"><ele>74.5</ele><time>2026-04-06T07:42:56.341Z</time></trkpt><trkpt lat="43.3745067" lon="10.8019"><ele>74.25</ele><time>2026-04-06T07:42:57.34Z</time></trkpt><trkpt lat="43.3743967" lon="10.8019817"><ele>74.0</ele><time>2026-04-06T07:42:58.338Z</time></trkpt><trkpt lat="43.37429" lon="10.802065"><ele>74.0</ele><time>2026-04-06T07:42:59.335Z</time></trkpt><trkpt lat="43.3741833" lon="10.8021483"><ele>74.0</ele><time>2026-04-06T07:43:00.337Z</time></trkpt><trkpt lat="43.374075" lon="10.80223"><ele>74.0</ele><time>2026-04-06T07:43:01.348Z</time></trkpt><trkpt lat="43.3739667" lon="10.8023133"><ele>74.0</ele><time>2026-04-06T07:43:02.343Z</time></trkpt><trkpt lat="43.3738583" lon="10.8023967"><ele>74.0</ele><time>2026-04-06T07:43:03.338Z</time></trkpt><trkpt lat="43.3737483" lon="10.8024817"><ele>74.0</ele><time>2026-04-06T07:43:04.34Z</time></trkpt><trkpt lat="43.37364" lon="10.8025633"><ele>74.0</ele><time>2026-04-06T07:43:05.34Z</time></trkpt><trkpt lat="43.37353" lon="10.8026483"><ele>74.0</ele><time>2026-04-06T07:43:06.338Z</time></trkpt><trkpt lat="43.37342" lon="10.8027317"><ele>74.0</ele><time>2026-04-06T07:43:07.34Z</time></trkpt><trkpt lat="43.3733117" lon="10.8028167"><ele>74.0</ele><time>2026-04-06T07:43:08.342Z</time></trkpt><trkpt lat="43.3732" lon="10.8029017"><ele>74.0</ele><time>2026-04-06T07:43:09.339Z</time></trkpt><trkpt lat="43.373085" lon="10.80299"><ele>74.0</ele><time>2026-04-06T07:43:10.337Z</time></trkpt><trkpt lat="43.3729683" lon="10.8030767"><ele>74.75</ele><time>2026-04-06T07:43:11.339Z</time></trkpt><trkpt lat="43.372855" lon="10.8031617"><ele>75.5</ele><time>2026-04-06T07:43:12.339Z</time></trkpt><trkpt lat="43.37274" lon="10.80325"><ele>76.25</ele><time>2026-04-06T07:43:13.34Z</time></trkpt><trkpt lat="43.3726267" lon="10.803335"><ele>77.0</ele><time>2026-04-06T07:43:14.338Z</time></trkpt><trkpt lat="43.3725117" lon="10.8034217"><ele>76.25</ele><time>2026-04-06T07:43:15.338Z</time></trkpt><trkpt lat="43.3723983" lon="10.80351"><ele>75.5</ele><time>2026-04-06T07:43:16.338Z</time></trkpt><trkpt lat="43.372285" lon="10.8036"><ele>74.75</ele><time>2026-04-06T07:43:17.345Z</time></trkpt><trkpt lat="43.3721717" lon="10.8036883"><ele>74.0</ele><time>2026-04-06T07:43:18.339Z</time></trkpt><trkpt lat="43.3720567" lon="10.8037767"><ele>73.75</ele><time>2026-04-06T07:43:19.34Z</time></trkpt><trkpt lat="43.37194" lon="10.803865"><ele>73.5</ele><time>2026-04-06T07:43:20.342Z</time></trkpt><trkpt lat="43.3718233" lon="10.8039517"><ele>73.25</ele><time>2026-04-06T07:43:21.34Z</time></trkpt><trkpt lat="43.3717083" lon="10.8040433"><ele>73.0</ele><time>2026-04-06T07:43:22.339Z</time></trkpt><trkpt lat="43.3715917" lon="10.804135"><ele>73.0</ele><time>2026-04-06T07:43:23.339Z</time></trkpt><trkpt lat="43.3714767" lon="10.8042233"><ele>73.0</ele><time>2026-04-06T07:43:24.339Z</time></trkpt><trkpt lat="43.371365" lon="10.80431"><ele>73.0</ele><time>2026-04-06T07:43:25.336Z</time></trkpt><trkpt lat="43.371255" lon="10.804395"><ele>73.0</ele><time>2026-04-06T07:43:26.337Z</time></trkpt><trkpt lat="43.3711517" lon="10.8044767"><ele>73.25</ele><time>2026-04-06T07:43:27.353Z</time></trkpt><trkpt lat="43.37105" lon="10.8045583"><ele>73.5</ele><time>2026-04-06T07:43:28.337Z</time></trkpt><trkpt lat="43.370945" lon="10.8046367"><ele>73.75</ele><time>2026-04-06T07:43:29.337Z</time></trkpt><trkpt lat="43.3708433" lon="10.8047133"><ele>74.0</ele><time>2026-04-06T07:43:30.334Z</time></trkpt><trkpt lat="43.37074" lon="10.804795"><ele>74.0</ele><time>2026-04-06T07:43:31.334Z</time></trkpt><trkpt lat="43.370635" lon="10.804875"><ele>74.0</ele><time>2026-04-06T07:43:32.334Z</time></trkpt><trkpt lat="43.37053" lon="10.8049567"><ele>74.0</ele><time>2026-04-06T07:43:33.336Z</time></trkpt><trkpt lat="43.3704217" lon="10.8050383"><ele>74.0</ele><time>2026-04-06T07:43:34.34Z</time></trkpt><trkpt lat="43.3703133" lon="10.80512"><ele>73.25</ele><time>2026-04-06T07:43:35.338Z</time></trkpt><trkpt lat="43.3702083" lon="10.8052033"><ele>72.5</ele><time>2026-04-06T07:43:36.339Z</time></trkpt><trkpt lat="43.3701033" lon="10.8052933"><ele>71.75</ele><time>2026-04-06T07:43:37.335Z</time></trkpt><trkpt lat="43.3700033" lon="10.8053917"><ele>71.0</ele><time>2026-04-06T07:43:38.339Z</time></trkpt><trkpt lat="43.36991" lon="10.8055"><ele>71.0</ele><time>2026-04-06T07:43:39.336Z</time></trkpt><trkpt lat="43.3698183" lon="10.805615"><ele>71.0</ele><time>2026-04-06T07:43:40.338Z</time></trkpt><trkpt lat="43.3697283" lon="10.8057283"><ele>71.0</ele><time>2026-04-06T07:43:41.334Z</time></trkpt><trkpt lat="43.3696383" lon="10.8058417"><ele>71.0</ele><time>2026-04-06T07:43:42.334Z</time></trkpt><trkpt lat="43.3695483" lon="10.8059567"><ele>71.0</ele><time>2026-04-06T07:43:43.335Z</time></trkpt><trkpt lat="43.36946" lon="10.80607"><ele>71.0</ele><time>2026-04-06T07:43:44.336Z</time></trkpt><trkpt lat="43.36937" lon="10.8061883"><ele>71.0</ele><time>2026-04-06T07:43:45.333Z</time></trkpt><trkpt lat="43.3692783" lon="10.8063067"><ele>71.0</ele><time>2026-04-06T07:43:46.338Z</time></trkpt><trkpt lat="43.3691833" lon="10.8064267"><ele>71.0</ele><time>2026-04-06T07:43:47.34Z</time></trkpt><trkpt lat="43.3690883" lon="10.8065517"><ele>71.0</ele><time>2026-04-06T07:43:48.341Z</time></trkpt><trkpt lat="43.3689933" lon="10.8066717"><ele>71.0</ele><time>2026-04-06T07:43:49.338Z</time></trkpt><trkpt lat="43.3689017" lon="10.8067917"><ele>71.0</ele><time>2026-04-06T07:43:50.339Z</time></trkpt><trkpt lat="43.3688083" lon="10.8069083"><ele>71.5</ele><time>2026-04-06T07:43:51.337Z</time></trkpt><trkpt lat="43.36872" lon="10.807025"><ele>72.0</ele><time>2026-04-06T07:43:52.338Z</time></trkpt><trkpt lat="43.3686333" lon="10.8071333"><ele>72.5</ele><time>2026-04-06T07:43:53.336Z</time></trkpt><trkpt lat="43.3685533" lon="10.8072367"><ele>73.0</ele><time>2026-04-06T07:43:54.339Z</time></trkpt><trkpt lat="43.3684733" lon="10.8073383"><ele>73.0</ele><time>2026-04-06T07:43:55.338Z</time></trkpt><trkpt lat="43.368395" lon="10.8074383"><ele>73.0</ele><time>2026-04-06T07:43:56.35Z</time></trkpt><trkpt lat="43.36832" lon="10.80754"><ele>73.0</ele><time>2026-04-06T07:43:57.338Z</time></trkpt><trkpt lat="43.368245" lon="10.8076433"><ele>73.0</ele><time>2026-04-06T07:43:58.339Z</time></trkpt><trkpt lat="43.3681683" lon="10.807745"><ele>73.0</ele><time>2026-04-06T07:43:59.34Z</time></trkpt><trkpt lat="43.3680917" lon="10.8078433"><ele>73.2</ele><time>2026-04-06T07:44:00.336Z</time></trkpt><trkpt lat="43.3680117" lon="10.8079417"><ele>73.4</ele><time>2026-04-06T07:44:01.338Z</time></trkpt><trkpt lat="43.3679283" lon="10.8080367"><ele>73.60000000000001</ele><time>2026-04-06T07:44:02.342Z</time></trkpt><trkpt lat="43.3678383" lon="10.8081317"><ele>73.8</ele><time>2026-04-06T07:44:03.339Z</time></trkpt><trkpt lat="43.367745" lon="10.80822"><ele>74.0</ele><time>2026-04-06T07:44:04.338Z</time></trkpt><trkpt lat="43.367645" lon="10.808305"><ele>74.0</ele><time>2026-04-06T07:44:05.342Z</time></trkpt><trkpt lat="43.3675417" lon="10.8083867"><ele>74.0</ele><time>2026-04-06T07:44:06.339Z</time></trkpt><trkpt lat="43.3674383" lon="10.8084683"><ele>74.0</ele><time>2026-04-06T07:44:07.338Z</time></trkpt><trkpt lat="43.3673333" lon="10.80855"><ele>74.0</ele><time>2026-04-06T07:44:08.342Z</time></trkpt><trkpt lat="43.3672283" lon="10.8086333"><ele>75.0</ele><time>2026-04-06T07:44:09.338Z</time></trkpt><trkpt lat="43.3671233" lon="10.8087133"><ele>76.0</ele><time>2026-04-06T07:44:10.339Z</time></trkpt><trkpt lat="43.3670183" lon="10.80879"><ele>77.0</ele><time>2026-04-06T07:44:11.338Z</time></trkpt><trkpt lat="43.366915" lon="10.8088733"><ele>78.0</ele><time>2026-04-06T07:44:12.337Z</time></trkpt><trkpt lat="43.3668183" lon="10.8089667"><ele>78.0</ele><time>2026-04-06T07:44:13.34Z</time></trkpt><trkpt lat="43.3667283" lon="10.80907"><ele>78.0</ele><time>2026-04-06T07:44:14.344Z</time></trkpt><trkpt lat="43.3666533" lon="10.809195"><ele>78.0</ele><time>2026-04-06T07:44:15.342Z</time></trkpt><trkpt lat="43.366585" lon="10.809335"><ele>78.0</ele><time>2026-04-06T07:44:16.341Z</time></trkpt><trkpt lat="43.36652" lon="10.8094783"><ele>79.75</ele><time>2026-04-06T07:44:17.338Z</time></trkpt><trkpt lat="43.366455" lon="10.8096133"><ele>81.5</ele><time>2026-04-06T07:44:18.335Z</time></trkpt><trkpt lat="43.3663883" lon="10.809755"><ele>83.25</ele><time>2026-04-06T07:44:19.336Z</time></trkpt><trkpt lat="43.366325" lon="10.8098883"><ele>85.0</ele><time>2026-04-06T07:44:20.342Z</time></trkpt><trkpt lat="43.36627" lon="10.8100117"><ele>85.0</ele><time>2026-04-06T07:44:21.342Z</time></trkpt><trkpt lat="43.366215" lon="10.8101367"><ele>85.0</ele><time>2026-04-06T07:44:22.341Z</time></trkpt><trkpt lat="43.36616" lon="10.8102583"><ele>85.0</ele><time>2026-04-06T07:44:23.334Z</time></trkpt><trkpt lat="43.3661033" lon="10.8103833"><ele>85.0</ele><time>2026-04-06T07:44:24.334Z</time></trkpt><trkpt lat="43.3660483" lon="10.8105117"><ele>85.0</ele><time>2026-04-06T07:44:25.335Z</time></trkpt><trkpt lat="43.3659883" lon="10.8106383"><ele>85.2</ele><time>2026-04-06T07:44:26.338Z</time></trkpt><trkpt lat="43.3659267" lon="10.81075"><ele>85.4</ele><time>2026-04-06T07:44:27.334Z</time></trkpt><trkpt lat="43.3658633" lon="10.8108517"><ele>85.6</ele><time>2026-04-06T07:44:28.339Z</time></trkpt><trkpt lat="43.365795" lon="10.8109433"><ele>85.8</ele><time>2026-04-06T07:44:29.344Z</time></trkpt><trkpt lat="43.3657183" lon="10.8110283"><ele>86.0</ele><time>2026-04-06T07:44:30.339Z</time></trkpt><trkpt lat="43.3656383" lon="10.8111183"><ele>86.19999999999999</ele><time>2026-04-06T07:44:31.338Z</time></trkpt><trkpt lat="43.36556" lon="10.81121"><ele>86.39999999999999</ele><time>2026-04-06T07:44:32.337Z</time></trkpt><trkpt lat="43.3654817" lon="10.811295"><ele>86.6</ele><time>2026-04-06T07:44:33.336Z</time></trkpt><trkpt lat="43.3654067" lon="10.8113817"><ele>86.8</ele><time>2026-04-06T07:44:34.336Z</time></trkpt><trkpt lat="43.3653317" lon="10.8114633"><ele>87.0</ele><time>2026-04-06T07:44:35.341Z</time></trkpt><trkpt lat="43.36526" lon="10.8115467"><ele>86.16666666666667</ele><time>2026-04-06T07:44:36.339Z</time></trkpt><trkpt lat="43.3651867" lon="10.811625"><ele>85.33333333333333</ele><time>2026-04-06T07:44:37.337Z</time></trkpt><trkpt lat="43.3651133" lon="10.8117033"><ele>84.5</ele><time>2026-04-06T07:44:38.34Z</time></trkpt><trkpt lat="43.3650467" lon="10.811775"><ele>83.66666666666666</ele><time>2026-04-06T07:44:39.338Z</time></trkpt><trkpt lat="43.3649833" lon="10.8118517"><ele>82.83333333333333</ele><time>2026-04-06T07:44:40.343Z</time></trkpt><trkpt lat="43.36492" lon="10.8119283"><ele>82.0</ele><time>2026-04-06T07:44:41.338Z</time></trkpt><trkpt lat="43.3648567" lon="10.8120033"><ele>81.66666666666666</ele><time>2026-04-06T07:44:42.336Z</time></trkpt><trkpt lat="43.3647883" lon="10.8120767"><ele>81.33333333333333</ele><time>2026-04-06T07:44:43.338Z</time></trkpt><trkpt lat="43.3647283" lon="10.8121517"><ele>81.0</ele><time>2026-04-06T07:44:44.356Z</time></trkpt><trkpt lat="43.3646683" lon="10.81222"><ele>80.66666666666667</ele><time>2026-04-06T07:44:45.337Z</time></trkpt><trkpt lat="43.36461" lon="10.8122883"><ele>80.33333333333334</ele><time>2026-04-06T07:44:46.339Z</time></trkpt><trkpt lat="43.3645483" lon="10.8123483"><ele>80.0</ele><time>2026-04-06T07:44:47.337Z</time></trkpt><trkpt lat="43.3644883" lon="10.8124083"><ele>79.85714285714286</ele><time>2026-04-06T07:44:48.335Z</time></trkpt><trkpt lat="43.36443" lon="10.812465"><ele>79.71428571428572</ele><time>2026-04-06T07:44:49.336Z</time></trkpt><trkpt lat="43.36437" lon="10.8125133"><ele>79.57142857142858</ele><time>2026-04-06T07:44:50.338Z</time></trkpt><trkpt lat="43.364305" lon="10.8125517"><ele>79.42857142857143</ele><time>2026-04-06T07:44:51.337Z</time></trkpt><trkpt lat="43.3642367" lon="10.8125717"><ele>79.28571428571429</ele><time>2026-04-06T07:44:52.339Z</time></trkpt><trkpt lat="43.36417" lon="10.812585"><ele>79.14285714285715</ele><time>2026-04-06T07:44:53.34Z</time></trkpt><trkpt lat="43.364105" lon="10.812595"><ele>79.0</ele><time>2026-04-06T07:44:54.338Z</time></trkpt><trkpt lat="43.3640417" lon="10.8126017"><ele>79.0</ele><time>2026-04-06T07:44:55.339Z</time></trkpt><trkpt lat="43.3639233" lon="10.81261"><ele>79.0</ele><time>2026-04-06T07:44:57.337Z</time></trkpt><trkpt lat="43.3638067" lon="10.8126183"><ele>79.0</ele><time>2026-04-06T07:44:59.339Z</time></trkpt><trkpt lat="43.3637433" lon="10.81262"><ele>79.0</ele><time>2026-04-06T07:45:00.34Z</time></trkpt><trkpt lat="43.3636717" lon="10.8126133"><ele>79.0</ele><time>2026-04-06T07:45:01.342Z</time></trkpt><trkpt lat="43.3635983" lon="10.81261"><ele>79.0</ele><time>2026-04-06T07:45:02.35Z</time></trkpt><trkpt lat="43.3635233" lon="10.8126067"><ele>79.00000000000001</ele><time>2026-04-06T07:45:03.345Z</time></trkpt><trkpt lat="43.3634517" lon="10.8126067"><ele>79.0</ele><time>2026-04-06T07:45:04.356Z</time></trkpt><trkpt lat="43.3633783" lon="10.8126067"><ele>79.0</ele><time>2026-04-06T07:45:05.34Z</time></trkpt><trkpt lat="43.3633" lon="10.8126083"><ele>79.0</ele><time>2026-04-06T07:45:06.338Z</time></trkpt><trkpt lat="43.3632217" lon="10.812605"><ele>79.0</ele><time>2026-04-06T07:45:07.337Z</time></trkpt><trkpt lat="43.3631483" lon="10.812605"><ele>79.00000000000001</ele><time>2026-04-06T07:45:08.34Z</time></trkpt><trkpt lat="43.363075" lon="10.812605"><ele>79.0</ele><time>2026-04-06T07:45:09.34Z</time></trkpt><trkpt lat="43.363" lon="10.8126067"><ele>79.00000000000001</ele><time>2026-04-06T07:45:10.337Z</time></trkpt><trkpt lat="43.362925" lon="10.8126067"><ele>79.0</ele><time>2026-04-06T07:45:11.339Z</time></trkpt><trkpt lat="43.36285" lon="10.812605"><ele>79.0</ele><time>2026-04-06T07:45:12.337Z</time></trkpt><trkpt lat="43.3627817" lon="10.812605"><ele>79.0</ele><time>2026-04-06T07:45:13.335Z</time></trkpt><trkpt lat="43.3627133" lon="10.8126033"><ele>79.0</ele><time>2026-04-06T07:45:14.338Z</time></trkpt><trkpt lat="43.3626417" lon="10.8126"><ele>79.00000000000001</ele><time>2026-04-06T07:45:15.338Z</time></trkpt><trkpt lat="43.3625717" lon="10.8125983"><ele>79.0</ele><time>2026-04-06T07:45:16.343Z</time></trkpt><trkpt lat="43.3625" lon="10.8126"><ele>79.0</ele><time>2026-04-06T07:45:17.337Z</time></trkpt><trkpt lat="43.3624317" lon="10.8125967"><ele>79.0</ele><time>2026-04-06T07:45:18.339Z</time></trkpt><trkpt lat="43.3623667" lon="10.8125917"><ele>79.0</ele><time>2026-04-06T07:45:19.338Z</time></trkpt><trkpt lat="43.3623033" lon="10.81259"><ele>79.0</ele><time>2026-04-06T07:45:20.34Z</time></trkpt><trkpt lat="43.3621833" lon="10.8125817"><ele>79.0</ele><time>2026-04-06T07:45:22.338Z</time></trkpt><trkpt lat="43.3620733" lon="10.812565"><ele>79.0</ele><time>2026-04-06T07:45:24.338Z</time></trkpt><trkpt lat="43.3619767" lon="10.812545"><ele>78.5</ele><time>2026-04-06T07:45:26.343Z</time></trkpt><trkpt lat="43.361885" lon="10.812535"><ele>78.0</ele><time>2026-04-06T07:45:28.337Z</time></trkpt><trkpt lat="43.3618167" lon="10.8125117"><ele>77.5</ele><time>2026-04-06T07:45:30.342Z</time></trkpt><trkpt lat="43.3617533" lon="10.812485"><ele>77.0</ele><time>2026-04-06T07:45:32.337Z</time></trkpt><trkpt lat="43.361695" lon="10.8124467"><ele>76.5</ele><time>2026-04-06T07:45:34.337Z</time></trkpt><trkpt lat="43.36162" lon="10.812395"><ele>76.0</ele><time>2026-04-06T07:45:37.338Z</time></trkpt><trkpt lat="43.3615183" lon="10.8123567"><ele>76.0</ele><time>2026-04-06T07:46:02.337Z</time></trkpt><trkpt lat="43.3614533" lon="10.8123033"><ele>76.0</ele><time>2026-04-06T07:46:04.34Z</time></trkpt><trkpt lat="43.36138" lon="10.8122333"><ele>76.0</ele><time>2026-04-06T07:46:06.348Z</time></trkpt><trkpt lat="43.3612967" lon="10.8121467"><ele>76.0</ele><time>2026-04-06T07:46:08.345Z</time></trkpt><trkpt lat="43.3612133" lon="10.8120333"><ele>76.0</ele><time>2026-04-06T07:46:10.335Z</time></trkpt><trkpt lat="43.3611317" lon="10.8118983"><ele>75.85714285714285</ele><time>2026-04-06T07:46:12.339Z</time></trkpt><trkpt lat="43.3610867" lon="10.8118267"><ele>75.71428571428572</ele><time>2026-04-06T07:46:13.341Z</time></trkpt><trkpt lat="43.36104" lon="10.8117483"><ele>75.57142857142857</ele><time>2026-04-06T07:46:14.337Z</time></trkpt><trkpt lat="43.360995" lon="10.8116667"><ele>75.42857142857142</ele><time>2026-04-06T07:46:15.34Z</time></trkpt><trkpt lat="43.36095" lon="10.811585"><ele>75.28571428571428</ele><time>2026-04-06T07:46:16.339Z</time></trkpt><trkpt lat="43.3609067" lon="10.8115"><ele>75.14285714285714</ele><time>2026-04-06T07:46:17.338Z</time></trkpt><trkpt lat="43.3608617" lon="10.81141"><ele>75.0</ele><time>2026-04-06T07:46:18.341Z</time></trkpt><trkpt lat="43.3608167" lon="10.8113183"><ele>75.0</ele><time>2026-04-06T07:46:19.338Z</time></trkpt><trkpt lat="43.3607717" lon="10.8112267"><ele>75.0</ele><time>2026-04-06T07:46:20.34Z</time></trkpt><trkpt lat="43.360725" lon="10.81113"><ele>75.0</ele><time>2026-04-06T07:46:21.339Z</time></trkpt><trkpt lat="43.36068" lon="10.8110283"><ele>75.0</ele><time>2026-04-06T07:46:22.34Z</time></trkpt><trkpt lat="43.3606417" lon="10.8109183"><ele>75.0</ele><time>2026-04-06T07:46:23.339Z</time></trkpt><trkpt lat="43.3606033" lon="10.8108067"><ele>75.0</ele><time>2026-04-06T07:46:24.339Z</time></trkpt><trkpt lat="43.3605683" lon="10.8106917"><ele>74.4</ele><time>2026-04-06T07:46:25.343Z</time></trkpt><trkpt lat="43.36053" lon="10.81058"><ele>73.8</ele><time>2026-04-06T07:46:26.339Z</time></trkpt><trkpt lat="43.3604917" lon="10.8104667"><ele>73.2</ele><time>2026-04-06T07:46:27.337Z</time></trkpt><trkpt lat="43.360455" lon="10.8103517"><ele>72.6</ele><time>2026-04-06T07:46:28.342Z</time></trkpt><trkpt lat="43.3604233" lon="10.8102333"><ele>72.0</ele><time>2026-04-06T07:46:29.336Z</time></trkpt><trkpt lat="43.3603867" lon="10.810115"><ele>72.0</ele><time>2026-04-06T07:46:30.341Z</time></trkpt><trkpt lat="43.36035" lon="10.809995"><ele>72.0</ele><time>2026-04-06T07:46:31.336Z</time></trkpt><trkpt lat="43.36031" lon="10.809875"><ele>72.0</ele><time>2026-04-06T07:46:32.339Z</time></trkpt><trkpt lat="43.3602717" lon="10.809755"><ele>72.0</ele><time>2026-04-06T07:46:33.337Z</time></trkpt><trkpt lat="43.3602333" lon="10.8096317"><ele>72.0</ele><time>2026-04-06T07:46:34.338Z</time></trkpt><trkpt lat="43.3601933" lon="10.8095117"><ele>72.0</ele><time>2026-04-06T07:46:35.34Z</time></trkpt><trkpt lat="43.360155" lon="10.80939"><ele>72.0</ele><time>2026-04-06T07:46:36.337Z</time></trkpt><trkpt lat="43.3601133" lon="10.8092683"><ele>72.0</ele><time>2026-04-06T07:46:37.337Z</time></trkpt><trkpt lat="43.3600717" lon="10.8091483"><ele>72.0</ele><time>2026-04-06T07:46:38.339Z</time></trkpt><trkpt lat="43.3600283" lon="10.8090267"><ele>72.0</ele><time>2026-04-06T07:46:39.337Z</time></trkpt><trkpt lat="43.3599883" lon="10.8089067"><ele>72.4</ele><time>2026-04-06T07:46:40.339Z</time></trkpt><trkpt lat="43.3599467" lon="10.8087867"><ele>72.80000000000001</ele><time>2026-04-06T07:46:41.341Z</time></trkpt><trkpt lat="43.3599067" lon="10.8086633"><ele>73.2</ele><time>2026-04-06T07:46:42.338Z</time></trkpt><trkpt lat="43.3598683" lon="10.8085367"><ele>73.60000000000001</ele><time>2026-04-06T07:46:43.338Z</time></trkpt><trkpt lat="43.35983" lon="10.8084083"><ele>74.0</ele><time>2026-04-06T07:46:44.339Z</time></trkpt><trkpt lat="43.3597883" lon="10.8082817"><ele>74.8</ele><time>2026-04-06T07:46:45.34Z</time></trkpt><trkpt lat="43.3597483" lon="10.808155"><ele>75.60000000000001</ele><time>2026-04-06T07:46:46.346Z</time></trkpt><trkpt lat="43.3597083" lon="10.8080267"><ele>76.4</ele><time>2026-04-06T07:46:47.345Z</time></trkpt><trkpt lat="43.3596667" lon="10.8079017"><ele>77.2</ele><time>2026-04-06T07:46:48.345Z</time></trkpt><trkpt lat="43.3596283" lon="10.8077717"><ele>78.0</ele><time>2026-04-06T07:46:49.345Z</time></trkpt><trkpt lat="43.3595883" lon="10.807635"><ele>76.4</ele><time>2026-04-06T07:46:50.34Z</time></trkpt><trkpt lat="43.359545" lon="10.8074983"><ele>74.8</ele><time>2026-04-06T07:46:51.34Z</time></trkpt><trkpt lat="43.3595017" lon="10.8073617"><ele>73.2</ele><time>2026-04-06T07:46:52.338Z</time></trkpt><trkpt lat="43.3594567" lon="10.8072233"><ele>71.6</ele><time>2026-04-06T07:46:53.34Z</time></trkpt><trkpt lat="43.3594167" lon="10.80708"><ele>70.0</ele><time>2026-04-06T07:46:54.343Z</time></trkpt><trkpt lat="43.359375" lon="10.8069417"><ele>69.8</ele><time>2026-04-06T07:46:55.338Z</time></trkpt><trkpt lat="43.359335" lon="10.80681"><ele>69.6</ele><time>2026-04-06T07:46:56.339Z</time></trkpt><trkpt lat="43.3592983" lon="10.8066833"><ele>69.4</ele><time>2026-04-06T07:46:57.34Z</time></trkpt><trkpt lat="43.359265" lon="10.806555"><ele>69.2</ele><time>2026-04-06T07:46:58.339Z</time></trkpt><trkpt lat="43.35924" lon="10.8064267"><ele>69.0</ele><time>2026-04-06T07:46:59.337Z</time></trkpt><trkpt lat="43.35923" lon="10.806295"><ele>69.0</ele><time>2026-04-06T07:47:00.352Z</time></trkpt><trkpt lat="43.3592383" lon="10.8061617"><ele>69.0</ele><time>2026-04-06T07:47:01.341Z</time></trkpt><trkpt lat="43.3592533" lon="10.8060283"><ele>69.0</ele><time>2026-04-06T07:47:02.341Z</time></trkpt><trkpt lat="43.35927" lon="10.8058933"><ele>69.0</ele><time>2026-04-06T07:47:03.339Z</time></trkpt><trkpt lat="43.3592917" lon="10.805755"><ele>69.0</ele><time>2026-04-06T07:47:04.344Z</time></trkpt><trkpt lat="43.35931" lon="10.805615"><ele>69.0</ele><time>2026-04-06T07:47:05.338Z</time></trkpt><trkpt lat="43.3593267" lon="10.8054767"><ele>69.0</ele><time>2026-04-06T07:47:06.337Z</time></trkpt><trkpt lat="43.359345" lon="10.80534"><ele>69.0</ele><time>2026-04-06T07:47:07.34Z</time></trkpt><trkpt lat="43.3593617" lon="10.8052"><ele>69.0</ele><time>2026-04-06T07:47:08.341Z</time></trkpt><trkpt lat="43.3593767" lon="10.8050617"><ele>69.0</ele><time>2026-04-06T07:47:09.339Z</time></trkpt><trkpt lat="43.35939" lon="10.8049167"><ele>68.60000000000001</ele><time>2026-04-06T07:47:10.339Z</time></trkpt><trkpt lat="43.3594067" lon="10.80477"><ele>68.2</ele><time>2026-04-06T07:47:11.338Z</time></trkpt><trkpt lat="43.3594233" lon="10.8046233"><ele>67.80000000000001</ele><time>2026-04-06T07:47:12.34Z</time></trkpt><trkpt lat="43.35944" lon="10.8044767"><ele>67.4</ele><time>2026-04-06T07:47:13.337Z</time></trkpt><trkpt lat="43.3594567" lon="10.8043317"><ele>67.0</ele><time>2026-04-06T07:47:14.337Z</time></trkpt><trkpt lat="43.3594717" lon="10.8041833"><ele>66.8</ele><time>2026-04-06T07:47:15.336Z</time></trkpt><trkpt lat="43.3594833" lon="10.8040367"><ele>66.6</ele><time>2026-04-06T07:47:16.337Z</time></trkpt><trkpt lat="43.3594833" lon="10.8038883"><ele>66.39999999999999</ele><time>2026-04-06T07:47:17.338Z</time></trkpt><trkpt lat="43.3594733" lon="10.8037383"><ele>66.2</ele><time>2026-04-06T07:47:18.339Z</time></trkpt><trkpt lat="43.3594567" lon="10.80359"><ele>66.0</ele><time>2026-04-06T07:47:19.338Z</time></trkpt><trkpt lat="43.359435" lon="10.8034417"><ele>66.0</ele><time>2026-04-06T07:47:20.338Z</time></trkpt><trkpt lat="43.3594117" lon="10.8032933"><ele>66.0</ele><time>2026-04-06T07:47:21.338Z</time></trkpt><trkpt lat="43.3593833" lon="10.8031483"><ele>66.0</ele><time>2026-04-06T07:47:22.337Z</time></trkpt><trkpt lat="43.35935" lon="10.8030083"><ele>66.0</ele><time>2026-04-06T07:47:23.34Z</time></trkpt><trkpt lat="43.3593017" lon="10.8028717"><ele>66.0</ele><time>2026-04-06T07:47:24.34Z</time></trkpt><trkpt lat="43.3592417" lon="10.8027417"><ele>66.75</ele><time>2026-04-06T07:47:25.338Z</time></trkpt><trkpt lat="43.3591783" lon="10.8026133"><ele>67.5</ele><time>2026-04-06T07:47:26.339Z</time></trkpt><trkpt lat="43.35911" lon="10.8024867"><ele>68.25</ele><time>2026-04-06T07:47:27.345Z</time></trkpt><trkpt lat="43.359035" lon="10.8023667"><ele>69.0</ele><time>2026-04-06T07:47:28.336Z</time></trkpt><trkpt lat="43.35896" lon="10.8022517"><ele>69.0</ele><time>2026-04-06T07:47:29.338Z</time></trkpt><trkpt lat="43.358885" lon="10.8021367"><ele>69.0</ele><time>2026-04-06T07:47:30.34Z</time></trkpt><trkpt lat="43.3588083" lon="10.8020217"><ele>69.0</ele><time>2026-04-06T07:47:31.341Z</time></trkpt><trkpt lat="43.3587333" lon="10.8019033"><ele>69.0</ele><time>2026-04-06T07:47:32.34Z</time></trkpt><trkpt lat="43.3586583" lon="10.80178"><ele>68.5</ele><time>2026-04-06T07:47:33.339Z</time></trkpt><trkpt lat="43.3585817" lon="10.8016533"><ele>68.0</ele><time>2026-04-06T07:47:34.342Z</time></trkpt><trkpt lat="43.3585083" lon="10.8015283"><ele>67.5</ele><time>2026-04-06T07:47:35.338Z</time></trkpt><trkpt lat="43.35844" lon="10.8014017"><ele>67.0</ele><time>2026-04-06T07:47:36.336Z</time></trkpt><trkpt lat="43.358375" lon="10.8012733"><ele>67.0</ele><time>2026-04-06T07:47:37.335Z</time></trkpt><trkpt lat="43.3583133" lon="10.80114"><ele>67.0</ele><time>2026-04-06T07:47:38.338Z</time></trkpt><trkpt lat="43.35826" lon="10.801"><ele>67.0</ele><time>2026-04-06T07:47:39.338Z</time></trkpt><trkpt lat="43.3582117" lon="10.8008567"><ele>67.0</ele><time>2026-04-06T07:47:40.339Z</time></trkpt><trkpt lat="43.3581617" lon="10.8007133"><ele>66.5</ele><time>2026-04-06T07:47:41.337Z</time></trkpt><trkpt lat="43.3581133" lon="10.8005667"><ele>66.0</ele><time>2026-04-06T07:47:42.339Z</time></trkpt><trkpt lat="43.3580617" lon="10.80042"><ele>65.5</ele><time>2026-04-06T07:47:43.343Z</time></trkpt><trkpt lat="43.358015" lon="10.8002683"><ele>65.0</ele><time>2026-04-06T07:47:44.339Z</time></trkpt><trkpt lat="43.35796" lon="10.8001183"><ele>65.0</ele><time>2026-04-06T07:47:45.338Z</time></trkpt><trkpt lat="43.3579117" lon="10.7999683"><ele>65.0</ele><time>2026-04-06T07:47:46.34Z</time></trkpt><trkpt lat="43.3578633" lon="10.79982"><ele>65.0</ele><time>2026-04-06T07:47:47.34Z</time></trkpt><trkpt lat="43.357815" lon="10.79968"><ele>65.0</ele><time>2026-04-06T07:47:48.339Z</time></trkpt><trkpt lat="43.3577633" lon="10.7995433"><ele>65.0</ele><time>2026-04-06T07:47:49.338Z</time></trkpt><trkpt lat="43.3577083" lon="10.7994067"><ele>65.0</ele><time>2026-04-06T07:47:50.338Z</time></trkpt><trkpt lat="43.3576467" lon="10.799275"><ele>65.0</ele><time>2026-04-06T07:47:51.338Z</time></trkpt><trkpt lat="43.3575767" lon="10.7991433"><ele>65.0</ele><time>2026-04-06T07:47:52.341Z</time></trkpt><trkpt lat="43.3575033" lon="10.799015"><ele>65.0</ele><time>2026-04-06T07:47:53.338Z</time></trkpt><trkpt lat="43.3574233" lon="10.7988883"><ele>65.0</ele><time>2026-04-06T07:47:54.341Z</time></trkpt><trkpt lat="43.3573383" lon="10.79876"><ele>65.0</ele><time>2026-04-06T07:47:55.339Z</time></trkpt><trkpt lat="43.3572533" lon="10.7986317"><ele>65.0</ele><time>2026-04-06T07:47:56.34Z</time></trkpt><trkpt lat="43.3571667" lon="10.7984983"><ele>65.0</ele><time>2026-04-06T07:47:57.339Z</time></trkpt><trkpt lat="43.35708" lon="10.79836"><ele>65.0</ele><time>2026-04-06T07:47:58.337Z</time></trkpt><trkpt lat="43.3569983" lon="10.7982167"><ele>65.0</ele><time>2026-04-06T07:47:59.339Z</time></trkpt><trkpt lat="43.35692" lon="10.7980667"><ele>65.0</ele><time>2026-04-06T07:48:00.339Z</time></trkpt><trkpt lat="43.3568483" lon="10.797915"><ele>65.0</ele><time>2026-04-06T07:48:01.337Z</time></trkpt><trkpt lat="43.3567767" lon="10.79776"><ele>65.0</ele><time>2026-04-06T07:48:02.34Z</time></trkpt><trkpt lat="43.35671" lon="10.7976017"><ele>65.0</ele><time>2026-04-06T07:48:03.336Z</time></trkpt><trkpt lat="43.3566467" lon="10.7974333"><ele>65.0</ele><time>2026-04-06T07:48:04.336Z</time></trkpt><trkpt lat="43.3565883" lon="10.79726"><ele>66.25</ele><time>2026-04-06T07:48:05.337Z</time></trkpt><trkpt lat="43.356535" lon="10.79708"><ele>67.5</ele><time>2026-04-06T07:48:06.337Z</time></trkpt><trkpt lat="43.3564883" lon="10.796895"><ele>68.75</ele><time>2026-04-06T07:48:07.338Z</time></trkpt><trkpt lat="43.3564467" lon="10.7967067"><ele>70.0</ele><time>2026-04-06T07:48:08.341Z</time></trkpt><trkpt lat="43.356415" lon="10.79651"><ele>71.0</ele><time>2026-04-06T07:48:09.34Z</time></trkpt><trkpt lat="43.35639" lon="10.79631"><ele>72.0</ele><time>2026-04-06T07:48:10.341Z</time></trkpt><trkpt lat="43.3563733" lon="10.796105"><ele>73.0</ele><time>2026-04-06T07:48:11.337Z</time></trkpt><trkpt lat="43.35636" lon="10.7958983"><ele>74.0</ele><time>2026-04-06T07:48:12.337Z</time></trkpt><trkpt lat="43.3563533" lon="10.7956917"><ele>71.25</ele><time>2026-04-06T07:48:13.338Z</time></trkpt><trkpt lat="43.356355" lon="10.7954867"><ele>68.5</ele><time>2026-04-06T07:48:14.338Z</time></trkpt><trkpt lat="43.3563667" lon="10.7952867"><ele>65.75</ele><time>2026-04-06T07:48:15.34Z</time></trkpt><trkpt lat="43.3563833" lon="10.79509"><ele>63.0</ele><time>2026-04-06T07:48:16.338Z</time></trkpt><trkpt lat="43.356405" lon="10.7948933"><ele>63.0</ele><time>2026-04-06T07:48:17.339Z</time></trkpt><trkpt lat="43.35643" lon="10.7946983"><ele>63.0</ele><time>2026-04-06T07:48:18.338Z</time></trkpt><trkpt lat="43.35646" lon="10.7945067"><ele>63.0</ele><time>2026-04-06T07:48:19.338Z</time></trkpt><trkpt lat="43.3564933" lon="10.794315"><ele>63.0</ele><time>2026-04-06T07:48:20.339Z</time></trkpt><trkpt lat="43.35653" lon="10.794125"><ele>62.5</ele><time>2026-04-06T07:48:21.336Z</time></trkpt><trkpt lat="43.3565667" lon="10.7939367"><ele>62.0</ele><time>2026-04-06T07:48:22.336Z</time></trkpt><trkpt lat="43.3566067" lon="10.7937483"><ele>61.5</ele><time>2026-04-06T07:48:23.336Z</time></trkpt><trkpt lat="43.3566467" lon="10.7935583"><ele>61.0</ele><time>2026-04-06T07:48:24.337Z</time></trkpt><trkpt lat="43.35669" lon="10.7933667"><ele>60.75</ele><time>2026-04-06T07:48:25.338Z</time></trkpt><trkpt lat="43.35673" lon="10.79318"><ele>60.5</ele><time>2026-04-06T07:48:26.339Z</time></trkpt><trkpt lat="43.3567683" lon="10.79299"><ele>60.25</ele><time>2026-04-06T07:48:27.335Z</time></trkpt><trkpt lat="43.3568083" lon="10.7927983"><ele>60.0</ele><time>2026-04-06T07:48:28.342Z</time></trkpt><trkpt lat="43.3568517" lon="10.7926083"><ele>59.5</ele><time>2026-04-06T07:48:29.337Z</time></trkpt><trkpt lat="43.3568933" lon="10.7924167"><ele>59.0</ele><time>2026-04-06T07:48:30.337Z</time></trkpt><trkpt lat="43.3569333" lon="10.7922267"><ele>58.5</ele><time>2026-04-06T07:48:31.338Z</time></trkpt><trkpt lat="43.3569717" lon="10.792035"><ele>58.0</ele><time>2026-04-06T07:48:32.338Z</time></trkpt><trkpt lat="43.3570083" lon="10.7918417"><ele>58.5</ele><time>2026-04-06T07:48:33.337Z</time></trkpt><trkpt lat="43.357045" lon="10.791645"><ele>59.0</ele><time>2026-04-06T07:48:34.339Z</time></trkpt><trkpt lat="43.35708" lon="10.791445"><ele>59.5</ele><time>2026-04-06T07:48:35.34Z</time></trkpt><trkpt lat="43.3571133" lon="10.7912433"><ele>60.0</ele><time>2026-04-06T07:48:36.34Z</time></trkpt><trkpt lat="43.357145" lon="10.79104"><ele>59.66666666666667</ele><time>2026-04-06T07:48:37.336Z</time></trkpt><trkpt lat="43.3571733" lon="10.790835"><ele>59.333333333333336</ele><time>2026-04-06T07:48:38.342Z</time></trkpt><trkpt lat="43.3571967" lon="10.79063"><ele>59.0</ele><time>2026-04-06T07:48:39.341Z</time></trkpt><trkpt lat="43.3572183" lon="10.7904267"><ele>59.5</ele><time>2026-04-06T07:48:40.338Z</time></trkpt><trkpt lat="43.3572367" lon="10.790225"><ele>60.0</ele><time>2026-04-06T07:48:41.337Z</time></trkpt><trkpt lat="43.3572533" lon="10.7900267"><ele>60.5</ele><time>2026-04-06T07:48:42.336Z</time></trkpt><trkpt lat="43.3572667" lon="10.789825"><ele>61.0</ele><time>2026-04-06T07:48:43.337Z</time></trkpt><trkpt lat="43.3572767" lon="10.789625"><ele>61.5</ele><time>2026-04-06T07:48:44.34Z</time></trkpt><trkpt lat="43.3572833" lon="10.789425"><ele>62.0</ele><time>2026-04-06T07:48:45.339Z</time></trkpt><trkpt lat="43.3572883" lon="10.7892267"><ele>62.5</ele><time>2026-04-06T07:48:46.337Z</time></trkpt><trkpt lat="43.35729" lon="10.7890283"><ele>63.0</ele><time>2026-04-06T07:48:47.34Z</time></trkpt><trkpt lat="43.35729" lon="10.7888317"><ele>63.75</ele><time>2026-04-06T07:48:48.338Z</time></trkpt><trkpt lat="43.3572867" lon="10.788635"><ele>64.5</ele><time>2026-04-06T07:48:49.335Z</time></trkpt><trkpt lat="43.3572817" lon="10.7884367"><ele>65.25</ele><time>2026-04-06T07:48:50.34Z</time></trkpt><trkpt lat="43.3572733" lon="10.788235"><ele>66.0</ele><time>2026-04-06T07:48:51.338Z</time></trkpt><trkpt lat="43.3572617" lon="10.788035"><ele>66.0</ele><time>2026-04-06T07:48:52.339Z</time></trkpt><trkpt lat="43.35725" lon="10.7878317"><ele>66.0</ele><time>2026-04-06T07:48:53.336Z</time></trkpt><trkpt lat="43.3572333" lon="10.7876267"><ele>66.0</ele><time>2026-04-06T07:48:54.337Z</time></trkpt><trkpt lat="43.3572183" lon="10.7874233"><ele>66.0</ele><time>2026-04-06T07:48:55.338Z</time></trkpt><trkpt lat="43.3571983" lon="10.78722"><ele>64.5</ele><time>2026-04-06T07:48:56.339Z</time></trkpt><trkpt lat="43.3571783" lon="10.7870167"><ele>63.0</ele><time>2026-04-06T07:48:57.341Z</time></trkpt><trkpt lat="43.357155" lon="10.7868133"><ele>61.5</ele><time>2026-04-06T07:48:58.337Z</time></trkpt><trkpt lat="43.3571267" lon="10.7866133"><ele>60.0</ele><time>2026-04-06T07:48:59.341Z</time></trkpt><trkpt lat="43.3570983" lon="10.7864133"><ele>60.0</ele><time>2026-04-06T07:49:00.337Z</time></trkpt><trkpt lat="43.35707" lon="10.7862117"><ele>60.0</ele><time>2026-04-06T07:49:01.333Z</time></trkpt><trkpt lat="43.3570417" lon="10.7860117"><ele>60.0</ele><time>2026-04-06T07:49:02.342Z</time></trkpt><trkpt lat="43.3570133" lon="10.7858083"><ele>60.0</ele><time>2026-04-06T07:49:03.338Z</time></trkpt><trkpt lat="43.3569833" lon="10.7856067"><ele>60.0</ele><time>2026-04-06T07:49:04.337Z</time></trkpt><trkpt lat="43.3569533" lon="10.785405"><ele>60.0</ele><time>2026-04-06T07:49:05.339Z</time></trkpt><trkpt lat="43.3569217" lon="10.7852033"><ele>60.0</ele><time>2026-04-06T07:49:06.337Z</time></trkpt><trkpt lat="43.3568917" lon="10.7850033"><ele>60.0</ele><time>2026-04-06T07:49:07.337Z</time></trkpt><trkpt lat="43.3568617" lon="10.7848033"><ele>60.0</ele><time>2026-04-06T07:49:08.338Z</time></trkpt><trkpt lat="43.3568317" lon="10.7846"><ele>60.0</ele><time>2026-04-06T07:49:09.338Z</time></trkpt><trkpt lat="43.3568" lon="10.7843967"><ele>60.0</ele><time>2026-04-06T07:49:10.337Z</time></trkpt><trkpt lat="43.3567683" lon="10.784195"><ele>60.0</ele><time>2026-04-06T07:49:11.339Z</time></trkpt><trkpt lat="43.3567367" lon="10.7839967"><ele>60.0</ele><time>2026-04-06T07:49:12.34Z</time></trkpt><trkpt lat="43.3567033" lon="10.7837983"><ele>60.0</ele><time>2026-04-06T07:49:13.339Z</time></trkpt><trkpt lat="43.35667" lon="10.7835967"><ele>60.0</ele><time>2026-04-06T07:49:14.337Z</time></trkpt><trkpt lat="43.3566383" lon="10.7833967"><ele>59.75</ele><time>2026-04-06T07:49:15.336Z</time></trkpt><trkpt lat="43.3566083" lon="10.783195"><ele>59.5</ele><time>2026-04-06T07:49:16.336Z</time></trkpt><trkpt lat="43.35658" lon="10.7829933"><ele>59.25</ele><time>2026-04-06T07:49:17.341Z</time></trkpt><trkpt lat="43.3565533" lon="10.78279"><ele>59.0</ele><time>2026-04-06T07:49:18.337Z</time></trkpt><trkpt lat="43.3565317" lon="10.7825833"><ele>58.66666666666667</ele><time>2026-04-06T07:49:19.34Z</time></trkpt><trkpt lat="43.356515" lon="10.7823717"><ele>58.33333333333333</ele><time>2026-04-06T07:49:20.34Z</time></trkpt><trkpt lat="43.3565" lon="10.7821517"><ele>58.0</ele><time>2026-04-06T07:49:21.34Z</time></trkpt><trkpt lat="43.3564917" lon="10.7819283"><ele>58.33333333333333</ele><time>2026-04-06T07:49:22.336Z</time></trkpt><trkpt lat="43.3564833" lon="10.7817067"><ele>58.66666666666667</ele><time>2026-04-06T07:49:23.34Z</time></trkpt><trkpt lat="43.356475" lon="10.7814833"><ele>59.0</ele><time>2026-04-06T07:49:24.337Z</time></trkpt><trkpt lat="43.3564683" lon="10.78126"><ele>59.0</ele><time>2026-04-06T07:49:25.338Z</time></trkpt><trkpt lat="43.3564633" lon="10.7810383"><ele>59.0</ele><time>2026-04-06T07:49:26.337Z</time></trkpt><trkpt lat="43.3564583" lon="10.7808133"><ele>59.0</ele><time>2026-04-06T07:49:27.338Z</time></trkpt><trkpt lat="43.3564533" lon="10.7805883"><ele>59.333333333333336</ele><time>2026-04-06T07:49:28.338Z</time></trkpt><trkpt lat="43.3564483" lon="10.7803633"><ele>59.66666666666667</ele><time>2026-04-06T07:49:29.336Z</time></trkpt><trkpt lat="43.3564417" lon="10.78014"><ele>60.0</ele><time>2026-04-06T07:49:30.343Z</time></trkpt><trkpt lat="43.3564367" lon="10.7799183"><ele>60.0</ele><time>2026-04-06T07:49:31.34Z</time></trkpt><trkpt lat="43.35643" lon="10.7796967"><ele>60.0</ele><time>2026-04-06T07:49:32.344Z</time></trkpt><trkpt lat="43.3564217" lon="10.779475"><ele>60.0</ele><time>2026-04-06T07:49:33.339Z</time></trkpt><trkpt lat="43.35641" lon="10.779255"><ele>59.0</ele><time>2026-04-06T07:49:34.336Z</time></trkpt><trkpt lat="43.3563917" lon="10.779035"><ele>58.0</ele><time>2026-04-06T07:49:35.338Z</time></trkpt><trkpt lat="43.356365" lon="10.7788133"><ele>57.0</ele><time>2026-04-06T07:49:36.339Z</time></trkpt><trkpt lat="43.3563283" lon="10.778595"><ele>57.33333333333333</ele><time>2026-04-06T07:49:37.338Z</time></trkpt><trkpt lat="43.3562817" lon="10.77838"><ele>57.666666666666664</ele><time>2026-04-06T07:49:38.337Z</time></trkpt><trkpt lat="43.356225" lon="10.7781683"><ele>58.0</ele><time>2026-04-06T07:49:39.338Z</time></trkpt><trkpt lat="43.356155" lon="10.7779617"><ele>58.0</ele><time>2026-04-06T07:49:40.338Z</time></trkpt><trkpt lat="43.3560783" lon="10.77776"><ele>58.0</ele><time>2026-04-06T07:49:41.339Z</time></trkpt><trkpt lat="43.3559917" lon="10.77757"><ele>58.0</ele><time>2026-04-06T07:49:42.341Z</time></trkpt><trkpt lat="43.3558967" lon="10.7773917"><ele>58.25</ele><time>2026-04-06T07:49:43.337Z</time></trkpt><trkpt lat="43.3557983" lon="10.77723"><ele>58.5</ele><time>2026-04-06T07:49:44.338Z</time></trkpt><trkpt lat="43.355695" lon="10.777085"><ele>58.75</ele><time>2026-04-06T07:49:45.336Z</time></trkpt><trkpt lat="43.3555917" lon="10.7769583"><ele>59.0</ele><time>2026-04-06T07:49:46.335Z</time></trkpt><trkpt lat="43.3554833" lon="10.7768467"><ele>59.0</ele><time>2026-04-06T07:49:47.338Z</time></trkpt><trkpt lat="43.3553733" lon="10.7767467"><ele>59.0</ele><time>2026-04-06T07:49:48.34Z</time></trkpt><trkpt lat="43.35526" lon="10.77666"><ele>59.0</ele><time>2026-04-06T07:49:49.337Z</time></trkpt><trkpt lat="43.3551433" lon="10.7765833"><ele>59.0</ele><time>2026-04-06T07:49:50.344Z</time></trkpt><trkpt lat="43.355025" lon="10.77651"><ele>59.0</ele><time>2026-04-06T07:49:51.337Z</time></trkpt><trkpt lat="43.3549067" lon="10.7764367"><ele>59.0</ele><time>2026-04-06T07:49:52.338Z</time></trkpt><trkpt lat="43.3547967" lon="10.7763633"><ele>59.0</ele><time>2026-04-06T07:49:53.34Z</time></trkpt><trkpt lat="43.3546917" lon="10.7762883"><ele>59.0</ele><time>2026-04-06T07:49:54.34Z</time></trkpt><trkpt lat="43.3545867" lon="10.7762233"><ele>59.2</ele><time>2026-04-06T07:49:55.338Z</time></trkpt><trkpt lat="43.3544867" lon="10.7761617"><ele>59.400000000000006</ele><time>2026-04-06T07:49:56.341Z</time></trkpt><trkpt lat="43.35439" lon="10.776105"><ele>59.6</ele><time>2026-04-06T07:49:57.337Z</time></trkpt><trkpt lat="43.3542883" lon="10.776045"><ele>59.8</ele><time>2026-04-06T07:49:58.34Z</time></trkpt><trkpt lat="43.3541867" lon="10.7759817"><ele>60.0</ele><time>2026-04-06T07:49:59.341Z</time></trkpt><trkpt lat="43.3540817" lon="10.7759117"><ele>60.0</ele><time>2026-04-06T07:50:00.339Z</time></trkpt><trkpt lat="43.353975" lon="10.7758333"><ele>60.0</ele><time>2026-04-06T07:50:01.339Z</time></trkpt><trkpt lat="43.3538683" lon="10.7757433"><ele>60.0</ele><time>2026-04-06T07:50:02.341Z</time></trkpt><trkpt lat="43.353765" lon="10.77564"><ele>60.0</ele><time>2026-04-06T07:50:03.338Z</time></trkpt><trkpt lat="43.3536683" lon="10.77552"><ele>59.25</ele><time>2026-04-06T07:50:04.338Z</time></trkpt><trkpt lat="43.353575" lon="10.7753883"><ele>58.5</ele><time>2026-04-06T07:50:05.338Z</time></trkpt><trkpt lat="43.3534833" lon="10.7752483"><ele>57.75</ele><time>2026-04-06T07:50:06.338Z</time></trkpt><trkpt lat="43.3533933" lon="10.7751017"><ele>57.0</ele><time>2026-04-06T07:50:07.336Z</time></trkpt><trkpt lat="43.3533033" lon="10.77495"><ele>57.0</ele><time>2026-04-06T07:50:08.338Z</time></trkpt><trkpt lat="43.35321" lon="10.774795"><ele>57.0</ele><time>2026-04-06T07:50:09.338Z</time></trkpt><trkpt lat="43.353115" lon="10.7746383"><ele>57.0</ele><time>2026-04-06T07:50:10.338Z</time></trkpt><trkpt lat="43.3530217" lon="10.7744783"><ele>57.0</ele><time>2026-04-06T07:50:11.339Z</time></trkpt><trkpt lat="43.3529267" lon="10.7743133"><ele>56.66666666666667</ele><time>2026-04-06T07:50:12.339Z</time></trkpt><trkpt lat="43.35283" lon="10.7741433"><ele>56.333333333333336</ele><time>2026-04-06T07:50:13.337Z</time></trkpt><trkpt lat="43.3527283" lon="10.7739733"><ele>56.0</ele><time>2026-04-06T07:50:14.339Z</time></trkpt><trkpt lat="43.3526267" lon="10.7737967"><ele>56.0</ele><time>2026-04-06T07:50:15.338Z</time></trkpt><trkpt lat="43.3525217" lon="10.7736167"><ele>56.0</ele><time>2026-04-06T07:50:16.337Z</time></trkpt><trkpt lat="43.3524167" lon="10.7734317"><ele>56.0</ele><time>2026-04-06T07:50:17.336Z</time></trkpt><trkpt lat="43.3523083" lon="10.7732467"><ele>55.66666666666667</ele><time>2026-04-06T07:50:18.338Z</time></trkpt><trkpt lat="43.3521967" lon="10.7730567"><ele>55.33333333333333</ele><time>2026-04-06T07:50:19.336Z</time></trkpt><trkpt lat="43.3520833" lon="10.7728583"><ele>55.0</ele><time>2026-04-06T07:50:20.338Z</time></trkpt><trkpt lat="43.3519683" lon="10.772655"><ele>55.0</ele><time>2026-04-06T07:50:21.337Z</time></trkpt><trkpt lat="43.35185" lon="10.7724517"><ele>55.0</ele><time>2026-04-06T07:50:22.336Z</time></trkpt><trkpt lat="43.35173" lon="10.7722467"><ele>55.0</ele><time>2026-04-06T07:50:23.341Z</time></trkpt><trkpt lat="43.3516167" lon="10.7720483"><ele>55.33333333333333</ele><time>2026-04-06T07:50:24.337Z</time></trkpt><trkpt lat="43.351505" lon="10.771855"><ele>55.66666666666667</ele><time>2026-04-06T07:50:25.338Z</time></trkpt><trkpt lat="43.351395" lon="10.77167"><ele>56.0</ele><time>2026-04-06T07:50:26.338Z</time></trkpt><trkpt lat="43.3512867" lon="10.771485"><ele>56.333333333333336</ele><time>2026-04-06T07:50:27.336Z</time></trkpt><trkpt lat="43.3511817" lon="10.771305"><ele>56.66666666666667</ele><time>2026-04-06T07:50:28.336Z</time></trkpt><trkpt lat="43.3510783" lon="10.7711283"><ele>57.0</ele><time>2026-04-06T07:50:29.337Z</time></trkpt><trkpt lat="43.3509767" lon="10.770955"><ele>57.0</ele><time>2026-04-06T07:50:30.337Z</time></trkpt><trkpt lat="43.35088" lon="10.7707833"><ele>57.0</ele><time>2026-04-06T07:50:31.337Z</time></trkpt><trkpt lat="43.350785" lon="10.77061"><ele>57.0</ele><time>2026-04-06T07:50:32.338Z</time></trkpt><trkpt lat="43.3506917" lon="10.7704317"><ele>57.0</ele><time>2026-04-06T07:50:33.336Z</time></trkpt><trkpt lat="43.3506" lon="10.77025"><ele>57.0</ele><time>2026-04-06T07:50:34.336Z</time></trkpt><trkpt lat="43.3505083" lon="10.7700667"><ele>57.0</ele><time>2026-04-06T07:50:35.336Z</time></trkpt><trkpt lat="43.350415" lon="10.7698867"><ele>56.66666666666667</ele><time>2026-04-06T07:50:36.34Z</time></trkpt><trkpt lat="43.3503267" lon="10.7697083"><ele>56.333333333333336</ele><time>2026-04-06T07:50:37.335Z</time></trkpt><trkpt lat="43.3502433" lon="10.7695367"><ele>56.0</ele><time>2026-04-06T07:50:38.338Z</time></trkpt><trkpt lat="43.35016" lon="10.7693717"><ele>56.0</ele><time>2026-04-06T07:50:39.336Z</time></trkpt><trkpt lat="43.3500783" lon="10.7692117"><ele>56.0</ele><time>2026-04-06T07:50:40.337Z</time></trkpt><trkpt lat="43.3499967" lon="10.7690533"><ele>56.0</ele><time>2026-04-06T07:50:41.336Z</time></trkpt><trkpt lat="43.349915" lon="10.7688933"><ele>56.0</ele><time>2026-04-06T07:50:42.34Z</time></trkpt><trkpt lat="43.3498367" lon="10.76873"><ele>56.0</ele><time>2026-04-06T07:50:43.335Z</time></trkpt><trkpt lat="43.3497667" lon="10.76856"><ele>56.0</ele><time>2026-04-06T07:50:44.34Z</time></trkpt><trkpt lat="43.3497033" lon="10.7683817"><ele>56.0</ele><time>2026-04-06T07:50:45.338Z</time></trkpt><trkpt lat="43.349645" lon="10.7682033"><ele>56.0</ele><time>2026-04-06T07:50:46.339Z</time></trkpt><trkpt lat="43.3495667" lon="10.7678433"><ele>55.75</ele><time>2026-04-06T07:50:48.337Z</time></trkpt><trkpt lat="43.3495417" lon="10.76767"><ele>55.5</ele><time>2026-04-06T07:50:49.337Z</time></trkpt><trkpt lat="43.3495217" lon="10.7675033"><ele>55.25</ele><time>2026-04-06T07:50:50.345Z</time></trkpt><trkpt lat="43.3495083" lon="10.767345"><ele>55.0</ele><time>2026-04-06T07:50:51.337Z</time></trkpt><trkpt lat="43.3495033" lon="10.76719"><ele>55.0</ele><time>2026-04-06T07:50:52.341Z</time></trkpt><trkpt lat="43.34951" lon="10.7670433"><ele>55.0</ele><time>2026-04-06T07:50:53.347Z</time></trkpt><trkpt lat="43.34952" lon="10.7668967"><ele>55.0</ele><time>2026-04-06T07:50:54.34Z</time></trkpt><trkpt lat="43.3495233" lon="10.7667533"><ele>55.0</ele><time>2026-04-06T07:50:55.336Z</time></trkpt><trkpt lat="43.34951" lon="10.7666067"><ele>55.0</ele><time>2026-04-06T07:50:56.338Z</time></trkpt><trkpt lat="43.349475" lon="10.766465"><ele>55.25</ele><time>2026-04-06T07:50:57.34Z</time></trkpt><trkpt lat="43.3494233" lon="10.7663317"><ele>55.5</ele><time>2026-04-06T07:50:58.338Z</time></trkpt><trkpt lat="43.34936" lon="10.766205"><ele>55.75</ele><time>2026-04-06T07:50:59.335Z</time></trkpt><trkpt lat="43.3492917" lon="10.76608"><ele>56.0</ele><time>2026-04-06T07:51:00.339Z</time></trkpt><trkpt lat="43.3492133" lon="10.7659567"><ele>57.25</ele><time>2026-04-06T07:51:01.34Z</time></trkpt><trkpt lat="43.3491317" lon="10.76583"><ele>58.5</ele><time>2026-04-06T07:51:02.339Z</time></trkpt><trkpt lat="43.34905" lon="10.7657"><ele>59.75</ele><time>2026-04-06T07:51:03.336Z</time></trkpt><trkpt lat="43.348965" lon="10.7655633"><ele>61.0</ele><time>2026-04-06T07:51:04.34Z</time></trkpt><trkpt lat="43.3488833" lon="10.7654217"><ele>60.75</ele><time>2026-04-06T07:51:05.34Z</time></trkpt><trkpt lat="43.3488033" lon="10.7652717"><ele>60.5</ele><time>2026-04-06T07:51:06.341Z</time></trkpt><trkpt lat="43.348725" lon="10.765115"><ele>60.25</ele><time>2026-04-06T07:51:07.337Z</time></trkpt><trkpt lat="43.3486483" lon="10.7649517"><ele>60.0</ele><time>2026-04-06T07:51:08.34Z</time></trkpt><trkpt lat="43.3485783" lon="10.7647767"><ele>60.0</ele><time>2026-04-06T07:51:09.338Z</time></trkpt><trkpt lat="43.34852" lon="10.7645933"><ele>60.0</ele><time>2026-04-06T07:51:10.337Z</time></trkpt><trkpt lat="43.3484633" lon="10.7644067"><ele>60.0</ele><time>2026-04-06T07:51:11.338Z</time></trkpt><trkpt lat="43.3484033" lon="10.764215"><ele>60.0</ele><time>2026-04-06T07:51:12.337Z</time></trkpt><trkpt lat="43.3483417" lon="10.7640217"><ele>61.25</ele><time>2026-04-06T07:51:13.34Z</time></trkpt><trkpt lat="43.34828" lon="10.76383"><ele>62.5</ele><time>2026-04-06T07:51:14.342Z</time></trkpt><trkpt lat="43.34822" lon="10.7636417"><ele>63.75</ele><time>2026-04-06T07:51:15.337Z</time></trkpt><trkpt lat="43.3481617" lon="10.7634633"><ele>65.0</ele><time>2026-04-06T07:51:16.339Z</time></trkpt><trkpt lat="43.348105" lon="10.76329"><ele>65.5</ele><time>2026-04-06T07:51:17.335Z</time></trkpt><trkpt lat="43.34805" lon="10.7631233"><ele>66.0</ele><time>2026-04-06T07:51:18.336Z</time></trkpt><trkpt lat="43.3479983" lon="10.7629617"><ele>66.5</ele><time>2026-04-06T07:51:19.34Z</time></trkpt><trkpt lat="43.3479483" lon="10.7628017"><ele>67.0</ele><time>2026-04-06T07:51:20.34Z</time></trkpt><trkpt lat="43.3479017" lon="10.7626383"><ele>64.75</ele><time>2026-04-06T07:51:21.341Z</time></trkpt><trkpt lat="43.3478567" lon="10.7624733"><ele>62.5</ele><time>2026-04-06T07:51:22.34Z</time></trkpt><trkpt lat="43.347815" lon="10.762305"><ele>60.25</ele><time>2026-04-06T07:51:23.339Z</time></trkpt><trkpt lat="43.3477783" lon="10.76213"><ele>58.0</ele><time>2026-04-06T07:51:24.337Z</time></trkpt><trkpt lat="43.3477483" lon="10.7619517"><ele>58.25</ele><time>2026-04-06T07:51:25.339Z</time></trkpt><trkpt lat="43.3477233" lon="10.76177"><ele>58.5</ele><time>2026-04-06T07:51:26.34Z</time></trkpt><trkpt lat="43.3477017" lon="10.761585"><ele>58.75</ele><time>2026-04-06T07:51:27.34Z</time></trkpt><trkpt lat="43.3476783" lon="10.7614"><ele>59.0</ele><time>2026-04-06T07:51:28.337Z</time></trkpt><trkpt lat="43.34766" lon="10.7612183"><ele>59.0</ele><time>2026-04-06T07:51:29.338Z</time></trkpt><trkpt lat="43.3476417" lon="10.761035"><ele>59.0</ele><time>2026-04-06T07:51:30.339Z</time></trkpt><trkpt lat="43.3476217" lon="10.7608533"><ele>59.0</ele><time>2026-04-06T07:51:31.337Z</time></trkpt><trkpt lat="43.3476017" lon="10.76067"><ele>59.0</ele><time>2026-04-06T07:51:32.339Z</time></trkpt><trkpt lat="43.347585" lon="10.7604833"><ele>58.75</ele><time>2026-04-06T07:51:33.337Z</time></trkpt><trkpt lat="43.34756" lon="10.7602933"><ele>58.5</ele><time>2026-04-06T07:51:34.34Z</time></trkpt><trkpt lat="43.3475283" lon="10.7601067"><ele>58.25</ele><time>2026-04-06T07:51:35.339Z</time></trkpt><trkpt lat="43.347485" lon="10.759925"><ele>58.0</ele><time>2026-04-06T07:51:36.335Z</time></trkpt><trkpt lat="43.34743" lon="10.7597483"><ele>57.75</ele><time>2026-04-06T07:51:37.336Z</time></trkpt><trkpt lat="43.3473617" lon="10.759575"><ele>57.5</ele><time>2026-04-06T07:51:38.336Z</time></trkpt><trkpt lat="43.3472933" lon="10.759405"><ele>57.25</ele><time>2026-04-06T07:51:39.335Z</time></trkpt><trkpt lat="43.3472217" lon="10.7592367"><ele>57.0</ele><time>2026-04-06T07:51:40.335Z</time></trkpt><trkpt lat="43.3471517" lon="10.75907"><ele>57.0</ele><time>2026-04-06T07:51:41.335Z</time></trkpt><trkpt lat="43.3470733" lon="10.75891"><ele>57.0</ele><time>2026-04-06T07:51:42.333Z</time></trkpt><trkpt lat="43.3469917" lon="10.7587517"><ele>57.0</ele><time>2026-04-06T07:51:43.334Z</time></trkpt><trkpt lat="43.346905" lon="10.7585883"><ele>57.0</ele><time>2026-04-06T07:51:44.335Z</time></trkpt><trkpt lat="43.3468183" lon="10.7584283"><ele>58.0</ele><time>2026-04-06T07:51:45.339Z</time></trkpt><trkpt lat="43.34673" lon="10.7582633"><ele>59.0</ele><time>2026-04-06T07:51:46.335Z</time></trkpt><trkpt lat="43.34664" lon="10.7581"><ele>60.0</ele><time>2026-04-06T07:51:47.338Z</time></trkpt><trkpt lat="43.34655" lon="10.7579367"><ele>61.0</ele><time>2026-04-06T07:51:48.337Z</time></trkpt><trkpt lat="43.3464667" lon="10.75778"><ele>61.5</ele><time>2026-04-06T07:51:49.338Z</time></trkpt><trkpt lat="43.3463883" lon="10.75763"><ele>62.0</ele><time>2026-04-06T07:51:50.339Z</time></trkpt><trkpt lat="43.346315" lon="10.7574833"><ele>62.5</ele><time>2026-04-06T07:51:51.336Z</time></trkpt><trkpt lat="43.34624" lon="10.7573417"><ele>63.0</ele><time>2026-04-06T07:51:52.339Z</time></trkpt><trkpt lat="43.346165" lon="10.757205"><ele>61.5</ele><time>2026-04-06T07:51:53.339Z</time></trkpt><trkpt lat="43.346085" lon="10.7570717"><ele>60.0</ele><time>2026-04-06T07:51:54.34Z</time></trkpt><trkpt lat="43.346005" lon="10.7569433"><ele>58.5</ele><time>2026-04-06T07:51:55.34Z</time></trkpt><trkpt lat="43.3459217" lon="10.75682"><ele>57.0</ele><time>2026-04-06T07:51:56.339Z</time></trkpt><trkpt lat="43.345835" lon="10.7567033"><ele>57.0</ele><time>2026-04-06T07:51:57.34Z</time></trkpt><trkpt lat="43.3457467" lon="10.7565933"><ele>57.0</ele><time>2026-04-06T07:51:58.333Z</time></trkpt><trkpt lat="43.3456567" lon="10.7564867"><ele>57.0</ele><time>2026-04-06T07:51:59.332Z</time></trkpt><trkpt lat="43.345575" lon="10.7563833"><ele>57.0</ele><time>2026-04-06T07:52:00.334Z</time></trkpt><trkpt lat="43.3455" lon="10.7562817"><ele>56.833333333333336</ele><time>2026-04-06T07:52:01.335Z</time></trkpt><trkpt lat="43.345425" lon="10.756185"><ele>56.66666666666667</ele><time>2026-04-06T07:52:02.346Z</time></trkpt><trkpt lat="43.34536" lon="10.7560983"><ele>56.5</ele><time>2026-04-06T07:52:03.34Z</time></trkpt><trkpt lat="43.345305" lon="10.7560117"><ele>56.333333333333336</ele><time>2026-04-06T07:52:04.339Z</time></trkpt><trkpt lat="43.3452633" lon="10.7559283"><ele>56.16666666666667</ele><time>2026-04-06T07:52:05.339Z</time></trkpt><trkpt lat="43.3452433" lon="10.755835"><ele>56.0</ele><time>2026-04-06T07:52:06.333Z</time></trkpt><trkpt lat="43.345245" lon="10.7557483"><ele>56.0</ele><time>2026-04-06T07:52:07.34Z</time></trkpt><trkpt lat="43.34528" lon="10.7555883"><ele>55.99999999999999</ele><time>2026-04-06T07:52:09.347Z</time></trkpt><trkpt lat="43.3452867" lon="10.7554133"><ele>55.99999999999999</ele><time>2026-04-06T07:52:11.337Z</time></trkpt><trkpt lat="43.3452633" lon="10.755325"><ele>56.0</ele><time>2026-04-06T07:52:12.336Z</time></trkpt><trkpt lat="43.3452183" lon="10.7552483"><ele>56.0</ele><time>2026-04-06T07:52:13.336Z</time></trkpt><trkpt lat="43.3451617" lon="10.7551867"><ele>56.0</ele><time>2026-04-06T07:52:14.335Z</time></trkpt><trkpt lat="43.345095" lon="10.7551317"><ele>55.99999999999999</ele><time>2026-04-06T07:52:15.337Z</time></trkpt><trkpt lat="43.3450283" lon="10.7550667"><ele>55.99999999999999</ele><time>2026-04-06T07:52:16.339Z</time></trkpt><trkpt lat="43.3449617" lon="10.754985"><ele>56.0</ele><time>2026-04-06T07:52:17.332Z</time></trkpt><trkpt lat="43.34491" lon="10.75487"><ele>56.0</ele><time>2026-04-06T07:52:18.339Z</time></trkpt><trkpt lat="43.344865" lon="10.7547367"><ele>56.0</ele><time>2026-04-06T07:52:19.338Z</time></trkpt><trkpt lat="43.3448267" lon="10.754595"><ele>56.0</ele><time>2026-04-06T07:52:20.333Z</time></trkpt><trkpt lat="43.344795" lon="10.7544433"><ele>56.0</ele><time>2026-04-06T07:52:21.335Z</time></trkpt><trkpt lat="43.34476" lon="10.7542833"><ele>56.0</ele><time>2026-04-06T07:52:22.336Z</time></trkpt><trkpt lat="43.3447167" lon="10.7541217"><ele>55.75</ele><time>2026-04-06T07:52:23.34Z</time></trkpt><trkpt lat="43.3446617" lon="10.75396"><ele>55.5</ele><time>2026-04-06T07:52:24.342Z</time></trkpt><trkpt lat="43.3446" lon="10.7538067"><ele>55.25</ele><time>2026-04-06T07:52:25.352Z</time></trkpt><trkpt lat="43.3445333" lon="10.75366"><ele>55.0</ele><time>2026-04-06T07:52:26.341Z</time></trkpt><trkpt lat="43.3444567" lon="10.7535217"><ele>55.5</ele><time>2026-04-06T07:52:27.343Z</time></trkpt><trkpt lat="43.344375" lon="10.7533867"><ele>56.0</ele><time>2026-04-06T07:52:28.336Z</time></trkpt><trkpt lat="43.3442933" lon="10.75326"><ele>56.5</ele><time>2026-04-06T07:52:29.338Z</time></trkpt><trkpt lat="43.3442083" lon="10.753135"><ele>57.0</ele><time>2026-04-06T07:52:30.337Z</time></trkpt><trkpt lat="43.34412" lon="10.7530083"><ele>57.0</ele><time>2026-04-06T07:52:31.338Z</time></trkpt><trkpt lat="43.3440333" lon="10.7528833"><ele>57.0</ele><time>2026-04-06T07:52:32.34Z</time></trkpt><trkpt lat="43.3439433" lon="10.75276"><ele>57.0</ele><time>2026-04-06T07:52:33.34Z</time></trkpt><trkpt lat="43.3438517" lon="10.7526333"><ele>57.0</ele><time>2026-04-06T07:52:34.338Z</time></trkpt><trkpt lat="43.34376" lon="10.7525"><ele>56.75</ele><time>2026-04-06T07:52:35.341Z</time></trkpt><trkpt lat="43.343665" lon="10.752365"><ele>56.5</ele><time>2026-04-06T07:52:36.337Z</time></trkpt><trkpt lat="43.3435667" lon="10.752225"><ele>56.25</ele><time>2026-04-06T07:52:37.337Z</time></trkpt><trkpt lat="43.3434633" lon="10.752085"><ele>56.0</ele><time>2026-04-06T07:52:38.338Z</time></trkpt><trkpt lat="43.3433617" lon="10.75194"><ele>56.333333333333336</ele><time>2026-04-06T07:52:39.338Z</time></trkpt><trkpt lat="43.34326" lon="10.7517917"><ele>56.66666666666667</ele><time>2026-04-06T07:52:40.337Z</time></trkpt><trkpt lat="43.343155" lon="10.75164"><ele>57.0</ele><time>2026-04-06T07:52:41.335Z</time></trkpt><trkpt lat="43.3430483" lon="10.751485"><ele>56.66666666666667</ele><time>2026-04-06T07:52:42.355Z</time></trkpt><trkpt lat="43.3429383" lon="10.7513233"><ele>56.333333333333336</ele><time>2026-04-06T07:52:43.342Z</time></trkpt><trkpt lat="43.3428233" lon="10.7511583"><ele>56.0</ele><time>2026-04-06T07:52:44.34Z</time></trkpt><trkpt lat="43.342705" lon="10.750985"><ele>56.0</ele><time>2026-04-06T07:52:45.335Z</time></trkpt><trkpt lat="43.3425817" lon="10.7508083"><ele>56.0</ele><time>2026-04-06T07:52:46.335Z</time></trkpt><trkpt lat="43.342455" lon="10.750625"><ele>56.0</ele><time>2026-04-06T07:52:47.336Z</time></trkpt><trkpt lat="43.3423267" lon="10.7504383"><ele>55.66666666666667</ele><time>2026-04-06T07:52:48.337Z</time></trkpt><trkpt lat="43.3422" lon="10.7502567"><ele>55.33333333333333</ele><time>2026-04-06T07:52:49.339Z</time></trkpt><trkpt lat="43.342075" lon="10.7500783"><ele>55.0</ele><time>2026-04-06T07:52:50.339Z</time></trkpt><trkpt lat="43.3419533" lon="10.749905"><ele>55.0</ele><time>2026-04-06T07:52:51.337Z</time></trkpt><trkpt lat="43.3418367" lon="10.7497367"><ele>55.0</ele><time>2026-04-06T07:52:52.339Z</time></trkpt><trkpt lat="43.3417283" lon="10.7495717"><ele>55.0</ele><time>2026-04-06T07:52:53.339Z</time></trkpt><trkpt lat="43.3416217" lon="10.7494217"><ele>54.75</ele><time>2026-04-06T07:52:54.336Z</time></trkpt><trkpt lat="43.3415167" lon="10.7492867"><ele>54.5</ele><time>2026-04-06T07:52:55.343Z</time></trkpt><trkpt lat="43.34141" lon="10.749165"><ele>54.25</ele><time>2026-04-06T07:52:56.337Z</time></trkpt><trkpt lat="43.3412967" lon="10.749055"><ele>54.0</ele><time>2026-04-06T07:52:57.337Z</time></trkpt><trkpt lat="43.3411783" lon="10.7489533"><ele>54.0</ele><time>2026-04-06T07:52:58.335Z</time></trkpt><trkpt lat="43.3410567" lon="10.748855"><ele>54.0</ele><time>2026-04-06T07:52:59.333Z</time></trkpt><trkpt lat="43.3409333" lon="10.7487583"><ele>54.0</ele><time>2026-04-06T07:53:00.339Z</time></trkpt><trkpt lat="43.34081" lon="10.74866"><ele>54.0</ele><time>2026-04-06T07:53:01.336Z</time></trkpt><trkpt lat="43.3406817" lon="10.7485683"><ele>54.25</ele><time>2026-04-06T07:53:02.337Z</time></trkpt><trkpt lat="43.34055" lon="10.74848"><ele>54.5</ele><time>2026-04-06T07:53:03.337Z</time></trkpt><trkpt lat="43.3404167" lon="10.7484"><ele>54.75</ele><time>2026-04-06T07:53:04.336Z</time></trkpt><trkpt lat="43.3402817" lon="10.7483217"><ele>55.0</ele><time>2026-04-06T07:53:05.336Z</time></trkpt><trkpt lat="43.3401467" lon="10.7482483"><ele>55.0</ele><time>2026-04-06T07:53:06.336Z</time></trkpt><trkpt lat="43.3400067" lon="10.748185"><ele>55.0</ele><time>2026-04-06T07:53:07.34Z</time></trkpt><trkpt lat="43.3398683" lon="10.7481217"><ele>55.0</ele><time>2026-04-06T07:53:08.429Z</time></trkpt><trkpt lat="43.3397267" lon="10.74806"><ele>55.0</ele><time>2026-04-06T07:53:09.337Z</time></trkpt><trkpt lat="43.339585" lon="10.7479983"><ele>55.0</ele><time>2026-04-06T07:53:10.339Z</time></trkpt><trkpt lat="43.3394417" lon="10.7479417"><ele>55.0</ele><time>2026-04-06T07:53:11.336Z</time></trkpt><trkpt lat="43.3392983" lon="10.747885"><ele>55.0</ele><time>2026-04-06T07:53:12.336Z</time></trkpt><trkpt lat="43.3391533" lon="10.7478367"><ele>55.0</ele><time>2026-04-06T07:53:13.335Z</time></trkpt><trkpt lat="43.339005" lon="10.7477967"><ele>54.0</ele><time>2026-04-06T07:53:14.337Z</time></trkpt><trkpt lat="43.3388517" lon="10.7477717"><ele>53.0</ele><time>2026-04-06T07:53:15.335Z</time></trkpt><trkpt lat="43.3387" lon="10.7477733"><ele>52.0</ele><time>2026-04-06T07:53:16.337Z</time></trkpt><trkpt lat="43.3385533" lon="10.7477833"><ele>52.0</ele><time>2026-04-06T07:53:17.337Z</time></trkpt><trkpt lat="43.3384117" lon="10.747805"><ele>52.0</ele><time>2026-04-06T07:53:18.338Z</time></trkpt><trkpt lat="43.3382767" lon="10.7478183"><ele>52.0</ele><time>2026-04-06T07:53:19.336Z</time></trkpt><trkpt lat="43.3381417" lon="10.74783"><ele>52.0</ele><time>2026-04-06T07:53:20.339Z</time></trkpt><trkpt lat="43.3380083" lon="10.7478333"><ele>52.25</ele><time>2026-04-06T07:53:21.344Z</time></trkpt><trkpt lat="43.3378783" lon="10.7478317"><ele>52.5</ele><time>2026-04-06T07:53:22.338Z</time></trkpt><trkpt lat="43.337745" lon="10.7478233"><ele>52.75</ele><time>2026-04-06T07:53:23.341Z</time></trkpt><trkpt lat="43.3376133" lon="10.7478017"><ele>53.0</ele><time>2026-04-06T07:53:24.333Z</time></trkpt><trkpt lat="43.3374833" lon="10.747765"><ele>53.75</ele><time>2026-04-06T07:53:25.34Z</time></trkpt><trkpt lat="43.3373567" lon="10.7477033"><ele>54.5</ele><time>2026-04-06T07:53:26.338Z</time></trkpt><trkpt lat="43.3372383" lon="10.7476133"><ele>55.25</ele><time>2026-04-06T07:53:27.338Z</time></trkpt><trkpt lat="43.3371283" lon="10.7475033"><ele>56.0</ele><time>2026-04-06T07:53:28.338Z</time></trkpt><trkpt lat="43.3370217" lon="10.7473817"><ele>56.0</ele><time>2026-04-06T07:53:29.339Z</time></trkpt><trkpt lat="43.33692" lon="10.74725"><ele>56.0</ele><time>2026-04-06T07:53:30.34Z</time></trkpt><trkpt lat="43.3368183" lon="10.7471233"><ele>56.0</ele><time>2026-04-06T07:53:31.338Z</time></trkpt><trkpt lat="43.3367217" lon="10.7470017"><ele>56.0</ele><time>2026-04-06T07:53:32.339Z</time></trkpt><trkpt lat="43.336625" lon="10.746885"><ele>55.5</ele><time>2026-04-06T07:53:33.341Z</time></trkpt><trkpt lat="43.3365333" lon="10.746765"><ele>55.0</ele><time>2026-04-06T07:53:34.34Z</time></trkpt><trkpt lat="43.3364517" lon="10.74664"><ele>54.5</ele><time>2026-04-06T07:53:35.337Z</time></trkpt><trkpt lat="43.336375" lon="10.74652"><ele>54.0</ele><time>2026-04-06T07:53:36.335Z</time></trkpt><trkpt lat="43.3363117" lon="10.7463867"><ele>54.0</ele><time>2026-04-06T07:53:37.336Z</time></trkpt><trkpt lat="43.3362567" lon="10.7462583"><ele>54.00000000000001</ele><time>2026-04-06T07:53:38.337Z</time></trkpt><trkpt lat="43.3362117" lon="10.7461267"><ele>54.00000000000001</ele><time>2026-04-06T07:53:39.337Z</time></trkpt><trkpt lat="43.3361683" lon="10.745995"><ele>54.0</ele><time>2026-04-06T07:53:40.336Z</time></trkpt><trkpt lat="43.33613" lon="10.745865"><ele>54.0</ele><time>2026-04-06T07:53:41.338Z</time></trkpt><trkpt lat="43.3360933" lon="10.74573"><ele>54.2</ele><time>2026-04-06T07:53:42.337Z</time></trkpt><trkpt lat="43.336055" lon="10.7455983"><ele>54.400000000000006</ele><time>2026-04-06T07:53:43.338Z</time></trkpt><trkpt lat="43.3360217" lon="10.7454683"><ele>54.6</ele><time>2026-04-06T07:53:44.349Z</time></trkpt><trkpt lat="43.3359883" lon="10.7453433"><ele>54.8</ele><time>2026-04-06T07:53:45.337Z</time></trkpt><trkpt lat="43.3359567" lon="10.74522"><ele>55.0</ele><time>2026-04-06T07:53:46.337Z</time></trkpt><trkpt lat="43.3359233" lon="10.7450967"><ele>55.6</ele><time>2026-04-06T07:53:47.337Z</time></trkpt><trkpt lat="43.335885" lon="10.7449783"><ele>56.2</ele><time>2026-04-06T07:53:48.337Z</time></trkpt><trkpt lat="43.3358483" lon="10.7448667"><ele>56.8</ele><time>2026-04-06T07:53:49.338Z</time></trkpt><trkpt lat="43.3358133" lon="10.7447583"><ele>57.4</ele><time>2026-04-06T07:53:50.338Z</time></trkpt><trkpt lat="43.33578" lon="10.7446433"><ele>58.0</ele><time>2026-04-06T07:53:51.338Z</time></trkpt><trkpt lat="43.3357467" lon="10.7445267"><ele>57.99999999999999</ele><time>2026-04-06T07:53:52.342Z</time></trkpt><trkpt lat="43.335715" lon="10.7444083"><ele>58.0</ele><time>2026-04-06T07:53:53.338Z</time></trkpt><trkpt lat="43.3356833" lon="10.7442917"><ele>58.0</ele><time>2026-04-06T07:53:54.337Z</time></trkpt><trkpt lat="43.33565" lon="10.74418"><ele>58.0</ele><time>2026-04-06T07:53:55.337Z</time></trkpt><trkpt lat="43.3356167" lon="10.7440683"><ele>57.99999999999999</ele><time>2026-04-06T07:53:56.338Z</time></trkpt><trkpt lat="43.335585" lon="10.7439567"><ele>58.0</ele><time>2026-04-06T07:53:57.338Z</time></trkpt><trkpt lat="43.335555" lon="10.7438433"><ele>57.33333333333333</ele><time>2026-04-06T07:53:58.339Z</time></trkpt><trkpt lat="43.3355283" lon="10.7437317"><ele>56.666666666666664</ele><time>2026-04-06T07:53:59.337Z</time></trkpt><trkpt lat="43.3354933" lon="10.7436233"><ele>56.0</ele><time>2026-04-06T07:54:00.338Z</time></trkpt><trkpt lat="43.3354633" lon="10.7435133"><ele>55.33333333333333</ele><time>2026-04-06T07:54:01.34Z</time></trkpt><trkpt lat="43.335435" lon="10.7434033"><ele>54.666666666666664</ele><time>2026-04-06T07:54:02.34Z</time></trkpt><trkpt lat="43.3354117" lon="10.74329"><ele>54.0</ele><time>2026-04-06T07:54:03.337Z</time></trkpt><trkpt lat="43.3353983" lon="10.743175"><ele>54.0</ele><time>2026-04-06T07:54:04.336Z</time></trkpt><trkpt lat="43.3353933" lon="10.7430583"><ele>54.0</ele><time>2026-04-06T07:54:05.338Z</time></trkpt><trkpt lat="43.3353983" lon="10.7429383"><ele>54.0</ele><time>2026-04-06T07:54:06.34Z</time></trkpt><trkpt lat="43.335415" lon="10.7428167"><ele>54.0</ele><time>2026-04-06T07:54:07.339Z</time></trkpt><trkpt lat="43.3354383" lon="10.7426933"><ele>54.0</ele><time>2026-04-06T07:54:08.338Z</time></trkpt><trkpt lat="43.3354633" lon="10.7425683"><ele>54.0</ele><time>2026-04-06T07:54:09.337Z</time></trkpt><trkpt lat="43.3354883" lon="10.7424417"><ele>54.0</ele><time>2026-04-06T07:54:10.336Z</time></trkpt><trkpt lat="43.3355183" lon="10.7423083"><ele>54.00000000000001</ele><time>2026-04-06T07:54:11.338Z</time></trkpt><trkpt lat="43.3355467" lon="10.7421717"><ele>54.00000000000001</ele><time>2026-04-06T07:54:12.341Z</time></trkpt><trkpt lat="43.335575" lon="10.742035"><ele>54.0</ele><time>2026-04-06T07:54:13.339Z</time></trkpt><trkpt lat="43.3356017" lon="10.7418983"><ele>54.0</ele><time>2026-04-06T07:54:14.341Z</time></trkpt><trkpt lat="43.3356283" lon="10.7417633"><ele>55.400000000000006</ele><time>2026-04-06T07:54:15.339Z</time></trkpt><trkpt lat="43.3356567" lon="10.74163"><ele>56.800000000000004</ele><time>2026-04-06T07:54:16.341Z</time></trkpt><trkpt lat="43.335685" lon="10.7414983"><ele>58.199999999999996</ele><time>2026-04-06T07:54:17.338Z</time></trkpt><trkpt lat="43.3357117" lon="10.7413617"><ele>59.599999999999994</ele><time>2026-04-06T07:54:18.338Z</time></trkpt><trkpt lat="43.3357417" lon="10.7412233"><ele>61.0</ele><time>2026-04-06T07:54:19.337Z</time></trkpt><trkpt lat="43.33577" lon="10.7410867"><ele>59.8</ele><time>2026-04-06T07:54:20.336Z</time></trkpt><trkpt lat="43.3358033" lon="10.74095"><ele>58.599999999999994</ele><time>2026-04-06T07:54:21.337Z</time></trkpt><trkpt lat="43.33584" lon="10.7408083"><ele>57.4</ele><time>2026-04-06T07:54:22.336Z</time></trkpt><trkpt lat="43.335875" lon="10.74067"><ele>56.2</ele><time>2026-04-06T07:54:23.337Z</time></trkpt><trkpt lat="43.3359033" lon="10.7405233"><ele>55.0</ele><time>2026-04-06T07:54:24.337Z</time></trkpt><trkpt lat="43.3359317" lon="10.7403733"><ele>55.0</ele><time>2026-04-06T07:54:25.34Z</time></trkpt><trkpt lat="43.3359567" lon="10.7402267"><ele>55.0</ele><time>2026-04-06T07:54:26.337Z</time></trkpt><trkpt lat="43.3359867" lon="10.740085"><ele>55.0</ele><time>2026-04-06T07:54:27.337Z</time></trkpt><trkpt lat="43.3360167" lon="10.7399433"><ele>55.0</ele><time>2026-04-06T07:54:28.336Z</time></trkpt><trkpt lat="43.3360483" lon="10.7398083"><ele>55.0</ele><time>2026-04-06T07:54:29.345Z</time></trkpt><trkpt lat="43.33608" lon="10.7396717"><ele>54.6</ele><time>2026-04-06T07:54:30.34Z</time></trkpt><trkpt lat="43.33611" lon="10.7395383"><ele>54.2</ele><time>2026-04-06T07:54:31.344Z</time></trkpt><trkpt lat="43.3361467" lon="10.7393983"><ele>53.8</ele><time>2026-04-06T07:54:32.337Z</time></trkpt><trkpt lat="43.3361817" lon="10.73926"><ele>53.4</ele><time>2026-04-06T07:54:33.339Z</time></trkpt><trkpt lat="43.3362167" lon="10.739115"><ele>53.0</ele><time>2026-04-06T07:54:34.337Z</time></trkpt><trkpt lat="43.3362483" lon="10.7389733"><ele>52.5</ele><time>2026-04-06T07:54:35.342Z</time></trkpt><trkpt lat="43.33628" lon="10.7388283"><ele>52.0</ele><time>2026-04-06T07:54:36.339Z</time></trkpt><trkpt lat="43.3363133" lon="10.7386783"><ele>51.5</ele><time>2026-04-06T07:54:37.34Z</time></trkpt><trkpt lat="43.33634" lon="10.73853"><ele>51.0</ele><time>2026-04-06T07:54:38.337Z</time></trkpt><trkpt lat="43.3363667" lon="10.7383717"><ele>54.75</ele><time>2026-04-06T07:54:39.334Z</time></trkpt><trkpt lat="43.3363933" lon="10.7382083"><ele>58.5</ele><time>2026-04-06T07:54:40.34Z</time></trkpt><trkpt lat="43.3364133" lon="10.7380467"><ele>62.25</ele><time>2026-04-06T07:54:41.335Z</time></trkpt><trkpt lat="43.3364267" lon="10.7378883"><ele>66.0</ele><time>2026-04-06T07:54:42.338Z</time></trkpt><trkpt lat="43.3364317" lon="10.73773"><ele>64.75</ele><time>2026-04-06T07:54:43.338Z</time></trkpt><trkpt lat="43.336435" lon="10.73757"><ele>63.5</ele><time>2026-04-06T07:54:44.338Z</time></trkpt><trkpt lat="43.336435" lon="10.7374067"><ele>62.25</ele><time>2026-04-06T07:54:45.336Z</time></trkpt><trkpt lat="43.3364333" lon="10.73724"><ele>61.0</ele><time>2026-04-06T07:54:46.336Z</time></trkpt><trkpt lat="43.33643" lon="10.7370817"><ele>61.0</ele><time>2026-04-06T07:54:47.336Z</time></trkpt><trkpt lat="43.3364267" lon="10.736925"><ele>61.0</ele><time>2026-04-06T07:54:48.338Z</time></trkpt><trkpt lat="43.3364233" lon="10.7367683"><ele>61.0</ele><time>2026-04-06T07:54:49.338Z</time></trkpt><trkpt lat="43.3364183" lon="10.7366133"><ele>61.0</ele><time>2026-04-06T07:54:50.337Z</time></trkpt><trkpt lat="43.3364117" lon="10.7364533"><ele>61.25</ele><time>2026-04-06T07:54:51.336Z</time></trkpt><trkpt lat="43.3364033" lon="10.7362917"><ele>61.5</ele><time>2026-04-06T07:54:52.338Z</time></trkpt><trkpt lat="43.3363967" lon="10.73613"><ele>61.75</ele><time>2026-04-06T07:54:53.335Z</time></trkpt><trkpt lat="43.3363817" lon="10.73597"><ele>62.0</ele><time>2026-04-06T07:54:54.337Z</time></trkpt><trkpt lat="43.336365" lon="10.735815"><ele>60.2</ele><time>2026-04-06T07:54:55.339Z</time></trkpt><trkpt lat="43.3363433" lon="10.7356683"><ele>58.400000000000006</ele><time>2026-04-06T07:54:56.338Z</time></trkpt><trkpt lat="43.3363083" lon="10.7355283"><ele>56.599999999999994</ele><time>2026-04-06T07:54:57.337Z</time></trkpt><trkpt lat="43.3362583" lon="10.7353883"><ele>54.8</ele><time>2026-04-06T07:54:58.338Z</time></trkpt><trkpt lat="43.3362017" lon="10.7352483"><ele>53.0</ele><time>2026-04-06T07:54:59.335Z</time></trkpt><trkpt lat="43.33614" lon="10.7351133"><ele>53.0</ele><time>2026-04-06T07:55:00.333Z</time></trkpt><trkpt lat="43.3360767" lon="10.7349767"><ele>53.0</ele><time>2026-04-06T07:55:01.341Z</time></trkpt><trkpt lat="43.336015" lon="10.7348367"><ele>53.0</ele><time>2026-04-06T07:55:02.336Z</time></trkpt><trkpt lat="43.3359517" lon="10.7346967"><ele>53.0</ele><time>2026-04-06T07:55:03.339Z</time></trkpt><trkpt lat="43.3358883" lon="10.7345567"><ele>53.0</ele><time>2026-04-06T07:55:04.338Z</time></trkpt><trkpt lat="43.3358233" lon="10.7344167"><ele>53.0</ele><time>2026-04-06T07:55:05.338Z</time></trkpt><trkpt lat="43.335755" lon="10.7342733"><ele>53.0</ele><time>2026-04-06T07:55:06.337Z</time></trkpt><trkpt lat="43.3356833" lon="10.7341283"><ele>53.0</ele><time>2026-04-06T07:55:07.337Z</time></trkpt><trkpt lat="43.3356067" lon="10.7339817"><ele>52.25</ele><time>2026-04-06T07:55:08.339Z</time></trkpt><trkpt lat="43.335535" lon="10.7338333"><ele>51.5</ele><time>2026-04-06T07:55:09.338Z</time></trkpt><trkpt lat="43.3354667" lon="10.7336867"><ele>50.75</ele><time>2026-04-06T07:55:10.336Z</time></trkpt><trkpt lat="43.3354033" lon="10.7335433"><ele>50.0</ele><time>2026-04-06T07:55:11.339Z</time></trkpt><trkpt lat="43.3353433" lon="10.7333967"><ele>50.0</ele><time>2026-04-06T07:55:12.342Z</time></trkpt><trkpt lat="43.3352867" lon="10.7332483"><ele>50.0</ele><time>2026-04-06T07:55:13.339Z</time></trkpt><trkpt lat="43.33523" lon="10.7331"><ele>50.0</ele><time>2026-04-06T07:55:14.337Z</time></trkpt><trkpt lat="43.335175" lon="10.7329467"><ele>50.0</ele><time>2026-04-06T07:55:15.336Z</time></trkpt><trkpt lat="43.3351217" lon="10.7327917"><ele>51.25</ele><time>2026-04-06T07:55:16.334Z</time></trkpt><trkpt lat="43.3350767" lon="10.7326417"><ele>52.5</ele><time>2026-04-06T07:55:17.337Z</time></trkpt><trkpt lat="43.335045" lon="10.7324883"><ele>53.75</ele><time>2026-04-06T07:55:18.337Z</time></trkpt><trkpt lat="43.33503" lon="10.7323267"><ele>55.0</ele><time>2026-04-06T07:55:19.337Z</time></trkpt><trkpt lat="43.3350283" lon="10.7321567"><ele>55.0</ele><time>2026-04-06T07:55:20.342Z</time></trkpt><trkpt lat="43.3350367" lon="10.73199"><ele>55.0</ele><time>2026-04-06T07:55:21.339Z</time></trkpt><trkpt lat="43.3350517" lon="10.73182"><ele>55.0</ele><time>2026-04-06T07:55:22.339Z</time></trkpt><trkpt lat="43.3350667" lon="10.7316517"><ele>55.0</ele><time>2026-04-06T07:55:23.338Z</time></trkpt><trkpt lat="43.3350833" lon="10.7314717"><ele>55.0</ele><time>2026-04-06T07:55:24.335Z</time></trkpt><trkpt lat="43.3350983" lon="10.7312967"><ele>55.0</ele><time>2026-04-06T07:55:25.336Z</time></trkpt><trkpt lat="43.3351133" lon="10.7311217"><ele>55.0</ele><time>2026-04-06T07:55:26.344Z</time></trkpt><trkpt lat="43.3351283" lon="10.7309567"><ele>55.0</ele><time>2026-04-06T07:55:27.337Z</time></trkpt><trkpt lat="43.3351433" lon="10.7307867"><ele>55.0</ele><time>2026-04-06T07:55:28.337Z</time></trkpt><trkpt lat="43.33516" lon="10.7306133"><ele>55.0</ele><time>2026-04-06T07:55:29.336Z</time></trkpt><trkpt lat="43.335175" lon="10.7304417"><ele>55.0</ele><time>2026-04-06T07:55:30.336Z</time></trkpt><trkpt lat="43.335185" lon="10.73027"><ele>55.0</ele><time>2026-04-06T07:55:31.335Z</time></trkpt><trkpt lat="43.335195" lon="10.7300967"><ele>55.0</ele><time>2026-04-06T07:55:32.335Z</time></trkpt><trkpt lat="43.3352083" lon="10.7299267"><ele>55.0</ele><time>2026-04-06T07:55:33.343Z</time></trkpt><trkpt lat="43.335215" lon="10.729755"><ele>55.0</ele><time>2026-04-06T07:55:34.337Z</time></trkpt><trkpt lat="43.33521" lon="10.7295867"><ele>55.0</ele><time>2026-04-06T07:55:35.336Z</time></trkpt><trkpt lat="43.335195" lon="10.7294217"><ele>55.25</ele><time>2026-04-06T07:55:36.335Z</time></trkpt><trkpt lat="43.3351783" lon="10.7292583"><ele>55.5</ele><time>2026-04-06T07:55:37.339Z</time></trkpt><trkpt lat="43.3351617" lon="10.7290983"><ele>55.75</ele><time>2026-04-06T07:55:38.336Z</time></trkpt><trkpt lat="43.3351467" lon="10.7289383"><ele>56.0</ele><time>2026-04-06T07:55:39.339Z</time></trkpt><trkpt lat="43.33513" lon="10.7287783"><ele>56.0</ele><time>2026-04-06T07:55:40.336Z</time></trkpt><trkpt lat="43.3351083" lon="10.72861"><ele>56.0</ele><time>2026-04-06T07:55:41.339Z</time></trkpt><trkpt lat="43.3350867" lon="10.728445"><ele>56.0</ele><time>2026-04-06T07:55:42.343Z</time></trkpt><trkpt lat="43.3350617" lon="10.7282733"><ele>56.0</ele><time>2026-04-06T07:55:43.338Z</time></trkpt><trkpt lat="43.3350383" lon="10.7281"><ele>56.25</ele><time>2026-04-06T07:55:44.341Z</time></trkpt><trkpt lat="43.3350167" lon="10.7279267"><ele>56.5</ele><time>2026-04-06T07:55:45.336Z</time></trkpt><trkpt lat="43.3349983" lon="10.7277533"><ele>56.75</ele><time>2026-04-06T07:55:46.336Z</time></trkpt><trkpt lat="43.33498" lon="10.7275833"><ele>57.0</ele><time>2026-04-06T07:55:47.337Z</time></trkpt><trkpt lat="43.3349633" lon="10.727415"><ele>57.25</ele><time>2026-04-06T07:55:48.338Z</time></trkpt><trkpt lat="43.334945" lon="10.7272533"><ele>57.5</ele><time>2026-04-06T07:55:49.338Z</time></trkpt><trkpt lat="43.3349217" lon="10.7270933"><ele>57.75</ele><time>2026-04-06T07:55:50.337Z</time></trkpt><trkpt lat="43.3349" lon="10.7269317"><ele>58.0</ele><time>2026-04-06T07:55:51.338Z</time></trkpt><trkpt lat="43.334875" lon="10.7267683"><ele>58.5</ele><time>2026-04-06T07:55:52.336Z</time></trkpt><trkpt lat="43.33485" lon="10.7265983"><ele>59.0</ele><time>2026-04-06T07:55:53.337Z</time></trkpt><trkpt lat="43.3348283" lon="10.726425"><ele>59.5</ele><time>2026-04-06T07:55:54.335Z</time></trkpt><trkpt lat="43.3348083" lon="10.7262483"><ele>60.0</ele><time>2026-04-06T07:55:55.336Z</time></trkpt><trkpt lat="43.334785" lon="10.7260717"><ele>60.75</ele><time>2026-04-06T07:55:56.34Z</time></trkpt><trkpt lat="43.3347617" lon="10.7258967"><ele>61.5</ele><time>2026-04-06T07:55:57.337Z</time></trkpt><trkpt lat="43.3347367" lon="10.725715"><ele>62.25</ele><time>2026-04-06T07:55:58.34Z</time></trkpt><trkpt lat="43.3347117" lon="10.7255367"><ele>63.0</ele><time>2026-04-06T07:55:59.337Z</time></trkpt><trkpt lat="43.33468" lon="10.7253617"><ele>60.5</ele><time>2026-04-06T07:56:00.338Z</time></trkpt><trkpt lat="43.3346383" lon="10.7251917"><ele>58.0</ele><time>2026-04-06T07:56:01.339Z</time></trkpt><trkpt lat="43.3345817" lon="10.7250317"><ele>55.5</ele><time>2026-04-06T07:56:02.34Z</time></trkpt><trkpt lat="43.3345117" lon="10.7248783"><ele>53.0</ele><time>2026-04-06T07:56:03.342Z</time></trkpt><trkpt lat="43.3344367" lon="10.7247317"><ele>53.0</ele><time>2026-04-06T07:56:04.337Z</time></trkpt><trkpt lat="43.3343517" lon="10.7245867"><ele>53.0</ele><time>2026-04-06T07:56:05.341Z</time></trkpt><trkpt lat="43.3342717" lon="10.7244467"><ele>53.0</ele><time>2026-04-06T07:56:06.338Z</time></trkpt><trkpt lat="43.3341967" lon="10.7243083"><ele>53.0</ele><time>2026-04-06T07:56:07.336Z</time></trkpt><trkpt lat="43.3341283" lon="10.7241633"><ele>54.25</ele><time>2026-04-06T07:56:08.342Z</time></trkpt><trkpt lat="43.3340583" lon="10.72401"><ele>55.5</ele><time>2026-04-06T07:56:09.337Z</time></trkpt><trkpt lat="43.3340017" lon="10.7238433"><ele>56.75</ele><time>2026-04-06T07:56:10.338Z</time></trkpt><trkpt lat="43.3339483" lon="10.7236717"><ele>58.0</ele><time>2026-04-06T07:56:11.334Z</time></trkpt><trkpt lat="43.3338983" lon="10.7234967"><ele>56.0</ele><time>2026-04-06T07:56:12.338Z</time></trkpt><trkpt lat="43.33386" lon="10.7233183"><ele>54.0</ele><time>2026-04-06T07:56:13.339Z</time></trkpt><trkpt lat="43.3338183" lon="10.7231367"><ele>52.0</ele><time>2026-04-06T07:56:14.34Z</time></trkpt><trkpt lat="43.3337783" lon="10.7229533"><ele>50.0</ele><time>2026-04-06T07:56:15.341Z</time></trkpt><trkpt lat="43.333735" lon="10.7227683"><ele>49.75</ele><time>2026-04-06T07:56:16.34Z</time></trkpt><trkpt lat="43.3336883" lon="10.7225867"><ele>49.5</ele><time>2026-04-06T07:56:17.338Z</time></trkpt><trkpt lat="43.3336433" lon="10.7224083"><ele>49.25</ele><time>2026-04-06T07:56:18.336Z</time></trkpt><trkpt lat="43.3336017" lon="10.72223"><ele>49.0</ele><time>2026-04-06T07:56:19.338Z</time></trkpt><trkpt lat="43.3335567" lon="10.722055"><ele>49.25</ele><time>2026-04-06T07:56:20.344Z</time></trkpt><trkpt lat="43.333515" lon="10.7218817"><ele>49.5</ele><time>2026-04-06T07:56:21.342Z</time></trkpt><trkpt lat="43.3334717" lon="10.7217083"><ele>49.75</ele><time>2026-04-06T07:56:22.337Z</time></trkpt><trkpt lat="43.33343" lon="10.7215317"><ele>50.0</ele><time>2026-04-06T07:56:23.339Z</time></trkpt><trkpt lat="43.33339" lon="10.72135"><ele>50.0</ele><time>2026-04-06T07:56:24.34Z</time></trkpt><trkpt lat="43.33335" lon="10.7211667"><ele>50.0</ele><time>2026-04-06T07:56:25.337Z</time></trkpt><trkpt lat="43.3333133" lon="10.720985"><ele>50.0</ele><time>2026-04-06T07:56:26.34Z</time></trkpt><trkpt lat="43.3332733" lon="10.7207983"><ele>50.0</ele><time>2026-04-06T07:56:27.339Z</time></trkpt><trkpt lat="43.3332317" lon="10.7206133"><ele>49.75</ele><time>2026-04-06T07:56:28.337Z</time></trkpt><trkpt lat="43.3331883" lon="10.7204283"><ele>49.5</ele><time>2026-04-06T07:56:29.339Z</time></trkpt><trkpt lat="43.3331483" lon="10.720245"><ele>49.25</ele><time>2026-04-06T07:56:30.339Z</time></trkpt><trkpt lat="43.33311" lon="10.7200617"><ele>49.0</ele><time>2026-04-06T07:56:31.34Z</time></trkpt><trkpt lat="43.33307" lon="10.71988"><ele>48.5</ele><time>2026-04-06T07:56:32.34Z</time></trkpt><trkpt lat="43.3330267" lon="10.7196967"><ele>48.0</ele><time>2026-04-06T07:56:33.337Z</time></trkpt><trkpt lat="43.3329867" lon="10.719515"><ele>47.5</ele><time>2026-04-06T07:56:34.337Z</time></trkpt><trkpt lat="43.3329467" lon="10.7193367"><ele>47.0</ele><time>2026-04-06T07:56:35.336Z</time></trkpt><trkpt lat="43.3329117" lon="10.7191583"><ele>47.0</ele><time>2026-04-06T07:56:36.335Z</time></trkpt><trkpt lat="43.33288" lon="10.7189783"><ele>47.0</ele><time>2026-04-06T07:56:37.339Z</time></trkpt><trkpt lat="43.3328567" lon="10.7187983"><ele>47.0</ele><time>2026-04-06T07:56:38.338Z</time></trkpt><trkpt lat="43.3328383" lon="10.7186217"><ele>47.0</ele><time>2026-04-06T07:56:39.337Z</time></trkpt><trkpt lat="43.3328217" lon="10.718445"><ele>48.25</ele><time>2026-04-06T07:56:40.341Z</time></trkpt><trkpt lat="43.33281" lon="10.7182733"><ele>49.5</ele><time>2026-04-06T07:56:41.337Z</time></trkpt><trkpt lat="43.3328017" lon="10.7181067"><ele>50.75</ele><time>2026-04-06T07:56:42.336Z</time></trkpt><trkpt lat="43.3327933" lon="10.71794"><ele>52.0</ele><time>2026-04-06T07:56:43.339Z</time></trkpt><trkpt lat="43.3327833" lon="10.7177717"><ele>52.25</ele><time>2026-04-06T07:56:44.338Z</time></trkpt><trkpt lat="43.332775" lon="10.7176017"><ele>52.5</ele><time>2026-04-06T07:56:45.338Z</time></trkpt><trkpt lat="43.3327683" lon="10.7174333"><ele>52.75</ele><time>2026-04-06T07:56:46.337Z</time></trkpt><trkpt lat="43.3327567" lon="10.71726"><ele>53.0</ele><time>2026-04-06T07:56:47.338Z</time></trkpt><trkpt lat="43.3327417" lon="10.7170833"><ele>53.75</ele><time>2026-04-06T07:56:48.338Z</time></trkpt><trkpt lat="43.33273" lon="10.7169"><ele>54.5</ele><time>2026-04-06T07:56:49.338Z</time></trkpt><trkpt lat="43.332715" lon="10.7167133"><ele>55.25</ele><time>2026-04-06T07:56:50.341Z</time></trkpt><trkpt lat="43.3327" lon="10.7165233"><ele>56.0</ele><time>2026-04-06T07:56:51.34Z</time></trkpt><trkpt lat="43.332685" lon="10.716335"><ele>56.0</ele><time>2026-04-06T07:56:52.34Z</time></trkpt><trkpt lat="43.33267" lon="10.7161417"><ele>56.0</ele><time>2026-04-06T07:56:53.338Z</time></trkpt><trkpt lat="43.332655" lon="10.7159467"><ele>56.0</ele><time>2026-04-06T07:56:54.336Z</time></trkpt><trkpt lat="43.33264" lon="10.71575"><ele>56.0</ele><time>2026-04-06T07:56:55.335Z</time></trkpt><trkpt lat="43.3326267" lon="10.7155567"><ele>55.25</ele><time>2026-04-06T07:56:56.337Z</time></trkpt><trkpt lat="43.33261" lon="10.7153633"><ele>54.5</ele><time>2026-04-06T07:56:57.338Z</time></trkpt><trkpt lat="43.3325967" lon="10.71517"><ele>53.75</ele><time>2026-04-06T07:56:58.338Z</time></trkpt><trkpt lat="43.3325833" lon="10.7149783"><ele>53.0</ele><time>2026-04-06T07:56:59.337Z</time></trkpt><trkpt lat="43.33257" lon="10.71479"><ele>51.25</ele><time>2026-04-06T07:57:00.338Z</time></trkpt><trkpt lat="43.332555" lon="10.7146017"><ele>49.5</ele><time>2026-04-06T07:57:01.339Z</time></trkpt><trkpt lat="43.33254" lon="10.7144183"><ele>47.75</ele><time>2026-04-06T07:57:02.337Z</time></trkpt><trkpt lat="43.332525" lon="10.7142383"><ele>46.0</ele><time>2026-04-06T07:57:03.338Z</time></trkpt><trkpt lat="43.3325083" lon="10.7140567"><ele>45.75</ele><time>2026-04-06T07:57:04.336Z</time></trkpt><trkpt lat="43.3324933" lon="10.7138717"><ele>45.5</ele><time>2026-04-06T07:57:05.338Z</time></trkpt><trkpt lat="43.3324767" lon="10.71369"><ele>45.25</ele><time>2026-04-06T07:57:06.338Z</time></trkpt><trkpt lat="43.33245" lon="10.7135117"><ele>45.0</ele><time>2026-04-06T07:57:07.337Z</time></trkpt><trkpt lat="43.3324133" lon="10.713335"><ele>46.0</ele><time>2026-04-06T07:57:08.341Z</time></trkpt><trkpt lat="43.33231" lon="10.712995"><ele>47.0</ele><time>2026-04-06T07:57:10.339Z</time></trkpt><trkpt lat="43.332245" lon="10.71283"><ele>48.0</ele><time>2026-04-06T07:57:11.338Z</time></trkpt><trkpt lat="43.332175" lon="10.7126683"><ele>48.0</ele><time>2026-04-06T07:57:12.34Z</time></trkpt><trkpt lat="43.332095" lon="10.71251"><ele>48.0</ele><time>2026-04-06T07:57:13.337Z</time></trkpt><trkpt lat="43.3320133" lon="10.7123567"><ele>48.0</ele><time>2026-04-06T07:57:14.34Z</time></trkpt><trkpt lat="43.3319267" lon="10.7122017"><ele>48.0</ele><time>2026-04-06T07:57:15.337Z</time></trkpt><trkpt lat="43.3318383" lon="10.7120483"><ele>47.75</ele><time>2026-04-06T07:57:16.339Z</time></trkpt><trkpt lat="43.331745" lon="10.7118983"><ele>47.5</ele><time>2026-04-06T07:57:17.337Z</time></trkpt><trkpt lat="43.3316533" lon="10.71175"><ele>47.25</ele><time>2026-04-06T07:57:18.338Z</time></trkpt><trkpt lat="43.3315617" lon="10.7116067"><ele>47.0</ele><time>2026-04-06T07:57:19.341Z</time></trkpt><trkpt lat="43.3314733" lon="10.7114667"><ele>46.5</ele><time>2026-04-06T07:57:20.337Z</time></trkpt><trkpt lat="43.3313867" lon="10.7113283"><ele>46.0</ele><time>2026-04-06T07:57:21.337Z</time></trkpt><trkpt lat="43.3313" lon="10.7111883"><ele>45.5</ele><time>2026-04-06T07:57:22.338Z</time></trkpt><trkpt lat="43.3312117" lon="10.7110467"><ele>45.0</ele><time>2026-04-06T07:57:23.34Z</time></trkpt><trkpt lat="43.331125" lon="10.7109033"><ele>46.0</ele><time>2026-04-06T07:57:24.337Z</time></trkpt><trkpt lat="43.3310367" lon="10.7107567"><ele>47.0</ele><time>2026-04-06T07:57:25.354Z</time></trkpt><trkpt lat="43.3309433" lon="10.7106067"><ele>48.0</ele><time>2026-04-06T07:57:26.339Z</time></trkpt><trkpt lat="43.33085" lon="10.7104517"><ele>49.0</ele><time>2026-04-06T07:57:27.341Z</time></trkpt><trkpt lat="43.3307583" lon="10.7102917"><ele>48.0</ele><time>2026-04-06T07:57:28.34Z</time></trkpt><trkpt lat="43.33067" lon="10.7101217"><ele>47.0</ele><time>2026-04-06T07:57:29.337Z</time></trkpt><trkpt lat="43.330585" lon="10.7099383"><ele>46.0</ele><time>2026-04-06T07:57:30.339Z</time></trkpt><trkpt lat="43.330505" lon="10.7097383"><ele>46.0</ele><time>2026-04-06T07:57:31.342Z</time></trkpt><trkpt lat="43.3304333" lon="10.7095217"><ele>46.0</ele><time>2026-04-06T07:57:32.339Z</time></trkpt><trkpt lat="43.3303733" lon="10.7092967"><ele>46.0</ele><time>2026-04-06T07:57:33.344Z</time></trkpt><trkpt lat="43.3303183" lon="10.7090717"><ele>46.333333333333336</ele><time>2026-04-06T07:57:34.339Z</time></trkpt><trkpt lat="43.3302667" lon="10.708855"><ele>46.666666666666664</ele><time>2026-04-06T07:57:35.337Z</time></trkpt><trkpt lat="43.3302167" lon="10.7086467"><ele>47.0</ele><time>2026-04-06T07:57:36.339Z</time></trkpt><trkpt lat="43.33017" lon="10.7084483"><ele>47.5</ele><time>2026-04-06T07:57:37.337Z</time></trkpt><trkpt lat="43.330125" lon="10.708255"><ele>48.0</ele><time>2026-04-06T07:57:38.339Z</time></trkpt><trkpt lat="43.33008" lon="10.7080683"><ele>48.5</ele><time>2026-04-06T07:57:39.339Z</time></trkpt><trkpt lat="43.3300367" lon="10.707885"><ele>49.0</ele><time>2026-04-06T07:57:40.342Z</time></trkpt><trkpt lat="43.329995" lon="10.7077017"><ele>49.75</ele><time>2026-04-06T07:57:41.339Z</time></trkpt><trkpt lat="43.329955" lon="10.7075183"><ele>50.5</ele><time>2026-04-06T07:57:42.339Z</time></trkpt><trkpt lat="43.3299183" lon="10.70734"><ele>51.25</ele><time>2026-04-06T07:57:43.34Z</time></trkpt><trkpt lat="43.3298867" lon="10.7071567"><ele>52.0</ele><time>2026-04-06T07:57:44.338Z</time></trkpt><trkpt lat="43.329865" lon="10.7069717"><ele>52.75</ele><time>2026-04-06T07:57:45.338Z</time></trkpt><trkpt lat="43.32985" lon="10.7067867"><ele>53.5</ele><time>2026-04-06T07:57:46.338Z</time></trkpt><trkpt lat="43.3298417" lon="10.7066017"><ele>54.25</ele><time>2026-04-06T07:57:47.34Z</time></trkpt><trkpt lat="43.3298367" lon="10.706415"><ele>55.0</ele><time>2026-04-06T07:57:48.34Z</time></trkpt><trkpt lat="43.3298383" lon="10.7062283"><ele>55.0</ele><time>2026-04-06T07:57:49.342Z</time></trkpt><trkpt lat="43.3298383" lon="10.7060417"><ele>55.0</ele><time>2026-04-06T07:57:50.343Z</time></trkpt><trkpt lat="43.3298417" lon="10.7058567"><ele>55.0</ele><time>2026-04-06T07:57:51.34Z</time></trkpt><trkpt lat="43.3298467" lon="10.705675"><ele>55.0</ele><time>2026-04-06T07:57:52.339Z</time></trkpt><trkpt lat="43.32985" lon="10.70549"><ele>55.0</ele><time>2026-04-06T07:57:53.34Z</time></trkpt><trkpt lat="43.3298517" lon="10.7053083"><ele>55.0</ele><time>2026-04-06T07:57:54.34Z</time></trkpt><trkpt lat="43.3298533" lon="10.7051283"><ele>55.0</ele><time>2026-04-06T07:57:55.338Z</time></trkpt><trkpt lat="43.3298533" lon="10.7049433"><ele>55.0</ele><time>2026-04-06T07:57:56.342Z</time></trkpt><trkpt lat="43.3298517" lon="10.7047583"><ele>54.0</ele><time>2026-04-06T07:57:57.339Z</time></trkpt><trkpt lat="43.329845" lon="10.7045733"><ele>53.0</ele><time>2026-04-06T07:57:58.337Z</time></trkpt><trkpt lat="43.3298317" lon="10.7043867"><ele>52.0</ele><time>2026-04-06T07:57:59.339Z</time></trkpt><trkpt lat="43.32981" lon="10.7042"><ele>51.0</ele><time>2026-04-06T07:58:00.337Z</time></trkpt><trkpt lat="43.3297783" lon="10.7040167"><ele>51.0</ele><time>2026-04-06T07:58:01.339Z</time></trkpt><trkpt lat="43.329745" lon="10.7038367"><ele>51.0</ele><time>2026-04-06T07:58:02.34Z</time></trkpt><trkpt lat="43.3297067" lon="10.7036633"><ele>51.0</ele><time>2026-04-06T07:58:03.338Z</time></trkpt><trkpt lat="43.3296667" lon="10.703495"><ele>51.0</ele><time>2026-04-06T07:58:04.336Z</time></trkpt><trkpt lat="43.329625" lon="10.703335"><ele>50.0</ele><time>2026-04-06T07:58:05.338Z</time></trkpt><trkpt lat="43.329585" lon="10.7031833"><ele>49.0</ele><time>2026-04-06T07:58:06.336Z</time></trkpt><trkpt lat="43.3295483" lon="10.70304"><ele>48.0</ele><time>2026-04-06T07:58:07.341Z</time></trkpt><trkpt lat="43.3295117" lon="10.7029017"><ele>47.0</ele><time>2026-04-06T07:58:08.339Z</time></trkpt><trkpt lat="43.3294767" lon="10.7027667"><ele>46.0</ele><time>2026-04-06T07:58:09.336Z</time></trkpt><trkpt lat="43.3294417" lon="10.7026317"><ele>46.0</ele><time>2026-04-06T07:58:10.337Z</time></trkpt><trkpt lat="43.3294067" lon="10.702495"><ele>46.0</ele><time>2026-04-06T07:58:11.338Z</time></trkpt><trkpt lat="43.3293717" lon="10.702355"><ele>46.0</ele><time>2026-04-06T07:58:12.337Z</time></trkpt><trkpt lat="43.32933" lon="10.7022117"><ele>46.0</ele><time>2026-04-06T07:58:13.336Z</time></trkpt><trkpt lat="43.32929" lon="10.702065"><ele>46.0</ele><time>2026-04-06T07:58:14.338Z</time></trkpt><trkpt lat="43.32925" lon="10.70191"><ele>46.75</ele><time>2026-04-06T07:58:15.335Z</time></trkpt><trkpt lat="43.32921" lon="10.7017467"><ele>47.5</ele><time>2026-04-06T07:58:16.338Z</time></trkpt><trkpt lat="43.3291733" lon="10.701575"><ele>48.25</ele><time>2026-04-06T07:58:17.337Z</time></trkpt><trkpt lat="43.3291433" lon="10.7013983"><ele>49.0</ele><time>2026-04-06T07:58:18.339Z</time></trkpt><trkpt lat="43.3291183" lon="10.7012117"><ele>49.75</ele><time>2026-04-06T07:58:19.339Z</time></trkpt><trkpt lat="43.3291" lon="10.7010167"><ele>50.5</ele><time>2026-04-06T07:58:20.339Z</time></trkpt><trkpt lat="43.3290917" lon="10.7008183"><ele>51.25</ele><time>2026-04-06T07:58:21.338Z</time></trkpt><trkpt lat="43.3290917" lon="10.7006217"><ele>52.0</ele><time>2026-04-06T07:58:22.336Z</time></trkpt><trkpt lat="43.3290983" lon="10.70042"><ele>52.0</ele><time>2026-04-06T07:58:23.338Z</time></trkpt><trkpt lat="43.3291133" lon="10.7002183"><ele>52.0</ele><time>2026-04-06T07:58:24.34Z</time></trkpt><trkpt lat="43.3291383" lon="10.7000167"><ele>52.0</ele><time>2026-04-06T07:58:25.339Z</time></trkpt><trkpt lat="43.3291717" lon="10.6998167"><ele>52.0</ele><time>2026-04-06T07:58:26.345Z</time></trkpt><trkpt lat="43.3292117" lon="10.6996183"><ele>52.0</ele><time>2026-04-06T07:58:27.338Z</time></trkpt><trkpt lat="43.32926" lon="10.6994283"><ele>52.0</ele><time>2026-04-06T07:58:28.337Z</time></trkpt><trkpt lat="43.329315" lon="10.6992467"><ele>52.0</ele><time>2026-04-06T07:58:29.337Z</time></trkpt><trkpt lat="43.329375" lon="10.69907"><ele>52.0</ele><time>2026-04-06T07:58:30.339Z</time></trkpt><trkpt lat="43.3294383" lon="10.6988967"><ele>50.5</ele><time>2026-04-06T07:58:31.337Z</time></trkpt><trkpt lat="43.329505" lon="10.6987317"><ele>49.0</ele><time>2026-04-06T07:58:32.339Z</time></trkpt><trkpt lat="43.3295683" lon="10.698565"><ele>47.5</ele><time>2026-04-06T07:58:33.338Z</time></trkpt><trkpt lat="43.32963" lon="10.6983983"><ele>46.0</ele><time>2026-04-06T07:58:34.34Z</time></trkpt><trkpt lat="43.32969" lon="10.6982333"><ele>46.25</ele><time>2026-04-06T07:58:35.338Z</time></trkpt><trkpt lat="43.32975" lon="10.6980667"><ele>46.5</ele><time>2026-04-06T07:58:36.339Z</time></trkpt><trkpt lat="43.32981" lon="10.6979033"><ele>46.75</ele><time>2026-04-06T07:58:37.338Z</time></trkpt><trkpt lat="43.3298667" lon="10.6977433"><ele>47.0</ele><time>2026-04-06T07:58:38.338Z</time></trkpt><trkpt lat="43.32992" lon="10.69758"><ele>46.0</ele><time>2026-04-06T07:58:39.338Z</time></trkpt><trkpt lat="43.3299683" lon="10.697415"><ele>45.0</ele><time>2026-04-06T07:58:40.338Z</time></trkpt><trkpt lat="43.3300117" lon="10.6972483"><ele>44.0</ele><time>2026-04-06T07:58:41.34Z</time></trkpt><trkpt lat="43.3300517" lon="10.6970817"><ele>43.0</ele><time>2026-04-06T07:58:42.339Z</time></trkpt><trkpt lat="43.3300883" lon="10.6969183"><ele>43.0</ele><time>2026-04-06T07:58:43.335Z</time></trkpt><trkpt lat="43.33012" lon="10.6967517"><ele>43.0</ele><time>2026-04-06T07:58:44.34Z</time></trkpt><trkpt lat="43.3301483" lon="10.6965817"><ele>43.0</ele><time>2026-04-06T07:58:45.338Z</time></trkpt><trkpt lat="43.3301733" lon="10.69641"><ele>43.0</ele><time>2026-04-06T07:58:46.337Z</time></trkpt><trkpt lat="43.3301983" lon="10.6962383"><ele>43.25</ele><time>2026-04-06T07:58:47.342Z</time></trkpt><trkpt lat="43.3302183" lon="10.6960667"><ele>43.5</ele><time>2026-04-06T07:58:48.339Z</time></trkpt><trkpt lat="43.3302367" lon="10.6958917"><ele>43.75</ele><time>2026-04-06T07:58:49.339Z</time></trkpt><trkpt lat="43.3302567" lon="10.695715"><ele>44.0</ele><time>2026-04-06T07:58:50.338Z</time></trkpt><trkpt lat="43.3302767" lon="10.6955417"><ele>44.0</ele><time>2026-04-06T07:58:51.338Z</time></trkpt><trkpt lat="43.33029" lon="10.6953683"><ele>44.0</ele><time>2026-04-06T07:58:52.342Z</time></trkpt><trkpt lat="43.330305" lon="10.6951967"><ele>44.0</ele><time>2026-04-06T07:58:53.339Z</time></trkpt><trkpt lat="43.330315" lon="10.6950217"><ele>44.0</ele><time>2026-04-06T07:58:54.34Z</time></trkpt><trkpt lat="43.3303217" lon="10.694845"><ele>44.0</ele><time>2026-04-06T07:58:55.34Z</time></trkpt><trkpt lat="43.3303217" lon="10.6946683"><ele>44.0</ele><time>2026-04-06T07:58:56.342Z</time></trkpt><trkpt lat="43.330315" lon="10.6944883"><ele>44.0</ele><time>2026-04-06T07:58:57.336Z</time></trkpt><trkpt lat="43.3303033" lon="10.6943083"><ele>44.0</ele><time>2026-04-06T07:58:58.336Z</time></trkpt><trkpt lat="43.3302867" lon="10.694125"><ele>44.5</ele><time>2026-04-06T07:58:59.336Z</time></trkpt><trkpt lat="43.3302633" lon="10.6939383"><ele>45.0</ele><time>2026-04-06T07:59:00.337Z</time></trkpt><trkpt lat="43.3302333" lon="10.6937467"><ele>45.5</ele><time>2026-04-06T07:59:01.338Z</time></trkpt><trkpt lat="43.3302" lon="10.69355"><ele>46.0</ele><time>2026-04-06T07:59:02.34Z</time></trkpt><trkpt lat="43.3301617" lon="10.6933517"><ele>46.0</ele><time>2026-04-06T07:59:03.339Z</time></trkpt><trkpt lat="43.330125" lon="10.69315"><ele>46.0</ele><time>2026-04-06T07:59:04.338Z</time></trkpt><trkpt lat="43.3300883" lon="10.6929383"><ele>46.0</ele><time>2026-04-06T07:59:05.338Z</time></trkpt><trkpt lat="43.33005" lon="10.692715"><ele>46.0</ele><time>2026-04-06T07:59:06.338Z</time></trkpt><trkpt lat="43.3300033" lon="10.6924833"><ele>46.0</ele><time>2026-04-06T07:59:07.341Z</time></trkpt><trkpt lat="43.3299517" lon="10.6922433"><ele>46.0</ele><time>2026-04-06T07:59:08.339Z</time></trkpt><trkpt lat="43.32989" lon="10.6919883"><ele>44.66666666666667</ele><time>2026-04-06T07:59:09.342Z</time></trkpt><trkpt lat="43.3298233" lon="10.69173"><ele>43.333333333333336</ele><time>2026-04-06T07:59:10.339Z</time></trkpt><trkpt lat="43.3297467" lon="10.6914767"><ele>42.0</ele><time>2026-04-06T07:59:11.338Z</time></trkpt><trkpt lat="43.329665" lon="10.6912283"><ele>41.666666666666664</ele><time>2026-04-06T07:59:12.339Z</time></trkpt><trkpt lat="43.3295783" lon="10.69099"><ele>41.33333333333333</ele><time>2026-04-06T07:59:13.337Z</time></trkpt><trkpt lat="43.32949" lon="10.6907583"><ele>41.0</ele><time>2026-04-06T07:59:14.339Z</time></trkpt><trkpt lat="43.3294017" lon="10.6905383"><ele>41.0</ele><time>2026-04-06T07:59:15.338Z</time></trkpt><trkpt lat="43.3293167" lon="10.690325"><ele>41.0</ele><time>2026-04-06T07:59:16.339Z</time></trkpt><trkpt lat="43.329235" lon="10.690115"><ele>41.0</ele><time>2026-04-06T07:59:17.338Z</time></trkpt><trkpt lat="43.3291567" lon="10.68991"><ele>41.33333333333333</ele><time>2026-04-06T07:59:18.341Z</time></trkpt><trkpt lat="43.3290783" lon="10.6897133"><ele>41.666666666666664</ele><time>2026-04-06T07:59:19.34Z</time></trkpt><trkpt lat="43.3290017" lon="10.6895217"><ele>42.0</ele><time>2026-04-06T07:59:20.341Z</time></trkpt><trkpt lat="43.3289283" lon="10.6893367"><ele>41.666666666666664</ele><time>2026-04-06T07:59:21.339Z</time></trkpt><trkpt lat="43.3288567" lon="10.6891567"><ele>41.33333333333333</ele><time>2026-04-06T07:59:22.338Z</time></trkpt><trkpt lat="43.32873" lon="10.6888067"><ele>41.0</ele><time>2026-04-06T07:59:24.341Z</time></trkpt><trkpt lat="43.3286733" lon="10.688635"><ele>41.5</ele><time>2026-04-06T07:59:25.339Z</time></trkpt><trkpt lat="43.3286233" lon="10.6884633"><ele>42.0</ele><time>2026-04-06T07:59:26.34Z</time></trkpt><trkpt lat="43.3285733" lon="10.6882933"><ele>42.5</ele><time>2026-04-06T07:59:27.341Z</time></trkpt><trkpt lat="43.3285283" lon="10.6881217"><ele>43.0</ele><time>2026-04-06T07:59:28.343Z</time></trkpt><trkpt lat="43.3284867" lon="10.68795"><ele>43.0</ele><time>2026-04-06T07:59:29.339Z</time></trkpt><trkpt lat="43.3284517" lon="10.687775"><ele>43.0</ele><time>2026-04-06T07:59:30.339Z</time></trkpt><trkpt lat="43.3284233" lon="10.6876"><ele>43.0</ele><time>2026-04-06T07:59:31.337Z</time></trkpt><trkpt lat="43.3284017" lon="10.687425"><ele>43.0</ele><time>2026-04-06T07:59:32.34Z</time></trkpt><trkpt lat="43.328385" lon="10.68725"><ele>43.25</ele><time>2026-04-06T07:59:33.336Z</time></trkpt><trkpt lat="43.3283733" lon="10.687075"><ele>43.5</ele><time>2026-04-06T07:59:34.337Z</time></trkpt><trkpt lat="43.3283667" lon="10.6869033"><ele>43.75</ele><time>2026-04-06T07:59:35.339Z</time></trkpt><trkpt lat="43.328365" lon="10.686735"><ele>44.0</ele><time>2026-04-06T07:59:36.34Z</time></trkpt><trkpt lat="43.3283683" lon="10.6865617"><ele>44.25</ele><time>2026-04-06T07:59:37.339Z</time></trkpt><trkpt lat="43.3283767" lon="10.6863867"><ele>44.5</ele><time>2026-04-06T07:59:38.343Z</time></trkpt><trkpt lat="43.3283883" lon="10.6862117"><ele>44.75</ele><time>2026-04-06T07:59:39.339Z</time></trkpt><trkpt lat="43.3284067" lon="10.686045"><ele>45.0</ele><time>2026-04-06T07:59:40.34Z</time></trkpt><trkpt lat="43.32843" lon="10.685875"><ele>45.0</ele><time>2026-04-06T07:59:41.339Z</time></trkpt><trkpt lat="43.3284583" lon="10.6857033"><ele>45.0</ele><time>2026-04-06T07:59:42.338Z</time></trkpt><trkpt lat="43.328495" lon="10.6855317"><ele>45.0</ele><time>2026-04-06T07:59:43.341Z</time></trkpt><trkpt lat="43.3285367" lon="10.6853583"><ele>45.0</ele><time>2026-04-06T07:59:44.338Z</time></trkpt><trkpt lat="43.3285783" lon="10.6851817"><ele>44.75</ele><time>2026-04-06T07:59:45.337Z</time></trkpt><trkpt lat="43.32862" lon="10.6850017"><ele>44.5</ele><time>2026-04-06T07:59:46.341Z</time></trkpt><trkpt lat="43.3286633" lon="10.68482"><ele>44.25</ele><time>2026-04-06T07:59:47.338Z</time></trkpt><trkpt lat="43.328705" lon="10.68464"><ele>44.0</ele><time>2026-04-06T07:59:48.337Z</time></trkpt><trkpt lat="43.3287483" lon="10.68446"><ele>44.0</ele><time>2026-04-06T07:59:49.339Z</time></trkpt><trkpt lat="43.328795" lon="10.6842883"><ele>44.0</ele><time>2026-04-06T07:59:50.343Z</time></trkpt><trkpt lat="43.3288433" lon="10.68412"><ele>44.0</ele><time>2026-04-06T07:59:51.337Z</time></trkpt><trkpt lat="43.3288917" lon="10.68395"><ele>44.0</ele><time>2026-04-06T07:59:52.338Z</time></trkpt><trkpt lat="43.3289383" lon="10.6837783"><ele>44.0</ele><time>2026-04-06T07:59:53.338Z</time></trkpt><trkpt lat="43.3289833" lon="10.6836033"><ele>44.0</ele><time>2026-04-06T07:59:54.34Z</time></trkpt><trkpt lat="43.329025" lon="10.6834233"><ele>44.0</ele><time>2026-04-06T07:59:55.336Z</time></trkpt><trkpt lat="43.3290667" lon="10.6832483"><ele>44.0</ele><time>2026-04-06T07:59:56.34Z</time></trkpt><trkpt lat="43.32911" lon="10.6830717"><ele>43.5</ele><time>2026-04-06T07:59:57.336Z</time></trkpt><trkpt lat="43.32915" lon="10.682895"><ele>43.0</ele><time>2026-04-06T07:59:58.341Z</time></trkpt><trkpt lat="43.32919" lon="10.6827183"><ele>42.5</ele><time>2026-04-06T07:59:59.34Z</time></trkpt><trkpt lat="43.3292283" lon="10.68254"><ele>42.0</ele><time>2026-04-06T08:00:00.341Z</time></trkpt><trkpt lat="43.329265" lon="10.6823617"><ele>41.5</ele><time>2026-04-06T08:00:01.34Z</time></trkpt><trkpt lat="43.3292983" lon="10.68218"><ele>41.0</ele><time>2026-04-06T08:00:02.338Z</time></trkpt><trkpt lat="43.32933" lon="10.6820017"><ele>40.5</ele><time>2026-04-06T08:00:03.338Z</time></trkpt><trkpt lat="43.3293633" lon="10.6818233"><ele>40.0</ele><time>2026-04-06T08:00:04.338Z</time></trkpt><trkpt lat="43.329395" lon="10.681645"><ele>39.5</ele><time>2026-04-06T08:00:05.341Z</time></trkpt><trkpt lat="43.3294267" lon="10.6814667"><ele>39.0</ele><time>2026-04-06T08:00:06.343Z</time></trkpt><trkpt lat="43.3294583" lon="10.6812883"><ele>38.5</ele><time>2026-04-06T08:00:07.34Z</time></trkpt><trkpt lat="43.32949" lon="10.68111"><ele>38.0</ele><time>2026-04-06T08:00:08.339Z</time></trkpt><trkpt lat="43.3295183" lon="10.6809317"><ele>38.0</ele><time>2026-04-06T08:00:09.34Z</time></trkpt><trkpt lat="43.329545" lon="10.6807517"><ele>38.0</ele><time>2026-04-06T08:00:10.338Z</time></trkpt><trkpt lat="43.3295717" lon="10.6805733"><ele>38.0</ele><time>2026-04-06T08:00:11.348Z</time></trkpt><trkpt lat="43.3295983" lon="10.680395"><ele>38.0</ele><time>2026-04-06T08:00:12.34Z</time></trkpt><trkpt lat="43.32962" lon="10.680215"><ele>38.25</ele><time>2026-04-06T08:00:13.339Z</time></trkpt><trkpt lat="43.3296433" lon="10.6800367"><ele>38.5</ele><time>2026-04-06T08:00:14.339Z</time></trkpt><trkpt lat="43.3296667" lon="10.67986"><ele>38.75</ele><time>2026-04-06T08:00:15.339Z</time></trkpt><trkpt lat="43.3296867" lon="10.67968"><ele>39.0</ele><time>2026-04-06T08:00:16.337Z</time></trkpt><trkpt lat="43.3297033" lon="10.6794983"><ele>38.75</ele><time>2026-04-06T08:00:17.338Z</time></trkpt><trkpt lat="43.3297167" lon="10.6793167"><ele>38.5</ele><time>2026-04-06T08:00:18.338Z</time></trkpt><trkpt lat="43.3297317" lon="10.6791433"><ele>38.25</ele><time>2026-04-06T08:00:19.34Z</time></trkpt><trkpt lat="43.329745" lon="10.678975"><ele>38.0</ele><time>2026-04-06T08:00:20.341Z</time></trkpt><trkpt lat="43.3297567" lon="10.6788083"><ele>40.5</ele><time>2026-04-06T08:00:21.339Z</time></trkpt><trkpt lat="43.32977" lon="10.67864"><ele>43.0</ele><time>2026-04-06T08:00:22.335Z</time></trkpt><trkpt lat="43.3297833" lon="10.6784683"><ele>45.5</ele><time>2026-04-06T08:00:23.34Z</time></trkpt><trkpt lat="43.3297917" lon="10.678295"><ele>48.0</ele><time>2026-04-06T08:00:24.337Z</time></trkpt><trkpt lat="43.3298017" lon="10.6781217"><ele>48.25</ele><time>2026-04-06T08:00:25.337Z</time></trkpt><trkpt lat="43.32981" lon="10.6779467"><ele>48.5</ele><time>2026-04-06T08:00:26.339Z</time></trkpt><trkpt lat="43.3298167" lon="10.6777667"><ele>48.75</ele><time>2026-04-06T08:00:27.338Z</time></trkpt><trkpt lat="43.3298233" lon="10.6775867"><ele>49.0</ele><time>2026-04-06T08:00:28.341Z</time></trkpt><trkpt lat="43.3298317" lon="10.677405"><ele>47.0</ele><time>2026-04-06T08:00:29.34Z</time></trkpt><trkpt lat="43.3298383" lon="10.6772217"><ele>45.0</ele><time>2026-04-06T08:00:30.341Z</time></trkpt><trkpt lat="43.3298433" lon="10.677035"><ele>43.0</ele><time>2026-04-06T08:00:31.34Z</time></trkpt><trkpt lat="43.3298467" lon="10.6768517"><ele>41.0</ele><time>2026-04-06T08:00:32.339Z</time></trkpt><trkpt lat="43.329845" lon="10.6764883"><ele>40.25</ele><time>2026-04-06T08:00:34.338Z</time></trkpt><trkpt lat="43.3298433" lon="10.6763067"><ele>39.5</ele><time>2026-04-06T08:00:35.339Z</time></trkpt><trkpt lat="43.3298417" lon="10.67612"><ele>38.75</ele><time>2026-04-06T08:00:36.341Z</time></trkpt><trkpt lat="43.32984" lon="10.6759333"><ele>38.0</ele><time>2026-04-06T08:00:37.339Z</time></trkpt><trkpt lat="43.3298367" lon="10.6757467"><ele>38.0</ele><time>2026-04-06T08:00:38.335Z</time></trkpt><trkpt lat="43.3298317" lon="10.67556"><ele>38.0</ele><time>2026-04-06T08:00:39.335Z</time></trkpt><trkpt lat="43.3298267" lon="10.6753767"><ele>38.0</ele><time>2026-04-06T08:00:40.336Z</time></trkpt><trkpt lat="43.3298217" lon="10.67519"><ele>38.0</ele><time>2026-04-06T08:00:41.336Z</time></trkpt><trkpt lat="43.3298133" lon="10.67501"><ele>38.0</ele><time>2026-04-06T08:00:42.339Z</time></trkpt><trkpt lat="43.329805" lon="10.6748317"><ele>38.0</ele><time>2026-04-06T08:00:43.342Z</time></trkpt><trkpt lat="43.329795" lon="10.674655"><ele>38.0</ele><time>2026-04-06T08:00:44.342Z</time></trkpt><trkpt lat="43.329785" lon="10.6744833"><ele>38.0</ele><time>2026-04-06T08:00:45.345Z</time></trkpt><trkpt lat="43.3297733" lon="10.67432"><ele>38.0</ele><time>2026-04-06T08:00:46.335Z</time></trkpt><trkpt lat="43.3297633" lon="10.674165"><ele>38.0</ele><time>2026-04-06T08:00:47.339Z</time></trkpt><trkpt lat="43.3297533" lon="10.67402"><ele>38.0</ele><time>2026-04-06T08:00:48.338Z</time></trkpt><trkpt lat="43.3297433" lon="10.67388"><ele>38.0</ele><time>2026-04-06T08:00:49.338Z</time></trkpt><trkpt lat="43.3297283" lon="10.673745"><ele>38.0</ele><time>2026-04-06T08:00:50.338Z</time></trkpt><trkpt lat="43.3297167" lon="10.6736133"><ele>37.83333333333333</ele><time>2026-04-06T08:00:51.337Z</time></trkpt><trkpt lat="43.3297067" lon="10.6734833"><ele>37.666666666666664</ele><time>2026-04-06T08:00:52.336Z</time></trkpt><trkpt lat="43.329695" lon="10.6733567"><ele>37.5</ele><time>2026-04-06T08:00:53.337Z</time></trkpt><trkpt lat="43.3296833" lon="10.67324"><ele>37.333333333333336</ele><time>2026-04-06T08:00:54.337Z</time></trkpt><trkpt lat="43.329675" lon="10.6731317"><ele>37.16666666666667</ele><time>2026-04-06T08:00:55.338Z</time></trkpt><trkpt lat="43.329665" lon="10.6730233"><ele>37.0</ele><time>2026-04-06T08:00:56.34Z</time></trkpt><trkpt lat="43.329655" lon="10.67292"><ele>37.0</ele><time>2026-04-06T08:00:57.339Z</time></trkpt><trkpt lat="43.329645" lon="10.6728217"><ele>37.0</ele><time>2026-04-06T08:00:58.338Z</time></trkpt><trkpt lat="43.3296333" lon="10.672725"><ele>37.0</ele><time>2026-04-06T08:00:59.339Z</time></trkpt><trkpt lat="43.3296267" lon="10.6726333"><ele>37.0</ele><time>2026-04-06T08:01:00.338Z</time></trkpt><trkpt lat="43.329605" lon="10.6724783"><ele>37.0</ele><time>2026-04-06T08:01:02.339Z</time></trkpt><trkpt lat="43.3295883" lon="10.6723767"><ele>37.0</ele><time>2026-04-06T08:01:04.345Z</time></trkpt><trkpt lat="43.3295817" lon="10.67228"><ele>37.16666666666667</ele><time>2026-04-06T08:01:07.338Z</time></trkpt><trkpt lat="43.3295367" lon="10.67217"><ele>37.333333333333336</ele><time>2026-04-06T08:01:55.339Z</time></trkpt><trkpt lat="43.3295217" lon="10.6720433"><ele>37.5</ele><time>2026-04-06T08:01:57.333Z</time></trkpt><trkpt lat="43.3295" lon="10.6718967"><ele>37.666666666666664</ele><time>2026-04-06T08:01:59.334Z</time></trkpt><trkpt lat="43.3294867" lon="10.6718067"><ele>37.83333333333333</ele><time>2026-04-06T08:02:00.333Z</time></trkpt><trkpt lat="43.329475" lon="10.6717167"><ele>38.0</ele><time>2026-04-06T08:02:01.334Z</time></trkpt><trkpt lat="43.329465" lon="10.671625"><ele>38.0</ele><time>2026-04-06T08:02:02.335Z</time></trkpt><trkpt lat="43.3294517" lon="10.6715283"><ele>38.0</ele><time>2026-04-06T08:02:03.334Z</time></trkpt><trkpt lat="43.3294367" lon="10.6714267"><ele>38.0</ele><time>2026-04-06T08:02:04.334Z</time></trkpt><trkpt lat="43.3294217" lon="10.6713233"><ele>38.0</ele><time>2026-04-06T08:02:05.333Z</time></trkpt><trkpt lat="43.3294067" lon="10.67122"><ele>38.0</ele><time>2026-04-06T08:02:06.335Z</time></trkpt><trkpt lat="43.32939" lon="10.671115"><ele>38.0</ele><time>2026-04-06T08:02:07.335Z</time></trkpt><trkpt lat="43.3293733" lon="10.6710067"><ele>37.83333333333333</ele><time>2026-04-06T08:02:08.337Z</time></trkpt><trkpt lat="43.3293583" lon="10.6708967"><ele>37.666666666666664</ele><time>2026-04-06T08:02:09.333Z</time></trkpt><trkpt lat="43.3293467" lon="10.6707833"><ele>37.5</ele><time>2026-04-06T08:02:10.337Z</time></trkpt><trkpt lat="43.3293417" lon="10.67067"><ele>37.333333333333336</ele><time>2026-04-06T08:02:11.338Z</time></trkpt><trkpt lat="43.32934" lon="10.6705517"><ele>37.16666666666667</ele><time>2026-04-06T08:02:12.338Z</time></trkpt><trkpt lat="43.3293333" lon="10.6704283"><ele>37.0</ele><time>2026-04-06T08:02:13.34Z</time></trkpt><trkpt lat="43.3293133" lon="10.670305"><ele>36.6</ele><time>2026-04-06T08:02:14.337Z</time></trkpt><trkpt lat="43.3292817" lon="10.670185"><ele>36.2</ele><time>2026-04-06T08:02:15.332Z</time></trkpt><trkpt lat="43.3292467" lon="10.6700583"><ele>35.8</ele><time>2026-04-06T08:02:16.333Z</time></trkpt><trkpt lat="43.3292183" lon="10.669925"><ele>35.4</ele><time>2026-04-06T08:02:17.337Z</time></trkpt><trkpt lat="43.329195" lon="10.6697933"><ele>35.0</ele><time>2026-04-06T08:02:18.333Z</time></trkpt><trkpt lat="43.3291717" lon="10.6696583"><ele>35.0</ele><time>2026-04-06T08:02:19.333Z</time></trkpt><trkpt lat="43.32915" lon="10.6695283"><ele>35.0</ele><time>2026-04-06T08:02:20.334Z</time></trkpt><trkpt lat="43.3291283" lon="10.6693967"><ele>35.0</ele><time>2026-04-06T08:02:21.334Z</time></trkpt><trkpt lat="43.3291067" lon="10.6692617"><ele>35.0</ele><time>2026-04-06T08:02:22.332Z</time></trkpt><trkpt lat="43.329085" lon="10.6691233"><ele>35.0</ele><time>2026-04-06T08:02:23.332Z</time></trkpt><trkpt lat="43.32906" lon="10.6689783"><ele>34.8</ele><time>2026-04-06T08:02:24.334Z</time></trkpt><trkpt lat="43.3290367" lon="10.6688317"><ele>34.6</ele><time>2026-04-06T08:02:25.334Z</time></trkpt><trkpt lat="43.329015" lon="10.66868"><ele>34.4</ele><time>2026-04-06T08:02:26.335Z</time></trkpt><trkpt lat="43.3289917" lon="10.6685317"><ele>34.2</ele><time>2026-04-06T08:02:27.339Z</time></trkpt><trkpt lat="43.3289683" lon="10.668385"><ele>34.0</ele><time>2026-04-06T08:02:28.333Z</time></trkpt><trkpt lat="43.3289433" lon="10.6682383"><ele>34.4</ele><time>2026-04-06T08:02:29.333Z</time></trkpt><trkpt lat="43.3289217" lon="10.6680883"><ele>34.8</ele><time>2026-04-06T08:02:30.334Z</time></trkpt><trkpt lat="43.3289" lon="10.6679383"><ele>35.2</ele><time>2026-04-06T08:02:31.332Z</time></trkpt><trkpt lat="43.3288767" lon="10.66779"><ele>35.6</ele><time>2026-04-06T08:02:32.334Z</time></trkpt><trkpt lat="43.3288533" lon="10.66764"><ele>36.0</ele><time>2026-04-06T08:02:33.332Z</time></trkpt><trkpt lat="43.32883" lon="10.6674883"><ele>36.2</ele><time>2026-04-06T08:02:34.334Z</time></trkpt><trkpt lat="43.3288083" lon="10.667335"><ele>36.400000000000006</ele><time>2026-04-06T08:02:35.334Z</time></trkpt><trkpt lat="43.3287917" lon="10.6671883"><ele>36.6</ele><time>2026-04-06T08:02:36.348Z</time></trkpt><trkpt lat="43.328775" lon="10.6670517"><ele>36.800000000000004</ele><time>2026-04-06T08:02:37.333Z</time></trkpt><trkpt lat="43.328755" lon="10.6669167"><ele>37.0</ele><time>2026-04-06T08:02:38.335Z</time></trkpt><trkpt lat="43.3287317" lon="10.6667783"><ele>37.0</ele><time>2026-04-06T08:02:39.334Z</time></trkpt><trkpt lat="43.32871" lon="10.6666383"><ele>37.0</ele><time>2026-04-06T08:02:40.333Z</time></trkpt><trkpt lat="43.3286867" lon="10.6665"><ele>37.0</ele><time>2026-04-06T08:02:41.337Z</time></trkpt><trkpt lat="43.3286617" lon="10.6663583"><ele>37.0</ele><time>2026-04-06T08:02:42.334Z</time></trkpt><trkpt lat="43.3286417" lon="10.6662133"><ele>37.0</ele><time>2026-04-06T08:02:43.333Z</time></trkpt><trkpt lat="43.3286233" lon="10.6660717"><ele>37.2</ele><time>2026-04-06T08:02:44.338Z</time></trkpt><trkpt lat="43.328605" lon="10.665925"><ele>37.400000000000006</ele><time>2026-04-06T08:02:45.337Z</time></trkpt><trkpt lat="43.3285883" lon="10.6657767"><ele>37.599999999999994</ele><time>2026-04-06T08:02:46.333Z</time></trkpt><trkpt lat="43.328575" lon="10.6656267"><ele>37.8</ele><time>2026-04-06T08:02:47.335Z</time></trkpt><trkpt lat="43.3285617" lon="10.6654767"><ele>38.0</ele><time>2026-04-06T08:02:48.333Z</time></trkpt><trkpt lat="43.32855" lon="10.6653267"><ele>38.0</ele><time>2026-04-06T08:02:49.333Z</time></trkpt><trkpt lat="43.3285367" lon="10.665175"><ele>38.0</ele><time>2026-04-06T08:02:50.336Z</time></trkpt><trkpt lat="43.328525" lon="10.6650183"><ele>38.0</ele><time>2026-04-06T08:02:51.332Z</time></trkpt><trkpt lat="43.3285167" lon="10.6648617"><ele>38.0</ele><time>2026-04-06T08:02:52.338Z</time></trkpt><trkpt lat="43.32851" lon="10.6647033"><ele>38.0</ele><time>2026-04-06T08:02:53.333Z</time></trkpt><trkpt lat="43.3285033" lon="10.664545"><ele>38.0</ele><time>2026-04-06T08:02:54.332Z</time></trkpt><trkpt lat="43.3284967" lon="10.6643867"><ele>38.0</ele><time>2026-04-06T08:02:55.332Z</time></trkpt><trkpt lat="43.3284933" lon="10.664225"><ele>38.0</ele><time>2026-04-06T08:02:56.336Z</time></trkpt><trkpt lat="43.3284917" lon="10.6640617"><ele>37.25</ele><time>2026-04-06T08:02:57.334Z</time></trkpt><trkpt lat="43.3285017" lon="10.6639017"><ele>36.5</ele><time>2026-04-06T08:02:58.338Z</time></trkpt><trkpt lat="43.328525" lon="10.6637417"><ele>35.75</ele><time>2026-04-06T08:02:59.334Z</time></trkpt><trkpt lat="43.32856" lon="10.663585"><ele>35.0</ele><time>2026-04-06T08:03:00.332Z</time></trkpt><trkpt lat="43.3286067" lon="10.66343"><ele>35.0</ele><time>2026-04-06T08:03:01.334Z</time></trkpt><trkpt lat="43.3286633" lon="10.6632833"><ele>35.0</ele><time>2026-04-06T08:03:02.332Z</time></trkpt><trkpt lat="43.32873" lon="10.6631433"><ele>35.0</ele><time>2026-04-06T08:03:03.334Z</time></trkpt><trkpt lat="43.3288017" lon="10.6630167"><ele>35.0</ele><time>2026-04-06T08:03:04.333Z</time></trkpt><trkpt lat="43.3288783" lon="10.6628983"><ele>35.0</ele><time>2026-04-06T08:03:05.333Z</time></trkpt><trkpt lat="43.3289633" lon="10.6627917"><ele>35.0</ele><time>2026-04-06T08:03:06.333Z</time></trkpt><trkpt lat="43.329055" lon="10.662695"><ele>35.0</ele><time>2026-04-06T08:03:07.335Z</time></trkpt><trkpt lat="43.3291533" lon="10.6626083"><ele>35.0</ele><time>2026-04-06T08:03:08.337Z</time></trkpt><trkpt lat="43.3292533" lon="10.6625317"><ele>35.0</ele><time>2026-04-06T08:03:09.332Z</time></trkpt><trkpt lat="43.329355" lon="10.6624633"><ele>35.0</ele><time>2026-04-06T08:03:10.335Z</time></trkpt><trkpt lat="43.3294583" lon="10.6624067"><ele>35.0</ele><time>2026-04-06T08:03:11.334Z</time></trkpt><trkpt lat="43.3295633" lon="10.662355"><ele>35.0</ele><time>2026-04-06T08:03:12.335Z</time></trkpt><trkpt lat="43.3296717" lon="10.6623067"><ele>35.75</ele><time>2026-04-06T08:03:13.334Z</time></trkpt><trkpt lat="43.32978" lon="10.662255"><ele>36.5</ele><time>2026-04-06T08:03:14.339Z</time></trkpt><trkpt lat="43.3298867" lon="10.6622"><ele>37.25</ele><time>2026-04-06T08:03:15.335Z</time></trkpt><trkpt lat="43.33" lon="10.662145"><ele>38.0</ele><time>2026-04-06T08:03:16.334Z</time></trkpt><trkpt lat="43.330115" lon="10.66209"><ele>38.0</ele><time>2026-04-06T08:03:17.338Z</time></trkpt><trkpt lat="43.3302333" lon="10.662035"><ele>38.0</ele><time>2026-04-06T08:03:18.335Z</time></trkpt><trkpt lat="43.330355" lon="10.6619767"><ele>38.0</ele><time>2026-04-06T08:03:19.333Z</time></trkpt><trkpt lat="43.3304767" lon="10.6619167"><ele>38.0</ele><time>2026-04-06T08:03:20.335Z</time></trkpt><trkpt lat="43.3305967" lon="10.6618517"><ele>38.5</ele><time>2026-04-06T08:03:21.334Z</time></trkpt><trkpt lat="43.3307133" lon="10.6617833"><ele>39.0</ele><time>2026-04-06T08:03:22.337Z</time></trkpt><trkpt lat="43.3308233" lon="10.6617117"><ele>39.5</ele><time>2026-04-06T08:03:23.334Z</time></trkpt><trkpt lat="43.3309317" lon="10.6616367"><ele>40.0</ele><time>2026-04-06T08:03:24.333Z</time></trkpt><trkpt lat="43.331035" lon="10.661555"><ele>40.0</ele><time>2026-04-06T08:03:25.333Z</time></trkpt><trkpt lat="43.3311383" lon="10.6614683"><ele>40.0</ele><time>2026-04-06T08:03:26.335Z</time></trkpt><trkpt lat="43.33124" lon="10.6613833"><ele>40.0</ele><time>2026-04-06T08:03:27.334Z</time></trkpt><trkpt lat="43.3313417" lon="10.6612983"><ele>40.0</ele><time>2026-04-06T08:03:28.334Z</time></trkpt><trkpt lat="43.33144" lon="10.6612083"><ele>39.0</ele><time>2026-04-06T08:03:29.335Z</time></trkpt><trkpt lat="43.3315367" lon="10.6611133"><ele>38.0</ele><time>2026-04-06T08:03:30.335Z</time></trkpt><trkpt lat="43.33163" lon="10.661015"><ele>37.0</ele><time>2026-04-06T08:03:31.337Z</time></trkpt><trkpt lat="43.33172" lon="10.66091"><ele>36.0</ele><time>2026-04-06T08:03:32.337Z</time></trkpt><trkpt lat="43.3318067" lon="10.6608033"><ele>36.0</ele><time>2026-04-06T08:03:33.335Z</time></trkpt><trkpt lat="43.331895" lon="10.6606967"><ele>36.0</ele><time>2026-04-06T08:03:34.333Z</time></trkpt><trkpt lat="43.33198" lon="10.6605867"><ele>36.0</ele><time>2026-04-06T08:03:35.333Z</time></trkpt><trkpt lat="43.332065" lon="10.6604783"><ele>36.0</ele><time>2026-04-06T08:03:36.338Z</time></trkpt><trkpt lat="43.332145" lon="10.6603617"><ele>36.75</ele><time>2026-04-06T08:03:37.333Z</time></trkpt><trkpt lat="43.3322217" lon="10.6602433"><ele>37.5</ele><time>2026-04-06T08:03:38.332Z</time></trkpt><trkpt lat="43.3322967" lon="10.66012"><ele>38.25</ele><time>2026-04-06T08:03:39.333Z</time></trkpt><trkpt lat="43.332375" lon="10.66"><ele>39.0</ele><time>2026-04-06T08:03:40.333Z</time></trkpt><trkpt lat="43.33245" lon="10.6598767"><ele>39.0</ele><time>2026-04-06T08:03:41.336Z</time></trkpt><trkpt lat="43.3325217" lon="10.65975"><ele>39.0</ele><time>2026-04-06T08:03:42.333Z</time></trkpt><trkpt lat="43.3325933" lon="10.65962"><ele>39.0</ele><time>2026-04-06T08:03:43.338Z</time></trkpt><trkpt lat="43.3326633" lon="10.6594867"><ele>39.0</ele><time>2026-04-06T08:03:44.335Z</time></trkpt><trkpt lat="43.332735" lon="10.6593567"><ele>37.666666666666664</ele><time>2026-04-06T08:03:45.332Z</time></trkpt><trkpt lat="43.3328083" lon="10.6592267"><ele>36.33333333333333</ele><time>2026-04-06T08:03:46.333Z</time></trkpt><trkpt lat="43.332955" lon="10.6589717"><ele>35.0</ele><time>2026-04-06T08:03:48.335Z</time></trkpt><trkpt lat="43.3330283" lon="10.6588433"><ele>35.25</ele><time>2026-04-06T08:03:49.333Z</time></trkpt><trkpt lat="43.333105" lon="10.658715"><ele>35.5</ele><time>2026-04-06T08:03:50.336Z</time></trkpt><trkpt lat="43.33318" lon="10.6585833"><ele>35.75</ele><time>2026-04-06T08:03:51.338Z</time></trkpt><trkpt lat="43.333255" lon="10.65845"><ele>36.0</ele><time>2026-04-06T08:03:52.333Z</time></trkpt><trkpt lat="43.33333" lon="10.6583183"><ele>35.0</ele><time>2026-04-06T08:03:53.335Z</time></trkpt><trkpt lat="43.3334033" lon="10.6581867"><ele>34.0</ele><time>2026-04-06T08:03:54.334Z</time></trkpt><trkpt lat="43.3334733" lon="10.6580567"><ele>33.0</ele><time>2026-04-06T08:03:55.334Z</time></trkpt><trkpt lat="43.333545" lon="10.6579267"><ele>32.0</ele><time>2026-04-06T08:03:56.335Z</time></trkpt><trkpt lat="43.333615" lon="10.6577933"><ele>32.0</ele><time>2026-04-06T08:03:57.333Z</time></trkpt><trkpt lat="43.333685" lon="10.65766"><ele>32.0</ele><time>2026-04-06T08:03:58.334Z</time></trkpt><trkpt lat="43.3337567" lon="10.6575267"><ele>32.0</ele><time>2026-04-06T08:03:59.335Z</time></trkpt><trkpt lat="43.3338267" lon="10.657395"><ele>32.0</ele><time>2026-04-06T08:04:00.334Z</time></trkpt><trkpt lat="43.3338967" lon="10.6572633"><ele>32.25</ele><time>2026-04-06T08:04:01.334Z</time></trkpt><trkpt lat="43.3339667" lon="10.6571333"><ele>32.5</ele><time>2026-04-06T08:04:02.334Z</time></trkpt><trkpt lat="43.3340383" lon="10.657005"><ele>32.75</ele><time>2026-04-06T08:04:03.334Z</time></trkpt><trkpt lat="43.3341083" lon="10.6568767"><ele>33.0</ele><time>2026-04-06T08:04:04.334Z</time></trkpt><trkpt lat="43.3341783" lon="10.6567467"><ele>33.0</ele><time>2026-04-06T08:04:05.338Z</time></trkpt><trkpt lat="43.3342467" lon="10.6566167"><ele>33.0</ele><time>2026-04-06T08:04:06.336Z</time></trkpt><trkpt lat="43.334315" lon="10.6564883"><ele>33.0</ele><time>2026-04-06T08:04:07.336Z</time></trkpt><trkpt lat="43.334385" lon="10.6563583"><ele>33.0</ele><time>2026-04-06T08:04:08.335Z</time></trkpt><trkpt lat="43.334455" lon="10.6562283"><ele>32.5</ele><time>2026-04-06T08:04:09.336Z</time></trkpt><trkpt lat="43.3345233" lon="10.6560967"><ele>32.0</ele><time>2026-04-06T08:04:10.332Z</time></trkpt><trkpt lat="43.3345933" lon="10.6559667"><ele>31.5</ele><time>2026-04-06T08:04:11.333Z</time></trkpt><trkpt lat="43.3346633" lon="10.655835"><ele>31.0</ele><time>2026-04-06T08:04:12.334Z</time></trkpt><trkpt lat="43.3347333" lon="10.6557033"><ele>31.5</ele><time>2026-04-06T08:04:13.334Z</time></trkpt><trkpt lat="43.3348017" lon="10.65557"><ele>32.0</ele><time>2026-04-06T08:04:14.334Z</time></trkpt><trkpt lat="43.33487" lon="10.6554383"><ele>32.5</ele><time>2026-04-06T08:04:15.332Z</time></trkpt><trkpt lat="43.33494" lon="10.6553067"><ele>33.0</ele><time>2026-04-06T08:04:16.335Z</time></trkpt><trkpt lat="43.3350117" lon="10.6551767"><ele>33.0</ele><time>2026-04-06T08:04:17.333Z</time></trkpt><trkpt lat="43.3350833" lon="10.6550467"><ele>33.0</ele><time>2026-04-06T08:04:18.334Z</time></trkpt><trkpt lat="43.3351533" lon="10.654915"><ele>33.0</ele><time>2026-04-06T08:04:19.333Z</time></trkpt><trkpt lat="43.335225" lon="10.6547833"><ele>33.0</ele><time>2026-04-06T08:04:20.335Z</time></trkpt><trkpt lat="43.3352967" lon="10.65465"><ele>33.0</ele><time>2026-04-06T08:04:21.333Z</time></trkpt><trkpt lat="43.3353667" lon="10.65452"><ele>33.0</ele><time>2026-04-06T08:04:22.334Z</time></trkpt><trkpt lat="43.3354383" lon="10.654395"><ele>33.0</ele><time>2026-04-06T08:04:23.335Z</time></trkpt><trkpt lat="43.3355067" lon="10.6542733"><ele>33.0</ele><time>2026-04-06T08:04:24.334Z</time></trkpt><trkpt lat="43.3355733" lon="10.6541533"><ele>33.0</ele><time>2026-04-06T08:04:25.333Z</time></trkpt><trkpt lat="43.3356433" lon="10.6540367"><ele>33.0</ele><time>2026-04-06T08:04:26.333Z</time></trkpt><trkpt lat="43.3357133" lon="10.6539217"><ele>33.0</ele><time>2026-04-06T08:04:27.334Z</time></trkpt><trkpt lat="43.3357817" lon="10.6538083"><ele>33.0</ele><time>2026-04-06T08:04:28.332Z</time></trkpt><trkpt lat="43.3358467" lon="10.6537"><ele>33.0</ele><time>2026-04-06T08:04:29.335Z</time></trkpt><trkpt lat="43.3359083" lon="10.6535983"><ele>33.0</ele><time>2026-04-06T08:04:30.335Z</time></trkpt><trkpt lat="43.3359683" lon="10.6535"><ele>33.0</ele><time>2026-04-06T08:04:31.339Z</time></trkpt><trkpt lat="43.3360267" lon="10.6534067"><ele>33.0</ele><time>2026-04-06T08:04:32.334Z</time></trkpt><trkpt lat="43.3360817" lon="10.6533117"><ele>33.0</ele><time>2026-04-06T08:04:33.332Z</time></trkpt><trkpt lat="43.3361383" lon="10.65322"><ele>33.0</ele><time>2026-04-06T08:04:34.335Z</time></trkpt><trkpt lat="43.336195" lon="10.653135"><ele>33.0</ele><time>2026-04-06T08:04:35.333Z</time></trkpt><trkpt lat="43.3362533" lon="10.653065"><ele>33.0</ele><time>2026-04-06T08:04:36.333Z</time></trkpt><trkpt lat="43.3363167" lon="10.6530133"><ele>33.0</ele><time>2026-04-06T08:04:37.42Z</time></trkpt><trkpt lat="43.3363817" lon="10.65298"><ele>33.0</ele><time>2026-04-06T08:04:38.333Z</time></trkpt><trkpt lat="43.3364483" lon="10.6529483"><ele>33.0</ele><time>2026-04-06T08:04:39.332Z</time></trkpt><trkpt lat="43.3365083" lon="10.6529017"><ele>33.0</ele><time>2026-04-06T08:04:40.333Z</time></trkpt><trkpt lat="43.3365567" lon="10.6528317"><ele>33.0</ele><time>2026-04-06T08:04:41.332Z</time></trkpt><trkpt lat="43.3365917" lon="10.6527467"><ele>33.0</ele><time>2026-04-06T08:04:42.334Z</time></trkpt><trkpt lat="43.3366133" lon="10.6526467"><ele>33.0</ele><time>2026-04-06T08:04:43.338Z</time></trkpt><trkpt lat="43.3366333" lon="10.6525417"><ele>33.0</ele><time>2026-04-06T08:04:44.34Z</time></trkpt><trkpt lat="43.3366617" lon="10.6524333"><ele>33.0</ele><time>2026-04-06T08:04:45.335Z</time></trkpt><trkpt lat="43.336705" lon="10.65233"><ele>33.0</ele><time>2026-04-06T08:04:46.332Z</time></trkpt><trkpt lat="43.3367633" lon="10.6522367"><ele>33.0</ele><time>2026-04-06T08:04:47.333Z</time></trkpt><trkpt lat="43.3368283" lon="10.6521483"><ele>33.0</ele><time>2026-04-06T08:04:48.337Z</time></trkpt><trkpt lat="43.336895" lon="10.6520567"><ele>33.0</ele><time>2026-04-06T08:04:49.335Z</time></trkpt><trkpt lat="43.3369583" lon="10.6519617"><ele>33.0</ele><time>2026-04-06T08:04:50.336Z</time></trkpt><trkpt lat="43.3370217" lon="10.651865"><ele>33.0</ele><time>2026-04-06T08:04:51.337Z</time></trkpt><trkpt lat="43.3370867" lon="10.65177"><ele>33.0</ele><time>2026-04-06T08:04:52.333Z</time></trkpt><trkpt lat="43.337155" lon="10.6516733"><ele>33.0</ele><time>2026-04-06T08:04:53.34Z</time></trkpt><trkpt lat="43.3372267" lon="10.651575"><ele>32.8</ele><time>2026-04-06T08:04:54.333Z</time></trkpt><trkpt lat="43.3372983" lon="10.6514717"><ele>32.599999999999994</ele><time>2026-04-06T08:04:55.34Z</time></trkpt><trkpt lat="43.3373717" lon="10.651365"><ele>32.400000000000006</ele><time>2026-04-06T08:04:56.334Z</time></trkpt><trkpt lat="43.337445" lon="10.6512533"><ele>32.2</ele><time>2026-04-06T08:04:57.336Z</time></trkpt><trkpt lat="43.3375217" lon="10.6511367"><ele>32.0</ele><time>2026-04-06T08:04:58.335Z</time></trkpt><trkpt lat="43.3375983" lon="10.6510233"><ele>31.8</ele><time>2026-04-06T08:04:59.333Z</time></trkpt><trkpt lat="43.337675" lon="10.6509133"><ele>31.6</ele><time>2026-04-06T08:05:00.333Z</time></trkpt><trkpt lat="43.3377483" lon="10.650805"><ele>31.400000000000002</ele><time>2026-04-06T08:05:01.333Z</time></trkpt><trkpt lat="43.337825" lon="10.6506967"><ele>31.200000000000003</ele><time>2026-04-06T08:05:02.334Z</time></trkpt><trkpt lat="43.3378967" lon="10.650595"><ele>31.0</ele><time>2026-04-06T08:05:03.337Z</time></trkpt><trkpt lat="43.337965" lon="10.6504933"><ele>31.0</ele><time>2026-04-06T08:05:04.333Z</time></trkpt><trkpt lat="43.3380317" lon="10.6503867"><ele>31.0</ele><time>2026-04-06T08:05:05.333Z</time></trkpt><trkpt lat="43.3380967" lon="10.6502783"><ele>31.0</ele><time>2026-04-06T08:05:06.333Z</time></trkpt><trkpt lat="43.33816" lon="10.6501717"><ele>31.0</ele><time>2026-04-06T08:05:07.332Z</time></trkpt><trkpt lat="43.3382233" lon="10.650065"><ele>31.0</ele><time>2026-04-06T08:05:08.334Z</time></trkpt><trkpt lat="43.3382833" lon="10.6499533"><ele>31.200000000000003</ele><time>2026-04-06T08:05:09.334Z</time></trkpt><trkpt lat="43.33834" lon="10.649835"><ele>31.400000000000002</ele><time>2026-04-06T08:05:10.333Z</time></trkpt><trkpt lat="43.3383983" lon="10.649715"><ele>31.6</ele><time>2026-04-06T08:05:11.332Z</time></trkpt><trkpt lat="43.3384567" lon="10.6495933"><ele>31.8</ele><time>2026-04-06T08:05:12.334Z</time></trkpt><trkpt lat="43.3385117" lon="10.64947"><ele>32.0</ele><time>2026-04-06T08:05:13.333Z</time></trkpt><trkpt lat="43.3385667" lon="10.6493417"><ele>32.0</ele><time>2026-04-06T08:05:14.336Z</time></trkpt><trkpt lat="43.3386217" lon="10.6492133"><ele>32.0</ele><time>2026-04-06T08:05:15.332Z</time></trkpt><trkpt lat="43.3386767" lon="10.6490833"><ele>32.0</ele><time>2026-04-06T08:05:16.333Z</time></trkpt><trkpt lat="43.3387267" lon="10.6489517"><ele>32.0</ele><time>2026-04-06T08:05:17.335Z</time></trkpt><trkpt lat="43.338775" lon="10.648815"><ele>32.0</ele><time>2026-04-06T08:05:18.334Z</time></trkpt><trkpt lat="43.33882" lon="10.6486783"><ele>32.0</ele><time>2026-04-06T08:05:19.335Z</time></trkpt><trkpt lat="43.3388633" lon="10.6485383"><ele>32.0</ele><time>2026-04-06T08:05:20.335Z</time></trkpt><trkpt lat="43.338905" lon="10.6483967"><ele>32.0</ele><time>2026-04-06T08:05:21.334Z</time></trkpt><trkpt lat="43.338945" lon="10.648255"><ele>32.0</ele><time>2026-04-06T08:05:22.333Z</time></trkpt><trkpt lat="43.3389833" lon="10.6481133"><ele>32.0</ele><time>2026-04-06T08:05:23.333Z</time></trkpt><trkpt lat="43.33902" lon="10.64797"><ele>32.0</ele><time>2026-04-06T08:05:24.338Z</time></trkpt><trkpt lat="43.3390567" lon="10.647825"><ele>32.0</ele><time>2026-04-06T08:05:25.333Z</time></trkpt><trkpt lat="43.3390917" lon="10.6476817"><ele>32.0</ele><time>2026-04-06T08:05:26.333Z</time></trkpt><trkpt lat="43.3391267" lon="10.6475383"><ele>32.0</ele><time>2026-04-06T08:05:27.332Z</time></trkpt><trkpt lat="43.3391583" lon="10.6473933"><ele>32.0</ele><time>2026-04-06T08:05:28.334Z</time></trkpt><trkpt lat="43.33919" lon="10.6472483"><ele>32.0</ele><time>2026-04-06T08:05:29.336Z</time></trkpt><trkpt lat="43.33922" lon="10.6471017"><ele>32.0</ele><time>2026-04-06T08:05:30.333Z</time></trkpt><trkpt lat="43.3392533" lon="10.6469567"><ele>32.0</ele><time>2026-04-06T08:05:31.335Z</time></trkpt><trkpt lat="43.339285" lon="10.6468117"><ele>32.0</ele><time>2026-04-06T08:05:32.332Z</time></trkpt><trkpt lat="43.3393183" lon="10.646665"><ele>32.0</ele><time>2026-04-06T08:05:33.333Z</time></trkpt><trkpt lat="43.3393517" lon="10.6465217"><ele>32.0</ele><time>2026-04-06T08:05:34.334Z</time></trkpt><trkpt lat="43.339385" lon="10.6463817"><ele>32.0</ele><time>2026-04-06T08:05:35.333Z</time></trkpt><trkpt lat="43.3394167" lon="10.6462417"><ele>32.0</ele><time>2026-04-06T08:05:36.333Z</time></trkpt><trkpt lat="43.33945" lon="10.6461"><ele>32.0</ele><time>2026-04-06T08:05:37.333Z</time></trkpt><trkpt lat="43.3394833" lon="10.645955"><ele>32.0</ele><time>2026-04-06T08:05:38.333Z</time></trkpt><trkpt lat="43.3395183" lon="10.6458117"><ele>31.8</ele><time>2026-04-06T08:05:39.333Z</time></trkpt><trkpt lat="43.3395517" lon="10.6456683"><ele>31.6</ele><time>2026-04-06T08:05:40.334Z</time></trkpt><trkpt lat="43.3395833" lon="10.6455267"><ele>31.400000000000002</ele><time>2026-04-06T08:05:41.335Z</time></trkpt><trkpt lat="43.3396167" lon="10.6453833"><ele>31.200000000000003</ele><time>2026-04-06T08:05:42.333Z</time></trkpt><trkpt lat="43.3396483" lon="10.6452367"><ele>31.0</ele><time>2026-04-06T08:05:43.336Z</time></trkpt><trkpt lat="43.33968" lon="10.6450833"><ele>31.0</ele><time>2026-04-06T08:05:44.335Z</time></trkpt><trkpt lat="43.33972" lon="10.6449283"><ele>31.0</ele><time>2026-04-06T08:05:45.334Z</time></trkpt><trkpt lat="43.3397617" lon="10.64477"><ele>31.0</ele><time>2026-04-06T08:05:46.346Z</time></trkpt><trkpt lat="43.3398017" lon="10.6446117"><ele>31.0</ele><time>2026-04-06T08:05:47.333Z</time></trkpt><trkpt lat="43.339845" lon="10.64445"><ele>31.25</ele><time>2026-04-06T08:05:48.334Z</time></trkpt><trkpt lat="43.3398933" lon="10.6442883"><ele>31.5</ele><time>2026-04-06T08:05:49.337Z</time></trkpt><trkpt lat="43.3399417" lon="10.6441267"><ele>31.75</ele><time>2026-04-06T08:05:50.336Z</time></trkpt><trkpt lat="43.339995" lon="10.6439667"><ele>32.0</ele><time>2026-04-06T08:05:51.333Z</time></trkpt><trkpt lat="43.340055" lon="10.6438167"><ele>32.0</ele><time>2026-04-06T08:05:52.333Z</time></trkpt><trkpt lat="43.3401167" lon="10.6436767"><ele>32.0</ele><time>2026-04-06T08:05:53.334Z</time></trkpt><trkpt lat="43.34018" lon="10.6435417"><ele>32.0</ele><time>2026-04-06T08:05:54.333Z</time></trkpt><trkpt lat="43.3402433" lon="10.6434083"><ele>32.0</ele><time>2026-04-06T08:05:55.333Z</time></trkpt><trkpt lat="43.3403117" lon="10.6432783"><ele>31.75</ele><time>2026-04-06T08:05:56.334Z</time></trkpt><trkpt lat="43.3403883" lon="10.643155"><ele>31.5</ele><time>2026-04-06T08:05:57.334Z</time></trkpt><trkpt lat="43.34047" lon="10.6430367"><ele>31.25</ele><time>2026-04-06T08:05:58.338Z</time></trkpt><trkpt lat="43.3405517" lon="10.642925"><ele>31.0</ele><time>2026-04-06T08:05:59.334Z</time></trkpt><trkpt lat="43.340635" lon="10.642815"><ele>30.75</ele><time>2026-04-06T08:06:00.333Z</time></trkpt><trkpt lat="43.34072" lon="10.6427067"><ele>30.5</ele><time>2026-04-06T08:06:01.334Z</time></trkpt><trkpt lat="43.3408067" lon="10.6425983"><ele>30.25</ele><time>2026-04-06T08:06:02.334Z</time></trkpt><trkpt lat="43.3408933" lon="10.64249"><ele>30.0</ele><time>2026-04-06T08:06:03.334Z</time></trkpt><trkpt lat="43.3409817" lon="10.64238"><ele>30.0</ele><time>2026-04-06T08:06:04.336Z</time></trkpt><trkpt lat="43.3410717" lon="10.6422683"><ele>30.0</ele><time>2026-04-06T08:06:05.333Z</time></trkpt><trkpt lat="43.3411617" lon="10.64216"><ele>30.0</ele><time>2026-04-06T08:06:06.333Z</time></trkpt><trkpt lat="43.3412533" lon="10.6420517"><ele>30.0</ele><time>2026-04-06T08:06:07.333Z</time></trkpt><trkpt lat="43.3413433" lon="10.6419433"><ele>31.0</ele><time>2026-04-06T08:06:08.334Z</time></trkpt><trkpt lat="43.3414333" lon="10.6418367"><ele>32.0</ele><time>2026-04-06T08:06:09.332Z</time></trkpt><trkpt lat="43.3415217" lon="10.64173"><ele>33.0</ele><time>2026-04-06T08:06:10.333Z</time></trkpt><trkpt lat="43.34161" lon="10.64162"><ele>34.0</ele><time>2026-04-06T08:06:11.333Z</time></trkpt><trkpt lat="43.3417033" lon="10.6415133"><ele>34.0</ele><time>2026-04-06T08:06:12.334Z</time></trkpt><trkpt lat="43.3417917" lon="10.64141"><ele>34.0</ele><time>2026-04-06T08:06:13.333Z</time></trkpt><trkpt lat="43.3418783" lon="10.6413"><ele>34.0</ele><time>2026-04-06T08:06:14.333Z</time></trkpt><trkpt lat="43.3419683" lon="10.6411917"><ele>34.0</ele><time>2026-04-06T08:06:15.333Z</time></trkpt><trkpt lat="43.3420583" lon="10.6410817"><ele>33.5</ele><time>2026-04-06T08:06:16.334Z</time></trkpt><trkpt lat="43.3421483" lon="10.640975"><ele>33.0</ele><time>2026-04-06T08:06:17.334Z</time></trkpt><trkpt lat="43.34224" lon="10.6408683"><ele>32.5</ele><time>2026-04-06T08:06:18.333Z</time></trkpt><trkpt lat="43.34233" lon="10.6407633"><ele>32.0</ele><time>2026-04-06T08:06:19.34Z</time></trkpt><trkpt lat="43.34242" lon="10.640655"><ele>32.25</ele><time>2026-04-06T08:06:20.333Z</time></trkpt><trkpt lat="43.3425067" lon="10.6405467"><ele>32.5</ele><time>2026-04-06T08:06:21.339Z</time></trkpt><trkpt lat="43.342595" lon="10.6404367"><ele>32.75</ele><time>2026-04-06T08:06:22.334Z</time></trkpt><trkpt lat="43.3426833" lon="10.6403283"><ele>33.0</ele><time>2026-04-06T08:06:23.334Z</time></trkpt><trkpt lat="43.3427717" lon="10.6402167"><ele>33.0</ele><time>2026-04-06T08:06:24.333Z</time></trkpt><trkpt lat="43.3428567" lon="10.6401017"><ele>33.0</ele><time>2026-04-06T08:06:25.333Z</time></trkpt><trkpt lat="43.3429417" lon="10.639985"><ele>33.0</ele><time>2026-04-06T08:06:26.335Z</time></trkpt><trkpt lat="43.3430267" lon="10.639865"><ele>33.0</ele><time>2026-04-06T08:06:27.332Z</time></trkpt><trkpt lat="43.3431083" lon="10.6397433"><ele>33.0</ele><time>2026-04-06T08:06:28.334Z</time></trkpt><trkpt lat="43.3431917" lon="10.6396183"><ele>33.0</ele><time>2026-04-06T08:06:29.335Z</time></trkpt><trkpt lat="43.343275" lon="10.6394933"><ele>33.0</ele><time>2026-04-06T08:06:30.333Z</time></trkpt><trkpt lat="43.3433583" lon="10.63937"><ele>33.0</ele><time>2026-04-06T08:06:31.333Z</time></trkpt><trkpt lat="43.3434383" lon="10.6392467"><ele>33.0</ele><time>2026-04-06T08:06:32.334Z</time></trkpt><trkpt lat="43.3435167" lon="10.6391233"><ele>33.0</ele><time>2026-04-06T08:06:33.333Z</time></trkpt><trkpt lat="43.3435917" lon="10.639"><ele>33.0</ele><time>2026-04-06T08:06:34.337Z</time></trkpt><trkpt lat="43.34366" lon="10.6388717"><ele>33.0</ele><time>2026-04-06T08:06:35.333Z</time></trkpt><trkpt lat="43.343725" lon="10.6387383"><ele>32.0</ele><time>2026-04-06T08:06:36.333Z</time></trkpt><trkpt lat="43.34379" lon="10.6386017"><ele>31.0</ele><time>2026-04-06T08:06:37.337Z</time></trkpt><trkpt lat="43.3438533" lon="10.6384633"><ele>30.0</ele><time>2026-04-06T08:06:38.333Z</time></trkpt><trkpt lat="43.3439133" lon="10.63832"><ele>29.0</ele><time>2026-04-06T08:06:39.334Z</time></trkpt><trkpt lat="43.343975" lon="10.6381717"><ele>30.0</ele><time>2026-04-06T08:06:40.337Z</time></trkpt><trkpt lat="43.34404" lon="10.638025"><ele>31.0</ele><time>2026-04-06T08:06:41.333Z</time></trkpt><trkpt lat="43.3441033" lon="10.6378767"><ele>32.0</ele><time>2026-04-06T08:06:42.333Z</time></trkpt><trkpt lat="43.3441683" lon="10.6377283"><ele>33.0</ele><time>2026-04-06T08:06:43.334Z</time></trkpt><trkpt lat="43.3442333" lon="10.6375783"><ele>33.0</ele><time>2026-04-06T08:06:44.335Z</time></trkpt><trkpt lat="43.3443017" lon="10.63744"><ele>33.0</ele><time>2026-04-06T08:06:45.333Z</time></trkpt><trkpt lat="43.3443667" lon="10.6373033"><ele>33.0</ele><time>2026-04-06T08:06:46.332Z</time></trkpt><trkpt lat="43.3444283" lon="10.637165"><ele>33.0</ele><time>2026-04-06T08:06:47.333Z</time></trkpt><trkpt lat="43.34449" lon="10.6370267"><ele>31.5</ele><time>2026-04-06T08:06:48.334Z</time></trkpt><trkpt lat="43.344555" lon="10.6368883"><ele>30.0</ele><time>2026-04-06T08:06:49.347Z</time></trkpt><trkpt lat="43.3446217" lon="10.6367517"><ele>28.5</ele><time>2026-04-06T08:06:50.333Z</time></trkpt><trkpt lat="43.3446933" lon="10.63662"><ele>27.0</ele><time>2026-04-06T08:06:51.334Z</time></trkpt><trkpt lat="43.3447633" lon="10.6364883"><ele>29.25</ele><time>2026-04-06T08:06:52.333Z</time></trkpt><trkpt lat="43.3448367" lon="10.6363533"><ele>31.5</ele><time>2026-04-06T08:06:53.333Z</time></trkpt><trkpt lat="43.3449117" lon="10.6362217"><ele>33.75</ele><time>2026-04-06T08:06:54.332Z</time></trkpt><trkpt lat="43.3449867" lon="10.6360917"><ele>36.0</ele><time>2026-04-06T08:06:55.333Z</time></trkpt><trkpt lat="43.34506" lon="10.6359567"><ele>36.0</ele><time>2026-04-06T08:06:56.336Z</time></trkpt><trkpt lat="43.345135" lon="10.6358233"><ele>36.0</ele><time>2026-04-06T08:06:57.334Z</time></trkpt><trkpt lat="43.3452117" lon="10.63569"><ele>36.0</ele><time>2026-04-06T08:06:58.333Z</time></trkpt><trkpt lat="43.3452883" lon="10.6355583"><ele>36.0</ele><time>2026-04-06T08:06:59.333Z</time></trkpt><trkpt lat="43.345365" lon="10.6354283"><ele>35.0</ele><time>2026-04-06T08:07:00.333Z</time></trkpt><trkpt lat="43.3454433" lon="10.6352933"><ele>34.0</ele><time>2026-04-06T08:07:01.339Z</time></trkpt><trkpt lat="43.3455217" lon="10.6351567"><ele>33.0</ele><time>2026-04-06T08:07:02.335Z</time></trkpt><trkpt lat="43.3455983" lon="10.63502"><ele>32.0</ele><time>2026-04-06T08:07:03.334Z</time></trkpt><trkpt lat="43.345675" lon="10.634885"><ele>31.5</ele><time>2026-04-06T08:07:04.333Z</time></trkpt><trkpt lat="43.345755" lon="10.6347517"><ele>31.0</ele><time>2026-04-06T08:07:05.333Z</time></trkpt><trkpt lat="43.345835" lon="10.63462"><ele>30.5</ele><time>2026-04-06T08:07:06.332Z</time></trkpt><trkpt lat="43.345915" lon="10.6344867"><ele>30.0</ele><time>2026-04-06T08:07:07.332Z</time></trkpt><trkpt lat="43.3459967" lon="10.6343533"><ele>30.0</ele><time>2026-04-06T08:07:08.344Z</time></trkpt><trkpt lat="43.3460783" lon="10.6342217"><ele>30.0</ele><time>2026-04-06T08:07:09.332Z</time></trkpt><trkpt lat="43.3461583" lon="10.6340917"><ele>30.0</ele><time>2026-04-06T08:07:10.333Z</time></trkpt><trkpt lat="43.34624" lon="10.6339617"><ele>30.0</ele><time>2026-04-06T08:07:11.332Z</time></trkpt><trkpt lat="43.3463183" lon="10.6338317"><ele>30.75</ele><time>2026-04-06T08:07:12.333Z</time></trkpt><trkpt lat="43.3463967" lon="10.633705"><ele>31.5</ele><time>2026-04-06T08:07:13.333Z</time></trkpt><trkpt lat="43.3464767" lon="10.6335783"><ele>32.25</ele><time>2026-04-06T08:07:14.334Z</time></trkpt><trkpt lat="43.3465567" lon="10.6334517"><ele>33.0</ele><time>2026-04-06T08:07:15.333Z</time></trkpt><trkpt lat="43.3466367" lon="10.6333233"><ele>33.0</ele><time>2026-04-06T08:07:16.334Z</time></trkpt><trkpt lat="43.3467183" lon="10.6331917"><ele>33.0</ele><time>2026-04-06T08:07:17.332Z</time></trkpt><trkpt lat="43.3468" lon="10.6330617"><ele>33.0</ele><time>2026-04-06T08:07:18.333Z</time></trkpt><trkpt lat="43.34688" lon="10.6329317"><ele>33.0</ele><time>2026-04-06T08:07:19.337Z</time></trkpt><trkpt lat="43.3469617" lon="10.6328017"><ele>33.5</ele><time>2026-04-06T08:07:20.332Z</time></trkpt><trkpt lat="43.3470433" lon="10.63267"><ele>34.0</ele><time>2026-04-06T08:07:21.334Z</time></trkpt><trkpt lat="43.347125" lon="10.6325383"><ele>34.5</ele><time>2026-04-06T08:07:22.333Z</time></trkpt><trkpt lat="43.347205" lon="10.632405"><ele>35.0</ele><time>2026-04-06T08:07:23.336Z</time></trkpt><trkpt lat="43.3472867" lon="10.632275"><ele>35.0</ele><time>2026-04-06T08:07:24.335Z</time></trkpt><trkpt lat="43.3473683" lon="10.6321467"><ele>35.0</ele><time>2026-04-06T08:07:25.333Z</time></trkpt><trkpt lat="43.3474517" lon="10.6320183"><ele>35.0</ele><time>2026-04-06T08:07:26.333Z</time></trkpt><trkpt lat="43.347535" lon="10.631895"><ele>35.0</ele><time>2026-04-06T08:07:27.333Z</time></trkpt><trkpt lat="43.347615" lon="10.6317717"><ele>34.25</ele><time>2026-04-06T08:07:28.334Z</time></trkpt><trkpt lat="43.3476917" lon="10.6316467"><ele>33.5</ele><time>2026-04-06T08:07:29.332Z</time></trkpt><trkpt lat="43.3477683" lon="10.6315217"><ele>32.75</ele><time>2026-04-06T08:07:30.333Z</time></trkpt><trkpt lat="43.3478433" lon="10.631395"><ele>32.0</ele><time>2026-04-06T08:07:31.333Z</time></trkpt><trkpt lat="43.3479183" lon="10.63127"><ele>32.0</ele><time>2026-04-06T08:07:32.335Z</time></trkpt><trkpt lat="43.3479967" lon="10.6311467"><ele>32.0</ele><time>2026-04-06T08:07:33.333Z</time></trkpt><trkpt lat="43.34807" lon="10.6310217"><ele>32.0</ele><time>2026-04-06T08:07:34.337Z</time></trkpt><trkpt lat="43.3481433" lon="10.6308967"><ele>32.0</ele><time>2026-04-06T08:07:35.334Z</time></trkpt><trkpt lat="43.348215" lon="10.63077"><ele>31.5</ele><time>2026-04-06T08:07:36.334Z</time></trkpt><trkpt lat="43.348285" lon="10.63064"><ele>31.0</ele><time>2026-04-06T08:07:37.334Z</time></trkpt><trkpt lat="43.3483567" lon="10.6305133"><ele>30.5</ele><time>2026-04-06T08:07:38.337Z</time></trkpt><trkpt lat="43.3484283" lon="10.6303833"><ele>30.0</ele><time>2026-04-06T08:07:39.333Z</time></trkpt><trkpt lat="43.3485017" lon="10.6302567"><ele>30.0</ele><time>2026-04-06T08:07:40.333Z</time></trkpt><trkpt lat="43.3485733" lon="10.630125"><ele>30.0</ele><time>2026-04-06T08:07:41.334Z</time></trkpt><trkpt lat="43.3486433" lon="10.6299933"><ele>30.0</ele><time>2026-04-06T08:07:42.333Z</time></trkpt><trkpt lat="43.348715" lon="10.6298633"><ele>30.0</ele><time>2026-04-06T08:07:43.335Z</time></trkpt><trkpt lat="43.348785" lon="10.6297317"><ele>30.0</ele><time>2026-04-06T08:07:44.335Z</time></trkpt><trkpt lat="43.3488567" lon="10.6296033"><ele>30.0</ele><time>2026-04-06T08:07:45.333Z</time></trkpt><trkpt lat="43.3489267" lon="10.6294717"><ele>30.0</ele><time>2026-04-06T08:07:46.334Z</time></trkpt><trkpt lat="43.3489967" lon="10.6293383"><ele>30.0</ele><time>2026-04-06T08:07:47.335Z</time></trkpt><trkpt lat="43.349065" lon="10.6292067"><ele>30.75</ele><time>2026-04-06T08:07:48.333Z</time></trkpt><trkpt lat="43.3491333" lon="10.6290767"><ele>31.5</ele><time>2026-04-06T08:07:49.333Z</time></trkpt><trkpt lat="43.3492" lon="10.62895"><ele>32.25</ele><time>2026-04-06T08:07:50.335Z</time></trkpt><trkpt lat="43.3492617" lon="10.6288233"><ele>33.0</ele><time>2026-04-06T08:07:51.335Z</time></trkpt><trkpt lat="43.349325" lon="10.6286983"><ele>33.199999999999996</ele><time>2026-04-06T08:07:52.337Z</time></trkpt><trkpt lat="43.349385" lon="10.6285733"><ele>33.4</ele><time>2026-04-06T08:07:53.333Z</time></trkpt><trkpt lat="43.349445" lon="10.6284517"><ele>33.599999999999994</ele><time>2026-04-06T08:07:54.334Z</time></trkpt><trkpt lat="43.3495033" lon="10.6283333"><ele>33.8</ele><time>2026-04-06T08:07:55.338Z</time></trkpt><trkpt lat="43.3495583" lon="10.62822"><ele>34.0</ele><time>2026-04-06T08:07:56.337Z</time></trkpt><trkpt lat="43.3496133" lon="10.628105"><ele>34.0</ele><time>2026-04-06T08:07:57.332Z</time></trkpt><trkpt lat="43.349665" lon="10.6279867"><ele>34.0</ele><time>2026-04-06T08:07:58.333Z</time></trkpt><trkpt lat="43.34972" lon="10.62787"><ele>34.0</ele><time>2026-04-06T08:07:59.333Z</time></trkpt><trkpt lat="43.3497733" lon="10.6277517"><ele>34.0</ele><time>2026-04-06T08:08:00.333Z</time></trkpt><trkpt lat="43.3498267" lon="10.6276333"><ele>34.0</ele><time>2026-04-06T08:08:01.332Z</time></trkpt><trkpt lat="43.34988" lon="10.6275217"><ele>34.16666666666667</ele><time>2026-04-06T08:08:02.34Z</time></trkpt><trkpt lat="43.3499283" lon="10.6274167"><ele>34.333333333333336</ele><time>2026-04-06T08:08:03.332Z</time></trkpt><trkpt lat="43.3499733" lon="10.6273167"><ele>34.5</ele><time>2026-04-06T08:08:04.333Z</time></trkpt><trkpt lat="43.3500167" lon="10.6272233"><ele>34.666666666666664</ele><time>2026-04-06T08:08:05.335Z</time></trkpt><trkpt lat="43.3500583" lon="10.62714"><ele>34.83333333333333</ele><time>2026-04-06T08:08:06.336Z</time></trkpt><trkpt lat="43.3500933" lon="10.6270633"><ele>35.0</ele><time>2026-04-06T08:08:07.333Z</time></trkpt><trkpt lat="43.3501267" lon="10.6269883"><ele>35.0</ele><time>2026-04-06T08:08:08.336Z</time></trkpt><trkpt lat="43.3501917" lon="10.6268517"><ele>35.0</ele><time>2026-04-06T08:08:10.333Z</time></trkpt><trkpt lat="43.3502483" lon="10.6267267"><ele>35.0</ele><time>2026-04-06T08:08:12.339Z</time></trkpt><trkpt lat="43.35031" lon="10.6265983"><ele>35.0</ele><time>2026-04-06T08:08:14.335Z</time></trkpt><trkpt lat="43.3503967" lon="10.626515"><ele>35.0</ele><time>2026-04-06T08:08:16.333Z</time></trkpt><trkpt lat="43.3504833" lon="10.6264633"><ele>35.4</ele><time>2026-04-06T08:08:18.333Z</time></trkpt><trkpt lat="43.3505717" lon="10.6263883"><ele>35.8</ele><time>2026-04-06T08:08:20.333Z</time></trkpt><trkpt lat="43.35062" lon="10.62626"><ele>36.2</ele><time>2026-04-06T08:08:22.333Z</time></trkpt><trkpt lat="43.3506033" lon="10.6261217"><ele>36.6</ele><time>2026-04-06T08:08:24.333Z</time></trkpt><trkpt lat="43.35053" lon="10.6260183"><ele>37.0</ele><time>2026-04-06T08:08:26.334Z</time></trkpt><trkpt lat="43.3504133" lon="10.6259867"><ele>37.5</ele><time>2026-04-06T08:08:28.333Z</time></trkpt><trkpt lat="43.35034" lon="10.62599"><ele>38.0</ele><time>2026-04-06T08:08:29.332Z</time></trkpt><trkpt lat="43.3502583" lon="10.625985"><ele>38.5</ele><time>2026-04-06T08:08:30.334Z</time></trkpt><trkpt lat="43.3501767" lon="10.6259567"><ele>39.0</ele><time>2026-04-06T08:08:31.334Z</time></trkpt><trkpt lat="43.3501017" lon="10.6259117"><ele>39.5</ele><time>2026-04-06T08:08:32.338Z</time></trkpt><trkpt lat="43.3500267" lon="10.62586"><ele>40.0</ele><time>2026-04-06T08:08:33.333Z</time></trkpt><trkpt lat="43.3499483" lon="10.6258067"><ele>40.0</ele><time>2026-04-06T08:08:34.333Z</time></trkpt><trkpt lat="43.349865" lon="10.62575"><ele>40.0</ele><time>2026-04-06T08:08:35.332Z</time></trkpt><trkpt lat="43.349785" lon="10.6256933"><ele>40.0</ele><time>2026-04-06T08:08:36.333Z</time></trkpt><trkpt lat="43.3497083" lon="10.6256317"><ele>40.0</ele><time>2026-04-06T08:08:37.333Z</time></trkpt><trkpt lat="43.349635" lon="10.62557"><ele>40.0</ele><time>2026-04-06T08:08:38.337Z</time></trkpt><trkpt lat="43.34956" lon="10.625505"><ele>40.0</ele><time>2026-04-06T08:08:39.333Z</time></trkpt><trkpt lat="43.3494817" lon="10.6254417"><ele>39.4</ele><time>2026-04-06T08:08:40.333Z</time></trkpt><trkpt lat="43.3494017" lon="10.6253733"><ele>38.8</ele><time>2026-04-06T08:08:41.334Z</time></trkpt><trkpt lat="43.3493233" lon="10.6253"><ele>38.2</ele><time>2026-04-06T08:08:42.333Z</time></trkpt><trkpt lat="43.3492417" lon="10.6252267"><ele>37.6</ele><time>2026-04-06T08:08:43.332Z</time></trkpt><trkpt lat="43.34916" lon="10.6251483"><ele>37.0</ele><time>2026-04-06T08:08:44.334Z</time></trkpt><trkpt lat="43.34908" lon="10.6250667"><ele>37.0</ele><time>2026-04-06T08:08:45.333Z</time></trkpt><trkpt lat="43.3489983" lon="10.62498"><ele>37.0</ele><time>2026-04-06T08:08:46.333Z</time></trkpt><trkpt lat="43.3489167" lon="10.6248933"><ele>37.0</ele><time>2026-04-06T08:08:47.333Z</time></trkpt><trkpt lat="43.3488383" lon="10.6248033"><ele>37.0</ele><time>2026-04-06T08:08:48.332Z</time></trkpt><trkpt lat="43.34876" lon="10.62471"><ele>37.0</ele><time>2026-04-06T08:08:49.335Z</time></trkpt><trkpt lat="43.3486817" lon="10.6246167"><ele>36.2</ele><time>2026-04-06T08:08:50.334Z</time></trkpt><trkpt lat="43.3486033" lon="10.6245217"><ele>35.400000000000006</ele><time>2026-04-06T08:08:51.333Z</time></trkpt><trkpt lat="43.3485233" lon="10.6244267"><ele>34.599999999999994</ele><time>2026-04-06T08:08:52.337Z</time></trkpt><trkpt lat="43.348445" lon="10.62433"><ele>33.8</ele><time>2026-04-06T08:08:53.334Z</time></trkpt><trkpt lat="43.3483683" lon="10.62423"><ele>33.0</ele><time>2026-04-06T08:08:54.333Z</time></trkpt><trkpt lat="43.34829" lon="10.62413"><ele>33.0</ele><time>2026-04-06T08:08:55.333Z</time></trkpt><trkpt lat="43.3482117" lon="10.6240283"><ele>33.0</ele><time>2026-04-06T08:08:56.333Z</time></trkpt><trkpt lat="43.3481317" lon="10.62393"><ele>33.0</ele><time>2026-04-06T08:08:57.333Z</time></trkpt><trkpt lat="43.3480517" lon="10.6238283"><ele>33.0</ele><time>2026-04-06T08:08:58.332Z</time></trkpt><trkpt lat="43.3479733" lon="10.62373"><ele>33.0</ele><time>2026-04-06T08:08:59.332Z</time></trkpt><trkpt lat="43.347895" lon="10.62363"><ele>33.0</ele><time>2026-04-06T08:09:00.335Z</time></trkpt><trkpt lat="43.3478167" lon="10.62353"><ele>33.0</ele><time>2026-04-06T08:09:01.333Z</time></trkpt><trkpt lat="43.3477367" lon="10.6234317"><ele>33.0</ele><time>2026-04-06T08:09:02.333Z</time></trkpt><trkpt lat="43.3476617" lon="10.6233317"><ele>33.0</ele><time>2026-04-06T08:09:03.334Z</time></trkpt><trkpt lat="43.3475867" lon="10.62323"><ele>33.0</ele><time>2026-04-06T08:09:04.334Z</time></trkpt><trkpt lat="43.3475117" lon="10.6231267"><ele>33.0</ele><time>2026-04-06T08:09:05.335Z</time></trkpt><trkpt lat="43.3474333" lon="10.6230267"><ele>33.0</ele><time>2026-04-06T08:09:06.334Z</time></trkpt><trkpt lat="43.3473533" lon="10.6229283"><ele>33.0</ele><time>2026-04-06T08:09:07.333Z</time></trkpt><trkpt lat="43.3472717" lon="10.622825"><ele>33.0</ele><time>2026-04-06T08:09:08.334Z</time></trkpt><trkpt lat="43.3471933" lon="10.6227217"><ele>33.0</ele><time>2026-04-06T08:09:09.333Z</time></trkpt><trkpt lat="43.3471117" lon="10.62262"><ele>32.4</ele><time>2026-04-06T08:09:10.344Z</time></trkpt><trkpt lat="43.34703" lon="10.62252"><ele>31.799999999999997</ele><time>2026-04-06T08:09:11.334Z</time></trkpt><trkpt lat="43.34695" lon="10.6224183"><ele>31.2</ele><time>2026-04-06T08:09:12.334Z</time></trkpt><trkpt lat="43.34687" lon="10.6223117"><ele>30.6</ele><time>2026-04-06T08:09:13.333Z</time></trkpt><trkpt lat="43.3467917" lon="10.6222033"><ele>30.0</ele><time>2026-04-06T08:09:14.334Z</time></trkpt><trkpt lat="43.34671" lon="10.6220967"><ele>30.0</ele><time>2026-04-06T08:09:15.333Z</time></trkpt><trkpt lat="43.34663" lon="10.6219933"><ele>30.0</ele><time>2026-04-06T08:09:16.332Z</time></trkpt><trkpt lat="43.34655" lon="10.6218867"><ele>30.0</ele><time>2026-04-06T08:09:17.355Z</time></trkpt><trkpt lat="43.34647" lon="10.6217733"><ele>30.0</ele><time>2026-04-06T08:09:18.333Z</time></trkpt><trkpt lat="43.34639" lon="10.6216533"><ele>30.0</ele><time>2026-04-06T08:09:19.334Z</time></trkpt><trkpt lat="43.3463133" lon="10.6215283"><ele>30.0</ele><time>2026-04-06T08:09:20.337Z</time></trkpt><trkpt lat="43.34624" lon="10.621395"><ele>30.0</ele><time>2026-04-06T08:09:21.333Z</time></trkpt><trkpt lat="43.346175" lon="10.6212533"><ele>30.0</ele><time>2026-04-06T08:09:22.338Z</time></trkpt><trkpt lat="43.3461183" lon="10.6211067"><ele>30.0</ele><time>2026-04-06T08:09:23.333Z</time></trkpt><trkpt lat="43.34607" lon="10.6209583"><ele>30.0</ele><time>2026-04-06T08:09:24.334Z</time></trkpt><trkpt lat="43.3460217" lon="10.6208083"><ele>30.0</ele><time>2026-04-06T08:09:25.333Z</time></trkpt><trkpt lat="43.34598" lon="10.6206517"><ele>30.0</ele><time>2026-04-06T08:09:26.339Z</time></trkpt><trkpt lat="43.3459417" lon="10.6204933"><ele>30.0</ele><time>2026-04-06T08:09:27.333Z</time></trkpt><trkpt lat="43.34591" lon="10.6203333"><ele>30.0</ele><time>2026-04-06T08:09:28.333Z</time></trkpt><trkpt lat="43.3458833" lon="10.6201733"><ele>30.0</ele><time>2026-04-06T08:09:29.337Z</time></trkpt><trkpt lat="43.3458583" lon="10.6200083"><ele>30.0</ele><time>2026-04-06T08:09:30.332Z</time></trkpt><trkpt lat="43.3458383" lon="10.6198467"><ele>30.0</ele><time>2026-04-06T08:09:31.333Z</time></trkpt><trkpt lat="43.3458217" lon="10.6196867"><ele>30.0</ele><time>2026-04-06T08:09:32.337Z</time></trkpt><trkpt lat="43.345805" lon="10.6195233"><ele>30.0</ele><time>2026-04-06T08:09:33.334Z</time></trkpt><trkpt lat="43.345785" lon="10.619355"><ele>30.0</ele><time>2026-04-06T08:09:34.332Z</time></trkpt><trkpt lat="43.34577" lon="10.6191867"><ele>30.5</ele><time>2026-04-06T08:09:35.336Z</time></trkpt><trkpt lat="43.345755" lon="10.6190183"><ele>31.0</ele><time>2026-04-06T08:09:36.334Z</time></trkpt><trkpt lat="43.34574" lon="10.6188533"><ele>31.5</ele><time>2026-04-06T08:09:37.334Z</time></trkpt><trkpt lat="43.345725" lon="10.6186917"><ele>32.0</ele><time>2026-04-06T08:09:38.335Z</time></trkpt><trkpt lat="43.3457117" lon="10.6185267"><ele>33.0</ele><time>2026-04-06T08:09:39.333Z</time></trkpt><trkpt lat="43.3457" lon="10.618355"><ele>34.0</ele><time>2026-04-06T08:09:40.336Z</time></trkpt><trkpt lat="43.34569" lon="10.6181833"><ele>35.0</ele><time>2026-04-06T08:09:41.333Z</time></trkpt><trkpt lat="43.3456833" lon="10.6180083"><ele>36.0</ele><time>2026-04-06T08:09:42.334Z</time></trkpt><trkpt lat="43.3456867" lon="10.6178317"><ele>36.5</ele><time>2026-04-06T08:09:43.333Z</time></trkpt><trkpt lat="43.345695" lon="10.6176533"><ele>37.0</ele><time>2026-04-06T08:09:44.334Z</time></trkpt><trkpt lat="43.3457117" lon="10.6174717"><ele>37.5</ele><time>2026-04-06T08:09:45.333Z</time></trkpt><trkpt lat="43.3457367" lon="10.6172933"><ele>38.0</ele><time>2026-04-06T08:09:46.332Z</time></trkpt><trkpt lat="43.34577" lon="10.617115"><ele>36.5</ele><time>2026-04-06T08:09:47.335Z</time></trkpt><trkpt lat="43.34581" lon="10.6169417"><ele>35.0</ele><time>2026-04-06T08:09:48.345Z</time></trkpt><trkpt lat="43.345855" lon="10.6167667"><ele>33.5</ele><time>2026-04-06T08:09:49.334Z</time></trkpt><trkpt lat="43.3459017" lon="10.6165917"><ele>32.0</ele><time>2026-04-06T08:09:50.334Z</time></trkpt><trkpt lat="43.34595" lon="10.6164167"><ele>32.0</ele><time>2026-04-06T08:09:51.337Z</time></trkpt><trkpt lat="43.346" lon="10.6162383"><ele>32.0</ele><time>2026-04-06T08:09:52.333Z</time></trkpt><trkpt lat="43.34605" lon="10.61606"><ele>32.0</ele><time>2026-04-06T08:09:53.333Z</time></trkpt><trkpt lat="43.3461017" lon="10.6158817"><ele>32.0</ele><time>2026-04-06T08:09:54.334Z</time></trkpt><trkpt lat="43.346155" lon="10.615705"><ele>30.25</ele><time>2026-04-06T08:09:55.332Z</time></trkpt><trkpt lat="43.3462067" lon="10.6155333"><ele>28.5</ele><time>2026-04-06T08:09:56.332Z</time></trkpt><trkpt lat="43.3462583" lon="10.6153683"><ele>26.75</ele><time>2026-04-06T08:09:57.333Z</time></trkpt><trkpt lat="43.346305" lon="10.61521"><ele>25.0</ele><time>2026-04-06T08:09:58.333Z</time></trkpt><trkpt lat="43.3463533" lon="10.6150617"><ele>27.0</ele><time>2026-04-06T08:09:59.333Z</time></trkpt><trkpt lat="43.3463967" lon="10.6149117"><ele>29.0</ele><time>2026-04-06T08:10:00.333Z</time></trkpt><trkpt lat="43.3464383" lon="10.6147617"><ele>31.0</ele><time>2026-04-06T08:10:01.334Z</time></trkpt><trkpt lat="43.34648" lon="10.6146083"><ele>33.0</ele><time>2026-04-06T08:10:02.334Z</time></trkpt><trkpt lat="43.34652" lon="10.6144533"><ele>33.0</ele><time>2026-04-06T08:10:03.332Z</time></trkpt><trkpt lat="43.3465617" lon="10.614295"><ele>33.0</ele><time>2026-04-06T08:10:04.333Z</time></trkpt><trkpt lat="43.346605" lon="10.61413"><ele>33.0</ele><time>2026-04-06T08:10:05.338Z</time></trkpt><trkpt lat="43.3466467" lon="10.6139567"><ele>33.0</ele><time>2026-04-06T08:10:06.333Z</time></trkpt><trkpt lat="43.3466917" lon="10.6137817"><ele>32.0</ele><time>2026-04-06T08:10:07.333Z</time></trkpt><trkpt lat="43.34674" lon="10.6136033"><ele>31.0</ele><time>2026-04-06T08:10:08.333Z</time></trkpt><trkpt lat="43.3467917" lon="10.6134233"><ele>30.0</ele><time>2026-04-06T08:10:09.341Z</time></trkpt><trkpt lat="43.3468467" lon="10.6132517"><ele>29.0</ele><time>2026-04-06T08:10:10.332Z</time></trkpt><trkpt lat="43.3468983" lon="10.6130867"><ele>29.0</ele><time>2026-04-06T08:10:11.332Z</time></trkpt><trkpt lat="43.3469433" lon="10.612925"><ele>29.0</ele><time>2026-04-06T08:10:12.335Z</time></trkpt><trkpt lat="43.3469867" lon="10.61276"><ele>29.0</ele><time>2026-04-06T08:10:13.333Z</time></trkpt><trkpt lat="43.3470283" lon="10.6125967"><ele>29.0</ele><time>2026-04-06T08:10:14.333Z</time></trkpt><trkpt lat="43.3470733" lon="10.6124267"><ele>28.5</ele><time>2026-04-06T08:10:15.332Z</time></trkpt><trkpt lat="43.347115" lon="10.61226"><ele>28.0</ele><time>2026-04-06T08:10:16.339Z</time></trkpt><trkpt lat="43.347155" lon="10.6120967"><ele>27.5</ele><time>2026-04-06T08:10:17.333Z</time></trkpt><trkpt lat="43.3471917" lon="10.611935"><ele>27.0</ele><time>2026-04-06T08:10:18.335Z</time></trkpt><trkpt lat="43.3472267" lon="10.61177"><ele>28.5</ele><time>2026-04-06T08:10:19.334Z</time></trkpt><trkpt lat="43.3472583" lon="10.6116017"><ele>30.0</ele><time>2026-04-06T08:10:20.335Z</time></trkpt><trkpt lat="43.3472867" lon="10.61143"><ele>31.5</ele><time>2026-04-06T08:10:21.334Z</time></trkpt><trkpt lat="43.3473117" lon="10.6112567"><ele>33.0</ele><time>2026-04-06T08:10:22.333Z</time></trkpt><trkpt lat="43.3473317" lon="10.611085"><ele>33.0</ele><time>2026-04-06T08:10:23.333Z</time></trkpt><trkpt lat="43.347345" lon="10.610915"><ele>33.0</ele><time>2026-04-06T08:10:24.333Z</time></trkpt><trkpt lat="43.3473533" lon="10.610745"><ele>33.0</ele><time>2026-04-06T08:10:25.335Z</time></trkpt><trkpt lat="43.3473583" lon="10.610575"><ele>33.0</ele><time>2026-04-06T08:10:26.336Z</time></trkpt><trkpt lat="43.3473617" lon="10.6104033"><ele>32.25</ele><time>2026-04-06T08:10:27.334Z</time></trkpt><trkpt lat="43.34736" lon="10.6102317"><ele>31.5</ele><time>2026-04-06T08:10:28.332Z</time></trkpt><trkpt lat="43.3473533" lon="10.6100583"><ele>30.75</ele><time>2026-04-06T08:10:29.335Z</time></trkpt><trkpt lat="43.3473433" lon="10.6098883"><ele>30.0</ele><time>2026-04-06T08:10:30.332Z</time></trkpt><trkpt lat="43.3473333" lon="10.609715"><ele>30.0</ele><time>2026-04-06T08:10:31.333Z</time></trkpt><trkpt lat="43.34732" lon="10.6095367"><ele>30.0</ele><time>2026-04-06T08:10:32.333Z</time></trkpt><trkpt lat="43.347305" lon="10.6093583"><ele>30.0</ele><time>2026-04-06T08:10:33.334Z</time></trkpt><trkpt lat="43.34729" lon="10.6091817"><ele>30.0</ele><time>2026-04-06T08:10:34.336Z</time></trkpt><trkpt lat="43.3472783" lon="10.609005"><ele>30.5</ele><time>2026-04-06T08:10:35.333Z</time></trkpt><trkpt lat="43.3472667" lon="10.6088317"><ele>31.0</ele><time>2026-04-06T08:10:36.333Z</time></trkpt><trkpt lat="43.3472533" lon="10.6086583"><ele>31.5</ele><time>2026-04-06T08:10:37.336Z</time></trkpt><trkpt lat="43.34724" lon="10.6084817"><ele>32.0</ele><time>2026-04-06T08:10:38.333Z</time></trkpt><trkpt lat="43.347225" lon="10.608305"><ele>33.25</ele><time>2026-04-06T08:10:39.336Z</time></trkpt><trkpt lat="43.3472117" lon="10.6081283"><ele>34.5</ele><time>2026-04-06T08:10:40.335Z</time></trkpt><trkpt lat="43.347195" lon="10.6079483"><ele>35.75</ele><time>2026-04-06T08:10:41.333Z</time></trkpt><trkpt lat="43.3471767" lon="10.60777"><ele>37.0</ele><time>2026-04-06T08:10:42.334Z</time></trkpt><trkpt lat="43.3471583" lon="10.6075917"><ele>33.5</ele><time>2026-04-06T08:10:43.333Z</time></trkpt><trkpt lat="43.3471367" lon="10.6074167"><ele>30.0</ele><time>2026-04-06T08:10:44.334Z</time></trkpt><trkpt lat="43.3471133" lon="10.6072383"><ele>26.5</ele><time>2026-04-06T08:10:45.333Z</time></trkpt><trkpt lat="43.347085" lon="10.60706"><ele>23.0</ele><time>2026-04-06T08:10:46.332Z</time></trkpt><trkpt lat="43.3470483" lon="10.6068833"><ele>23.0</ele><time>2026-04-06T08:10:47.332Z</time></trkpt><trkpt lat="43.347005" lon="10.60671"><ele>23.0</ele><time>2026-04-06T08:10:48.333Z</time></trkpt><trkpt lat="43.3469567" lon="10.6065417"><ele>23.0</ele><time>2026-04-06T08:10:49.339Z</time></trkpt><trkpt lat="43.3469083" lon="10.6063733"><ele>23.0</ele><time>2026-04-06T08:10:50.335Z</time></trkpt><trkpt lat="43.3468567" lon="10.6062"><ele>24.0</ele><time>2026-04-06T08:10:51.334Z</time></trkpt><trkpt lat="43.3468067" lon="10.606025"><ele>25.0</ele><time>2026-04-06T08:10:52.333Z</time></trkpt><trkpt lat="43.346755" lon="10.6058517"><ele>26.0</ele><time>2026-04-06T08:10:53.333Z</time></trkpt><trkpt lat="43.346705" lon="10.6056783"><ele>27.0</ele><time>2026-04-06T08:10:54.335Z</time></trkpt><trkpt lat="43.346655" lon="10.60551"><ele>27.0</ele><time>2026-04-06T08:10:55.336Z</time></trkpt><trkpt lat="43.346605" lon="10.605345"><ele>27.0</ele><time>2026-04-06T08:10:56.334Z</time></trkpt><trkpt lat="43.3465583" lon="10.6051783"><ele>27.0</ele><time>2026-04-06T08:10:57.333Z</time></trkpt><trkpt lat="43.34651" lon="10.6050133"><ele>27.0</ele><time>2026-04-06T08:10:58.334Z</time></trkpt><trkpt lat="43.3464617" lon="10.60485"><ele>28.0</ele><time>2026-04-06T08:10:59.333Z</time></trkpt><trkpt lat="43.34641" lon="10.6046917"><ele>29.0</ele><time>2026-04-06T08:11:00.333Z</time></trkpt><trkpt lat="43.3463617" lon="10.6045333"><ele>30.0</ele><time>2026-04-06T08:11:01.333Z</time></trkpt><trkpt lat="43.3463117" lon="10.604375"><ele>31.0</ele><time>2026-04-06T08:11:02.335Z</time></trkpt><trkpt lat="43.3462633" lon="10.6042183"><ele>29.25</ele><time>2026-04-06T08:11:03.335Z</time></trkpt><trkpt lat="43.3462183" lon="10.6040667"><ele>27.5</ele><time>2026-04-06T08:11:04.338Z</time></trkpt><trkpt lat="43.3461733" lon="10.6039133"><ele>25.75</ele><time>2026-04-06T08:11:05.337Z</time></trkpt><trkpt lat="43.3461283" lon="10.6037617"><ele>24.0</ele><time>2026-04-06T08:11:06.333Z</time></trkpt><trkpt lat="43.3460817" lon="10.60361"><ele>24.0</ele><time>2026-04-06T08:11:07.334Z</time></trkpt><trkpt lat="43.3460317" lon="10.6034583"><ele>24.0</ele><time>2026-04-06T08:11:08.34Z</time></trkpt><trkpt lat="43.3459817" lon="10.6033067"><ele>24.0</ele><time>2026-04-06T08:11:09.336Z</time></trkpt><trkpt lat="43.34593" lon="10.6031583"><ele>24.0</ele><time>2026-04-06T08:11:10.331Z</time></trkpt><trkpt lat="43.3458767" lon="10.6030083"><ele>24.0</ele><time>2026-04-06T08:11:11.332Z</time></trkpt><trkpt lat="43.3458267" lon="10.602855"><ele>24.0</ele><time>2026-04-06T08:11:12.333Z</time></trkpt><trkpt lat="43.345775" lon="10.6027017"><ele>24.0</ele><time>2026-04-06T08:11:13.333Z</time></trkpt><trkpt lat="43.3457217" lon="10.60255"><ele>24.0</ele><time>2026-04-06T08:11:14.335Z</time></trkpt><trkpt lat="43.345665" lon="10.6024017"><ele>24.0</ele><time>2026-04-06T08:11:15.333Z</time></trkpt><trkpt lat="43.3456067" lon="10.602255"><ele>24.0</ele><time>2026-04-06T08:11:16.335Z</time></trkpt><trkpt lat="43.3455467" lon="10.60211"><ele>24.0</ele><time>2026-04-06T08:11:17.349Z</time></trkpt><trkpt lat="43.3454817" lon="10.6019717"><ele>24.0</ele><time>2026-04-06T08:11:18.335Z</time></trkpt><trkpt lat="43.34541" lon="10.6018383"><ele>24.0</ele><time>2026-04-06T08:11:19.332Z</time></trkpt><trkpt lat="43.3453317" lon="10.6017117"><ele>24.0</ele><time>2026-04-06T08:11:20.333Z</time></trkpt><trkpt lat="43.34525" lon="10.601585"><ele>24.0</ele><time>2026-04-06T08:11:21.334Z</time></trkpt><trkpt lat="43.3451667" lon="10.6014633"><ele>24.0</ele><time>2026-04-06T08:11:22.333Z</time></trkpt><trkpt lat="43.345075" lon="10.6013517"><ele>24.0</ele><time>2026-04-06T08:11:23.335Z</time></trkpt><trkpt lat="43.3449817" lon="10.6012467"><ele>24.0</ele><time>2026-04-06T08:11:24.333Z</time></trkpt><trkpt lat="43.344885" lon="10.6011433"><ele>24.0</ele><time>2026-04-06T08:11:25.338Z</time></trkpt><trkpt lat="43.344785" lon="10.601045"><ele>24.0</ele><time>2026-04-06T08:11:26.333Z</time></trkpt><trkpt lat="43.34468" lon="10.6009533"><ele>23.5</ele><time>2026-04-06T08:11:27.334Z</time></trkpt><trkpt lat="43.344575" lon="10.6008667"><ele>23.0</ele><time>2026-04-06T08:11:28.333Z</time></trkpt><trkpt lat="43.3444683" lon="10.6007817"><ele>22.5</ele><time>2026-04-06T08:11:29.332Z</time></trkpt><trkpt lat="43.3443583" lon="10.6006967"><ele>22.0</ele><time>2026-04-06T08:11:30.336Z</time></trkpt><trkpt lat="43.3442467" lon="10.600615"><ele>22.0</ele><time>2026-04-06T08:11:31.336Z</time></trkpt><trkpt lat="43.344135" lon="10.6005283"><ele>22.0</ele><time>2026-04-06T08:11:32.333Z</time></trkpt><trkpt lat="43.3440217" lon="10.6004417"><ele>22.0</ele><time>2026-04-06T08:11:33.333Z</time></trkpt><trkpt lat="43.3439117" lon="10.600355"><ele>22.0</ele><time>2026-04-06T08:11:34.338Z</time></trkpt><trkpt lat="43.3438" lon="10.600275"><ele>23.25</ele><time>2026-04-06T08:11:35.334Z</time></trkpt><trkpt lat="43.3436867" lon="10.6001983"><ele>24.5</ele><time>2026-04-06T08:11:36.333Z</time></trkpt><trkpt lat="43.3435717" lon="10.60012"><ele>25.75</ele><time>2026-04-06T08:11:37.337Z</time></trkpt><trkpt lat="43.34346" lon="10.60004"><ele>27.0</ele><time>2026-04-06T08:11:38.334Z</time></trkpt><trkpt lat="43.3433467" lon="10.59996"><ele>27.0</ele><time>2026-04-06T08:11:39.335Z</time></trkpt><trkpt lat="43.3432367" lon="10.5998767"><ele>27.0</ele><time>2026-04-06T08:11:40.343Z</time></trkpt><trkpt lat="43.3431267" lon="10.5997883"><ele>27.0</ele><time>2026-04-06T08:11:41.334Z</time></trkpt><trkpt lat="43.34302" lon="10.5996933"><ele>27.0</ele><time>2026-04-06T08:11:42.334Z</time></trkpt><trkpt lat="43.3429167" lon="10.599595"><ele>27.5</ele><time>2026-04-06T08:11:43.333Z</time></trkpt><trkpt lat="43.3428133" lon="10.5994917"><ele>28.0</ele><time>2026-04-06T08:11:44.335Z</time></trkpt><trkpt lat="43.342715" lon="10.5993833"><ele>28.5</ele><time>2026-04-06T08:11:45.336Z</time></trkpt><trkpt lat="43.34262" lon="10.5992683"><ele>29.0</ele><time>2026-04-06T08:11:46.334Z</time></trkpt><trkpt lat="43.34253" lon="10.599145"><ele>29.0</ele><time>2026-04-06T08:11:47.334Z</time></trkpt><trkpt lat="43.342445" lon="10.59902"><ele>29.0</ele><time>2026-04-06T08:11:48.335Z</time></trkpt><trkpt lat="43.3423633" lon="10.5988883"><ele>29.0</ele><time>2026-04-06T08:11:49.335Z</time></trkpt><trkpt lat="43.342285" lon="10.5987567"><ele>29.0</ele><time>2026-04-06T08:11:50.335Z</time></trkpt><trkpt lat="43.3422117" lon="10.5986183"><ele>27.25</ele><time>2026-04-06T08:11:51.334Z</time></trkpt><trkpt lat="43.3421433" lon="10.598475"><ele>25.5</ele><time>2026-04-06T08:11:52.335Z</time></trkpt><trkpt lat="43.3420833" lon="10.598325"><ele>23.75</ele><time>2026-04-06T08:11:53.335Z</time></trkpt><trkpt lat="43.3420267" lon="10.598175"><ele>22.0</ele><time>2026-04-06T08:11:54.334Z</time></trkpt><trkpt lat="43.3419717" lon="10.5980233"><ele>22.0</ele><time>2026-04-06T08:11:55.339Z</time></trkpt><trkpt lat="43.3419183" lon="10.597875"><ele>22.0</ele><time>2026-04-06T08:11:56.336Z</time></trkpt><trkpt lat="43.341865" lon="10.5977267"><ele>22.0</ele><time>2026-04-06T08:11:57.337Z</time></trkpt><trkpt lat="43.34181" lon="10.59758"><ele>22.0</ele><time>2026-04-06T08:11:58.333Z</time></trkpt><trkpt lat="43.34176" lon="10.59743"><ele>24.0</ele><time>2026-04-06T08:11:59.337Z</time></trkpt><trkpt lat="43.3417117" lon="10.5972817"><ele>26.0</ele><time>2026-04-06T08:12:00.334Z</time></trkpt><trkpt lat="43.3416633" lon="10.597135"><ele>28.0</ele><time>2026-04-06T08:12:01.333Z</time></trkpt><trkpt lat="43.341615" lon="10.5969917"><ele>30.0</ele><time>2026-04-06T08:12:02.334Z</time></trkpt><trkpt lat="43.341565" lon="10.5968467"><ele>32.0</ele><time>2026-04-06T08:12:03.334Z</time></trkpt><trkpt lat="43.341515" lon="10.5967067"><ele>34.0</ele><time>2026-04-06T08:12:04.34Z</time></trkpt><trkpt lat="43.341465" lon="10.59656"><ele>36.0</ele><time>2026-04-06T08:12:05.334Z</time></trkpt><trkpt lat="43.3414133" lon="10.5964133"><ele>38.0</ele><time>2026-04-06T08:12:06.336Z</time></trkpt><trkpt lat="43.3413617" lon="10.596265"><ele>34.75</ele><time>2026-04-06T08:12:07.336Z</time></trkpt><trkpt lat="43.34131" lon="10.5961133"><ele>31.5</ele><time>2026-04-06T08:12:08.335Z</time></trkpt><trkpt lat="43.3412583" lon="10.59596"><ele>28.25</ele><time>2026-04-06T08:12:09.333Z</time></trkpt><trkpt lat="43.3412033" lon="10.5958067"><ele>25.0</ele><time>2026-04-06T08:12:10.333Z</time></trkpt><trkpt lat="43.3411467" lon="10.59565"><ele>25.0</ele><time>2026-04-06T08:12:11.334Z</time></trkpt><trkpt lat="43.341085" lon="10.5954867"><ele>25.0</ele><time>2026-04-06T08:12:12.334Z</time></trkpt><trkpt lat="43.341025" lon="10.5953267"><ele>25.0</ele><time>2026-04-06T08:12:13.337Z</time></trkpt><trkpt lat="43.3409633" lon="10.5951683"><ele>25.0</ele><time>2026-04-06T08:12:14.333Z</time></trkpt><trkpt lat="43.3409067" lon="10.5950067"><ele>26.5</ele><time>2026-04-06T08:12:15.333Z</time></trkpt><trkpt lat="43.3408533" lon="10.594845"><ele>28.0</ele><time>2026-04-06T08:12:16.333Z</time></trkpt><trkpt lat="43.3408" lon="10.5946833"><ele>29.5</ele><time>2026-04-06T08:12:17.334Z</time></trkpt><trkpt lat="43.3407467" lon="10.5945267"><ele>31.0</ele><time>2026-04-06T08:12:18.333Z</time></trkpt><trkpt lat="43.3406967" lon="10.5943683"><ele>34.66666666666667</ele><time>2026-04-06T08:12:19.338Z</time></trkpt><trkpt lat="43.3406467" lon="10.5942067"><ele>38.333333333333336</ele><time>2026-04-06T08:12:20.333Z</time></trkpt><trkpt lat="43.3405467" lon="10.593865"><ele>42.0</ele><time>2026-04-06T08:12:22.338Z</time></trkpt><trkpt lat="43.3404967" lon="10.5936917"><ele>37.0</ele><time>2026-04-06T08:12:23.336Z</time></trkpt><trkpt lat="43.340455" lon="10.5935217"><ele>32.0</ele><time>2026-04-06T08:12:24.34Z</time></trkpt><trkpt lat="43.34042" lon="10.5933483"><ele>27.0</ele><time>2026-04-06T08:12:25.336Z</time></trkpt><trkpt lat="43.3403867" lon="10.5931767"><ele>22.0</ele><time>2026-04-06T08:12:26.336Z</time></trkpt><trkpt lat="43.3403567" lon="10.5930017"><ele>22.75</ele><time>2026-04-06T08:12:27.336Z</time></trkpt><trkpt lat="43.3403283" lon="10.5928283"><ele>23.5</ele><time>2026-04-06T08:12:28.334Z</time></trkpt><trkpt lat="43.340305" lon="10.5926517"><ele>24.25</ele><time>2026-04-06T08:12:29.338Z</time></trkpt><trkpt lat="43.340285" lon="10.592475"><ele>25.0</ele><time>2026-04-06T08:12:30.337Z</time></trkpt><trkpt lat="43.3402717" lon="10.5922967"><ele>25.0</ele><time>2026-04-06T08:12:31.334Z</time></trkpt><trkpt lat="43.340265" lon="10.59212"><ele>25.0</ele><time>2026-04-06T08:12:32.335Z</time></trkpt><trkpt lat="43.3402633" lon="10.5919483"><ele>25.0</ele><time>2026-04-06T08:12:33.333Z</time></trkpt><trkpt lat="43.340265" lon="10.59178"><ele>25.0</ele><time>2026-04-06T08:12:34.333Z</time></trkpt><trkpt lat="43.340275" lon="10.591615"><ele>24.5</ele><time>2026-04-06T08:12:35.334Z</time></trkpt><trkpt lat="43.340285" lon="10.5914467"><ele>24.0</ele><time>2026-04-06T08:12:36.335Z</time></trkpt><trkpt lat="43.340295" lon="10.59128"><ele>23.5</ele><time>2026-04-06T08:12:37.332Z</time></trkpt><trkpt lat="43.3403117" lon="10.5911117"><ele>23.0</ele><time>2026-04-06T08:12:38.334Z</time></trkpt><trkpt lat="43.34033" lon="10.590945"><ele>22.25</ele><time>2026-04-06T08:12:39.337Z</time></trkpt><trkpt lat="43.34035" lon="10.5907767"><ele>21.5</ele><time>2026-04-06T08:12:40.333Z</time></trkpt><trkpt lat="43.340375" lon="10.5906083"><ele>20.75</ele><time>2026-04-06T08:12:41.332Z</time></trkpt><trkpt lat="43.3404033" lon="10.59044"><ele>20.0</ele><time>2026-04-06T08:12:42.335Z</time></trkpt><trkpt lat="43.3404333" lon="10.5902717"><ele>19.75</ele><time>2026-04-06T08:12:43.335Z</time></trkpt><trkpt lat="43.3404644" lon="10.5901013"><ele>19.5</ele><time>2026-04-06T08:12:44.334Z</time></trkpt><trkpt lat="43.340496" lon="10.5899289"><ele>19.25</ele><time>2026-04-06T08:12:45.333Z</time></trkpt><trkpt lat="43.3405242" lon="10.5897545"><ele>19.0</ele><time>2026-04-06T08:12:46.334Z</time></trkpt><trkpt lat="43.3405517" lon="10.5895783"><ele>20.5</ele><time>2026-04-06T08:12:47.333Z</time></trkpt><trkpt lat="43.3405815" lon="10.5894027"><ele>22.0</ele><time>2026-04-06T08:12:48.333Z</time></trkpt><trkpt lat="43.3406115" lon="10.589226"><ele>23.5</ele><time>2026-04-06T08:12:49.333Z</time></trkpt><trkpt lat="43.3406422" lon="10.5890528"><ele>25.0</ele><time>2026-04-06T08:12:50.334Z</time></trkpt><trkpt lat="43.3406718" lon="10.5888772"><ele>25.0</ele><time>2026-04-06T08:12:51.34Z</time></trkpt><trkpt lat="43.3407021" lon="10.5887042"><ele>25.0</ele><time>2026-04-06T08:12:52.333Z</time></trkpt><trkpt lat="43.3407331" lon="10.588533"><ele>25.0</ele><time>2026-04-06T08:12:53.333Z</time></trkpt><trkpt lat="43.3407647" lon="10.5883624"><ele>25.0</ele><time>2026-04-06T08:12:54.334Z</time></trkpt><trkpt lat="43.340798" lon="10.5881919"><ele>24.5</ele><time>2026-04-06T08:12:55.335Z</time></trkpt><trkpt lat="43.3408297" lon="10.5880196"><ele>24.0</ele><time>2026-04-06T08:12:56.336Z</time></trkpt><trkpt lat="43.3408624" lon="10.5878462"><ele>23.5</ele><time>2026-04-06T08:12:57.341Z</time></trkpt><trkpt lat="43.3408963" lon="10.5876724"><ele>23.0</ele><time>2026-04-06T08:12:58.334Z</time></trkpt><trkpt lat="43.3409319" lon="10.5874971"><ele>23.0</ele><time>2026-04-06T08:12:59.336Z</time></trkpt><trkpt lat="43.3409702" lon="10.5873211"><ele>23.0</ele><time>2026-04-06T08:13:00.337Z</time></trkpt><trkpt lat="43.3410131" lon="10.5871453"><ele>23.0</ele><time>2026-04-06T08:13:01.333Z</time></trkpt><trkpt lat="43.3410623" lon="10.5869692"><ele>23.0</ele><time>2026-04-06T08:13:02.334Z</time></trkpt><trkpt lat="43.3411186" lon="10.5867965"><ele>22.75</ele><time>2026-04-06T08:13:03.332Z</time></trkpt><trkpt lat="43.3411809" lon="10.5866285"><ele>22.5</ele><time>2026-04-06T08:13:04.333Z</time></trkpt><trkpt lat="43.3412477" lon="10.586465"><ele>22.25</ele><time>2026-04-06T08:13:05.336Z</time></trkpt><trkpt lat="43.3413169" lon="10.5863066"><ele>22.0</ele><time>2026-04-06T08:13:06.333Z</time></trkpt><trkpt lat="43.341391" lon="10.586154"><ele>22.5</ele><time>2026-04-06T08:13:07.334Z</time></trkpt><trkpt lat="43.3414672" lon="10.5860052"><ele>23.0</ele><time>2026-04-06T08:13:08.333Z</time></trkpt><trkpt lat="43.3415465" lon="10.5858603"><ele>23.5</ele><time>2026-04-06T08:13:09.333Z</time></trkpt><trkpt lat="43.3416308" lon="10.5857198"><ele>24.0</ele><time>2026-04-06T08:13:10.334Z</time></trkpt><trkpt lat="43.3417171" lon="10.5855806"><ele>24.0</ele><time>2026-04-06T08:13:11.336Z</time></trkpt><trkpt lat="43.3418027" lon="10.5854447"><ele>24.0</ele><time>2026-04-06T08:13:12.336Z</time></trkpt><trkpt lat="43.341885" lon="10.5853195"><ele>24.0</ele><time>2026-04-06T08:13:13.333Z</time></trkpt><trkpt lat="43.3419632" lon="10.5852023"><ele>24.0</ele><time>2026-04-06T08:13:14.334Z</time></trkpt><trkpt lat="43.3420375" lon="10.5850927"><ele>23.799999999999997</ele><time>2026-04-06T08:13:15.335Z</time></trkpt><trkpt lat="43.3421079" lon="10.5849835"><ele>23.599999999999998</ele><time>2026-04-06T08:13:16.333Z</time></trkpt><trkpt lat="43.3421768" lon="10.5848732"><ele>23.4</ele><time>2026-04-06T08:13:17.334Z</time></trkpt><trkpt lat="43.3422474" lon="10.584762"><ele>23.2</ele><time>2026-04-06T08:13:18.338Z</time></trkpt><trkpt lat="43.3423172" lon="10.5846501"><ele>23.0</ele><time>2026-04-06T08:13:19.334Z</time></trkpt><trkpt lat="43.3423884" lon="10.5845359"><ele>23.0</ele><time>2026-04-06T08:13:20.334Z</time></trkpt><trkpt lat="43.3424592" lon="10.5844174"><ele>23.0</ele><time>2026-04-06T08:13:21.333Z</time></trkpt><trkpt lat="43.3425303" lon="10.5842964"><ele>23.0</ele><time>2026-04-06T08:13:22.334Z</time></trkpt><trkpt lat="43.3426033" lon="10.5841733"><ele>23.0</ele><time>2026-04-06T08:13:23.334Z</time></trkpt><trkpt lat="43.3426756" lon="10.584049"><ele>23.0</ele><time>2026-04-06T08:13:24.334Z</time></trkpt><trkpt lat="43.3427473" lon="10.5839264"><ele>23.0</ele><time>2026-04-06T08:13:25.333Z</time></trkpt><trkpt lat="43.3428155" lon="10.5838069"><ele>23.0</ele><time>2026-04-06T08:13:26.336Z</time></trkpt><trkpt lat="43.3428778" lon="10.5836904"><ele>23.0</ele><time>2026-04-06T08:13:27.333Z</time></trkpt><trkpt lat="43.3429321" lon="10.5835763"><ele>23.0</ele><time>2026-04-06T08:13:28.333Z</time></trkpt><trkpt lat="43.3429824" lon="10.5834638"><ele>22.833333333333336</ele><time>2026-04-06T08:13:29.336Z</time></trkpt><trkpt lat="43.3430285" lon="10.5833513"><ele>22.666666666666668</ele><time>2026-04-06T08:13:30.335Z</time></trkpt><trkpt lat="43.3430691" lon="10.5832388"><ele>22.5</ele><time>2026-04-06T08:13:31.333Z</time></trkpt><trkpt lat="43.3431022" lon="10.5831293"><ele>22.333333333333332</ele><time>2026-04-06T08:13:32.334Z</time></trkpt><trkpt lat="43.343133" lon="10.5830226"><ele>22.166666666666664</ele><time>2026-04-06T08:13:33.333Z</time></trkpt><trkpt lat="43.3431647" lon="10.5829241"><ele>22.0</ele><time>2026-04-06T08:13:34.334Z</time></trkpt><trkpt lat="43.3432043" lon="10.5828365"><ele>22.42857142857143</ele><time>2026-04-06T08:13:35.333Z</time></trkpt><trkpt lat="43.3432558" lon="10.5827644"><ele>22.857142857142858</ele><time>2026-04-06T08:13:36.335Z</time></trkpt><trkpt lat="43.3433096" lon="10.5827046"><ele>23.285714285714285</ele><time>2026-04-06T08:13:37.334Z</time></trkpt><trkpt lat="43.3433545" lon="10.5826367"><ele>23.714285714285715</ele><time>2026-04-06T08:13:38.339Z</time></trkpt><trkpt lat="43.3433807" lon="10.5825487"><ele>24.142857142857142</ele><time>2026-04-06T08:13:39.335Z</time></trkpt><trkpt lat="43.3433889" lon="10.5824488"><ele>24.571428571428573</ele><time>2026-04-06T08:13:40.334Z</time></trkpt><trkpt lat="43.3433849" lon="10.5823474"><ele>25.0</ele><time>2026-04-06T08:13:41.336Z</time></trkpt><trkpt lat="43.3433542" lon="10.58224"><ele>25.0</ele><time>2026-04-06T08:13:42.334Z</time></trkpt><trkpt lat="43.3433185" lon="10.5821303"><ele>25.0</ele><time>2026-04-06T08:13:43.335Z</time></trkpt><trkpt lat="43.3432866" lon="10.582013"><ele>25.0</ele><time>2026-04-06T08:13:44.337Z</time></trkpt><trkpt lat="43.3432667" lon="10.5818867"><ele>25.0</ele><time>2026-04-06T08:13:45.337Z</time></trkpt><trkpt lat="43.3432532" lon="10.581759"><ele>25.0</ele><time>2026-04-06T08:13:46.336Z</time></trkpt><trkpt lat="43.3432341" lon="10.5816326"><ele>25.8</ele><time>2026-04-06T08:13:47.336Z</time></trkpt><trkpt lat="43.3432101" lon="10.5815062"><ele>26.6</ele><time>2026-04-06T08:13:48.339Z</time></trkpt><trkpt lat="43.3431828" lon="10.5813819"><ele>27.4</ele><time>2026-04-06T08:13:49.335Z</time></trkpt><trkpt lat="43.3431498" lon="10.5812603"><ele>28.2</ele><time>2026-04-06T08:13:50.335Z</time></trkpt><trkpt lat="43.34311" lon="10.5811417"><ele>29.0</ele><time>2026-04-06T08:13:51.334Z</time></trkpt><trkpt lat="43.34307" lon="10.58102"><ele>29.0</ele><time>2026-04-06T08:13:52.334Z</time></trkpt><trkpt lat="43.343025" lon="10.5808967"><ele>29.0</ele><time>2026-04-06T08:13:53.336Z</time></trkpt><trkpt lat="43.3429767" lon="10.5807683"><ele>29.0</ele><time>2026-04-06T08:13:54.335Z</time></trkpt><trkpt lat="43.342925" lon="10.5806383"><ele>29.0</ele><time>2026-04-06T08:13:55.339Z</time></trkpt><trkpt lat="43.3428783" lon="10.58051"><ele>29.0</ele><time>2026-04-06T08:13:56.337Z</time></trkpt><trkpt lat="43.3428333" lon="10.58039"><ele>28.833333333333332</ele><time>2026-04-06T08:13:57.334Z</time></trkpt><trkpt lat="43.3427917" lon="10.580275"><ele>28.666666666666664</ele><time>2026-04-06T08:13:58.333Z</time></trkpt><trkpt lat="43.342755" lon="10.5801617"><ele>28.5</ele><time>2026-04-06T08:13:59.34Z</time></trkpt><trkpt lat="43.34272" lon="10.58005"><ele>28.333333333333336</ele><time>2026-04-06T08:14:00.336Z</time></trkpt><trkpt lat="43.342685" lon="10.5799433"><ele>28.166666666666668</ele><time>2026-04-06T08:14:01.335Z</time></trkpt><trkpt lat="43.3426483" lon="10.579835"><ele>28.0</ele><time>2026-04-06T08:14:02.334Z</time></trkpt><trkpt lat="43.342615" lon="10.5797233"><ele>28.000000000000004</ele><time>2026-04-06T08:14:03.333Z</time></trkpt><trkpt lat="43.34259" lon="10.5796083"><ele>28.0</ele><time>2026-04-06T08:14:04.334Z</time></trkpt><trkpt lat="43.3425767" lon="10.5794967"><ele>28.0</ele><time>2026-04-06T08:14:05.334Z</time></trkpt><trkpt lat="43.3425717" lon="10.5793867"><ele>28.0</ele><time>2026-04-06T08:14:06.332Z</time></trkpt><trkpt lat="43.34258" lon="10.5792783"><ele>28.000000000000004</ele><time>2026-04-06T08:14:07.337Z</time></trkpt><trkpt lat="43.3425967" lon="10.579175"><ele>28.0</ele><time>2026-04-06T08:14:08.333Z</time></trkpt><trkpt lat="43.3426083" lon="10.57908"><ele>27.2</ele><time>2026-04-06T08:14:09.333Z</time></trkpt><trkpt lat="43.34258" lon="10.5789233"><ele>26.4</ele><time>2026-04-06T08:14:11.334Z</time></trkpt><trkpt lat="43.34249" lon="10.5788267"><ele>25.599999999999998</ele><time>2026-04-06T08:14:13.334Z</time></trkpt><trkpt lat="43.3423733" lon="10.5788133"><ele>24.799999999999997</ele><time>2026-04-06T08:14:15.333Z</time></trkpt><trkpt lat="43.34231" lon="10.5788217"><ele>24.0</ele><time>2026-04-06T08:14:16.343Z</time></trkpt><trkpt lat="43.3422433" lon="10.578815"><ele>24.166666666666668</ele><time>2026-04-06T08:14:17.334Z</time></trkpt><trkpt lat="43.3421767" lon="10.57878"><ele>24.333333333333336</ele><time>2026-04-06T08:14:18.335Z</time></trkpt><trkpt lat="43.3421133" lon="10.5787183"><ele>24.5</ele><time>2026-04-06T08:14:19.336Z</time></trkpt><trkpt lat="43.342065" lon="10.5786333"><ele>24.666666666666668</ele><time>2026-04-06T08:14:20.334Z</time></trkpt><trkpt lat="43.3420267" lon="10.5785333"><ele>24.833333333333336</ele><time>2026-04-06T08:14:21.334Z</time></trkpt><trkpt lat="43.341985" lon="10.5784233"><ele>25.0</ele><time>2026-04-06T08:14:22.334Z</time></trkpt><trkpt lat="43.34194" lon="10.5783083"><ele>24.0</ele><time>2026-04-06T08:14:23.335Z</time></trkpt><trkpt lat="43.341895" lon="10.5781917"><ele>23.0</ele><time>2026-04-06T08:14:24.334Z</time></trkpt><trkpt lat="43.3418483" lon="10.578075"><ele>22.0</ele><time>2026-04-06T08:14:25.336Z</time></trkpt><trkpt lat="43.3418017" lon="10.5779633"><ele>21.0</ele><time>2026-04-06T08:14:26.335Z</time></trkpt><trkpt lat="43.3417517" lon="10.5778517"><ele>20.0</ele><time>2026-04-06T08:14:27.334Z</time></trkpt><trkpt lat="43.3417" lon="10.577735"><ele>19.6</ele><time>2026-04-06T08:14:28.334Z</time></trkpt><trkpt lat="43.3416467" lon="10.5776117"><ele>19.2</ele><time>2026-04-06T08:14:29.333Z</time></trkpt><trkpt lat="43.3415917" lon="10.5774883"><ele>18.8</ele><time>2026-04-06T08:14:30.332Z</time></trkpt><trkpt lat="43.341535" lon="10.5773617"><ele>18.4</ele><time>2026-04-06T08:14:31.334Z</time></trkpt><trkpt lat="43.3414783" lon="10.5772317"><ele>18.0</ele><time>2026-04-06T08:14:32.334Z</time></trkpt><trkpt lat="43.34142" lon="10.5770983"><ele>17.75</ele><time>2026-04-06T08:14:33.333Z</time></trkpt><trkpt lat="43.3413617" lon="10.5769617"><ele>17.5</ele><time>2026-04-06T08:14:34.339Z</time></trkpt><trkpt lat="43.3413017" lon="10.5768217"><ele>17.25</ele><time>2026-04-06T08:14:35.334Z</time></trkpt><trkpt lat="43.3412433" lon="10.5766817"><ele>17.0</ele><time>2026-04-06T08:14:36.333Z</time></trkpt><trkpt lat="43.3411833" lon="10.5765417"><ele>17.0</ele><time>2026-04-06T08:14:37.334Z</time></trkpt><trkpt lat="43.3411217" lon="10.5763983"><ele>17.0</ele><time>2026-04-06T08:14:38.335Z</time></trkpt><trkpt lat="43.3410617" lon="10.576255"><ele>17.0</ele><time>2026-04-06T08:14:39.332Z</time></trkpt><trkpt lat="43.3410017" lon="10.5761117"><ele>17.0</ele><time>2026-04-06T08:14:40.334Z</time></trkpt><trkpt lat="43.34094" lon="10.5759667"><ele>16.75</ele><time>2026-04-06T08:14:41.334Z</time></trkpt><trkpt lat="43.34088" lon="10.575825"><ele>16.5</ele><time>2026-04-06T08:14:42.334Z</time></trkpt><trkpt lat="43.3408183" lon="10.5756817"><ele>16.25</ele><time>2026-04-06T08:14:43.338Z</time></trkpt><trkpt lat="43.3407567" lon="10.57554"><ele>16.0</ele><time>2026-04-06T08:14:44.334Z</time></trkpt><trkpt lat="43.340695" lon="10.5753983"><ele>15.5</ele><time>2026-04-06T08:14:45.333Z</time></trkpt><trkpt lat="43.340635" lon="10.5752567"><ele>15.0</ele><time>2026-04-06T08:14:46.333Z</time></trkpt><trkpt lat="43.3405767" lon="10.5751117"><ele>14.5</ele><time>2026-04-06T08:14:47.335Z</time></trkpt><trkpt lat="43.3405183" lon="10.574965"><ele>14.0</ele><time>2026-04-06T08:14:48.334Z</time></trkpt><trkpt lat="43.3404567" lon="10.5748217"><ele>14.0</ele><time>2026-04-06T08:14:49.333Z</time></trkpt><trkpt lat="43.3403917" lon="10.5746817"><ele>14.0</ele><time>2026-04-06T08:14:50.332Z</time></trkpt><trkpt lat="43.34033" lon="10.574535"><ele>14.0</ele><time>2026-04-06T08:14:51.334Z</time></trkpt><trkpt lat="43.34027" lon="10.5743883"><ele>14.0</ele><time>2026-04-06T08:14:52.335Z</time></trkpt><trkpt lat="43.3402067" lon="10.574245"><ele>13.25</ele><time>2026-04-06T08:14:53.334Z</time></trkpt><trkpt lat="43.3401433" lon="10.5740967"><ele>12.5</ele><time>2026-04-06T08:14:54.333Z</time></trkpt><trkpt lat="43.3400817" lon="10.573945"><ele>11.75</ele><time>2026-04-06T08:14:55.337Z</time></trkpt><trkpt lat="43.3400167" lon="10.57379"><ele>11.0</ele><time>2026-04-06T08:14:56.334Z</time></trkpt><trkpt lat="43.3399483" lon="10.5736367"><ele>11.0</ele><time>2026-04-06T08:14:57.336Z</time></trkpt><trkpt lat="43.33988" lon="10.5734867"><ele>11.0</ele><time>2026-04-06T08:14:58.336Z</time></trkpt><trkpt lat="43.3398183" lon="10.5733417"><ele>11.0</ele><time>2026-04-06T08:14:59.333Z</time></trkpt><trkpt lat="43.33976" lon="10.5732"><ele>11.0</ele><time>2026-04-06T08:15:00.334Z</time></trkpt><trkpt lat="43.3397017" lon="10.5730617"><ele>11.0</ele><time>2026-04-06T08:15:01.334Z</time></trkpt><trkpt lat="43.33964" lon="10.5729217"><ele>11.0</ele><time>2026-04-06T08:15:02.334Z</time></trkpt><trkpt lat="43.33958" lon="10.57278"><ele>11.0</ele><time>2026-04-06T08:15:03.334Z</time></trkpt><trkpt lat="43.3395233" lon="10.572635"><ele>11.0</ele><time>2026-04-06T08:15:04.333Z</time></trkpt><trkpt lat="43.3394667" lon="10.57249"><ele>11.5</ele><time>2026-04-06T08:15:05.332Z</time></trkpt><trkpt lat="43.33941" lon="10.5723417"><ele>12.0</ele><time>2026-04-06T08:15:06.332Z</time></trkpt><trkpt lat="43.3393517" lon="10.5721933"><ele>12.5</ele><time>2026-04-06T08:15:07.333Z</time></trkpt><trkpt lat="43.33929" lon="10.5720467"><ele>13.0</ele><time>2026-04-06T08:15:08.333Z</time></trkpt><trkpt lat="43.339225" lon="10.5718983"><ele>13.5</ele><time>2026-04-06T08:15:09.332Z</time></trkpt><trkpt lat="43.33916" lon="10.57175"><ele>14.0</ele><time>2026-04-06T08:15:10.332Z</time></trkpt><trkpt lat="43.3390967" lon="10.5716"><ele>14.5</ele><time>2026-04-06T08:15:11.334Z</time></trkpt><trkpt lat="43.339035" lon="10.57145"><ele>15.0</ele><time>2026-04-06T08:15:12.333Z</time></trkpt><trkpt lat="43.3389717" lon="10.5713"><ele>15.25</ele><time>2026-04-06T08:15:13.334Z</time></trkpt><trkpt lat="43.338905" lon="10.57115"><ele>15.5</ele><time>2026-04-06T08:15:14.332Z</time></trkpt><trkpt lat="43.3388367" lon="10.5710033"><ele>15.75</ele><time>2026-04-06T08:15:15.333Z</time></trkpt><trkpt lat="43.338765" lon="10.57086"><ele>16.0</ele><time>2026-04-06T08:15:16.334Z</time></trkpt><trkpt lat="43.3386933" lon="10.5707183"><ele>15.75</ele><time>2026-04-06T08:15:17.332Z</time></trkpt><trkpt lat="43.3386217" lon="10.57058"><ele>15.5</ele><time>2026-04-06T08:15:18.332Z</time></trkpt><trkpt lat="43.3385433" lon="10.5704417"><ele>15.25</ele><time>2026-04-06T08:15:19.334Z</time></trkpt><trkpt lat="43.3384633" lon="10.5703033"><ele>15.0</ele><time>2026-04-06T08:15:20.333Z</time></trkpt><trkpt lat="43.3383833" lon="10.5701667"><ele>15.0</ele><time>2026-04-06T08:15:21.341Z</time></trkpt><trkpt lat="43.338305" lon="10.57003"><ele>15.0</ele><time>2026-04-06T08:15:22.333Z</time></trkpt><trkpt lat="43.3382283" lon="10.5698917"><ele>15.0</ele><time>2026-04-06T08:15:23.345Z</time></trkpt><trkpt lat="43.3381517" lon="10.5697533"><ele>15.0</ele><time>2026-04-06T08:15:24.334Z</time></trkpt><trkpt lat="43.3380783" lon="10.5696117"><ele>15.25</ele><time>2026-04-06T08:15:25.334Z</time></trkpt><trkpt lat="43.338005" lon="10.569475"><ele>15.5</ele><time>2026-04-06T08:15:26.333Z</time></trkpt><trkpt lat="43.33793" lon="10.5693417"><ele>15.75</ele><time>2026-04-06T08:15:27.334Z</time></trkpt><trkpt lat="43.3378517" lon="10.5692083"><ele>16.0</ele><time>2026-04-06T08:15:28.335Z</time></trkpt><trkpt lat="43.337775" lon="10.5690717"><ele>16.0</ele><time>2026-04-06T08:15:29.333Z</time></trkpt><trkpt lat="43.3376983" lon="10.5689333"><ele>16.0</ele><time>2026-04-06T08:15:30.333Z</time></trkpt><trkpt lat="43.3376217" lon="10.5687933"><ele>16.0</ele><time>2026-04-06T08:15:31.335Z</time></trkpt><trkpt lat="43.3375433" lon="10.5686533"><ele>16.0</ele><time>2026-04-06T08:15:32.334Z</time></trkpt><trkpt lat="43.337465" lon="10.5685133"><ele>16.25</ele><time>2026-04-06T08:15:33.333Z</time></trkpt><trkpt lat="43.3373867" lon="10.5683767"><ele>16.5</ele><time>2026-04-06T08:15:34.334Z</time></trkpt><trkpt lat="43.3373083" lon="10.5682367"><ele>16.75</ele><time>2026-04-06T08:15:35.334Z</time></trkpt><trkpt lat="43.33723" lon="10.5680983"><ele>17.0</ele><time>2026-04-06T08:15:36.332Z</time></trkpt><trkpt lat="43.3371517" lon="10.5679583"><ele>16.5</ele><time>2026-04-06T08:15:37.334Z</time></trkpt><trkpt lat="43.337075" lon="10.5678133"><ele>16.0</ele><time>2026-04-06T08:15:38.334Z</time></trkpt><trkpt lat="43.3370017" lon="10.5676667"><ele>15.5</ele><time>2026-04-06T08:15:39.334Z</time></trkpt><trkpt lat="43.3369267" lon="10.5675217"><ele>15.0</ele><time>2026-04-06T08:15:40.335Z</time></trkpt><trkpt lat="43.3368517" lon="10.5673767"><ele>15.0</ele><time>2026-04-06T08:15:41.34Z</time></trkpt><trkpt lat="43.336775" lon="10.5672367"><ele>15.0</ele><time>2026-04-06T08:15:42.334Z</time></trkpt><trkpt lat="43.3366917" lon="10.5670983"><ele>15.0</ele><time>2026-04-06T08:15:43.331Z</time></trkpt><trkpt lat="43.3366083" lon="10.56696"><ele>15.0</ele><time>2026-04-06T08:15:44.355Z</time></trkpt><trkpt lat="43.3365217" lon="10.56682"><ele>15.0</ele><time>2026-04-06T08:15:45.333Z</time></trkpt><trkpt lat="43.3364333" lon="10.5666817"><ele>15.0</ele><time>2026-04-06T08:15:46.333Z</time></trkpt><trkpt lat="43.336345" lon="10.5665417"><ele>15.0</ele><time>2026-04-06T08:15:47.332Z</time></trkpt><trkpt lat="43.3362567" lon="10.5664033"><ele>15.0</ele><time>2026-04-06T08:15:48.332Z</time></trkpt><trkpt lat="43.3361667" lon="10.56626"><ele>14.75</ele><time>2026-04-06T08:15:49.345Z</time></trkpt><trkpt lat="43.3360783" lon="10.5661167"><ele>14.5</ele><time>2026-04-06T08:15:50.336Z</time></trkpt><trkpt lat="43.3359883" lon="10.5659733"><ele>14.25</ele><time>2026-04-06T08:15:51.336Z</time></trkpt><trkpt lat="43.3359" lon="10.5658317"><ele>14.0</ele><time>2026-04-06T08:15:52.334Z</time></trkpt><trkpt lat="43.3358117" lon="10.56569"><ele>14.0</ele><time>2026-04-06T08:15:53.334Z</time></trkpt><trkpt lat="43.3357233" lon="10.5655517"><ele>14.0</ele><time>2026-04-06T08:15:54.333Z</time></trkpt><trkpt lat="43.3356383" lon="10.5654133"><ele>14.0</ele><time>2026-04-06T08:15:55.333Z</time></trkpt><trkpt lat="43.3355533" lon="10.5652783"><ele>14.0</ele><time>2026-04-06T08:15:56.338Z</time></trkpt><trkpt lat="43.3354683" lon="10.5651417"><ele>13.75</ele><time>2026-04-06T08:15:57.34Z</time></trkpt><trkpt lat="43.3353817" lon="10.5650083"><ele>13.5</ele><time>2026-04-06T08:15:58.338Z</time></trkpt><trkpt lat="43.3352967" lon="10.5648767"><ele>13.25</ele><time>2026-04-06T08:15:59.332Z</time></trkpt><trkpt lat="43.3352117" lon="10.5647433"><ele>13.0</ele><time>2026-04-06T08:16:00.341Z</time></trkpt><trkpt lat="43.3351267" lon="10.5646083"><ele>13.0</ele><time>2026-04-06T08:16:01.333Z</time></trkpt><trkpt lat="43.335045" lon="10.564475"><ele>13.0</ele><time>2026-04-06T08:16:02.333Z</time></trkpt><trkpt lat="43.33496" lon="10.5643433"><ele>13.0</ele><time>2026-04-06T08:16:03.332Z</time></trkpt><trkpt lat="43.3348783" lon="10.56421"><ele>13.0</ele><time>2026-04-06T08:16:04.337Z</time></trkpt><trkpt lat="43.334795" lon="10.5640767"><ele>13.0</ele><time>2026-04-06T08:16:05.334Z</time></trkpt><trkpt lat="43.3347117" lon="10.5639433"><ele>13.0</ele><time>2026-04-06T08:16:06.334Z</time></trkpt><trkpt lat="43.3346333" lon="10.5638133"><ele>13.0</ele><time>2026-04-06T08:16:07.332Z</time></trkpt><trkpt lat="43.334555" lon="10.56369"><ele>13.0</ele><time>2026-04-06T08:16:08.335Z</time></trkpt><trkpt lat="43.3344767" lon="10.56357"><ele>13.5</ele><time>2026-04-06T08:16:09.335Z</time></trkpt><trkpt lat="43.3343983" lon="10.5634533"><ele>14.0</ele><time>2026-04-06T08:16:10.339Z</time></trkpt><trkpt lat="43.3343183" lon="10.5633383"><ele>14.5</ele><time>2026-04-06T08:16:11.334Z</time></trkpt><trkpt lat="43.33424" lon="10.563225"><ele>15.0</ele><time>2026-04-06T08:16:12.333Z</time></trkpt><trkpt lat="43.334165" lon="10.5631167"><ele>15.0</ele><time>2026-04-06T08:16:13.337Z</time></trkpt><trkpt lat="43.3340917" lon="10.5630183"><ele>15.0</ele><time>2026-04-06T08:16:14.333Z</time></trkpt><trkpt lat="43.33402" lon="10.562925"><ele>15.0</ele><time>2026-04-06T08:16:15.338Z</time></trkpt><trkpt lat="43.33395" lon="10.5628433"><ele>15.0</ele><time>2026-04-06T08:16:16.331Z</time></trkpt><trkpt lat="43.333885" lon="10.56276"><ele>15.0</ele><time>2026-04-06T08:16:17.332Z</time></trkpt><trkpt lat="43.3338217" lon="10.5626683"><ele>15.166666666666666</ele><time>2026-04-06T08:16:18.336Z</time></trkpt><trkpt lat="43.3337733" lon="10.5625583"><ele>15.333333333333332</ele><time>2026-04-06T08:16:19.337Z</time></trkpt><trkpt lat="43.333735" lon="10.5624483"><ele>15.5</ele><time>2026-04-06T08:16:20.338Z</time></trkpt><trkpt lat="43.3336867" lon="10.562355"><ele>15.666666666666666</ele><time>2026-04-06T08:16:21.336Z</time></trkpt><trkpt lat="43.333625" lon="10.5622733"><ele>15.833333333333332</ele><time>2026-04-06T08:16:22.336Z</time></trkpt><trkpt lat="43.3335483" lon="10.5621967"><ele>16.0</ele><time>2026-04-06T08:16:23.335Z</time></trkpt><trkpt lat="43.3334717" lon="10.5620983"><ele>16.25</ele><time>2026-04-06T08:16:24.332Z</time></trkpt><trkpt lat="43.3334033" lon="10.561975"><ele>16.5</ele><time>2026-04-06T08:16:25.333Z</time></trkpt><trkpt lat="43.333345" lon="10.56184"><ele>16.75</ele><time>2026-04-06T08:16:26.333Z</time></trkpt><trkpt lat="43.333285" lon="10.5617117"><ele>17.0</ele><time>2026-04-06T08:16:27.337Z</time></trkpt><trkpt lat="43.3332167" lon="10.561585"><ele>17.0</ele><time>2026-04-06T08:16:28.333Z</time></trkpt><trkpt lat="43.3331433" lon="10.5614567"><ele>17.0</ele><time>2026-04-06T08:16:29.333Z</time></trkpt><trkpt lat="43.3330633" lon="10.5613283"><ele>17.0</ele><time>2026-04-06T08:16:30.335Z</time></trkpt><trkpt lat="43.3329833" lon="10.5611967"><ele>17.0</ele><time>2026-04-06T08:16:31.331Z</time></trkpt><trkpt lat="43.332905" lon="10.56106"><ele>16.5</ele><time>2026-04-06T08:16:32.333Z</time></trkpt><trkpt lat="43.3328217" lon="10.5609267"><ele>16.0</ele><time>2026-04-06T08:16:33.333Z</time></trkpt><trkpt lat="43.3327367" lon="10.56079"><ele>15.5</ele><time>2026-04-06T08:16:34.334Z</time></trkpt><trkpt lat="43.33265" lon="10.5606483"><ele>15.0</ele><time>2026-04-06T08:16:35.332Z</time></trkpt><trkpt lat="43.332565" lon="10.5605033"><ele>14.75</ele><time>2026-04-06T08:16:36.335Z</time></trkpt><trkpt lat="43.33248" lon="10.560355"><ele>14.5</ele><time>2026-04-06T08:16:37.333Z</time></trkpt><trkpt lat="43.33239" lon="10.5602083"><ele>14.25</ele><time>2026-04-06T08:16:38.333Z</time></trkpt><trkpt lat="43.3323017" lon="10.5600633"><ele>14.0</ele><time>2026-04-06T08:16:39.335Z</time></trkpt><trkpt lat="43.332215" lon="10.5599183"><ele>13.75</ele><time>2026-04-06T08:16:40.334Z</time></trkpt><trkpt lat="43.3321283" lon="10.5597733"><ele>13.5</ele><time>2026-04-06T08:16:41.334Z</time></trkpt><trkpt lat="43.332045" lon="10.5596283"><ele>13.25</ele><time>2026-04-06T08:16:42.332Z</time></trkpt><trkpt lat="43.3319633" lon="10.559485"><ele>13.0</ele><time>2026-04-06T08:16:43.332Z</time></trkpt><trkpt lat="43.3318817" lon="10.5593467"><ele>12.75</ele><time>2026-04-06T08:16:44.336Z</time></trkpt><trkpt lat="43.3317983" lon="10.55921"><ele>12.5</ele><time>2026-04-06T08:16:45.333Z</time></trkpt><trkpt lat="43.3317183" lon="10.5590733"><ele>12.25</ele><time>2026-04-06T08:16:46.333Z</time></trkpt><trkpt lat="43.3316367" lon="10.5589383"><ele>12.0</ele><time>2026-04-06T08:16:47.334Z</time></trkpt><trkpt lat="43.3315533" lon="10.5588067"><ele>12.0</ele><time>2026-04-06T08:16:48.333Z</time></trkpt><trkpt lat="43.3314717" lon="10.5586717"><ele>12.0</ele><time>2026-04-06T08:16:49.338Z</time></trkpt><trkpt lat="43.3313883" lon="10.5585383"><ele>12.0</ele><time>2026-04-06T08:16:50.333Z</time></trkpt><trkpt lat="43.331305" lon="10.5584033"><ele>12.0</ele><time>2026-04-06T08:16:51.335Z</time></trkpt><trkpt lat="43.33122" lon="10.55827"><ele>12.0</ele><time>2026-04-06T08:16:52.333Z</time></trkpt><trkpt lat="43.3311333" lon="10.5581333"><ele>12.0</ele><time>2026-04-06T08:16:53.338Z</time></trkpt><trkpt lat="43.3310483" lon="10.5579983"><ele>12.0</ele><time>2026-04-06T08:16:54.332Z</time></trkpt><trkpt lat="43.3309633" lon="10.5578633"><ele>12.0</ele><time>2026-04-06T08:16:55.334Z</time></trkpt><trkpt lat="43.3308783" lon="10.5577267"><ele>12.0</ele><time>2026-04-06T08:16:56.337Z</time></trkpt><trkpt lat="43.330795" lon="10.5575883"><ele>12.0</ele><time>2026-04-06T08:16:57.333Z</time></trkpt><trkpt lat="43.3307083" lon="10.5574533"><ele>12.0</ele><time>2026-04-06T08:16:58.335Z</time></trkpt><trkpt lat="43.3306233" lon="10.55732"><ele>12.0</ele><time>2026-04-06T08:16:59.338Z</time></trkpt><trkpt lat="43.3305367" lon="10.557185"><ele>12.0</ele><time>2026-04-06T08:17:00.335Z</time></trkpt><trkpt lat="43.3304483" lon="10.5570483"><ele>12.0</ele><time>2026-04-06T08:17:01.334Z</time></trkpt><trkpt lat="43.3303583" lon="10.556915"><ele>12.0</ele><time>2026-04-06T08:17:02.333Z</time></trkpt><trkpt lat="43.3302717" lon="10.55678"><ele>12.0</ele><time>2026-04-06T08:17:03.334Z</time></trkpt><trkpt lat="43.330185" lon="10.556645"><ele>12.0</ele><time>2026-04-06T08:17:04.334Z</time></trkpt><trkpt lat="43.3301" lon="10.55651"><ele>12.0</ele><time>2026-04-06T08:17:05.333Z</time></trkpt><trkpt lat="43.3300133" lon="10.556375"><ele>12.0</ele><time>2026-04-06T08:17:06.333Z</time></trkpt><trkpt lat="43.3299283" lon="10.5562417"><ele>12.0</ele><time>2026-04-06T08:17:07.334Z</time></trkpt><trkpt lat="43.3298433" lon="10.5561067"><ele>12.0</ele><time>2026-04-06T08:17:08.333Z</time></trkpt><trkpt lat="43.3297583" lon="10.5559733"><ele>12.0</ele><time>2026-04-06T08:17:09.333Z</time></trkpt><trkpt lat="43.3296717" lon="10.5558417"><ele>12.0</ele><time>2026-04-06T08:17:10.333Z</time></trkpt><trkpt lat="43.3295833" lon="10.55571"><ele>12.0</ele><time>2026-04-06T08:17:11.338Z</time></trkpt><trkpt lat="43.3294967" lon="10.5555783"><ele>12.0</ele><time>2026-04-06T08:17:12.335Z</time></trkpt><trkpt lat="43.3294117" lon="10.5554433"><ele>12.0</ele><time>2026-04-06T08:17:13.333Z</time></trkpt><trkpt lat="43.3293233" lon="10.5553083"><ele>12.0</ele><time>2026-04-06T08:17:14.333Z</time></trkpt><trkpt lat="43.3292333" lon="10.5551733"><ele>12.0</ele><time>2026-04-06T08:17:15.332Z</time></trkpt><trkpt lat="43.329145" lon="10.5550367"><ele>11.75</ele><time>2026-04-06T08:17:16.334Z</time></trkpt><trkpt lat="43.329055" lon="10.554895"><ele>11.5</ele><time>2026-04-06T08:17:17.338Z</time></trkpt><trkpt lat="43.32897" lon="10.5547483"><ele>11.25</ele><time>2026-04-06T08:17:18.335Z</time></trkpt><trkpt lat="43.328885" lon="10.5546033"><ele>11.0</ele><time>2026-04-06T08:17:19.332Z</time></trkpt><trkpt lat="43.3288017" lon="10.5544567"><ele>10.75</ele><time>2026-04-06T08:17:20.336Z</time></trkpt><trkpt lat="43.32872" lon="10.554305"><ele>10.5</ele><time>2026-04-06T08:17:21.332Z</time></trkpt><trkpt lat="43.3286383" lon="10.554155"><ele>10.25</ele><time>2026-04-06T08:17:22.332Z</time></trkpt><trkpt lat="43.3285567" lon="10.5540067"><ele>10.0</ele><time>2026-04-06T08:17:23.332Z</time></trkpt><trkpt lat="43.328475" lon="10.553855"><ele>10.0</ele><time>2026-04-06T08:17:24.336Z</time></trkpt><trkpt lat="43.3283917" lon="10.5537033"><ele>10.0</ele><time>2026-04-06T08:17:25.333Z</time></trkpt><trkpt lat="43.32831" lon="10.5535533"><ele>10.0</ele><time>2026-04-06T08:17:26.336Z</time></trkpt><trkpt lat="43.3282267" lon="10.5534033"><ele>10.0</ele><time>2026-04-06T08:17:27.343Z</time></trkpt><trkpt lat="43.3281433" lon="10.5532533"><ele>10.0</ele><time>2026-04-06T08:17:28.334Z</time></trkpt><trkpt lat="43.3280617" lon="10.553105"><ele>10.0</ele><time>2026-04-06T08:17:29.335Z</time></trkpt><trkpt lat="43.32798" lon="10.552955"><ele>10.0</ele><time>2026-04-06T08:17:30.335Z</time></trkpt><trkpt lat="43.3278983" lon="10.5528083"><ele>10.0</ele><time>2026-04-06T08:17:31.348Z</time></trkpt><trkpt lat="43.3278133" lon="10.55266"><ele>10.25</ele><time>2026-04-06T08:17:32.339Z</time></trkpt><trkpt lat="43.3277317" lon="10.5525083"><ele>10.5</ele><time>2026-04-06T08:17:33.333Z</time></trkpt><trkpt lat="43.3276517" lon="10.5523567"><ele>10.75</ele><time>2026-04-06T08:17:34.332Z</time></trkpt><trkpt lat="43.3275717" lon="10.552205"><ele>11.0</ele><time>2026-04-06T08:17:35.333Z</time></trkpt><trkpt lat="43.3274933" lon="10.552055"><ele>11.0</ele><time>2026-04-06T08:17:36.333Z</time></trkpt><trkpt lat="43.32742" lon="10.551905"><ele>11.0</ele><time>2026-04-06T08:17:37.332Z</time></trkpt><trkpt lat="43.3273517" lon="10.5517517"><ele>11.0</ele><time>2026-04-06T08:17:38.334Z</time></trkpt><trkpt lat="43.327285" lon="10.551595"><ele>11.0</ele><time>2026-04-06T08:17:39.331Z</time></trkpt><trkpt lat="43.3272267" lon="10.5514333"><ele>11.0</ele><time>2026-04-06T08:17:40.332Z</time></trkpt><trkpt lat="43.3271717" lon="10.55127"><ele>11.0</ele><time>2026-04-06T08:17:41.348Z</time></trkpt><trkpt lat="43.3271167" lon="10.551105"><ele>11.0</ele><time>2026-04-06T08:17:42.333Z</time></trkpt><trkpt lat="43.3270633" lon="10.5509417"><ele>11.0</ele><time>2026-04-06T08:17:43.332Z</time></trkpt><trkpt lat="43.32701" lon="10.5507783"><ele>11.25</ele><time>2026-04-06T08:17:44.332Z</time></trkpt><trkpt lat="43.3269567" lon="10.5506167"><ele>11.5</ele><time>2026-04-06T08:17:45.332Z</time></trkpt><trkpt lat="43.3269033" lon="10.5504567"><ele>11.75</ele><time>2026-04-06T08:17:46.333Z</time></trkpt><trkpt lat="43.3268517" lon="10.550295"><ele>12.0</ele><time>2026-04-06T08:17:47.334Z</time></trkpt><trkpt lat="43.3268" lon="10.55013"><ele>11.5</ele><time>2026-04-06T08:17:48.333Z</time></trkpt><trkpt lat="43.3267467" lon="10.549965"><ele>11.0</ele><time>2026-04-06T08:17:49.348Z</time></trkpt><trkpt lat="43.3266947" lon="10.5498017"><ele>10.5</ele><time>2026-04-06T08:17:50.337Z</time></trkpt><trkpt lat="43.3266404" lon="10.5496366"><ele>10.0</ele><time>2026-04-06T08:17:51.335Z</time></trkpt><trkpt lat="43.3265877" lon="10.549471"><ele>10.0</ele><time>2026-04-06T08:17:52.334Z</time></trkpt><trkpt lat="43.3265364" lon="10.5493054"><ele>10.0</ele><time>2026-04-06T08:17:53.333Z</time></trkpt><trkpt lat="43.3264852" lon="10.5491396"><ele>10.0</ele><time>2026-04-06T08:17:54.335Z</time></trkpt><trkpt lat="43.3264345" lon="10.5489749"><ele>10.0</ele><time>2026-04-06T08:17:55.332Z</time></trkpt><trkpt lat="43.3263829" lon="10.5488125"><ele>9.75</ele><time>2026-04-06T08:17:56.333Z</time></trkpt><trkpt lat="43.3263303" lon="10.5486523"><ele>9.5</ele><time>2026-04-06T08:17:57.335Z</time></trkpt><trkpt lat="43.3262776" lon="10.5484942"><ele>9.25</ele><time>2026-04-06T08:17:58.334Z</time></trkpt><trkpt lat="43.3262244" lon="10.5483355"><ele>9.0</ele><time>2026-04-06T08:17:59.332Z</time></trkpt><trkpt lat="43.326173" lon="10.5481785"><ele>9.0</ele><time>2026-04-06T08:18:00.333Z</time></trkpt><trkpt lat="43.3261246" lon="10.5480215"><ele>9.0</ele><time>2026-04-06T08:18:01.336Z</time></trkpt><trkpt lat="43.3260774" lon="10.5478717"><ele>9.0</ele><time>2026-04-06T08:18:02.337Z</time></trkpt><trkpt lat="43.3260315" lon="10.5477246"><ele>9.0</ele><time>2026-04-06T08:18:03.343Z</time></trkpt><trkpt lat="43.325987" lon="10.5475802"><ele>9.0</ele><time>2026-04-06T08:18:04.333Z</time></trkpt><trkpt lat="43.3259406" lon="10.5474354"><ele>9.0</ele><time>2026-04-06T08:18:05.334Z</time></trkpt><trkpt lat="43.3258948" lon="10.5472953"><ele>9.0</ele><time>2026-04-06T08:18:06.333Z</time></trkpt><trkpt lat="43.3258499" lon="10.5471518"><ele>9.0</ele><time>2026-04-06T08:18:07.335Z</time></trkpt><trkpt lat="43.3258037" lon="10.5470057"><ele>9.0</ele><time>2026-04-06T08:18:08.336Z</time></trkpt><trkpt lat="43.3257538" lon="10.5468585"><ele>9.0</ele><time>2026-04-06T08:18:09.335Z</time></trkpt><trkpt lat="43.325702" lon="10.5467088"><ele>9.0</ele><time>2026-04-06T08:18:10.334Z</time></trkpt><trkpt lat="43.3256518" lon="10.5465562"><ele>9.0</ele><time>2026-04-06T08:18:11.336Z</time></trkpt><trkpt lat="43.3256027" lon="10.5464003"><ele>8.75</ele><time>2026-04-06T08:18:12.337Z</time></trkpt><trkpt lat="43.325553" lon="10.5462435"><ele>8.5</ele><time>2026-04-06T08:18:13.336Z</time></trkpt><trkpt lat="43.3255032" lon="10.5460871"><ele>8.25</ele><time>2026-04-06T08:18:14.334Z</time></trkpt><trkpt lat="43.3254529" lon="10.5459345"><ele>8.0</ele><time>2026-04-06T08:18:15.335Z</time></trkpt><trkpt lat="43.3254045" lon="10.5457816"><ele>8.75</ele><time>2026-04-06T08:18:16.334Z</time></trkpt><trkpt lat="43.3253559" lon="10.5456309"><ele>9.5</ele><time>2026-04-06T08:18:17.336Z</time></trkpt><trkpt lat="43.325307" lon="10.5454805"><ele>10.25</ele><time>2026-04-06T08:18:18.341Z</time></trkpt><trkpt lat="43.3252592" lon="10.5453264"><ele>11.0</ele><time>2026-04-06T08:18:19.333Z</time></trkpt><trkpt lat="43.3252124" lon="10.5451683"><ele>11.0</ele><time>2026-04-06T08:18:20.333Z</time></trkpt><trkpt lat="43.3251662" lon="10.545008"><ele>11.0</ele><time>2026-04-06T08:18:21.335Z</time></trkpt><trkpt lat="43.3251196" lon="10.5448464"><ele>11.0</ele><time>2026-04-06T08:18:22.334Z</time></trkpt><trkpt lat="43.3250705" lon="10.5446868"><ele>11.0</ele><time>2026-04-06T08:18:23.332Z</time></trkpt><trkpt lat="43.3250217" lon="10.5445276"><ele>10.5</ele><time>2026-04-06T08:18:24.334Z</time></trkpt><trkpt lat="43.324971" lon="10.5443691"><ele>10.0</ele><time>2026-04-06T08:18:25.338Z</time></trkpt><trkpt lat="43.3249177" lon="10.5442084"><ele>9.5</ele><time>2026-04-06T08:18:26.334Z</time></trkpt><trkpt lat="43.3248629" lon="10.5440498"><ele>9.0</ele><time>2026-04-06T08:18:27.337Z</time></trkpt><trkpt lat="43.3248114" lon="10.5438925"><ele>9.0</ele><time>2026-04-06T08:18:28.333Z</time></trkpt><trkpt lat="43.3247639" lon="10.5437379"><ele>9.0</ele><time>2026-04-06T08:18:29.336Z</time></trkpt><trkpt lat="43.3247127" lon="10.5435879"><ele>9.0</ele><time>2026-04-06T08:18:30.333Z</time></trkpt><trkpt lat="43.3246607" lon="10.5434386"><ele>9.0</ele><time>2026-04-06T08:18:31.333Z</time></trkpt><trkpt lat="43.324612" lon="10.5432862"><ele>9.0</ele><time>2026-04-06T08:18:32.333Z</time></trkpt><trkpt lat="43.3245634" lon="10.5431292"><ele>9.0</ele><time>2026-04-06T08:18:33.334Z</time></trkpt><trkpt lat="43.3245122" lon="10.5429713"><ele>9.0</ele><time>2026-04-06T08:18:34.332Z</time></trkpt><trkpt lat="43.3244579" lon="10.5428113"><ele>9.0</ele><time>2026-04-06T08:18:35.332Z</time></trkpt><trkpt lat="43.324404" lon="10.5426492"><ele>9.0</ele><time>2026-04-06T08:18:36.337Z</time></trkpt><trkpt lat="43.32435" lon="10.5424878"><ele>9.0</ele><time>2026-04-06T08:18:37.332Z</time></trkpt><trkpt lat="43.3242972" lon="10.5423233"><ele>9.0</ele><time>2026-04-06T08:18:38.334Z</time></trkpt><trkpt lat="43.3242446" lon="10.5421578"><ele>9.0</ele><time>2026-04-06T08:18:39.335Z</time></trkpt><trkpt lat="43.3241908" lon="10.5419946"><ele>8.75</ele><time>2026-04-06T08:18:40.332Z</time></trkpt><trkpt lat="43.3241363" lon="10.5418295"><ele>8.5</ele><time>2026-04-06T08:18:41.334Z</time></trkpt><trkpt lat="43.3240829" lon="10.5416642"><ele>8.25</ele><time>2026-04-06T08:18:42.333Z</time></trkpt><trkpt lat="43.3240284" lon="10.5414979"><ele>8.0</ele><time>2026-04-06T08:18:43.333Z</time></trkpt><trkpt lat="43.3239744" lon="10.5413312"><ele>7.75</ele><time>2026-04-06T08:18:44.335Z</time></trkpt><trkpt lat="43.3239211" lon="10.541167"><ele>7.5</ele><time>2026-04-06T08:18:45.332Z</time></trkpt><trkpt lat="43.3238684" lon="10.5410037"><ele>7.25</ele><time>2026-04-06T08:18:46.334Z</time></trkpt><trkpt lat="43.3238166" lon="10.5408409"><ele>7.0</ele><time>2026-04-06T08:18:47.333Z</time></trkpt><trkpt lat="43.3237665" lon="10.5406799"><ele>7.25</ele><time>2026-04-06T08:18:48.333Z</time></trkpt><trkpt lat="43.3237148" lon="10.5405198"><ele>7.5</ele><time>2026-04-06T08:18:49.334Z</time></trkpt><trkpt lat="43.323663" lon="10.540361"><ele>7.75</ele><time>2026-04-06T08:18:50.336Z</time></trkpt><trkpt lat="43.323611" lon="10.5402045"><ele>8.0</ele><time>2026-04-06T08:18:51.332Z</time></trkpt><trkpt lat="43.3235593" lon="10.5400502"><ele>8.0</ele><time>2026-04-06T08:18:52.334Z</time></trkpt><trkpt lat="43.3235088" lon="10.5398956"><ele>8.0</ele><time>2026-04-06T08:18:53.332Z</time></trkpt><trkpt lat="43.3234577" lon="10.5397367"><ele>8.0</ele><time>2026-04-06T08:18:54.336Z</time></trkpt><trkpt lat="43.3234064" lon="10.539577"><ele>8.0</ele><time>2026-04-06T08:18:55.335Z</time></trkpt><trkpt lat="43.3233537" lon="10.5394156"><ele>8.0</ele><time>2026-04-06T08:18:56.339Z</time></trkpt><trkpt lat="43.3233018" lon="10.5392559"><ele>8.0</ele><time>2026-04-06T08:18:57.334Z</time></trkpt><trkpt lat="43.3232494" lon="10.5390988"><ele>8.0</ele><time>2026-04-06T08:18:58.336Z</time></trkpt><trkpt lat="43.3231974" lon="10.5389376"><ele>8.0</ele><time>2026-04-06T08:18:59.336Z</time></trkpt><trkpt lat="43.3231448" lon="10.5387756"><ele>8.25</ele><time>2026-04-06T08:19:00.333Z</time></trkpt><trkpt lat="43.3230927" lon="10.538613"><ele>8.5</ele><time>2026-04-06T08:19:01.339Z</time></trkpt><trkpt lat="43.3230398" lon="10.5384524"><ele>8.75</ele><time>2026-04-06T08:19:02.334Z</time></trkpt><trkpt lat="43.3229852" lon="10.538292"><ele>9.0</ele><time>2026-04-06T08:19:03.336Z</time></trkpt><trkpt lat="43.3229313" lon="10.5381314"><ele>9.0</ele><time>2026-04-06T08:19:04.333Z</time></trkpt><trkpt lat="43.3228786" lon="10.5379712"><ele>9.0</ele><time>2026-04-06T08:19:05.334Z</time></trkpt><trkpt lat="43.322826" lon="10.5378105"><ele>9.0</ele><time>2026-04-06T08:19:06.335Z</time></trkpt><trkpt lat="43.3227745" lon="10.5376501"><ele>9.0</ele><time>2026-04-06T08:19:07.334Z</time></trkpt><trkpt lat="43.3227259" lon="10.5374901"><ele>9.0</ele><time>2026-04-06T08:19:08.333Z</time></trkpt><trkpt lat="43.3226777" lon="10.5373325"><ele>9.0</ele><time>2026-04-06T08:19:09.334Z</time></trkpt><trkpt lat="43.3226284" lon="10.5371779"><ele>9.0</ele><time>2026-04-06T08:19:10.332Z</time></trkpt><trkpt lat="43.3225783" lon="10.5370247"><ele>9.0</ele><time>2026-04-06T08:19:11.337Z</time></trkpt><trkpt lat="43.322531" lon="10.5368762"><ele>9.0</ele><time>2026-04-06T08:19:12.332Z</time></trkpt><trkpt lat="43.3224837" lon="10.5367326"><ele>9.0</ele><time>2026-04-06T08:19:13.332Z</time></trkpt><trkpt lat="43.3224343" lon="10.5365935"><ele>9.0</ele><time>2026-04-06T08:19:14.336Z</time></trkpt><trkpt lat="43.3223818" lon="10.536456"><ele>9.0</ele><time>2026-04-06T08:19:15.334Z</time></trkpt><trkpt lat="43.3223208" lon="10.5363266"><ele>9.25</ele><time>2026-04-06T08:19:16.337Z</time></trkpt><trkpt lat="43.3222441" lon="10.5362094"><ele>9.5</ele><time>2026-04-06T08:19:17.333Z</time></trkpt><trkpt lat="43.3221518" lon="10.5361008"><ele>9.75</ele><time>2026-04-06T08:19:18.33Z</time></trkpt><trkpt lat="43.3220469" lon="10.5359967"><ele>10.0</ele><time>2026-04-06T08:19:19.333Z</time></trkpt><trkpt lat="43.3219351" lon="10.5358934"><ele>10.0</ele><time>2026-04-06T08:19:20.337Z</time></trkpt><trkpt lat="43.3218202" lon="10.5357932"><ele>10.0</ele><time>2026-04-06T08:19:21.333Z</time></trkpt><trkpt lat="43.3217044" lon="10.5356882"><ele>10.0</ele><time>2026-04-06T08:19:22.333Z</time></trkpt><trkpt lat="43.3215929" lon="10.5355799"><ele>10.0</ele><time>2026-04-06T08:19:23.332Z</time></trkpt><trkpt lat="43.3214854" lon="10.5354758"><ele>10.0</ele><time>2026-04-06T08:19:24.332Z</time></trkpt><trkpt lat="43.3213813" lon="10.5353771"><ele>10.0</ele><time>2026-04-06T08:19:25.334Z</time></trkpt><trkpt lat="43.3212793" lon="10.5352808"><ele>10.0</ele><time>2026-04-06T08:19:26.333Z</time></trkpt><trkpt lat="43.3211777" lon="10.5351838"><ele>10.0</ele><time>2026-04-06T08:19:27.335Z</time></trkpt><trkpt lat="43.3210777" lon="10.5350883"><ele>10.0</ele><time>2026-04-06T08:19:28.331Z</time></trkpt><trkpt lat="43.3209778" lon="10.5349923"><ele>10.0</ele><time>2026-04-06T08:19:29.334Z</time></trkpt><trkpt lat="43.3208782" lon="10.534896"><ele>10.0</ele><time>2026-04-06T08:19:30.333Z</time></trkpt><trkpt lat="43.3207785" lon="10.5348057"><ele>10.0</ele><time>2026-04-06T08:19:31.332Z</time></trkpt><trkpt lat="43.3206758" lon="10.5347255"><ele>10.0</ele><time>2026-04-06T08:19:32.338Z</time></trkpt><trkpt lat="43.3205711" lon="10.5346606"><ele>10.0</ele><time>2026-04-06T08:19:33.332Z</time></trkpt><trkpt lat="43.3204596" lon="10.5346158"><ele>10.0</ele><time>2026-04-06T08:19:34.336Z</time></trkpt><trkpt lat="43.3203442" lon="10.5346012"><ele>10.0</ele><time>2026-04-06T08:19:35.332Z</time></trkpt><trkpt lat="43.3202225" lon="10.5346172"><ele>9.5</ele><time>2026-04-06T08:19:36.333Z</time></trkpt><trkpt lat="43.3201006" lon="10.534659"><ele>9.0</ele><time>2026-04-06T08:19:37.344Z</time></trkpt><trkpt lat="43.3199843" lon="10.5347188"><ele>8.5</ele><time>2026-04-06T08:19:38.337Z</time></trkpt><trkpt lat="43.3198736" lon="10.5347849"><ele>8.0</ele><time>2026-04-06T08:19:39.332Z</time></trkpt><trkpt lat="43.3197696" lon="10.5348482"><ele>8.4</ele><time>2026-04-06T08:19:40.332Z</time></trkpt><trkpt lat="43.3196701" lon="10.5349056"><ele>8.8</ele><time>2026-04-06T08:19:41.334Z</time></trkpt><trkpt lat="43.3195729" lon="10.5349574"><ele>9.2</ele><time>2026-04-06T08:19:42.332Z</time></trkpt><trkpt lat="43.3194771" lon="10.5350071"><ele>9.6</ele><time>2026-04-06T08:19:43.333Z</time></trkpt><trkpt lat="43.3193806" lon="10.5350563"><ele>10.0</ele><time>2026-04-06T08:19:44.335Z</time></trkpt><trkpt lat="43.3192837" lon="10.5351093"><ele>10.0</ele><time>2026-04-06T08:19:45.332Z</time></trkpt><trkpt lat="43.3191833" lon="10.5351684"><ele>10.0</ele><time>2026-04-06T08:19:46.333Z</time></trkpt><trkpt lat="43.3190783" lon="10.5352245"><ele>10.0</ele><time>2026-04-06T08:19:47.334Z</time></trkpt><trkpt lat="43.3189696" lon="10.5352763"><ele>10.0</ele><time>2026-04-06T08:19:48.333Z</time></trkpt><trkpt lat="43.3188565" lon="10.5353276"><ele>10.0</ele><time>2026-04-06T08:19:49.334Z</time></trkpt><trkpt lat="43.3187385" lon="10.5353743"><ele>10.0</ele><time>2026-04-06T08:19:50.342Z</time></trkpt><trkpt lat="43.3186149" lon="10.5354051"><ele>10.0</ele><time>2026-04-06T08:19:51.335Z</time></trkpt><trkpt lat="43.3184899" lon="10.5354092"><ele>10.0</ele><time>2026-04-06T08:19:52.333Z</time></trkpt><trkpt lat="43.3183672" lon="10.5353866"><ele>10.0</ele><time>2026-04-06T08:19:53.342Z</time></trkpt><trkpt lat="43.3182508" lon="10.5353415"><ele>10.0</ele><time>2026-04-06T08:19:54.333Z</time></trkpt><trkpt lat="43.3181387" lon="10.5352724"><ele>10.0</ele><time>2026-04-06T08:19:55.337Z</time></trkpt><trkpt lat="43.3180316" lon="10.5351806"><ele>10.0</ele><time>2026-04-06T08:19:56.334Z</time></trkpt><trkpt lat="43.3179338" lon="10.5350665"><ele>11.0</ele><time>2026-04-06T08:19:57.333Z</time></trkpt><trkpt lat="43.3178507" lon="10.5349343"><ele>12.0</ele><time>2026-04-06T08:19:58.336Z</time></trkpt><trkpt lat="43.3177835" lon="10.5347952"><ele>13.0</ele><time>2026-04-06T08:19:59.333Z</time></trkpt><trkpt lat="43.3177325" lon="10.5346523"><ele>14.0</ele><time>2026-04-06T08:20:00.333Z</time></trkpt><trkpt lat="43.3176933" lon="10.5345055"><ele>14.2</ele><time>2026-04-06T08:20:01.332Z</time></trkpt><trkpt lat="43.3176579" lon="10.5343611"><ele>14.399999999999999</ele><time>2026-04-06T08:20:02.335Z</time></trkpt><trkpt lat="43.317627" lon="10.5342264"><ele>14.6</ele><time>2026-04-06T08:20:03.334Z</time></trkpt><trkpt lat="43.3175984" lon="10.5341021"><ele>14.8</ele><time>2026-04-06T08:20:04.333Z</time></trkpt><trkpt lat="43.3175722" lon="10.5339918"><ele>15.0</ele><time>2026-04-06T08:20:05.334Z</time></trkpt><trkpt lat="43.3175497" lon="10.5338963"><ele>15.0</ele><time>2026-04-06T08:20:06.342Z</time></trkpt><trkpt lat="43.3175418" lon="10.53377"><ele>15.0</ele><time>2026-04-06T08:20:08.338Z</time></trkpt><trkpt lat="43.3175743" lon="10.533654"><ele>15.0</ele><time>2026-04-06T08:20:11.333Z</time></trkpt><trkpt lat="43.3175661" lon="10.5335322"><ele>15.0</ele><time>2026-04-06T08:20:13.332Z</time></trkpt><trkpt lat="43.3174855" lon="10.5334056"><ele>15.0</ele><time>2026-04-06T08:20:15.332Z</time></trkpt><trkpt lat="43.3174341" lon="10.5333524"><ele>15.0</ele><time>2026-04-06T08:20:16.334Z</time></trkpt><trkpt lat="43.3173615" lon="10.5333072"><ele>15.0</ele><time>2026-04-06T08:20:17.336Z</time></trkpt><trkpt lat="43.3172922" lon="10.5332504"><ele>15.0</ele><time>2026-04-06T08:20:18.333Z</time></trkpt><trkpt lat="43.3172238" lon="10.5331798"><ele>15.0</ele><time>2026-04-06T08:20:19.333Z</time></trkpt><trkpt lat="43.3171508" lon="10.5330985"><ele>15.0</ele><time>2026-04-06T08:20:20.333Z</time></trkpt><trkpt lat="43.3170715" lon="10.5330201"><ele>15.0</ele><time>2026-04-06T08:20:21.332Z</time></trkpt><trkpt lat="43.3169822" lon="10.5329508"><ele>15.0</ele><time>2026-04-06T08:20:22.333Z</time></trkpt><trkpt lat="43.3168838" lon="10.5328932"><ele>15.0</ele><time>2026-04-06T08:20:23.332Z</time></trkpt><trkpt lat="43.3167848" lon="10.5328519"><ele>15.0</ele><time>2026-04-06T08:20:24.331Z</time></trkpt><trkpt lat="43.316683" lon="10.5328241"><ele>15.0</ele><time>2026-04-06T08:20:25.332Z</time></trkpt><trkpt lat="43.3165768" lon="10.5328047"><ele>15.0</ele><time>2026-04-06T08:20:26.334Z</time></trkpt><trkpt lat="43.3164635" lon="10.5328053"><ele>15.5</ele><time>2026-04-06T08:20:27.336Z</time></trkpt><trkpt lat="43.3163493" lon="10.5328265"><ele>16.0</ele><time>2026-04-06T08:20:28.332Z</time></trkpt><trkpt lat="43.3162354" lon="10.5328657"><ele>16.5</ele><time>2026-04-06T08:20:29.335Z</time></trkpt><trkpt lat="43.3161216" lon="10.5329189"><ele>17.0</ele><time>2026-04-06T08:20:30.337Z</time></trkpt><trkpt lat="43.3160129" lon="10.5329711"><ele>17.4</ele><time>2026-04-06T08:20:31.336Z</time></trkpt><trkpt lat="43.3159093" lon="10.5330136"><ele>17.799999999999997</ele><time>2026-04-06T08:20:32.333Z</time></trkpt><trkpt lat="43.3158128" lon="10.5330567"><ele>18.2</ele><time>2026-04-06T08:20:33.333Z</time></trkpt><trkpt lat="43.3157198" lon="10.5331025"><ele>18.599999999999998</ele><time>2026-04-06T08:20:34.334Z</time></trkpt><trkpt lat="43.3156302" lon="10.5331492"><ele>19.0</ele><time>2026-04-06T08:20:35.331Z</time></trkpt><trkpt lat="43.3155418" lon="10.5331976"><ele>19.6</ele><time>2026-04-06T08:20:36.335Z</time></trkpt><trkpt lat="43.3154546" lon="10.5332432"><ele>20.2</ele><time>2026-04-06T08:20:37.333Z</time></trkpt><trkpt lat="43.315369" lon="10.5332916"><ele>20.8</ele><time>2026-04-06T08:20:38.339Z</time></trkpt><trkpt lat="43.3152835" lon="10.5333449"><ele>21.400000000000002</ele><time>2026-04-06T08:20:39.333Z</time></trkpt><trkpt lat="43.3151968" lon="10.5333968"><ele>22.0</ele><time>2026-04-06T08:20:40.34Z</time></trkpt><trkpt lat="43.3151136" lon="10.5334409"><ele>22.0</ele><time>2026-04-06T08:20:41.334Z</time></trkpt><trkpt lat="43.3150357" lon="10.5334717"><ele>22.0</ele><time>2026-04-06T08:20:42.332Z</time></trkpt><trkpt lat="43.3149612" lon="10.5334862"><ele>22.0</ele><time>2026-04-06T08:20:43.334Z</time></trkpt><trkpt lat="43.3148921" lon="10.5334812"><ele>22.0</ele><time>2026-04-06T08:20:44.337Z</time></trkpt><trkpt lat="43.3148275" lon="10.5334585"><ele>22.0</ele><time>2026-04-06T08:20:45.337Z</time></trkpt><trkpt lat="43.3147621" lon="10.5334281"><ele>22.0</ele><time>2026-04-06T08:20:46.335Z</time></trkpt><trkpt lat="43.3146949" lon="10.5333908"><ele>22.0</ele><time>2026-04-06T08:20:47.336Z</time></trkpt><trkpt lat="43.3146261" lon="10.5333489"><ele>22.571428571428573</ele><time>2026-04-06T08:20:48.333Z</time></trkpt><trkpt lat="43.3145584" lon="10.533311"><ele>23.142857142857142</ele><time>2026-04-06T08:20:49.334Z</time></trkpt><trkpt lat="43.3144905" lon="10.5332854"><ele>23.714285714285715</ele><time>2026-04-06T08:20:50.339Z</time></trkpt><trkpt lat="43.3144228" lon="10.5332738"><ele>24.285714285714285</ele><time>2026-04-06T08:20:51.332Z</time></trkpt><trkpt lat="43.3143537" lon="10.5332762"><ele>24.857142857142858</ele><time>2026-04-06T08:20:52.333Z</time></trkpt><trkpt lat="43.3142837" lon="10.5332959"><ele>25.428571428571427</ele><time>2026-04-06T08:20:53.333Z</time></trkpt><trkpt lat="43.3142192" lon="10.5333341"><ele>26.0</ele><time>2026-04-06T08:20:54.332Z</time></trkpt><trkpt lat="43.3141621" lon="10.5333856"><ele>26.0</ele><time>2026-04-06T08:20:55.333Z</time></trkpt><trkpt lat="43.3141129" lon="10.5334582"><ele>26.0</ele><time>2026-04-06T08:20:56.332Z</time></trkpt><trkpt lat="43.3140371" lon="10.5336288"><ele>26.0</ele><time>2026-04-06T08:20:58.333Z</time></trkpt><trkpt lat="43.3140175" lon="10.5337328"><ele>26.0</ele><time>2026-04-06T08:20:59.333Z</time></trkpt><trkpt lat="43.3140092" lon="10.5338424"><ele>26.0</ele><time>2026-04-06T08:21:00.332Z</time></trkpt><trkpt lat="43.3140067" lon="10.533944"><ele>26.285714285714285</ele><time>2026-04-06T08:21:01.334Z</time></trkpt><trkpt lat="43.3140096" lon="10.5340388"><ele>26.571428571428573</ele><time>2026-04-06T08:21:02.337Z</time></trkpt><trkpt lat="43.3140123" lon="10.5341304"><ele>26.857142857142858</ele><time>2026-04-06T08:21:03.332Z</time></trkpt><trkpt lat="43.3140064" lon="10.5342193"><ele>27.142857142857142</ele><time>2026-04-06T08:21:04.334Z</time></trkpt><trkpt lat="43.3139889" lon="10.534303"><ele>27.42857142857143</ele><time>2026-04-06T08:21:05.335Z</time></trkpt><trkpt lat="43.3139142" lon="10.5344246"><ele>27.714285714285715</ele><time>2026-04-06T08:21:07.332Z</time></trkpt><trkpt lat="43.3138588" lon="10.5344706"><ele>28.0</ele><time>2026-04-06T08:21:08.334Z</time></trkpt><trkpt lat="43.3138069" lon="10.5345274"><ele>28.166666666666668</ele><time>2026-04-06T08:21:09.333Z</time></trkpt><trkpt lat="43.3137514" lon="10.5345842"><ele>28.333333333333336</ele><time>2026-04-06T08:21:10.334Z</time></trkpt><trkpt lat="43.3136928" lon="10.5346337"><ele>28.5</ele><time>2026-04-06T08:21:11.336Z</time></trkpt><trkpt lat="43.3136353" lon="10.5346753"><ele>28.666666666666664</ele><time>2026-04-06T08:21:12.334Z</time></trkpt><trkpt lat="43.3135317" lon="10.53475"><ele>28.833333333333332</ele><time>2026-04-06T08:21:14.336Z</time></trkpt><trkpt lat="43.3134417" lon="10.5348233"><ele>29.0</ele><time>2026-04-06T08:21:16.333Z</time></trkpt><trkpt lat="43.3133617" lon="10.5348867"><ele>28.999999999999996</ele><time>2026-04-06T08:21:18.334Z</time></trkpt><trkpt lat="43.313305" lon="10.5349333"><ele>29.0</ele><time>2026-04-06T08:21:20.341Z</time></trkpt><trkpt lat="43.31338" lon="10.5349683"><ele>29.0</ele><time>2026-04-06T08:21:36.333Z</time></trkpt><trkpt lat="43.3134633" lon="10.5349083"><ele>29.0</ele><time>2026-04-06T08:21:38.334Z</time></trkpt><trkpt lat="43.3135517" lon="10.5348433"><ele>28.999999999999996</ele><time>2026-04-06T08:21:40.336Z</time></trkpt><trkpt lat="43.313645" lon="10.53478"><ele>29.0</ele><time>2026-04-06T08:21:42.339Z</time></trkpt><trkpt lat="43.3137267" lon="10.5347183"><ele>28.999999999999996</ele><time>2026-04-06T08:21:44.334Z</time></trkpt><trkpt lat="43.3138" lon="10.53465"><ele>29.0</ele><time>2026-04-06T08:21:46.333Z</time></trkpt><trkpt lat="43.3138783" lon="10.5345767"><ele>29.0</ele><time>2026-04-06T08:21:48.337Z</time></trkpt><trkpt lat="43.313945" lon="10.5345033"><ele>29.0</ele><time>2026-04-06T08:21:50.335Z</time></trkpt><trkpt lat="43.3140083" lon="10.5344367"><ele>28.999999999999996</ele><time>2026-04-06T08:21:52.334Z</time></trkpt><trkpt lat="43.31408" lon="10.5343933"><ele>29.0</ele><time>2026-04-06T08:21:54.344Z</time></trkpt><trkpt lat="43.3141667" lon="10.5343633"><ele>28.799999999999997</ele><time>2026-04-06T08:21:56.337Z</time></trkpt><trkpt lat="43.3142767" lon="10.5343717"><ele>28.599999999999998</ele><time>2026-04-06T08:21:58.334Z</time></trkpt><trkpt lat="43.31438" lon="10.534425"><ele>28.4</ele><time>2026-04-06T08:22:00.336Z</time></trkpt><trkpt lat="43.3144283" lon="10.53452"><ele>28.2</ele><time>2026-04-06T08:22:02.335Z</time></trkpt><trkpt lat="43.3143733" lon="10.534625"><ele>28.0</ele><time>2026-04-06T08:22:04.333Z</time></trkpt><trkpt lat="43.3142717" lon="10.534685"><ele>28.285714285714285</ele><time>2026-04-06T08:22:06.333Z</time></trkpt><trkpt lat="43.3142117" lon="10.5347117"><ele>28.57142857142857</ele><time>2026-04-06T08:22:07.333Z</time></trkpt><trkpt lat="43.314145" lon="10.5347483"><ele>28.857142857142858</ele><time>2026-04-06T08:22:08.333Z</time></trkpt><trkpt lat="43.3140833" lon="10.5347967"><ele>29.142857142857142</ele><time>2026-04-06T08:22:09.334Z</time></trkpt><trkpt lat="43.3140317" lon="10.5348567"><ele>29.428571428571427</ele><time>2026-04-06T08:22:10.333Z</time></trkpt><trkpt lat="43.3139917" lon="10.53493"><ele>29.714285714285715</ele><time>2026-04-06T08:22:11.333Z</time></trkpt><trkpt lat="43.313965" lon="10.535015"><ele>30.0</ele><time>2026-04-06T08:22:12.334Z</time></trkpt><trkpt lat="43.3139533" lon="10.5351083"><ele>30.0</ele><time>2026-04-06T08:22:13.34Z</time></trkpt><trkpt lat="43.3139517" lon="10.5352133"><ele>30.0</ele><time>2026-04-06T08:22:14.339Z</time></trkpt><trkpt lat="43.3139633" lon="10.5353217"><ele>30.0</ele><time>2026-04-06T08:22:15.334Z</time></trkpt><trkpt lat="43.31398" lon="10.5354283"><ele>30.0</ele><time>2026-04-06T08:22:16.333Z</time></trkpt><trkpt lat="43.314" lon="10.5355333"><ele>30.0</ele><time>2026-04-06T08:22:17.333Z</time></trkpt><trkpt lat="43.3140233" lon="10.535635"><ele>30.0</ele><time>2026-04-06T08:22:18.334Z</time></trkpt><trkpt lat="43.31405" lon="10.5357333"><ele>29.833333333333332</ele><time>2026-04-06T08:22:19.333Z</time></trkpt><trkpt lat="43.3140767" lon="10.5358283"><ele>29.666666666666664</ele><time>2026-04-06T08:22:20.339Z</time></trkpt><trkpt lat="43.3141033" lon="10.5359233"><ele>29.5</ele><time>2026-04-06T08:22:21.333Z</time></trkpt><trkpt lat="43.3141317" lon="10.53602"><ele>29.333333333333332</ele><time>2026-04-06T08:22:22.334Z</time></trkpt><trkpt lat="43.3141533" lon="10.5361283"><ele>29.166666666666664</ele><time>2026-04-06T08:22:23.332Z</time></trkpt><trkpt lat="43.3141683" lon="10.536235"><ele>29.0</ele><time>2026-04-06T08:22:24.332Z</time></trkpt><trkpt lat="43.3141883" lon="10.5363367"><ele>28.166666666666664</ele><time>2026-04-06T08:22:25.337Z</time></trkpt><trkpt lat="43.314205" lon="10.5364417"><ele>27.333333333333332</ele><time>2026-04-06T08:22:26.333Z</time></trkpt><trkpt lat="43.3142233" lon="10.53655"><ele>26.5</ele><time>2026-04-06T08:22:27.334Z</time></trkpt><trkpt lat="43.3142417" lon="10.5366683"><ele>25.666666666666664</ele><time>2026-04-06T08:22:28.333Z</time></trkpt><trkpt lat="43.3142633" lon="10.5367833"><ele>24.833333333333332</ele><time>2026-04-06T08:22:29.332Z</time></trkpt><trkpt lat="43.3142783" lon="10.5368967"><ele>24.0</ele><time>2026-04-06T08:22:30.342Z</time></trkpt><trkpt lat="43.3142933" lon="10.537"><ele>22.666666666666668</ele><time>2026-04-06T08:22:31.334Z</time></trkpt><trkpt lat="43.31431" lon="10.5370983"><ele>21.333333333333332</ele><time>2026-04-06T08:22:32.342Z</time></trkpt><trkpt lat="43.3143233" lon="10.537195"><ele>20.0</ele><time>2026-04-06T08:22:33.336Z</time></trkpt><trkpt lat="43.3143333" lon="10.537285"><ele>18.666666666666664</ele><time>2026-04-06T08:22:34.335Z</time></trkpt><trkpt lat="43.3143567" lon="10.5374383"><ele>17.333333333333332</ele><time>2026-04-06T08:22:36.343Z</time></trkpt><trkpt lat="43.3143783" lon="10.537555"><ele>16.0</ele><time>2026-04-06T08:22:38.34Z</time></trkpt><trkpt lat="43.3144" lon="10.5376733"><ele>16.0</ele><time>2026-04-06T08:22:41.334Z</time></trkpt><trkpt lat="43.3143967" lon="10.5375333"><ele>16.0</ele><time>2026-04-06T08:23:44.338Z</time></trkpt><trkpt lat="43.3143733" lon="10.5373883"><ele>16.0</ele><time>2026-04-06T08:23:46.336Z</time></trkpt><trkpt lat="43.3143583" lon="10.5372217"><ele>16.0</ele><time>2026-04-06T08:23:48.336Z</time></trkpt><trkpt lat="43.3143517" lon="10.537135"><ele>16.0</ele><time>2026-04-06T08:23:49.336Z</time></trkpt><trkpt lat="43.3143417" lon="10.5370467"><ele>17.142857142857142</ele><time>2026-04-06T08:23:50.336Z</time></trkpt><trkpt lat="43.31433" lon="10.5369567"><ele>18.285714285714285</ele><time>2026-04-06T08:23:51.335Z</time></trkpt><trkpt lat="43.3143167" lon="10.5368633"><ele>19.428571428571427</ele><time>2026-04-06T08:23:52.335Z</time></trkpt><trkpt lat="43.3143017" lon="10.5367683"><ele>20.57142857142857</ele><time>2026-04-06T08:23:53.334Z</time></trkpt><trkpt lat="43.3142867" lon="10.5366667"><ele>21.714285714285715</ele><time>2026-04-06T08:23:54.335Z</time></trkpt><trkpt lat="43.314275" lon="10.5365683"><ele>22.857142857142854</ele><time>2026-04-06T08:23:55.341Z</time></trkpt><trkpt lat="43.314265" lon="10.5364767"><ele>24.0</ele><time>2026-04-06T08:23:56.337Z</time></trkpt><trkpt lat="43.3142533" lon="10.53639"><ele>24.0</ele><time>2026-04-06T08:23:57.338Z</time></trkpt><trkpt lat="43.31422" lon="10.536225"><ele>24.0</ele><time>2026-04-06T08:23:59.337Z</time></trkpt><trkpt lat="43.3142" lon="10.53614"><ele>24.0</ele><time>2026-04-06T08:24:00.335Z</time></trkpt><trkpt lat="43.31418" lon="10.5360567"><ele>24.0</ele><time>2026-04-06T08:24:01.339Z</time></trkpt><trkpt lat="43.31416" lon="10.53597"><ele>24.0</ele><time>2026-04-06T08:24:02.338Z</time></trkpt><trkpt lat="43.3141283" lon="10.5358817"><ele>24.0</ele><time>2026-04-06T08:24:03.337Z</time></trkpt><trkpt lat="43.3140933" lon="10.5357917"><ele>24.833333333333332</ele><time>2026-04-06T08:24:04.339Z</time></trkpt><trkpt lat="43.3140667" lon="10.5356917"><ele>25.666666666666664</ele><time>2026-04-06T08:24:05.344Z</time></trkpt><trkpt lat="43.3140417" lon="10.535585"><ele>26.5</ele><time>2026-04-06T08:24:06.339Z</time></trkpt><trkpt lat="43.3140233" lon="10.5354817"><ele>27.333333333333332</ele><time>2026-04-06T08:24:07.339Z</time></trkpt><trkpt lat="43.3140083" lon="10.5353767"><ele>28.166666666666664</ele><time>2026-04-06T08:24:08.338Z</time></trkpt><trkpt lat="43.3140033" lon="10.5352733"><ele>29.0</ele><time>2026-04-06T08:24:09.336Z</time></trkpt><trkpt lat="43.3140067" lon="10.5351717"><ele>29.166666666666664</ele><time>2026-04-06T08:24:10.336Z</time></trkpt><trkpt lat="43.3140133" lon="10.5350767"><ele>29.333333333333332</ele><time>2026-04-06T08:24:11.338Z</time></trkpt><trkpt lat="43.3140317" lon="10.534985"><ele>29.5</ele><time>2026-04-06T08:24:12.342Z</time></trkpt><trkpt lat="43.3140683" lon="10.534905"><ele>29.666666666666664</ele><time>2026-04-06T08:24:13.335Z</time></trkpt><trkpt lat="43.31412" lon="10.5348483"><ele>29.833333333333332</ele><time>2026-04-06T08:24:14.337Z</time></trkpt><trkpt lat="43.31418" lon="10.5348133"><ele>30.0</ele><time>2026-04-06T08:24:15.337Z</time></trkpt><trkpt lat="43.3142933" lon="10.534775"><ele>30.0</ele><time>2026-04-06T08:24:17.341Z</time></trkpt><trkpt lat="43.3143867" lon="10.5347283"><ele>30.0</ele><time>2026-04-06T08:24:19.337Z</time></trkpt><trkpt lat="43.31445" lon="10.5346467"><ele>30.0</ele><time>2026-04-06T08:24:21.337Z</time></trkpt><trkpt lat="43.31448" lon="10.534535"><ele>30.0</ele><time>2026-04-06T08:24:23.337Z</time></trkpt><trkpt lat="43.3145033" lon="10.5344117"><ele>30.0</ele><time>2026-04-06T08:24:25.338Z</time></trkpt><trkpt lat="43.3145517" lon="10.53427"><ele>29.5</ele><time>2026-04-06T08:24:27.341Z</time></trkpt><trkpt lat="43.3146217" lon="10.53414"><ele>29.0</ele><time>2026-04-06T08:24:29.337Z</time></trkpt><trkpt lat="43.31468" lon="10.5339883"><ele>28.5</ele><time>2026-04-06T08:24:31.337Z</time></trkpt><trkpt lat="43.3147033" lon="10.53382"><ele>28.0</ele><time>2026-04-06T08:24:33.338Z</time></trkpt><trkpt lat="43.3146833" lon="10.5336533"><ele>27.714285714285715</ele><time>2026-04-06T08:24:35.337Z</time></trkpt><trkpt lat="43.3146517" lon="10.5335683"><ele>27.42857142857143</ele><time>2026-04-06T08:24:36.344Z</time></trkpt><trkpt lat="43.3146117" lon="10.5334867"><ele>27.142857142857142</ele><time>2026-04-06T08:24:37.334Z</time></trkpt><trkpt lat="43.3145617" lon="10.5334183"><ele>26.857142857142858</ele><time>2026-04-06T08:24:38.335Z</time></trkpt><trkpt lat="43.314505" lon="10.5333667"><ele>26.571428571428573</ele><time>2026-04-06T08:24:39.333Z</time></trkpt><trkpt lat="43.3144417" lon="10.53333"><ele>26.285714285714285</ele><time>2026-04-06T08:24:40.337Z</time></trkpt><trkpt lat="43.314375" lon="10.5333133"><ele>26.0</ele><time>2026-04-06T08:24:41.34Z</time></trkpt><trkpt lat="43.3143067" lon="10.5333133"><ele>26.0</ele><time>2026-04-06T08:24:42.338Z</time></trkpt><trkpt lat="43.31424" lon="10.533335"><ele>26.0</ele><time>2026-04-06T08:24:43.336Z</time></trkpt><trkpt lat="43.3141767" lon="10.5333733"><ele>26.0</ele><time>2026-04-06T08:24:44.346Z</time></trkpt><trkpt lat="43.3141183" lon="10.53342"><ele>26.0</ele><time>2026-04-06T08:24:45.335Z</time></trkpt><trkpt lat="43.31407" lon="10.5334883"><ele>26.0</ele><time>2026-04-06T08:24:46.337Z</time></trkpt><trkpt lat="43.3140333" lon="10.5335717"><ele>26.0</ele><time>2026-04-06T08:24:47.338Z</time></trkpt><trkpt lat="43.3140083" lon="10.53367"><ele>26.0</ele><time>2026-04-06T08:24:48.341Z</time></trkpt><trkpt lat="43.3139983" lon="10.533765"><ele>26.285714285714285</ele><time>2026-04-06T08:24:49.338Z</time></trkpt><trkpt lat="43.3139917" lon="10.5338617"><ele>26.571428571428573</ele><time>2026-04-06T08:24:50.339Z</time></trkpt><trkpt lat="43.31399" lon="10.533955"><ele>26.857142857142858</ele><time>2026-04-06T08:24:51.338Z</time></trkpt><trkpt lat="43.3139917" lon="10.5340517"><ele>27.142857142857142</ele><time>2026-04-06T08:24:52.336Z</time></trkpt><trkpt lat="43.3139917" lon="10.5341483"><ele>27.42857142857143</ele><time>2026-04-06T08:24:53.344Z</time></trkpt><trkpt lat="43.3139767" lon="10.53425"><ele>27.714285714285715</ele><time>2026-04-06T08:24:54.338Z</time></trkpt><trkpt lat="43.3139467" lon="10.5343483"><ele>28.0</ele><time>2026-04-06T08:24:55.34Z</time></trkpt><trkpt lat="43.3139" lon="10.53443"><ele>28.000000000000004</ele><time>2026-04-06T08:24:56.338Z</time></trkpt><trkpt lat="43.3138417" lon="10.534495"><ele>28.0</ele><time>2026-04-06T08:24:57.335Z</time></trkpt><trkpt lat="43.3137783" lon="10.53455"><ele>28.0</ele><time>2026-04-06T08:24:58.334Z</time></trkpt><trkpt lat="43.313715" lon="10.5346017"><ele>28.0</ele><time>2026-04-06T08:24:59.335Z</time></trkpt><trkpt lat="43.3136467" lon="10.5346583"><ele>28.000000000000004</ele><time>2026-04-06T08:25:00.335Z</time></trkpt><trkpt lat="43.3135733" lon="10.5347167"><ele>28.0</ele><time>2026-04-06T08:25:01.336Z</time></trkpt><trkpt lat="43.313495" lon="10.5347817"><ele>28.166666666666668</ele><time>2026-04-06T08:25:02.335Z</time></trkpt><trkpt lat="43.3134183" lon="10.5348433"><ele>28.333333333333336</ele><time>2026-04-06T08:25:03.334Z</time></trkpt><trkpt lat="43.3133433" lon="10.5349083"><ele>28.5</ele><time>2026-04-06T08:25:04.335Z</time></trkpt><trkpt lat="43.3132717" lon="10.5349783"><ele>28.666666666666664</ele><time>2026-04-06T08:25:05.337Z</time></trkpt><trkpt lat="43.3131983" lon="10.53505"><ele>28.833333333333332</ele><time>2026-04-06T08:25:06.337Z</time></trkpt><trkpt lat="43.31312" lon="10.53512"><ele>29.0</ele><time>2026-04-06T08:25:07.338Z</time></trkpt><trkpt lat="43.3130433" lon="10.53519"><ele>28.4</ele><time>2026-04-06T08:25:08.339Z</time></trkpt><trkpt lat="43.312965" lon="10.5352617"><ele>27.799999999999997</ele><time>2026-04-06T08:25:09.337Z</time></trkpt><trkpt lat="43.312885" lon="10.53534"><ele>27.200000000000003</ele><time>2026-04-06T08:25:10.345Z</time></trkpt><trkpt lat="43.3128033" lon="10.5354183"><ele>26.6</ele><time>2026-04-06T08:25:11.344Z</time></trkpt><trkpt lat="43.3127183" lon="10.5354983"><ele>26.0</ele><time>2026-04-06T08:25:12.347Z</time></trkpt><trkpt lat="43.3126283" lon="10.535575"><ele>26.0</ele><time>2026-04-06T08:25:13.34Z</time></trkpt><trkpt lat="43.3125383" lon="10.53565"><ele>26.0</ele><time>2026-04-06T08:25:14.339Z</time></trkpt><trkpt lat="43.3124517" lon="10.535725"><ele>26.0</ele><time>2026-04-06T08:25:15.336Z</time></trkpt><trkpt lat="43.312365" lon="10.5358017"><ele>26.0</ele><time>2026-04-06T08:25:16.339Z</time></trkpt><trkpt lat="43.31228" lon="10.53588"><ele>26.0</ele><time>2026-04-06T08:25:17.34Z</time></trkpt><trkpt lat="43.3121933" lon="10.535965"><ele>25.8</ele><time>2026-04-06T08:25:18.339Z</time></trkpt><trkpt lat="43.3121033" lon="10.5360417"><ele>25.6</ele><time>2026-04-06T08:25:19.339Z</time></trkpt><trkpt lat="43.3120117" lon="10.53612"><ele>25.4</ele><time>2026-04-06T08:25:20.339Z</time></trkpt><trkpt lat="43.3119183" lon="10.5361967"><ele>25.2</ele><time>2026-04-06T08:25:21.338Z</time></trkpt><trkpt lat="43.311825" lon="10.5362733"><ele>25.0</ele><time>2026-04-06T08:25:22.339Z</time></trkpt><trkpt lat="43.3117367" lon="10.5363467"><ele>25.0</ele><time>2026-04-06T08:25:23.339Z</time></trkpt><trkpt lat="43.31165" lon="10.5364267"><ele>25.0</ele><time>2026-04-06T08:25:24.342Z</time></trkpt><trkpt lat="43.3115633" lon="10.5365033"><ele>25.0</ele><time>2026-04-06T08:25:25.338Z</time></trkpt><trkpt lat="43.3114767" lon="10.536575"><ele>25.0</ele><time>2026-04-06T08:25:26.338Z</time></trkpt><trkpt lat="43.3113883" lon="10.5366483"><ele>25.0</ele><time>2026-04-06T08:25:27.338Z</time></trkpt><trkpt lat="43.3113017" lon="10.5367233"><ele>25.0</ele><time>2026-04-06T08:25:28.336Z</time></trkpt><trkpt lat="43.31122" lon="10.5367967"><ele>25.0</ele><time>2026-04-06T08:25:29.337Z</time></trkpt><trkpt lat="43.3111367" lon="10.5368717"><ele>25.0</ele><time>2026-04-06T08:25:30.336Z</time></trkpt><trkpt lat="43.3110567" lon="10.5369417"><ele>25.0</ele><time>2026-04-06T08:25:31.336Z</time></trkpt><trkpt lat="43.310975" lon="10.5370133"><ele>25.0</ele><time>2026-04-06T08:25:32.345Z</time></trkpt><trkpt lat="43.3108967" lon="10.5370867"><ele>25.0</ele><time>2026-04-06T08:25:33.337Z</time></trkpt><trkpt lat="43.3108183" lon="10.5371667"><ele>25.0</ele><time>2026-04-06T08:25:34.338Z</time></trkpt><trkpt lat="43.3107417" lon="10.53724"><ele>25.0</ele><time>2026-04-06T08:25:35.337Z</time></trkpt><trkpt lat="43.310665" lon="10.5373083"><ele>25.0</ele><time>2026-04-06T08:25:36.34Z</time></trkpt><trkpt lat="43.31059" lon="10.537375"><ele>25.0</ele><time>2026-04-06T08:25:37.339Z</time></trkpt><trkpt lat="43.3105133" lon="10.5374283"><ele>25.0</ele><time>2026-04-06T08:25:38.339Z</time></trkpt><trkpt lat="43.3104383" lon="10.53746"><ele>25.0</ele><time>2026-04-06T08:25:39.34Z</time></trkpt><trkpt lat="43.31037" lon="10.5374767"><ele>25.0</ele><time>2026-04-06T08:25:40.338Z</time></trkpt><trkpt lat="43.310265" lon="10.5375117"><ele>25.0</ele><time>2026-04-06T08:25:42.337Z</time></trkpt><trkpt lat="43.3101967" lon="10.5376067"><ele>25.0</ele><time>2026-04-06T08:25:44.339Z</time></trkpt><trkpt lat="43.3101267" lon="10.537745"><ele>25.000000000000004</ele><time>2026-04-06T08:25:46.336Z</time></trkpt><trkpt lat="43.3100733" lon="10.537815"><ele>25.0</ele><time>2026-04-06T08:25:47.336Z</time></trkpt><trkpt lat="43.3100117" lon="10.537875"><ele>25.0</ele><time>2026-04-06T08:25:48.337Z</time></trkpt><trkpt lat="43.3099483" lon="10.537935"><ele>25.0</ele><time>2026-04-06T08:25:49.333Z</time></trkpt><trkpt lat="43.3098833" lon="10.5379967"><ele>25.000000000000004</ele><time>2026-04-06T08:25:50.337Z</time></trkpt><trkpt lat="43.3098167" lon="10.538055"><ele>25.0</ele><time>2026-04-06T08:25:51.335Z</time></trkpt><trkpt lat="43.3097467" lon="10.538115"><ele>25.0</ele><time>2026-04-06T08:25:52.337Z</time></trkpt><trkpt lat="43.3096733" lon="10.5381783"><ele>25.0</ele><time>2026-04-06T08:25:53.336Z</time></trkpt><trkpt lat="43.3095983" lon="10.538245"><ele>25.0</ele><time>2026-04-06T08:25:54.336Z</time></trkpt><trkpt lat="43.3095217" lon="10.538315"><ele>25.0</ele><time>2026-04-06T08:25:55.338Z</time></trkpt><trkpt lat="43.3094417" lon="10.5383867"><ele>25.0</ele><time>2026-04-06T08:25:56.339Z</time></trkpt><trkpt lat="43.3093633" lon="10.5384517"><ele>25.0</ele><time>2026-04-06T08:25:57.337Z</time></trkpt><trkpt lat="43.309285" lon="10.5385167"><ele>25.0</ele><time>2026-04-06T08:25:58.337Z</time></trkpt><trkpt lat="43.3092083" lon="10.538585"><ele>25.0</ele><time>2026-04-06T08:25:59.337Z</time></trkpt><trkpt lat="43.30913" lon="10.5386517"><ele>25.0</ele><time>2026-04-06T08:26:00.338Z</time></trkpt><trkpt lat="43.30905" lon="10.53872"><ele>25.0</ele><time>2026-04-06T08:26:01.339Z</time></trkpt><trkpt lat="43.3089717" lon="10.5387883"><ele>25.4</ele><time>2026-04-06T08:26:02.338Z</time></trkpt><trkpt lat="43.3088917" lon="10.5388583"><ele>25.8</ele><time>2026-04-06T08:26:03.338Z</time></trkpt><trkpt lat="43.3088133" lon="10.53893"><ele>26.200000000000003</ele><time>2026-04-06T08:26:04.338Z</time></trkpt><trkpt lat="43.3087333" lon="10.5389967"><ele>26.6</ele><time>2026-04-06T08:26:05.339Z</time></trkpt><trkpt lat="43.3086517" lon="10.53907"><ele>27.0</ele><time>2026-04-06T08:26:06.338Z</time></trkpt><trkpt lat="43.3085717" lon="10.5391433"><ele>27.0</ele><time>2026-04-06T08:26:07.339Z</time></trkpt><trkpt lat="43.30849" lon="10.539215"><ele>27.000000000000004</ele><time>2026-04-06T08:26:08.34Z</time></trkpt><trkpt lat="43.3084067" lon="10.53929"><ele>27.000000000000004</ele><time>2026-04-06T08:26:09.336Z</time></trkpt><trkpt lat="43.3083217" lon="10.5393633"><ele>27.0</ele><time>2026-04-06T08:26:10.337Z</time></trkpt><trkpt lat="43.3082383" lon="10.5394383"><ele>27.0</ele><time>2026-04-06T08:26:11.333Z</time></trkpt><trkpt lat="43.3081567" lon="10.5395167"><ele>27.0</ele><time>2026-04-06T08:26:12.336Z</time></trkpt><trkpt lat="43.3080717" lon="10.5395933"><ele>27.000000000000004</ele><time>2026-04-06T08:26:13.337Z</time></trkpt><trkpt lat="43.3079867" lon="10.5396717"><ele>27.000000000000004</ele><time>2026-04-06T08:26:14.337Z</time></trkpt><trkpt lat="43.3078967" lon="10.53975"><ele>27.0</ele><time>2026-04-06T08:26:15.335Z</time></trkpt><trkpt lat="43.307805" lon="10.5398283"><ele>27.0</ele><time>2026-04-06T08:26:16.334Z</time></trkpt><trkpt lat="43.3077133" lon="10.5399067"><ele>27.0</ele><time>2026-04-06T08:26:17.336Z</time></trkpt><trkpt lat="43.307625" lon="10.53999"><ele>27.000000000000004</ele><time>2026-04-06T08:26:18.334Z</time></trkpt><trkpt lat="43.3075367" lon="10.540075"><ele>27.000000000000004</ele><time>2026-04-06T08:26:19.335Z</time></trkpt><trkpt lat="43.3074467" lon="10.5401583"><ele>27.0</ele><time>2026-04-06T08:26:20.338Z</time></trkpt><trkpt lat="43.3073533" lon="10.5402417"><ele>27.0</ele><time>2026-04-06T08:26:21.335Z</time></trkpt><trkpt lat="43.3072583" lon="10.540325"><ele>26.5</ele><time>2026-04-06T08:26:22.336Z</time></trkpt><trkpt lat="43.3071617" lon="10.5404083"><ele>26.0</ele><time>2026-04-06T08:26:23.335Z</time></trkpt><trkpt lat="43.307065" lon="10.5404933"><ele>25.5</ele><time>2026-04-06T08:26:24.336Z</time></trkpt><trkpt lat="43.30697" lon="10.5405817"><ele>25.0</ele><time>2026-04-06T08:26:25.334Z</time></trkpt><trkpt lat="43.306875" lon="10.5406717"><ele>25.0</ele><time>2026-04-06T08:26:26.339Z</time></trkpt><trkpt lat="43.3067783" lon="10.540765"><ele>25.0</ele><time>2026-04-06T08:26:27.341Z</time></trkpt><trkpt lat="43.3066833" lon="10.54086"><ele>25.0</ele><time>2026-04-06T08:26:28.339Z</time></trkpt><trkpt lat="43.306585" lon="10.5409533"><ele>25.0</ele><time>2026-04-06T08:26:29.338Z</time></trkpt><trkpt lat="43.3064917" lon="10.5410467"><ele>24.8</ele><time>2026-04-06T08:26:30.34Z</time></trkpt><trkpt lat="43.3063967" lon="10.5411367"><ele>24.6</ele><time>2026-04-06T08:26:31.338Z</time></trkpt><trkpt lat="43.3063067" lon="10.5412267"><ele>24.4</ele><time>2026-04-06T08:26:32.337Z</time></trkpt><trkpt lat="43.3062167" lon="10.5413133"><ele>24.2</ele><time>2026-04-06T08:26:33.338Z</time></trkpt><trkpt lat="43.3061267" lon="10.5413983"><ele>24.0</ele><time>2026-04-06T08:26:34.338Z</time></trkpt><trkpt lat="43.3060367" lon="10.5414817"><ele>24.0</ele><time>2026-04-06T08:26:35.336Z</time></trkpt><trkpt lat="43.3059467" lon="10.5415667"><ele>24.0</ele><time>2026-04-06T08:26:36.336Z</time></trkpt><trkpt lat="43.3058617" lon="10.5416533"><ele>24.0</ele><time>2026-04-06T08:26:37.34Z</time></trkpt><trkpt lat="43.305775" lon="10.5417433"><ele>24.0</ele><time>2026-04-06T08:26:38.34Z</time></trkpt><trkpt lat="43.3056867" lon="10.5418333"><ele>24.0</ele><time>2026-04-06T08:26:39.341Z</time></trkpt><trkpt lat="43.3055967" lon="10.541925"><ele>24.0</ele><time>2026-04-06T08:26:40.337Z</time></trkpt><trkpt lat="43.305505" lon="10.5420183"><ele>24.0</ele><time>2026-04-06T08:26:41.341Z</time></trkpt><trkpt lat="43.3054117" lon="10.5421067"><ele>24.0</ele><time>2026-04-06T08:26:42.342Z</time></trkpt><trkpt lat="43.3053183" lon="10.542195"><ele>24.0</ele><time>2026-04-06T08:26:43.338Z</time></trkpt><trkpt lat="43.305225" lon="10.542285"><ele>24.25</ele><time>2026-04-06T08:26:44.338Z</time></trkpt><trkpt lat="43.3051333" lon="10.5423767"><ele>24.5</ele><time>2026-04-06T08:26:45.336Z</time></trkpt><trkpt lat="43.30504" lon="10.5424683"><ele>24.75</ele><time>2026-04-06T08:26:46.334Z</time></trkpt><trkpt lat="43.3049433" lon="10.5425617"><ele>25.0</ele><time>2026-04-06T08:26:47.338Z</time></trkpt><trkpt lat="43.3048467" lon="10.542655"><ele>25.0</ele><time>2026-04-06T08:26:48.339Z</time></trkpt><trkpt lat="43.3047483" lon="10.5427467"><ele>25.0</ele><time>2026-04-06T08:26:49.338Z</time></trkpt><trkpt lat="43.30465" lon="10.5428417"><ele>25.0</ele><time>2026-04-06T08:26:50.337Z</time></trkpt><trkpt lat="43.3045517" lon="10.5429367"><ele>25.0</ele><time>2026-04-06T08:26:51.335Z</time></trkpt><trkpt lat="43.304455" lon="10.5430333"><ele>24.75</ele><time>2026-04-06T08:26:52.338Z</time></trkpt><trkpt lat="43.304355" lon="10.5431317"><ele>24.5</ele><time>2026-04-06T08:26:53.335Z</time></trkpt><trkpt lat="43.304255" lon="10.54323"><ele>24.25</ele><time>2026-04-06T08:26:54.333Z</time></trkpt><trkpt lat="43.3041567" lon="10.543325"><ele>24.0</ele><time>2026-04-06T08:26:55.336Z</time></trkpt><trkpt lat="43.3040583" lon="10.5434233"><ele>24.0</ele><time>2026-04-06T08:26:56.335Z</time></trkpt><trkpt lat="43.30396" lon="10.5435233"><ele>24.0</ele><time>2026-04-06T08:26:57.336Z</time></trkpt><trkpt lat="43.3038633" lon="10.5436183"><ele>24.0</ele><time>2026-04-06T08:26:58.337Z</time></trkpt><trkpt lat="43.3037667" lon="10.5437133"><ele>24.0</ele><time>2026-04-06T08:26:59.336Z</time></trkpt><trkpt lat="43.30367" lon="10.5438067"><ele>25.25</ele><time>2026-04-06T08:27:00.335Z</time></trkpt><trkpt lat="43.3035733" lon="10.5439"><ele>26.5</ele><time>2026-04-06T08:27:01.334Z</time></trkpt><trkpt lat="43.30348" lon="10.54399"><ele>27.75</ele><time>2026-04-06T08:27:02.34Z</time></trkpt><trkpt lat="43.3033867" lon="10.5440817"><ele>29.0</ele><time>2026-04-06T08:27:03.337Z</time></trkpt><trkpt lat="43.303295" lon="10.5441733"><ele>29.0</ele><time>2026-04-06T08:27:04.336Z</time></trkpt><trkpt lat="43.3032017" lon="10.5442633"><ele>29.0</ele><time>2026-04-06T08:27:05.337Z</time></trkpt><trkpt lat="43.3031117" lon="10.544355"><ele>29.0</ele><time>2026-04-06T08:27:06.337Z</time></trkpt><trkpt lat="43.3030217" lon="10.5444467"><ele>29.0</ele><time>2026-04-06T08:27:07.339Z</time></trkpt><trkpt lat="43.3029317" lon="10.5445367"><ele>29.0</ele><time>2026-04-06T08:27:08.337Z</time></trkpt><trkpt lat="43.3028433" lon="10.5446283"><ele>29.6</ele><time>2026-04-06T08:27:09.339Z</time></trkpt><trkpt lat="43.302755" lon="10.544715"><ele>30.2</ele><time>2026-04-06T08:27:10.337Z</time></trkpt><trkpt lat="43.3026667" lon="10.544795"><ele>30.800000000000004</ele><time>2026-04-06T08:27:11.336Z</time></trkpt><trkpt lat="43.3025833" lon="10.5448717"><ele>31.400000000000002</ele><time>2026-04-06T08:27:12.339Z</time></trkpt><trkpt lat="43.3025033" lon="10.544945"><ele>32.0</ele><time>2026-04-06T08:27:13.338Z</time></trkpt><trkpt lat="43.30243" lon="10.545015"><ele>31.999999999999996</ele><time>2026-04-06T08:27:14.337Z</time></trkpt><trkpt lat="43.3023583" lon="10.54508"><ele>32.0</ele><time>2026-04-06T08:27:15.335Z</time></trkpt><trkpt lat="43.30229" lon="10.54514"><ele>32.0</ele><time>2026-04-06T08:27:16.336Z</time></trkpt><trkpt lat="43.3022283" lon="10.5451967"><ele>32.0</ele><time>2026-04-06T08:27:17.337Z</time></trkpt><trkpt lat="43.3021717" lon="10.5452533"><ele>31.999999999999996</ele><time>2026-04-06T08:27:18.335Z</time></trkpt><trkpt lat="43.3021167" lon="10.5453083"><ele>32.0</ele><time>2026-04-06T08:27:19.337Z</time></trkpt><trkpt lat="43.30202" lon="10.5454067"><ele>31.6</ele><time>2026-04-06T08:27:21.337Z</time></trkpt><trkpt lat="43.301945" lon="10.5454783"><ele>31.200000000000003</ele><time>2026-04-06T08:27:23.334Z</time></trkpt><trkpt lat="43.301885" lon="10.54554"><ele>30.8</ele><time>2026-04-06T08:27:25.339Z</time></trkpt><trkpt lat="43.3018183" lon="10.5456267"><ele>30.4</ele><time>2026-04-06T08:27:27.339Z</time></trkpt><trkpt lat="43.30174" lon="10.54571"><ele>30.0</ele><time>2026-04-06T08:27:29.338Z</time></trkpt><trkpt lat="43.30164" lon="10.5458083"><ele>30.0</ele><time>2026-04-06T08:27:31.337Z</time></trkpt><trkpt lat="43.301585" lon="10.5458583"><ele>30.0</ele><time>2026-04-06T08:27:32.336Z</time></trkpt><trkpt lat="43.301525" lon="10.5459133"><ele>30.0</ele><time>2026-04-06T08:27:33.337Z</time></trkpt><trkpt lat="43.3014583" lon="10.5459683"><ele>30.0</ele><time>2026-04-06T08:27:34.335Z</time></trkpt><trkpt lat="43.3013867" lon="10.5460233"><ele>30.0</ele><time>2026-04-06T08:27:35.342Z</time></trkpt><trkpt lat="43.301315" lon="10.54607"><ele>30.0</ele><time>2026-04-06T08:27:36.333Z</time></trkpt><trkpt lat="43.3012417" lon="10.5461167"><ele>29.5</ele><time>2026-04-06T08:27:37.335Z</time></trkpt><trkpt lat="43.3011667" lon="10.5461633"><ele>29.0</ele><time>2026-04-06T08:27:38.335Z</time></trkpt><trkpt lat="43.301085" lon="10.546205"><ele>28.5</ele><time>2026-04-06T08:27:39.335Z</time></trkpt><trkpt lat="43.3009983" lon="10.5462483"><ele>28.0</ele><time>2026-04-06T08:27:40.334Z</time></trkpt><trkpt lat="43.3009133" lon="10.5462967"><ele>27.5</ele><time>2026-04-06T08:27:41.334Z</time></trkpt><trkpt lat="43.3008267" lon="10.5463467"><ele>27.0</ele><time>2026-04-06T08:27:42.337Z</time></trkpt><trkpt lat="43.300735" lon="10.5463933"><ele>27.0</ele><time>2026-04-06T08:27:43.335Z</time></trkpt><trkpt lat="43.3006367" lon="10.54644"><ele>27.000000000000004</ele><time>2026-04-06T08:27:44.337Z</time></trkpt><trkpt lat="43.3005417" lon="10.5464867"><ele>27.000000000000004</ele><time>2026-04-06T08:27:45.339Z</time></trkpt><trkpt lat="43.3004467" lon="10.546535"><ele>27.0</ele><time>2026-04-06T08:27:46.337Z</time></trkpt><trkpt lat="43.3003517" lon="10.5465883"><ele>27.0</ele><time>2026-04-06T08:27:47.338Z</time></trkpt><trkpt lat="43.3002533" lon="10.5466417"><ele>27.0</ele><time>2026-04-06T08:27:48.338Z</time></trkpt><trkpt lat="43.3001517" lon="10.5466933"><ele>27.000000000000004</ele><time>2026-04-06T08:27:49.337Z</time></trkpt><trkpt lat="43.30005" lon="10.5467433"><ele>27.000000000000004</ele><time>2026-04-06T08:27:50.338Z</time></trkpt><trkpt lat="43.2999467" lon="10.5467933"><ele>27.0</ele><time>2026-04-06T08:27:51.338Z</time></trkpt><trkpt lat="43.299845" lon="10.546845"><ele>27.0</ele><time>2026-04-06T08:27:52.337Z</time></trkpt><trkpt lat="43.2997433" lon="10.5468983"><ele>27.0</ele><time>2026-04-06T08:27:53.338Z</time></trkpt><trkpt lat="43.29964" lon="10.54695"><ele>27.000000000000004</ele><time>2026-04-06T08:27:54.34Z</time></trkpt><trkpt lat="43.2995367" lon="10.5470067"><ele>27.000000000000004</ele><time>2026-04-06T08:27:55.342Z</time></trkpt><trkpt lat="43.2994333" lon="10.5470633"><ele>27.0</ele><time>2026-04-06T08:27:56.35Z</time></trkpt><trkpt lat="43.2993283" lon="10.5471233"><ele>27.0</ele><time>2026-04-06T08:27:57.345Z</time></trkpt><trkpt lat="43.2992267" lon="10.5471833"><ele>27.0</ele><time>2026-04-06T08:27:58.337Z</time></trkpt><trkpt lat="43.2991233" lon="10.5472417"><ele>27.000000000000004</ele><time>2026-04-06T08:27:59.338Z</time></trkpt><trkpt lat="43.2990233" lon="10.547295"><ele>27.000000000000004</ele><time>2026-04-06T08:28:00.343Z</time></trkpt><trkpt lat="43.298925" lon="10.54735"><ele>27.0</ele><time>2026-04-06T08:28:01.336Z</time></trkpt><trkpt lat="43.2988267" lon="10.5474117"><ele>27.0</ele><time>2026-04-06T08:28:02.337Z</time></trkpt><trkpt lat="43.2987283" lon="10.5474683"><ele>27.0</ele><time>2026-04-06T08:28:03.339Z</time></trkpt><trkpt lat="43.2986317" lon="10.5475233"><ele>27.000000000000004</ele><time>2026-04-06T08:28:04.337Z</time></trkpt><trkpt lat="43.29854" lon="10.5475717"><ele>27.000000000000004</ele><time>2026-04-06T08:28:05.345Z</time></trkpt><trkpt lat="43.2984517" lon="10.5476233"><ele>27.0</ele><time>2026-04-06T08:28:06.336Z</time></trkpt><trkpt lat="43.2983667" lon="10.5476683"><ele>27.0</ele><time>2026-04-06T08:28:07.338Z</time></trkpt><trkpt lat="43.2982833" lon="10.5477083"><ele>27.0</ele><time>2026-04-06T08:28:08.337Z</time></trkpt><trkpt lat="43.298205" lon="10.547745"><ele>27.0</ele><time>2026-04-06T08:28:09.34Z</time></trkpt><trkpt lat="43.2981333" lon="10.5477733"><ele>27.0</ele><time>2026-04-06T08:28:10.335Z</time></trkpt><trkpt lat="43.29807" lon="10.5478017"><ele>27.0</ele><time>2026-04-06T08:28:11.339Z</time></trkpt><trkpt lat="43.2979817" lon="10.547845"><ele>27.0</ele><time>2026-04-06T08:28:13.336Z</time></trkpt><trkpt lat="43.2979167" lon="10.5478733"><ele>27.0</ele><time>2026-04-06T08:28:17.338Z</time></trkpt><trkpt lat="43.29786" lon="10.5479333"><ele>27.833333333333332</ele><time>2026-04-06T08:28:20.338Z</time></trkpt><trkpt lat="43.2978" lon="10.5479883"><ele>28.666666666666664</ele><time>2026-04-06T08:28:22.336Z</time></trkpt><trkpt lat="43.297715" lon="10.5480267"><ele>29.5</ele><time>2026-04-06T08:28:24.341Z</time></trkpt><trkpt lat="43.2976083" lon="10.5480783"><ele>30.333333333333332</ele><time>2026-04-06T08:28:26.338Z</time></trkpt><trkpt lat="43.29755" lon="10.5481133"><ele>31.166666666666664</ele><time>2026-04-06T08:28:27.345Z</time></trkpt><trkpt lat="43.2974883" lon="10.5481433"><ele>32.0</ele><time>2026-04-06T08:28:28.337Z</time></trkpt><trkpt lat="43.297425" lon="10.5481717"><ele>31.999999999999996</ele><time>2026-04-06T08:28:29.341Z</time></trkpt><trkpt lat="43.2973567" lon="10.548205"><ele>32.0</ele><time>2026-04-06T08:28:30.339Z</time></trkpt><trkpt lat="43.2972833" lon="10.5482433"><ele>32.0</ele><time>2026-04-06T08:28:31.34Z</time></trkpt><trkpt lat="43.2972083" lon="10.5482783"><ele>32.0</ele><time>2026-04-06T08:28:32.339Z</time></trkpt><trkpt lat="43.2971333" lon="10.5483183"><ele>31.999999999999996</ele><time>2026-04-06T08:28:33.335Z</time></trkpt><trkpt lat="43.2970583" lon="10.5483533"><ele>32.0</ele><time>2026-04-06T08:28:34.336Z</time></trkpt><trkpt lat="43.2969767" lon="10.5483917"><ele>31.6</ele><time>2026-04-06T08:28:35.335Z</time></trkpt><trkpt lat="43.2968917" lon="10.5484367"><ele>31.200000000000003</ele><time>2026-04-06T08:28:36.335Z</time></trkpt><trkpt lat="43.2968017" lon="10.5484783"><ele>30.8</ele><time>2026-04-06T08:28:37.333Z</time></trkpt><trkpt lat="43.2967083" lon="10.5485267"><ele>30.4</ele><time>2026-04-06T08:28:38.34Z</time></trkpt><trkpt lat="43.296615" lon="10.5485717"><ele>30.0</ele><time>2026-04-06T08:28:39.337Z</time></trkpt><trkpt lat="43.296525" lon="10.548615"><ele>30.0</ele><time>2026-04-06T08:28:40.338Z</time></trkpt><trkpt lat="43.296435" lon="10.5486567"><ele>30.0</ele><time>2026-04-06T08:28:41.336Z</time></trkpt><trkpt lat="43.2963433" lon="10.548705"><ele>30.0</ele><time>2026-04-06T08:28:42.336Z</time></trkpt><trkpt lat="43.29625" lon="10.5487517"><ele>30.0</ele><time>2026-04-06T08:28:43.341Z</time></trkpt><trkpt lat="43.2961583" lon="10.5487983"><ele>30.0</ele><time>2026-04-06T08:28:44.344Z</time></trkpt><trkpt lat="43.2960667" lon="10.548845"><ele>29.4</ele><time>2026-04-06T08:28:45.337Z</time></trkpt><trkpt lat="43.295975" lon="10.5488933"><ele>28.8</ele><time>2026-04-06T08:28:46.34Z</time></trkpt><trkpt lat="43.2958833" lon="10.5489417"><ele>28.200000000000003</ele><time>2026-04-06T08:28:47.338Z</time></trkpt><trkpt lat="43.2957917" lon="10.5489917"><ele>27.6</ele><time>2026-04-06T08:28:48.337Z</time></trkpt><trkpt lat="43.2957" lon="10.5490383"><ele>27.0</ele><time>2026-04-06T08:28:49.337Z</time></trkpt><trkpt lat="43.2956083" lon="10.549085"><ele>27.6</ele><time>2026-04-06T08:28:50.337Z</time></trkpt><trkpt lat="43.2955167" lon="10.5491317"><ele>28.200000000000003</ele><time>2026-04-06T08:28:51.341Z</time></trkpt><trkpt lat="43.2954267" lon="10.54918"><ele>28.8</ele><time>2026-04-06T08:28:52.337Z</time></trkpt><trkpt lat="43.295335" lon="10.54923"><ele>29.4</ele><time>2026-04-06T08:28:53.339Z</time></trkpt><trkpt lat="43.295245" lon="10.5492817"><ele>30.0</ele><time>2026-04-06T08:28:54.335Z</time></trkpt><trkpt lat="43.2951517" lon="10.5493317"><ele>30.0</ele><time>2026-04-06T08:28:55.335Z</time></trkpt><trkpt lat="43.2950567" lon="10.5493817"><ele>30.0</ele><time>2026-04-06T08:28:56.334Z</time></trkpt><trkpt lat="43.2949617" lon="10.5494333"><ele>30.0</ele><time>2026-04-06T08:28:57.334Z</time></trkpt><trkpt lat="43.2948667" lon="10.549485"><ele>30.0</ele><time>2026-04-06T08:28:58.335Z</time></trkpt><trkpt lat="43.29477" lon="10.5495383"><ele>30.0</ele><time>2026-04-06T08:28:59.339Z</time></trkpt><trkpt lat="43.2946717" lon="10.54959"><ele>30.2</ele><time>2026-04-06T08:29:00.337Z</time></trkpt><trkpt lat="43.29457" lon="10.5496417"><ele>30.4</ele><time>2026-04-06T08:29:01.339Z</time></trkpt><trkpt lat="43.2944683" lon="10.5496967"><ele>30.6</ele><time>2026-04-06T08:29:02.334Z</time></trkpt><trkpt lat="43.294365" lon="10.549755"><ele>30.8</ele><time>2026-04-06T08:29:03.333Z</time></trkpt><trkpt lat="43.2942633" lon="10.5498133"><ele>31.0</ele><time>2026-04-06T08:29:04.337Z</time></trkpt><trkpt lat="43.2941617" lon="10.5498667"><ele>31.0</ele><time>2026-04-06T08:29:05.337Z</time></trkpt><trkpt lat="43.2940617" lon="10.54992"><ele>31.0</ele><time>2026-04-06T08:29:06.336Z</time></trkpt><trkpt lat="43.2939583" lon="10.549975"><ele>31.0</ele><time>2026-04-06T08:29:07.337Z</time></trkpt><trkpt lat="43.2938517" lon="10.5500267"><ele>31.0</ele><time>2026-04-06T08:29:08.338Z</time></trkpt><trkpt lat="43.293745" lon="10.5500783"><ele>31.0</ele><time>2026-04-06T08:29:09.335Z</time></trkpt><trkpt lat="43.2936417" lon="10.55013"><ele>30.200000000000003</ele><time>2026-04-06T08:29:10.333Z</time></trkpt><trkpt lat="43.29354" lon="10.55018"><ele>29.400000000000002</ele><time>2026-04-06T08:29:11.337Z</time></trkpt><trkpt lat="43.29344" lon="10.55023"><ele>28.6</ele><time>2026-04-06T08:29:12.334Z</time></trkpt><trkpt lat="43.2933417" lon="10.55028"><ele>27.8</ele><time>2026-04-06T08:29:13.333Z</time></trkpt><trkpt lat="43.293245" lon="10.5503333"><ele>27.0</ele><time>2026-04-06T08:29:14.335Z</time></trkpt><trkpt lat="43.2931467" lon="10.5503867"><ele>26.6</ele><time>2026-04-06T08:29:15.338Z</time></trkpt><trkpt lat="43.2930483" lon="10.55044"><ele>26.200000000000003</ele><time>2026-04-06T08:29:16.34Z</time></trkpt><trkpt lat="43.2929517" lon="10.55049"><ele>25.8</ele><time>2026-04-06T08:29:17.349Z</time></trkpt><trkpt lat="43.2928567" lon="10.5505417"><ele>25.4</ele><time>2026-04-06T08:29:18.341Z</time></trkpt><trkpt lat="43.29276" lon="10.5505933"><ele>25.0</ele><time>2026-04-06T08:29:19.336Z</time></trkpt><trkpt lat="43.2926633" lon="10.550645"><ele>25.0</ele><time>2026-04-06T08:29:20.337Z</time></trkpt><trkpt lat="43.2925683" lon="10.5507"><ele>25.0</ele><time>2026-04-06T08:29:21.335Z</time></trkpt><trkpt lat="43.2924717" lon="10.5507567"><ele>25.0</ele><time>2026-04-06T08:29:22.339Z</time></trkpt><trkpt lat="43.292375" lon="10.55081"><ele>25.0</ele><time>2026-04-06T08:29:23.336Z</time></trkpt><trkpt lat="43.292275" lon="10.55086"><ele>25.0</ele><time>2026-04-06T08:29:24.336Z</time></trkpt><trkpt lat="43.2921733" lon="10.55091"><ele>23.5</ele><time>2026-04-06T08:29:25.337Z</time></trkpt><trkpt lat="43.2920683" lon="10.5509567"><ele>22.0</ele><time>2026-04-06T08:29:26.333Z</time></trkpt><trkpt lat="43.2919633" lon="10.5510083"><ele>20.5</ele><time>2026-04-06T08:29:27.336Z</time></trkpt><trkpt lat="43.291855" lon="10.551065"><ele>19.0</ele><time>2026-04-06T08:29:28.346Z</time></trkpt><trkpt lat="43.291745" lon="10.551125"><ele>19.0</ele><time>2026-04-06T08:29:29.341Z</time></trkpt><trkpt lat="43.2916317" lon="10.5511833"><ele>19.0</ele><time>2026-04-06T08:29:30.341Z</time></trkpt><trkpt lat="43.2915183" lon="10.551245"><ele>19.0</ele><time>2026-04-06T08:29:31.342Z</time></trkpt><trkpt lat="43.2914083" lon="10.551305"><ele>19.0</ele><time>2026-04-06T08:29:32.344Z</time></trkpt><trkpt lat="43.2912967" lon="10.551365"><ele>19.25</ele><time>2026-04-06T08:29:33.336Z</time></trkpt><trkpt lat="43.29119" lon="10.5514217"><ele>19.5</ele><time>2026-04-06T08:29:34.337Z</time></trkpt><trkpt lat="43.2910817" lon="10.5514767"><ele>19.75</ele><time>2026-04-06T08:29:35.343Z</time></trkpt><trkpt lat="43.2909717" lon="10.5515317"><ele>20.0</ele><time>2026-04-06T08:29:36.34Z</time></trkpt><trkpt lat="43.2908617" lon="10.551595"><ele>20.0</ele><time>2026-04-06T08:29:37.335Z</time></trkpt><trkpt lat="43.2907467" lon="10.5516667"><ele>20.0</ele><time>2026-04-06T08:29:38.367Z</time></trkpt><trkpt lat="43.2906267" lon="10.551735"><ele>20.0</ele><time>2026-04-06T08:29:39.347Z</time></trkpt><trkpt lat="43.2905033" lon="10.5518067"><ele>20.0</ele><time>2026-04-06T08:29:40.337Z</time></trkpt><trkpt lat="43.29038" lon="10.5518767"><ele>20.5</ele><time>2026-04-06T08:29:41.342Z</time></trkpt><trkpt lat="43.2902567" lon="10.55194"><ele>21.0</ele><time>2026-04-06T08:29:42.338Z</time></trkpt><trkpt lat="43.2901367" lon="10.5519967"><ele>21.5</ele><time>2026-04-06T08:29:43.339Z</time></trkpt><trkpt lat="43.29002" lon="10.5520567"><ele>22.0</ele><time>2026-04-06T08:29:44.343Z</time></trkpt><trkpt lat="43.2899067" lon="10.552115"><ele>22.0</ele><time>2026-04-06T08:29:45.338Z</time></trkpt><trkpt lat="43.2897967" lon="10.5521683"><ele>22.0</ele><time>2026-04-06T08:29:46.337Z</time></trkpt><trkpt lat="43.2896883" lon="10.5522217"><ele>22.0</ele><time>2026-04-06T08:29:47.339Z</time></trkpt><trkpt lat="43.28958" lon="10.5522783"><ele>22.0</ele><time>2026-04-06T08:29:48.34Z</time></trkpt><trkpt lat="43.2894733" lon="10.5523367"><ele>23.0</ele><time>2026-04-06T08:29:49.34Z</time></trkpt><trkpt lat="43.289365" lon="10.5523967"><ele>24.0</ele><time>2026-04-06T08:29:50.34Z</time></trkpt><trkpt lat="43.2892517" lon="10.552455"><ele>25.0</ele><time>2026-04-06T08:29:51.339Z</time></trkpt><trkpt lat="43.2891383" lon="10.5525167"><ele>26.0</ele><time>2026-04-06T08:29:52.335Z</time></trkpt><trkpt lat="43.289025" lon="10.55258"><ele>26.0</ele><time>2026-04-06T08:29:53.338Z</time></trkpt><trkpt lat="43.288915" lon="10.5526367"><ele>26.0</ele><time>2026-04-06T08:29:54.335Z</time></trkpt><trkpt lat="43.2888017" lon="10.55269"><ele>26.0</ele><time>2026-04-06T08:29:55.334Z</time></trkpt><trkpt lat="43.28869" lon="10.5527467"><ele>26.0</ele><time>2026-04-06T08:29:56.338Z</time></trkpt><trkpt lat="43.2885767" lon="10.5528033"><ele>26.0</ele><time>2026-04-06T08:29:57.336Z</time></trkpt><trkpt lat="43.2884633" lon="10.5528633"><ele>26.0</ele><time>2026-04-06T08:29:58.339Z</time></trkpt><trkpt lat="43.2883483" lon="10.5529267"><ele>26.0</ele><time>2026-04-06T08:29:59.337Z</time></trkpt><trkpt lat="43.2882317" lon="10.5529883"><ele>26.0</ele><time>2026-04-06T08:30:00.336Z</time></trkpt><trkpt lat="43.2881117" lon="10.55305"><ele>25.5</ele><time>2026-04-06T08:30:01.337Z</time></trkpt><trkpt lat="43.28799" lon="10.553115"><ele>25.0</ele><time>2026-04-06T08:30:02.338Z</time></trkpt><trkpt lat="43.28787" lon="10.5531817"><ele>24.5</ele><time>2026-04-06T08:30:03.339Z</time></trkpt><trkpt lat="43.28775" lon="10.5532433"><ele>24.0</ele><time>2026-04-06T08:30:04.338Z</time></trkpt><trkpt lat="43.2876317" lon="10.5533067"><ele>24.0</ele><time>2026-04-06T08:30:05.341Z</time></trkpt><trkpt lat="43.2875133" lon="10.5533683"><ele>24.0</ele><time>2026-04-06T08:30:06.339Z</time></trkpt><trkpt lat="43.2873933" lon="10.55343"><ele>24.0</ele><time>2026-04-06T08:30:07.338Z</time></trkpt><trkpt lat="43.287275" lon="10.55349"><ele>24.0</ele><time>2026-04-06T08:30:08.336Z</time></trkpt><trkpt lat="43.2871567" lon="10.5535517"><ele>24.0</ele><time>2026-04-06T08:30:09.337Z</time></trkpt><trkpt lat="43.28704" lon="10.5536133"><ele>24.0</ele><time>2026-04-06T08:30:10.347Z</time></trkpt><trkpt lat="43.2869217" lon="10.5536717"><ele>24.0</ele><time>2026-04-06T08:30:11.344Z</time></trkpt><trkpt lat="43.2868033" lon="10.5537333"><ele>24.0</ele><time>2026-04-06T08:30:12.337Z</time></trkpt><trkpt lat="43.2866867" lon="10.5537917"><ele>24.25</ele><time>2026-04-06T08:30:13.337Z</time></trkpt><trkpt lat="43.2865717" lon="10.5538533"><ele>24.5</ele><time>2026-04-06T08:30:14.34Z</time></trkpt><trkpt lat="43.2864567" lon="10.553915"><ele>24.75</ele><time>2026-04-06T08:30:15.336Z</time></trkpt><trkpt lat="43.28634" lon="10.5539783"><ele>25.0</ele><time>2026-04-06T08:30:16.338Z</time></trkpt><trkpt lat="43.2862217" lon="10.5540417"><ele>25.0</ele><time>2026-04-06T08:30:17.335Z</time></trkpt><trkpt lat="43.286105" lon="10.5541033"><ele>25.0</ele><time>2026-04-06T08:30:18.336Z</time></trkpt><trkpt lat="43.28599" lon="10.5541633"><ele>25.0</ele><time>2026-04-06T08:30:19.341Z</time></trkpt><trkpt lat="43.285875" lon="10.554225"><ele>25.0</ele><time>2026-04-06T08:30:20.339Z</time></trkpt><trkpt lat="43.2857583" lon="10.5542867"><ele>25.0</ele><time>2026-04-06T08:30:21.337Z</time></trkpt><trkpt lat="43.2856433" lon="10.5543467"><ele>25.0</ele><time>2026-04-06T08:30:22.335Z</time></trkpt><trkpt lat="43.2855283" lon="10.5544083"><ele>25.0</ele><time>2026-04-06T08:30:23.337Z</time></trkpt><trkpt lat="43.285415" lon="10.5544683"><ele>25.0</ele><time>2026-04-06T08:30:24.337Z</time></trkpt><trkpt lat="43.2853033" lon="10.554525"><ele>25.25</ele><time>2026-04-06T08:30:25.334Z</time></trkpt><trkpt lat="43.2851933" lon="10.554585"><ele>25.5</ele><time>2026-04-06T08:30:26.337Z</time></trkpt><trkpt lat="43.28508" lon="10.5546433"><ele>25.75</ele><time>2026-04-06T08:30:27.338Z</time></trkpt><trkpt lat="43.2849667" lon="10.5547067"><ele>26.0</ele><time>2026-04-06T08:30:28.338Z</time></trkpt><trkpt lat="43.28485" lon="10.5547717"><ele>26.5</ele><time>2026-04-06T08:30:29.334Z</time></trkpt><trkpt lat="43.284735" lon="10.5548333"><ele>27.0</ele><time>2026-04-06T08:30:30.335Z</time></trkpt><trkpt lat="43.2846167" lon="10.5548967"><ele>27.5</ele><time>2026-04-06T08:30:31.336Z</time></trkpt><trkpt lat="43.2844983" lon="10.5549583"><ele>28.0</ele><time>2026-04-06T08:30:32.338Z</time></trkpt><trkpt lat="43.2843783" lon="10.5550233"><ele>28.0</ele><time>2026-04-06T08:30:33.336Z</time></trkpt><trkpt lat="43.28426" lon="10.5550867"><ele>28.0</ele><time>2026-04-06T08:30:34.339Z</time></trkpt><trkpt lat="43.2841433" lon="10.5551483"><ele>28.0</ele><time>2026-04-06T08:30:35.341Z</time></trkpt><trkpt lat="43.284025" lon="10.5552083"><ele>28.0</ele><time>2026-04-06T08:30:36.336Z</time></trkpt><trkpt lat="43.2839117" lon="10.555265"><ele>26.666666666666668</ele><time>2026-04-06T08:30:37.337Z</time></trkpt><trkpt lat="43.283675" lon="10.555395"><ele>25.333333333333336</ele><time>2026-04-06T08:30:39.337Z</time></trkpt><trkpt lat="43.283555" lon="10.5554567"><ele>24.0</ele><time>2026-04-06T08:30:40.335Z</time></trkpt><trkpt lat="43.28343" lon="10.55552"><ele>24.0</ele><time>2026-04-06T08:30:41.34Z</time></trkpt><trkpt lat="43.283305" lon="10.55558"><ele>24.0</ele><time>2026-04-06T08:30:42.337Z</time></trkpt><trkpt lat="43.2831817" lon="10.5556433"><ele>24.0</ele><time>2026-04-06T08:30:43.338Z</time></trkpt><trkpt lat="43.2830617" lon="10.5557083"><ele>24.0</ele><time>2026-04-06T08:30:44.341Z</time></trkpt><trkpt lat="43.2829383" lon="10.55577"><ele>23.25</ele><time>2026-04-06T08:30:45.336Z</time></trkpt><trkpt lat="43.282815" lon="10.555835"><ele>22.5</ele><time>2026-04-06T08:30:46.336Z</time></trkpt><trkpt lat="43.2826933" lon="10.5558967"><ele>21.75</ele><time>2026-04-06T08:30:47.337Z</time></trkpt><trkpt lat="43.28257" lon="10.5559583"><ele>21.0</ele><time>2026-04-06T08:30:48.338Z</time></trkpt><trkpt lat="43.28245" lon="10.55602"><ele>21.0</ele><time>2026-04-06T08:30:49.337Z</time></trkpt><trkpt lat="43.2823267" lon="10.55608"><ele>21.0</ele><time>2026-04-06T08:30:50.338Z</time></trkpt><trkpt lat="43.2822033" lon="10.556145"><ele>21.0</ele><time>2026-04-06T08:30:51.336Z</time></trkpt><trkpt lat="43.28208" lon="10.55621"><ele>21.0</ele><time>2026-04-06T08:30:52.336Z</time></trkpt><trkpt lat="43.281955" lon="10.5562733"><ele>20.75</ele><time>2026-04-06T08:30:53.34Z</time></trkpt><trkpt lat="43.2818317" lon="10.5563383"><ele>20.5</ele><time>2026-04-06T08:30:54.335Z</time></trkpt><trkpt lat="43.28171" lon="10.5564033"><ele>20.25</ele><time>2026-04-06T08:30:55.338Z</time></trkpt><trkpt lat="43.281585" lon="10.55647"><ele>20.0</ele><time>2026-04-06T08:30:56.336Z</time></trkpt><trkpt lat="43.28146" lon="10.556535"><ele>20.0</ele><time>2026-04-06T08:30:57.335Z</time></trkpt><trkpt lat="43.281335" lon="10.5566"><ele>20.0</ele><time>2026-04-06T08:30:58.336Z</time></trkpt><trkpt lat="43.2812117" lon="10.5566633"><ele>20.0</ele><time>2026-04-06T08:30:59.341Z</time></trkpt><trkpt lat="43.2810883" lon="10.5567283"><ele>20.0</ele><time>2026-04-06T08:31:00.341Z</time></trkpt><trkpt lat="43.2809633" lon="10.5567933"><ele>20.0</ele><time>2026-04-06T08:31:01.34Z</time></trkpt><trkpt lat="43.28084" lon="10.55686"><ele>20.0</ele><time>2026-04-06T08:31:02.341Z</time></trkpt><trkpt lat="43.280715" lon="10.5569267"><ele>20.0</ele><time>2026-04-06T08:31:03.337Z</time></trkpt><trkpt lat="43.28059" lon="10.556995"><ele>20.0</ele><time>2026-04-06T08:31:04.339Z</time></trkpt><trkpt lat="43.2804633" lon="10.5570617"><ele>20.5</ele><time>2026-04-06T08:31:05.338Z</time></trkpt><trkpt lat="43.280335" lon="10.5571283"><ele>21.0</ele><time>2026-04-06T08:31:06.337Z</time></trkpt><trkpt lat="43.2802067" lon="10.5571933"><ele>21.5</ele><time>2026-04-06T08:31:07.337Z</time></trkpt><trkpt lat="43.2800783" lon="10.5572617"><ele>22.0</ele><time>2026-04-06T08:31:08.339Z</time></trkpt><trkpt lat="43.27995" lon="10.5573317"><ele>22.0</ele><time>2026-04-06T08:31:09.339Z</time></trkpt><trkpt lat="43.2798233" lon="10.5574"><ele>22.0</ele><time>2026-04-06T08:31:10.339Z</time></trkpt><trkpt lat="43.2796967" lon="10.5574683"><ele>22.0</ele><time>2026-04-06T08:31:11.337Z</time></trkpt><trkpt lat="43.2795717" lon="10.5575333"><ele>22.0</ele><time>2026-04-06T08:31:12.335Z</time></trkpt><trkpt lat="43.279445" lon="10.5575983"><ele>22.0</ele><time>2026-04-06T08:31:13.339Z</time></trkpt><trkpt lat="43.27932" lon="10.5576633"><ele>22.0</ele><time>2026-04-06T08:31:14.337Z</time></trkpt><trkpt lat="43.2791933" lon="10.5577283"><ele>22.0</ele><time>2026-04-06T08:31:15.34Z</time></trkpt><trkpt lat="43.2790667" lon="10.5577933"><ele>22.0</ele><time>2026-04-06T08:31:16.341Z</time></trkpt><trkpt lat="43.2789417" lon="10.55786"><ele>21.5</ele><time>2026-04-06T08:31:17.346Z</time></trkpt><trkpt lat="43.2788167" lon="10.5579267"><ele>21.0</ele><time>2026-04-06T08:31:18.338Z</time></trkpt><trkpt lat="43.2786917" lon="10.5579917"><ele>20.5</ele><time>2026-04-06T08:31:19.336Z</time></trkpt><trkpt lat="43.27857" lon="10.5580617"><ele>20.0</ele><time>2026-04-06T08:31:20.338Z</time></trkpt><trkpt lat="43.2784533" lon="10.5581333"><ele>20.0</ele><time>2026-04-06T08:31:21.339Z</time></trkpt><trkpt lat="43.2783383" lon="10.5582133"><ele>20.0</ele><time>2026-04-06T08:31:22.339Z</time></trkpt><trkpt lat="43.2782283" lon="10.558305"><ele>20.0</ele><time>2026-04-06T08:31:23.337Z</time></trkpt><trkpt lat="43.278125" lon="10.5584083"><ele>20.0</ele><time>2026-04-06T08:31:24.337Z</time></trkpt><trkpt lat="43.278025" lon="10.5585267"><ele>19.25</ele><time>2026-04-06T08:31:25.337Z</time></trkpt><trkpt lat="43.2779267" lon="10.5586517"><ele>18.5</ele><time>2026-04-06T08:31:26.335Z</time></trkpt><trkpt lat="43.2778283" lon="10.5587833"><ele>17.75</ele><time>2026-04-06T08:31:27.336Z</time></trkpt><trkpt lat="43.2777283" lon="10.558915"><ele>17.0</ele><time>2026-04-06T08:31:28.337Z</time></trkpt><trkpt lat="43.2776317" lon="10.5590467"><ele>17.0</ele><time>2026-04-06T08:31:29.336Z</time></trkpt><trkpt lat="43.2775317" lon="10.559175"><ele>17.0</ele><time>2026-04-06T08:31:30.342Z</time></trkpt><trkpt lat="43.2774333" lon="10.559305"><ele>17.0</ele><time>2026-04-06T08:31:31.34Z</time></trkpt><trkpt lat="43.2773367" lon="10.5594317"><ele>17.0</ele><time>2026-04-06T08:31:32.339Z</time></trkpt><trkpt lat="43.27724" lon="10.55956"><ele>17.25</ele><time>2026-04-06T08:31:33.338Z</time></trkpt><trkpt lat="43.2771467" lon="10.55969"><ele>17.5</ele><time>2026-04-06T08:31:34.341Z</time></trkpt><trkpt lat="43.2770517" lon="10.5598167"><ele>17.75</ele><time>2026-04-06T08:31:35.337Z</time></trkpt><trkpt lat="43.2769567" lon="10.5599433"><ele>18.0</ele><time>2026-04-06T08:31:36.336Z</time></trkpt><trkpt lat="43.2768667" lon="10.5600733"><ele>18.0</ele><time>2026-04-06T08:31:37.338Z</time></trkpt><trkpt lat="43.2767767" lon="10.5602017"><ele>18.0</ele><time>2026-04-06T08:31:38.335Z</time></trkpt><trkpt lat="43.2766867" lon="10.560335"><ele>18.0</ele><time>2026-04-06T08:31:39.336Z</time></trkpt><trkpt lat="43.2765983" lon="10.56047"><ele>18.0</ele><time>2026-04-06T08:31:40.336Z</time></trkpt><trkpt lat="43.2765117" lon="10.56061"><ele>17.5</ele><time>2026-04-06T08:31:41.336Z</time></trkpt><trkpt lat="43.2764217" lon="10.5607483"><ele>17.0</ele><time>2026-04-06T08:31:42.338Z</time></trkpt><trkpt lat="43.2763283" lon="10.5608883"><ele>16.5</ele><time>2026-04-06T08:31:43.336Z</time></trkpt><trkpt lat="43.2762367" lon="10.5610317"><ele>16.0</ele><time>2026-04-06T08:31:44.343Z</time></trkpt><trkpt lat="43.276145" lon="10.561175"><ele>16.0</ele><time>2026-04-06T08:31:45.338Z</time></trkpt><trkpt lat="43.2760533" lon="10.5613133"><ele>16.0</ele><time>2026-04-06T08:31:46.338Z</time></trkpt><trkpt lat="43.2759617" lon="10.56145"><ele>16.0</ele><time>2026-04-06T08:31:47.338Z</time></trkpt><trkpt lat="43.27587" lon="10.561585"><ele>16.0</ele><time>2026-04-06T08:31:48.335Z</time></trkpt><trkpt lat="43.2757783" lon="10.5617183"><ele>16.0</ele><time>2026-04-06T08:31:49.335Z</time></trkpt><trkpt lat="43.2756883" lon="10.5618467"><ele>16.0</ele><time>2026-04-06T08:31:50.336Z</time></trkpt><trkpt lat="43.2755983" lon="10.5619733"><ele>16.0</ele><time>2026-04-06T08:31:51.336Z</time></trkpt><trkpt lat="43.27551" lon="10.5621"><ele>16.0</ele><time>2026-04-06T08:31:52.338Z</time></trkpt><trkpt lat="43.2754217" lon="10.5622283"><ele>16.25</ele><time>2026-04-06T08:31:53.338Z</time></trkpt><trkpt lat="43.2753336" lon="10.5623566"><ele>16.5</ele><time>2026-04-06T08:31:54.337Z</time></trkpt><trkpt lat="43.275244" lon="10.5624842"><ele>16.75</ele><time>2026-04-06T08:31:55.338Z</time></trkpt><trkpt lat="43.2751557" lon="10.5626128"><ele>17.0</ele><time>2026-04-06T08:31:56.337Z</time></trkpt><trkpt lat="43.2750679" lon="10.562742"><ele>17.0</ele><time>2026-04-06T08:31:57.337Z</time></trkpt><trkpt lat="43.2749803" lon="10.5628685"><ele>17.0</ele><time>2026-04-06T08:31:58.339Z</time></trkpt><trkpt lat="43.2748923" lon="10.562994"><ele>17.0</ele><time>2026-04-06T08:31:59.342Z</time></trkpt><trkpt lat="43.2748049" lon="10.5631168"><ele>17.0</ele><time>2026-04-06T08:32:00.341Z</time></trkpt><trkpt lat="43.2747199" lon="10.5632399"><ele>17.0</ele><time>2026-04-06T08:32:01.34Z</time></trkpt><trkpt lat="43.2746353" lon="10.5633587"><ele>17.0</ele><time>2026-04-06T08:32:02.339Z</time></trkpt><trkpt lat="43.2745497" lon="10.5634745"><ele>17.0</ele><time>2026-04-06T08:32:03.342Z</time></trkpt><trkpt lat="43.2744686" lon="10.5635895"><ele>17.0</ele><time>2026-04-06T08:32:04.338Z</time></trkpt><trkpt lat="43.2743889" lon="10.5637049"><ele>17.25</ele><time>2026-04-06T08:32:05.336Z</time></trkpt><trkpt lat="43.2743093" lon="10.5638173"><ele>17.5</ele><time>2026-04-06T08:32:06.338Z</time></trkpt><trkpt lat="43.2742316" lon="10.5639318"><ele>17.75</ele><time>2026-04-06T08:32:07.337Z</time></trkpt><trkpt lat="43.2741519" lon="10.564047"><ele>18.0</ele><time>2026-04-06T08:32:08.339Z</time></trkpt><trkpt lat="43.27407" lon="10.5641604"><ele>18.0</ele><time>2026-04-06T08:32:09.334Z</time></trkpt><trkpt lat="43.273988" lon="10.5642765"><ele>18.0</ele><time>2026-04-06T08:32:10.336Z</time></trkpt><trkpt lat="43.2739056" lon="10.5643992"><ele>18.0</ele><time>2026-04-06T08:32:11.336Z</time></trkpt><trkpt lat="43.2738226" lon="10.5645228"><ele>18.0</ele><time>2026-04-06T08:32:12.335Z</time></trkpt><trkpt lat="43.2737404" lon="10.5646421"><ele>17.75</ele><time>2026-04-06T08:32:13.336Z</time></trkpt><trkpt lat="43.2736595" lon="10.5647608"><ele>17.5</ele><time>2026-04-06T08:32:14.337Z</time></trkpt><trkpt lat="43.2735784" lon="10.564878"><ele>17.25</ele><time>2026-04-06T08:32:15.337Z</time></trkpt><trkpt lat="43.273498" lon="10.5649917"><ele>17.0</ele><time>2026-04-06T08:32:16.336Z</time></trkpt><trkpt lat="43.2734199" lon="10.5651058"><ele>17.0</ele><time>2026-04-06T08:32:17.337Z</time></trkpt><trkpt lat="43.27334" lon="10.5652202"><ele>17.0</ele><time>2026-04-06T08:32:18.337Z</time></trkpt><trkpt lat="43.2732609" lon="10.5653332"><ele>17.0</ele><time>2026-04-06T08:32:19.338Z</time></trkpt><trkpt lat="43.2731826" lon="10.5654447"><ele>17.0</ele><time>2026-04-06T08:32:20.337Z</time></trkpt><trkpt lat="43.2731047" lon="10.5655582"><ele>17.25</ele><time>2026-04-06T08:32:21.339Z</time></trkpt><trkpt lat="43.2730257" lon="10.565674"><ele>17.5</ele><time>2026-04-06T08:32:22.338Z</time></trkpt><trkpt lat="43.2729446" lon="10.565788"><ele>17.75</ele><time>2026-04-06T08:32:23.337Z</time></trkpt><trkpt lat="43.2728631" lon="10.5659015"><ele>18.0</ele><time>2026-04-06T08:32:24.34Z</time></trkpt><trkpt lat="43.2727829" lon="10.5660121"><ele>18.0</ele><time>2026-04-06T08:32:25.339Z</time></trkpt><trkpt lat="43.2727058" lon="10.566119"><ele>18.0</ele><time>2026-04-06T08:32:26.341Z</time></trkpt><trkpt lat="43.27263" lon="10.5662203"><ele>18.0</ele><time>2026-04-06T08:32:27.339Z</time></trkpt><trkpt lat="43.272556" lon="10.5663206"><ele>18.0</ele><time>2026-04-06T08:32:28.341Z</time></trkpt><trkpt lat="43.2724868" lon="10.5664205"><ele>18.0</ele><time>2026-04-06T08:32:29.338Z</time></trkpt><trkpt lat="43.2724208" lon="10.5665189"><ele>18.0</ele><time>2026-04-06T08:32:30.336Z</time></trkpt><trkpt lat="43.2723572" lon="10.5666112"><ele>18.0</ele><time>2026-04-06T08:32:31.341Z</time></trkpt><trkpt lat="43.2722932" lon="10.5666977"><ele>18.0</ele><time>2026-04-06T08:32:32.337Z</time></trkpt><trkpt lat="43.2722314" lon="10.5667818"><ele>18.0</ele><time>2026-04-06T08:32:33.333Z</time></trkpt><trkpt lat="43.2721723" lon="10.5668644"><ele>18.0</ele><time>2026-04-06T08:32:34.337Z</time></trkpt><trkpt lat="43.2721165" lon="10.5669434"><ele>18.0</ele><time>2026-04-06T08:32:35.337Z</time></trkpt><trkpt lat="43.2720635" lon="10.5670181"><ele>18.0</ele><time>2026-04-06T08:32:36.337Z</time></trkpt><trkpt lat="43.2720145" lon="10.5670821"><ele>18.0</ele><time>2026-04-06T08:32:37.339Z</time></trkpt><trkpt lat="43.2719213" lon="10.5671673"><ele>18.0</ele><time>2026-04-06T08:32:39.339Z</time></trkpt><trkpt lat="43.2718478" lon="10.5671845"><ele>18.0</ele><time>2026-04-06T08:32:41.346Z</time></trkpt><trkpt lat="43.2717844" lon="10.5671114"><ele>18.0</ele><time>2026-04-06T08:32:44.336Z</time></trkpt><trkpt lat="43.271759" lon="10.5670214"><ele>18.0</ele><time>2026-04-06T08:32:46.335Z</time></trkpt><trkpt lat="43.2717584" lon="10.5669035"><ele>18.000000000000004</ele><time>2026-04-06T08:32:48.334Z</time></trkpt><trkpt lat="43.2717785" lon="10.5667614"><ele>18.0</ele><time>2026-04-06T08:32:50.337Z</time></trkpt><trkpt lat="43.2717959" lon="10.5666769"><ele>18.0</ele><time>2026-04-06T08:32:51.335Z</time></trkpt><trkpt lat="43.2718176" lon="10.5665948"><ele>18.0</ele><time>2026-04-06T08:32:52.338Z</time></trkpt><trkpt lat="43.2718418" lon="10.5665108"><ele>18.0</ele><time>2026-04-06T08:32:53.338Z</time></trkpt><trkpt lat="43.2718628" lon="10.5664167"><ele>18.000000000000004</ele><time>2026-04-06T08:32:54.338Z</time></trkpt><trkpt lat="43.2718828" lon="10.5663164"><ele>18.0</ele><time>2026-04-06T08:32:55.338Z</time></trkpt><trkpt lat="43.2719051" lon="10.566215"><ele>18.0</ele><time>2026-04-06T08:32:56.341Z</time></trkpt><trkpt lat="43.2719272" lon="10.5661128"><ele>18.0</ele><time>2026-04-06T08:32:57.34Z</time></trkpt><trkpt lat="43.2719489" lon="10.5660071"><ele>18.0</ele><time>2026-04-06T08:32:58.336Z</time></trkpt><trkpt lat="43.2719694" lon="10.5658996"><ele>18.0</ele><time>2026-04-06T08:32:59.339Z</time></trkpt><trkpt lat="43.2719907" lon="10.5657912"><ele>18.0</ele><time>2026-04-06T08:33:00.339Z</time></trkpt><trkpt lat="43.2720083" lon="10.565685"><ele>18.0</ele><time>2026-04-06T08:33:01.338Z</time></trkpt><trkpt lat="43.2720267" lon="10.5655667"><ele>18.0</ele><time>2026-04-06T08:33:02.34Z</time></trkpt><trkpt lat="43.2720417" lon="10.5654467"><ele>18.0</ele><time>2026-04-06T08:33:03.339Z</time></trkpt><trkpt lat="43.27206" lon="10.56532"><ele>18.0</ele><time>2026-04-06T08:33:04.338Z</time></trkpt><trkpt lat="43.2720767" lon="10.5651883"><ele>18.0</ele><time>2026-04-06T08:33:05.341Z</time></trkpt><trkpt lat="43.2720917" lon="10.5650517"><ele>18.0</ele><time>2026-04-06T08:33:06.34Z</time></trkpt><trkpt lat="43.272095" lon="10.5649283"><ele>17.6</ele><time>2026-04-06T08:33:07.339Z</time></trkpt><trkpt lat="43.2720917" lon="10.564805"><ele>17.200000000000003</ele><time>2026-04-06T08:33:08.342Z</time></trkpt><trkpt lat="43.2720817" lon="10.5646817"><ele>16.8</ele><time>2026-04-06T08:33:09.338Z</time></trkpt><trkpt lat="43.2720683" lon="10.56455"><ele>16.400000000000002</ele><time>2026-04-06T08:33:10.338Z</time></trkpt><trkpt lat="43.2720533" lon="10.5644167"><ele>16.0</ele><time>2026-04-06T08:33:11.338Z</time></trkpt><trkpt lat="43.2720367" lon="10.56428"><ele>15.8</ele><time>2026-04-06T08:33:12.337Z</time></trkpt><trkpt lat="43.2720183" lon="10.5641383"><ele>15.600000000000001</ele><time>2026-04-06T08:33:13.339Z</time></trkpt><trkpt lat="43.271995" lon="10.563995"><ele>15.4</ele><time>2026-04-06T08:33:14.34Z</time></trkpt><trkpt lat="43.2719767" lon="10.5638467"><ele>15.2</ele><time>2026-04-06T08:33:15.343Z</time></trkpt><trkpt lat="43.2719567" lon="10.5636983"><ele>15.0</ele><time>2026-04-06T08:33:16.337Z</time></trkpt><trkpt lat="43.271935" lon="10.5635483"><ele>15.2</ele><time>2026-04-06T08:33:17.337Z</time></trkpt><trkpt lat="43.2719167" lon="10.563395"><ele>15.4</ele><time>2026-04-06T08:33:18.337Z</time></trkpt><trkpt lat="43.2718983" lon="10.563245"><ele>15.600000000000001</ele><time>2026-04-06T08:33:19.338Z</time></trkpt><trkpt lat="43.27188" lon="10.5630983"><ele>15.8</ele><time>2026-04-06T08:33:20.34Z</time></trkpt><trkpt lat="43.27186" lon="10.5629483"><ele>16.0</ele><time>2026-04-06T08:33:21.337Z</time></trkpt><trkpt lat="43.27184" lon="10.562795"><ele>16.0</ele><time>2026-04-06T08:33:22.336Z</time></trkpt><trkpt lat="43.2718183" lon="10.56264"><ele>16.0</ele><time>2026-04-06T08:33:23.337Z</time></trkpt><trkpt lat="43.2717967" lon="10.562485"><ele>16.0</ele><time>2026-04-06T08:33:24.341Z</time></trkpt><trkpt lat="43.27178" lon="10.5623267"><ele>16.0</ele><time>2026-04-06T08:33:25.341Z</time></trkpt><trkpt lat="43.2717617" lon="10.5621667"><ele>15.75</ele><time>2026-04-06T08:33:26.341Z</time></trkpt><trkpt lat="43.2717383" lon="10.5620117"><ele>15.5</ele><time>2026-04-06T08:33:27.34Z</time></trkpt><trkpt lat="43.2717183" lon="10.56186"><ele>15.25</ele><time>2026-04-06T08:33:28.338Z</time></trkpt><trkpt lat="43.271695" lon="10.56171"><ele>15.0</ele><time>2026-04-06T08:33:29.339Z</time></trkpt><trkpt lat="43.2716733" lon="10.561555"><ele>15.0</ele><time>2026-04-06T08:33:30.338Z</time></trkpt><trkpt lat="43.2716533" lon="10.5614017"><ele>15.0</ele><time>2026-04-06T08:33:31.337Z</time></trkpt><trkpt lat="43.2716333" lon="10.5612517"><ele>15.0</ele><time>2026-04-06T08:33:32.342Z</time></trkpt><trkpt lat="43.2716133" lon="10.561095"><ele>15.0</ele><time>2026-04-06T08:33:33.339Z</time></trkpt><trkpt lat="43.271595" lon="10.5609533"><ele>15.0</ele><time>2026-04-06T08:33:34.341Z</time></trkpt><trkpt lat="43.271575" lon="10.5608017"><ele>14.75</ele><time>2026-04-06T08:33:35.336Z</time></trkpt><trkpt lat="43.271555" lon="10.5606467"><ele>14.5</ele><time>2026-04-06T08:33:36.338Z</time></trkpt><trkpt lat="43.2715383" lon="10.56049"><ele>14.25</ele><time>2026-04-06T08:33:37.339Z</time></trkpt><trkpt lat="43.27152" lon="10.5603367"><ele>14.0</ele><time>2026-04-06T08:33:38.344Z</time></trkpt><trkpt lat="43.2715017" lon="10.56018"><ele>14.0</ele><time>2026-04-06T08:33:39.338Z</time></trkpt><trkpt lat="43.2714817" lon="10.5600267"><ele>14.0</ele><time>2026-04-06T08:33:40.341Z</time></trkpt><trkpt lat="43.2714617" lon="10.5598733"><ele>14.0</ele><time>2026-04-06T08:33:41.34Z</time></trkpt><trkpt lat="43.2714417" lon="10.55972"><ele>14.0</ele><time>2026-04-06T08:33:42.34Z</time></trkpt><trkpt lat="43.2714217" lon="10.55957"><ele>13.75</ele><time>2026-04-06T08:33:43.339Z</time></trkpt><trkpt lat="43.2714033" lon="10.5594183"><ele>13.5</ele><time>2026-04-06T08:33:44.342Z</time></trkpt><trkpt lat="43.2713883" lon="10.559265"><ele>13.25</ele><time>2026-04-06T08:33:45.338Z</time></trkpt><trkpt lat="43.2713717" lon="10.5591133"><ele>13.0</ele><time>2026-04-06T08:33:46.339Z</time></trkpt><trkpt lat="43.2713517" lon="10.55896"><ele>13.0</ele><time>2026-04-06T08:33:47.34Z</time></trkpt><trkpt lat="43.2713317" lon="10.5588083"><ele>13.0</ele><time>2026-04-06T08:33:48.341Z</time></trkpt><trkpt lat="43.2713133" lon="10.5586533"><ele>13.0</ele><time>2026-04-06T08:33:49.339Z</time></trkpt><trkpt lat="43.2712967" lon="10.5584983"><ele>13.0</ele><time>2026-04-06T08:33:50.338Z</time></trkpt><trkpt lat="43.27126" lon="10.5581883"><ele>13.5</ele><time>2026-04-06T08:33:52.341Z</time></trkpt><trkpt lat="43.2712417" lon="10.558035"><ele>14.0</ele><time>2026-04-06T08:33:53.344Z</time></trkpt><trkpt lat="43.2712233" lon="10.5578833"><ele>14.5</ele><time>2026-04-06T08:33:54.342Z</time></trkpt><trkpt lat="43.2712017" lon="10.5577283"><ele>15.0</ele><time>2026-04-06T08:33:55.346Z</time></trkpt><trkpt lat="43.27118" lon="10.5575733"><ele>15.0</ele><time>2026-04-06T08:33:56.34Z</time></trkpt><trkpt lat="43.27116" lon="10.5574183"><ele>15.0</ele><time>2026-04-06T08:33:57.338Z</time></trkpt><trkpt lat="43.27114" lon="10.557265"><ele>15.0</ele><time>2026-04-06T08:33:58.336Z</time></trkpt><trkpt lat="43.27112" lon="10.55711"><ele>15.0</ele><time>2026-04-06T08:33:59.337Z</time></trkpt><trkpt lat="43.2711" lon="10.5569517"><ele>14.75</ele><time>2026-04-06T08:34:00.341Z</time></trkpt><trkpt lat="43.27108" lon="10.5567967"><ele>14.5</ele><time>2026-04-06T08:34:01.34Z</time></trkpt><trkpt lat="43.27106" lon="10.5566383"><ele>14.25</ele><time>2026-04-06T08:34:02.341Z</time></trkpt><trkpt lat="43.2710417" lon="10.55648"><ele>14.0</ele><time>2026-04-06T08:34:03.336Z</time></trkpt><trkpt lat="43.2710217" lon="10.5563217"><ele>13.75</ele><time>2026-04-06T08:34:04.339Z</time></trkpt><trkpt lat="43.2710033" lon="10.5561633"><ele>13.5</ele><time>2026-04-06T08:34:05.338Z</time></trkpt><trkpt lat="43.2709833" lon="10.5560067"><ele>13.25</ele><time>2026-04-06T08:34:06.338Z</time></trkpt><trkpt lat="43.270965" lon="10.5558483"><ele>13.0</ele><time>2026-04-06T08:34:07.339Z</time></trkpt><trkpt lat="43.270945" lon="10.5556917"><ele>13.0</ele><time>2026-04-06T08:34:08.337Z</time></trkpt><trkpt lat="43.270925" lon="10.555535"><ele>13.0</ele><time>2026-04-06T08:34:09.339Z</time></trkpt><trkpt lat="43.270905" lon="10.5553733"><ele>13.0</ele><time>2026-04-06T08:34:10.341Z</time></trkpt><trkpt lat="43.2708867" lon="10.5552117"><ele>13.0</ele><time>2026-04-06T08:34:11.337Z</time></trkpt><trkpt lat="43.2708667" lon="10.5550517"><ele>13.0</ele><time>2026-04-06T08:34:12.338Z</time></trkpt><trkpt lat="43.270845" lon="10.5548917"><ele>13.0</ele><time>2026-04-06T08:34:13.336Z</time></trkpt><trkpt lat="43.270825" lon="10.55473"><ele>13.0</ele><time>2026-04-06T08:34:14.341Z</time></trkpt><trkpt lat="43.2708033" lon="10.5545683"><ele>13.0</ele><time>2026-04-06T08:34:15.337Z</time></trkpt><trkpt lat="43.2707833" lon="10.5544067"><ele>13.0</ele><time>2026-04-06T08:34:16.338Z</time></trkpt><trkpt lat="43.2707617" lon="10.5542433"><ele>13.0</ele><time>2026-04-06T08:34:17.337Z</time></trkpt><trkpt lat="43.27074" lon="10.55408"><ele>13.0</ele><time>2026-04-06T08:34:18.34Z</time></trkpt><trkpt lat="43.2707183" lon="10.553915"><ele>13.0</ele><time>2026-04-06T08:34:19.335Z</time></trkpt><trkpt lat="43.2706983" lon="10.5537467"><ele>13.0</ele><time>2026-04-06T08:34:20.338Z</time></trkpt><trkpt lat="43.2706767" lon="10.5535783"><ele>13.0</ele><time>2026-04-06T08:34:21.338Z</time></trkpt><trkpt lat="43.2706567" lon="10.5534083"><ele>13.0</ele><time>2026-04-06T08:34:22.335Z</time></trkpt><trkpt lat="43.270635" lon="10.55324"><ele>13.0</ele><time>2026-04-06T08:34:23.335Z</time></trkpt><trkpt lat="43.2706133" lon="10.5530717"><ele>12.75</ele><time>2026-04-06T08:34:24.336Z</time></trkpt><trkpt lat="43.2705933" lon="10.5529033"><ele>12.5</ele><time>2026-04-06T08:34:25.337Z</time></trkpt><trkpt lat="43.2705717" lon="10.55273"><ele>12.25</ele><time>2026-04-06T08:34:26.335Z</time></trkpt><trkpt lat="43.27055" lon="10.55256"><ele>12.0</ele><time>2026-04-06T08:34:27.334Z</time></trkpt><trkpt lat="43.27053" lon="10.5523867"><ele>11.75</ele><time>2026-04-06T08:34:28.337Z</time></trkpt><trkpt lat="43.27051" lon="10.5522167"><ele>11.5</ele><time>2026-04-06T08:34:29.341Z</time></trkpt><trkpt lat="43.2704867" lon="10.5520433"><ele>11.25</ele><time>2026-04-06T08:34:30.338Z</time></trkpt><trkpt lat="43.270465" lon="10.5518683"><ele>11.0</ele><time>2026-04-06T08:34:31.338Z</time></trkpt><trkpt lat="43.2704433" lon="10.551695"><ele>11.0</ele><time>2026-04-06T08:34:32.34Z</time></trkpt><trkpt lat="43.2704233" lon="10.5515233"><ele>11.0</ele><time>2026-04-06T08:34:33.339Z</time></trkpt><trkpt lat="43.270405" lon="10.551355"><ele>11.0</ele><time>2026-04-06T08:34:34.337Z</time></trkpt><trkpt lat="43.270385" lon="10.5511983"><ele>11.0</ele><time>2026-04-06T08:34:35.34Z</time></trkpt><trkpt lat="43.270365" lon="10.5510467"><ele>11.0</ele><time>2026-04-06T08:34:36.335Z</time></trkpt><trkpt lat="43.270345" lon="10.5508967"><ele>11.0</ele><time>2026-04-06T08:34:37.339Z</time></trkpt><trkpt lat="43.27033" lon="10.55075"><ele>11.0</ele><time>2026-04-06T08:34:38.339Z</time></trkpt><trkpt lat="43.27031" lon="10.55061"><ele>11.0</ele><time>2026-04-06T08:34:39.336Z</time></trkpt><trkpt lat="43.27029" lon="10.5504783"><ele>11.0</ele><time>2026-04-06T08:34:40.337Z</time></trkpt><trkpt lat="43.2702733" lon="10.5503517"><ele>11.0</ele><time>2026-04-06T08:34:41.336Z</time></trkpt><trkpt lat="43.27026" lon="10.5502283"><ele>11.0</ele><time>2026-04-06T08:34:42.339Z</time></trkpt><trkpt lat="43.2702467" lon="10.5501083"><ele>11.0</ele><time>2026-04-06T08:34:43.338Z</time></trkpt><trkpt lat="43.270235" lon="10.5499933"><ele>11.0</ele><time>2026-04-06T08:34:44.34Z</time></trkpt><trkpt lat="43.2702283" lon="10.5498817"><ele>11.0</ele><time>2026-04-06T08:34:45.34Z</time></trkpt><trkpt lat="43.27023" lon="10.5497717"><ele>11.0</ele><time>2026-04-06T08:34:46.339Z</time></trkpt><trkpt lat="43.2702417" lon="10.5496667"><ele>11.0</ele><time>2026-04-06T08:34:47.339Z</time></trkpt><trkpt lat="43.27026" lon="10.54957"><ele>11.0</ele><time>2026-04-06T08:34:48.339Z</time></trkpt><trkpt lat="43.27028" lon="10.5494767"><ele>11.0</ele><time>2026-04-06T08:34:49.34Z</time></trkpt><trkpt lat="43.27029" lon="10.549385"><ele>11.0</ele><time>2026-04-06T08:34:50.336Z</time></trkpt><trkpt lat="43.2702867" lon="10.5492983"><ele>11.0</ele><time>2026-04-06T08:34:51.335Z</time></trkpt><trkpt lat="43.27023" lon="10.549155"><ele>11.0</ele><time>2026-04-06T08:34:53.342Z</time></trkpt><trkpt lat="43.27018" lon="10.5490817"><ele>10.833333333333332</ele><time>2026-04-06T08:34:54.338Z</time></trkpt><trkpt lat="43.2701333" lon="10.5489917"><ele>10.666666666666666</ele><time>2026-04-06T08:34:55.337Z</time></trkpt><trkpt lat="43.2700933" lon="10.54889"><ele>10.5</ele><time>2026-04-06T08:34:56.338Z</time></trkpt><trkpt lat="43.2700683" lon="10.5487767"><ele>10.333333333333334</ele><time>2026-04-06T08:34:57.335Z</time></trkpt><trkpt lat="43.2700567" lon="10.5486567"><ele>10.166666666666668</ele><time>2026-04-06T08:34:58.336Z</time></trkpt><trkpt lat="43.27005" lon="10.5485317"><ele>10.0</ele><time>2026-04-06T08:34:59.339Z</time></trkpt><trkpt lat="43.2700417" lon="10.5484117"><ele>10.0</ele><time>2026-04-06T08:35:00.339Z</time></trkpt><trkpt lat="43.2700267" lon="10.54829"><ele>10.0</ele><time>2026-04-06T08:35:01.34Z</time></trkpt><trkpt lat="43.2700117" lon="10.5481667"><ele>10.0</ele><time>2026-04-06T08:35:02.344Z</time></trkpt><trkpt lat="43.2699933" lon="10.5480417"><ele>10.0</ele><time>2026-04-06T08:35:03.337Z</time></trkpt><trkpt lat="43.269975" lon="10.5479133"><ele>10.0</ele><time>2026-04-06T08:35:04.337Z</time></trkpt><trkpt lat="43.2699583" lon="10.5477883"><ele>10.0</ele><time>2026-04-06T08:35:05.339Z</time></trkpt><trkpt lat="43.269945" lon="10.54767"><ele>10.0</ele><time>2026-04-06T08:35:06.338Z</time></trkpt><trkpt lat="43.2699317" lon="10.547555"><ele>10.0</ele><time>2026-04-06T08:35:07.344Z</time></trkpt><trkpt lat="43.2699167" lon="10.54744"><ele>10.0</ele><time>2026-04-06T08:35:08.341Z</time></trkpt><trkpt lat="43.2699017" lon="10.5473233"><ele>10.0</ele><time>2026-04-06T08:35:09.338Z</time></trkpt><trkpt lat="43.2698917" lon="10.5472067"><ele>10.0</ele><time>2026-04-06T08:35:10.338Z</time></trkpt><trkpt lat="43.2698767" lon="10.5470883"><ele>10.166666666666668</ele><time>2026-04-06T08:35:11.336Z</time></trkpt><trkpt lat="43.26986" lon="10.5469667"><ele>10.333333333333334</ele><time>2026-04-06T08:35:12.34Z</time></trkpt><trkpt lat="43.2698433" lon="10.5468433"><ele>10.5</ele><time>2026-04-06T08:35:13.339Z</time></trkpt><trkpt lat="43.26983" lon="10.5467267"><ele>10.666666666666666</ele><time>2026-04-06T08:35:14.338Z</time></trkpt><trkpt lat="43.2698217" lon="10.5466233"><ele>10.833333333333332</ele><time>2026-04-06T08:35:15.339Z</time></trkpt><trkpt lat="43.2698117" lon="10.5465233"><ele>11.0</ele><time>2026-04-06T08:35:16.337Z</time></trkpt><trkpt lat="43.2698" lon="10.5464183"><ele>11.0</ele><time>2026-04-06T08:35:17.341Z</time></trkpt><trkpt lat="43.2697917" lon="10.5463167"><ele>11.0</ele><time>2026-04-06T08:35:18.343Z</time></trkpt><trkpt lat="43.2697767" lon="10.546215"><ele>11.0</ele><time>2026-04-06T08:35:19.344Z</time></trkpt><trkpt lat="43.26976" lon="10.5461217"><ele>11.0</ele><time>2026-04-06T08:35:20.341Z</time></trkpt><trkpt lat="43.2697433" lon="10.5460267"><ele>11.0</ele><time>2026-04-06T08:35:21.338Z</time></trkpt><trkpt lat="43.2697267" lon="10.5458783"><ele>11.0</ele><time>2026-04-06T08:35:23.342Z</time></trkpt><trkpt lat="43.269705" lon="10.5457167"><ele>10.833333333333332</ele><time>2026-04-06T08:35:25.338Z</time></trkpt><trkpt lat="43.2696933" lon="10.5456317"><ele>10.666666666666666</ele><time>2026-04-06T08:35:26.339Z</time></trkpt><trkpt lat="43.2696717" lon="10.5454583"><ele>10.5</ele><time>2026-04-06T08:35:28.34Z</time></trkpt><trkpt lat="43.2696567" lon="10.5453583"><ele>10.333333333333334</ele><time>2026-04-06T08:35:29.339Z</time></trkpt><trkpt lat="43.2696467" lon="10.545265"><ele>10.166666666666668</ele><time>2026-04-06T08:35:30.342Z</time></trkpt><trkpt lat="43.269635" lon="10.5451683"><ele>10.0</ele><time>2026-04-06T08:35:31.339Z</time></trkpt><trkpt lat="43.269625" lon="10.5450683"><ele>10.0</ele><time>2026-04-06T08:35:32.339Z</time></trkpt><trkpt lat="43.2696133" lon="10.544965"><ele>10.0</ele><time>2026-04-06T08:35:33.34Z</time></trkpt><trkpt lat="43.2696067" lon="10.54487"><ele>10.0</ele><time>2026-04-06T08:35:34.341Z</time></trkpt><trkpt lat="43.2695983" lon="10.5447767"><ele>10.0</ele><time>2026-04-06T08:35:35.339Z</time></trkpt><trkpt lat="43.2695917" lon="10.544685"><ele>10.0</ele><time>2026-04-06T08:35:36.34Z</time></trkpt><trkpt lat="43.2695817" lon="10.5445833"><ele>10.0</ele><time>2026-04-06T08:35:37.34Z</time></trkpt><trkpt lat="43.2695617" lon="10.5444667"><ele>10.0</ele><time>2026-04-06T08:35:38.338Z</time></trkpt><trkpt lat="43.26954" lon="10.54434"><ele>9.8</ele><time>2026-04-06T08:35:39.338Z</time></trkpt><trkpt lat="43.26952" lon="10.5442"><ele>9.6</ele><time>2026-04-06T08:35:40.344Z</time></trkpt><trkpt lat="43.2695" lon="10.54405"><ele>9.4</ele><time>2026-04-06T08:35:41.338Z</time></trkpt><trkpt lat="43.2694767" lon="10.5439017"><ele>9.2</ele><time>2026-04-06T08:35:42.339Z</time></trkpt><trkpt lat="43.269455" lon="10.5437567"><ele>9.0</ele><time>2026-04-06T08:35:43.336Z</time></trkpt><trkpt lat="43.269435" lon="10.54362"><ele>9.0</ele><time>2026-04-06T08:35:44.337Z</time></trkpt><trkpt lat="43.2694183" lon="10.5434967"><ele>9.0</ele><time>2026-04-06T08:35:45.342Z</time></trkpt><trkpt lat="43.2693917" lon="10.5433883"><ele>9.0</ele><time>2026-04-06T08:35:46.336Z</time></trkpt><trkpt lat="43.26935" lon="10.543305"><ele>9.0</ele><time>2026-04-06T08:35:47.339Z</time></trkpt><trkpt lat="43.269295" lon="10.5432417"><ele>9.0</ele><time>2026-04-06T08:35:48.342Z</time></trkpt><trkpt lat="43.2692283" lon="10.543205"><ele>9.0</ele><time>2026-04-06T08:35:49.337Z</time></trkpt><trkpt lat="43.26914" lon="10.5431933"><ele>9.0</ele><time>2026-04-06T08:35:50.338Z</time></trkpt><trkpt lat="43.269055" lon="10.5431967"><ele>9.0</ele><time>2026-04-06T08:35:51.338Z</time></trkpt><trkpt lat="43.2689617" lon="10.5432217"><ele>9.0</ele><time>2026-04-06T08:35:52.348Z</time></trkpt><trkpt lat="43.2688583" lon="10.54326"><ele>9.0</ele><time>2026-04-06T08:35:53.34Z</time></trkpt><trkpt lat="43.268745" lon="10.5433017"><ele>9.0</ele><time>2026-04-06T08:35:54.339Z</time></trkpt><trkpt lat="43.2686217" lon="10.5433483"><ele>9.25</ele><time>2026-04-06T08:35:55.337Z</time></trkpt><trkpt lat="43.2685" lon="10.5433967"><ele>9.5</ele><time>2026-04-06T08:35:56.34Z</time></trkpt><trkpt lat="43.2683767" lon="10.5434467"><ele>9.75</ele><time>2026-04-06T08:35:57.337Z</time></trkpt><trkpt lat="43.2682517" lon="10.5434933"><ele>10.0</ele><time>2026-04-06T08:35:58.338Z</time></trkpt><trkpt lat="43.268125" lon="10.54354"><ele>10.0</ele><time>2026-04-06T08:35:59.342Z</time></trkpt><trkpt lat="43.2679967" lon="10.5435867"><ele>10.0</ele><time>2026-04-06T08:36:00.338Z</time></trkpt><trkpt lat="43.267875" lon="10.54363"><ele>10.0</ele><time>2026-04-06T08:36:01.334Z</time></trkpt><trkpt lat="43.2677533" lon="10.5436733"><ele>10.0</ele><time>2026-04-06T08:36:02.348Z</time></trkpt><trkpt lat="43.2676333" lon="10.5437167"><ele>9.75</ele><time>2026-04-06T08:36:03.339Z</time></trkpt><trkpt lat="43.267515" lon="10.5437583"><ele>9.5</ele><time>2026-04-06T08:36:04.336Z</time></trkpt><trkpt lat="43.2673983" lon="10.5438"><ele>9.25</ele><time>2026-04-06T08:36:05.338Z</time></trkpt><trkpt lat="43.26728" lon="10.54384"><ele>9.0</ele><time>2026-04-06T08:36:06.339Z</time></trkpt><trkpt lat="43.2671617" lon="10.5438817"><ele>8.75</ele><time>2026-04-06T08:36:07.338Z</time></trkpt><trkpt lat="43.267045" lon="10.5439217"><ele>8.5</ele><time>2026-04-06T08:36:08.338Z</time></trkpt><trkpt lat="43.2669267" lon="10.5439617"><ele>8.25</ele><time>2026-04-06T08:36:09.337Z</time></trkpt><trkpt lat="43.26681" lon="10.5440017"><ele>8.0</ele><time>2026-04-06T08:36:10.342Z</time></trkpt><trkpt lat="43.2666917" lon="10.5440433"><ele>8.0</ele><time>2026-04-06T08:36:11.342Z</time></trkpt><trkpt lat="43.2665767" lon="10.544085"><ele>8.0</ele><time>2026-04-06T08:36:12.34Z</time></trkpt><trkpt lat="43.266465" lon="10.5441283"><ele>8.0</ele><time>2026-04-06T08:36:13.34Z</time></trkpt><trkpt lat="43.2663533" lon="10.5441733"><ele>8.0</ele><time>2026-04-06T08:36:14.34Z</time></trkpt><trkpt lat="43.2662433" lon="10.5442167"><ele>7.75</ele><time>2026-04-06T08:36:15.338Z</time></trkpt><trkpt lat="43.2661333" lon="10.54426"><ele>7.5</ele><time>2026-04-06T08:36:16.337Z</time></trkpt><trkpt lat="43.2660233" lon="10.5442933"><ele>7.25</ele><time>2026-04-06T08:36:17.339Z</time></trkpt><trkpt lat="43.2659133" lon="10.5443367"><ele>7.0</ele><time>2026-04-06T08:36:18.339Z</time></trkpt><trkpt lat="43.265805" lon="10.5443933"><ele>7.0</ele><time>2026-04-06T08:36:19.345Z</time></trkpt><trkpt lat="43.2657017" lon="10.544455"><ele>7.0</ele><time>2026-04-06T08:36:20.337Z</time></trkpt><trkpt lat="43.2655967" lon="10.5445217"><ele>7.0</ele><time>2026-04-06T08:36:21.338Z</time></trkpt><trkpt lat="43.26549" lon="10.5445967"><ele>7.0</ele><time>2026-04-06T08:36:22.337Z</time></trkpt><trkpt lat="43.26538" lon="10.5446717"><ele>6.75</ele><time>2026-04-06T08:36:23.342Z</time></trkpt><trkpt lat="43.2652717" lon="10.5447417"><ele>6.5</ele><time>2026-04-06T08:36:24.341Z</time></trkpt><trkpt lat="43.2651667" lon="10.5448067"><ele>6.25</ele><time>2026-04-06T08:36:25.339Z</time></trkpt><trkpt lat="43.26506" lon="10.5448733"><ele>6.0</ele><time>2026-04-06T08:36:26.338Z</time></trkpt><trkpt lat="43.2649533" lon="10.5449367"><ele>6.0</ele><time>2026-04-06T08:36:27.338Z</time></trkpt><trkpt lat="43.2648433" lon="10.5449967"><ele>6.0</ele><time>2026-04-06T08:36:28.337Z</time></trkpt><trkpt lat="43.2647267" lon="10.5450583"><ele>6.0</ele><time>2026-04-06T08:36:29.339Z</time></trkpt><trkpt lat="43.26461" lon="10.5451167"><ele>6.0</ele><time>2026-04-06T08:36:30.336Z</time></trkpt><trkpt lat="43.26449" lon="10.5451683"><ele>6.0</ele><time>2026-04-06T08:36:31.336Z</time></trkpt><trkpt lat="43.2643717" lon="10.5452233"><ele>6.0</ele><time>2026-04-06T08:36:32.34Z</time></trkpt><trkpt lat="43.264255" lon="10.54528"><ele>6.0</ele><time>2026-04-06T08:36:33.337Z</time></trkpt><trkpt lat="43.2641383" lon="10.5453383"><ele>6.0</ele><time>2026-04-06T08:36:34.339Z</time></trkpt><trkpt lat="43.2640233" lon="10.5453983"><ele>6.25</ele><time>2026-04-06T08:36:35.338Z</time></trkpt><trkpt lat="43.2639083" lon="10.5454567"><ele>6.5</ele><time>2026-04-06T08:36:36.337Z</time></trkpt><trkpt lat="43.26379" lon="10.545515"><ele>6.75</ele><time>2026-04-06T08:36:37.339Z</time></trkpt><trkpt lat="43.2636683" lon="10.5455683"><ele>7.0</ele><time>2026-04-06T08:36:38.337Z</time></trkpt><trkpt lat="43.2635483" lon="10.5456183"><ele>7.0</ele><time>2026-04-06T08:36:39.337Z</time></trkpt><trkpt lat="43.2634283" lon="10.54567"><ele>7.0</ele><time>2026-04-06T08:36:40.34Z</time></trkpt><trkpt lat="43.2633083" lon="10.5457183"><ele>7.0</ele><time>2026-04-06T08:36:41.336Z</time></trkpt><trkpt lat="43.263185" lon="10.5457617"><ele>7.0</ele><time>2026-04-06T08:36:42.338Z</time></trkpt><trkpt lat="43.2630633" lon="10.5458067"><ele>6.75</ele><time>2026-04-06T08:36:43.337Z</time></trkpt><trkpt lat="43.2629417" lon="10.5458517"><ele>6.5</ele><time>2026-04-06T08:36:44.341Z</time></trkpt><trkpt lat="43.2628217" lon="10.5458967"><ele>6.25</ele><time>2026-04-06T08:36:45.337Z</time></trkpt><trkpt lat="43.2627033" lon="10.5459433"><ele>6.0</ele><time>2026-04-06T08:36:46.337Z</time></trkpt><trkpt lat="43.2625817" lon="10.54599"><ele>6.0</ele><time>2026-04-06T08:36:47.337Z</time></trkpt><trkpt lat="43.262465" lon="10.546035"><ele>6.0</ele><time>2026-04-06T08:36:48.339Z</time></trkpt><trkpt lat="43.26235" lon="10.5460783"><ele>6.0</ele><time>2026-04-06T08:36:49.337Z</time></trkpt><trkpt lat="43.2622333" lon="10.5461183"><ele>6.0</ele><time>2026-04-06T08:36:50.342Z</time></trkpt><trkpt lat="43.2621133" lon="10.5461517"><ele>6.0</ele><time>2026-04-06T08:36:51.339Z</time></trkpt><trkpt lat="43.261995" lon="10.5461767"><ele>6.0</ele><time>2026-04-06T08:36:52.339Z</time></trkpt><trkpt lat="43.261875" lon="10.5461917"><ele>6.0</ele><time>2026-04-06T08:36:53.338Z</time></trkpt><trkpt lat="43.26175" lon="10.5461967"><ele>6.0</ele><time>2026-04-06T08:36:54.344Z</time></trkpt><trkpt lat="43.261625" lon="10.5462017"><ele>6.0</ele><time>2026-04-06T08:36:55.338Z</time></trkpt><trkpt lat="43.2614967" lon="10.5462067"><ele>6.0</ele><time>2026-04-06T08:36:56.338Z</time></trkpt><trkpt lat="43.2613683" lon="10.5462117"><ele>6.0</ele><time>2026-04-06T08:36:57.336Z</time></trkpt><trkpt lat="43.2612433" lon="10.5462183"><ele>6.0</ele><time>2026-04-06T08:36:58.337Z</time></trkpt><trkpt lat="43.2611167" lon="10.5462283"><ele>6.25</ele><time>2026-04-06T08:36:59.341Z</time></trkpt><trkpt lat="43.2609917" lon="10.54624"><ele>6.5</ele><time>2026-04-06T08:37:00.337Z</time></trkpt><trkpt lat="43.2608683" lon="10.5462533"><ele>6.75</ele><time>2026-04-06T08:37:01.338Z</time></trkpt><trkpt lat="43.26074" lon="10.5462717"><ele>7.0</ele><time>2026-04-06T08:37:02.34Z</time></trkpt><trkpt lat="43.2606167" lon="10.5462883"><ele>7.0</ele><time>2026-04-06T08:37:03.34Z</time></trkpt><trkpt lat="43.2604917" lon="10.5463167"><ele>7.0</ele><time>2026-04-06T08:37:04.338Z</time></trkpt><trkpt lat="43.2603683" lon="10.5463517"><ele>7.0</ele><time>2026-04-06T08:37:05.339Z</time></trkpt><trkpt lat="43.2602467" lon="10.5463883"><ele>7.0</ele><time>2026-04-06T08:37:06.342Z</time></trkpt><trkpt lat="43.2601217" lon="10.5464317"><ele>7.0</ele><time>2026-04-06T08:37:07.342Z</time></trkpt><trkpt lat="43.2599983" lon="10.5464767"><ele>7.0</ele><time>2026-04-06T08:37:08.338Z</time></trkpt><trkpt lat="43.259875" lon="10.5465217"><ele>7.0</ele><time>2026-04-06T08:37:09.34Z</time></trkpt><trkpt lat="43.25975" lon="10.5465683"><ele>7.0</ele><time>2026-04-06T08:37:10.34Z</time></trkpt><trkpt lat="43.2596267" lon="10.546625"><ele>6.75</ele><time>2026-04-06T08:37:11.337Z</time></trkpt><trkpt lat="43.259505" lon="10.54669"><ele>6.5</ele><time>2026-04-06T08:37:12.338Z</time></trkpt><trkpt lat="43.2593867" lon="10.5467533"><ele>6.25</ele><time>2026-04-06T08:37:13.339Z</time></trkpt><trkpt lat="43.2592683" lon="10.5468183"><ele>6.0</ele><time>2026-04-06T08:37:14.335Z</time></trkpt><trkpt lat="43.259155" lon="10.5468817"><ele>6.0</ele><time>2026-04-06T08:37:15.334Z</time></trkpt><trkpt lat="43.25904" lon="10.546945"><ele>6.0</ele><time>2026-04-06T08:37:16.336Z</time></trkpt><trkpt lat="43.2589283" lon="10.54701"><ele>6.0</ele><time>2026-04-06T08:37:17.335Z</time></trkpt><trkpt lat="43.2588167" lon="10.5470667"><ele>6.0</ele><time>2026-04-06T08:37:18.337Z</time></trkpt><trkpt lat="43.258705" lon="10.5471217"><ele>6.0</ele><time>2026-04-06T08:37:19.338Z</time></trkpt><trkpt lat="43.2585933" lon="10.547175"><ele>6.0</ele><time>2026-04-06T08:37:20.342Z</time></trkpt><trkpt lat="43.2584867" lon="10.54723"><ele>6.0</ele><time>2026-04-06T08:37:21.343Z</time></trkpt><trkpt lat="43.2583767" lon="10.54728"><ele>6.0</ele><time>2026-04-06T08:37:22.338Z</time></trkpt><trkpt lat="43.2582683" lon="10.5473217"><ele>6.0</ele><time>2026-04-06T08:37:23.341Z</time></trkpt><trkpt lat="43.25816" lon="10.54737"><ele>6.0</ele><time>2026-04-06T08:37:24.34Z</time></trkpt><trkpt lat="43.25805" lon="10.5474217"><ele>6.0</ele><time>2026-04-06T08:37:25.337Z</time></trkpt><trkpt lat="43.25794" lon="10.5474767"><ele>6.0</ele><time>2026-04-06T08:37:26.343Z</time></trkpt><trkpt lat="43.257825" lon="10.54753"><ele>6.0</ele><time>2026-04-06T08:37:27.34Z</time></trkpt><trkpt lat="43.2577117" lon="10.5475817"><ele>6.0</ele><time>2026-04-06T08:37:28.337Z</time></trkpt><trkpt lat="43.2575983" lon="10.5476333"><ele>6.0</ele><time>2026-04-06T08:37:29.339Z</time></trkpt><trkpt lat="43.257485" lon="10.54768"><ele>6.0</ele><time>2026-04-06T08:37:30.338Z</time></trkpt><trkpt lat="43.2573683" lon="10.5477133"><ele>5.75</ele><time>2026-04-06T08:37:31.339Z</time></trkpt><trkpt lat="43.2572517" lon="10.54774"><ele>5.5</ele><time>2026-04-06T08:37:32.343Z</time></trkpt><trkpt lat="43.2571267" lon="10.5477567"><ele>5.25</ele><time>2026-04-06T08:37:33.337Z</time></trkpt><trkpt lat="43.2569983" lon="10.5477683"><ele>5.0</ele><time>2026-04-06T08:37:34.337Z</time></trkpt><trkpt lat="43.256865" lon="10.5477783"><ele>5.0</ele><time>2026-04-06T08:37:35.337Z</time></trkpt><trkpt lat="43.256735" lon="10.5477933"><ele>5.0</ele><time>2026-04-06T08:37:36.338Z</time></trkpt><trkpt lat="43.256605" lon="10.547805"><ele>5.0</ele><time>2026-04-06T08:37:37.338Z</time></trkpt><trkpt lat="43.25648" lon="10.5478167"><ele>5.0</ele><time>2026-04-06T08:37:38.34Z</time></trkpt><trkpt lat="43.2563567" lon="10.54783"><ele>5.0</ele><time>2026-04-06T08:37:39.34Z</time></trkpt><trkpt lat="43.256235" lon="10.547845"><ele>5.0</ele><time>2026-04-06T08:37:40.337Z</time></trkpt><trkpt lat="43.2561117" lon="10.5478683"><ele>5.0</ele><time>2026-04-06T08:37:41.337Z</time></trkpt><trkpt lat="43.25599" lon="10.5479033"><ele>5.0</ele><time>2026-04-06T08:37:42.34Z</time></trkpt><trkpt lat="43.2558667" lon="10.5479417"><ele>5.0</ele><time>2026-04-06T08:37:43.339Z</time></trkpt><trkpt lat="43.2557433" lon="10.5479883"><ele>5.0</ele><time>2026-04-06T08:37:44.338Z</time></trkpt><trkpt lat="43.2556267" lon="10.548045"><ele>5.0</ele><time>2026-04-06T08:37:45.339Z</time></trkpt><trkpt lat="43.2555117" lon="10.548105"><ele>5.0</ele><time>2026-04-06T08:37:46.337Z</time></trkpt><trkpt lat="43.2553933" lon="10.5481583"><ele>5.5</ele><time>2026-04-06T08:37:47.336Z</time></trkpt><trkpt lat="43.2552767" lon="10.548205"><ele>6.0</ele><time>2026-04-06T08:37:48.337Z</time></trkpt><trkpt lat="43.2551617" lon="10.548245"><ele>6.5</ele><time>2026-04-06T08:37:49.339Z</time></trkpt><trkpt lat="43.2550467" lon="10.54828"><ele>7.0</ele><time>2026-04-06T08:37:50.339Z</time></trkpt><trkpt lat="43.2549267" lon="10.5483117"><ele>7.0</ele><time>2026-04-06T08:37:51.341Z</time></trkpt><trkpt lat="43.2548067" lon="10.548345"><ele>7.0</ele><time>2026-04-06T08:37:52.339Z</time></trkpt><trkpt lat="43.2546867" lon="10.548375"><ele>7.0</ele><time>2026-04-06T08:37:53.339Z</time></trkpt><trkpt lat="43.2545667" lon="10.5484083"><ele>7.0</ele><time>2026-04-06T08:37:54.337Z</time></trkpt><trkpt lat="43.254445" lon="10.5484483"><ele>6.75</ele><time>2026-04-06T08:37:55.342Z</time></trkpt><trkpt lat="43.2543233" lon="10.548485"><ele>6.5</ele><time>2026-04-06T08:37:56.341Z</time></trkpt><trkpt lat="43.2542033" lon="10.548525"><ele>6.25</ele><time>2026-04-06T08:37:57.339Z</time></trkpt><trkpt lat="43.254085" lon="10.5485783"><ele>6.0</ele><time>2026-04-06T08:37:58.34Z</time></trkpt><trkpt lat="43.2539667" lon="10.548635"><ele>6.0</ele><time>2026-04-06T08:37:59.341Z</time></trkpt><trkpt lat="43.2538517" lon="10.5486933"><ele>6.0</ele><time>2026-04-06T08:38:00.338Z</time></trkpt><trkpt lat="43.2537383" lon="10.5487533"><ele>6.0</ele><time>2026-04-06T08:38:01.337Z</time></trkpt><trkpt lat="43.2536217" lon="10.5488167"><ele>6.0</ele><time>2026-04-06T08:38:02.345Z</time></trkpt><trkpt lat="43.2535067" lon="10.5488883"><ele>6.0</ele><time>2026-04-06T08:38:03.338Z</time></trkpt><trkpt lat="43.2533933" lon="10.5489583"><ele>6.0</ele><time>2026-04-06T08:38:04.338Z</time></trkpt><trkpt lat="43.2532767" lon="10.5490283"><ele>6.0</ele><time>2026-04-06T08:38:05.339Z</time></trkpt><trkpt lat="43.2531583" lon="10.54909"><ele>6.0</ele><time>2026-04-06T08:38:06.337Z</time></trkpt><trkpt lat="43.2530417" lon="10.54915"><ele>5.75</ele><time>2026-04-06T08:38:07.338Z</time></trkpt><trkpt lat="43.252925" lon="10.5492017"><ele>5.5</ele><time>2026-04-06T08:38:08.339Z</time></trkpt><trkpt lat="43.2528067" lon="10.54925"><ele>5.25</ele><time>2026-04-06T08:38:09.335Z</time></trkpt><trkpt lat="43.25269" lon="10.5492983"><ele>5.0</ele><time>2026-04-06T08:38:10.336Z</time></trkpt><trkpt lat="43.2525683" lon="10.54935"><ele>5.0</ele><time>2026-04-06T08:38:11.336Z</time></trkpt><trkpt lat="43.2524417" lon="10.549405"><ele>5.0</ele><time>2026-04-06T08:38:12.34Z</time></trkpt><trkpt lat="43.2523133" lon="10.549455"><ele>5.0</ele><time>2026-04-06T08:38:13.337Z</time></trkpt><trkpt lat="43.25219" lon="10.5495033"><ele>5.0</ele><time>2026-04-06T08:38:14.336Z</time></trkpt><trkpt lat="43.25207" lon="10.54955"><ele>5.25</ele><time>2026-04-06T08:38:15.335Z</time></trkpt><trkpt lat="43.2519517" lon="10.5495917"><ele>5.5</ele><time>2026-04-06T08:38:16.334Z</time></trkpt><trkpt lat="43.2518367" lon="10.5496283"><ele>5.75</ele><time>2026-04-06T08:38:17.337Z</time></trkpt><trkpt lat="43.2517267" lon="10.5496617"><ele>6.0</ele><time>2026-04-06T08:38:18.334Z</time></trkpt><trkpt lat="43.251615" lon="10.549705"><ele>6.0</ele><time>2026-04-06T08:38:19.336Z</time></trkpt><trkpt lat="43.2515033" lon="10.5497517"><ele>6.0</ele><time>2026-04-06T08:38:20.336Z</time></trkpt><trkpt lat="43.2513883" lon="10.5497967"><ele>6.0</ele><time>2026-04-06T08:38:21.338Z</time></trkpt><trkpt lat="43.2512767" lon="10.5498383"><ele>6.0</ele><time>2026-04-06T08:38:22.337Z</time></trkpt><trkpt lat="43.2511667" lon="10.5498783"><ele>6.4</ele><time>2026-04-06T08:38:23.341Z</time></trkpt><trkpt lat="43.25106" lon="10.5499183"><ele>6.8</ele><time>2026-04-06T08:38:24.339Z</time></trkpt><trkpt lat="43.2509533" lon="10.5499583"><ele>7.200000000000001</ele><time>2026-04-06T08:38:25.337Z</time></trkpt><trkpt lat="43.2508467" lon="10.55"><ele>7.6000000000000005</ele><time>2026-04-06T08:38:26.34Z</time></trkpt><trkpt lat="43.2507383" lon="10.55004"><ele>8.0</ele><time>2026-04-06T08:38:27.339Z</time></trkpt><trkpt lat="43.2506317" lon="10.5500817"><ele>7.800000000000001</ele><time>2026-04-06T08:38:28.338Z</time></trkpt><trkpt lat="43.2505233" lon="10.5501217"><ele>7.6000000000000005</ele><time>2026-04-06T08:38:29.343Z</time></trkpt><trkpt lat="43.2504133" lon="10.55016"><ele>7.3999999999999995</ele><time>2026-04-06T08:38:30.339Z</time></trkpt><trkpt lat="43.2503067" lon="10.5501983"><ele>7.199999999999999</ele><time>2026-04-06T08:38:31.339Z</time></trkpt><trkpt lat="43.2502017" lon="10.550235"><ele>7.0</ele><time>2026-04-06T08:38:32.339Z</time></trkpt><trkpt lat="43.2500983" lon="10.55026"><ele>7.0</ele><time>2026-04-06T08:38:33.347Z</time></trkpt><trkpt lat="43.2499933" lon="10.550285"><ele>6.999999999999999</ele><time>2026-04-06T08:38:34.338Z</time></trkpt><trkpt lat="43.2498867" lon="10.5503067"><ele>6.999999999999999</ele><time>2026-04-06T08:38:35.34Z</time></trkpt><trkpt lat="43.24978" lon="10.5503317"><ele>7.0</ele><time>2026-04-06T08:38:36.338Z</time></trkpt><trkpt lat="43.2496733" lon="10.5503567"><ele>7.0</ele><time>2026-04-06T08:38:37.341Z</time></trkpt><trkpt lat="43.2495733" lon="10.55038"><ele>7.333333333333334</ele><time>2026-04-06T08:38:38.338Z</time></trkpt><trkpt lat="43.2494783" lon="10.5504"><ele>7.666666666666667</ele><time>2026-04-06T08:38:39.338Z</time></trkpt><trkpt lat="43.2493933" lon="10.5504083"><ele>8.0</ele><time>2026-04-06T08:38:40.336Z</time></trkpt><trkpt lat="43.2493133" lon="10.5504067"><ele>8.333333333333334</ele><time>2026-04-06T08:38:41.334Z</time></trkpt><trkpt lat="43.2492383" lon="10.5503983"><ele>8.666666666666666</ele><time>2026-04-06T08:38:42.335Z</time></trkpt><trkpt lat="43.2491633" lon="10.55039"><ele>9.0</ele><time>2026-04-06T08:38:43.338Z</time></trkpt><trkpt lat="43.249085" lon="10.550395"><ele>9.0</ele><time>2026-04-06T08:38:44.336Z</time></trkpt><trkpt lat="43.2490033" lon="10.5504433"><ele>9.0</ele><time>2026-04-06T08:38:45.339Z</time></trkpt><trkpt lat="43.2489267" lon="10.5505183"><ele>9.0</ele><time>2026-04-06T08:38:46.336Z</time></trkpt><trkpt lat="43.24885" lon="10.5505917"><ele>9.0</ele><time>2026-04-06T08:38:47.335Z</time></trkpt><trkpt lat="43.2487617" lon="10.5506517"><ele>9.0</ele><time>2026-04-06T08:38:48.336Z</time></trkpt><trkpt lat="43.2486633" lon="10.5506983"><ele>9.0</ele><time>2026-04-06T08:38:49.336Z</time></trkpt><trkpt lat="43.2485583" lon="10.5507317"><ele>9.0</ele><time>2026-04-06T08:38:50.337Z</time></trkpt><trkpt lat="43.24845" lon="10.55076"><ele>9.0</ele><time>2026-04-06T08:38:51.334Z</time></trkpt><trkpt lat="43.24834" lon="10.5507917"><ele>9.0</ele><time>2026-04-06T08:38:52.337Z</time></trkpt><trkpt lat="43.24823" lon="10.5508283"><ele>9.0</ele><time>2026-04-06T08:38:53.34Z</time></trkpt><trkpt lat="43.2481217" lon="10.5508683"><ele>9.2</ele><time>2026-04-06T08:38:54.338Z</time></trkpt><trkpt lat="43.2480233" lon="10.5509083"><ele>9.4</ele><time>2026-04-06T08:38:55.335Z</time></trkpt><trkpt lat="43.2479283" lon="10.5509483"><ele>9.6</ele><time>2026-04-06T08:38:56.339Z</time></trkpt><trkpt lat="43.2478317" lon="10.5509883"><ele>9.8</ele><time>2026-04-06T08:38:57.339Z</time></trkpt><trkpt lat="43.2477317" lon="10.5510283"><ele>10.0</ele><time>2026-04-06T08:38:58.337Z</time></trkpt><trkpt lat="43.24763" lon="10.55107"><ele>10.0</ele><time>2026-04-06T08:38:59.338Z</time></trkpt><trkpt lat="43.2475267" lon="10.5511167"><ele>10.0</ele><time>2026-04-06T08:39:00.347Z</time></trkpt><trkpt lat="43.247425" lon="10.551165"><ele>10.0</ele><time>2026-04-06T08:39:01.345Z</time></trkpt><trkpt lat="43.2473217" lon="10.5512117"><ele>10.0</ele><time>2026-04-06T08:39:02.341Z</time></trkpt><trkpt lat="43.2472167" lon="10.5512583"><ele>10.0</ele><time>2026-04-06T08:39:03.341Z</time></trkpt><trkpt lat="43.2471133" lon="10.5513083"><ele>9.8</ele><time>2026-04-06T08:39:04.338Z</time></trkpt><trkpt lat="43.2470117" lon="10.5513633"><ele>9.6</ele><time>2026-04-06T08:39:05.34Z</time></trkpt><trkpt lat="43.24691" lon="10.551415"><ele>9.4</ele><time>2026-04-06T08:39:06.339Z</time></trkpt><trkpt lat="43.2468083" lon="10.5514683"><ele>9.2</ele><time>2026-04-06T08:39:07.338Z</time></trkpt><trkpt lat="43.2467017" lon="10.5515267"><ele>9.0</ele><time>2026-04-06T08:39:08.338Z</time></trkpt><trkpt lat="43.2465933" lon="10.5515883"><ele>9.0</ele><time>2026-04-06T08:39:09.338Z</time></trkpt><trkpt lat="43.2464783" lon="10.55165"><ele>9.0</ele><time>2026-04-06T08:39:10.337Z</time></trkpt><trkpt lat="43.2463617" lon="10.55171"><ele>9.0</ele><time>2026-04-06T08:39:11.339Z</time></trkpt><trkpt lat="43.24624" lon="10.5517733"><ele>9.0</ele><time>2026-04-06T08:39:12.342Z</time></trkpt><trkpt lat="43.2461233" lon="10.551835"><ele>9.0</ele><time>2026-04-06T08:39:13.338Z</time></trkpt><trkpt lat="43.2460067" lon="10.551895"><ele>9.0</ele><time>2026-04-06T08:39:14.34Z</time></trkpt><trkpt lat="43.24589" lon="10.5519517"><ele>9.0</ele><time>2026-04-06T08:39:15.337Z</time></trkpt><trkpt lat="43.245775" lon="10.5520067"><ele>9.0</ele><time>2026-04-06T08:39:16.34Z</time></trkpt><trkpt lat="43.2456667" lon="10.5520583"><ele>8.75</ele><time>2026-04-06T08:39:17.339Z</time></trkpt><trkpt lat="43.2455583" lon="10.5521067"><ele>8.5</ele><time>2026-04-06T08:39:18.341Z</time></trkpt><trkpt lat="43.2454467" lon="10.55215"><ele>8.25</ele><time>2026-04-06T08:39:19.339Z</time></trkpt><trkpt lat="43.2453333" lon="10.55219"><ele>8.0</ele><time>2026-04-06T08:39:20.338Z</time></trkpt><trkpt lat="43.2452167" lon="10.5522267"><ele>8.0</ele><time>2026-04-06T08:39:21.34Z</time></trkpt><trkpt lat="43.2450983" lon="10.5522617"><ele>8.0</ele><time>2026-04-06T08:39:22.337Z</time></trkpt><trkpt lat="43.2449817" lon="10.5522983"><ele>8.0</ele><time>2026-04-06T08:39:23.336Z</time></trkpt><trkpt lat="43.24486" lon="10.5523317"><ele>8.0</ele><time>2026-04-06T08:39:24.338Z</time></trkpt><trkpt lat="43.24474" lon="10.5523633"><ele>7.75</ele><time>2026-04-06T08:39:25.342Z</time></trkpt><trkpt lat="43.2446183" lon="10.552395"><ele>7.5</ele><time>2026-04-06T08:39:26.337Z</time></trkpt><trkpt lat="43.244495" lon="10.552425"><ele>7.25</ele><time>2026-04-06T08:39:27.339Z</time></trkpt><trkpt lat="43.2443717" lon="10.5524533"><ele>7.0</ele><time>2026-04-06T08:39:28.337Z</time></trkpt><trkpt lat="43.2442483" lon="10.55248"><ele>7.0</ele><time>2026-04-06T08:39:29.339Z</time></trkpt><trkpt lat="43.244125" lon="10.5525083"><ele>7.0</ele><time>2026-04-06T08:39:30.341Z</time></trkpt><trkpt lat="43.2440033" lon="10.5525367"><ele>7.0</ele><time>2026-04-06T08:39:31.339Z</time></trkpt><trkpt lat="43.24388" lon="10.552565"><ele>7.0</ele><time>2026-04-06T08:39:32.339Z</time></trkpt><trkpt lat="43.24376" lon="10.5525983"><ele>7.25</ele><time>2026-04-06T08:39:33.338Z</time></trkpt><trkpt lat="43.2436383" lon="10.5526283"><ele>7.5</ele><time>2026-04-06T08:39:34.338Z</time></trkpt><trkpt lat="43.2435133" lon="10.552655"><ele>7.75</ele><time>2026-04-06T08:39:35.338Z</time></trkpt><trkpt lat="43.24339" lon="10.5526783"><ele>8.0</ele><time>2026-04-06T08:39:36.339Z</time></trkpt><trkpt lat="43.2432683" lon="10.5526983"><ele>8.0</ele><time>2026-04-06T08:39:37.337Z</time></trkpt><trkpt lat="43.2431467" lon="10.5527083"><ele>8.0</ele><time>2026-04-06T08:39:38.339Z</time></trkpt><trkpt lat="43.243025" lon="10.552705"><ele>8.0</ele><time>2026-04-06T08:39:39.335Z</time></trkpt><trkpt lat="43.2429033" lon="10.5526817"><ele>8.0</ele><time>2026-04-06T08:39:40.337Z</time></trkpt><trkpt lat="43.24278" lon="10.5526433"><ele>8.0</ele><time>2026-04-06T08:39:41.339Z</time></trkpt><trkpt lat="43.2426617" lon="10.5526033"><ele>8.0</ele><time>2026-04-06T08:39:42.338Z</time></trkpt><trkpt lat="43.242545" lon="10.5525667"><ele>8.0</ele><time>2026-04-06T08:39:43.341Z</time></trkpt><trkpt lat="43.242425" lon="10.552535"><ele>8.0</ele><time>2026-04-06T08:39:44.338Z</time></trkpt><trkpt lat="43.2423033" lon="10.5525083"><ele>8.0</ele><time>2026-04-06T08:39:45.338Z</time></trkpt><trkpt lat="43.2421833" lon="10.552485"><ele>8.0</ele><time>2026-04-06T08:39:46.338Z</time></trkpt><trkpt lat="43.2420633" lon="10.5524683"><ele>8.0</ele><time>2026-04-06T08:39:47.34Z</time></trkpt><trkpt lat="43.2419467" lon="10.552455"><ele>8.0</ele><time>2026-04-06T08:39:48.34Z</time></trkpt><trkpt lat="43.2418283" lon="10.552445"><ele>8.0</ele><time>2026-04-06T08:39:49.338Z</time></trkpt><trkpt lat="43.2417117" lon="10.5524433"><ele>8.0</ele><time>2026-04-06T08:39:50.34Z</time></trkpt><trkpt lat="43.241595" lon="10.5524533"><ele>8.0</ele><time>2026-04-06T08:39:51.339Z</time></trkpt><trkpt lat="43.2414767" lon="10.5524717"><ele>8.0</ele><time>2026-04-06T08:39:52.338Z</time></trkpt><trkpt lat="43.241355" lon="10.5525067"><ele>7.75</ele><time>2026-04-06T08:39:53.339Z</time></trkpt><trkpt lat="43.241235" lon="10.55255"><ele>7.5</ele><time>2026-04-06T08:39:54.339Z</time></trkpt><trkpt lat="43.241115" lon="10.552605"><ele>7.25</ele><time>2026-04-06T08:39:55.34Z</time></trkpt><trkpt lat="43.2409917" lon="10.5526633"><ele>7.0</ele><time>2026-04-06T08:39:56.338Z</time></trkpt><trkpt lat="43.2408683" lon="10.5527217"><ele>7.0</ele><time>2026-04-06T08:39:57.341Z</time></trkpt><trkpt lat="43.2407433" lon="10.5527767"><ele>7.0</ele><time>2026-04-06T08:39:58.341Z</time></trkpt><trkpt lat="43.2406233" lon="10.5528267"><ele>7.0</ele><time>2026-04-06T08:39:59.337Z</time></trkpt><trkpt lat="43.24051" lon="10.55287"><ele>7.0</ele><time>2026-04-06T08:40:00.347Z</time></trkpt><trkpt lat="43.2403967" lon="10.55291"><ele>6.5</ele><time>2026-04-06T08:40:01.341Z</time></trkpt><trkpt lat="43.2402833" lon="10.552955"><ele>6.0</ele><time>2026-04-06T08:40:02.34Z</time></trkpt><trkpt lat="43.2401683" lon="10.5530017"><ele>5.5</ele><time>2026-04-06T08:40:03.343Z</time></trkpt><trkpt lat="43.240055" lon="10.5530517"><ele>5.0</ele><time>2026-04-06T08:40:04.338Z</time></trkpt><trkpt lat="43.2399367" lon="10.5530983"><ele>5.0</ele><time>2026-04-06T08:40:05.338Z</time></trkpt><trkpt lat="43.2398183" lon="10.5531433"><ele>5.0</ele><time>2026-04-06T08:40:06.338Z</time></trkpt><trkpt lat="43.2396967" lon="10.5531867"><ele>5.0</ele><time>2026-04-06T08:40:07.34Z</time></trkpt><trkpt lat="43.2395733" lon="10.5532283"><ele>5.0</ele><time>2026-04-06T08:40:08.34Z</time></trkpt><trkpt lat="43.2394533" lon="10.5532767"><ele>4.75</ele><time>2026-04-06T08:40:09.339Z</time></trkpt><trkpt lat="43.239335" lon="10.553335"><ele>4.5</ele><time>2026-04-06T08:40:10.338Z</time></trkpt><trkpt lat="43.239215" lon="10.5533967"><ele>4.25</ele><time>2026-04-06T08:40:11.337Z</time></trkpt><trkpt lat="43.2390967" lon="10.55347"><ele>4.0</ele><time>2026-04-06T08:40:12.34Z</time></trkpt><trkpt lat="43.238985" lon="10.5535483"><ele>4.25</ele><time>2026-04-06T08:40:13.339Z</time></trkpt><trkpt lat="43.238875" lon="10.5536367"><ele>4.5</ele><time>2026-04-06T08:40:14.339Z</time></trkpt><trkpt lat="43.238765" lon="10.5537267"><ele>4.75</ele><time>2026-04-06T08:40:15.339Z</time></trkpt><trkpt lat="43.2386533" lon="10.553815"><ele>5.0</ele><time>2026-04-06T08:40:16.339Z</time></trkpt><trkpt lat="43.23854" lon="10.5539"><ele>5.25</ele><time>2026-04-06T08:40:17.338Z</time></trkpt><trkpt lat="43.2384267" lon="10.5539867"><ele>5.5</ele><time>2026-04-06T08:40:18.34Z</time></trkpt><trkpt lat="43.238315" lon="10.554075"><ele>5.75</ele><time>2026-04-06T08:40:19.34Z</time></trkpt><trkpt lat="43.2382017" lon="10.554165"><ele>6.0</ele><time>2026-04-06T08:40:20.342Z</time></trkpt><trkpt lat="43.23809" lon="10.55425"><ele>6.25</ele><time>2026-04-06T08:40:21.34Z</time></trkpt><trkpt lat="43.2379817" lon="10.554335"><ele>6.5</ele><time>2026-04-06T08:40:22.338Z</time></trkpt><trkpt lat="43.2378767" lon="10.5544183"><ele>6.75</ele><time>2026-04-06T08:40:23.339Z</time></trkpt><trkpt lat="43.2377733" lon="10.5545017"><ele>7.0</ele><time>2026-04-06T08:40:24.339Z</time></trkpt><trkpt lat="43.2376683" lon="10.5545867"><ele>7.0</ele><time>2026-04-06T08:40:25.34Z</time></trkpt><trkpt lat="43.2375633" lon="10.554675"><ele>7.0</ele><time>2026-04-06T08:40:26.34Z</time></trkpt><trkpt lat="43.2374567" lon="10.554755"><ele>7.0</ele><time>2026-04-06T08:40:27.335Z</time></trkpt><trkpt lat="43.237345" lon="10.5548267"><ele>7.0</ele><time>2026-04-06T08:40:28.338Z</time></trkpt><trkpt lat="43.23723" lon="10.5548817"><ele>7.0</ele><time>2026-04-06T08:40:29.339Z</time></trkpt><trkpt lat="43.2371133" lon="10.5549333"><ele>7.0</ele><time>2026-04-06T08:40:30.338Z</time></trkpt><trkpt lat="43.236995" lon="10.554985"><ele>7.0</ele><time>2026-04-06T08:40:31.344Z</time></trkpt><trkpt lat="43.236875" lon="10.55504"><ele>7.0</ele><time>2026-04-06T08:40:32.339Z</time></trkpt><trkpt lat="43.2367533" lon="10.5550883"><ele>7.0</ele><time>2026-04-06T08:40:33.337Z</time></trkpt><trkpt lat="43.23663" lon="10.5551383"><ele>7.0</ele><time>2026-04-06T08:40:34.335Z</time></trkpt><trkpt lat="43.2365067" lon="10.555185"><ele>7.0</ele><time>2026-04-06T08:40:35.337Z</time></trkpt><trkpt lat="43.236385" lon="10.55523"><ele>7.0</ele><time>2026-04-06T08:40:36.337Z</time></trkpt><trkpt lat="43.2362683" lon="10.5552767"><ele>7.0</ele><time>2026-04-06T08:40:37.337Z</time></trkpt><trkpt lat="43.2361567" lon="10.5553283"><ele>7.0</ele><time>2026-04-06T08:40:38.337Z</time></trkpt><trkpt lat="43.2360467" lon="10.55538"><ele>7.0</ele><time>2026-04-06T08:40:39.341Z</time></trkpt><trkpt lat="43.235935" lon="10.5554267"><ele>7.0</ele><time>2026-04-06T08:40:40.337Z</time></trkpt><trkpt lat="43.2358217" lon="10.5554683"><ele>6.75</ele><time>2026-04-06T08:40:41.342Z</time></trkpt><trkpt lat="43.2357083" lon="10.555505"><ele>6.5</ele><time>2026-04-06T08:40:42.34Z</time></trkpt><trkpt lat="43.2355933" lon="10.5555333"><ele>6.25</ele><time>2026-04-06T08:40:43.337Z</time></trkpt><trkpt lat="43.235475" lon="10.5555517"><ele>6.0</ele><time>2026-04-06T08:40:44.339Z</time></trkpt><trkpt lat="43.235355" lon="10.5555517"><ele>6.0</ele><time>2026-04-06T08:40:45.338Z</time></trkpt><trkpt lat="43.2352367" lon="10.555535"><ele>6.0</ele><time>2026-04-06T08:40:46.337Z</time></trkpt><trkpt lat="43.2351183" lon="10.5555117"><ele>6.0</ele><time>2026-04-06T08:40:47.339Z</time></trkpt><trkpt lat="43.2349983" lon="10.5554917"><ele>6.0</ele><time>2026-04-06T08:40:48.338Z</time></trkpt><trkpt lat="43.2348767" lon="10.5554767"><ele>6.5</ele><time>2026-04-06T08:40:49.339Z</time></trkpt><trkpt lat="43.2347567" lon="10.555465"><ele>7.0</ele><time>2026-04-06T08:40:50.341Z</time></trkpt><trkpt lat="43.2346367" lon="10.55546"><ele>7.5</ele><time>2026-04-06T08:40:51.34Z</time></trkpt><trkpt lat="43.2345167" lon="10.5554617"><ele>8.0</ele><time>2026-04-06T08:40:52.338Z</time></trkpt><trkpt lat="43.2343983" lon="10.5554683"><ele>8.0</ele><time>2026-04-06T08:40:53.339Z</time></trkpt><trkpt lat="43.23428" lon="10.55548"><ele>8.0</ele><time>2026-04-06T08:40:54.338Z</time></trkpt><trkpt lat="43.2341617" lon="10.5554933"><ele>8.0</ele><time>2026-04-06T08:40:55.336Z</time></trkpt><trkpt lat="43.234045" lon="10.5555083"><ele>8.0</ele><time>2026-04-06T08:40:56.34Z</time></trkpt><trkpt lat="43.2339317" lon="10.5555317"><ele>8.5</ele><time>2026-04-06T08:40:57.338Z</time></trkpt><trkpt lat="43.2338217" lon="10.55557"><ele>9.0</ele><time>2026-04-06T08:40:58.338Z</time></trkpt><trkpt lat="43.2337183" lon="10.55563"><ele>9.5</ele><time>2026-04-06T08:40:59.348Z</time></trkpt><trkpt lat="43.23362" lon="10.55571"><ele>10.0</ele><time>2026-04-06T08:41:00.345Z</time></trkpt><trkpt lat="43.2335267" lon="10.5558033"><ele>10.0</ele><time>2026-04-06T08:41:01.336Z</time></trkpt><trkpt lat="43.233435" lon="10.555905"><ele>10.0</ele><time>2026-04-06T08:41:02.338Z</time></trkpt><trkpt lat="43.2333467" lon="10.556005"><ele>10.0</ele><time>2026-04-06T08:41:03.338Z</time></trkpt><trkpt lat="43.233255" lon="10.5561067"><ele>10.0</ele><time>2026-04-06T08:41:04.337Z</time></trkpt><trkpt lat="43.2331667" lon="10.55616"><ele>10.0</ele><time>2026-04-06T08:41:05.339Z</time></trkpt><trkpt lat="43.2330817" lon="10.5562717"><ele>9.5</ele><time>2026-04-06T08:41:06.337Z</time></trkpt><trkpt lat="43.2329967" lon="10.5563833"><ele>9.0</ele><time>2026-04-06T08:41:07.347Z</time></trkpt><trkpt lat="43.2329067" lon="10.5564783"><ele>8.5</ele><time>2026-04-06T08:41:08.34Z</time></trkpt><trkpt lat="43.2328133" lon="10.5565733"><ele>8.0</ele><time>2026-04-06T08:41:09.34Z</time></trkpt><trkpt lat="43.2327117" lon="10.5566633"><ele>8.0</ele><time>2026-04-06T08:41:10.338Z</time></trkpt><trkpt lat="43.23261" lon="10.5567367"><ele>8.0</ele><time>2026-04-06T08:41:11.337Z</time></trkpt><trkpt lat="43.2325017" lon="10.5568067"><ele>8.0</ele><time>2026-04-06T08:41:12.339Z</time></trkpt><trkpt lat="43.2323933" lon="10.55686"><ele>8.0</ele><time>2026-04-06T08:41:13.34Z</time></trkpt><trkpt lat="43.2322817" lon="10.556905"><ele>8.25</ele><time>2026-04-06T08:41:14.346Z</time></trkpt><trkpt lat="43.2321667" lon="10.5569533"><ele>8.5</ele><time>2026-04-06T08:41:15.338Z</time></trkpt><trkpt lat="43.2320533" lon="10.5570017"><ele>8.75</ele><time>2026-04-06T08:41:16.34Z</time></trkpt><trkpt lat="43.23194" lon="10.557045"><ele>9.0</ele><time>2026-04-06T08:41:17.338Z</time></trkpt><trkpt lat="43.2318267" lon="10.5570883"><ele>9.25</ele><time>2026-04-06T08:41:18.342Z</time></trkpt><trkpt lat="43.2317133" lon="10.557135"><ele>9.5</ele><time>2026-04-06T08:41:19.34Z</time></trkpt><trkpt lat="43.2315983" lon="10.5571867"><ele>9.75</ele><time>2026-04-06T08:41:20.342Z</time></trkpt><trkpt lat="43.23148" lon="10.55724"><ele>10.0</ele><time>2026-04-06T08:41:21.344Z</time></trkpt><trkpt lat="43.23136" lon="10.5572933"><ele>9.5</ele><time>2026-04-06T08:41:22.337Z</time></trkpt><trkpt lat="43.2312383" lon="10.5573433"><ele>9.0</ele><time>2026-04-06T08:41:23.338Z</time></trkpt><trkpt lat="43.2311167" lon="10.5573933"><ele>8.5</ele><time>2026-04-06T08:41:24.337Z</time></trkpt><trkpt lat="43.230995" lon="10.5574417"><ele>8.0</ele><time>2026-04-06T08:41:25.338Z</time></trkpt><trkpt lat="43.2308783" lon="10.5574883"><ele>8.0</ele><time>2026-04-06T08:41:26.34Z</time></trkpt><trkpt lat="43.230765" lon="10.5575333"><ele>8.0</ele><time>2026-04-06T08:41:27.34Z</time></trkpt><trkpt lat="43.2306517" lon="10.55758"><ele>8.0</ele><time>2026-04-06T08:41:28.337Z</time></trkpt><trkpt lat="43.23054" lon="10.5576233"><ele>8.0</ele><time>2026-04-06T08:41:29.34Z</time></trkpt><trkpt lat="43.2304267" lon="10.5576683"><ele>7.75</ele><time>2026-04-06T08:41:30.338Z</time></trkpt><trkpt lat="43.2303133" lon="10.5577133"><ele>7.5</ele><time>2026-04-06T08:41:31.337Z</time></trkpt><trkpt lat="43.2302" lon="10.557755"><ele>7.25</ele><time>2026-04-06T08:41:32.338Z</time></trkpt><trkpt lat="43.2300867" lon="10.5578"><ele>7.0</ele><time>2026-04-06T08:41:33.339Z</time></trkpt><trkpt lat="43.229975" lon="10.5578467"><ele>6.75</ele><time>2026-04-06T08:41:34.341Z</time></trkpt><trkpt lat="43.229865" lon="10.5578933"><ele>6.5</ele><time>2026-04-06T08:41:35.342Z</time></trkpt><trkpt lat="43.2297533" lon="10.5579383"><ele>6.25</ele><time>2026-04-06T08:41:36.338Z</time></trkpt><trkpt lat="43.22964" lon="10.55798"><ele>6.0</ele><time>2026-04-06T08:41:37.338Z</time></trkpt><trkpt lat="43.229525" lon="10.558025"><ele>6.5</ele><time>2026-04-06T08:41:38.337Z</time></trkpt><trkpt lat="43.2294117" lon="10.55807"><ele>7.0</ele><time>2026-04-06T08:41:39.339Z</time></trkpt><trkpt lat="43.229295" lon="10.55812"><ele>7.5</ele><time>2026-04-06T08:41:40.338Z</time></trkpt><trkpt lat="43.2291783" lon="10.55817"><ele>8.0</ele><time>2026-04-06T08:41:41.34Z</time></trkpt><trkpt lat="43.22906" lon="10.55822"><ele>7.5</ele><time>2026-04-06T08:41:42.338Z</time></trkpt><trkpt lat="43.2289433" lon="10.5582683"><ele>7.0</ele><time>2026-04-06T08:41:43.339Z</time></trkpt><trkpt lat="43.2288267" lon="10.55832"><ele>6.5</ele><time>2026-04-06T08:41:44.341Z</time></trkpt><trkpt lat="43.2287117" lon="10.558375"><ele>6.0</ele><time>2026-04-06T08:41:45.339Z</time></trkpt><trkpt lat="43.2286" lon="10.5584367"><ele>6.0</ele><time>2026-04-06T08:41:46.338Z</time></trkpt><trkpt lat="43.2284883" lon="10.5585"><ele>6.0</ele><time>2026-04-06T08:41:47.339Z</time></trkpt><trkpt lat="43.228375" lon="10.558565"><ele>6.0</ele><time>2026-04-06T08:41:48.339Z</time></trkpt><trkpt lat="43.2282633" lon="10.5586317"><ele>6.0</ele><time>2026-04-06T08:41:49.341Z</time></trkpt><trkpt lat="43.2281517" lon="10.5586967"><ele>6.0</ele><time>2026-04-06T08:41:50.339Z</time></trkpt><trkpt lat="43.22804" lon="10.5587633"><ele>6.0</ele><time>2026-04-06T08:41:51.338Z</time></trkpt><trkpt lat="43.2279267" lon="10.5588283"><ele>6.0</ele><time>2026-04-06T08:41:52.336Z</time></trkpt><trkpt lat="43.2278133" lon="10.5588967"><ele>6.0</ele><time>2026-04-06T08:41:53.338Z</time></trkpt><trkpt lat="43.2277017" lon="10.5589617"><ele>6.0</ele><time>2026-04-06T08:41:54.338Z</time></trkpt><trkpt lat="43.22759" lon="10.5590283"><ele>6.0</ele><time>2026-04-06T08:41:55.338Z</time></trkpt><trkpt lat="43.2274783" lon="10.5590917"><ele>6.0</ele><time>2026-04-06T08:41:56.339Z</time></trkpt><trkpt lat="43.227365" lon="10.5591567"><ele>6.0</ele><time>2026-04-06T08:41:57.341Z</time></trkpt><trkpt lat="43.2272517" lon="10.55922"><ele>6.5</ele><time>2026-04-06T08:41:58.338Z</time></trkpt><trkpt lat="43.2271383" lon="10.559285"><ele>7.0</ele><time>2026-04-06T08:41:59.339Z</time></trkpt><trkpt lat="43.2270267" lon="10.5593533"><ele>7.5</ele><time>2026-04-06T08:42:00.339Z</time></trkpt><trkpt lat="43.226915" lon="10.55942"><ele>8.0</ele><time>2026-04-06T08:42:01.34Z</time></trkpt><trkpt lat="43.2267983" lon="10.559485"><ele>7.75</ele><time>2026-04-06T08:42:02.338Z</time></trkpt><trkpt lat="43.2266833" lon="10.5595483"><ele>7.5</ele><time>2026-04-06T08:42:03.34Z</time></trkpt><trkpt lat="43.22657" lon="10.5596167"><ele>7.25</ele><time>2026-04-06T08:42:04.339Z</time></trkpt><trkpt lat="43.226455" lon="10.559685"><ele>7.0</ele><time>2026-04-06T08:42:05.339Z</time></trkpt><trkpt lat="43.22634" lon="10.5597517"><ele>7.0</ele><time>2026-04-06T08:42:06.34Z</time></trkpt><trkpt lat="43.2262267" lon="10.5598183"><ele>7.0</ele><time>2026-04-06T08:42:07.34Z</time></trkpt><trkpt lat="43.2261133" lon="10.5598833"><ele>7.0</ele><time>2026-04-06T08:42:08.341Z</time></trkpt><trkpt lat="43.2260017" lon="10.5599483"><ele>7.0</ele><time>2026-04-06T08:42:09.343Z</time></trkpt><trkpt lat="43.2258883" lon="10.5600167"><ele>7.0</ele><time>2026-04-06T08:42:10.34Z</time></trkpt><trkpt lat="43.2257783" lon="10.5600867"><ele>7.0</ele><time>2026-04-06T08:42:11.338Z</time></trkpt><trkpt lat="43.2256667" lon="10.5601533"><ele>7.0</ele><time>2026-04-06T08:42:12.339Z</time></trkpt><trkpt lat="43.2255567" lon="10.56022"><ele>7.0</ele><time>2026-04-06T08:42:13.338Z</time></trkpt><trkpt lat="43.225445" lon="10.5602817"><ele>6.75</ele><time>2026-04-06T08:42:14.34Z</time></trkpt><trkpt lat="43.2253317" lon="10.56034"><ele>6.5</ele><time>2026-04-06T08:42:15.34Z</time></trkpt><trkpt lat="43.2252167" lon="10.5603917"><ele>6.25</ele><time>2026-04-06T08:42:16.339Z</time></trkpt><trkpt lat="43.225105" lon="10.5604467"><ele>6.0</ele><time>2026-04-06T08:42:17.339Z</time></trkpt><trkpt lat="43.22499" lon="10.5605"><ele>6.5</ele><time>2026-04-06T08:42:18.341Z</time></trkpt><trkpt lat="43.2248767" lon="10.56055"><ele>7.0</ele><time>2026-04-06T08:42:19.339Z</time></trkpt><trkpt lat="43.22476" lon="10.5605983"><ele>7.5</ele><time>2026-04-06T08:42:20.339Z</time></trkpt><trkpt lat="43.224645" lon="10.5606467"><ele>8.0</ele><time>2026-04-06T08:42:21.34Z</time></trkpt><trkpt lat="43.2245333" lon="10.5606933"><ele>8.0</ele><time>2026-04-06T08:42:22.339Z</time></trkpt><trkpt lat="43.22442" lon="10.56074"><ele>8.0</ele><time>2026-04-06T08:42:23.339Z</time></trkpt><trkpt lat="43.224305" lon="10.5607833"><ele>8.0</ele><time>2026-04-06T08:42:24.341Z</time></trkpt><trkpt lat="43.22419" lon="10.5608217"><ele>8.0</ele><time>2026-04-06T08:42:25.341Z</time></trkpt><trkpt lat="43.2240767" lon="10.5608617"><ele>8.25</ele><time>2026-04-06T08:42:26.338Z</time></trkpt><trkpt lat="43.2239617" lon="10.5609017"><ele>8.5</ele><time>2026-04-06T08:42:27.34Z</time></trkpt><trkpt lat="43.2238483" lon="10.5609417"><ele>8.75</ele><time>2026-04-06T08:42:28.338Z</time></trkpt><trkpt lat="43.223735" lon="10.56098"><ele>9.0</ele><time>2026-04-06T08:42:29.339Z</time></trkpt><trkpt lat="43.22362" lon="10.5610183"><ele>9.0</ele><time>2026-04-06T08:42:30.343Z</time></trkpt><trkpt lat="43.2235083" lon="10.561055"><ele>9.0</ele><time>2026-04-06T08:42:31.341Z</time></trkpt><trkpt lat="43.2233967" lon="10.561095"><ele>9.0</ele><time>2026-04-06T08:42:32.339Z</time></trkpt><trkpt lat="43.223285" lon="10.5611333"><ele>9.0</ele><time>2026-04-06T08:42:33.337Z</time></trkpt><trkpt lat="43.2231717" lon="10.561175"><ele>8.75</ele><time>2026-04-06T08:42:34.339Z</time></trkpt><trkpt lat="43.2230567" lon="10.5612133"><ele>8.5</ele><time>2026-04-06T08:42:35.338Z</time></trkpt><trkpt lat="43.2229433" lon="10.5612517"><ele>8.25</ele><time>2026-04-06T08:42:36.34Z</time></trkpt><trkpt lat="43.2228317" lon="10.5612883"><ele>8.0</ele><time>2026-04-06T08:42:37.34Z</time></trkpt><trkpt lat="43.2227183" lon="10.561325"><ele>8.0</ele><time>2026-04-06T08:42:38.339Z</time></trkpt><trkpt lat="43.222605" lon="10.5613567"><ele>8.0</ele><time>2026-04-06T08:42:39.342Z</time></trkpt><trkpt lat="43.22249" lon="10.5613883"><ele>8.0</ele><time>2026-04-06T08:42:40.337Z</time></trkpt><trkpt lat="43.2223733" lon="10.56142"><ele>8.0</ele><time>2026-04-06T08:42:41.341Z</time></trkpt><trkpt lat="43.222255" lon="10.5614517"><ele>8.25</ele><time>2026-04-06T08:42:42.339Z</time></trkpt><trkpt lat="43.222135" lon="10.56148"><ele>8.5</ele><time>2026-04-06T08:42:43.341Z</time></trkpt><trkpt lat="43.222015" lon="10.5615033"><ele>8.75</ele><time>2026-04-06T08:42:44.343Z</time></trkpt><trkpt lat="43.221895" lon="10.561525"><ele>9.0</ele><time>2026-04-06T08:42:45.341Z</time></trkpt><trkpt lat="43.221775" lon="10.5615433"><ele>9.0</ele><time>2026-04-06T08:42:46.338Z</time></trkpt><trkpt lat="43.2216533" lon="10.5615617"><ele>9.0</ele><time>2026-04-06T08:42:47.339Z</time></trkpt><trkpt lat="43.2215317" lon="10.56158"><ele>9.0</ele><time>2026-04-06T08:42:48.338Z</time></trkpt><trkpt lat="43.2214117" lon="10.561595"><ele>9.0</ele><time>2026-04-06T08:42:49.337Z</time></trkpt><trkpt lat="43.2212883" lon="10.5616083"><ele>8.5</ele><time>2026-04-06T08:42:50.339Z</time></trkpt><trkpt lat="43.2211683" lon="10.5616267"><ele>8.0</ele><time>2026-04-06T08:42:51.338Z</time></trkpt><trkpt lat="43.221045" lon="10.5616433"><ele>7.5</ele><time>2026-04-06T08:42:52.34Z</time></trkpt><trkpt lat="43.2209233" lon="10.56166"><ele>7.0</ele><time>2026-04-06T08:42:53.34Z</time></trkpt><trkpt lat="43.2208017" lon="10.5616783"><ele>7.0</ele><time>2026-04-06T08:42:54.338Z</time></trkpt><trkpt lat="43.22068" lon="10.561695"><ele>7.0</ele><time>2026-04-06T08:42:55.342Z</time></trkpt><trkpt lat="43.2205583" lon="10.5617117"><ele>7.0</ele><time>2026-04-06T08:42:56.34Z</time></trkpt><trkpt lat="43.2204367" lon="10.56173"><ele>7.0</ele><time>2026-04-06T08:42:57.341Z</time></trkpt><trkpt lat="43.220315" lon="10.5617467"><ele>7.25</ele><time>2026-04-06T08:42:58.338Z</time></trkpt><trkpt lat="43.220195" lon="10.5617633"><ele>7.5</ele><time>2026-04-06T08:42:59.34Z</time></trkpt><trkpt lat="43.220075" lon="10.5617817"><ele>7.75</ele><time>2026-04-06T08:43:00.341Z</time></trkpt><trkpt lat="43.219955" lon="10.5618"><ele>8.0</ele><time>2026-04-06T08:43:01.339Z</time></trkpt><trkpt lat="43.219835" lon="10.5618167"><ele>8.0</ele><time>2026-04-06T08:43:02.341Z</time></trkpt><trkpt lat="43.2197167" lon="10.5618333"><ele>8.0</ele><time>2026-04-06T08:43:03.35Z</time></trkpt><trkpt lat="43.2195983" lon="10.5618517"><ele>8.0</ele><time>2026-04-06T08:43:04.337Z</time></trkpt><trkpt lat="43.2194783" lon="10.56187"><ele>8.0</ele><time>2026-04-06T08:43:05.347Z</time></trkpt><trkpt lat="43.21936" lon="10.5618833"><ele>8.0</ele><time>2026-04-06T08:43:06.339Z</time></trkpt><trkpt lat="43.2192417" lon="10.561895"><ele>8.0</ele><time>2026-04-06T08:43:07.338Z</time></trkpt><trkpt lat="43.219125" lon="10.56191"><ele>8.0</ele><time>2026-04-06T08:43:08.338Z</time></trkpt><trkpt lat="43.219005" lon="10.5619283"><ele>8.0</ele><time>2026-04-06T08:43:09.339Z</time></trkpt><trkpt lat="43.2188883" lon="10.561945"><ele>7.75</ele><time>2026-04-06T08:43:10.34Z</time></trkpt><trkpt lat="43.21877" lon="10.56196"><ele>7.5</ele><time>2026-04-06T08:43:11.342Z</time></trkpt><trkpt lat="43.2186517" lon="10.5619733"><ele>7.25</ele><time>2026-04-06T08:43:12.335Z</time></trkpt><trkpt lat="43.2185367" lon="10.5619867"><ele>7.0</ele><time>2026-04-06T08:43:13.339Z</time></trkpt><trkpt lat="43.2184217" lon="10.562"><ele>7.0</ele><time>2026-04-06T08:43:14.341Z</time></trkpt><trkpt lat="43.218305" lon="10.5620133"><ele>7.0</ele><time>2026-04-06T08:43:15.338Z</time></trkpt><trkpt lat="43.21819" lon="10.562025"><ele>7.0</ele><time>2026-04-06T08:43:16.339Z</time></trkpt><trkpt lat="43.2180733" lon="10.56204"><ele>7.0</ele><time>2026-04-06T08:43:17.34Z</time></trkpt><trkpt lat="43.2179567" lon="10.5620533"><ele>8.0</ele><time>2026-04-06T08:43:18.339Z</time></trkpt><trkpt lat="43.21784" lon="10.5620717"><ele>9.0</ele><time>2026-04-06T08:43:19.336Z</time></trkpt><trkpt lat="43.2177217" lon="10.56209"><ele>10.0</ele><time>2026-04-06T08:43:20.34Z</time></trkpt><trkpt lat="43.2176033" lon="10.562115"><ele>11.0</ele><time>2026-04-06T08:43:21.341Z</time></trkpt><trkpt lat="43.217485" lon="10.5621333"><ele>11.0</ele><time>2026-04-06T08:43:22.337Z</time></trkpt><trkpt lat="43.2173667" lon="10.5621517"><ele>11.0</ele><time>2026-04-06T08:43:23.351Z</time></trkpt><trkpt lat="43.2172483" lon="10.562165"><ele>11.0</ele><time>2026-04-06T08:43:24.34Z</time></trkpt><trkpt lat="43.21713" lon="10.5621767"><ele>11.0</ele><time>2026-04-06T08:43:25.338Z</time></trkpt><trkpt lat="43.2170117" lon="10.56219"><ele>10.5</ele><time>2026-04-06T08:43:26.34Z</time></trkpt><trkpt lat="43.2168933" lon="10.5622083"><ele>10.0</ele><time>2026-04-06T08:43:27.34Z</time></trkpt><trkpt lat="43.216775" lon="10.5622267"><ele>9.5</ele><time>2026-04-06T08:43:28.34Z</time></trkpt><trkpt lat="43.2166583" lon="10.5622433"><ele>9.0</ele><time>2026-04-06T08:43:29.34Z</time></trkpt><trkpt lat="43.21654" lon="10.56226"><ele>8.75</ele><time>2026-04-06T08:43:30.34Z</time></trkpt><trkpt lat="43.21642" lon="10.5622783"><ele>8.5</ele><time>2026-04-06T08:43:31.339Z</time></trkpt><trkpt lat="43.2163" lon="10.5622983"><ele>8.25</ele><time>2026-04-06T08:43:32.339Z</time></trkpt><trkpt lat="43.21618" lon="10.5623167"><ele>8.0</ele><time>2026-04-06T08:43:33.336Z</time></trkpt><trkpt lat="43.2160617" lon="10.5623367"><ele>8.0</ele><time>2026-04-06T08:43:34.337Z</time></trkpt><trkpt lat="43.215945" lon="10.562355"><ele>8.0</ele><time>2026-04-06T08:43:35.339Z</time></trkpt><trkpt lat="43.215825" lon="10.56237"><ele>8.0</ele><time>2026-04-06T08:43:36.338Z</time></trkpt><trkpt lat="43.215705" lon="10.5623867"><ele>8.0</ele><time>2026-04-06T08:43:37.335Z</time></trkpt><trkpt lat="43.2155833" lon="10.562405"><ele>7.75</ele><time>2026-04-06T08:43:38.338Z</time></trkpt><trkpt lat="43.2154617" lon="10.5624267"><ele>7.5</ele><time>2026-04-06T08:43:39.339Z</time></trkpt><trkpt lat="43.21534" lon="10.56244"><ele>7.25</ele><time>2026-04-06T08:43:40.337Z</time></trkpt><trkpt lat="43.215215" lon="10.56245"><ele>7.0</ele><time>2026-04-06T08:43:41.339Z</time></trkpt><trkpt lat="43.2150917" lon="10.5624583"><ele>7.0</ele><time>2026-04-06T08:43:42.338Z</time></trkpt><trkpt lat="43.21497" lon="10.5624683"><ele>7.0</ele><time>2026-04-06T08:43:43.338Z</time></trkpt><trkpt lat="43.2148467" lon="10.562485"><ele>7.0</ele><time>2026-04-06T08:43:44.34Z</time></trkpt><trkpt lat="43.214725" lon="10.5625017"><ele>7.0</ele><time>2026-04-06T08:43:45.34Z</time></trkpt><trkpt lat="43.2146033" lon="10.5625167"><ele>7.25</ele><time>2026-04-06T08:43:46.336Z</time></trkpt><trkpt lat="43.21448" lon="10.5625367"><ele>7.5</ele><time>2026-04-06T08:43:47.339Z</time></trkpt><trkpt lat="43.2143567" lon="10.5625533"><ele>7.75</ele><time>2026-04-06T08:43:48.338Z</time></trkpt><trkpt lat="43.2142333" lon="10.5625683"><ele>8.0</ele><time>2026-04-06T08:43:49.342Z</time></trkpt><trkpt lat="43.2141117" lon="10.5625817"><ele>7.75</ele><time>2026-04-06T08:43:50.344Z</time></trkpt><trkpt lat="43.2139883" lon="10.5626"><ele>7.5</ele><time>2026-04-06T08:43:51.343Z</time></trkpt><trkpt lat="43.2138633" lon="10.56262"><ele>7.25</ele><time>2026-04-06T08:43:52.336Z</time></trkpt><trkpt lat="43.2137417" lon="10.56264"><ele>7.0</ele><time>2026-04-06T08:43:53.337Z</time></trkpt><trkpt lat="43.2136167" lon="10.5626583"><ele>7.0</ele><time>2026-04-06T08:43:54.338Z</time></trkpt><trkpt lat="43.2134967" lon="10.5626767"><ele>7.0</ele><time>2026-04-06T08:43:55.338Z</time></trkpt><trkpt lat="43.213375" lon="10.5626933"><ele>7.0</ele><time>2026-04-06T08:43:56.347Z</time></trkpt><trkpt lat="43.213255" lon="10.5627067"><ele>7.0</ele><time>2026-04-06T08:43:57.336Z</time></trkpt><trkpt lat="43.213135" lon="10.562725"><ele>7.0</ele><time>2026-04-06T08:43:58.334Z</time></trkpt><trkpt lat="43.2130167" lon="10.562745"><ele>7.0</ele><time>2026-04-06T08:43:59.34Z</time></trkpt><trkpt lat="43.2128967" lon="10.5627633"><ele>7.0</ele><time>2026-04-06T08:44:00.338Z</time></trkpt><trkpt lat="43.2127767" lon="10.5627783"><ele>7.0</ele><time>2026-04-06T08:44:01.34Z</time></trkpt><trkpt lat="43.2126583" lon="10.5627933"><ele>7.0</ele><time>2026-04-06T08:44:02.336Z</time></trkpt><trkpt lat="43.212535" lon="10.5628117"><ele>7.0</ele><time>2026-04-06T08:44:03.335Z</time></trkpt><trkpt lat="43.212415" lon="10.5628283"><ele>7.0</ele><time>2026-04-06T08:44:04.335Z</time></trkpt><trkpt lat="43.2122967" lon="10.5628433"><ele>7.0</ele><time>2026-04-06T08:44:05.336Z</time></trkpt><trkpt lat="43.212175" lon="10.5628583"><ele>7.25</ele><time>2026-04-06T08:44:06.335Z</time></trkpt><trkpt lat="43.212055" lon="10.5628733"><ele>7.5</ele><time>2026-04-06T08:44:07.338Z</time></trkpt><trkpt lat="43.211935" lon="10.56289"><ele>7.75</ele><time>2026-04-06T08:44:08.347Z</time></trkpt><trkpt lat="43.211815" lon="10.562905"><ele>8.0</ele><time>2026-04-06T08:44:09.345Z</time></trkpt><trkpt lat="43.2116933" lon="10.5629183"><ele>8.0</ele><time>2026-04-06T08:44:10.337Z</time></trkpt><trkpt lat="43.2115717" lon="10.5629333"><ele>8.0</ele><time>2026-04-06T08:44:11.338Z</time></trkpt><trkpt lat="43.2114517" lon="10.5629483"><ele>8.0</ele><time>2026-04-06T08:44:12.339Z</time></trkpt><trkpt lat="43.2113333" lon="10.5629683"><ele>8.0</ele><time>2026-04-06T08:44:13.34Z</time></trkpt><trkpt lat="43.211215" lon="10.562985"><ele>8.0</ele><time>2026-04-06T08:44:14.338Z</time></trkpt><trkpt lat="43.2110983" lon="10.5629983"><ele>8.0</ele><time>2026-04-06T08:44:15.338Z</time></trkpt><trkpt lat="43.2109817" lon="10.56301"><ele>8.0</ele><time>2026-04-06T08:44:16.337Z</time></trkpt><trkpt lat="43.2108633" lon="10.5630267"><ele>8.0</ele><time>2026-04-06T08:44:17.336Z</time></trkpt><trkpt lat="43.2107467" lon="10.5630433"><ele>8.75</ele><time>2026-04-06T08:44:18.337Z</time></trkpt><trkpt lat="43.21063" lon="10.5630633"><ele>9.5</ele><time>2026-04-06T08:44:19.337Z</time></trkpt><trkpt lat="43.2105133" lon="10.5630783"><ele>10.25</ele><time>2026-04-06T08:44:20.339Z</time></trkpt><trkpt lat="43.2103983" lon="10.563095"><ele>11.0</ele><time>2026-04-06T08:44:21.339Z</time></trkpt><trkpt lat="43.2102833" lon="10.56311"><ele>11.0</ele><time>2026-04-06T08:44:22.335Z</time></trkpt><trkpt lat="43.2101667" lon="10.56312"><ele>11.0</ele><time>2026-04-06T08:44:23.338Z</time></trkpt><trkpt lat="43.21005" lon="10.5631317"><ele>11.0</ele><time>2026-04-06T08:44:24.339Z</time></trkpt><trkpt lat="43.2099317" lon="10.5631483"><ele>11.0</ele><time>2026-04-06T08:44:25.342Z</time></trkpt><trkpt lat="43.2098117" lon="10.5631667"><ele>10.5</ele><time>2026-04-06T08:44:26.339Z</time></trkpt><trkpt lat="43.2096933" lon="10.5631833"><ele>10.0</ele><time>2026-04-06T08:44:27.34Z</time></trkpt><trkpt lat="43.209575" lon="10.5632033"><ele>9.5</ele><time>2026-04-06T08:44:28.338Z</time></trkpt><trkpt lat="43.209455" lon="10.5632183"><ele>9.0</ele><time>2026-04-06T08:44:29.336Z</time></trkpt><trkpt lat="43.2093317" lon="10.5632317"><ele>9.0</ele><time>2026-04-06T08:44:30.338Z</time></trkpt><trkpt lat="43.209205" lon="10.5632467"><ele>9.0</ele><time>2026-04-06T08:44:31.338Z</time></trkpt><trkpt lat="43.20908" lon="10.563265"><ele>9.0</ele><time>2026-04-06T08:44:32.341Z</time></trkpt><trkpt lat="43.2089517" lon="10.5632833"><ele>9.0</ele><time>2026-04-06T08:44:33.339Z</time></trkpt><trkpt lat="43.208825" lon="10.5633017"><ele>8.75</ele><time>2026-04-06T08:44:34.342Z</time></trkpt><trkpt lat="43.2086983" lon="10.5633183"><ele>8.5</ele><time>2026-04-06T08:44:35.339Z</time></trkpt><trkpt lat="43.20857" lon="10.563335"><ele>8.25</ele><time>2026-04-06T08:44:36.339Z</time></trkpt><trkpt lat="43.2084417" lon="10.5633533"><ele>8.0</ele><time>2026-04-06T08:44:37.339Z</time></trkpt><trkpt lat="43.2083117" lon="10.5633683"><ele>8.0</ele><time>2026-04-06T08:44:38.337Z</time></trkpt><trkpt lat="43.2081817" lon="10.563385"><ele>8.0</ele><time>2026-04-06T08:44:39.352Z</time></trkpt><trkpt lat="43.2080533" lon="10.5634"><ele>8.0</ele><time>2026-04-06T08:44:40.339Z</time></trkpt><trkpt lat="43.2079233" lon="10.5634183"><ele>8.0</ele><time>2026-04-06T08:44:41.34Z</time></trkpt><trkpt lat="43.2077967" lon="10.563435"><ele>8.0</ele><time>2026-04-06T08:44:42.339Z</time></trkpt><trkpt lat="43.2076683" lon="10.5634517"><ele>8.0</ele><time>2026-04-06T08:44:43.338Z</time></trkpt><trkpt lat="43.20754" lon="10.5634717"><ele>8.0</ele><time>2026-04-06T08:44:44.339Z</time></trkpt><trkpt lat="43.2074133" lon="10.5634867"><ele>8.0</ele><time>2026-04-06T08:44:45.337Z</time></trkpt><trkpt lat="43.207285" lon="10.5635033"><ele>8.0</ele><time>2026-04-06T08:44:46.337Z</time></trkpt><trkpt lat="43.207155" lon="10.5635233"><ele>8.0</ele><time>2026-04-06T08:44:47.342Z</time></trkpt><trkpt lat="43.2070267" lon="10.5635433"><ele>8.0</ele><time>2026-04-06T08:44:48.341Z</time></trkpt><trkpt lat="43.2069" lon="10.56356"><ele>8.0</ele><time>2026-04-06T08:44:49.34Z</time></trkpt><trkpt lat="43.2067717" lon="10.5635767"><ele>8.0</ele><time>2026-04-06T08:44:50.339Z</time></trkpt><trkpt lat="43.2066417" lon="10.5635967"><ele>8.0</ele><time>2026-04-06T08:44:51.339Z</time></trkpt><trkpt lat="43.2065133" lon="10.5636167"><ele>8.0</ele><time>2026-04-06T08:44:52.337Z</time></trkpt><trkpt lat="43.2063833" lon="10.5636333"><ele>8.0</ele><time>2026-04-06T08:44:53.34Z</time></trkpt><trkpt lat="43.2062533" lon="10.5636517"><ele>8.0</ele><time>2026-04-06T08:44:54.338Z</time></trkpt><trkpt lat="43.2061217" lon="10.5636733"><ele>8.0</ele><time>2026-04-06T08:44:55.339Z</time></trkpt><trkpt lat="43.20599" lon="10.56369"><ele>8.0</ele><time>2026-04-06T08:44:56.342Z</time></trkpt><trkpt lat="43.20586" lon="10.5637033"><ele>8.0</ele><time>2026-04-06T08:44:57.341Z</time></trkpt><trkpt lat="43.20573" lon="10.5637183"><ele>8.0</ele><time>2026-04-06T08:44:58.35Z</time></trkpt><trkpt lat="43.2056017" lon="10.5637333"><ele>8.0</ele><time>2026-04-06T08:44:59.336Z</time></trkpt><trkpt lat="43.205475" lon="10.5637517"><ele>8.0</ele><time>2026-04-06T08:45:00.337Z</time></trkpt><trkpt lat="43.20535" lon="10.56377"><ele>8.0</ele><time>2026-04-06T08:45:01.338Z</time></trkpt><trkpt lat="43.2052267" lon="10.5637867"><ele>8.0</ele><time>2026-04-06T08:45:02.34Z</time></trkpt><trkpt lat="43.2051033" lon="10.5638"><ele>8.0</ele><time>2026-04-06T08:45:03.34Z</time></trkpt><trkpt lat="43.2049783" lon="10.5638133"><ele>8.0</ele><time>2026-04-06T08:45:04.339Z</time></trkpt><trkpt lat="43.2048517" lon="10.5638267"><ele>8.0</ele><time>2026-04-06T08:45:05.339Z</time></trkpt><trkpt lat="43.2047283" lon="10.563845"><ele>8.0</ele><time>2026-04-06T08:45:06.341Z</time></trkpt><trkpt lat="43.2046083" lon="10.5638617"><ele>8.0</ele><time>2026-04-06T08:45:07.338Z</time></trkpt><trkpt lat="43.2044933" lon="10.5638733"><ele>8.0</ele><time>2026-04-06T08:45:08.338Z</time></trkpt><trkpt lat="43.2043817" lon="10.5638867"><ele>8.0</ele><time>2026-04-06T08:45:09.339Z</time></trkpt><trkpt lat="43.20427" lon="10.5638983"><ele>8.0</ele><time>2026-04-06T08:45:10.34Z</time></trkpt><trkpt lat="43.2041617" lon="10.56391"><ele>8.0</ele><time>2026-04-06T08:45:11.339Z</time></trkpt><trkpt lat="43.20405" lon="10.56392"><ele>8.0</ele><time>2026-04-06T08:45:12.337Z</time></trkpt><trkpt lat="43.2039367" lon="10.5639333"><ele>8.0</ele><time>2026-04-06T08:45:13.338Z</time></trkpt><trkpt lat="43.2038283" lon="10.5639483"><ele>8.0</ele><time>2026-04-06T08:45:14.337Z</time></trkpt><trkpt lat="43.20372" lon="10.563965"><ele>8.0</ele><time>2026-04-06T08:45:15.338Z</time></trkpt><trkpt lat="43.2036083" lon="10.563985"><ele>8.0</ele><time>2026-04-06T08:45:16.339Z</time></trkpt><trkpt lat="43.2034967" lon="10.564"><ele>8.0</ele><time>2026-04-06T08:45:17.339Z</time></trkpt><trkpt lat="43.2033833" lon="10.5640133"><ele>8.0</ele><time>2026-04-06T08:45:18.341Z</time></trkpt><trkpt lat="43.2032683" lon="10.5640283"><ele>7.75</ele><time>2026-04-06T08:45:19.339Z</time></trkpt><trkpt lat="43.203155" lon="10.5640467"><ele>7.5</ele><time>2026-04-06T08:45:20.338Z</time></trkpt><trkpt lat="43.2030417" lon="10.5640633"><ele>7.25</ele><time>2026-04-06T08:45:21.34Z</time></trkpt><trkpt lat="43.2029283" lon="10.56408"><ele>7.0</ele><time>2026-04-06T08:45:22.346Z</time></trkpt><trkpt lat="43.202815" lon="10.5640967"><ele>7.0</ele><time>2026-04-06T08:45:23.339Z</time></trkpt><trkpt lat="43.202705" lon="10.5641117"><ele>7.0</ele><time>2026-04-06T08:45:24.341Z</time></trkpt><trkpt lat="43.2025933" lon="10.5641267"><ele>7.0</ele><time>2026-04-06T08:45:25.34Z</time></trkpt><trkpt lat="43.20248" lon="10.5641417"><ele>7.0</ele><time>2026-04-06T08:45:26.339Z</time></trkpt><trkpt lat="43.2023667" lon="10.5641567"><ele>6.6</ele><time>2026-04-06T08:45:27.341Z</time></trkpt><trkpt lat="43.2022583" lon="10.56417"><ele>6.199999999999999</ele><time>2026-04-06T08:45:28.337Z</time></trkpt><trkpt lat="43.2021483" lon="10.5641817"><ele>5.8</ele><time>2026-04-06T08:45:29.338Z</time></trkpt><trkpt lat="43.2020333" lon="10.5641983"><ele>5.4</ele><time>2026-04-06T08:45:30.337Z</time></trkpt><trkpt lat="43.20192" lon="10.564215"><ele>5.0</ele><time>2026-04-06T08:45:31.337Z</time></trkpt><trkpt lat="43.20181" lon="10.5642267"><ele>5.0</ele><time>2026-04-06T08:45:32.338Z</time></trkpt><trkpt lat="43.2016967" lon="10.5642433"><ele>5.0</ele><time>2026-04-06T08:45:33.345Z</time></trkpt><trkpt lat="43.201585" lon="10.5642567"><ele>5.0</ele><time>2026-04-06T08:45:34.338Z</time></trkpt><trkpt lat="43.201475" lon="10.5642717"><ele>5.0</ele><time>2026-04-06T08:45:35.343Z</time></trkpt><trkpt lat="43.201365" lon="10.56429"><ele>5.0</ele><time>2026-04-06T08:45:36.336Z</time></trkpt><trkpt lat="43.20125" lon="10.564305"><ele>5.0</ele><time>2026-04-06T08:45:37.337Z</time></trkpt><trkpt lat="43.2011317" lon="10.5643217"><ele>5.0</ele><time>2026-04-06T08:45:38.342Z</time></trkpt><trkpt lat="43.2010133" lon="10.5643383"><ele>5.0</ele><time>2026-04-06T08:45:39.338Z</time></trkpt><trkpt lat="43.2008933" lon="10.5643533"><ele>5.0</ele><time>2026-04-06T08:45:40.339Z</time></trkpt><trkpt lat="43.2007733" lon="10.5643667"><ele>5.0</ele><time>2026-04-06T08:45:41.338Z</time></trkpt><trkpt lat="43.2006517" lon="10.5643833"><ele>5.0</ele><time>2026-04-06T08:45:42.337Z</time></trkpt><trkpt lat="43.2005317" lon="10.5643967"><ele>5.0</ele><time>2026-04-06T08:45:43.337Z</time></trkpt><trkpt lat="43.2004117" lon="10.5644083"><ele>5.0</ele><time>2026-04-06T08:45:44.343Z</time></trkpt><trkpt lat="43.2002867" lon="10.5644233"><ele>5.0</ele><time>2026-04-06T08:45:45.339Z</time></trkpt><trkpt lat="43.2001633" lon="10.5644383"><ele>5.0</ele><time>2026-04-06T08:45:46.338Z</time></trkpt><trkpt lat="43.2000383" lon="10.564455"><ele>5.0</ele><time>2026-04-06T08:45:47.338Z</time></trkpt><trkpt lat="43.199915" lon="10.5644733"><ele>5.0</ele><time>2026-04-06T08:45:48.336Z</time></trkpt><trkpt lat="43.199795" lon="10.56449"><ele>4.75</ele><time>2026-04-06T08:45:49.338Z</time></trkpt><trkpt lat="43.1996733" lon="10.564505"><ele>4.5</ele><time>2026-04-06T08:45:50.339Z</time></trkpt><trkpt lat="43.1995533" lon="10.56452"><ele>4.25</ele><time>2026-04-06T08:45:51.341Z</time></trkpt><trkpt lat="43.1994333" lon="10.564535"><ele>4.0</ele><time>2026-04-06T08:45:52.337Z</time></trkpt><trkpt lat="43.1993117" lon="10.5645517"><ele>4.0</ele><time>2026-04-06T08:45:53.34Z</time></trkpt><trkpt lat="43.1991917" lon="10.5645683"><ele>4.0</ele><time>2026-04-06T08:45:54.342Z</time></trkpt><trkpt lat="43.1990733" lon="10.564585"><ele>4.0</ele><time>2026-04-06T08:45:55.338Z</time></trkpt><trkpt lat="43.1989567" lon="10.5646017"><ele>4.0</ele><time>2026-04-06T08:45:56.339Z</time></trkpt><trkpt lat="43.1988383" lon="10.5646167"><ele>4.0</ele><time>2026-04-06T08:45:57.339Z</time></trkpt><trkpt lat="43.1987233" lon="10.5646317"><ele>4.0</ele><time>2026-04-06T08:45:58.339Z</time></trkpt><trkpt lat="43.1986067" lon="10.564645"><ele>4.0</ele><time>2026-04-06T08:45:59.341Z</time></trkpt><trkpt lat="43.1984917" lon="10.5646583"><ele>4.0</ele><time>2026-04-06T08:46:00.341Z</time></trkpt><trkpt lat="43.1983767" lon="10.564675"><ele>4.0</ele><time>2026-04-06T08:46:01.34Z</time></trkpt><trkpt lat="43.1982617" lon="10.56469"><ele>4.0</ele><time>2026-04-06T08:46:02.34Z</time></trkpt><trkpt lat="43.1981467" lon="10.5647017"><ele>4.0</ele><time>2026-04-06T08:46:03.337Z</time></trkpt><trkpt lat="43.1980317" lon="10.5647133"><ele>4.0</ele><time>2026-04-06T08:46:04.337Z</time></trkpt><trkpt lat="43.1979183" lon="10.564725"><ele>4.5</ele><time>2026-04-06T08:46:05.34Z</time></trkpt><trkpt lat="43.1978033" lon="10.5647417"><ele>5.0</ele><time>2026-04-06T08:46:06.34Z</time></trkpt><trkpt lat="43.1976883" lon="10.56476"><ele>5.5</ele><time>2026-04-06T08:46:07.336Z</time></trkpt><trkpt lat="43.1975717" lon="10.56478"><ele>6.0</ele><time>2026-04-06T08:46:08.336Z</time></trkpt><trkpt lat="43.1974533" lon="10.5647933"><ele>6.0</ele><time>2026-04-06T08:46:09.337Z</time></trkpt><trkpt lat="43.1973333" lon="10.56481"><ele>6.0</ele><time>2026-04-06T08:46:10.336Z</time></trkpt><trkpt lat="43.1972133" lon="10.564825"><ele>6.0</ele><time>2026-04-06T08:46:11.339Z</time></trkpt><trkpt lat="43.1970933" lon="10.5648417"><ele>6.0</ele><time>2026-04-06T08:46:12.337Z</time></trkpt><trkpt lat="43.19697" lon="10.5648583"><ele>6.0</ele><time>2026-04-06T08:46:13.342Z</time></trkpt><trkpt lat="43.1968483" lon="10.5648717"><ele>6.0</ele><time>2026-04-06T08:46:14.339Z</time></trkpt><trkpt lat="43.1967267" lon="10.56489"><ele>6.0</ele><time>2026-04-06T08:46:15.34Z</time></trkpt><trkpt lat="43.1966033" lon="10.5649083"><ele>6.0</ele><time>2026-04-06T08:46:16.341Z</time></trkpt><trkpt lat="43.1964833" lon="10.5649267"><ele>5.75</ele><time>2026-04-06T08:46:17.337Z</time></trkpt><trkpt lat="43.196365" lon="10.5649417"><ele>5.5</ele><time>2026-04-06T08:46:18.339Z</time></trkpt><trkpt lat="43.1962467" lon="10.56496"><ele>5.25</ele><time>2026-04-06T08:46:19.341Z</time></trkpt><trkpt lat="43.19613" lon="10.5649733"><ele>5.0</ele><time>2026-04-06T08:46:20.342Z</time></trkpt><trkpt lat="43.1960117" lon="10.564985"><ele>5.0</ele><time>2026-04-06T08:46:21.339Z</time></trkpt><trkpt lat="43.1958933" lon="10.5649967"><ele>5.0</ele><time>2026-04-06T08:46:22.338Z</time></trkpt><trkpt lat="43.1957767" lon="10.56501"><ele>5.0</ele><time>2026-04-06T08:46:23.338Z</time></trkpt><trkpt lat="43.19566" lon="10.565025"><ele>5.0</ele><time>2026-04-06T08:46:24.342Z</time></trkpt><trkpt lat="43.195545" lon="10.5650367"><ele>5.25</ele><time>2026-04-06T08:46:25.338Z</time></trkpt><trkpt lat="43.19543" lon="10.56505"><ele>5.5</ele><time>2026-04-06T08:46:26.345Z</time></trkpt><trkpt lat="43.1953133" lon="10.565065"><ele>5.75</ele><time>2026-04-06T08:46:27.343Z</time></trkpt><trkpt lat="43.195195" lon="10.5650833"><ele>6.0</ele><time>2026-04-06T08:46:28.34Z</time></trkpt><trkpt lat="43.19508" lon="10.5651017"><ele>6.0</ele><time>2026-04-06T08:46:29.34Z</time></trkpt><trkpt lat="43.1949667" lon="10.5651167"><ele>6.0</ele><time>2026-04-06T08:46:30.345Z</time></trkpt><trkpt lat="43.19485" lon="10.5651317"><ele>6.0</ele><time>2026-04-06T08:46:31.339Z</time></trkpt><trkpt lat="43.194735" lon="10.5651467"><ele>6.0</ele><time>2026-04-06T08:46:32.339Z</time></trkpt><trkpt lat="43.19462" lon="10.56516"><ele>6.25</ele><time>2026-04-06T08:46:33.339Z</time></trkpt><trkpt lat="43.194505" lon="10.5651767"><ele>6.5</ele><time>2026-04-06T08:46:34.339Z</time></trkpt><trkpt lat="43.1943917" lon="10.5651933"><ele>6.75</ele><time>2026-04-06T08:46:35.341Z</time></trkpt><trkpt lat="43.194275" lon="10.56521"><ele>7.0</ele><time>2026-04-06T08:46:36.338Z</time></trkpt><trkpt lat="43.1941583" lon="10.565225"><ele>7.0</ele><time>2026-04-06T08:46:37.337Z</time></trkpt><trkpt lat="43.1940383" lon="10.5652367"><ele>7.0</ele><time>2026-04-06T08:46:38.337Z</time></trkpt><trkpt lat="43.1939183" lon="10.565255"><ele>7.0</ele><time>2026-04-06T08:46:39.339Z</time></trkpt><trkpt lat="43.1937967" lon="10.5652717"><ele>7.0</ele><time>2026-04-06T08:46:40.343Z</time></trkpt><trkpt lat="43.1936733" lon="10.5652883"><ele>6.75</ele><time>2026-04-06T08:46:41.336Z</time></trkpt><trkpt lat="43.1935483" lon="10.5653017"><ele>6.5</ele><time>2026-04-06T08:46:42.34Z</time></trkpt><trkpt lat="43.1934217" lon="10.56532"><ele>6.25</ele><time>2026-04-06T08:46:43.341Z</time></trkpt><trkpt lat="43.193295" lon="10.56534"><ele>6.0</ele><time>2026-04-06T08:46:44.34Z</time></trkpt><trkpt lat="43.1931667" lon="10.5653567"><ele>5.75</ele><time>2026-04-06T08:46:45.341Z</time></trkpt><trkpt lat="43.19304" lon="10.565375"><ele>5.5</ele><time>2026-04-06T08:46:46.338Z</time></trkpt><trkpt lat="43.1929117" lon="10.565395"><ele>5.25</ele><time>2026-04-06T08:46:47.34Z</time></trkpt><trkpt lat="43.1927833" lon="10.5654133"><ele>5.0</ele><time>2026-04-06T08:46:48.343Z</time></trkpt><trkpt lat="43.1926567" lon="10.5654317"><ele>5.0</ele><time>2026-04-06T08:46:49.337Z</time></trkpt><trkpt lat="43.19253" lon="10.5654483"><ele>5.0</ele><time>2026-04-06T08:46:50.344Z</time></trkpt><trkpt lat="43.1924067" lon="10.5654667"><ele>5.0</ele><time>2026-04-06T08:46:51.338Z</time></trkpt><trkpt lat="43.1922817" lon="10.5654867"><ele>5.0</ele><time>2026-04-06T08:46:52.337Z</time></trkpt><trkpt lat="43.192155" lon="10.565505"><ele>5.5</ele><time>2026-04-06T08:46:53.342Z</time></trkpt><trkpt lat="43.19203" lon="10.5655217"><ele>6.0</ele><time>2026-04-06T08:46:54.34Z</time></trkpt><trkpt lat="43.1919017" lon="10.5655367"><ele>6.5</ele><time>2026-04-06T08:46:55.339Z</time></trkpt><trkpt lat="43.191775" lon="10.56555"><ele>7.0</ele><time>2026-04-06T08:46:56.34Z</time></trkpt><trkpt lat="43.1916483" lon="10.565565"><ele>7.0</ele><time>2026-04-06T08:46:57.339Z</time></trkpt><trkpt lat="43.1915233" lon="10.5655817"><ele>7.0</ele><time>2026-04-06T08:46:58.337Z</time></trkpt><trkpt lat="43.1914017" lon="10.5655983"><ele>7.0</ele><time>2026-04-06T08:46:59.342Z</time></trkpt><trkpt lat="43.19128" lon="10.5656117"><ele>7.0</ele><time>2026-04-06T08:47:00.34Z</time></trkpt><trkpt lat="43.1911583" lon="10.5656267"><ele>7.0</ele><time>2026-04-06T08:47:01.339Z</time></trkpt><trkpt lat="43.1910367" lon="10.565645"><ele>7.0</ele><time>2026-04-06T08:47:02.339Z</time></trkpt><trkpt lat="43.1909117" lon="10.5656633"><ele>7.0</ele><time>2026-04-06T08:47:03.342Z</time></trkpt><trkpt lat="43.1907883" lon="10.5656817"><ele>7.0</ele><time>2026-04-06T08:47:04.341Z</time></trkpt><trkpt lat="43.190665" lon="10.5656983"><ele>7.0</ele><time>2026-04-06T08:47:05.344Z</time></trkpt><trkpt lat="43.1905417" lon="10.565715"><ele>7.0</ele><time>2026-04-06T08:47:06.345Z</time></trkpt><trkpt lat="43.1904183" lon="10.5657333"><ele>7.0</ele><time>2026-04-06T08:47:07.345Z</time></trkpt><trkpt lat="43.190295" lon="10.56575"><ele>7.0</ele><time>2026-04-06T08:47:08.337Z</time></trkpt><trkpt lat="43.1901717" lon="10.5657667"><ele>7.0</ele><time>2026-04-06T08:47:09.338Z</time></trkpt><trkpt lat="43.1900467" lon="10.5657833"><ele>7.0</ele><time>2026-04-06T08:47:10.338Z</time></trkpt><trkpt lat="43.1899233" lon="10.5657967"><ele>7.0</ele><time>2026-04-06T08:47:11.338Z</time></trkpt><trkpt lat="43.1897967" lon="10.5658133"><ele>7.0</ele><time>2026-04-06T08:47:12.341Z</time></trkpt><trkpt lat="43.1896717" lon="10.5658283"><ele>6.5</ele><time>2026-04-06T08:47:13.339Z</time></trkpt><trkpt lat="43.1895467" lon="10.5658417"><ele>6.0</ele><time>2026-04-06T08:47:14.338Z</time></trkpt><trkpt lat="43.189425" lon="10.5658517"><ele>5.5</ele><time>2026-04-06T08:47:15.338Z</time></trkpt><trkpt lat="43.1893017" lon="10.5658667"><ele>5.0</ele><time>2026-04-06T08:47:16.338Z</time></trkpt><trkpt lat="43.1891767" lon="10.565885"><ele>5.0</ele><time>2026-04-06T08:47:17.336Z</time></trkpt><trkpt lat="43.1890517" lon="10.5659033"><ele>5.0</ele><time>2026-04-06T08:47:18.341Z</time></trkpt><trkpt lat="43.188925" lon="10.5659183"><ele>5.0</ele><time>2026-04-06T08:47:19.34Z</time></trkpt><trkpt lat="43.1888033" lon="10.565935"><ele>5.0</ele><time>2026-04-06T08:47:20.338Z</time></trkpt><trkpt lat="43.188685" lon="10.56595"><ele>5.25</ele><time>2026-04-06T08:47:21.339Z</time></trkpt><trkpt lat="43.1885683" lon="10.5659667"><ele>5.5</ele><time>2026-04-06T08:47:22.337Z</time></trkpt><trkpt lat="43.18845" lon="10.565985"><ele>5.75</ele><time>2026-04-06T08:47:23.34Z</time></trkpt><trkpt lat="43.1883367" lon="10.566"><ele>6.0</ele><time>2026-04-06T08:47:24.339Z</time></trkpt><trkpt lat="43.18822" lon="10.5660167"><ele>6.0</ele><time>2026-04-06T08:47:25.341Z</time></trkpt><trkpt lat="43.1881033" lon="10.5660317"><ele>6.0</ele><time>2026-04-06T08:47:26.339Z</time></trkpt><trkpt lat="43.1879883" lon="10.5660467"><ele>6.0</ele><time>2026-04-06T08:47:27.337Z</time></trkpt><trkpt lat="43.1878767" lon="10.5660583"><ele>6.0</ele><time>2026-04-06T08:47:28.338Z</time></trkpt><trkpt lat="43.187765" lon="10.5660717"><ele>6.0</ele><time>2026-04-06T08:47:29.34Z</time></trkpt><trkpt lat="43.1876533" lon="10.5660883"><ele>6.0</ele><time>2026-04-06T08:47:30.336Z</time></trkpt><trkpt lat="43.18754" lon="10.566105"><ele>6.0</ele><time>2026-04-06T08:47:31.339Z</time></trkpt><trkpt lat="43.1874267" lon="10.5661217"><ele>6.0</ele><time>2026-04-06T08:47:32.341Z</time></trkpt><trkpt lat="43.187315" lon="10.5661383"><ele>6.25</ele><time>2026-04-06T08:47:33.339Z</time></trkpt><trkpt lat="43.1872017" lon="10.5661517"><ele>6.5</ele><time>2026-04-06T08:47:34.34Z</time></trkpt><trkpt lat="43.18709" lon="10.56617"><ele>6.75</ele><time>2026-04-06T08:47:35.339Z</time></trkpt><trkpt lat="43.1869767" lon="10.5661867"><ele>7.0</ele><time>2026-04-06T08:47:36.34Z</time></trkpt><trkpt lat="43.186865" lon="10.5662033"><ele>7.0</ele><time>2026-04-06T08:47:37.337Z</time></trkpt><trkpt lat="43.18675" lon="10.56622"><ele>7.0</ele><time>2026-04-06T08:47:38.338Z</time></trkpt><trkpt lat="43.1866383" lon="10.5662367"><ele>7.0</ele><time>2026-04-06T08:47:39.336Z</time></trkpt><trkpt lat="43.1865233" lon="10.566255"><ele>7.0</ele><time>2026-04-06T08:47:40.339Z</time></trkpt><trkpt lat="43.1864067" lon="10.56627"><ele>6.75</ele><time>2026-04-06T08:47:41.34Z</time></trkpt><trkpt lat="43.18629" lon="10.566285"><ele>6.5</ele><time>2026-04-06T08:47:42.339Z</time></trkpt><trkpt lat="43.1861717" lon="10.5663"><ele>6.25</ele><time>2026-04-06T08:47:43.339Z</time></trkpt><trkpt lat="43.1860567" lon="10.5663133"><ele>6.0</ele><time>2026-04-06T08:47:44.34Z</time></trkpt><trkpt lat="43.1859383" lon="10.5663317"><ele>6.0</ele><time>2026-04-06T08:47:45.337Z</time></trkpt><trkpt lat="43.1858217" lon="10.5663467"><ele>6.0</ele><time>2026-04-06T08:47:46.337Z</time></trkpt><trkpt lat="43.185705" lon="10.56636"><ele>6.0</ele><time>2026-04-06T08:47:47.339Z</time></trkpt><trkpt lat="43.1855883" lon="10.5663733"><ele>6.0</ele><time>2026-04-06T08:47:48.336Z</time></trkpt><trkpt lat="43.1854717" lon="10.5663917"><ele>6.666666666666666</ele><time>2026-04-06T08:47:49.338Z</time></trkpt><trkpt lat="43.1853567" lon="10.5664117"><ele>7.333333333333333</ele><time>2026-04-06T08:47:50.341Z</time></trkpt><trkpt lat="43.1851217" lon="10.56644"><ele>8.0</ele><time>2026-04-06T08:47:52.339Z</time></trkpt><trkpt lat="43.185005" lon="10.566455"><ele>8.0</ele><time>2026-04-06T08:47:53.337Z</time></trkpt><trkpt lat="43.1848883" lon="10.5664667"><ele>8.0</ele><time>2026-04-06T08:47:54.339Z</time></trkpt><trkpt lat="43.1847733" lon="10.5664817"><ele>8.0</ele><time>2026-04-06T08:47:55.338Z</time></trkpt><trkpt lat="43.1846583" lon="10.5664933"><ele>8.0</ele><time>2026-04-06T08:47:56.342Z</time></trkpt><trkpt lat="43.1845417" lon="10.566505"><ele>8.5</ele><time>2026-04-06T08:47:57.337Z</time></trkpt><trkpt lat="43.184425" lon="10.5665217"><ele>9.0</ele><time>2026-04-06T08:47:58.339Z</time></trkpt><trkpt lat="43.184305" lon="10.566535"><ele>9.5</ele><time>2026-04-06T08:47:59.337Z</time></trkpt><trkpt lat="43.184185" lon="10.5665533"><ele>10.0</ele><time>2026-04-06T08:48:00.337Z</time></trkpt><trkpt lat="43.1840667" lon="10.5665717"><ele>9.75</ele><time>2026-04-06T08:48:01.338Z</time></trkpt><trkpt lat="43.1839483" lon="10.5665867"><ele>9.5</ele><time>2026-04-06T08:48:02.341Z</time></trkpt><trkpt lat="43.1838283" lon="10.566605"><ele>9.25</ele><time>2026-04-06T08:48:03.336Z</time></trkpt><trkpt lat="43.1837117" lon="10.5666217"><ele>9.0</ele><time>2026-04-06T08:48:04.336Z</time></trkpt><trkpt lat="43.1835933" lon="10.5666367"><ele>9.0</ele><time>2026-04-06T08:48:05.337Z</time></trkpt><trkpt lat="43.1834733" lon="10.5666567"><ele>9.0</ele><time>2026-04-06T08:48:06.336Z</time></trkpt><trkpt lat="43.183355" lon="10.566675"><ele>9.0</ele><time>2026-04-06T08:48:07.338Z</time></trkpt><trkpt lat="43.1832367" lon="10.5666883"><ele>9.0</ele><time>2026-04-06T08:48:08.34Z</time></trkpt><trkpt lat="43.1831183" lon="10.5667017"><ele>9.75</ele><time>2026-04-06T08:48:09.338Z</time></trkpt><trkpt lat="43.183" lon="10.5667167"><ele>10.5</ele><time>2026-04-06T08:48:10.337Z</time></trkpt><trkpt lat="43.1828817" lon="10.566735"><ele>11.25</ele><time>2026-04-06T08:48:11.341Z</time></trkpt><trkpt lat="43.1827617" lon="10.56675"><ele>12.0</ele><time>2026-04-06T08:48:12.337Z</time></trkpt><trkpt lat="43.18264" lon="10.5667633"><ele>12.0</ele><time>2026-04-06T08:48:13.336Z</time></trkpt><trkpt lat="43.1825183" lon="10.56678"><ele>12.0</ele><time>2026-04-06T08:48:14.339Z</time></trkpt><trkpt lat="43.1823933" lon="10.5667967"><ele>12.0</ele><time>2026-04-06T08:48:15.338Z</time></trkpt><trkpt lat="43.1822683" lon="10.5668117"><ele>12.0</ele><time>2026-04-06T08:48:16.337Z</time></trkpt><trkpt lat="43.182145" lon="10.5668283"><ele>12.25</ele><time>2026-04-06T08:48:17.337Z</time></trkpt><trkpt lat="43.1820233" lon="10.566845"><ele>12.5</ele><time>2026-04-06T08:48:18.338Z</time></trkpt><trkpt lat="43.1819014" lon="10.5668646"><ele>12.75</ele><time>2026-04-06T08:48:19.339Z</time></trkpt><trkpt lat="43.181781" lon="10.5668839"><ele>13.0</ele><time>2026-04-06T08:48:20.338Z</time></trkpt><trkpt lat="43.1816612" lon="10.5669008"><ele>13.0</ele><time>2026-04-06T08:48:21.338Z</time></trkpt><trkpt lat="43.1815378" lon="10.5669195"><ele>13.0</ele><time>2026-04-06T08:48:22.337Z</time></trkpt><trkpt lat="43.181411" lon="10.5669373"><ele>13.0</ele><time>2026-04-06T08:48:23.333Z</time></trkpt><trkpt lat="43.1812845" lon="10.5669522"><ele>13.0</ele><time>2026-04-06T08:48:24.337Z</time></trkpt><trkpt lat="43.1811585" lon="10.5669671"><ele>13.0</ele><time>2026-04-06T08:48:25.334Z</time></trkpt><trkpt lat="43.1810359" lon="10.566983"><ele>13.0</ele><time>2026-04-06T08:48:26.337Z</time></trkpt><trkpt lat="43.1809147" lon="10.5670001"><ele>13.0</ele><time>2026-04-06T08:48:27.334Z</time></trkpt><trkpt lat="43.1807936" lon="10.5670188"><ele>13.0</ele><time>2026-04-06T08:48:28.336Z</time></trkpt><trkpt lat="43.1806753" lon="10.5670374"><ele>13.0</ele><time>2026-04-06T08:48:29.34Z</time></trkpt><trkpt lat="43.18056" lon="10.5670547"><ele>13.0</ele><time>2026-04-06T08:48:30.337Z</time></trkpt><trkpt lat="43.1804448" lon="10.5670682"><ele>13.0</ele><time>2026-04-06T08:48:31.338Z</time></trkpt><trkpt lat="43.1803293" lon="10.5670825"><ele>13.0</ele><time>2026-04-06T08:48:32.337Z</time></trkpt><trkpt lat="43.1802179" lon="10.5670949"><ele>13.0</ele><time>2026-04-06T08:48:33.338Z</time></trkpt><trkpt lat="43.1801064" lon="10.5671082"><ele>13.0</ele><time>2026-04-06T08:48:34.337Z</time></trkpt><trkpt lat="43.1799946" lon="10.5671223"><ele>13.0</ele><time>2026-04-06T08:48:35.333Z</time></trkpt><trkpt lat="43.1798838" lon="10.5671324"><ele>13.0</ele><time>2026-04-06T08:48:36.335Z</time></trkpt><trkpt lat="43.1797729" lon="10.5671428"><ele>13.0</ele><time>2026-04-06T08:48:37.335Z</time></trkpt><trkpt lat="43.179662" lon="10.5671558"><ele>14.0</ele><time>2026-04-06T08:48:38.336Z</time></trkpt><trkpt lat="43.1795539" lon="10.5671706"><ele>15.0</ele><time>2026-04-06T08:48:39.336Z</time></trkpt><trkpt lat="43.1794441" lon="10.5671857"><ele>16.0</ele><time>2026-04-06T08:48:40.337Z</time></trkpt><trkpt lat="43.1793324" lon="10.5672036"><ele>17.0</ele><time>2026-04-06T08:48:41.339Z</time></trkpt><trkpt lat="43.1792196" lon="10.5672209"><ele>18.0</ele><time>2026-04-06T08:48:42.339Z</time></trkpt><trkpt lat="43.1791083" lon="10.5672399"><ele>17.6</ele><time>2026-04-06T08:48:43.338Z</time></trkpt><trkpt lat="43.1789977" lon="10.5672626"><ele>17.200000000000003</ele><time>2026-04-06T08:48:44.337Z</time></trkpt><trkpt lat="43.1788876" lon="10.5672834"><ele>16.8</ele><time>2026-04-06T08:48:45.337Z</time></trkpt><trkpt lat="43.1787776" lon="10.5673001"><ele>16.400000000000002</ele><time>2026-04-06T08:48:46.336Z</time></trkpt><trkpt lat="43.1786694" lon="10.5673139"><ele>16.0</ele><time>2026-04-06T08:48:47.334Z</time></trkpt><trkpt lat="43.1785659" lon="10.5673249"><ele>16.0</ele><time>2026-04-06T08:48:48.335Z</time></trkpt><trkpt lat="43.1784646" lon="10.5673346"><ele>16.0</ele><time>2026-04-06T08:48:49.337Z</time></trkpt><trkpt lat="43.1783706" lon="10.5673389"><ele>16.0</ele><time>2026-04-06T08:48:50.338Z</time></trkpt><trkpt lat="43.1782794" lon="10.5673452"><ele>16.0</ele><time>2026-04-06T08:48:51.338Z</time></trkpt><trkpt lat="43.1781867" lon="10.5673483"><ele>16.0</ele><time>2026-04-06T08:48:52.338Z</time></trkpt><trkpt lat="43.1780883" lon="10.567355"><ele>16.400000000000002</ele><time>2026-04-06T08:48:53.338Z</time></trkpt><trkpt lat="43.1779867" lon="10.5673633"><ele>16.8</ele><time>2026-04-06T08:48:54.337Z</time></trkpt><trkpt lat="43.1778833" lon="10.5673733"><ele>17.200000000000003</ele><time>2026-04-06T08:48:55.339Z</time></trkpt><trkpt lat="43.17778" lon="10.5673783"><ele>17.6</ele><time>2026-04-06T08:48:56.336Z</time></trkpt><trkpt lat="43.177675" lon="10.5673817"><ele>18.0</ele><time>2026-04-06T08:48:57.341Z</time></trkpt><trkpt lat="43.1775733" lon="10.567385"><ele>18.0</ele><time>2026-04-06T08:48:58.337Z</time></trkpt><trkpt lat="43.1774667" lon="10.56738"><ele>18.0</ele><time>2026-04-06T08:48:59.338Z</time></trkpt><trkpt lat="43.1773583" lon="10.56737"><ele>18.0</ele><time>2026-04-06T08:49:00.341Z</time></trkpt><trkpt lat="43.17725" lon="10.5673583"><ele>18.0</ele><time>2026-04-06T08:49:01.34Z</time></trkpt><trkpt lat="43.1771417" lon="10.5673383"><ele>18.0</ele><time>2026-04-06T08:49:02.336Z</time></trkpt><trkpt lat="43.1770333" lon="10.567315"><ele>18.2</ele><time>2026-04-06T08:49:03.335Z</time></trkpt><trkpt lat="43.1769267" lon="10.56729"><ele>18.4</ele><time>2026-04-06T08:49:04.334Z</time></trkpt><trkpt lat="43.17682" lon="10.56726"><ele>18.599999999999998</ele><time>2026-04-06T08:49:05.335Z</time></trkpt><trkpt lat="43.1767183" lon="10.5672217"><ele>18.8</ele><time>2026-04-06T08:49:06.334Z</time></trkpt><trkpt lat="43.1766117" lon="10.567185"><ele>19.0</ele><time>2026-04-06T08:49:07.334Z</time></trkpt><trkpt lat="43.1765033" lon="10.5671517"><ele>19.0</ele><time>2026-04-06T08:49:08.337Z</time></trkpt><trkpt lat="43.176395" lon="10.567115"><ele>19.0</ele><time>2026-04-06T08:49:09.335Z</time></trkpt><trkpt lat="43.1762867" lon="10.5670783"><ele>19.0</ele><time>2026-04-06T08:49:10.335Z</time></trkpt><trkpt lat="43.1761783" lon="10.56704"><ele>19.0</ele><time>2026-04-06T08:49:11.334Z</time></trkpt><trkpt lat="43.1760717" lon="10.5670033"><ele>19.0</ele><time>2026-04-06T08:49:12.347Z</time></trkpt><trkpt lat="43.1759667" lon="10.5669667"><ele>19.0</ele><time>2026-04-06T08:49:13.342Z</time></trkpt><trkpt lat="43.1758667" lon="10.5669333"><ele>19.0</ele><time>2026-04-06T08:49:14.341Z</time></trkpt><trkpt lat="43.1757717" lon="10.5669017"><ele>19.0</ele><time>2026-04-06T08:49:15.339Z</time></trkpt><trkpt lat="43.1756867" lon="10.5668683"><ele>19.0</ele><time>2026-04-06T08:49:16.338Z</time></trkpt><trkpt lat="43.17561" lon="10.5668383"><ele>19.0</ele><time>2026-04-06T08:49:17.336Z</time></trkpt><trkpt lat="43.1755417" lon="10.566815"><ele>19.0</ele><time>2026-04-06T08:49:18.343Z</time></trkpt><trkpt lat="43.17543" lon="10.5667817"><ele>19.0</ele><time>2026-04-06T08:49:20.342Z</time></trkpt><trkpt lat="43.175335" lon="10.566755"><ele>19.0</ele><time>2026-04-06T08:49:22.338Z</time></trkpt><trkpt lat="43.1752533" lon="10.566705"><ele>19.0</ele><time>2026-04-06T08:49:24.342Z</time></trkpt><trkpt lat="43.175155" lon="10.5666633"><ele>19.0</ele><time>2026-04-06T08:49:26.335Z</time></trkpt><trkpt lat="43.175045" lon="10.5666333"><ele>19.0</ele><time>2026-04-06T08:49:28.339Z</time></trkpt><trkpt lat="43.1749833" lon="10.566615"><ele>19.0</ele><time>2026-04-06T08:49:29.337Z</time></trkpt><trkpt lat="43.17492" lon="10.5665917"><ele>19.0</ele><time>2026-04-06T08:49:30.337Z</time></trkpt><trkpt lat="43.1748567" lon="10.5665667"><ele>19.0</ele><time>2026-04-06T08:49:31.337Z</time></trkpt><trkpt lat="43.1747933" lon="10.5665417"><ele>19.0</ele><time>2026-04-06T08:49:32.34Z</time></trkpt><trkpt lat="43.17473" lon="10.5665183"><ele>19.0</ele><time>2026-04-06T08:49:33.339Z</time></trkpt><trkpt lat="43.1746633" lon="10.566495"><ele>19.0</ele><time>2026-04-06T08:49:34.338Z</time></trkpt><trkpt lat="43.1745917" lon="10.56647"><ele>19.0</ele><time>2026-04-06T08:49:35.337Z</time></trkpt><trkpt lat="43.17452" lon="10.5664467"><ele>18.833333333333332</ele><time>2026-04-06T08:49:36.342Z</time></trkpt><trkpt lat="43.1744433" lon="10.5664217"><ele>18.666666666666664</ele><time>2026-04-06T08:49:37.338Z</time></trkpt><trkpt lat="43.1743683" lon="10.5663933"><ele>18.5</ele><time>2026-04-06T08:49:38.343Z</time></trkpt><trkpt lat="43.1742917" lon="10.5663633"><ele>18.333333333333332</ele><time>2026-04-06T08:49:39.338Z</time></trkpt><trkpt lat="43.174215" lon="10.566335"><ele>18.166666666666668</ele><time>2026-04-06T08:49:40.336Z</time></trkpt><trkpt lat="43.1741383" lon="10.566305"><ele>18.0</ele><time>2026-04-06T08:49:41.335Z</time></trkpt><trkpt lat="43.1740633" lon="10.566275"><ele>18.166666666666668</ele><time>2026-04-06T08:49:42.336Z</time></trkpt><trkpt lat="43.173985" lon="10.566245"><ele>18.333333333333332</ele><time>2026-04-06T08:49:43.34Z</time></trkpt><trkpt lat="43.1739067" lon="10.5662167"><ele>18.5</ele><time>2026-04-06T08:49:44.34Z</time></trkpt><trkpt lat="43.17383" lon="10.5661883"><ele>18.666666666666664</ele><time>2026-04-06T08:49:45.342Z</time></trkpt><trkpt lat="43.1737483" lon="10.56616"><ele>18.833333333333332</ele><time>2026-04-06T08:49:46.346Z</time></trkpt><trkpt lat="43.1736667" lon="10.5661317"><ele>19.0</ele><time>2026-04-06T08:49:47.337Z</time></trkpt><trkpt lat="43.1735867" lon="10.5661033"><ele>19.0</ele><time>2026-04-06T08:49:48.338Z</time></trkpt><trkpt lat="43.1735067" lon="10.5660783"><ele>19.0</ele><time>2026-04-06T08:49:49.338Z</time></trkpt><trkpt lat="43.1734233" lon="10.56605"><ele>19.0</ele><time>2026-04-06T08:49:50.338Z</time></trkpt><trkpt lat="43.1733383" lon="10.56602"><ele>19.0</ele><time>2026-04-06T08:49:51.338Z</time></trkpt><trkpt lat="43.1732567" lon="10.5659917"><ele>19.0</ele><time>2026-04-06T08:49:52.335Z</time></trkpt><trkpt lat="43.1731783" lon="10.5659633"><ele>19.0</ele><time>2026-04-06T08:49:53.34Z</time></trkpt><trkpt lat="43.173105" lon="10.5659367"><ele>19.2</ele><time>2026-04-06T08:49:54.338Z</time></trkpt><trkpt lat="43.1730283" lon="10.56591"><ele>19.4</ele><time>2026-04-06T08:49:55.335Z</time></trkpt><trkpt lat="43.17295" lon="10.5658833"><ele>19.6</ele><time>2026-04-06T08:49:56.339Z</time></trkpt><trkpt lat="43.17287" lon="10.5658567"><ele>19.8</ele><time>2026-04-06T08:49:57.336Z</time></trkpt><trkpt lat="43.1727883" lon="10.5658267"><ele>20.0</ele><time>2026-04-06T08:49:58.339Z</time></trkpt><trkpt lat="43.1726183" lon="10.5657717"><ele>20.0</ele><time>2026-04-06T08:50:00.339Z</time></trkpt><trkpt lat="43.1725317" lon="10.5657383"><ele>20.0</ele><time>2026-04-06T08:50:01.337Z</time></trkpt><trkpt lat="43.1724417" lon="10.5657067"><ele>20.0</ele><time>2026-04-06T08:50:02.338Z</time></trkpt><trkpt lat="43.17235" lon="10.5656733"><ele>20.0</ele><time>2026-04-06T08:50:03.339Z</time></trkpt><trkpt lat="43.17226" lon="10.5656383"><ele>20.0</ele><time>2026-04-06T08:50:04.339Z</time></trkpt><trkpt lat="43.1721717" lon="10.5656017"><ele>19.8</ele><time>2026-04-06T08:50:05.336Z</time></trkpt><trkpt lat="43.17208" lon="10.5655717"><ele>19.6</ele><time>2026-04-06T08:50:06.336Z</time></trkpt><trkpt lat="43.1719883" lon="10.5655417"><ele>19.4</ele><time>2026-04-06T08:50:07.338Z</time></trkpt><trkpt lat="43.1719" lon="10.5655133"><ele>19.2</ele><time>2026-04-06T08:50:08.338Z</time></trkpt><trkpt lat="43.1718133" lon="10.56548"><ele>19.0</ele><time>2026-04-06T08:50:09.338Z</time></trkpt><trkpt lat="43.1717233" lon="10.5654417"><ele>19.0</ele><time>2026-04-06T08:50:10.338Z</time></trkpt><trkpt lat="43.1716317" lon="10.56541"><ele>19.0</ele><time>2026-04-06T08:50:11.336Z</time></trkpt><trkpt lat="43.17154" lon="10.565375"><ele>19.0</ele><time>2026-04-06T08:50:12.338Z</time></trkpt><trkpt lat="43.1714467" lon="10.5653383"><ele>19.0</ele><time>2026-04-06T08:50:13.338Z</time></trkpt><trkpt lat="43.1713517" lon="10.5653083"><ele>19.0</ele><time>2026-04-06T08:50:14.339Z</time></trkpt><trkpt lat="43.1712583" lon="10.565275"><ele>19.2</ele><time>2026-04-06T08:50:15.342Z</time></trkpt><trkpt lat="43.171165" lon="10.56524"><ele>19.4</ele><time>2026-04-06T08:50:16.338Z</time></trkpt><trkpt lat="43.17107" lon="10.5652067"><ele>19.6</ele><time>2026-04-06T08:50:17.339Z</time></trkpt><trkpt lat="43.1709717" lon="10.5651733"><ele>19.8</ele><time>2026-04-06T08:50:18.34Z</time></trkpt><trkpt lat="43.170875" lon="10.5651417"><ele>20.0</ele><time>2026-04-06T08:50:19.337Z</time></trkpt><trkpt lat="43.17078" lon="10.5651083"><ele>20.8</ele><time>2026-04-06T08:50:20.336Z</time></trkpt><trkpt lat="43.1706817" lon="10.565075"><ele>21.6</ele><time>2026-04-06T08:50:21.344Z</time></trkpt><trkpt lat="43.170585" lon="10.565045"><ele>22.4</ele><time>2026-04-06T08:50:22.338Z</time></trkpt><trkpt lat="43.1704867" lon="10.56502"><ele>23.2</ele><time>2026-04-06T08:50:23.338Z</time></trkpt><trkpt lat="43.1703867" lon="10.564995"><ele>24.0</ele><time>2026-04-06T08:50:24.338Z</time></trkpt><trkpt lat="43.17029" lon="10.5649667"><ele>24.0</ele><time>2026-04-06T08:50:25.336Z</time></trkpt><trkpt lat="43.170195" lon="10.5649383"><ele>24.0</ele><time>2026-04-06T08:50:26.34Z</time></trkpt><trkpt lat="43.1701033" lon="10.5649167"><ele>24.0</ele><time>2026-04-06T08:50:27.338Z</time></trkpt><trkpt lat="43.1700133" lon="10.564895"><ele>24.0</ele><time>2026-04-06T08:50:28.338Z</time></trkpt><trkpt lat="43.1699233" lon="10.5648783"><ele>24.0</ele><time>2026-04-06T08:50:29.339Z</time></trkpt><trkpt lat="43.1698333" lon="10.5648583"><ele>23.666666666666668</ele><time>2026-04-06T08:50:30.337Z</time></trkpt><trkpt lat="43.169745" lon="10.5648367"><ele>23.333333333333332</ele><time>2026-04-06T08:50:31.338Z</time></trkpt><trkpt lat="43.169655" lon="10.564815"><ele>23.0</ele><time>2026-04-06T08:50:32.337Z</time></trkpt><trkpt lat="43.1695667" lon="10.5647933"><ele>22.666666666666664</ele><time>2026-04-06T08:50:33.338Z</time></trkpt><trkpt lat="43.1694783" lon="10.5647817"><ele>22.333333333333332</ele><time>2026-04-06T08:50:34.336Z</time></trkpt><trkpt lat="43.16939" lon="10.5647683"><ele>22.0</ele><time>2026-04-06T08:50:35.336Z</time></trkpt><trkpt lat="43.1693033" lon="10.5647483"><ele>22.0</ele><time>2026-04-06T08:50:36.337Z</time></trkpt><trkpt lat="43.1692183" lon="10.5647283"><ele>22.0</ele><time>2026-04-06T08:50:37.337Z</time></trkpt><trkpt lat="43.169135" lon="10.5647083"><ele>22.0</ele><time>2026-04-06T08:50:38.339Z</time></trkpt><trkpt lat="43.1690533" lon="10.56469"><ele>22.0</ele><time>2026-04-06T08:50:39.335Z</time></trkpt><trkpt lat="43.1689717" lon="10.5646683"><ele>22.0</ele><time>2026-04-06T08:50:40.339Z</time></trkpt><trkpt lat="43.1688917" lon="10.56465"><ele>22.0</ele><time>2026-04-06T08:50:41.337Z</time></trkpt><trkpt lat="43.1688083" lon="10.5646317"><ele>21.833333333333332</ele><time>2026-04-06T08:50:42.34Z</time></trkpt><trkpt lat="43.168725" lon="10.56461"><ele>21.666666666666664</ele><time>2026-04-06T08:50:43.337Z</time></trkpt><trkpt lat="43.1686383" lon="10.5645883"><ele>21.5</ele><time>2026-04-06T08:50:44.336Z</time></trkpt><trkpt lat="43.16855" lon="10.56457"><ele>21.333333333333332</ele><time>2026-04-06T08:50:45.339Z</time></trkpt><trkpt lat="43.1684617" lon="10.5645483"><ele>21.166666666666668</ele><time>2026-04-06T08:50:46.337Z</time></trkpt><trkpt lat="43.16837" lon="10.564525"><ele>21.0</ele><time>2026-04-06T08:50:47.336Z</time></trkpt><trkpt lat="43.1682767" lon="10.5645033"><ele>21.0</ele><time>2026-04-06T08:50:48.336Z</time></trkpt><trkpt lat="43.1681833" lon="10.56448"><ele>21.0</ele><time>2026-04-06T08:50:49.338Z</time></trkpt><trkpt lat="43.1680883" lon="10.56446"><ele>21.0</ele><time>2026-04-06T08:50:50.342Z</time></trkpt><trkpt lat="43.1679933" lon="10.5644383"><ele>21.0</ele><time>2026-04-06T08:50:51.337Z</time></trkpt><trkpt lat="43.167895" lon="10.5644167"><ele>21.0</ele><time>2026-04-06T08:50:52.335Z</time></trkpt><trkpt lat="43.1677967" lon="10.5643933"><ele>21.0</ele><time>2026-04-06T08:50:53.334Z</time></trkpt><trkpt lat="43.1676967" lon="10.5643717"><ele>21.0</ele><time>2026-04-06T08:50:54.341Z</time></trkpt><trkpt lat="43.1675933" lon="10.5643483"><ele>21.0</ele><time>2026-04-06T08:50:55.339Z</time></trkpt><trkpt lat="43.16749" lon="10.564325"><ele>21.0</ele><time>2026-04-06T08:50:56.339Z</time></trkpt><trkpt lat="43.1673867" lon="10.5643"><ele>21.0</ele><time>2026-04-06T08:50:57.338Z</time></trkpt><trkpt lat="43.1672817" lon="10.5642717"><ele>21.200000000000003</ele><time>2026-04-06T08:50:58.336Z</time></trkpt><trkpt lat="43.1671767" lon="10.564245"><ele>21.400000000000002</ele><time>2026-04-06T08:50:59.337Z</time></trkpt><trkpt lat="43.1670717" lon="10.5642183"><ele>21.6</ele><time>2026-04-06T08:51:00.338Z</time></trkpt><trkpt lat="43.1669633" lon="10.5641967"><ele>21.8</ele><time>2026-04-06T08:51:01.34Z</time></trkpt><trkpt lat="43.1668567" lon="10.5641767"><ele>22.0</ele><time>2026-04-06T08:51:02.338Z</time></trkpt><trkpt lat="43.16675" lon="10.5641517"><ele>22.0</ele><time>2026-04-06T08:51:03.336Z</time></trkpt><trkpt lat="43.1666433" lon="10.5641333"><ele>22.0</ele><time>2026-04-06T08:51:04.337Z</time></trkpt><trkpt lat="43.1665367" lon="10.5641083"><ele>22.0</ele><time>2026-04-06T08:51:05.335Z</time></trkpt><trkpt lat="43.1664317" lon="10.5640817"><ele>22.0</ele><time>2026-04-06T08:51:06.335Z</time></trkpt><trkpt lat="43.1663267" lon="10.5640567"><ele>22.0</ele><time>2026-04-06T08:51:07.337Z</time></trkpt><trkpt lat="43.16622" lon="10.5640283"><ele>22.200000000000003</ele><time>2026-04-06T08:51:08.337Z</time></trkpt><trkpt lat="43.1661133" lon="10.5640067"><ele>22.4</ele><time>2026-04-06T08:51:09.335Z</time></trkpt><trkpt lat="43.166005" lon="10.563985"><ele>22.6</ele><time>2026-04-06T08:51:10.338Z</time></trkpt><trkpt lat="43.1658967" lon="10.5639583"><ele>22.799999999999997</ele><time>2026-04-06T08:51:11.34Z</time></trkpt><trkpt lat="43.1657917" lon="10.563935"><ele>23.0</ele><time>2026-04-06T08:51:12.338Z</time></trkpt><trkpt lat="43.1656867" lon="10.56391"><ele>23.0</ele><time>2026-04-06T08:51:13.336Z</time></trkpt><trkpt lat="43.1655817" lon="10.5638917"><ele>23.0</ele><time>2026-04-06T08:51:14.337Z</time></trkpt><trkpt lat="43.165475" lon="10.5638683"><ele>23.0</ele><time>2026-04-06T08:51:15.337Z</time></trkpt><trkpt lat="43.1653733" lon="10.5638417"><ele>23.0</ele><time>2026-04-06T08:51:16.336Z</time></trkpt><trkpt lat="43.1652733" lon="10.5638217"><ele>23.0</ele><time>2026-04-06T08:51:17.34Z</time></trkpt><trkpt lat="43.165175" lon="10.5638"><ele>23.0</ele><time>2026-04-06T08:51:18.339Z</time></trkpt><trkpt lat="43.16508" lon="10.563775"><ele>23.0</ele><time>2026-04-06T08:51:19.34Z</time></trkpt><trkpt lat="43.1649833" lon="10.5637533"><ele>23.0</ele><time>2026-04-06T08:51:20.339Z</time></trkpt><trkpt lat="43.164885" lon="10.5637333"><ele>23.0</ele><time>2026-04-06T08:51:21.346Z</time></trkpt><trkpt lat="43.1647833" lon="10.5637133"><ele>23.0</ele><time>2026-04-06T08:51:22.337Z</time></trkpt><trkpt lat="43.1646783" lon="10.5636917"><ele>23.599999999999998</ele><time>2026-04-06T08:51:23.339Z</time></trkpt><trkpt lat="43.1645717" lon="10.5636717"><ele>24.2</ele><time>2026-04-06T08:51:24.338Z</time></trkpt><trkpt lat="43.164465" lon="10.5636483"><ele>24.8</ele><time>2026-04-06T08:51:25.339Z</time></trkpt><trkpt lat="43.164355" lon="10.563625"><ele>25.4</ele><time>2026-04-06T08:51:26.341Z</time></trkpt><trkpt lat="43.1642467" lon="10.5635983"><ele>26.0</ele><time>2026-04-06T08:51:27.337Z</time></trkpt><trkpt lat="43.1641383" lon="10.563575"><ele>26.0</ele><time>2026-04-06T08:51:28.337Z</time></trkpt><trkpt lat="43.164035" lon="10.5635533"><ele>26.0</ele><time>2026-04-06T08:51:29.341Z</time></trkpt><trkpt lat="43.16393" lon="10.5635333"><ele>26.0</ele><time>2026-04-06T08:51:30.338Z</time></trkpt><trkpt lat="43.163825" lon="10.5635083"><ele>26.0</ele><time>2026-04-06T08:51:31.339Z</time></trkpt><trkpt lat="43.1637167" lon="10.5634817"><ele>26.0</ele><time>2026-04-06T08:51:32.338Z</time></trkpt><trkpt lat="43.16361" lon="10.5634533"><ele>25.8</ele><time>2026-04-06T08:51:33.336Z</time></trkpt><trkpt lat="43.1635017" lon="10.56343"><ele>25.6</ele><time>2026-04-06T08:51:34.338Z</time></trkpt><trkpt lat="43.1633917" lon="10.563405"><ele>25.4</ele><time>2026-04-06T08:51:35.337Z</time></trkpt><trkpt lat="43.1632817" lon="10.563375"><ele>25.2</ele><time>2026-04-06T08:51:36.34Z</time></trkpt><trkpt lat="43.1631667" lon="10.5633567"><ele>25.0</ele><time>2026-04-06T08:51:37.337Z</time></trkpt><trkpt lat="43.1630567" lon="10.56333"><ele>24.25</ele><time>2026-04-06T08:51:38.339Z</time></trkpt><trkpt lat="43.162945" lon="10.563305"><ele>23.5</ele><time>2026-04-06T08:51:39.339Z</time></trkpt><trkpt lat="43.1628317" lon="10.5632833"><ele>22.75</ele><time>2026-04-06T08:51:40.338Z</time></trkpt><trkpt lat="43.16272" lon="10.5632583"><ele>22.0</ele><time>2026-04-06T08:51:41.336Z</time></trkpt><trkpt lat="43.1626083" lon="10.563235"><ele>22.0</ele><time>2026-04-06T08:51:42.338Z</time></trkpt><trkpt lat="43.1625" lon="10.5632133"><ele>22.0</ele><time>2026-04-06T08:51:43.341Z</time></trkpt><trkpt lat="43.1623917" lon="10.56319"><ele>22.0</ele><time>2026-04-06T08:51:44.339Z</time></trkpt><trkpt lat="43.1622817" lon="10.5631683"><ele>22.0</ele><time>2026-04-06T08:51:45.34Z</time></trkpt><trkpt lat="43.1621733" lon="10.563145"><ele>22.0</ele><time>2026-04-06T08:51:46.339Z</time></trkpt><trkpt lat="43.1620617" lon="10.5631167"><ele>21.5</ele><time>2026-04-06T08:51:47.34Z</time></trkpt><trkpt lat="43.1619483" lon="10.56309"><ele>21.0</ele><time>2026-04-06T08:51:48.338Z</time></trkpt><trkpt lat="43.161835" lon="10.563065"><ele>20.5</ele><time>2026-04-06T08:51:49.337Z</time></trkpt><trkpt lat="43.16172" lon="10.5630383"><ele>20.0</ele><time>2026-04-06T08:51:50.337Z</time></trkpt><trkpt lat="43.1616033" lon="10.5630117"><ele>19.25</ele><time>2026-04-06T08:51:51.34Z</time></trkpt><trkpt lat="43.1614883" lon="10.5629867"><ele>18.5</ele><time>2026-04-06T08:51:52.338Z</time></trkpt><trkpt lat="43.16137" lon="10.56296"><ele>17.75</ele><time>2026-04-06T08:51:53.338Z</time></trkpt><trkpt lat="43.1612517" lon="10.562935"><ele>17.0</ele><time>2026-04-06T08:51:54.338Z</time></trkpt><trkpt lat="43.161135" lon="10.5629083"><ele>17.0</ele><time>2026-04-06T08:51:55.338Z</time></trkpt><trkpt lat="43.1610167" lon="10.5628833"><ele>17.0</ele><time>2026-04-06T08:51:56.339Z</time></trkpt><trkpt lat="43.1609" lon="10.562855"><ele>17.0</ele><time>2026-04-06T08:51:57.342Z</time></trkpt><trkpt lat="43.1607817" lon="10.5628267"><ele>17.0</ele><time>2026-04-06T08:51:58.338Z</time></trkpt><trkpt lat="43.1606667" lon="10.5627983"><ele>16.75</ele><time>2026-04-06T08:51:59.336Z</time></trkpt><trkpt lat="43.160555" lon="10.5627717"><ele>16.5</ele><time>2026-04-06T08:52:00.346Z</time></trkpt><trkpt lat="43.1604433" lon="10.562745"><ele>16.25</ele><time>2026-04-06T08:52:01.346Z</time></trkpt><trkpt lat="43.16033" lon="10.56272"><ele>16.0</ele><time>2026-04-06T08:52:02.343Z</time></trkpt><trkpt lat="43.160215" lon="10.56269"><ele>16.0</ele><time>2026-04-06T08:52:03.337Z</time></trkpt><trkpt lat="43.1600983" lon="10.5626583"><ele>16.0</ele><time>2026-04-06T08:52:04.341Z</time></trkpt><trkpt lat="43.1599817" lon="10.5626267"><ele>16.0</ele><time>2026-04-06T08:52:05.338Z</time></trkpt><trkpt lat="43.1598667" lon="10.56259"><ele>16.0</ele><time>2026-04-06T08:52:06.341Z</time></trkpt><trkpt lat="43.1597533" lon="10.56255"><ele>16.333333333333332</ele><time>2026-04-06T08:52:07.338Z</time></trkpt><trkpt lat="43.1595317" lon="10.5624583"><ele>16.666666666666668</ele><time>2026-04-06T08:52:09.337Z</time></trkpt><trkpt lat="43.1594183" lon="10.5624117"><ele>17.0</ele><time>2026-04-06T08:52:10.336Z</time></trkpt><trkpt lat="43.159305" lon="10.5623617"><ele>17.0</ele><time>2026-04-06T08:52:11.338Z</time></trkpt><trkpt lat="43.159195" lon="10.5623083"><ele>17.0</ele><time>2026-04-06T08:52:12.339Z</time></trkpt><trkpt lat="43.159085" lon="10.5622533"><ele>17.0</ele><time>2026-04-06T08:52:13.339Z</time></trkpt><trkpt lat="43.158975" lon="10.5621983"><ele>17.0</ele><time>2026-04-06T08:52:14.339Z</time></trkpt><trkpt lat="43.1588667" lon="10.5621383"><ele>17.0</ele><time>2026-04-06T08:52:15.338Z</time></trkpt><trkpt lat="43.1587533" lon="10.56208"><ele>17.0</ele><time>2026-04-06T08:52:16.337Z</time></trkpt><trkpt lat="43.15864" lon="10.5620182"><ele>17.0</ele><time>2026-04-06T08:52:17.338Z</time></trkpt><trkpt lat="43.1585263" lon="10.5619547"><ele>17.0</ele><time>2026-04-06T08:52:18.337Z</time></trkpt><trkpt lat="43.158417" lon="10.5618929"><ele>17.0</ele><time>2026-04-06T08:52:19.34Z</time></trkpt><trkpt lat="43.158311" lon="10.5618335"><ele>17.0</ele><time>2026-04-06T08:52:20.34Z</time></trkpt><trkpt lat="43.1582089" lon="10.5617783"><ele>17.0</ele><time>2026-04-06T08:52:21.339Z</time></trkpt><trkpt lat="43.1581064" lon="10.5617218"><ele>17.0</ele><time>2026-04-06T08:52:22.337Z</time></trkpt><trkpt lat="43.1580018" lon="10.5616656"><ele>17.0</ele><time>2026-04-06T08:52:23.34Z</time></trkpt><trkpt lat="43.157894" lon="10.5616076"><ele>17.0</ele><time>2026-04-06T08:52:24.339Z</time></trkpt><trkpt lat="43.1577839" lon="10.5615478"><ele>17.0</ele><time>2026-04-06T08:52:25.337Z</time></trkpt><trkpt lat="43.1576723" lon="10.5614877"><ele>17.0</ele><time>2026-04-06T08:52:26.339Z</time></trkpt><trkpt lat="43.1575587" lon="10.5614272"><ele>17.0</ele><time>2026-04-06T08:52:27.34Z</time></trkpt><trkpt lat="43.1574423" lon="10.5613655"><ele>17.5</ele><time>2026-04-06T08:52:28.337Z</time></trkpt><trkpt lat="43.1573237" lon="10.5613023"><ele>18.0</ele><time>2026-04-06T08:52:29.338Z</time></trkpt><trkpt lat="43.1572035" lon="10.5612374"><ele>18.5</ele><time>2026-04-06T08:52:30.335Z</time></trkpt><trkpt lat="43.1570805" lon="10.5611713"><ele>19.0</ele><time>2026-04-06T08:52:31.338Z</time></trkpt><trkpt lat="43.1569567" lon="10.5611066"><ele>19.0</ele><time>2026-04-06T08:52:32.339Z</time></trkpt><trkpt lat="43.1568316" lon="10.5610432"><ele>19.0</ele><time>2026-04-06T08:52:33.338Z</time></trkpt><trkpt lat="43.1567069" lon="10.5609772"><ele>19.0</ele><time>2026-04-06T08:52:34.339Z</time></trkpt><trkpt lat="43.156586" lon="10.5609109"><ele>19.0</ele><time>2026-04-06T08:52:35.341Z</time></trkpt><trkpt lat="43.1564675" lon="10.5608457"><ele>18.75</ele><time>2026-04-06T08:52:36.34Z</time></trkpt><trkpt lat="43.1563507" lon="10.560779"><ele>18.5</ele><time>2026-04-06T08:52:37.342Z</time></trkpt><trkpt lat="43.1562328" lon="10.5607123"><ele>18.25</ele><time>2026-04-06T08:52:38.343Z</time></trkpt><trkpt lat="43.1561146" lon="10.56065"><ele>18.0</ele><time>2026-04-06T08:52:39.337Z</time></trkpt><trkpt lat="43.1559961" lon="10.560587"><ele>18.0</ele><time>2026-04-06T08:52:40.338Z</time></trkpt><trkpt lat="43.155879" lon="10.5605234"><ele>18.0</ele><time>2026-04-06T08:52:41.338Z</time></trkpt><trkpt lat="43.1557625" lon="10.5604617"><ele>18.0</ele><time>2026-04-06T08:52:42.337Z</time></trkpt><trkpt lat="43.1556475" lon="10.5604001"><ele>18.0</ele><time>2026-04-06T08:52:43.338Z</time></trkpt><trkpt lat="43.1555329" lon="10.5603376"><ele>18.0</ele><time>2026-04-06T08:52:44.336Z</time></trkpt><trkpt lat="43.155419" lon="10.5602766"><ele>18.0</ele><time>2026-04-06T08:52:45.338Z</time></trkpt><trkpt lat="43.1553062" lon="10.5602156"><ele>18.0</ele><time>2026-04-06T08:52:46.34Z</time></trkpt><trkpt lat="43.1551944" lon="10.5601529"><ele>18.0</ele><time>2026-04-06T08:52:47.338Z</time></trkpt><trkpt lat="43.1550901" lon="10.5600946"><ele>18.0</ele><time>2026-04-06T08:52:48.339Z</time></trkpt><trkpt lat="43.1549887" lon="10.560043"><ele>18.0</ele><time>2026-04-06T08:52:49.341Z</time></trkpt><trkpt lat="43.1548899" lon="10.5599922"><ele>18.0</ele><time>2026-04-06T08:52:50.34Z</time></trkpt><trkpt lat="43.1547929" lon="10.5599433"><ele>18.0</ele><time>2026-04-06T08:52:51.339Z</time></trkpt><trkpt lat="43.1547004" lon="10.5598926"><ele>18.0</ele><time>2026-04-06T08:52:52.338Z</time></trkpt><trkpt lat="43.1546061" lon="10.5598422"><ele>17.4</ele><time>2026-04-06T08:52:53.337Z</time></trkpt><trkpt lat="43.1545099" lon="10.5597921"><ele>16.8</ele><time>2026-04-06T08:52:54.337Z</time></trkpt><trkpt lat="43.154413" lon="10.5597391"><ele>16.2</ele><time>2026-04-06T08:52:55.336Z</time></trkpt><trkpt lat="43.154316" lon="10.5596843"><ele>15.6</ele><time>2026-04-06T08:52:56.338Z</time></trkpt><trkpt lat="43.1542166" lon="10.5596305"><ele>15.0</ele><time>2026-04-06T08:52:57.339Z</time></trkpt><trkpt lat="43.1541179" lon="10.5595745"><ele>15.0</ele><time>2026-04-06T08:52:58.337Z</time></trkpt><trkpt lat="43.1540179" lon="10.5595161"><ele>15.0</ele><time>2026-04-06T08:52:59.339Z</time></trkpt><trkpt lat="43.1539166" lon="10.5594591"><ele>15.0</ele><time>2026-04-06T08:53:00.337Z</time></trkpt><trkpt lat="43.1538134" lon="10.5594042"><ele>15.0</ele><time>2026-04-06T08:53:01.339Z</time></trkpt><trkpt lat="43.1537101" lon="10.5593508"><ele>15.0</ele><time>2026-04-06T08:53:02.336Z</time></trkpt><trkpt lat="43.1536079" lon="10.5592976"><ele>15.0</ele><time>2026-04-06T08:53:03.337Z</time></trkpt><trkpt lat="43.1535051" lon="10.5592438"><ele>15.0</ele><time>2026-04-06T08:53:04.337Z</time></trkpt><trkpt lat="43.1534012" lon="10.5591895"><ele>15.0</ele><time>2026-04-06T08:53:05.337Z</time></trkpt><trkpt lat="43.1532964" lon="10.5591342"><ele>15.0</ele><time>2026-04-06T08:53:06.337Z</time></trkpt><trkpt lat="43.1531921" lon="10.5590767"><ele>15.0</ele><time>2026-04-06T08:53:07.34Z</time></trkpt><trkpt lat="43.1530874" lon="10.55902"><ele>15.5</ele><time>2026-04-06T08:53:08.339Z</time></trkpt><trkpt lat="43.1529823" lon="10.558962"><ele>16.0</ele><time>2026-04-06T08:53:09.339Z</time></trkpt><trkpt lat="43.1528771" lon="10.5589021"><ele>16.5</ele><time>2026-04-06T08:53:10.339Z</time></trkpt><trkpt lat="43.1527716" lon="10.5588429"><ele>17.0</ele><time>2026-04-06T08:53:11.34Z</time></trkpt><trkpt lat="43.1526675" lon="10.5587867"><ele>17.0</ele><time>2026-04-06T08:53:12.34Z</time></trkpt><trkpt lat="43.1525652" lon="10.5587309"><ele>17.0</ele><time>2026-04-06T08:53:13.337Z</time></trkpt><trkpt lat="43.1524622" lon="10.5586727"><ele>17.0</ele><time>2026-04-06T08:53:14.337Z</time></trkpt><trkpt lat="43.1523579" lon="10.5586144"><ele>17.0</ele><time>2026-04-06T08:53:15.339Z</time></trkpt><trkpt lat="43.152253" lon="10.5585563"><ele>17.0</ele><time>2026-04-06T08:53:16.338Z</time></trkpt><trkpt lat="43.1521479" lon="10.5585009"><ele>17.25</ele><time>2026-04-06T08:53:17.337Z</time></trkpt><trkpt lat="43.1520416" lon="10.5584459"><ele>17.5</ele><time>2026-04-06T08:53:18.338Z</time></trkpt><trkpt lat="43.151934" lon="10.5583916"><ele>17.75</ele><time>2026-04-06T08:53:19.338Z</time></trkpt><trkpt lat="43.1518268" lon="10.558336"><ele>18.0</ele><time>2026-04-06T08:53:20.338Z</time></trkpt><trkpt lat="43.1517198" lon="10.5582798"><ele>18.0</ele><time>2026-04-06T08:53:21.344Z</time></trkpt><trkpt lat="43.1516145" lon="10.5582204"><ele>18.0</ele><time>2026-04-06T08:53:22.338Z</time></trkpt><trkpt lat="43.1515096" lon="10.5581609"><ele>18.0</ele><time>2026-04-06T08:53:23.338Z</time></trkpt><trkpt lat="43.1514026" lon="10.5581026"><ele>18.0</ele><time>2026-04-06T08:53:24.337Z</time></trkpt><trkpt lat="43.1512954" lon="10.5580464"><ele>18.25</ele><time>2026-04-06T08:53:25.338Z</time></trkpt><trkpt lat="43.1511883" lon="10.5579902"><ele>18.5</ele><time>2026-04-06T08:53:26.338Z</time></trkpt><trkpt lat="43.1510813" lon="10.5579324"><ele>18.75</ele><time>2026-04-06T08:53:27.339Z</time></trkpt><trkpt lat="43.1509731" lon="10.5578758"><ele>19.0</ele><time>2026-04-06T08:53:28.336Z</time></trkpt><trkpt lat="43.1508625" lon="10.5578197"><ele>18.5</ele><time>2026-04-06T08:53:29.337Z</time></trkpt><trkpt lat="43.1507505" lon="10.5577643"><ele>18.0</ele><time>2026-04-06T08:53:30.346Z</time></trkpt><trkpt lat="43.1506388" lon="10.5577074"><ele>17.5</ele><time>2026-04-06T08:53:31.337Z</time></trkpt><trkpt lat="43.1505253" lon="10.5576474"><ele>17.0</ele><time>2026-04-06T08:53:32.339Z</time></trkpt><trkpt lat="43.1504117" lon="10.5575873"><ele>16.25</ele><time>2026-04-06T08:53:33.338Z</time></trkpt><trkpt lat="43.1502961" lon="10.5575259"><ele>15.5</ele><time>2026-04-06T08:53:34.338Z</time></trkpt><trkpt lat="43.1501795" lon="10.5574613"><ele>14.75</ele><time>2026-04-06T08:53:35.341Z</time></trkpt><trkpt lat="43.1500641" lon="10.5573948"><ele>14.0</ele><time>2026-04-06T08:53:36.338Z</time></trkpt><trkpt lat="43.1499488" lon="10.5573268"><ele>14.5</ele><time>2026-04-06T08:53:37.338Z</time></trkpt><trkpt lat="43.1498357" lon="10.5572573"><ele>15.0</ele><time>2026-04-06T08:53:38.339Z</time></trkpt><trkpt lat="43.1497236" lon="10.5571925"><ele>15.5</ele><time>2026-04-06T08:53:39.34Z</time></trkpt><trkpt lat="43.1496132" lon="10.5571299"><ele>16.0</ele><time>2026-04-06T08:53:40.336Z</time></trkpt><trkpt lat="43.1495034" lon="10.5570702"><ele>15.5</ele><time>2026-04-06T08:53:41.339Z</time></trkpt><trkpt lat="43.149395" lon="10.5570111"><ele>15.0</ele><time>2026-04-06T08:53:42.339Z</time></trkpt><trkpt lat="43.1492857" lon="10.5569515"><ele>14.5</ele><time>2026-04-06T08:53:43.342Z</time></trkpt><trkpt lat="43.1491731" lon="10.5568913"><ele>14.0</ele><time>2026-04-06T08:53:44.341Z</time></trkpt><trkpt lat="43.1490616" lon="10.5568309"><ele>14.0</ele><time>2026-04-06T08:53:45.339Z</time></trkpt><trkpt lat="43.1489498" lon="10.5567718"><ele>14.0</ele><time>2026-04-06T08:53:46.338Z</time></trkpt><trkpt lat="43.1488358" lon="10.5567136"><ele>14.0</ele><time>2026-04-06T08:53:47.339Z</time></trkpt><trkpt lat="43.1487222" lon="10.5566555"><ele>14.0</ele><time>2026-04-06T08:53:48.34Z</time></trkpt><trkpt lat="43.1486097" lon="10.5565945"><ele>14.0</ele><time>2026-04-06T08:53:49.341Z</time></trkpt><trkpt lat="43.148498" lon="10.5565317"><ele>14.0</ele><time>2026-04-06T08:53:50.337Z</time></trkpt><trkpt lat="43.1483863" lon="10.5564678"><ele>14.0</ele><time>2026-04-06T08:53:51.339Z</time></trkpt><trkpt lat="43.1482712" lon="10.5564099"><ele>14.0</ele><time>2026-04-06T08:53:52.341Z</time></trkpt><trkpt lat="43.1481553" lon="10.5563514"><ele>13.75</ele><time>2026-04-06T08:53:53.338Z</time></trkpt><trkpt lat="43.1480386" lon="10.5562897"><ele>13.5</ele><time>2026-04-06T08:53:54.339Z</time></trkpt><trkpt lat="43.147923" lon="10.5562257"><ele>13.25</ele><time>2026-04-06T08:53:55.339Z</time></trkpt><trkpt lat="43.1478091" lon="10.5561607"><ele>13.0</ele><time>2026-04-06T08:53:56.338Z</time></trkpt><trkpt lat="43.1476967" lon="10.5560966"><ele>13.0</ele><time>2026-04-06T08:53:57.338Z</time></trkpt><trkpt lat="43.1475837" lon="10.5560351"><ele>13.0</ele><time>2026-04-06T08:53:58.338Z</time></trkpt><trkpt lat="43.1474715" lon="10.5559764"><ele>13.0</ele><time>2026-04-06T08:53:59.338Z</time></trkpt><trkpt lat="43.1473577" lon="10.5559183"><ele>13.0</ele><time>2026-04-06T08:54:00.338Z</time></trkpt><trkpt lat="43.1472452" lon="10.5558598"><ele>13.0</ele><time>2026-04-06T08:54:01.343Z</time></trkpt><trkpt lat="43.1471351" lon="10.5558006"><ele>13.0</ele><time>2026-04-06T08:54:02.339Z</time></trkpt><trkpt lat="43.1470247" lon="10.555741"><ele>13.0</ele><time>2026-04-06T08:54:03.342Z</time></trkpt><trkpt lat="43.1469159" lon="10.5556823"><ele>13.0</ele><time>2026-04-06T08:54:04.34Z</time></trkpt><trkpt lat="43.1468076" lon="10.5556256"><ele>13.0</ele><time>2026-04-06T08:54:05.338Z</time></trkpt><trkpt lat="43.1466985" lon="10.5555702"><ele>13.0</ele><time>2026-04-06T08:54:06.337Z</time></trkpt><trkpt lat="43.1465879" lon="10.5555131"><ele>13.0</ele><time>2026-04-06T08:54:07.338Z</time></trkpt><trkpt lat="43.1464786" lon="10.5554543"><ele>13.0</ele><time>2026-04-06T08:54:08.341Z</time></trkpt><trkpt lat="43.1463705" lon="10.5553959"><ele>13.25</ele><time>2026-04-06T08:54:09.338Z</time></trkpt><trkpt lat="43.1462624" lon="10.5553372"><ele>13.5</ele><time>2026-04-06T08:54:10.337Z</time></trkpt><trkpt lat="43.1461549" lon="10.5552788"><ele>13.75</ele><time>2026-04-06T08:54:11.339Z</time></trkpt><trkpt lat="43.146046" lon="10.5552199"><ele>14.0</ele><time>2026-04-06T08:54:12.339Z</time></trkpt><trkpt lat="43.1459384" lon="10.5551616"><ele>14.0</ele><time>2026-04-06T08:54:13.337Z</time></trkpt><trkpt lat="43.1458308" lon="10.5551067"><ele>14.0</ele><time>2026-04-06T08:54:14.343Z</time></trkpt><trkpt lat="43.1457229" lon="10.5550528"><ele>14.0</ele><time>2026-04-06T08:54:15.34Z</time></trkpt><trkpt lat="43.1456146" lon="10.5549993"><ele>14.0</ele><time>2026-04-06T08:54:16.338Z</time></trkpt><trkpt lat="43.145506" lon="10.5549448"><ele>14.25</ele><time>2026-04-06T08:54:17.34Z</time></trkpt><trkpt lat="43.1453987" lon="10.554888"><ele>14.5</ele><time>2026-04-06T08:54:18.338Z</time></trkpt><trkpt lat="43.1452898" lon="10.5548285"><ele>14.75</ele><time>2026-04-06T08:54:19.336Z</time></trkpt><trkpt lat="43.145181" lon="10.5547714"><ele>15.0</ele><time>2026-04-06T08:54:20.339Z</time></trkpt><trkpt lat="43.1450727" lon="10.5547124"><ele>15.0</ele><time>2026-04-06T08:54:21.338Z</time></trkpt><trkpt lat="43.1449623" lon="10.5546511"><ele>15.0</ele><time>2026-04-06T08:54:22.338Z</time></trkpt><trkpt lat="43.1448493" lon="10.5545892"><ele>15.0</ele><time>2026-04-06T08:54:23.336Z</time></trkpt><trkpt lat="43.1447389" lon="10.554528"><ele>15.0</ele><time>2026-04-06T08:54:24.339Z</time></trkpt><trkpt lat="43.1446267" lon="10.5544679"><ele>14.5</ele><time>2026-04-06T08:54:25.34Z</time></trkpt><trkpt lat="43.1445146" lon="10.5544079"><ele>14.0</ele><time>2026-04-06T08:54:26.338Z</time></trkpt><trkpt lat="43.1444014" lon="10.5543503"><ele>13.5</ele><time>2026-04-06T08:54:27.338Z</time></trkpt><trkpt lat="43.1442889" lon="10.5542935"><ele>13.0</ele><time>2026-04-06T08:54:28.338Z</time></trkpt><trkpt lat="43.1441769" lon="10.5542382"><ele>13.0</ele><time>2026-04-06T08:54:29.34Z</time></trkpt><trkpt lat="43.1440641" lon="10.5541839"><ele>13.0</ele><time>2026-04-06T08:54:30.339Z</time></trkpt><trkpt lat="43.143951" lon="10.5541288"><ele>13.0</ele><time>2026-04-06T08:54:31.339Z</time></trkpt><trkpt lat="43.1438367" lon="10.5540726"><ele>13.0</ele><time>2026-04-06T08:54:32.338Z</time></trkpt><trkpt lat="43.1437237" lon="10.5540192"><ele>13.5</ele><time>2026-04-06T08:54:33.337Z</time></trkpt><trkpt lat="43.1436093" lon="10.5539678"><ele>14.0</ele><time>2026-04-06T08:54:34.338Z</time></trkpt><trkpt lat="43.1434932" lon="10.5539169"><ele>14.5</ele><time>2026-04-06T08:54:35.338Z</time></trkpt><trkpt lat="43.1433768" lon="10.5538655"><ele>15.0</ele><time>2026-04-06T08:54:36.338Z</time></trkpt><trkpt lat="43.1432601" lon="10.5538151"><ele>15.0</ele><time>2026-04-06T08:54:37.338Z</time></trkpt><trkpt lat="43.1431424" lon="10.5537643"><ele>15.0</ele><time>2026-04-06T08:54:38.338Z</time></trkpt><trkpt lat="43.143024" lon="10.5537164"><ele>15.0</ele><time>2026-04-06T08:54:39.339Z</time></trkpt><trkpt lat="43.1429066" lon="10.5536688"><ele>15.0</ele><time>2026-04-06T08:54:40.337Z</time></trkpt><trkpt lat="43.1427882" lon="10.5536228"><ele>15.25</ele><time>2026-04-06T08:54:41.337Z</time></trkpt><trkpt lat="43.1426675" lon="10.5535772"><ele>15.5</ele><time>2026-04-06T08:54:42.341Z</time></trkpt><trkpt lat="43.142545" lon="10.55353"><ele>15.75</ele><time>2026-04-06T08:54:43.337Z</time></trkpt><trkpt lat="43.1424224" lon="10.5534828"><ele>16.0</ele><time>2026-04-06T08:54:44.339Z</time></trkpt><trkpt lat="43.1423003" lon="10.5534362"><ele>16.25</ele><time>2026-04-06T08:54:45.338Z</time></trkpt><trkpt lat="43.1421782" lon="10.5533919"><ele>16.5</ele><time>2026-04-06T08:54:46.337Z</time></trkpt><trkpt lat="43.142056" lon="10.5533444"><ele>16.75</ele><time>2026-04-06T08:54:47.338Z</time></trkpt><trkpt lat="43.1419308" lon="10.5533004"><ele>17.0</ele><time>2026-04-06T08:54:48.338Z</time></trkpt><trkpt lat="43.1418088" lon="10.5532553"><ele>17.0</ele><time>2026-04-06T08:54:49.338Z</time></trkpt><trkpt lat="43.141686" lon="10.5532142"><ele>17.0</ele><time>2026-04-06T08:54:50.339Z</time></trkpt><trkpt lat="43.1415627" lon="10.5531721"><ele>17.0</ele><time>2026-04-06T08:54:51.343Z</time></trkpt><trkpt lat="43.1414389" lon="10.5531259"><ele>17.0</ele><time>2026-04-06T08:54:52.337Z</time></trkpt><trkpt lat="43.1413133" lon="10.5530797"><ele>17.25</ele><time>2026-04-06T08:54:53.34Z</time></trkpt><trkpt lat="43.1411903" lon="10.5530359"><ele>17.5</ele><time>2026-04-06T08:54:54.339Z</time></trkpt><trkpt lat="43.1410705" lon="10.5529934"><ele>17.75</ele><time>2026-04-06T08:54:55.334Z</time></trkpt><trkpt lat="43.1409503" lon="10.5529512"><ele>18.0</ele><time>2026-04-06T08:54:56.337Z</time></trkpt><trkpt lat="43.1408301" lon="10.5529075"><ele>17.25</ele><time>2026-04-06T08:54:57.337Z</time></trkpt><trkpt lat="43.1407108" lon="10.5528631"><ele>16.5</ele><time>2026-04-06T08:54:58.336Z</time></trkpt><trkpt lat="43.1405901" lon="10.5528181"><ele>15.75</ele><time>2026-04-06T08:54:59.338Z</time></trkpt><trkpt lat="43.1404724" lon="10.5527731"><ele>15.0</ele><time>2026-04-06T08:55:00.336Z</time></trkpt><trkpt lat="43.1403537" lon="10.5527322"><ele>15.0</ele><time>2026-04-06T08:55:01.337Z</time></trkpt><trkpt lat="43.140236" lon="10.5526908"><ele>15.0</ele><time>2026-04-06T08:55:02.339Z</time></trkpt><trkpt lat="43.1401178" lon="10.552649"><ele>15.0</ele><time>2026-04-06T08:55:03.337Z</time></trkpt><trkpt lat="43.1399996" lon="10.5526064"><ele>15.0</ele><time>2026-04-06T08:55:04.337Z</time></trkpt><trkpt lat="43.1398821" lon="10.5525643"><ele>15.5</ele><time>2026-04-06T08:55:05.341Z</time></trkpt><trkpt lat="43.1397619" lon="10.5525225"><ele>16.0</ele><time>2026-04-06T08:55:06.34Z</time></trkpt><trkpt lat="43.1396402" lon="10.5524813"><ele>16.5</ele><time>2026-04-06T08:55:07.341Z</time></trkpt><trkpt lat="43.1395187" lon="10.5524412"><ele>17.0</ele><time>2026-04-06T08:55:08.339Z</time></trkpt><trkpt lat="43.1393982" lon="10.5524028"><ele>17.0</ele><time>2026-04-06T08:55:09.337Z</time></trkpt><trkpt lat="43.1392781" lon="10.5523619"><ele>17.0</ele><time>2026-04-06T08:55:10.336Z</time></trkpt><trkpt lat="43.1391562" lon="10.5523183"><ele>17.0</ele><time>2026-04-06T08:55:11.336Z</time></trkpt><trkpt lat="43.1390329" lon="10.5522708"><ele>17.0</ele><time>2026-04-06T08:55:12.339Z</time></trkpt><trkpt lat="43.138909" lon="10.5522242"><ele>17.0</ele><time>2026-04-06T08:55:13.34Z</time></trkpt><trkpt lat="43.1387854" lon="10.5521799"><ele>17.0</ele><time>2026-04-06T08:55:14.339Z</time></trkpt><trkpt lat="43.138663" lon="10.552137"><ele>17.0</ele><time>2026-04-06T08:55:15.337Z</time></trkpt><trkpt lat="43.13854" lon="10.552094"><ele>17.0</ele><time>2026-04-06T08:55:16.34Z</time></trkpt><trkpt lat="43.1384168" lon="10.5520508"><ele>16.75</ele><time>2026-04-06T08:55:17.338Z</time></trkpt><trkpt lat="43.1382911" lon="10.5520064"><ele>16.5</ele><time>2026-04-06T08:55:18.338Z</time></trkpt><trkpt lat="43.1381644" lon="10.5519624"><ele>16.25</ele><time>2026-04-06T08:55:19.336Z</time></trkpt><trkpt lat="43.1380386" lon="10.5519201"><ele>16.0</ele><time>2026-04-06T08:55:20.338Z</time></trkpt><trkpt lat="43.1379146" lon="10.5518765"><ele>15.5</ele><time>2026-04-06T08:55:21.338Z</time></trkpt><trkpt lat="43.1377931" lon="10.5518309"><ele>15.0</ele><time>2026-04-06T08:55:22.337Z</time></trkpt><trkpt lat="43.1376708" lon="10.5517863"><ele>14.5</ele><time>2026-04-06T08:55:23.338Z</time></trkpt><trkpt lat="43.1375467" lon="10.5517398"><ele>14.0</ele><time>2026-04-06T08:55:24.341Z</time></trkpt><trkpt lat="43.1374215" lon="10.5516957"><ele>14.5</ele><time>2026-04-06T08:55:25.336Z</time></trkpt><trkpt lat="43.137297" lon="10.5516529"><ele>15.0</ele><time>2026-04-06T08:55:26.337Z</time></trkpt><trkpt lat="43.1371733" lon="10.5516108"><ele>15.5</ele><time>2026-04-06T08:55:27.334Z</time></trkpt><trkpt lat="43.1370476" lon="10.5515675"><ele>16.0</ele><time>2026-04-06T08:55:28.333Z</time></trkpt><trkpt lat="43.1369224" lon="10.5515215"><ele>16.0</ele><time>2026-04-06T08:55:29.335Z</time></trkpt><trkpt lat="43.1367976" lon="10.5514748"><ele>16.0</ele><time>2026-04-06T08:55:30.337Z</time></trkpt><trkpt lat="43.1366737" lon="10.5514314"><ele>16.0</ele><time>2026-04-06T08:55:31.337Z</time></trkpt><trkpt lat="43.1365497" lon="10.5513903"><ele>16.0</ele><time>2026-04-06T08:55:32.342Z</time></trkpt><trkpt lat="43.1364267" lon="10.5513498"><ele>15.75</ele><time>2026-04-06T08:55:33.338Z</time></trkpt><trkpt lat="43.1363045" lon="10.5513073"><ele>15.5</ele><time>2026-04-06T08:55:34.335Z</time></trkpt><trkpt lat="43.1361824" lon="10.5512639"><ele>15.25</ele><time>2026-04-06T08:55:35.337Z</time></trkpt><trkpt lat="43.1360609" lon="10.5512182"><ele>15.0</ele><time>2026-04-06T08:55:36.338Z</time></trkpt><trkpt lat="43.1359403" lon="10.5511744"><ele>14.5</ele><time>2026-04-06T08:55:37.34Z</time></trkpt><trkpt lat="43.135821" lon="10.5511312"><ele>14.0</ele><time>2026-04-06T08:55:38.346Z</time></trkpt><trkpt lat="43.1357011" lon="10.5510899"><ele>13.5</ele><time>2026-04-06T08:55:39.339Z</time></trkpt><trkpt lat="43.1355805" lon="10.5510475"><ele>13.0</ele><time>2026-04-06T08:55:40.342Z</time></trkpt><trkpt lat="43.13546" lon="10.5510044"><ele>13.0</ele><time>2026-04-06T08:55:41.337Z</time></trkpt><trkpt lat="43.1353398" lon="10.5509592"><ele>13.0</ele><time>2026-04-06T08:55:42.339Z</time></trkpt><trkpt lat="43.1352211" lon="10.5509142"><ele>13.0</ele><time>2026-04-06T08:55:43.338Z</time></trkpt><trkpt lat="43.1351014" lon="10.5508714"><ele>13.0</ele><time>2026-04-06T08:55:44.339Z</time></trkpt><trkpt lat="43.1349803" lon="10.5508301"><ele>14.25</ele><time>2026-04-06T08:55:45.334Z</time></trkpt><trkpt lat="43.1348593" lon="10.5507872"><ele>15.5</ele><time>2026-04-06T08:55:46.336Z</time></trkpt><trkpt lat="43.1347368" lon="10.5507443"><ele>16.75</ele><time>2026-04-06T08:55:47.34Z</time></trkpt><trkpt lat="43.134615" lon="10.5507024"><ele>18.0</ele><time>2026-04-06T08:55:48.338Z</time></trkpt><trkpt lat="43.1344942" lon="10.5506614"><ele>18.0</ele><time>2026-04-06T08:55:49.337Z</time></trkpt><trkpt lat="43.1343728" lon="10.5506177"><ele>18.0</ele><time>2026-04-06T08:55:50.34Z</time></trkpt><trkpt lat="43.1342512" lon="10.5505717"><ele>18.0</ele><time>2026-04-06T08:55:51.338Z</time></trkpt><trkpt lat="43.1341285" lon="10.5505272"><ele>18.0</ele><time>2026-04-06T08:55:52.338Z</time></trkpt><trkpt lat="43.1340062" lon="10.5504849"><ele>17.75</ele><time>2026-04-06T08:55:53.337Z</time></trkpt><trkpt lat="43.133883" lon="10.550441"><ele>17.5</ele><time>2026-04-06T08:55:54.338Z</time></trkpt><trkpt lat="43.1337585" lon="10.5503965"><ele>17.25</ele><time>2026-04-06T08:55:55.337Z</time></trkpt><trkpt lat="43.1336333" lon="10.5503515"><ele>17.0</ele><time>2026-04-06T08:55:56.337Z</time></trkpt><trkpt lat="43.133508" lon="10.5503077"><ele>16.5</ele><time>2026-04-06T08:55:57.335Z</time></trkpt><trkpt lat="43.1333806" lon="10.5502649"><ele>16.0</ele><time>2026-04-06T08:55:58.336Z</time></trkpt><trkpt lat="43.1332545" lon="10.5502229"><ele>15.5</ele><time>2026-04-06T08:55:59.339Z</time></trkpt><trkpt lat="43.1331318" lon="10.5501823"><ele>15.0</ele><time>2026-04-06T08:56:00.338Z</time></trkpt><trkpt lat="43.1330105" lon="10.5501382"><ele>15.0</ele><time>2026-04-06T08:56:01.339Z</time></trkpt><trkpt lat="43.1328908" lon="10.5500928"><ele>15.0</ele><time>2026-04-06T08:56:02.342Z</time></trkpt><trkpt lat="43.1327736" lon="10.550049"><ele>15.0</ele><time>2026-04-06T08:56:03.338Z</time></trkpt><trkpt lat="43.1326581" lon="10.5500058"><ele>15.0</ele><time>2026-04-06T08:56:04.34Z</time></trkpt><trkpt lat="43.1325434" lon="10.5499646"><ele>15.0</ele><time>2026-04-06T08:56:05.339Z</time></trkpt><trkpt lat="43.1324273" lon="10.5499226"><ele>15.0</ele><time>2026-04-06T08:56:06.337Z</time></trkpt><trkpt lat="43.1323113" lon="10.5498831"><ele>15.0</ele><time>2026-04-06T08:56:07.339Z</time></trkpt><trkpt lat="43.1321938" lon="10.5498407"><ele>15.0</ele><time>2026-04-06T08:56:08.339Z</time></trkpt><trkpt lat="43.1320731" lon="10.5497975"><ele>15.0</ele><time>2026-04-06T08:56:09.337Z</time></trkpt><trkpt lat="43.1319512" lon="10.5497547"><ele>15.0</ele><time>2026-04-06T08:56:10.337Z</time></trkpt><trkpt lat="43.1318292" lon="10.5497122"><ele>15.0</ele><time>2026-04-06T08:56:11.338Z</time></trkpt><trkpt lat="43.1317049" lon="10.5496692"><ele>15.0</ele><time>2026-04-06T08:56:12.34Z</time></trkpt><trkpt lat="43.1315808" lon="10.5496246"><ele>15.0</ele><time>2026-04-06T08:56:13.338Z</time></trkpt><trkpt lat="43.131458" lon="10.5495802"><ele>15.0</ele><time>2026-04-06T08:56:14.339Z</time></trkpt><trkpt lat="43.1313376" lon="10.5495407"><ele>15.0</ele><time>2026-04-06T08:56:15.337Z</time></trkpt><trkpt lat="43.1312187" lon="10.5495012"><ele>15.0</ele><time>2026-04-06T08:56:16.336Z</time></trkpt><trkpt lat="43.1311009" lon="10.5494604"><ele>14.75</ele><time>2026-04-06T08:56:17.339Z</time></trkpt><trkpt lat="43.1309826" lon="10.5494173"><ele>14.5</ele><time>2026-04-06T08:56:18.338Z</time></trkpt><trkpt lat="43.1308631" lon="10.5493738"><ele>14.25</ele><time>2026-04-06T08:56:19.337Z</time></trkpt><trkpt lat="43.1307432" lon="10.5493304"><ele>14.0</ele><time>2026-04-06T08:56:20.339Z</time></trkpt><trkpt lat="43.1306224" lon="10.5492871"><ele>14.0</ele><time>2026-04-06T08:56:21.338Z</time></trkpt><trkpt lat="43.1305002" lon="10.5492434"><ele>14.0</ele><time>2026-04-06T08:56:22.337Z</time></trkpt><trkpt lat="43.1303782" lon="10.5491999"><ele>14.0</ele><time>2026-04-06T08:56:23.34Z</time></trkpt><trkpt lat="43.1302541" lon="10.5491554"><ele>14.0</ele><time>2026-04-06T08:56:24.346Z</time></trkpt><trkpt lat="43.13013" lon="10.5491107"><ele>14.0</ele><time>2026-04-06T08:56:25.337Z</time></trkpt><trkpt lat="43.1300044" lon="10.5490675"><ele>14.0</ele><time>2026-04-06T08:56:26.339Z</time></trkpt><trkpt lat="43.1298784" lon="10.5490246"><ele>14.0</ele><time>2026-04-06T08:56:27.337Z</time></trkpt><trkpt lat="43.1297504" lon="10.5489782"><ele>14.0</ele><time>2026-04-06T08:56:28.338Z</time></trkpt><trkpt lat="43.1296211" lon="10.54893"><ele>14.0</ele><time>2026-04-06T08:56:29.337Z</time></trkpt><trkpt lat="43.1294936" lon="10.5488836"><ele>14.0</ele><time>2026-04-06T08:56:30.338Z</time></trkpt><trkpt lat="43.1293678" lon="10.5488363"><ele>14.0</ele><time>2026-04-06T08:56:31.338Z</time></trkpt><trkpt lat="43.129243" lon="10.5487922"><ele>14.0</ele><time>2026-04-06T08:56:32.339Z</time></trkpt><trkpt lat="43.1291208" lon="10.5487488"><ele>14.0</ele><time>2026-04-06T08:56:33.337Z</time></trkpt><trkpt lat="43.1290001" lon="10.5487099"><ele>14.0</ele><time>2026-04-06T08:56:34.338Z</time></trkpt><trkpt lat="43.12888" lon="10.5486697"><ele>14.0</ele><time>2026-04-06T08:56:35.34Z</time></trkpt><trkpt lat="43.1287604" lon="10.5486268"><ele>14.0</ele><time>2026-04-06T08:56:36.338Z</time></trkpt><trkpt lat="43.1286412" lon="10.5485816"><ele>14.0</ele><time>2026-04-06T08:56:37.337Z</time></trkpt><trkpt lat="43.1285215" lon="10.5485401"><ele>14.0</ele><time>2026-04-06T08:56:38.337Z</time></trkpt><trkpt lat="43.1284025" lon="10.5484978"><ele>14.0</ele><time>2026-04-06T08:56:39.339Z</time></trkpt><trkpt lat="43.1282842" lon="10.5484559"><ele>14.0</ele><time>2026-04-06T08:56:40.34Z</time></trkpt><trkpt lat="43.1281667" lon="10.5484156"><ele>14.0</ele><time>2026-04-06T08:56:41.339Z</time></trkpt><trkpt lat="43.1280459" lon="10.5483761"><ele>14.0</ele><time>2026-04-06T08:56:42.333Z</time></trkpt><trkpt lat="43.127925" lon="10.5483331"><ele>14.0</ele><time>2026-04-06T08:56:43.336Z</time></trkpt><trkpt lat="43.1278062" lon="10.5482892"><ele>14.0</ele><time>2026-04-06T08:56:44.334Z</time></trkpt><trkpt lat="43.127688" lon="10.5482447"><ele>14.0</ele><time>2026-04-06T08:56:45.334Z</time></trkpt><trkpt lat="43.1275692" lon="10.5482016"><ele>14.0</ele><time>2026-04-06T08:56:46.336Z</time></trkpt><trkpt lat="43.1274481" lon="10.5481601"><ele>14.0</ele><time>2026-04-06T08:56:47.338Z</time></trkpt><trkpt lat="43.1273276" lon="10.5481164"><ele>14.0</ele><time>2026-04-06T08:56:48.342Z</time></trkpt><trkpt lat="43.1272079" lon="10.5480736"><ele>14.75</ele><time>2026-04-06T08:56:49.336Z</time></trkpt><trkpt lat="43.1270876" lon="10.5480307"><ele>15.5</ele><time>2026-04-06T08:56:50.337Z</time></trkpt><trkpt lat="43.1269674" lon="10.547989"><ele>16.25</ele><time>2026-04-06T08:56:51.335Z</time></trkpt><trkpt lat="43.126846" lon="10.547949"><ele>17.0</ele><time>2026-04-06T08:56:52.338Z</time></trkpt><trkpt lat="43.1267255" lon="10.5479061"><ele>15.75</ele><time>2026-04-06T08:56:53.336Z</time></trkpt><trkpt lat="43.1266051" lon="10.5478629"><ele>14.5</ele><time>2026-04-06T08:56:54.339Z</time></trkpt><trkpt lat="43.126483" lon="10.5478174"><ele>13.25</ele><time>2026-04-06T08:56:55.337Z</time></trkpt><trkpt lat="43.1263585" lon="10.5477713"><ele>12.0</ele><time>2026-04-06T08:56:56.337Z</time></trkpt><trkpt lat="43.1262332" lon="10.5477281"><ele>12.0</ele><time>2026-04-06T08:56:57.337Z</time></trkpt><trkpt lat="43.1261058" lon="10.547683"><ele>12.0</ele><time>2026-04-06T08:56:58.339Z</time></trkpt><trkpt lat="43.1259778" lon="10.5476373"><ele>12.0</ele><time>2026-04-06T08:56:59.337Z</time></trkpt><trkpt lat="43.1258527" lon="10.5475899"><ele>12.0</ele><time>2026-04-06T08:57:00.336Z</time></trkpt><trkpt lat="43.1257301" lon="10.5475444"><ele>12.25</ele><time>2026-04-06T08:57:01.338Z</time></trkpt><trkpt lat="43.1256098" lon="10.547502"><ele>12.5</ele><time>2026-04-06T08:57:02.34Z</time></trkpt><trkpt lat="43.125493" lon="10.5474585"><ele>12.75</ele><time>2026-04-06T08:57:03.337Z</time></trkpt><trkpt lat="43.1253782" lon="10.5474135"><ele>13.0</ele><time>2026-04-06T08:57:04.338Z</time></trkpt><trkpt lat="43.1252646" lon="10.5473709"><ele>13.0</ele><time>2026-04-06T08:57:05.339Z</time></trkpt><trkpt lat="43.1251479" lon="10.5473295"><ele>13.0</ele><time>2026-04-06T08:57:06.342Z</time></trkpt><trkpt lat="43.1250303" lon="10.5472894"><ele>13.0</ele><time>2026-04-06T08:57:07.338Z</time></trkpt><trkpt lat="43.1249097" lon="10.5472487"><ele>13.0</ele><time>2026-04-06T08:57:08.339Z</time></trkpt><trkpt lat="43.124788" lon="10.5472062"><ele>13.0</ele><time>2026-04-06T08:57:09.338Z</time></trkpt><trkpt lat="43.1246636" lon="10.5471619"><ele>13.0</ele><time>2026-04-06T08:57:10.337Z</time></trkpt><trkpt lat="43.1245407" lon="10.5471181"><ele>13.0</ele><time>2026-04-06T08:57:11.337Z</time></trkpt><trkpt lat="43.1244184" lon="10.5470746"><ele>13.0</ele><time>2026-04-06T08:57:12.341Z</time></trkpt><trkpt lat="43.1242963" lon="10.5470314"><ele>12.75</ele><time>2026-04-06T08:57:13.344Z</time></trkpt><trkpt lat="43.1241739" lon="10.5469845"><ele>12.5</ele><time>2026-04-06T08:57:14.338Z</time></trkpt><trkpt lat="43.1240519" lon="10.5469375"><ele>12.25</ele><time>2026-04-06T08:57:15.335Z</time></trkpt><trkpt lat="43.1239308" lon="10.5468962"><ele>12.0</ele><time>2026-04-06T08:57:16.338Z</time></trkpt><trkpt lat="43.1238105" lon="10.5468555"><ele>12.0</ele><time>2026-04-06T08:57:17.339Z</time></trkpt><trkpt lat="43.1236897" lon="10.5468129"><ele>12.0</ele><time>2026-04-06T08:57:18.336Z</time></trkpt><trkpt lat="43.1235682" lon="10.546772"><ele>12.0</ele><time>2026-04-06T08:57:19.337Z</time></trkpt><trkpt lat="43.1234468" lon="10.5467302"><ele>12.0</ele><time>2026-04-06T08:57:20.336Z</time></trkpt><trkpt lat="43.123324" lon="10.546688"><ele>12.25</ele><time>2026-04-06T08:57:21.337Z</time></trkpt><trkpt lat="43.1232018" lon="10.5466456"><ele>12.5</ele><time>2026-04-06T08:57:22.335Z</time></trkpt><trkpt lat="43.1230809" lon="10.5466039"><ele>12.75</ele><time>2026-04-06T08:57:23.336Z</time></trkpt><trkpt lat="43.1229608" lon="10.5465598"><ele>13.0</ele><time>2026-04-06T08:57:24.339Z</time></trkpt><trkpt lat="43.1228425" lon="10.5465139"><ele>13.0</ele><time>2026-04-06T08:57:25.338Z</time></trkpt><trkpt lat="43.1227253" lon="10.5464695"><ele>13.0</ele><time>2026-04-06T08:57:26.341Z</time></trkpt><trkpt lat="43.1226088" lon="10.5464265"><ele>13.0</ele><time>2026-04-06T08:57:27.342Z</time></trkpt><trkpt lat="43.1224927" lon="10.5463857"><ele>13.0</ele><time>2026-04-06T08:57:28.339Z</time></trkpt><trkpt lat="43.1223765" lon="10.5463454"><ele>12.75</ele><time>2026-04-06T08:57:29.34Z</time></trkpt><trkpt lat="43.1222623" lon="10.5463044"><ele>12.5</ele><time>2026-04-06T08:57:30.34Z</time></trkpt><trkpt lat="43.1221468" lon="10.5462641"><ele>12.25</ele><time>2026-04-06T08:57:31.34Z</time></trkpt><trkpt lat="43.1220313" lon="10.5462259"><ele>12.0</ele><time>2026-04-06T08:57:32.337Z</time></trkpt><trkpt lat="43.1218012" lon="10.5461466"><ele>12.0</ele><time>2026-04-06T08:57:34.338Z</time></trkpt><trkpt lat="43.1216842" lon="10.5461037"><ele>12.0</ele><time>2026-04-06T08:57:35.336Z</time></trkpt><trkpt lat="43.1215658" lon="10.5460595"><ele>12.0</ele><time>2026-04-06T08:57:36.339Z</time></trkpt><trkpt lat="43.1214471" lon="10.5460158"><ele>12.0</ele><time>2026-04-06T08:57:37.34Z</time></trkpt><trkpt lat="43.1213274" lon="10.545974"><ele>12.0</ele><time>2026-04-06T08:57:38.34Z</time></trkpt><trkpt lat="43.1212061" lon="10.5459317"><ele>12.0</ele><time>2026-04-06T08:57:39.34Z</time></trkpt><trkpt lat="43.1210844" lon="10.545887"><ele>12.0</ele><time>2026-04-06T08:57:40.338Z</time></trkpt><trkpt lat="43.120961" lon="10.5458416"><ele>12.0</ele><time>2026-04-06T08:57:41.338Z</time></trkpt><trkpt lat="43.1208373" lon="10.5457976"><ele>12.0</ele><time>2026-04-06T08:57:42.338Z</time></trkpt><trkpt lat="43.1207124" lon="10.5457545"><ele>12.0</ele><time>2026-04-06T08:57:43.34Z</time></trkpt><trkpt lat="43.1205862" lon="10.5457151"><ele>12.0</ele><time>2026-04-06T08:57:44.341Z</time></trkpt><trkpt lat="43.1204597" lon="10.5456785"><ele>12.0</ele><time>2026-04-06T08:57:45.336Z</time></trkpt><trkpt lat="43.1203345" lon="10.5456448"><ele>12.0</ele><time>2026-04-06T08:57:46.339Z</time></trkpt><trkpt lat="43.1202132" lon="10.545615"><ele>12.0</ele><time>2026-04-06T08:57:47.339Z</time></trkpt><trkpt lat="43.1200974" lon="10.5455906"><ele>12.0</ele><time>2026-04-06T08:57:48.341Z</time></trkpt><trkpt lat="43.1199848" lon="10.5455655"><ele>12.0</ele><time>2026-04-06T08:57:49.336Z</time></trkpt><trkpt lat="43.119871" lon="10.5455415"><ele>12.25</ele><time>2026-04-06T08:57:50.339Z</time></trkpt><trkpt lat="43.1197569" lon="10.5455168"><ele>12.5</ele><time>2026-04-06T08:57:51.339Z</time></trkpt><trkpt lat="43.1196423" lon="10.5454901"><ele>12.75</ele><time>2026-04-06T08:57:52.337Z</time></trkpt><trkpt lat="43.1195272" lon="10.5454611"><ele>13.0</ele><time>2026-04-06T08:57:53.341Z</time></trkpt><trkpt lat="43.1194134" lon="10.5454245"><ele>13.0</ele><time>2026-04-06T08:57:54.338Z</time></trkpt><trkpt lat="43.1193068" lon="10.5453601"><ele>13.0</ele><time>2026-04-06T08:57:55.339Z</time></trkpt><trkpt lat="43.1192098" lon="10.5452641"><ele>13.0</ele><time>2026-04-06T08:57:56.34Z</time></trkpt><trkpt lat="43.1191297" lon="10.5451408"><ele>13.0</ele><time>2026-04-06T08:57:57.338Z</time></trkpt><trkpt lat="43.1190631" lon="10.5450136"><ele>12.75</ele><time>2026-04-06T08:57:58.338Z</time></trkpt><trkpt lat="43.1190241" lon="10.5448597"><ele>12.5</ele><time>2026-04-06T08:57:59.337Z</time></trkpt><trkpt lat="43.1189951" lon="10.5447006"><ele>12.25</ele><time>2026-04-06T08:58:00.346Z</time></trkpt><trkpt lat="43.1189708" lon="10.544542"><ele>12.0</ele><time>2026-04-06T08:58:01.337Z</time></trkpt><trkpt lat="43.1189461" lon="10.5443907"><ele>11.6</ele><time>2026-04-06T08:58:02.336Z</time></trkpt><trkpt lat="43.1189183" lon="10.5442459"><ele>11.2</ele><time>2026-04-06T08:58:03.337Z</time></trkpt><trkpt lat="43.1188836" lon="10.5441032"><ele>10.8</ele><time>2026-04-06T08:58:04.335Z</time></trkpt><trkpt lat="43.1188395" lon="10.5439699"><ele>10.4</ele><time>2026-04-06T08:58:05.336Z</time></trkpt><trkpt lat="43.1187812" lon="10.5438498"><ele>10.0</ele><time>2026-04-06T08:58:06.337Z</time></trkpt><trkpt lat="43.1187097" lon="10.5437426"><ele>9.6</ele><time>2026-04-06T08:58:07.338Z</time></trkpt><trkpt lat="43.1186218" lon="10.5436522"><ele>9.2</ele><time>2026-04-06T08:58:08.338Z</time></trkpt><trkpt lat="43.1185216" lon="10.543581"><ele>8.8</ele><time>2026-04-06T08:58:09.337Z</time></trkpt><trkpt lat="43.1184143" lon="10.5435336"><ele>8.4</ele><time>2026-04-06T08:58:10.338Z</time></trkpt><trkpt lat="43.1183019" lon="10.5435119"><ele>8.0</ele><time>2026-04-06T08:58:11.338Z</time></trkpt><trkpt lat="43.1181862" lon="10.5435108"><ele>7.75</ele><time>2026-04-06T08:58:12.339Z</time></trkpt><trkpt lat="43.1180708" lon="10.5435301"><ele>7.5</ele><time>2026-04-06T08:58:13.336Z</time></trkpt><trkpt lat="43.1179549" lon="10.5435718"><ele>7.25</ele><time>2026-04-06T08:58:14.336Z</time></trkpt><trkpt lat="43.1178368" lon="10.5436181"><ele>7.0</ele><time>2026-04-06T08:58:15.336Z</time></trkpt><trkpt lat="43.117716" lon="10.5436621"><ele>7.0</ele><time>2026-04-06T08:58:16.335Z</time></trkpt><trkpt lat="43.1175911" lon="10.5436982"><ele>7.0</ele><time>2026-04-06T08:58:17.338Z</time></trkpt><trkpt lat="43.1174639" lon="10.5437327"><ele>7.0</ele><time>2026-04-06T08:58:18.343Z</time></trkpt><trkpt lat="43.1173369" lon="10.5437718"><ele>7.0</ele><time>2026-04-06T08:58:19.338Z</time></trkpt><trkpt lat="43.1172094" lon="10.5438151"><ele>7.5</ele><time>2026-04-06T08:58:20.339Z</time></trkpt><trkpt lat="43.1170834" lon="10.5438623"><ele>8.0</ele><time>2026-04-06T08:58:21.337Z</time></trkpt><trkpt lat="43.1169578" lon="10.5439096"><ele>8.5</ele><time>2026-04-06T08:58:22.338Z</time></trkpt><trkpt lat="43.116834" lon="10.5439553"><ele>9.0</ele><time>2026-04-06T08:58:23.337Z</time></trkpt><trkpt lat="43.1167108" lon="10.5439984"><ele>9.0</ele><time>2026-04-06T08:58:24.339Z</time></trkpt><trkpt lat="43.1165884" lon="10.5440351"><ele>9.0</ele><time>2026-04-06T08:58:25.337Z</time></trkpt><trkpt lat="43.1164655" lon="10.5440633"><ele>9.0</ele><time>2026-04-06T08:58:26.337Z</time></trkpt><trkpt lat="43.1163422" lon="10.5440811"><ele>9.0</ele><time>2026-04-06T08:58:27.337Z</time></trkpt><trkpt lat="43.1162174" lon="10.5440877"><ele>9.25</ele><time>2026-04-06T08:58:28.339Z</time></trkpt><trkpt lat="43.1160934" lon="10.5440797"><ele>9.5</ele><time>2026-04-06T08:58:29.337Z</time></trkpt><trkpt lat="43.11597" lon="10.5440467"><ele>9.75</ele><time>2026-04-06T08:58:30.341Z</time></trkpt><trkpt lat="43.1158467" lon="10.5440083"><ele>10.0</ele><time>2026-04-06T08:58:31.336Z</time></trkpt><trkpt lat="43.115725" lon="10.5439667"><ele>10.0</ele><time>2026-04-06T08:58:32.338Z</time></trkpt><trkpt lat="43.1156017" lon="10.5439267"><ele>10.0</ele><time>2026-04-06T08:58:33.337Z</time></trkpt><trkpt lat="43.1154783" lon="10.543885"><ele>10.0</ele><time>2026-04-06T08:58:34.335Z</time></trkpt><trkpt lat="43.11536" lon="10.543845"><ele>10.0</ele><time>2026-04-06T08:58:35.335Z</time></trkpt><trkpt lat="43.1152433" lon="10.5438033"><ele>10.0</ele><time>2026-04-06T08:58:36.335Z</time></trkpt><trkpt lat="43.1151317" lon="10.5437633"><ele>10.0</ele><time>2026-04-06T08:58:37.336Z</time></trkpt><trkpt lat="43.1150217" lon="10.5437283"><ele>10.0</ele><time>2026-04-06T08:58:38.335Z</time></trkpt><trkpt lat="43.1149183" lon="10.54369"><ele>10.0</ele><time>2026-04-06T08:58:39.337Z</time></trkpt><trkpt lat="43.1148117" lon="10.5436483"><ele>10.0</ele><time>2026-04-06T08:58:40.335Z</time></trkpt><trkpt lat="43.1147033" lon="10.5436083"><ele>9.25</ele><time>2026-04-06T08:58:41.336Z</time></trkpt><trkpt lat="43.1145933" lon="10.5435733"><ele>8.5</ele><time>2026-04-06T08:58:42.337Z</time></trkpt><trkpt lat="43.1144783" lon="10.5435333"><ele>7.75</ele><time>2026-04-06T08:58:43.345Z</time></trkpt><trkpt lat="43.11436" lon="10.543495"><ele>7.0</ele><time>2026-04-06T08:58:44.338Z</time></trkpt><trkpt lat="43.114245" lon="10.54346"><ele>7.0</ele><time>2026-04-06T08:58:45.333Z</time></trkpt><trkpt lat="43.114135" lon="10.54342"><ele>6.999999999999999</ele><time>2026-04-06T08:58:46.332Z</time></trkpt><trkpt lat="43.1140267" lon="10.5433817"><ele>6.999999999999999</ele><time>2026-04-06T08:58:47.337Z</time></trkpt><trkpt lat="43.1139217" lon="10.5433433"><ele>7.0</ele><time>2026-04-06T08:58:48.415Z</time></trkpt><trkpt lat="43.1138117" lon="10.543305"><ele>7.0</ele><time>2026-04-06T08:58:49.339Z</time></trkpt><trkpt lat="43.1137017" lon="10.5432717"><ele>6.5</ele><time>2026-04-06T08:58:50.333Z</time></trkpt><trkpt lat="43.1135967" lon="10.5432333"><ele>6.0</ele><time>2026-04-06T08:58:51.348Z</time></trkpt><trkpt lat="43.1134867" lon="10.5431933"><ele>5.5</ele><time>2026-04-06T08:58:52.339Z</time></trkpt><trkpt lat="43.1133767" lon="10.5431517"><ele>5.0</ele><time>2026-04-06T08:58:53.338Z</time></trkpt><trkpt lat="43.1132667" lon="10.5431117"><ele>5.2</ele><time>2026-04-06T08:58:54.34Z</time></trkpt><trkpt lat="43.1131583" lon="10.5430667"><ele>5.4</ele><time>2026-04-06T08:58:55.338Z</time></trkpt><trkpt lat="43.11305" lon="10.5430267"><ele>5.6</ele><time>2026-04-06T08:58:56.339Z</time></trkpt><trkpt lat="43.1129433" lon="10.5429867"><ele>5.8</ele><time>2026-04-06T08:58:57.335Z</time></trkpt><trkpt lat="43.11284" lon="10.5429483"><ele>6.0</ele><time>2026-04-06T08:58:58.337Z</time></trkpt><trkpt lat="43.1127367" lon="10.54291"><ele>5.6</ele><time>2026-04-06T08:58:59.339Z</time></trkpt><trkpt lat="43.1126317" lon="10.5428733"><ele>5.199999999999999</ele><time>2026-04-06T08:59:00.335Z</time></trkpt><trkpt lat="43.112525" lon="10.5428367"><ele>4.800000000000001</ele><time>2026-04-06T08:59:01.337Z</time></trkpt><trkpt lat="43.1124183" lon="10.5427983"><ele>4.4</ele><time>2026-04-06T08:59:02.34Z</time></trkpt><trkpt lat="43.1123117" lon="10.5427583"><ele>4.0</ele><time>2026-04-06T08:59:03.34Z</time></trkpt><trkpt lat="43.1122067" lon="10.54272"><ele>4.0</ele><time>2026-04-06T08:59:04.34Z</time></trkpt><trkpt lat="43.1121033" lon="10.5426833"><ele>4.0</ele><time>2026-04-06T08:59:05.333Z</time></trkpt><trkpt lat="43.1117067" lon="10.5425433"><ele>4.0</ele><time>2026-04-06T08:59:09.332Z</time></trkpt><trkpt lat="43.1116183" lon="10.5425133"><ele>4.0</ele><time>2026-04-06T08:59:10.332Z</time></trkpt><trkpt lat="43.1115317" lon="10.5424867"><ele>4.0</ele><time>2026-04-06T08:59:11.333Z</time></trkpt><trkpt lat="43.1114417" lon="10.5424583"><ele>4.0</ele><time>2026-04-06T08:59:12.333Z</time></trkpt><trkpt lat="43.1113467" lon="10.5424283"><ele>4.0</ele><time>2026-04-06T08:59:13.334Z</time></trkpt><trkpt lat="43.110955" lon="10.54228"><ele>4.6</ele><time>2026-04-06T08:59:17.332Z</time></trkpt><trkpt lat="43.1108517" lon="10.5422467"><ele>5.2</ele><time>2026-04-06T08:59:18.334Z</time></trkpt><trkpt lat="43.11075" lon="10.5422117"><ele>5.799999999999999</ele><time>2026-04-06T08:59:19.335Z</time></trkpt><trkpt lat="43.110645" lon="10.5421783"><ele>6.3999999999999995</ele><time>2026-04-06T08:59:20.337Z</time></trkpt><trkpt lat="43.11054" lon="10.5421417"><ele>7.0</ele><time>2026-04-06T08:59:21.338Z</time></trkpt><trkpt lat="43.110435" lon="10.542105"><ele>7.0</ele><time>2026-04-06T08:59:22.337Z</time></trkpt><trkpt lat="43.11033" lon="10.5420683"><ele>6.999999999999999</ele><time>2026-04-06T08:59:23.337Z</time></trkpt><trkpt lat="43.110225" lon="10.5420283"><ele>6.999999999999999</ele><time>2026-04-06T08:59:24.337Z</time></trkpt><trkpt lat="43.1101217" lon="10.541985"><ele>7.0</ele><time>2026-04-06T08:59:25.341Z</time></trkpt><trkpt lat="43.1100167" lon="10.5419467"><ele>7.0</ele><time>2026-04-06T08:59:26.337Z</time></trkpt><trkpt lat="43.10991" lon="10.54191"><ele>6.8</ele><time>2026-04-06T08:59:27.336Z</time></trkpt><trkpt lat="43.109805" lon="10.5418733"><ele>6.6</ele><time>2026-04-06T08:59:28.338Z</time></trkpt><trkpt lat="43.1096983" lon="10.5418383"><ele>6.3999999999999995</ele><time>2026-04-06T08:59:29.337Z</time></trkpt><trkpt lat="43.1095933" lon="10.5418033"><ele>6.199999999999999</ele><time>2026-04-06T08:59:30.34Z</time></trkpt><trkpt lat="43.10949" lon="10.54177"><ele>6.0</ele><time>2026-04-06T08:59:31.337Z</time></trkpt><trkpt lat="43.1093867" lon="10.541735"><ele>6.0</ele><time>2026-04-06T08:59:32.339Z</time></trkpt><trkpt lat="43.10928" lon="10.5417"><ele>6.0</ele><time>2026-04-06T08:59:33.337Z</time></trkpt><trkpt lat="43.1091717" lon="10.5416633"><ele>6.0</ele><time>2026-04-06T08:59:34.34Z</time></trkpt><trkpt lat="43.1090617" lon="10.5416233"><ele>6.0</ele><time>2026-04-06T08:59:35.337Z</time></trkpt><trkpt lat="43.108955" lon="10.5415833"><ele>6.0</ele><time>2026-04-06T08:59:36.338Z</time></trkpt><trkpt lat="43.1088517" lon="10.5415467"><ele>6.4</ele><time>2026-04-06T08:59:37.338Z</time></trkpt><trkpt lat="43.1087467" lon="10.54151"><ele>6.8</ele><time>2026-04-06T08:59:38.339Z</time></trkpt><trkpt lat="43.1086433" lon="10.541475"><ele>7.200000000000001</ele><time>2026-04-06T08:59:39.338Z</time></trkpt><trkpt lat="43.1085417" lon="10.5414367"><ele>7.6000000000000005</ele><time>2026-04-06T08:59:40.338Z</time></trkpt><trkpt lat="43.108445" lon="10.5414017"><ele>8.0</ele><time>2026-04-06T08:59:41.342Z</time></trkpt><trkpt lat="43.1083517" lon="10.54137"><ele>8.0</ele><time>2026-04-06T08:59:42.34Z</time></trkpt><trkpt lat="43.10826" lon="10.5413383"><ele>8.0</ele><time>2026-04-06T08:59:43.337Z</time></trkpt><trkpt lat="43.1081683" lon="10.5413067"><ele>8.0</ele><time>2026-04-06T08:59:44.343Z</time></trkpt><trkpt lat="43.108075" lon="10.5412733"><ele>8.0</ele><time>2026-04-06T08:59:45.337Z</time></trkpt><trkpt lat="43.1079783" lon="10.5412417"><ele>8.0</ele><time>2026-04-06T08:59:46.334Z</time></trkpt><trkpt lat="43.1078783" lon="10.5412083"><ele>7.6000000000000005</ele><time>2026-04-06T08:59:47.336Z</time></trkpt><trkpt lat="43.1077783" lon="10.5411733"><ele>7.200000000000001</ele><time>2026-04-06T08:59:48.335Z</time></trkpt><trkpt lat="43.1076783" lon="10.5411383"><ele>6.8</ele><time>2026-04-06T08:59:49.336Z</time></trkpt><trkpt lat="43.1075783" lon="10.5411033"><ele>6.4</ele><time>2026-04-06T08:59:50.339Z</time></trkpt><trkpt lat="43.1074817" lon="10.5410667"><ele>6.0</ele><time>2026-04-06T08:59:51.335Z</time></trkpt><trkpt lat="43.1073833" lon="10.54103"><ele>5.8</ele><time>2026-04-06T08:59:52.337Z</time></trkpt><trkpt lat="43.107285" lon="10.540995"><ele>5.6</ele><time>2026-04-06T08:59:53.337Z</time></trkpt><trkpt lat="43.1071817" lon="10.5409567"><ele>5.4</ele><time>2026-04-06T08:59:54.335Z</time></trkpt><trkpt lat="43.10708" lon="10.5409217"><ele>5.2</ele><time>2026-04-06T08:59:55.338Z</time></trkpt><trkpt lat="43.10698" lon="10.5408867"><ele>5.0</ele><time>2026-04-06T08:59:56.34Z</time></trkpt><trkpt lat="43.1068817" lon="10.5408567"><ele>5.0</ele><time>2026-04-06T08:59:57.338Z</time></trkpt><trkpt lat="43.1067833" lon="10.5408317"><ele>5.0</ele><time>2026-04-06T08:59:58.337Z</time></trkpt><trkpt lat="43.106685" lon="10.5408083"><ele>5.0</ele><time>2026-04-06T08:59:59.338Z</time></trkpt><trkpt lat="43.1065883" lon="10.5407833"><ele>5.0</ele><time>2026-04-06T09:00:00.338Z</time></trkpt><trkpt lat="43.1064883" lon="10.54076"><ele>5.0</ele><time>2026-04-06T09:00:01.341Z</time></trkpt><trkpt lat="43.1063883" lon="10.5407467"><ele>5.2</ele><time>2026-04-06T09:00:02.34Z</time></trkpt><trkpt lat="43.106285" lon="10.5407433"><ele>5.4</ele><time>2026-04-06T09:00:03.336Z</time></trkpt><trkpt lat="43.1061783" lon="10.5407417"><ele>5.6</ele><time>2026-04-06T09:00:04.338Z</time></trkpt><trkpt lat="43.1060733" lon="10.5407433"><ele>5.8</ele><time>2026-04-06T09:00:05.337Z</time></trkpt><trkpt lat="43.105975" lon="10.540745"><ele>6.0</ele><time>2026-04-06T09:00:06.338Z</time></trkpt><trkpt lat="43.10588" lon="10.5407567"><ele>6.0</ele><time>2026-04-06T09:00:07.342Z</time></trkpt><trkpt lat="43.1057883" lon="10.540775"><ele>6.0</ele><time>2026-04-06T09:00:08.34Z</time></trkpt><trkpt lat="43.105695" lon="10.5407933"><ele>6.0</ele><time>2026-04-06T09:00:09.34Z</time></trkpt><trkpt lat="43.1056017" lon="10.5408117"><ele>6.0</ele><time>2026-04-06T09:00:10.339Z</time></trkpt><trkpt lat="43.1055083" lon="10.540835"><ele>6.0</ele><time>2026-04-06T09:00:11.337Z</time></trkpt><trkpt lat="43.1054217" lon="10.5408633"><ele>6.166666666666667</ele><time>2026-04-06T09:00:12.334Z</time></trkpt><trkpt lat="43.105345" lon="10.5409017"><ele>6.333333333333334</ele><time>2026-04-06T09:00:13.334Z</time></trkpt><trkpt lat="43.105275" lon="10.5409417"><ele>6.5</ele><time>2026-04-06T09:00:14.338Z</time></trkpt><trkpt lat="43.1052083" lon="10.5409733"><ele>6.666666666666667</ele><time>2026-04-06T09:00:15.337Z</time></trkpt><trkpt lat="43.1051033" lon="10.540975"><ele>6.833333333333334</ele><time>2026-04-06T09:00:17.335Z</time></trkpt><trkpt lat="43.1050533" lon="10.5409033"><ele>7.0</ele><time>2026-04-06T09:00:19.335Z</time></trkpt><trkpt lat="43.1050717" lon="10.5408133"><ele>7.0</ele><time>2026-04-06T09:00:21.336Z</time></trkpt><trkpt lat="43.1051433" lon="10.5407517"><ele>6.999999999999999</ele><time>2026-04-06T09:00:23.339Z</time></trkpt><trkpt lat="43.1052467" lon="10.54075"><ele>6.999999999999999</ele><time>2026-04-06T09:00:25.339Z</time></trkpt><trkpt lat="43.1053667" lon="10.5407517"><ele>7.0</ele><time>2026-04-06T09:00:27.335Z</time></trkpt><trkpt lat="43.1054733" lon="10.5406633"><ele>7.0</ele><time>2026-04-06T09:00:29.335Z</time></trkpt><trkpt lat="43.1055017" lon="10.5405833"><ele>7.000000000000001</ele><time>2026-04-06T09:00:30.337Z</time></trkpt><trkpt lat="43.105525" lon="10.5405"><ele>7.0</ele><time>2026-04-06T09:00:31.339Z</time></trkpt><trkpt lat="43.105545" lon="10.5404033"><ele>7.0</ele><time>2026-04-06T09:00:32.339Z</time></trkpt><trkpt lat="43.1055717" lon="10.5402717"><ele>7.0</ele><time>2026-04-06T09:00:33.338Z</time></trkpt><trkpt lat="43.1055633" lon="10.5401667"><ele>7.000000000000001</ele><time>2026-04-06T09:00:34.336Z</time></trkpt><trkpt lat="43.105525" lon="10.5400817"><ele>7.0</ele><time>2026-04-06T09:00:35.339Z</time></trkpt><trkpt lat="43.1054667" lon="10.540005"><ele>6.6</ele><time>2026-04-06T09:00:36.338Z</time></trkpt><trkpt lat="43.1053967" lon="10.5399517"><ele>6.199999999999999</ele><time>2026-04-06T09:00:37.337Z</time></trkpt><trkpt lat="43.1052967" lon="10.539945"><ele>5.8</ele><time>2026-04-06T09:00:38.338Z</time></trkpt><trkpt lat="43.105195" lon="10.5399483"><ele>5.4</ele><time>2026-04-06T09:00:39.34Z</time></trkpt><trkpt lat="43.1050917" lon="10.539945"><ele>5.0</ele><time>2026-04-06T09:00:40.34Z</time></trkpt><trkpt lat="43.1049967" lon="10.53993"><ele>5.333333333333334</ele><time>2026-04-06T09:00:41.338Z</time></trkpt><trkpt lat="43.1049" lon="10.5399167"><ele>5.666666666666667</ele><time>2026-04-06T09:00:42.334Z</time></trkpt><trkpt lat="43.1048083" lon="10.539905"><ele>6.0</ele><time>2026-04-06T09:00:43.336Z</time></trkpt><trkpt lat="43.1047267" lon="10.5398917"><ele>6.333333333333334</ele><time>2026-04-06T09:00:44.338Z</time></trkpt><trkpt lat="43.1046467" lon="10.5398817"><ele>6.666666666666667</ele><time>2026-04-06T09:00:45.338Z</time></trkpt><trkpt lat="43.1045683" lon="10.539875"><ele>7.0</ele><time>2026-04-06T09:00:46.337Z</time></trkpt><trkpt lat="43.104485" lon="10.53987"><ele>7.000000000000001</ele><time>2026-04-06T09:00:47.335Z</time></trkpt><trkpt lat="43.1044067" lon="10.5398617"><ele>7.0</ele><time>2026-04-06T09:00:48.339Z</time></trkpt><trkpt lat="43.104335" lon="10.5398517"><ele>7.0</ele><time>2026-04-06T09:00:49.339Z</time></trkpt><trkpt lat="43.1042717" lon="10.53984"><ele>7.0</ele><time>2026-04-06T09:00:50.34Z</time></trkpt><trkpt lat="43.10417" lon="10.5397817"><ele>7.000000000000001</ele><time>2026-04-06T09:00:52.334Z</time></trkpt><trkpt lat="43.1041017" lon="10.5396733"><ele>7.0</ele><time>2026-04-06T09:00:54.34Z</time></trkpt><trkpt lat="43.1040617" lon="10.5395483"><ele>6.8</ele><time>2026-04-06T09:00:56.337Z</time></trkpt><trkpt lat="43.104055" lon="10.5394167"><ele>6.6</ele><time>2026-04-06T09:00:58.337Z</time></trkpt><trkpt lat="43.104065" lon="10.53928"><ele>6.3999999999999995</ele><time>2026-04-06T09:01:00.337Z</time></trkpt><trkpt lat="43.1040817" lon="10.5391433"><ele>6.199999999999999</ele><time>2026-04-06T09:01:02.337Z</time></trkpt><trkpt lat="43.1040967" lon="10.5390233"><ele>6.0</ele><time>2026-04-06T09:01:04.337Z</time></trkpt><trkpt lat="43.10411" lon="10.5389183"><ele>6.0</ele><time>2026-04-06T09:01:06.336Z</time></trkpt><trkpt lat="43.1040983" lon="10.5388283"><ele>6.0</ele><time>2026-04-06T09:01:08.338Z</time></trkpt><trkpt lat="43.10401" lon="10.5387783"><ele>6.0</ele><time>2026-04-06T09:01:11.335Z</time></trkpt><trkpt lat="43.1039117" lon="10.5387717"><ele>6.0</ele><time>2026-04-06T09:01:13.338Z</time></trkpt><trkpt lat="43.1038117" lon="10.5387717"><ele>6.0</ele><time>2026-04-06T09:01:15.335Z</time></trkpt><trkpt lat="43.1037183" lon="10.5387767"><ele>6.0</ele><time>2026-04-06T09:01:17.335Z</time></trkpt><trkpt lat="43.103625" lon="10.5387733"><ele>6.0</ele><time>2026-04-06T09:01:19.336Z</time></trkpt><trkpt lat="43.1035467" lon="10.5387683"><ele>6.0</ele><time>2026-04-06T09:01:21.336Z</time></trkpt><trkpt lat="43.1034783" lon="10.5387683"><ele>6.0</ele><time>2026-04-06T09:01:23.336Z</time></trkpt><trkpt lat="43.1034033" lon="10.538765"><ele>6.0</ele><time>2026-04-06T09:01:26.339Z</time></trkpt><trkpt lat="43.103315" lon="10.5387717"><ele>6.0</ele><time>2026-04-06T09:01:29.333Z</time></trkpt><trkpt lat="43.1032317" lon="10.5387667"><ele>6.166666666666667</ele><time>2026-04-06T09:01:31.335Z</time></trkpt><trkpt lat="43.1031483" lon="10.5387633"><ele>6.333333333333334</ele><time>2026-04-06T09:01:33.337Z</time></trkpt><trkpt lat="43.103085" lon="10.5387567"><ele>6.5</ele><time>2026-04-06T09:01:35.336Z</time></trkpt><trkpt lat="43.1030083" lon="10.5387567"><ele>6.666666666666667</ele><time>2026-04-06T09:01:39.334Z</time></trkpt><trkpt lat="43.1029383" lon="10.5387533"><ele>6.833333333333334</ele><time>2026-04-06T09:01:42.339Z</time></trkpt><trkpt lat="43.1028617" lon="10.5387333"><ele>7.0</ele><time>2026-04-06T09:01:45.338Z</time></trkpt><trkpt lat="43.1027733" lon="10.5387467"><ele>7.0</ele><time>2026-04-06T09:01:48.338Z</time></trkpt><trkpt lat="43.1026917" lon="10.538745"><ele>6.999999999999999</ele><time>2026-04-06T09:01:50.333Z</time></trkpt><trkpt lat="43.1026" lon="10.5387383"><ele>6.999999999999999</ele><time>2026-04-06T09:01:52.332Z</time></trkpt><trkpt lat="43.1025067" lon="10.5387183"><ele>7.0</ele><time>2026-04-06T09:01:54.338Z</time></trkpt><trkpt lat="43.1024083" lon="10.538705"><ele>7.0</ele><time>2026-04-06T09:01:56.338Z</time></trkpt><trkpt lat="43.1023133" lon="10.5386867"><ele>6.6</ele><time>2026-04-06T09:01:58.333Z</time></trkpt><trkpt lat="43.1022083" lon="10.5386767"><ele>6.199999999999999</ele><time>2026-04-06T09:02:00.342Z</time></trkpt><trkpt lat="43.1021" lon="10.5386567"><ele>5.8</ele><time>2026-04-06T09:02:02.339Z</time></trkpt><trkpt lat="43.1019983" lon="10.5386317"><ele>5.4</ele><time>2026-04-06T09:02:04.335Z</time></trkpt><trkpt lat="43.1019" lon="10.5385983"><ele>5.0</ele><time>2026-04-06T09:02:06.339Z</time></trkpt><trkpt lat="43.1017967" lon="10.53856"><ele>5.0</ele><time>2026-04-06T09:02:08.338Z</time></trkpt><trkpt lat="43.1016967" lon="10.5385283"><ele>5.0</ele><time>2026-04-06T09:02:10.337Z</time></trkpt><trkpt lat="43.101595" lon="10.5384867"><ele>5.0</ele><time>2026-04-06T09:02:12.339Z</time></trkpt><trkpt lat="43.1014967" lon="10.538445"><ele>5.0</ele><time>2026-04-06T09:02:14.341Z</time></trkpt><trkpt lat="43.1014017" lon="10.538385"><ele>5.0</ele><time>2026-04-06T09:02:16.336Z</time></trkpt><trkpt lat="43.10129" lon="10.538365"><ele>5.25</ele><time>2026-04-06T09:02:18.341Z</time></trkpt><trkpt lat="43.1011783" lon="10.5383583"><ele>5.5</ele><time>2026-04-06T09:02:20.338Z</time></trkpt><trkpt lat="43.1010667" lon="10.5383433"><ele>5.75</ele><time>2026-04-06T09:02:22.337Z</time></trkpt><trkpt lat="43.10095" lon="10.53832"><ele>6.0</ele><time>2026-04-06T09:02:24.34Z</time></trkpt><trkpt lat="43.1008383" lon="10.53829"><ele>5.75</ele><time>2026-04-06T09:02:26.337Z</time></trkpt><trkpt lat="43.1007317" lon="10.538265"><ele>5.5</ele><time>2026-04-06T09:02:28.339Z</time></trkpt><trkpt lat="43.1006117" lon="10.5382467"><ele>5.25</ele><time>2026-04-06T09:02:30.337Z</time></trkpt><trkpt lat="43.1004967" lon="10.5382233"><ele>5.0</ele><time>2026-04-06T09:02:32.337Z</time></trkpt><trkpt lat="43.1003883" lon="10.5382267"><ele>5.0</ele><time>2026-04-06T09:02:34.338Z</time></trkpt><trkpt lat="43.100265" lon="10.538245"><ele>5.0</ele><time>2026-04-06T09:02:36.34Z</time></trkpt><trkpt lat="43.1002017" lon="10.5382517"><ele>5.0</ele><time>2026-04-06T09:02:37.338Z</time></trkpt><trkpt lat="43.100135" lon="10.538255"><ele>5.0</ele><time>2026-04-06T09:02:38.338Z</time></trkpt><trkpt lat="43.10007" lon="10.5382667"><ele>5.0</ele><time>2026-04-06T09:02:39.337Z</time></trkpt><trkpt lat="43.0999467" lon="10.5382933"><ele>5.0</ele><time>2026-04-06T09:02:41.337Z</time></trkpt><trkpt lat="43.09983" lon="10.5383267"><ele>4.8</ele><time>2026-04-06T09:02:43.337Z</time></trkpt><trkpt lat="43.099725" lon="10.5383783"><ele>4.6</ele><time>2026-04-06T09:02:45.342Z</time></trkpt><trkpt lat="43.0996183" lon="10.5384333"><ele>4.4</ele><time>2026-04-06T09:02:47.338Z</time></trkpt><trkpt lat="43.0995267" lon="10.538485"><ele>4.2</ele><time>2026-04-06T09:02:49.336Z</time></trkpt><trkpt lat="43.0994583" lon="10.53853"><ele>4.0</ele><time>2026-04-06T09:02:51.339Z</time></trkpt><trkpt lat="43.0993867" lon="10.5385817"><ele>3.9999999999999996</ele><time>2026-04-06T09:02:54.341Z</time></trkpt><trkpt lat="43.0993133" lon="10.5386517"><ele>4.0</ele><time>2026-04-06T09:02:57.338Z</time></trkpt><trkpt lat="43.099255" lon="10.5387033"><ele>4.0</ele><time>2026-04-06T09:02:59.34Z</time></trkpt><trkpt lat="43.0991817" lon="10.5387533"><ele>4.0</ele><time>2026-04-06T09:03:01.337Z</time></trkpt><trkpt lat="43.0990933" lon="10.5387933"><ele>3.9999999999999996</ele><time>2026-04-06T09:03:03.343Z</time></trkpt><trkpt lat="43.09899" lon="10.53882"><ele>4.0</ele><time>2026-04-06T09:03:05.339Z</time></trkpt><trkpt lat="43.09888" lon="10.5388367"><ele>4.5</ele><time>2026-04-06T09:03:07.338Z</time></trkpt><trkpt lat="43.0987717" lon="10.53885"><ele>5.0</ele><time>2026-04-06T09:03:09.339Z</time></trkpt><trkpt lat="43.0986533" lon="10.5388633"><ele>5.5</ele><time>2026-04-06T09:03:11.337Z</time></trkpt><trkpt lat="43.09859" lon="10.53887"><ele>6.0</ele><time>2026-04-06T09:03:12.336Z</time></trkpt><trkpt lat="43.0985267" lon="10.5388767"><ele>6.500000000000001</ele><time>2026-04-06T09:03:13.335Z</time></trkpt><trkpt lat="43.0984633" lon="10.5388817"><ele>7.0</ele><time>2026-04-06T09:03:14.335Z</time></trkpt><trkpt lat="43.0983983" lon="10.53889"><ele>7.0</ele><time>2026-04-06T09:03:15.337Z</time></trkpt><trkpt lat="43.0983333" lon="10.5388983"><ele>7.0</ele><time>2026-04-06T09:03:16.336Z</time></trkpt><trkpt lat="43.0982683" lon="10.53891"><ele>7.0</ele><time>2026-04-06T09:03:17.34Z</time></trkpt><trkpt lat="43.0982017" lon="10.53892"><ele>7.0</ele><time>2026-04-06T09:03:18.336Z</time></trkpt><trkpt lat="43.0981367" lon="10.5389283"><ele>7.0</ele><time>2026-04-06T09:03:19.339Z</time></trkpt><trkpt lat="43.0980683" lon="10.5389417"><ele>7.0</ele><time>2026-04-06T09:03:20.343Z</time></trkpt><trkpt lat="43.0980017" lon="10.538955"><ele>7.0</ele><time>2026-04-06T09:03:21.34Z</time></trkpt><trkpt lat="43.0978783" lon="10.5389617"><ele>7.000000000000001</ele><time>2026-04-06T09:03:23.34Z</time></trkpt><trkpt lat="43.0977583" lon="10.5389633"><ele>7.0</ele><time>2026-04-06T09:03:25.338Z</time></trkpt><trkpt lat="43.097695" lon="10.538965"><ele>7.0</ele><time>2026-04-06T09:03:26.339Z</time></trkpt><trkpt lat="43.0976283" lon="10.5389683"><ele>7.0</ele><time>2026-04-06T09:03:27.338Z</time></trkpt><trkpt lat="43.09756" lon="10.5389767"><ele>7.000000000000001</ele><time>2026-04-06T09:03:28.341Z</time></trkpt><trkpt lat="43.0974917" lon="10.538985"><ele>7.0</ele><time>2026-04-06T09:03:29.341Z</time></trkpt><trkpt lat="43.0974217" lon="10.5389933"><ele>7.0</ele><time>2026-04-06T09:03:30.341Z</time></trkpt><trkpt lat="43.0973583" lon="10.5390017"><ele>6.999999999999999</ele><time>2026-04-06T09:03:31.338Z</time></trkpt><trkpt lat="43.0972367" lon="10.5390233"><ele>6.999999999999999</ele><time>2026-04-06T09:03:33.338Z</time></trkpt><trkpt lat="43.097135" lon="10.5390433"><ele>7.0</ele><time>2026-04-06T09:03:35.341Z</time></trkpt><trkpt lat="43.0970483" lon="10.539065"><ele>7.0</ele><time>2026-04-06T09:03:37.34Z</time></trkpt><trkpt lat="43.0969417" lon="10.53906"><ele>7.000000000000001</ele><time>2026-04-06T09:09:29.339Z</time></trkpt><trkpt lat="43.09686" lon="10.5390617"><ele>7.0</ele><time>2026-04-06T09:09:31.337Z</time></trkpt><trkpt lat="43.09675" lon="10.539075"><ele>7.0</ele><time>2026-04-06T09:09:33.336Z</time></trkpt><trkpt lat="43.0966567" lon="10.53909"><ele>7.0</ele><time>2026-04-06T09:09:35.336Z</time></trkpt><trkpt lat="43.096595" lon="10.5391333"><ele>7.000000000000001</ele><time>2026-04-06T09:09:37.337Z</time></trkpt><trkpt lat="43.0965817" lon="10.5392417"><ele>7.0</ele><time>2026-04-06T09:09:39.339Z</time></trkpt><trkpt lat="43.0965883" lon="10.5393917"><ele>7.0</ele><time>2026-04-06T09:09:41.336Z</time></trkpt><trkpt lat="43.0965983" lon="10.53954"><ele>6.999999999999999</ele><time>2026-04-06T09:09:43.336Z</time></trkpt><trkpt lat="43.0966067" lon="10.5396717"><ele>6.999999999999999</ele><time>2026-04-06T09:09:45.336Z</time></trkpt><trkpt lat="43.096655" lon="10.5397567"><ele>7.0</ele><time>2026-04-06T09:09:47.338Z</time></trkpt><trkpt lat="43.09674" lon="10.5397683"><ele>7.0</ele><time>2026-04-06T09:09:49.335Z</time></trkpt><trkpt lat="43.0968267" lon="10.5397583"><ele>7.000000000000001</ele><time>2026-04-06T09:09:51.337Z</time></trkpt><trkpt lat="43.096925" lon="10.5397417"><ele>7.0</ele><time>2026-04-06T09:09:53.334Z</time></trkpt><trkpt lat="43.0970117" lon="10.539735"><ele>7.0</ele><time>2026-04-06T09:09:55.339Z</time></trkpt><trkpt lat="43.0970733" lon="10.5397133"><ele>7.0</ele><time>2026-04-06T09:09:58.336Z</time></trkpt><trkpt lat="43.097095" lon="10.5396233"><ele>7.000000000000001</ele><time>2026-04-06T09:10:08.339Z</time></trkpt><trkpt lat="43.0970867" lon="10.539515"><ele>7.0</ele><time>2026-04-06T09:16:55.339Z</time></trkpt><trkpt lat="43.097085" lon="10.53941"><ele>7.0</ele><time>2026-04-06T09:17:01.341Z</time></trkpt><trkpt lat="43.0971283" lon="10.5394867"><ele>7.0</ele><time>2026-04-06T09:17:09.339Z</time></trkpt><trkpt lat="43.09717" lon="10.5395533"><ele>7.0</ele><time>2026-04-06T09:17:12.334Z</time></trkpt><trkpt lat="43.0969303" lon="10.5392221"><ele>7.0</ele><time>2026-04-06T09:17:32.489Z</time></trkpt></trkseg></trk></gpx>